<?xml version="1.0" encoding="UTF-8" standalone="no" ?>
<gpx xmlns="http://www.topografix.com/GPX/1/1" xmlns:xsi="http://www.w3.org/2001/XMLSchema-instance" xsi:schemaLocation="http://www.topografix.com/GPX/1/1 http://www.topografix.com/GPX/1/1/gpx.xsd" version="1.1" creator="VisuGPX - https://www.visugpx.com">
  <metadata>
    <name>Crémieu Bénonces</name>
  </metadata>
  <trk>
    <name><![CDATA[Crémieu Bénonces_1]]></name>
    <trkseg>
      <trkpt lat="45.7161" lon="5.26023">
        <ele>247.6</ele>
        <time>2023-05-28T06:36:35Z</time>
      </trkpt>
      <trkpt lat="45.71606" lon="5.2603">
        <ele>258.2</ele>
        <time>2023-05-28T06:36:36Z</time>
      </trkpt>
      <trkpt lat="45.71602" lon="5.26037">
        <ele>258.4</ele>
        <time>2023-05-28T06:36:37Z</time>
      </trkpt>
      <trkpt lat="45.71598" lon="5.26044">
        <ele>258.2</ele>
        <time>2023-05-28T06:36:38Z</time>
      </trkpt>
      <trkpt lat="45.71595" lon="5.26052">
        <ele>258.2</ele>
        <time>2023-05-28T06:36:39Z</time>
      </trkpt>
      <trkpt lat="45.71593" lon="5.2606">
        <ele>258.2</ele>
        <time>2023-05-28T06:36:40Z</time>
      </trkpt>
      <trkpt lat="45.7159" lon="5.26069">
        <ele>258.2</ele>
        <time>2023-05-28T06:36:41Z</time>
      </trkpt>
      <trkpt lat="45.71587" lon="5.26077">
        <ele>258.4</ele>
        <time>2023-05-28T06:36:42Z</time>
      </trkpt>
      <trkpt lat="45.71585" lon="5.26084">
        <ele>258.6</ele>
        <time>2023-05-28T06:36:43Z</time>
      </trkpt>
      <trkpt lat="45.71582" lon="5.26092">
        <ele>258.6</ele>
        <time>2023-05-28T06:36:44Z</time>
      </trkpt>
      <trkpt lat="45.71579" lon="5.2611">
        <ele>258.4</ele>
        <time>2023-05-28T06:36:46Z</time>
      </trkpt>
      <trkpt lat="45.71577" lon="5.26117">
        <ele>258.4</ele>
        <time>2023-05-28T06:36:47Z</time>
      </trkpt>
      <trkpt lat="45.71574" lon="5.26125">
        <ele>258.4</ele>
        <time>2023-05-28T06:36:48Z</time>
      </trkpt>
      <trkpt lat="45.71572" lon="5.26133">
        <ele>258.4</ele>
        <time>2023-05-28T06:36:49Z</time>
      </trkpt>
      <trkpt lat="45.71571" lon="5.26139">
        <ele>258.4</ele>
        <time>2023-05-28T06:36:50Z</time>
      </trkpt>
      <trkpt lat="45.71569" lon="5.26148">
        <ele>258.8</ele>
        <time>2023-05-28T06:36:51Z</time>
      </trkpt>
      <trkpt lat="45.71567" lon="5.26156">
        <ele>258.8</ele>
        <time>2023-05-28T06:36:52Z</time>
      </trkpt>
      <trkpt lat="45.71564" lon="5.26162">
        <ele>259</ele>
        <time>2023-05-28T06:36:53Z</time>
      </trkpt>
      <trkpt lat="45.71561" lon="5.26169">
        <ele>259</ele>
        <time>2023-05-28T06:36:54Z</time>
      </trkpt>
      <trkpt lat="45.71559" lon="5.26178">
        <ele>259.4</ele>
        <time>2023-05-28T06:36:55Z</time>
      </trkpt>
      <trkpt lat="45.71557" lon="5.26186">
        <ele>259.4</ele>
        <time>2023-05-28T06:36:56Z</time>
      </trkpt>
      <trkpt lat="45.71555" lon="5.26194">
        <ele>259.6</ele>
        <time>2023-05-28T06:36:57Z</time>
      </trkpt>
      <trkpt lat="45.71554" lon="5.262">
        <ele>260</ele>
        <time>2023-05-28T06:36:58Z</time>
      </trkpt>
      <trkpt lat="45.71552" lon="5.26209">
        <ele>260</ele>
        <time>2023-05-28T06:36:59Z</time>
      </trkpt>
      <trkpt lat="45.7155" lon="5.26216">
        <ele>260.2</ele>
        <time>2023-05-28T06:37:00Z</time>
      </trkpt>
      <trkpt lat="45.71548" lon="5.26225">
        <ele>260.4</ele>
        <time>2023-05-28T06:37:01Z</time>
      </trkpt>
      <trkpt lat="45.71546" lon="5.26233">
        <ele>260.6</ele>
        <time>2023-05-28T06:37:02Z</time>
      </trkpt>
      <trkpt lat="45.71543" lon="5.26247">
        <ele>260.8</ele>
        <time>2023-05-28T06:37:04Z</time>
      </trkpt>
      <trkpt lat="45.71542" lon="5.26257">
        <ele>261.2</ele>
        <time>2023-05-28T06:37:05Z</time>
      </trkpt>
      <trkpt lat="45.71541" lon="5.26266">
        <ele>261.2</ele>
        <time>2023-05-28T06:37:06Z</time>
      </trkpt>
      <trkpt lat="45.71541" lon="5.26273">
        <ele>261.4</ele>
        <time>2023-05-28T06:37:07Z</time>
      </trkpt>
      <trkpt lat="45.7154" lon="5.26283">
        <ele>261.4</ele>
        <time>2023-05-28T06:37:08Z</time>
      </trkpt>
      <trkpt lat="45.7154" lon="5.2629">
        <ele>261.6</ele>
        <time>2023-05-28T06:37:09Z</time>
      </trkpt>
      <trkpt lat="45.71539" lon="5.26298">
        <ele>261.6</ele>
        <time>2023-05-28T06:37:10Z</time>
      </trkpt>
      <trkpt lat="45.7154" lon="5.26318">
        <ele>261.6</ele>
        <time>2023-05-28T06:37:12Z</time>
      </trkpt>
      <trkpt lat="45.71539" lon="5.26325">
        <ele>261.6</ele>
        <time>2023-05-28T06:37:13Z</time>
      </trkpt>
      <trkpt lat="45.71539" lon="5.26335">
        <ele>261.6</ele>
        <time>2023-05-28T06:37:14Z</time>
      </trkpt>
      <trkpt lat="45.71539" lon="5.26344">
        <ele>261.6</ele>
        <time>2023-05-28T06:37:15Z</time>
      </trkpt>
      <trkpt lat="45.71539" lon="5.26361">
        <ele>261.6</ele>
        <time>2023-05-28T06:37:17Z</time>
      </trkpt>
      <trkpt lat="45.71538" lon="5.26369">
        <ele>261.4</ele>
        <time>2023-05-28T06:37:18Z</time>
      </trkpt>
      <trkpt lat="45.71537" lon="5.26378">
        <ele>261.4</ele>
        <time>2023-05-28T06:37:19Z</time>
      </trkpt>
      <trkpt lat="45.71536" lon="5.26389">
        <ele>261.2</ele>
        <time>2023-05-28T06:37:20Z</time>
      </trkpt>
      <trkpt lat="45.71534" lon="5.26398">
        <ele>261.2</ele>
        <time>2023-05-28T06:37:21Z</time>
      </trkpt>
      <trkpt lat="45.71532" lon="5.26407">
        <ele>261</ele>
        <time>2023-05-28T06:37:22Z</time>
      </trkpt>
      <trkpt lat="45.7153" lon="5.26414">
        <ele>261</ele>
        <time>2023-05-28T06:37:23Z</time>
      </trkpt>
      <trkpt lat="45.71527" lon="5.26423">
        <ele>260.8</ele>
        <time>2023-05-28T06:37:24Z</time>
      </trkpt>
      <trkpt lat="45.71524" lon="5.26431">
        <ele>260.8</ele>
        <time>2023-05-28T06:37:25Z</time>
      </trkpt>
      <trkpt lat="45.7152" lon="5.26439">
        <ele>260.8</ele>
        <time>2023-05-28T06:37:26Z</time>
      </trkpt>
      <trkpt lat="45.71518" lon="5.26447">
        <ele>260.8</ele>
        <time>2023-05-28T06:37:27Z</time>
      </trkpt>
      <trkpt lat="45.71515" lon="5.26455">
        <ele>260.8</ele>
        <time>2023-05-28T06:37:28Z</time>
      </trkpt>
      <trkpt lat="45.71512" lon="5.26462">
        <ele>260.8</ele>
        <time>2023-05-28T06:37:29Z</time>
      </trkpt>
      <trkpt lat="45.71509" lon="5.26469">
        <ele>260.8</ele>
        <time>2023-05-28T06:37:30Z</time>
      </trkpt>
      <trkpt lat="45.71502" lon="5.26485">
        <ele>260.8</ele>
        <time>2023-05-28T06:37:32Z</time>
      </trkpt>
      <trkpt lat="45.71499" lon="5.2649">
        <ele>260.8</ele>
        <time>2023-05-28T06:37:33Z</time>
      </trkpt>
      <trkpt lat="45.71496" lon="5.26498">
        <ele>261</ele>
        <time>2023-05-28T06:37:34Z</time>
      </trkpt>
      <trkpt lat="45.71492" lon="5.26505">
        <ele>261</ele>
        <time>2023-05-28T06:37:35Z</time>
      </trkpt>
      <trkpt lat="45.71489" lon="5.26512">
        <ele>261</ele>
        <time>2023-05-28T06:37:36Z</time>
      </trkpt>
      <trkpt lat="45.71484" lon="5.2652">
        <ele>261</ele>
        <time>2023-05-28T06:37:37Z</time>
      </trkpt>
      <trkpt lat="45.7148" lon="5.26526">
        <ele>261</ele>
        <time>2023-05-28T06:37:38Z</time>
      </trkpt>
      <trkpt lat="45.71475" lon="5.26533">
        <ele>261</ele>
        <time>2023-05-28T06:37:39Z</time>
      </trkpt>
      <trkpt lat="45.71463" lon="5.26548">
        <ele>261</ele>
        <time>2023-05-28T06:37:41Z</time>
      </trkpt>
      <trkpt lat="45.71458" lon="5.26555">
        <ele>261.2</ele>
        <time>2023-05-28T06:37:42Z</time>
      </trkpt>
      <trkpt lat="45.71455" lon="5.2656">
        <ele>261.2</ele>
        <time>2023-05-28T06:37:43Z</time>
      </trkpt>
      <trkpt lat="45.71451" lon="5.26567">
        <ele>261.2</ele>
        <time>2023-05-28T06:37:44Z</time>
      </trkpt>
      <trkpt lat="45.71447" lon="5.26574">
        <ele>261.2</ele>
        <time>2023-05-28T06:37:45Z</time>
      </trkpt>
      <trkpt lat="45.71442" lon="5.26583">
        <ele>261.4</ele>
        <time>2023-05-28T06:37:46Z</time>
      </trkpt>
      <trkpt lat="45.71439" lon="5.26589">
        <ele>261.4</ele>
        <time>2023-05-28T06:37:47Z</time>
      </trkpt>
      <trkpt lat="45.7143" lon="5.26603">
        <ele>261.4</ele>
        <time>2023-05-28T06:37:49Z</time>
      </trkpt>
      <trkpt lat="45.71426" lon="5.2661">
        <ele>261.4</ele>
        <time>2023-05-28T06:37:50Z</time>
      </trkpt>
      <trkpt lat="45.71421" lon="5.26618">
        <ele>261.6</ele>
        <time>2023-05-28T06:37:51Z</time>
      </trkpt>
      <trkpt lat="45.71416" lon="5.26627">
        <ele>261.6</ele>
        <time>2023-05-28T06:37:52Z</time>
      </trkpt>
      <trkpt lat="45.71412" lon="5.26632">
        <ele>261.6</ele>
        <time>2023-05-28T06:37:53Z</time>
      </trkpt>
      <trkpt lat="45.71408" lon="5.2664">
        <ele>261.6</ele>
        <time>2023-05-28T06:37:54Z</time>
      </trkpt>
      <trkpt lat="45.71404" lon="5.26647">
        <ele>261.8</ele>
        <time>2023-05-28T06:37:55Z</time>
      </trkpt>
      <trkpt lat="45.71399" lon="5.26656">
        <ele>262</ele>
        <time>2023-05-28T06:37:56Z</time>
      </trkpt>
      <trkpt lat="45.71396" lon="5.26662">
        <ele>262</ele>
        <time>2023-05-28T06:37:57Z</time>
      </trkpt>
      <trkpt lat="45.71391" lon="5.26669">
        <ele>262.2</ele>
        <time>2023-05-28T06:37:58Z</time>
      </trkpt>
      <trkpt lat="45.71387" lon="5.26676">
        <ele>262.2</ele>
        <time>2023-05-28T06:37:59Z</time>
      </trkpt>
      <trkpt lat="45.71381" lon="5.26684">
        <ele>262.4</ele>
        <time>2023-05-28T06:38:00Z</time>
      </trkpt>
      <trkpt lat="45.71378" lon="5.2669">
        <ele>262.6</ele>
        <time>2023-05-28T06:38:01Z</time>
      </trkpt>
      <trkpt lat="45.71375" lon="5.26697">
        <ele>262.6</ele>
        <time>2023-05-28T06:38:02Z</time>
      </trkpt>
      <trkpt lat="45.71372" lon="5.26704">
        <ele>262.6</ele>
        <time>2023-05-28T06:38:03Z</time>
      </trkpt>
      <trkpt lat="45.71368" lon="5.26711">
        <ele>262.8</ele>
        <time>2023-05-28T06:38:04Z</time>
      </trkpt>
      <trkpt lat="45.71364" lon="5.2672">
        <ele>262.8</ele>
        <time>2023-05-28T06:38:05Z</time>
      </trkpt>
      <trkpt lat="45.7136" lon="5.26725">
        <ele>262.8</ele>
        <time>2023-05-28T06:38:06Z</time>
      </trkpt>
      <trkpt lat="45.71356" lon="5.26732">
        <ele>263</ele>
        <time>2023-05-28T06:38:07Z</time>
      </trkpt>
      <trkpt lat="45.71352" lon="5.2674">
        <ele>263</ele>
        <time>2023-05-28T06:38:08Z</time>
      </trkpt>
      <trkpt lat="45.71349" lon="5.26747">
        <ele>263</ele>
        <time>2023-05-28T06:38:09Z</time>
      </trkpt>
      <trkpt lat="45.71345" lon="5.26755">
        <ele>263.2</ele>
        <time>2023-05-28T06:38:10Z</time>
      </trkpt>
      <trkpt lat="45.7134" lon="5.26762">
        <ele>263.4</ele>
        <time>2023-05-28T06:38:11Z</time>
      </trkpt>
      <trkpt lat="45.71335" lon="5.2677">
        <ele>263.6</ele>
        <time>2023-05-28T06:38:12Z</time>
      </trkpt>
      <trkpt lat="45.71332" lon="5.26776">
        <ele>263.6</ele>
        <time>2023-05-28T06:38:13Z</time>
      </trkpt>
      <trkpt lat="45.71328" lon="5.26783">
        <ele>264</ele>
        <time>2023-05-28T06:38:14Z</time>
      </trkpt>
      <trkpt lat="45.71324" lon="5.2679">
        <ele>264</ele>
        <time>2023-05-28T06:38:15Z</time>
      </trkpt>
      <trkpt lat="45.71321" lon="5.26797">
        <ele>264</ele>
        <time>2023-05-28T06:38:16Z</time>
      </trkpt>
      <trkpt lat="45.71316" lon="5.26804">
        <ele>264.2</ele>
        <time>2023-05-28T06:38:17Z</time>
      </trkpt>
      <trkpt lat="45.71313" lon="5.26811">
        <ele>264.2</ele>
        <time>2023-05-28T06:38:18Z</time>
      </trkpt>
      <trkpt lat="45.71308" lon="5.26818">
        <ele>264.2</ele>
        <time>2023-05-28T06:38:19Z</time>
      </trkpt>
      <trkpt lat="45.71298" lon="5.26833">
        <ele>264.4</ele>
        <time>2023-05-28T06:38:21Z</time>
      </trkpt>
      <trkpt lat="45.71293" lon="5.2684">
        <ele>264.4</ele>
        <time>2023-05-28T06:38:22Z</time>
      </trkpt>
      <trkpt lat="45.7129" lon="5.26846">
        <ele>264.4</ele>
        <time>2023-05-28T06:38:23Z</time>
      </trkpt>
      <trkpt lat="45.71286" lon="5.26854">
        <ele>264.4</ele>
        <time>2023-05-28T06:38:24Z</time>
      </trkpt>
      <trkpt lat="45.71281" lon="5.26861">
        <ele>264.6</ele>
        <time>2023-05-28T06:38:25Z</time>
      </trkpt>
      <trkpt lat="45.71277" lon="5.26868">
        <ele>264.6</ele>
        <time>2023-05-28T06:38:26Z</time>
      </trkpt>
      <trkpt lat="45.71269" lon="5.26883">
        <ele>264.8</ele>
        <time>2023-05-28T06:38:28Z</time>
      </trkpt>
      <trkpt lat="45.71265" lon="5.26891">
        <ele>264.8</ele>
        <time>2023-05-28T06:38:29Z</time>
      </trkpt>
      <trkpt lat="45.7126" lon="5.26899">
        <ele>264.8</ele>
        <time>2023-05-28T06:38:30Z</time>
      </trkpt>
      <trkpt lat="45.71256" lon="5.26906">
        <ele>264.8</ele>
        <time>2023-05-28T06:38:31Z</time>
      </trkpt>
      <trkpt lat="45.71252" lon="5.26913">
        <ele>264.8</ele>
        <time>2023-05-28T06:38:32Z</time>
      </trkpt>
      <trkpt lat="45.71248" lon="5.2692">
        <ele>265</ele>
        <time>2023-05-28T06:38:33Z</time>
      </trkpt>
      <trkpt lat="45.71245" lon="5.26928">
        <ele>265</ele>
        <time>2023-05-28T06:38:34Z</time>
      </trkpt>
      <trkpt lat="45.71243" lon="5.26935">
        <ele>265.2</ele>
        <time>2023-05-28T06:38:35Z</time>
      </trkpt>
      <trkpt lat="45.71239" lon="5.26942">
        <ele>265.2</ele>
        <time>2023-05-28T06:38:36Z</time>
      </trkpt>
      <trkpt lat="45.71236" lon="5.2695">
        <ele>265.2</ele>
        <time>2023-05-28T06:38:37Z</time>
      </trkpt>
      <trkpt lat="45.71232" lon="5.26957">
        <ele>265.2</ele>
        <time>2023-05-28T06:38:38Z</time>
      </trkpt>
      <trkpt lat="45.71228" lon="5.26964">
        <ele>265.4</ele>
        <time>2023-05-28T06:38:39Z</time>
      </trkpt>
      <trkpt lat="45.71225" lon="5.26972">
        <ele>265.6</ele>
        <time>2023-05-28T06:38:40Z</time>
      </trkpt>
      <trkpt lat="45.71221" lon="5.26979">
        <ele>265.6</ele>
        <time>2023-05-28T06:38:41Z</time>
      </trkpt>
      <trkpt lat="45.71217" lon="5.26989">
        <ele>265.6</ele>
        <time>2023-05-28T06:38:42Z</time>
      </trkpt>
      <trkpt lat="45.71214" lon="5.26995">
        <ele>265.6</ele>
        <time>2023-05-28T06:38:43Z</time>
      </trkpt>
      <trkpt lat="45.71208" lon="5.2701">
        <ele>265.8</ele>
        <time>2023-05-28T06:38:45Z</time>
      </trkpt>
      <trkpt lat="45.71205" lon="5.27017">
        <ele>265.8</ele>
        <time>2023-05-28T06:38:46Z</time>
      </trkpt>
      <trkpt lat="45.712" lon="5.27026">
        <ele>266</ele>
        <time>2023-05-28T06:38:47Z</time>
      </trkpt>
      <trkpt lat="45.71197" lon="5.27033">
        <ele>266</ele>
        <time>2023-05-28T06:38:48Z</time>
      </trkpt>
      <trkpt lat="45.71194" lon="5.27041">
        <ele>266</ele>
        <time>2023-05-28T06:38:49Z</time>
      </trkpt>
      <trkpt lat="45.71191" lon="5.27048">
        <ele>266</ele>
        <time>2023-05-28T06:38:50Z</time>
      </trkpt>
      <trkpt lat="45.71187" lon="5.27056">
        <ele>266</ele>
        <time>2023-05-28T06:38:51Z</time>
      </trkpt>
      <trkpt lat="45.71183" lon="5.27063">
        <ele>266</ele>
        <time>2023-05-28T06:38:52Z</time>
      </trkpt>
      <trkpt lat="45.7118" lon="5.2707">
        <ele>266.2</ele>
        <time>2023-05-28T06:38:53Z</time>
      </trkpt>
      <trkpt lat="45.71177" lon="5.27077">
        <ele>266.2</ele>
        <time>2023-05-28T06:38:54Z</time>
      </trkpt>
      <trkpt lat="45.71174" lon="5.27084">
        <ele>266.2</ele>
        <time>2023-05-28T06:38:55Z</time>
      </trkpt>
      <trkpt lat="45.71171" lon="5.27091">
        <ele>266.4</ele>
        <time>2023-05-28T06:38:56Z</time>
      </trkpt>
      <trkpt lat="45.71166" lon="5.271">
        <ele>266.4</ele>
        <time>2023-05-28T06:38:57Z</time>
      </trkpt>
      <trkpt lat="45.71163" lon="5.27105">
        <ele>266.6</ele>
        <time>2023-05-28T06:38:58Z</time>
      </trkpt>
      <trkpt lat="45.7116" lon="5.27112">
        <ele>266.6</ele>
        <time>2023-05-28T06:38:59Z</time>
      </trkpt>
      <trkpt lat="45.71157" lon="5.27119">
        <ele>266.6</ele>
        <time>2023-05-28T06:39:00Z</time>
      </trkpt>
      <trkpt lat="45.71153" lon="5.27127">
        <ele>266.6</ele>
        <time>2023-05-28T06:39:01Z</time>
      </trkpt>
      <trkpt lat="45.7115" lon="5.27135">
        <ele>266.6</ele>
        <time>2023-05-28T06:39:02Z</time>
      </trkpt>
      <trkpt lat="45.71146" lon="5.27142">
        <ele>266.6</ele>
        <time>2023-05-28T06:39:03Z</time>
      </trkpt>
      <trkpt lat="45.71143" lon="5.2715">
        <ele>266.8</ele>
        <time>2023-05-28T06:39:04Z</time>
      </trkpt>
      <trkpt lat="45.71139" lon="5.27157">
        <ele>266.8</ele>
        <time>2023-05-28T06:39:05Z</time>
      </trkpt>
      <trkpt lat="45.71136" lon="5.27164">
        <ele>266.8</ele>
        <time>2023-05-28T06:39:06Z</time>
      </trkpt>
      <trkpt lat="45.71131" lon="5.27173">
        <ele>266.8</ele>
        <time>2023-05-28T06:39:07Z</time>
      </trkpt>
      <trkpt lat="45.71128" lon="5.27179">
        <ele>267</ele>
        <time>2023-05-28T06:39:08Z</time>
      </trkpt>
      <trkpt lat="45.71124" lon="5.27186">
        <ele>267</ele>
        <time>2023-05-28T06:39:09Z</time>
      </trkpt>
      <trkpt lat="45.71116" lon="5.27201">
        <ele>267.4</ele>
        <time>2023-05-28T06:39:11Z</time>
      </trkpt>
      <trkpt lat="45.71111" lon="5.2721">
        <ele>267.8</ele>
        <time>2023-05-28T06:39:12Z</time>
      </trkpt>
      <trkpt lat="45.71108" lon="5.27216">
        <ele>267.8</ele>
        <time>2023-05-28T06:39:13Z</time>
      </trkpt>
      <trkpt lat="45.71104" lon="5.27224">
        <ele>268</ele>
        <time>2023-05-28T06:39:14Z</time>
      </trkpt>
      <trkpt lat="45.711" lon="5.27231">
        <ele>268.4</ele>
        <time>2023-05-28T06:39:15Z</time>
      </trkpt>
      <trkpt lat="45.71096" lon="5.27239">
        <ele>268.4</ele>
        <time>2023-05-28T06:39:16Z</time>
      </trkpt>
      <trkpt lat="45.71091" lon="5.27247">
        <ele>268.6</ele>
        <time>2023-05-28T06:39:17Z</time>
      </trkpt>
      <trkpt lat="45.71087" lon="5.27256">
        <ele>268.6</ele>
        <time>2023-05-28T06:39:18Z</time>
      </trkpt>
      <trkpt lat="45.71083" lon="5.27264">
        <ele>268.8</ele>
        <time>2023-05-28T06:39:19Z</time>
      </trkpt>
      <trkpt lat="45.71079" lon="5.27272">
        <ele>268.8</ele>
        <time>2023-05-28T06:39:20Z</time>
      </trkpt>
      <trkpt lat="45.71076" lon="5.2728">
        <ele>269</ele>
        <time>2023-05-28T06:39:21Z</time>
      </trkpt>
      <trkpt lat="45.71069" lon="5.27297">
        <ele>269</ele>
        <time>2023-05-28T06:39:23Z</time>
      </trkpt>
      <trkpt lat="45.71065" lon="5.27305">
        <ele>269.2</ele>
        <time>2023-05-28T06:39:24Z</time>
      </trkpt>
      <trkpt lat="45.7106" lon="5.27315">
        <ele>269.4</ele>
        <time>2023-05-28T06:39:25Z</time>
      </trkpt>
      <trkpt lat="45.71057" lon="5.27322">
        <ele>269.4</ele>
        <time>2023-05-28T06:39:26Z</time>
      </trkpt>
      <trkpt lat="45.71054" lon="5.27329">
        <ele>269.4</ele>
        <time>2023-05-28T06:39:27Z</time>
      </trkpt>
      <trkpt lat="45.7105" lon="5.27337">
        <ele>269.6</ele>
        <time>2023-05-28T06:39:28Z</time>
      </trkpt>
      <trkpt lat="45.71046" lon="5.27345">
        <ele>269.6</ele>
        <time>2023-05-28T06:39:29Z</time>
      </trkpt>
      <trkpt lat="45.71043" lon="5.27354">
        <ele>269.6</ele>
        <time>2023-05-28T06:39:30Z</time>
      </trkpt>
      <trkpt lat="45.7104" lon="5.27362">
        <ele>269.6</ele>
        <time>2023-05-28T06:39:31Z</time>
      </trkpt>
      <trkpt lat="45.71036" lon="5.2737">
        <ele>269.8</ele>
        <time>2023-05-28T06:39:32Z</time>
      </trkpt>
      <trkpt lat="45.71033" lon="5.27379">
        <ele>269.8</ele>
        <time>2023-05-28T06:39:33Z</time>
      </trkpt>
      <trkpt lat="45.71029" lon="5.27387">
        <ele>269.8</ele>
        <time>2023-05-28T06:39:34Z</time>
      </trkpt>
      <trkpt lat="45.71025" lon="5.27395">
        <ele>269.8</ele>
        <time>2023-05-28T06:39:35Z</time>
      </trkpt>
      <trkpt lat="45.71022" lon="5.27403">
        <ele>269.8</ele>
        <time>2023-05-28T06:39:36Z</time>
      </trkpt>
      <trkpt lat="45.71018" lon="5.27413">
        <ele>270</ele>
        <time>2023-05-28T06:39:37Z</time>
      </trkpt>
      <trkpt lat="45.71016" lon="5.2742">
        <ele>270</ele>
        <time>2023-05-28T06:39:38Z</time>
      </trkpt>
      <trkpt lat="45.71013" lon="5.27429">
        <ele>270</ele>
        <time>2023-05-28T06:39:39Z</time>
      </trkpt>
      <trkpt lat="45.7101" lon="5.27437">
        <ele>270</ele>
        <time>2023-05-28T06:39:40Z</time>
      </trkpt>
      <trkpt lat="45.71007" lon="5.27447">
        <ele>270</ele>
        <time>2023-05-28T06:39:41Z</time>
      </trkpt>
      <trkpt lat="45.71004" lon="5.27455">
        <ele>270</ele>
        <time>2023-05-28T06:39:42Z</time>
      </trkpt>
      <trkpt lat="45.71002" lon="5.27462">
        <ele>270</ele>
        <time>2023-05-28T06:39:43Z</time>
      </trkpt>
      <trkpt lat="45.70999" lon="5.2747">
        <ele>270.2</ele>
        <time>2023-05-28T06:39:44Z</time>
      </trkpt>
      <trkpt lat="45.70996" lon="5.27478">
        <ele>270.2</ele>
        <time>2023-05-28T06:39:45Z</time>
      </trkpt>
      <trkpt lat="45.70992" lon="5.27486">
        <ele>270.2</ele>
        <time>2023-05-28T06:39:46Z</time>
      </trkpt>
      <trkpt lat="45.70988" lon="5.27497">
        <ele>270.2</ele>
        <time>2023-05-28T06:39:47Z</time>
      </trkpt>
      <trkpt lat="45.70986" lon="5.27504">
        <ele>270.2</ele>
        <time>2023-05-28T06:39:48Z</time>
      </trkpt>
      <trkpt lat="45.70983" lon="5.27512">
        <ele>270.2</ele>
        <time>2023-05-28T06:39:49Z</time>
      </trkpt>
      <trkpt lat="45.7098" lon="5.27521">
        <ele>270.2</ele>
        <time>2023-05-28T06:39:50Z</time>
      </trkpt>
      <trkpt lat="45.70977" lon="5.27529">
        <ele>270.2</ele>
        <time>2023-05-28T06:39:51Z</time>
      </trkpt>
      <trkpt lat="45.70974" lon="5.27537">
        <ele>270.2</ele>
        <time>2023-05-28T06:39:52Z</time>
      </trkpt>
      <trkpt lat="45.70971" lon="5.27546">
        <ele>270.2</ele>
        <time>2023-05-28T06:39:53Z</time>
      </trkpt>
      <trkpt lat="45.70968" lon="5.27554">
        <ele>270.2</ele>
        <time>2023-05-28T06:39:54Z</time>
      </trkpt>
      <trkpt lat="45.70964" lon="5.27563">
        <ele>270</ele>
        <time>2023-05-28T06:39:55Z</time>
      </trkpt>
      <trkpt lat="45.70961" lon="5.27571">
        <ele>270</ele>
        <time>2023-05-28T06:39:56Z</time>
      </trkpt>
      <trkpt lat="45.70957" lon="5.27582">
        <ele>270</ele>
        <time>2023-05-28T06:39:57Z</time>
      </trkpt>
      <trkpt lat="45.70954" lon="5.27589">
        <ele>269.8</ele>
        <time>2023-05-28T06:39:58Z</time>
      </trkpt>
      <trkpt lat="45.7095" lon="5.27598">
        <ele>269.6</ele>
        <time>2023-05-28T06:39:59Z</time>
      </trkpt>
      <trkpt lat="45.70947" lon="5.27607">
        <ele>269.6</ele>
        <time>2023-05-28T06:40:00Z</time>
      </trkpt>
      <trkpt lat="45.70943" lon="5.27616">
        <ele>269.4</ele>
        <time>2023-05-28T06:40:01Z</time>
      </trkpt>
      <trkpt lat="45.7094" lon="5.27625">
        <ele>269.2</ele>
        <time>2023-05-28T06:40:02Z</time>
      </trkpt>
      <trkpt lat="45.70936" lon="5.27634">
        <ele>269.2</ele>
        <time>2023-05-28T06:40:03Z</time>
      </trkpt>
      <trkpt lat="45.70929" lon="5.27651">
        <ele>269</ele>
        <time>2023-05-28T06:40:05Z</time>
      </trkpt>
      <trkpt lat="45.70926" lon="5.2766">
        <ele>268.8</ele>
        <time>2023-05-28T06:40:06Z</time>
      </trkpt>
      <trkpt lat="45.70922" lon="5.27669">
        <ele>268.8</ele>
        <time>2023-05-28T06:40:07Z</time>
      </trkpt>
      <trkpt lat="45.70919" lon="5.27677">
        <ele>268.8</ele>
        <time>2023-05-28T06:40:08Z</time>
      </trkpt>
      <trkpt lat="45.70915" lon="5.27686">
        <ele>268.6</ele>
        <time>2023-05-28T06:40:09Z</time>
      </trkpt>
      <trkpt lat="45.70911" lon="5.27695">
        <ele>268.6</ele>
        <time>2023-05-28T06:40:10Z</time>
      </trkpt>
      <trkpt lat="45.70908" lon="5.27704">
        <ele>268.6</ele>
        <time>2023-05-28T06:40:11Z</time>
      </trkpt>
      <trkpt lat="45.70905" lon="5.27713">
        <ele>268.4</ele>
        <time>2023-05-28T06:40:12Z</time>
      </trkpt>
      <trkpt lat="45.70901" lon="5.27722">
        <ele>268.4</ele>
        <time>2023-05-28T06:40:13Z</time>
      </trkpt>
      <trkpt lat="45.70894" lon="5.27739">
        <ele>268.2</ele>
        <time>2023-05-28T06:40:15Z</time>
      </trkpt>
      <trkpt lat="45.70891" lon="5.27748">
        <ele>268.2</ele>
        <time>2023-05-28T06:40:16Z</time>
      </trkpt>
      <trkpt lat="45.70887" lon="5.27759">
        <ele>268.2</ele>
        <time>2023-05-28T06:40:17Z</time>
      </trkpt>
      <trkpt lat="45.70885" lon="5.27765">
        <ele>268.2</ele>
        <time>2023-05-28T06:40:18Z</time>
      </trkpt>
      <trkpt lat="45.70881" lon="5.27774">
        <ele>268.2</ele>
        <time>2023-05-28T06:40:19Z</time>
      </trkpt>
      <trkpt lat="45.70878" lon="5.27783">
        <ele>268.6</ele>
        <time>2023-05-28T06:40:20Z</time>
      </trkpt>
      <trkpt lat="45.70875" lon="5.27791">
        <ele>268.6</ele>
        <time>2023-05-28T06:40:21Z</time>
      </trkpt>
      <trkpt lat="45.70871" lon="5.278">
        <ele>268.8</ele>
        <time>2023-05-28T06:40:22Z</time>
      </trkpt>
      <trkpt lat="45.70867" lon="5.27809">
        <ele>268.8</ele>
        <time>2023-05-28T06:40:23Z</time>
      </trkpt>
      <trkpt lat="45.70864" lon="5.27817">
        <ele>269</ele>
        <time>2023-05-28T06:40:24Z</time>
      </trkpt>
      <trkpt lat="45.70859" lon="5.27826">
        <ele>269</ele>
        <time>2023-05-28T06:40:25Z</time>
      </trkpt>
      <trkpt lat="45.70855" lon="5.27834">
        <ele>269.2</ele>
        <time>2023-05-28T06:40:26Z</time>
      </trkpt>
      <trkpt lat="45.70851" lon="5.27842">
        <ele>269.2</ele>
        <time>2023-05-28T06:40:27Z</time>
      </trkpt>
      <trkpt lat="45.70847" lon="5.2785">
        <ele>269.4</ele>
        <time>2023-05-28T06:40:28Z</time>
      </trkpt>
      <trkpt lat="45.70843" lon="5.27858">
        <ele>269.6</ele>
        <time>2023-05-28T06:40:29Z</time>
      </trkpt>
      <trkpt lat="45.70838" lon="5.27868">
        <ele>269.8</ele>
        <time>2023-05-28T06:40:30Z</time>
      </trkpt>
      <trkpt lat="45.70834" lon="5.27875">
        <ele>270.2</ele>
        <time>2023-05-28T06:40:31Z</time>
      </trkpt>
      <trkpt lat="45.7083" lon="5.27884">
        <ele>270.2</ele>
        <time>2023-05-28T06:40:32Z</time>
      </trkpt>
      <trkpt lat="45.70826" lon="5.27892">
        <ele>270.4</ele>
        <time>2023-05-28T06:40:33Z</time>
      </trkpt>
      <trkpt lat="45.70821" lon="5.279">
        <ele>270.6</ele>
        <time>2023-05-28T06:40:34Z</time>
      </trkpt>
      <trkpt lat="45.70817" lon="5.27909">
        <ele>270.8</ele>
        <time>2023-05-28T06:40:35Z</time>
      </trkpt>
      <trkpt lat="45.70812" lon="5.27917">
        <ele>270.8</ele>
        <time>2023-05-28T06:40:36Z</time>
      </trkpt>
      <trkpt lat="45.70807" lon="5.27926">
        <ele>271</ele>
        <time>2023-05-28T06:40:37Z</time>
      </trkpt>
      <trkpt lat="45.70803" lon="5.27933">
        <ele>271</ele>
        <time>2023-05-28T06:40:38Z</time>
      </trkpt>
      <trkpt lat="45.70799" lon="5.27941">
        <ele>271</ele>
        <time>2023-05-28T06:40:39Z</time>
      </trkpt>
      <trkpt lat="45.70794" lon="5.27949">
        <ele>271.2</ele>
        <time>2023-05-28T06:40:40Z</time>
      </trkpt>
      <trkpt lat="45.7079" lon="5.27958">
        <ele>271.2</ele>
        <time>2023-05-28T06:40:41Z</time>
      </trkpt>
      <trkpt lat="45.70784" lon="5.27968">
        <ele>271.2</ele>
        <time>2023-05-28T06:40:42Z</time>
      </trkpt>
      <trkpt lat="45.70781" lon="5.27974">
        <ele>271.2</ele>
        <time>2023-05-28T06:40:43Z</time>
      </trkpt>
      <trkpt lat="45.70776" lon="5.27983">
        <ele>271.2</ele>
        <time>2023-05-28T06:40:44Z</time>
      </trkpt>
      <trkpt lat="45.70772" lon="5.27991">
        <ele>271.2</ele>
        <time>2023-05-28T06:40:45Z</time>
      </trkpt>
      <trkpt lat="45.70767" lon="5.27999">
        <ele>271.4</ele>
        <time>2023-05-28T06:40:46Z</time>
      </trkpt>
      <trkpt lat="45.70763" lon="5.28007">
        <ele>271.4</ele>
        <time>2023-05-28T06:40:47Z</time>
      </trkpt>
      <trkpt lat="45.70759" lon="5.28015">
        <ele>271.4</ele>
        <time>2023-05-28T06:40:48Z</time>
      </trkpt>
      <trkpt lat="45.70754" lon="5.28023">
        <ele>271.4</ele>
        <time>2023-05-28T06:40:49Z</time>
      </trkpt>
      <trkpt lat="45.70749" lon="5.28031">
        <ele>271.6</ele>
        <time>2023-05-28T06:40:50Z</time>
      </trkpt>
      <trkpt lat="45.70745" lon="5.28039">
        <ele>271.4</ele>
        <time>2023-05-28T06:40:51Z</time>
      </trkpt>
      <trkpt lat="45.70741" lon="5.28047">
        <ele>271.8</ele>
        <time>2023-05-28T06:40:52Z</time>
      </trkpt>
      <trkpt lat="45.70736" lon="5.28055">
        <ele>271.6</ele>
        <time>2023-05-28T06:40:53Z</time>
      </trkpt>
      <trkpt lat="45.70732" lon="5.28063">
        <ele>272.2</ele>
        <time>2023-05-28T06:40:54Z</time>
      </trkpt>
      <trkpt lat="45.70728" lon="5.28072">
        <ele>272.4</ele>
        <time>2023-05-28T06:40:55Z</time>
      </trkpt>
      <trkpt lat="45.70724" lon="5.2808">
        <ele>272.4</ele>
        <time>2023-05-28T06:40:56Z</time>
      </trkpt>
      <trkpt lat="45.70719" lon="5.28088">
        <ele>272.6</ele>
        <time>2023-05-28T06:40:57Z</time>
      </trkpt>
      <trkpt lat="45.70715" lon="5.28096">
        <ele>272.6</ele>
        <time>2023-05-28T06:40:58Z</time>
      </trkpt>
      <trkpt lat="45.70711" lon="5.28104">
        <ele>272.6</ele>
        <time>2023-05-28T06:40:59Z</time>
      </trkpt>
      <trkpt lat="45.70706" lon="5.28113">
        <ele>272.6</ele>
        <time>2023-05-28T06:41:00Z</time>
      </trkpt>
      <trkpt lat="45.70702" lon="5.28119">
        <ele>272.8</ele>
        <time>2023-05-28T06:41:01Z</time>
      </trkpt>
      <trkpt lat="45.70698" lon="5.28127">
        <ele>272.8</ele>
        <time>2023-05-28T06:41:02Z</time>
      </trkpt>
      <trkpt lat="45.70693" lon="5.28135">
        <ele>273</ele>
        <time>2023-05-28T06:41:03Z</time>
      </trkpt>
      <trkpt lat="45.70689" lon="5.28143">
        <ele>273</ele>
        <time>2023-05-28T06:41:04Z</time>
      </trkpt>
      <trkpt lat="45.70689" lon="5.28143">
        <ele>273</ele>
        <time>2023-05-28T06:41:05Z</time>
      </trkpt>
      <trkpt lat="45.7068" lon="5.28159">
        <ele>273.2</ele>
        <time>2023-05-28T06:41:06Z</time>
      </trkpt>
      <trkpt lat="45.70676" lon="5.28167">
        <ele>273.2</ele>
        <time>2023-05-28T06:41:07Z</time>
      </trkpt>
      <trkpt lat="45.70672" lon="5.28175">
        <ele>273.4</ele>
        <time>2023-05-28T06:41:08Z</time>
      </trkpt>
      <trkpt lat="45.70668" lon="5.28183">
        <ele>273.6</ele>
        <time>2023-05-28T06:41:09Z</time>
      </trkpt>
      <trkpt lat="45.70663" lon="5.28191">
        <ele>273.8</ele>
        <time>2023-05-28T06:41:10Z</time>
      </trkpt>
      <trkpt lat="45.70659" lon="5.28199">
        <ele>273.8</ele>
        <time>2023-05-28T06:41:11Z</time>
      </trkpt>
      <trkpt lat="45.70655" lon="5.28207">
        <ele>274</ele>
        <time>2023-05-28T06:41:12Z</time>
      </trkpt>
      <trkpt lat="45.7065" lon="5.28215">
        <ele>274</ele>
        <time>2023-05-28T06:41:13Z</time>
      </trkpt>
      <trkpt lat="45.70646" lon="5.28223">
        <ele>274.2</ele>
        <time>2023-05-28T06:41:14Z</time>
      </trkpt>
      <trkpt lat="45.70641" lon="5.28231">
        <ele>274.2</ele>
        <time>2023-05-28T06:41:15Z</time>
      </trkpt>
      <trkpt lat="45.70637" lon="5.28238">
        <ele>274.2</ele>
        <time>2023-05-28T06:41:16Z</time>
      </trkpt>
      <trkpt lat="45.70633" lon="5.28246">
        <ele>274.2</ele>
        <time>2023-05-28T06:41:17Z</time>
      </trkpt>
      <trkpt lat="45.70628" lon="5.28254">
        <ele>274.2</ele>
        <time>2023-05-28T06:41:18Z</time>
      </trkpt>
      <trkpt lat="45.70624" lon="5.28262">
        <ele>274.2</ele>
        <time>2023-05-28T06:41:19Z</time>
      </trkpt>
      <trkpt lat="45.70619" lon="5.2827">
        <ele>274.2</ele>
        <time>2023-05-28T06:41:20Z</time>
      </trkpt>
      <trkpt lat="45.70615" lon="5.28278">
        <ele>274</ele>
        <time>2023-05-28T06:41:21Z</time>
      </trkpt>
      <trkpt lat="45.7061" lon="5.28287">
        <ele>274</ele>
        <time>2023-05-28T06:41:22Z</time>
      </trkpt>
      <trkpt lat="45.70606" lon="5.28295">
        <ele>274</ele>
        <time>2023-05-28T06:41:23Z</time>
      </trkpt>
      <trkpt lat="45.70602" lon="5.28302">
        <ele>273.8</ele>
        <time>2023-05-28T06:41:24Z</time>
      </trkpt>
      <trkpt lat="45.70597" lon="5.28312">
        <ele>273.8</ele>
        <time>2023-05-28T06:41:25Z</time>
      </trkpt>
      <trkpt lat="45.70593" lon="5.28318">
        <ele>273.8</ele>
        <time>2023-05-28T06:41:26Z</time>
      </trkpt>
      <trkpt lat="45.70589" lon="5.28326">
        <ele>273.6</ele>
        <time>2023-05-28T06:41:27Z</time>
      </trkpt>
      <trkpt lat="45.70584" lon="5.28334">
        <ele>273.6</ele>
        <time>2023-05-28T06:41:28Z</time>
      </trkpt>
      <trkpt lat="45.7058" lon="5.28342">
        <ele>273.4</ele>
        <time>2023-05-28T06:41:29Z</time>
      </trkpt>
      <trkpt lat="45.70574" lon="5.28352">
        <ele>273.4</ele>
        <time>2023-05-28T06:41:30Z</time>
      </trkpt>
      <trkpt lat="45.70571" lon="5.28358">
        <ele>273.4</ele>
        <time>2023-05-28T06:41:31Z</time>
      </trkpt>
      <trkpt lat="45.70566" lon="5.28366">
        <ele>273.2</ele>
        <time>2023-05-28T06:41:32Z</time>
      </trkpt>
      <trkpt lat="45.70562" lon="5.28375">
        <ele>273.2</ele>
        <time>2023-05-28T06:41:33Z</time>
      </trkpt>
      <trkpt lat="45.70557" lon="5.28383">
        <ele>273</ele>
        <time>2023-05-28T06:41:34Z</time>
      </trkpt>
      <trkpt lat="45.70553" lon="5.28391">
        <ele>272.8</ele>
        <time>2023-05-28T06:41:35Z</time>
      </trkpt>
      <trkpt lat="45.70547" lon="5.28401">
        <ele>272.6</ele>
        <time>2023-05-28T06:41:36Z</time>
      </trkpt>
      <trkpt lat="45.70544" lon="5.28408">
        <ele>272.6</ele>
        <time>2023-05-28T06:41:37Z</time>
      </trkpt>
      <trkpt lat="45.70539" lon="5.28416">
        <ele>272.4</ele>
        <time>2023-05-28T06:41:38Z</time>
      </trkpt>
      <trkpt lat="45.70535" lon="5.28424">
        <ele>272.4</ele>
        <time>2023-05-28T06:41:39Z</time>
      </trkpt>
      <trkpt lat="45.7053" lon="5.28432">
        <ele>272.2</ele>
        <time>2023-05-28T06:41:40Z</time>
      </trkpt>
      <trkpt lat="45.70525" lon="5.28441">
        <ele>272.2</ele>
        <time>2023-05-28T06:41:41Z</time>
      </trkpt>
      <trkpt lat="45.70521" lon="5.28449">
        <ele>272.2</ele>
        <time>2023-05-28T06:41:42Z</time>
      </trkpt>
      <trkpt lat="45.70516" lon="5.28459">
        <ele>272.2</ele>
        <time>2023-05-28T06:41:43Z</time>
      </trkpt>
      <trkpt lat="45.70512" lon="5.28465">
        <ele>272.2</ele>
        <time>2023-05-28T06:41:44Z</time>
      </trkpt>
      <trkpt lat="45.70507" lon="5.28475">
        <ele>272.2</ele>
        <time>2023-05-28T06:41:45Z</time>
      </trkpt>
      <trkpt lat="45.70503" lon="5.28482">
        <ele>272</ele>
        <time>2023-05-28T06:41:46Z</time>
      </trkpt>
      <trkpt lat="45.70499" lon="5.2849">
        <ele>272</ele>
        <time>2023-05-28T06:41:47Z</time>
      </trkpt>
      <trkpt lat="45.70493" lon="5.285">
        <ele>272</ele>
        <time>2023-05-28T06:41:48Z</time>
      </trkpt>
      <trkpt lat="45.70489" lon="5.28508">
        <ele>272</ele>
        <time>2023-05-28T06:41:49Z</time>
      </trkpt>
      <trkpt lat="45.70485" lon="5.28515">
        <ele>272</ele>
        <time>2023-05-28T06:41:50Z</time>
      </trkpt>
      <trkpt lat="45.7048" lon="5.28524">
        <ele>272</ele>
        <time>2023-05-28T06:41:51Z</time>
      </trkpt>
      <trkpt lat="45.70476" lon="5.28531">
        <ele>272</ele>
        <time>2023-05-28T06:41:52Z</time>
      </trkpt>
      <trkpt lat="45.70472" lon="5.28539">
        <ele>272</ele>
        <time>2023-05-28T06:41:53Z</time>
      </trkpt>
      <trkpt lat="45.70468" lon="5.28547">
        <ele>272.2</ele>
        <time>2023-05-28T06:41:54Z</time>
      </trkpt>
      <trkpt lat="45.70463" lon="5.28555">
        <ele>272.2</ele>
        <time>2023-05-28T06:41:55Z</time>
      </trkpt>
      <trkpt lat="45.70458" lon="5.28565">
        <ele>272.2</ele>
        <time>2023-05-28T06:41:56Z</time>
      </trkpt>
      <trkpt lat="45.70454" lon="5.28571">
        <ele>272.4</ele>
        <time>2023-05-28T06:41:57Z</time>
      </trkpt>
      <trkpt lat="45.70449" lon="5.28581">
        <ele>272.4</ele>
        <time>2023-05-28T06:41:58Z</time>
      </trkpt>
      <trkpt lat="45.70444" lon="5.28589">
        <ele>272.4</ele>
        <time>2023-05-28T06:41:59Z</time>
      </trkpt>
      <trkpt lat="45.7044" lon="5.28596">
        <ele>272.4</ele>
        <time>2023-05-28T06:42:00Z</time>
      </trkpt>
      <trkpt lat="45.70436" lon="5.28603">
        <ele>272.4</ele>
        <time>2023-05-28T06:42:01Z</time>
      </trkpt>
      <trkpt lat="45.70431" lon="5.28612">
        <ele>272.6</ele>
        <time>2023-05-28T06:42:02Z</time>
      </trkpt>
      <trkpt lat="45.70427" lon="5.2862">
        <ele>272.6</ele>
        <time>2023-05-28T06:42:03Z</time>
      </trkpt>
      <trkpt lat="45.70423" lon="5.28627">
        <ele>272.6</ele>
        <time>2023-05-28T06:42:04Z</time>
      </trkpt>
      <trkpt lat="45.70419" lon="5.28635">
        <ele>272.6</ele>
        <time>2023-05-28T06:42:05Z</time>
      </trkpt>
      <trkpt lat="45.70414" lon="5.28643">
        <ele>272.6</ele>
        <time>2023-05-28T06:42:06Z</time>
      </trkpt>
      <trkpt lat="45.7041" lon="5.28651">
        <ele>272.6</ele>
        <time>2023-05-28T06:42:07Z</time>
      </trkpt>
      <trkpt lat="45.70405" lon="5.2866">
        <ele>272.6</ele>
        <time>2023-05-28T06:42:08Z</time>
      </trkpt>
      <trkpt lat="45.70401" lon="5.28666">
        <ele>272.6</ele>
        <time>2023-05-28T06:42:09Z</time>
      </trkpt>
      <trkpt lat="45.70397" lon="5.28674">
        <ele>272.6</ele>
        <time>2023-05-28T06:42:10Z</time>
      </trkpt>
      <trkpt lat="45.70391" lon="5.28684">
        <ele>272.4</ele>
        <time>2023-05-28T06:42:11Z</time>
      </trkpt>
      <trkpt lat="45.70387" lon="5.28692">
        <ele>272.4</ele>
        <time>2023-05-28T06:42:12Z</time>
      </trkpt>
      <trkpt lat="45.70384" lon="5.28699">
        <ele>272.4</ele>
        <time>2023-05-28T06:42:13Z</time>
      </trkpt>
      <trkpt lat="45.70378" lon="5.28708">
        <ele>272.4</ele>
        <time>2023-05-28T06:42:14Z</time>
      </trkpt>
      <trkpt lat="45.70374" lon="5.28716">
        <ele>272.4</ele>
        <time>2023-05-28T06:42:15Z</time>
      </trkpt>
      <trkpt lat="45.70369" lon="5.28724">
        <ele>272.4</ele>
        <time>2023-05-28T06:42:16Z</time>
      </trkpt>
      <trkpt lat="45.70364" lon="5.28731">
        <ele>272.4</ele>
        <time>2023-05-28T06:42:17Z</time>
      </trkpt>
      <trkpt lat="45.7036" lon="5.28737">
        <ele>272.4</ele>
        <time>2023-05-28T06:42:18Z</time>
      </trkpt>
      <trkpt lat="45.70355" lon="5.28746">
        <ele>272.4</ele>
        <time>2023-05-28T06:42:19Z</time>
      </trkpt>
      <trkpt lat="45.70351" lon="5.28752">
        <ele>272.4</ele>
        <time>2023-05-28T06:42:20Z</time>
      </trkpt>
      <trkpt lat="45.70346" lon="5.2876">
        <ele>272.6</ele>
        <time>2023-05-28T06:42:21Z</time>
      </trkpt>
      <trkpt lat="45.70341" lon="5.28767">
        <ele>272.6</ele>
        <time>2023-05-28T06:42:22Z</time>
      </trkpt>
      <trkpt lat="45.70335" lon="5.28775">
        <ele>272.6</ele>
        <time>2023-05-28T06:42:23Z</time>
      </trkpt>
      <trkpt lat="45.7033" lon="5.28782">
        <ele>272.6</ele>
        <time>2023-05-28T06:42:24Z</time>
      </trkpt>
      <trkpt lat="45.70325" lon="5.28789">
        <ele>272.6</ele>
        <time>2023-05-28T06:42:25Z</time>
      </trkpt>
      <trkpt lat="45.70318" lon="5.28798">
        <ele>272.6</ele>
        <time>2023-05-28T06:42:26Z</time>
      </trkpt>
      <trkpt lat="45.70314" lon="5.28803">
        <ele>272.6</ele>
        <time>2023-05-28T06:42:27Z</time>
      </trkpt>
      <trkpt lat="45.70308" lon="5.2881">
        <ele>272.6</ele>
        <time>2023-05-28T06:42:28Z</time>
      </trkpt>
      <trkpt lat="45.70303" lon="5.28817">
        <ele>272.6</ele>
        <time>2023-05-28T06:42:29Z</time>
      </trkpt>
      <trkpt lat="45.70297" lon="5.28823">
        <ele>272.8</ele>
        <time>2023-05-28T06:42:30Z</time>
      </trkpt>
      <trkpt lat="45.70292" lon="5.28829">
        <ele>272.8</ele>
        <time>2023-05-28T06:42:31Z</time>
      </trkpt>
      <trkpt lat="45.70286" lon="5.28835">
        <ele>273</ele>
        <time>2023-05-28T06:42:32Z</time>
      </trkpt>
      <trkpt lat="45.7028" lon="5.28841">
        <ele>273.2</ele>
        <time>2023-05-28T06:42:33Z</time>
      </trkpt>
      <trkpt lat="45.70275" lon="5.28847">
        <ele>273.2</ele>
        <time>2023-05-28T06:42:34Z</time>
      </trkpt>
      <trkpt lat="45.70269" lon="5.28853">
        <ele>273.4</ele>
        <time>2023-05-28T06:42:35Z</time>
      </trkpt>
      <trkpt lat="45.70263" lon="5.28859">
        <ele>273.6</ele>
        <time>2023-05-28T06:42:36Z</time>
      </trkpt>
      <trkpt lat="45.70257" lon="5.28865">
        <ele>273.6</ele>
        <time>2023-05-28T06:42:37Z</time>
      </trkpt>
      <trkpt lat="45.70251" lon="5.28871">
        <ele>273.6</ele>
        <time>2023-05-28T06:42:38Z</time>
      </trkpt>
      <trkpt lat="45.70245" lon="5.28876">
        <ele>273.6</ele>
        <time>2023-05-28T06:42:39Z</time>
      </trkpt>
      <trkpt lat="45.70232" lon="5.28887">
        <ele>273.6</ele>
        <time>2023-05-28T06:42:41Z</time>
      </trkpt>
      <trkpt lat="45.70225" lon="5.28893">
        <ele>273.6</ele>
        <time>2023-05-28T06:42:42Z</time>
      </trkpt>
      <trkpt lat="45.7022" lon="5.28897">
        <ele>273.6</ele>
        <time>2023-05-28T06:42:43Z</time>
      </trkpt>
      <trkpt lat="45.70215" lon="5.28902">
        <ele>273.6</ele>
        <time>2023-05-28T06:42:44Z</time>
      </trkpt>
      <trkpt lat="45.70209" lon="5.28907">
        <ele>273.6</ele>
        <time>2023-05-28T06:42:45Z</time>
      </trkpt>
      <trkpt lat="45.70202" lon="5.28912">
        <ele>273.6</ele>
        <time>2023-05-28T06:42:46Z</time>
      </trkpt>
      <trkpt lat="45.70196" lon="5.28917">
        <ele>273.6</ele>
        <time>2023-05-28T06:42:47Z</time>
      </trkpt>
      <trkpt lat="45.7019" lon="5.28921">
        <ele>273.6</ele>
        <time>2023-05-28T06:42:48Z</time>
      </trkpt>
      <trkpt lat="45.70185" lon="5.28924">
        <ele>273.6</ele>
        <time>2023-05-28T06:42:49Z</time>
      </trkpt>
      <trkpt lat="45.70179" lon="5.28928">
        <ele>273.6</ele>
        <time>2023-05-28T06:42:50Z</time>
      </trkpt>
      <trkpt lat="45.70171" lon="5.28931">
        <ele>273.6</ele>
        <time>2023-05-28T06:42:51Z</time>
      </trkpt>
      <trkpt lat="45.70165" lon="5.28934">
        <ele>273.6</ele>
        <time>2023-05-28T06:42:52Z</time>
      </trkpt>
      <trkpt lat="45.70159" lon="5.28937">
        <ele>273.6</ele>
        <time>2023-05-28T06:42:53Z</time>
      </trkpt>
      <trkpt lat="45.70153" lon="5.28941">
        <ele>273.6</ele>
        <time>2023-05-28T06:42:54Z</time>
      </trkpt>
      <trkpt lat="45.70148" lon="5.28946">
        <ele>273.6</ele>
        <time>2023-05-28T06:42:55Z</time>
      </trkpt>
      <trkpt lat="45.70144" lon="5.28953">
        <ele>273.6</ele>
        <time>2023-05-28T06:42:56Z</time>
      </trkpt>
      <trkpt lat="45.70143" lon="5.2896">
        <ele>273.6</ele>
        <time>2023-05-28T06:42:57Z</time>
      </trkpt>
      <trkpt lat="45.70144" lon="5.28969">
        <ele>273.6</ele>
        <time>2023-05-28T06:42:58Z</time>
      </trkpt>
      <trkpt lat="45.70146" lon="5.28975">
        <ele>273.6</ele>
        <time>2023-05-28T06:42:59Z</time>
      </trkpt>
      <trkpt lat="45.70154" lon="5.28989">
        <ele>273.6</ele>
        <time>2023-05-28T06:43:01Z</time>
      </trkpt>
      <trkpt lat="45.70158" lon="5.28995">
        <ele>273.6</ele>
        <time>2023-05-28T06:43:02Z</time>
      </trkpt>
      <trkpt lat="45.70162" lon="5.29002">
        <ele>273.6</ele>
        <time>2023-05-28T06:43:03Z</time>
      </trkpt>
      <trkpt lat="45.70165" lon="5.29008">
        <ele>273.6</ele>
        <time>2023-05-28T06:43:04Z</time>
      </trkpt>
      <trkpt lat="45.70168" lon="5.29015">
        <ele>273.8</ele>
        <time>2023-05-28T06:43:05Z</time>
      </trkpt>
      <trkpt lat="45.70171" lon="5.29023">
        <ele>273.8</ele>
        <time>2023-05-28T06:43:06Z</time>
      </trkpt>
      <trkpt lat="45.70174" lon="5.2903">
        <ele>273.8</ele>
        <time>2023-05-28T06:43:07Z</time>
      </trkpt>
      <trkpt lat="45.70177" lon="5.29036">
        <ele>274</ele>
        <time>2023-05-28T06:43:08Z</time>
      </trkpt>
      <trkpt lat="45.70181" lon="5.29043">
        <ele>274</ele>
        <time>2023-05-28T06:43:09Z</time>
      </trkpt>
      <trkpt lat="45.70184" lon="5.2905">
        <ele>274.2</ele>
        <time>2023-05-28T06:43:10Z</time>
      </trkpt>
      <trkpt lat="45.70186" lon="5.29055">
        <ele>274.4</ele>
        <time>2023-05-28T06:43:11Z</time>
      </trkpt>
      <trkpt lat="45.7019" lon="5.29064">
        <ele>274.4</ele>
        <time>2023-05-28T06:43:12Z</time>
      </trkpt>
      <trkpt lat="45.70192" lon="5.29071">
        <ele>274.6</ele>
        <time>2023-05-28T06:43:13Z</time>
      </trkpt>
      <trkpt lat="45.70195" lon="5.29079">
        <ele>274.6</ele>
        <time>2023-05-28T06:43:14Z</time>
      </trkpt>
      <trkpt lat="45.70198" lon="5.29086">
        <ele>274.8</ele>
        <time>2023-05-28T06:43:15Z</time>
      </trkpt>
      <trkpt lat="45.70201" lon="5.29092">
        <ele>275</ele>
        <time>2023-05-28T06:43:16Z</time>
      </trkpt>
      <trkpt lat="45.70204" lon="5.291">
        <ele>275.2</ele>
        <time>2023-05-28T06:43:17Z</time>
      </trkpt>
      <trkpt lat="45.70207" lon="5.29106">
        <ele>275.2</ele>
        <time>2023-05-28T06:43:18Z</time>
      </trkpt>
      <trkpt lat="45.7021" lon="5.29113">
        <ele>275.4</ele>
        <time>2023-05-28T06:43:19Z</time>
      </trkpt>
      <trkpt lat="45.70213" lon="5.29119">
        <ele>275.4</ele>
        <time>2023-05-28T06:43:20Z</time>
      </trkpt>
      <trkpt lat="45.70215" lon="5.29126">
        <ele>275.8</ele>
        <time>2023-05-28T06:43:21Z</time>
      </trkpt>
      <trkpt lat="45.70217" lon="5.29132">
        <ele>276.2</ele>
        <time>2023-05-28T06:43:22Z</time>
      </trkpt>
      <trkpt lat="45.7022" lon="5.29139">
        <ele>276.2</ele>
        <time>2023-05-28T06:43:23Z</time>
      </trkpt>
      <trkpt lat="45.70222" lon="5.29145">
        <ele>276.6</ele>
        <time>2023-05-28T06:43:24Z</time>
      </trkpt>
      <trkpt lat="45.70224" lon="5.29152">
        <ele>276.8</ele>
        <time>2023-05-28T06:43:25Z</time>
      </trkpt>
      <trkpt lat="45.70226" lon="5.29159">
        <ele>277</ele>
        <time>2023-05-28T06:43:26Z</time>
      </trkpt>
      <trkpt lat="45.70228" lon="5.29165">
        <ele>277.4</ele>
        <time>2023-05-28T06:43:27Z</time>
      </trkpt>
      <trkpt lat="45.70231" lon="5.29172">
        <ele>277.8</ele>
        <time>2023-05-28T06:43:28Z</time>
      </trkpt>
      <trkpt lat="45.70233" lon="5.29178">
        <ele>278</ele>
        <time>2023-05-28T06:43:29Z</time>
      </trkpt>
      <trkpt lat="45.70235" lon="5.29185">
        <ele>278.2</ele>
        <time>2023-05-28T06:43:30Z</time>
      </trkpt>
      <trkpt lat="45.70238" lon="5.29192">
        <ele>278.4</ele>
        <time>2023-05-28T06:43:31Z</time>
      </trkpt>
      <trkpt lat="45.70241" lon="5.29198">
        <ele>278.6</ele>
        <time>2023-05-28T06:43:32Z</time>
      </trkpt>
      <trkpt lat="45.70243" lon="5.29205">
        <ele>278.8</ele>
        <time>2023-05-28T06:43:33Z</time>
      </trkpt>
      <trkpt lat="45.70245" lon="5.29211">
        <ele>278.8</ele>
        <time>2023-05-28T06:43:34Z</time>
      </trkpt>
      <trkpt lat="45.70248" lon="5.29218">
        <ele>279</ele>
        <time>2023-05-28T06:43:35Z</time>
      </trkpt>
      <trkpt lat="45.7025" lon="5.29225">
        <ele>279</ele>
        <time>2023-05-28T06:43:36Z</time>
      </trkpt>
      <trkpt lat="45.70253" lon="5.29231">
        <ele>279.2</ele>
        <time>2023-05-28T06:43:37Z</time>
      </trkpt>
      <trkpt lat="45.70255" lon="5.29238">
        <ele>279.2</ele>
        <time>2023-05-28T06:43:38Z</time>
      </trkpt>
      <trkpt lat="45.70257" lon="5.29245">
        <ele>279.2</ele>
        <time>2023-05-28T06:43:39Z</time>
      </trkpt>
      <trkpt lat="45.70259" lon="5.29252">
        <ele>279.2</ele>
        <time>2023-05-28T06:43:40Z</time>
      </trkpt>
      <trkpt lat="45.70261" lon="5.29258">
        <ele>279.2</ele>
        <time>2023-05-28T06:43:41Z</time>
      </trkpt>
      <trkpt lat="45.70264" lon="5.29265">
        <ele>279.4</ele>
        <time>2023-05-28T06:43:42Z</time>
      </trkpt>
      <trkpt lat="45.70267" lon="5.29271">
        <ele>279.4</ele>
        <time>2023-05-28T06:43:43Z</time>
      </trkpt>
      <trkpt lat="45.70269" lon="5.29278">
        <ele>279.4</ele>
        <time>2023-05-28T06:43:44Z</time>
      </trkpt>
      <trkpt lat="45.70272" lon="5.29284">
        <ele>279.6</ele>
        <time>2023-05-28T06:43:45Z</time>
      </trkpt>
      <trkpt lat="45.70274" lon="5.29291">
        <ele>279.8</ele>
        <time>2023-05-28T06:43:46Z</time>
      </trkpt>
      <trkpt lat="45.70277" lon="5.29297">
        <ele>280</ele>
        <time>2023-05-28T06:43:47Z</time>
      </trkpt>
      <trkpt lat="45.7028" lon="5.29303">
        <ele>280</ele>
        <time>2023-05-28T06:43:48Z</time>
      </trkpt>
      <trkpt lat="45.70282" lon="5.2931">
        <ele>280.2</ele>
        <time>2023-05-28T06:43:49Z</time>
      </trkpt>
      <trkpt lat="45.70284" lon="5.29316">
        <ele>280.2</ele>
        <time>2023-05-28T06:43:50Z</time>
      </trkpt>
      <trkpt lat="45.70287" lon="5.29323">
        <ele>280.2</ele>
        <time>2023-05-28T06:43:51Z</time>
      </trkpt>
      <trkpt lat="45.70289" lon="5.2933">
        <ele>280.2</ele>
        <time>2023-05-28T06:43:52Z</time>
      </trkpt>
      <trkpt lat="45.70292" lon="5.29337">
        <ele>280.4</ele>
        <time>2023-05-28T06:43:53Z</time>
      </trkpt>
      <trkpt lat="45.70295" lon="5.29343">
        <ele>280.4</ele>
        <time>2023-05-28T06:43:54Z</time>
      </trkpt>
      <trkpt lat="45.70297" lon="5.2935">
        <ele>280.4</ele>
        <time>2023-05-28T06:43:55Z</time>
      </trkpt>
      <trkpt lat="45.703" lon="5.29356">
        <ele>280.6</ele>
        <time>2023-05-28T06:43:56Z</time>
      </trkpt>
      <trkpt lat="45.70302" lon="5.29363">
        <ele>280.8</ele>
        <time>2023-05-28T06:43:57Z</time>
      </trkpt>
      <trkpt lat="45.70305" lon="5.2937">
        <ele>280.8</ele>
        <time>2023-05-28T06:43:58Z</time>
      </trkpt>
      <trkpt lat="45.70308" lon="5.29377">
        <ele>280.8</ele>
        <time>2023-05-28T06:43:59Z</time>
      </trkpt>
      <trkpt lat="45.7031" lon="5.29383">
        <ele>281</ele>
        <time>2023-05-28T06:44:00Z</time>
      </trkpt>
      <trkpt lat="45.70313" lon="5.2939">
        <ele>281</ele>
        <time>2023-05-28T06:44:01Z</time>
      </trkpt>
      <trkpt lat="45.70316" lon="5.29396">
        <ele>281</ele>
        <time>2023-05-28T06:44:02Z</time>
      </trkpt>
      <trkpt lat="45.70318" lon="5.29402">
        <ele>281.2</ele>
        <time>2023-05-28T06:44:03Z</time>
      </trkpt>
      <trkpt lat="45.70321" lon="5.29409">
        <ele>281.2</ele>
        <time>2023-05-28T06:44:04Z</time>
      </trkpt>
      <trkpt lat="45.70324" lon="5.29415">
        <ele>281.2</ele>
        <time>2023-05-28T06:44:05Z</time>
      </trkpt>
      <trkpt lat="45.70327" lon="5.29421">
        <ele>281.4</ele>
        <time>2023-05-28T06:44:06Z</time>
      </trkpt>
      <trkpt lat="45.7033" lon="5.29427">
        <ele>281.4</ele>
        <time>2023-05-28T06:44:07Z</time>
      </trkpt>
      <trkpt lat="45.70333" lon="5.29432">
        <ele>281.8</ele>
        <time>2023-05-28T06:44:08Z</time>
      </trkpt>
      <trkpt lat="45.70336" lon="5.29437">
        <ele>282</ele>
        <time>2023-05-28T06:44:09Z</time>
      </trkpt>
      <trkpt lat="45.7034" lon="5.29442">
        <ele>282.4</ele>
        <time>2023-05-28T06:44:10Z</time>
      </trkpt>
      <trkpt lat="45.70343" lon="5.29447">
        <ele>282.8</ele>
        <time>2023-05-28T06:44:11Z</time>
      </trkpt>
      <trkpt lat="45.70347" lon="5.29451">
        <ele>282.8</ele>
        <time>2023-05-28T06:44:12Z</time>
      </trkpt>
      <trkpt lat="45.70351" lon="5.29455">
        <ele>283</ele>
        <time>2023-05-28T06:44:13Z</time>
      </trkpt>
      <trkpt lat="45.70355" lon="5.29458">
        <ele>283.2</ele>
        <time>2023-05-28T06:44:14Z</time>
      </trkpt>
      <trkpt lat="45.70359" lon="5.29461">
        <ele>283.4</ele>
        <time>2023-05-28T06:44:15Z</time>
      </trkpt>
      <trkpt lat="45.70363" lon="5.29464">
        <ele>283.4</ele>
        <time>2023-05-28T06:44:16Z</time>
      </trkpt>
      <trkpt lat="45.70367" lon="5.29467">
        <ele>283.6</ele>
        <time>2023-05-28T06:44:17Z</time>
      </trkpt>
      <trkpt lat="45.70371" lon="5.2947">
        <ele>283.8</ele>
        <time>2023-05-28T06:44:18Z</time>
      </trkpt>
      <trkpt lat="45.70375" lon="5.29472">
        <ele>283.8</ele>
        <time>2023-05-28T06:44:19Z</time>
      </trkpt>
      <trkpt lat="45.7038" lon="5.29475">
        <ele>284.2</ele>
        <time>2023-05-28T06:44:20Z</time>
      </trkpt>
      <trkpt lat="45.70384" lon="5.29477">
        <ele>284.4</ele>
        <time>2023-05-28T06:44:21Z</time>
      </trkpt>
      <trkpt lat="45.70388" lon="5.2948">
        <ele>285</ele>
        <time>2023-05-28T06:44:22Z</time>
      </trkpt>
      <trkpt lat="45.70392" lon="5.29482">
        <ele>285.4</ele>
        <time>2023-05-28T06:44:23Z</time>
      </trkpt>
      <trkpt lat="45.70397" lon="5.29485">
        <ele>285.8</ele>
        <time>2023-05-28T06:44:24Z</time>
      </trkpt>
      <trkpt lat="45.70401" lon="5.29487">
        <ele>286.4</ele>
        <time>2023-05-28T06:44:25Z</time>
      </trkpt>
      <trkpt lat="45.70405" lon="5.29489">
        <ele>286.6</ele>
        <time>2023-05-28T06:44:26Z</time>
      </trkpt>
      <trkpt lat="45.7041" lon="5.29492">
        <ele>286.8</ele>
        <time>2023-05-28T06:44:27Z</time>
      </trkpt>
      <trkpt lat="45.70414" lon="5.29494">
        <ele>286.8</ele>
        <time>2023-05-28T06:44:28Z</time>
      </trkpt>
      <trkpt lat="45.70418" lon="5.29496">
        <ele>287</ele>
        <time>2023-05-28T06:44:29Z</time>
      </trkpt>
      <trkpt lat="45.70422" lon="5.29498">
        <ele>287.2</ele>
        <time>2023-05-28T06:44:30Z</time>
      </trkpt>
      <trkpt lat="45.70426" lon="5.295">
        <ele>287.6</ele>
        <time>2023-05-28T06:44:31Z</time>
      </trkpt>
      <trkpt lat="45.7043" lon="5.29503">
        <ele>288</ele>
        <time>2023-05-28T06:44:32Z</time>
      </trkpt>
      <trkpt lat="45.70434" lon="5.29505">
        <ele>288</ele>
        <time>2023-05-28T06:44:33Z</time>
      </trkpt>
      <trkpt lat="45.70438" lon="5.29508">
        <ele>288.4</ele>
        <time>2023-05-28T06:44:34Z</time>
      </trkpt>
      <trkpt lat="45.70443" lon="5.2951">
        <ele>288.4</ele>
        <time>2023-05-28T06:44:35Z</time>
      </trkpt>
      <trkpt lat="45.70447" lon="5.29512">
        <ele>288.6</ele>
        <time>2023-05-28T06:44:36Z</time>
      </trkpt>
      <trkpt lat="45.7045" lon="5.29514">
        <ele>288.8</ele>
        <time>2023-05-28T06:44:37Z</time>
      </trkpt>
      <trkpt lat="45.70454" lon="5.29516">
        <ele>289</ele>
        <time>2023-05-28T06:44:38Z</time>
      </trkpt>
      <trkpt lat="45.70458" lon="5.29518">
        <ele>289.2</ele>
        <time>2023-05-28T06:44:39Z</time>
      </trkpt>
      <trkpt lat="45.70463" lon="5.2952">
        <ele>289.4</ele>
        <time>2023-05-28T06:44:40Z</time>
      </trkpt>
      <trkpt lat="45.70467" lon="5.29522">
        <ele>290</ele>
        <time>2023-05-28T06:44:41Z</time>
      </trkpt>
      <trkpt lat="45.7047" lon="5.29524">
        <ele>290.2</ele>
        <time>2023-05-28T06:44:42Z</time>
      </trkpt>
      <trkpt lat="45.70474" lon="5.29527">
        <ele>290.4</ele>
        <time>2023-05-28T06:44:43Z</time>
      </trkpt>
      <trkpt lat="45.70479" lon="5.29529">
        <ele>290.6</ele>
        <time>2023-05-28T06:44:44Z</time>
      </trkpt>
      <trkpt lat="45.70483" lon="5.29531">
        <ele>290.8</ele>
        <time>2023-05-28T06:44:45Z</time>
      </trkpt>
      <trkpt lat="45.70487" lon="5.29533">
        <ele>291.2</ele>
        <time>2023-05-28T06:44:46Z</time>
      </trkpt>
      <trkpt lat="45.70491" lon="5.29535">
        <ele>291.2</ele>
        <time>2023-05-28T06:44:47Z</time>
      </trkpt>
      <trkpt lat="45.70495" lon="5.29538">
        <ele>291.6</ele>
        <time>2023-05-28T06:44:48Z</time>
      </trkpt>
      <trkpt lat="45.70499" lon="5.29539">
        <ele>291.6</ele>
        <time>2023-05-28T06:44:49Z</time>
      </trkpt>
      <trkpt lat="45.70504" lon="5.2954">
        <ele>291.8</ele>
        <time>2023-05-28T06:44:50Z</time>
      </trkpt>
      <trkpt lat="45.70507" lon="5.29541">
        <ele>292</ele>
        <time>2023-05-28T06:44:51Z</time>
      </trkpt>
      <trkpt lat="45.70511" lon="5.29542">
        <ele>292.2</ele>
        <time>2023-05-28T06:44:52Z</time>
      </trkpt>
      <trkpt lat="45.70515" lon="5.29543">
        <ele>292.6</ele>
        <time>2023-05-28T06:44:53Z</time>
      </trkpt>
      <trkpt lat="45.70519" lon="5.29545">
        <ele>292.6</ele>
        <time>2023-05-28T06:44:54Z</time>
      </trkpt>
      <trkpt lat="45.70522" lon="5.29547">
        <ele>293</ele>
        <time>2023-05-28T06:44:55Z</time>
      </trkpt>
      <trkpt lat="45.70526" lon="5.2955">
        <ele>293</ele>
        <time>2023-05-28T06:44:56Z</time>
      </trkpt>
      <trkpt lat="45.7053" lon="5.29553">
        <ele>293.2</ele>
        <time>2023-05-28T06:44:57Z</time>
      </trkpt>
      <trkpt lat="45.70534" lon="5.29556">
        <ele>293.2</ele>
        <time>2023-05-28T06:44:58Z</time>
      </trkpt>
      <trkpt lat="45.70537" lon="5.29558">
        <ele>293.4</ele>
        <time>2023-05-28T06:44:59Z</time>
      </trkpt>
      <trkpt lat="45.70541" lon="5.2956">
        <ele>293.6</ele>
        <time>2023-05-28T06:45:00Z</time>
      </trkpt>
      <trkpt lat="45.70544" lon="5.29563">
        <ele>293.8</ele>
        <time>2023-05-28T06:45:01Z</time>
      </trkpt>
      <trkpt lat="45.70547" lon="5.29565">
        <ele>294.2</ele>
        <time>2023-05-28T06:45:02Z</time>
      </trkpt>
      <trkpt lat="45.70551" lon="5.29567">
        <ele>294.2</ele>
        <time>2023-05-28T06:45:03Z</time>
      </trkpt>
      <trkpt lat="45.70553" lon="5.29569">
        <ele>294.4</ele>
        <time>2023-05-28T06:45:04Z</time>
      </trkpt>
      <trkpt lat="45.70557" lon="5.29571">
        <ele>294.4</ele>
        <time>2023-05-28T06:45:05Z</time>
      </trkpt>
      <trkpt lat="45.70559" lon="5.29573">
        <ele>294.6</ele>
        <time>2023-05-28T06:45:06Z</time>
      </trkpt>
      <trkpt lat="45.70562" lon="5.29576">
        <ele>294.6</ele>
        <time>2023-05-28T06:45:07Z</time>
      </trkpt>
      <trkpt lat="45.70565" lon="5.29578">
        <ele>295</ele>
        <time>2023-05-28T06:45:08Z</time>
      </trkpt>
      <trkpt lat="45.70566" lon="5.29581">
        <ele>295.4</ele>
        <time>2023-05-28T06:45:09Z</time>
      </trkpt>
      <trkpt lat="45.70569" lon="5.29584">
        <ele>295.6</ele>
        <time>2023-05-28T06:45:10Z</time>
      </trkpt>
      <trkpt lat="45.70572" lon="5.29588">
        <ele>295.8</ele>
        <time>2023-05-28T06:45:11Z</time>
      </trkpt>
      <trkpt lat="45.70576" lon="5.29592">
        <ele>295.8</ele>
        <time>2023-05-28T06:45:12Z</time>
      </trkpt>
      <trkpt lat="45.7058" lon="5.29596">
        <ele>296.2</ele>
        <time>2023-05-28T06:45:13Z</time>
      </trkpt>
      <trkpt lat="45.70582" lon="5.29601">
        <ele>296.2</ele>
        <time>2023-05-28T06:45:14Z</time>
      </trkpt>
      <trkpt lat="45.70585" lon="5.29604">
        <ele>296.4</ele>
        <time>2023-05-28T06:45:15Z</time>
      </trkpt>
      <trkpt lat="45.70587" lon="5.29608">
        <ele>296.6</ele>
        <time>2023-05-28T06:45:16Z</time>
      </trkpt>
      <trkpt lat="45.7059" lon="5.29613">
        <ele>296.8</ele>
        <time>2023-05-28T06:45:17Z</time>
      </trkpt>
      <trkpt lat="45.70593" lon="5.29618">
        <ele>297</ele>
        <time>2023-05-28T06:45:18Z</time>
      </trkpt>
      <trkpt lat="45.70596" lon="5.29623">
        <ele>297.2</ele>
        <time>2023-05-28T06:45:19Z</time>
      </trkpt>
      <trkpt lat="45.70599" lon="5.29629">
        <ele>297.4</ele>
        <time>2023-05-28T06:45:20Z</time>
      </trkpt>
      <trkpt lat="45.70602" lon="5.29635">
        <ele>298</ele>
        <time>2023-05-28T06:45:21Z</time>
      </trkpt>
      <trkpt lat="45.70605" lon="5.29643">
        <ele>298</ele>
        <time>2023-05-28T06:45:22Z</time>
      </trkpt>
      <trkpt lat="45.70608" lon="5.2965">
        <ele>298.6</ele>
        <time>2023-05-28T06:45:23Z</time>
      </trkpt>
      <trkpt lat="45.70611" lon="5.29657">
        <ele>298.8</ele>
        <time>2023-05-28T06:45:24Z</time>
      </trkpt>
      <trkpt lat="45.70613" lon="5.29663">
        <ele>299</ele>
        <time>2023-05-28T06:45:25Z</time>
      </trkpt>
      <trkpt lat="45.70616" lon="5.29668">
        <ele>299.4</ele>
        <time>2023-05-28T06:45:26Z</time>
      </trkpt>
      <trkpt lat="45.7062" lon="5.29673">
        <ele>299.4</ele>
        <time>2023-05-28T06:45:27Z</time>
      </trkpt>
      <trkpt lat="45.70623" lon="5.29678">
        <ele>299.8</ele>
        <time>2023-05-28T06:45:28Z</time>
      </trkpt>
      <trkpt lat="45.70626" lon="5.29682">
        <ele>299.8</ele>
        <time>2023-05-28T06:45:29Z</time>
      </trkpt>
      <trkpt lat="45.70629" lon="5.29687">
        <ele>300.2</ele>
        <time>2023-05-28T06:45:30Z</time>
      </trkpt>
      <trkpt lat="45.70632" lon="5.29691">
        <ele>300.4</ele>
        <time>2023-05-28T06:45:31Z</time>
      </trkpt>
      <trkpt lat="45.70636" lon="5.29695">
        <ele>300.6</ele>
        <time>2023-05-28T06:45:32Z</time>
      </trkpt>
      <trkpt lat="45.70639" lon="5.29699">
        <ele>300.8</ele>
        <time>2023-05-28T06:45:33Z</time>
      </trkpt>
      <trkpt lat="45.70642" lon="5.29702">
        <ele>301</ele>
        <time>2023-05-28T06:45:34Z</time>
      </trkpt>
      <trkpt lat="45.70645" lon="5.29705">
        <ele>301.2</ele>
        <time>2023-05-28T06:45:35Z</time>
      </trkpt>
      <trkpt lat="45.70649" lon="5.29705">
        <ele>301.2</ele>
        <time>2023-05-28T06:45:36Z</time>
      </trkpt>
      <trkpt lat="45.70655" lon="5.29706">
        <ele>301.4</ele>
        <time>2023-05-28T06:45:37Z</time>
      </trkpt>
      <trkpt lat="45.70658" lon="5.29708">
        <ele>301.6</ele>
        <time>2023-05-28T06:45:38Z</time>
      </trkpt>
      <trkpt lat="45.70662" lon="5.29712">
        <ele>302</ele>
        <time>2023-05-28T06:45:39Z</time>
      </trkpt>
      <trkpt lat="45.70665" lon="5.29717">
        <ele>302.4</ele>
        <time>2023-05-28T06:45:40Z</time>
      </trkpt>
      <trkpt lat="45.7067" lon="5.29719">
        <ele>302.4</ele>
        <time>2023-05-28T06:45:41Z</time>
      </trkpt>
      <trkpt lat="45.70673" lon="5.29721">
        <ele>302.6</ele>
        <time>2023-05-28T06:45:42Z</time>
      </trkpt>
      <trkpt lat="45.70677" lon="5.29723">
        <ele>302.8</ele>
        <time>2023-05-28T06:45:43Z</time>
      </trkpt>
      <trkpt lat="45.70682" lon="5.29726">
        <ele>303</ele>
        <time>2023-05-28T06:45:44Z</time>
      </trkpt>
      <trkpt lat="45.70687" lon="5.29729">
        <ele>303</ele>
        <time>2023-05-28T06:45:45Z</time>
      </trkpt>
      <trkpt lat="45.70691" lon="5.29733">
        <ele>303.2</ele>
        <time>2023-05-28T06:45:46Z</time>
      </trkpt>
      <trkpt lat="45.70695" lon="5.29737">
        <ele>303.2</ele>
        <time>2023-05-28T06:45:47Z</time>
      </trkpt>
      <trkpt lat="45.70701" lon="5.29742">
        <ele>303.2</ele>
        <time>2023-05-28T06:45:48Z</time>
      </trkpt>
      <trkpt lat="45.70705" lon="5.29746">
        <ele>303.4</ele>
        <time>2023-05-28T06:45:49Z</time>
      </trkpt>
      <trkpt lat="45.7071" lon="5.29749">
        <ele>303.4</ele>
        <time>2023-05-28T06:45:50Z</time>
      </trkpt>
      <trkpt lat="45.70713" lon="5.2975">
        <ele>303.6</ele>
        <time>2023-05-28T06:45:51Z</time>
      </trkpt>
      <trkpt lat="45.70717" lon="5.29753">
        <ele>303.8</ele>
        <time>2023-05-28T06:45:52Z</time>
      </trkpt>
      <trkpt lat="45.7072" lon="5.29755">
        <ele>304.2</ele>
        <time>2023-05-28T06:45:53Z</time>
      </trkpt>
      <trkpt lat="45.70723" lon="5.29757">
        <ele>304.4</ele>
        <time>2023-05-28T06:45:54Z</time>
      </trkpt>
      <trkpt lat="45.70725" lon="5.29759">
        <ele>304.8</ele>
        <time>2023-05-28T06:45:55Z</time>
      </trkpt>
      <trkpt lat="45.70727" lon="5.29761">
        <ele>305.2</ele>
        <time>2023-05-28T06:45:56Z</time>
      </trkpt>
      <trkpt lat="45.7073" lon="5.29764">
        <ele>305.4</ele>
        <time>2023-05-28T06:45:57Z</time>
      </trkpt>
      <trkpt lat="45.70733" lon="5.29764">
        <ele>305.8</ele>
        <time>2023-05-28T06:45:58Z</time>
      </trkpt>
      <trkpt lat="45.70736" lon="5.29765">
        <ele>306.2</ele>
        <time>2023-05-28T06:45:59Z</time>
      </trkpt>
      <trkpt lat="45.7074" lon="5.29766">
        <ele>306.4</ele>
        <time>2023-05-28T06:46:00Z</time>
      </trkpt>
      <trkpt lat="45.70743" lon="5.29768">
        <ele>306.8</ele>
        <time>2023-05-28T06:46:01Z</time>
      </trkpt>
      <trkpt lat="45.70747" lon="5.2977">
        <ele>306.8</ele>
        <time>2023-05-28T06:46:02Z</time>
      </trkpt>
      <trkpt lat="45.7075" lon="5.29772">
        <ele>307</ele>
        <time>2023-05-28T06:46:03Z</time>
      </trkpt>
      <trkpt lat="45.70754" lon="5.29773">
        <ele>307.2</ele>
        <time>2023-05-28T06:46:04Z</time>
      </trkpt>
      <trkpt lat="45.70758" lon="5.29775">
        <ele>307.6</ele>
        <time>2023-05-28T06:46:05Z</time>
      </trkpt>
      <trkpt lat="45.70762" lon="5.29777">
        <ele>307.8</ele>
        <time>2023-05-28T06:46:06Z</time>
      </trkpt>
      <trkpt lat="45.70767" lon="5.29779">
        <ele>308.4</ele>
        <time>2023-05-28T06:46:07Z</time>
      </trkpt>
      <trkpt lat="45.70771" lon="5.29781">
        <ele>308.8</ele>
        <time>2023-05-28T06:46:08Z</time>
      </trkpt>
      <trkpt lat="45.70774" lon="5.29784">
        <ele>308.8</ele>
        <time>2023-05-28T06:46:09Z</time>
      </trkpt>
      <trkpt lat="45.70778" lon="5.29788">
        <ele>309.2</ele>
        <time>2023-05-28T06:46:10Z</time>
      </trkpt>
      <trkpt lat="45.70782" lon="5.29791">
        <ele>309.2</ele>
        <time>2023-05-28T06:46:11Z</time>
      </trkpt>
      <trkpt lat="45.70786" lon="5.29791">
        <ele>309.4</ele>
        <time>2023-05-28T06:46:12Z</time>
      </trkpt>
      <trkpt lat="45.70789" lon="5.29791">
        <ele>309.6</ele>
        <time>2023-05-28T06:46:13Z</time>
      </trkpt>
      <trkpt lat="45.70793" lon="5.29791">
        <ele>310</ele>
        <time>2023-05-28T06:46:14Z</time>
      </trkpt>
      <trkpt lat="45.70797" lon="5.29792">
        <ele>310.2</ele>
        <time>2023-05-28T06:46:15Z</time>
      </trkpt>
      <trkpt lat="45.70802" lon="5.29793">
        <ele>310.2</ele>
        <time>2023-05-28T06:46:16Z</time>
      </trkpt>
      <trkpt lat="45.70806" lon="5.29794">
        <ele>310.4</ele>
        <time>2023-05-28T06:46:17Z</time>
      </trkpt>
      <trkpt lat="45.70811" lon="5.29796">
        <ele>310.4</ele>
        <time>2023-05-28T06:46:18Z</time>
      </trkpt>
      <trkpt lat="45.70816" lon="5.29797">
        <ele>310.6</ele>
        <time>2023-05-28T06:46:19Z</time>
      </trkpt>
      <trkpt lat="45.7082" lon="5.29799">
        <ele>310.8</ele>
        <time>2023-05-28T06:46:20Z</time>
      </trkpt>
      <trkpt lat="45.70823" lon="5.29799">
        <ele>311</ele>
        <time>2023-05-28T06:46:21Z</time>
      </trkpt>
      <trkpt lat="45.70828" lon="5.29798">
        <ele>311.2</ele>
        <time>2023-05-28T06:46:22Z</time>
      </trkpt>
      <trkpt lat="45.70833" lon="5.29798">
        <ele>311.4</ele>
        <time>2023-05-28T06:46:23Z</time>
      </trkpt>
      <trkpt lat="45.70839" lon="5.29797">
        <ele>311.4</ele>
        <time>2023-05-28T06:46:24Z</time>
      </trkpt>
      <trkpt lat="45.70845" lon="5.29797">
        <ele>311.4</ele>
        <time>2023-05-28T06:46:25Z</time>
      </trkpt>
      <trkpt lat="45.70849" lon="5.29797">
        <ele>311.6</ele>
        <time>2023-05-28T06:46:26Z</time>
      </trkpt>
      <trkpt lat="45.70854" lon="5.29798">
        <ele>311.6</ele>
        <time>2023-05-28T06:46:27Z</time>
      </trkpt>
      <trkpt lat="45.70858" lon="5.29798">
        <ele>311.8</ele>
        <time>2023-05-28T06:46:28Z</time>
      </trkpt>
      <trkpt lat="45.70863" lon="5.29798">
        <ele>311.8</ele>
        <time>2023-05-28T06:46:29Z</time>
      </trkpt>
      <trkpt lat="45.70868" lon="5.29798">
        <ele>311.8</ele>
        <time>2023-05-28T06:46:30Z</time>
      </trkpt>
      <trkpt lat="45.70872" lon="5.29799">
        <ele>311.8</ele>
        <time>2023-05-28T06:46:31Z</time>
      </trkpt>
      <trkpt lat="45.70878" lon="5.29799">
        <ele>312</ele>
        <time>2023-05-28T06:46:32Z</time>
      </trkpt>
      <trkpt lat="45.70882" lon="5.29799">
        <ele>312</ele>
        <time>2023-05-28T06:46:33Z</time>
      </trkpt>
      <trkpt lat="45.70886" lon="5.298">
        <ele>312.2</ele>
        <time>2023-05-28T06:46:34Z</time>
      </trkpt>
      <trkpt lat="45.7089" lon="5.29801">
        <ele>312.2</ele>
        <time>2023-05-28T06:46:35Z</time>
      </trkpt>
      <trkpt lat="45.70894" lon="5.29803">
        <ele>312.4</ele>
        <time>2023-05-28T06:46:36Z</time>
      </trkpt>
      <trkpt lat="45.70898" lon="5.29805">
        <ele>312.4</ele>
        <time>2023-05-28T06:46:37Z</time>
      </trkpt>
      <trkpt lat="45.70902" lon="5.29807">
        <ele>312.6</ele>
        <time>2023-05-28T06:46:38Z</time>
      </trkpt>
      <trkpt lat="45.70906" lon="5.2981">
        <ele>312.6</ele>
        <time>2023-05-28T06:46:39Z</time>
      </trkpt>
      <trkpt lat="45.70911" lon="5.29812">
        <ele>312.8</ele>
        <time>2023-05-28T06:46:40Z</time>
      </trkpt>
      <trkpt lat="45.70915" lon="5.29814">
        <ele>313.2</ele>
        <time>2023-05-28T06:46:41Z</time>
      </trkpt>
      <trkpt lat="45.70919" lon="5.29817">
        <ele>313.2</ele>
        <time>2023-05-28T06:46:42Z</time>
      </trkpt>
      <trkpt lat="45.70923" lon="5.2982">
        <ele>313.6</ele>
        <time>2023-05-28T06:46:43Z</time>
      </trkpt>
      <trkpt lat="45.70927" lon="5.29823">
        <ele>313.6</ele>
        <time>2023-05-28T06:46:44Z</time>
      </trkpt>
      <trkpt lat="45.70932" lon="5.29826">
        <ele>313.8</ele>
        <time>2023-05-28T06:46:45Z</time>
      </trkpt>
      <trkpt lat="45.70937" lon="5.2983">
        <ele>313.8</ele>
        <time>2023-05-28T06:46:46Z</time>
      </trkpt>
      <trkpt lat="45.70942" lon="5.29834">
        <ele>314</ele>
        <time>2023-05-28T06:46:47Z</time>
      </trkpt>
      <trkpt lat="45.70947" lon="5.29837">
        <ele>314.2</ele>
        <time>2023-05-28T06:46:48Z</time>
      </trkpt>
      <trkpt lat="45.70952" lon="5.2984">
        <ele>314.2</ele>
        <time>2023-05-28T06:46:49Z</time>
      </trkpt>
      <trkpt lat="45.70956" lon="5.29844">
        <ele>314.4</ele>
        <time>2023-05-28T06:46:50Z</time>
      </trkpt>
      <trkpt lat="45.70961" lon="5.29846">
        <ele>314.6</ele>
        <time>2023-05-28T06:46:51Z</time>
      </trkpt>
      <trkpt lat="45.70965" lon="5.2985">
        <ele>314.6</ele>
        <time>2023-05-28T06:46:52Z</time>
      </trkpt>
      <trkpt lat="45.7097" lon="5.29853">
        <ele>314.8</ele>
        <time>2023-05-28T06:46:53Z</time>
      </trkpt>
      <trkpt lat="45.70975" lon="5.29856">
        <ele>315</ele>
        <time>2023-05-28T06:46:54Z</time>
      </trkpt>
      <trkpt lat="45.70979" lon="5.29859">
        <ele>315.4</ele>
        <time>2023-05-28T06:46:55Z</time>
      </trkpt>
      <trkpt lat="45.70984" lon="5.29862">
        <ele>315.4</ele>
        <time>2023-05-28T06:46:56Z</time>
      </trkpt>
      <trkpt lat="45.70989" lon="5.29866">
        <ele>315.6</ele>
        <time>2023-05-28T06:46:57Z</time>
      </trkpt>
      <trkpt lat="45.70994" lon="5.29869">
        <ele>315.6</ele>
        <time>2023-05-28T06:46:58Z</time>
      </trkpt>
      <trkpt lat="45.70998" lon="5.29872">
        <ele>315.8</ele>
        <time>2023-05-28T06:46:59Z</time>
      </trkpt>
      <trkpt lat="45.71003" lon="5.29875">
        <ele>315.8</ele>
        <time>2023-05-28T06:47:00Z</time>
      </trkpt>
      <trkpt lat="45.71007" lon="5.29878">
        <ele>315.8</ele>
        <time>2023-05-28T06:47:01Z</time>
      </trkpt>
      <trkpt lat="45.71012" lon="5.2988">
        <ele>316</ele>
        <time>2023-05-28T06:47:02Z</time>
      </trkpt>
      <trkpt lat="45.71017" lon="5.29883">
        <ele>316</ele>
        <time>2023-05-28T06:47:03Z</time>
      </trkpt>
      <trkpt lat="45.71021" lon="5.29886">
        <ele>316.4</ele>
        <time>2023-05-28T06:47:04Z</time>
      </trkpt>
      <trkpt lat="45.71025" lon="5.29889">
        <ele>316.4</ele>
        <time>2023-05-28T06:47:05Z</time>
      </trkpt>
      <trkpt lat="45.7103" lon="5.29893">
        <ele>316.6</ele>
        <time>2023-05-28T06:47:06Z</time>
      </trkpt>
      <trkpt lat="45.71034" lon="5.29897">
        <ele>316.8</ele>
        <time>2023-05-28T06:47:07Z</time>
      </trkpt>
      <trkpt lat="45.71039" lon="5.299">
        <ele>316.8</ele>
        <time>2023-05-28T06:47:08Z</time>
      </trkpt>
      <trkpt lat="45.71044" lon="5.29903">
        <ele>316.8</ele>
        <time>2023-05-28T06:47:09Z</time>
      </trkpt>
      <trkpt lat="45.71048" lon="5.29907">
        <ele>317</ele>
        <time>2023-05-28T06:47:10Z</time>
      </trkpt>
      <trkpt lat="45.71052" lon="5.2991">
        <ele>317</ele>
        <time>2023-05-28T06:47:11Z</time>
      </trkpt>
      <trkpt lat="45.71056" lon="5.29914">
        <ele>317</ele>
        <time>2023-05-28T06:47:12Z</time>
      </trkpt>
      <trkpt lat="45.71061" lon="5.29917">
        <ele>317.2</ele>
        <time>2023-05-28T06:47:13Z</time>
      </trkpt>
      <trkpt lat="45.71065" lon="5.2992">
        <ele>317.4</ele>
        <time>2023-05-28T06:47:14Z</time>
      </trkpt>
      <trkpt lat="45.71069" lon="5.29923">
        <ele>317.4</ele>
        <time>2023-05-28T06:47:15Z</time>
      </trkpt>
      <trkpt lat="45.71074" lon="5.29926">
        <ele>317.6</ele>
        <time>2023-05-28T06:47:16Z</time>
      </trkpt>
      <trkpt lat="45.71078" lon="5.29929">
        <ele>317.6</ele>
        <time>2023-05-28T06:47:17Z</time>
      </trkpt>
      <trkpt lat="45.71082" lon="5.29932">
        <ele>318</ele>
        <time>2023-05-28T06:47:18Z</time>
      </trkpt>
      <trkpt lat="45.71086" lon="5.29935">
        <ele>318</ele>
        <time>2023-05-28T06:47:19Z</time>
      </trkpt>
      <trkpt lat="45.7109" lon="5.29939">
        <ele>318.2</ele>
        <time>2023-05-28T06:47:20Z</time>
      </trkpt>
      <trkpt lat="45.71095" lon="5.29944">
        <ele>318.4</ele>
        <time>2023-05-28T06:47:21Z</time>
      </trkpt>
      <trkpt lat="45.71101" lon="5.2995">
        <ele>318.6</ele>
        <time>2023-05-28T06:47:22Z</time>
      </trkpt>
      <trkpt lat="45.71105" lon="5.29954">
        <ele>318.8</ele>
        <time>2023-05-28T06:47:23Z</time>
      </trkpt>
      <trkpt lat="45.71108" lon="5.29958">
        <ele>318.8</ele>
        <time>2023-05-28T06:47:24Z</time>
      </trkpt>
      <trkpt lat="45.71116" lon="5.29963">
        <ele>319.2</ele>
        <time>2023-05-28T06:47:26Z</time>
      </trkpt>
      <trkpt lat="45.71119" lon="5.29966">
        <ele>319.4</ele>
        <time>2023-05-28T06:47:27Z</time>
      </trkpt>
      <trkpt lat="45.71122" lon="5.2997">
        <ele>319.4</ele>
        <time>2023-05-28T06:47:28Z</time>
      </trkpt>
      <trkpt lat="45.71127" lon="5.29974">
        <ele>319.6</ele>
        <time>2023-05-28T06:47:29Z</time>
      </trkpt>
      <trkpt lat="45.71131" lon="5.29978">
        <ele>319.8</ele>
        <time>2023-05-28T06:47:30Z</time>
      </trkpt>
      <trkpt lat="45.71135" lon="5.29982">
        <ele>320</ele>
        <time>2023-05-28T06:47:31Z</time>
      </trkpt>
      <trkpt lat="45.7114" lon="5.29986">
        <ele>320.2</ele>
        <time>2023-05-28T06:47:32Z</time>
      </trkpt>
      <trkpt lat="45.71144" lon="5.2999">
        <ele>320.4</ele>
        <time>2023-05-28T06:47:33Z</time>
      </trkpt>
      <trkpt lat="45.71149" lon="5.29994">
        <ele>320.6</ele>
        <time>2023-05-28T06:47:34Z</time>
      </trkpt>
      <trkpt lat="45.71158" lon="5.30003">
        <ele>320.6</ele>
        <time>2023-05-28T06:47:36Z</time>
      </trkpt>
      <trkpt lat="45.71164" lon="5.30006">
        <ele>320.8</ele>
        <time>2023-05-28T06:47:37Z</time>
      </trkpt>
      <trkpt lat="45.71169" lon="5.3001">
        <ele>320.8</ele>
        <time>2023-05-28T06:47:38Z</time>
      </trkpt>
      <trkpt lat="45.71173" lon="5.30014">
        <ele>321</ele>
        <time>2023-05-28T06:47:39Z</time>
      </trkpt>
      <trkpt lat="45.7118" lon="5.30019">
        <ele>321.4</ele>
        <time>2023-05-28T06:47:40Z</time>
      </trkpt>
      <trkpt lat="45.71185" lon="5.30023">
        <ele>321.6</ele>
        <time>2023-05-28T06:47:41Z</time>
      </trkpt>
      <trkpt lat="45.7119" lon="5.30027">
        <ele>321.8</ele>
        <time>2023-05-28T06:47:42Z</time>
      </trkpt>
      <trkpt lat="45.71193" lon="5.3003">
        <ele>322.2</ele>
        <time>2023-05-28T06:47:43Z</time>
      </trkpt>
      <trkpt lat="45.71197" lon="5.30034">
        <ele>322.2</ele>
        <time>2023-05-28T06:47:44Z</time>
      </trkpt>
      <trkpt lat="45.71204" lon="5.30045">
        <ele>322.6</ele>
        <time>2023-05-28T06:47:46Z</time>
      </trkpt>
      <trkpt lat="45.712" lon="5.30063">
        <ele>323</ele>
        <time>2023-05-28T06:47:49Z</time>
      </trkpt>
      <trkpt lat="45.71198" lon="5.30069">
        <ele>323</ele>
        <time>2023-05-28T06:47:50Z</time>
      </trkpt>
      <trkpt lat="45.71195" lon="5.30076">
        <ele>323</ele>
        <time>2023-05-28T06:47:51Z</time>
      </trkpt>
      <trkpt lat="45.71192" lon="5.30079">
        <ele>323</ele>
        <time>2023-05-28T06:47:52Z</time>
      </trkpt>
      <trkpt lat="45.7119" lon="5.30084">
        <ele>323</ele>
        <time>2023-05-28T06:47:53Z</time>
      </trkpt>
      <trkpt lat="45.71189" lon="5.3009">
        <ele>323</ele>
        <time>2023-05-28T06:47:54Z</time>
      </trkpt>
      <trkpt lat="45.71187" lon="5.30098">
        <ele>323</ele>
        <time>2023-05-28T06:47:55Z</time>
      </trkpt>
      <trkpt lat="45.71186" lon="5.30104">
        <ele>323</ele>
        <time>2023-05-28T06:47:56Z</time>
      </trkpt>
      <trkpt lat="45.71185" lon="5.30111">
        <ele>323.2</ele>
        <time>2023-05-28T06:47:57Z</time>
      </trkpt>
      <trkpt lat="45.71185" lon="5.30118">
        <ele>323.2</ele>
        <time>2023-05-28T06:47:58Z</time>
      </trkpt>
      <trkpt lat="45.71185" lon="5.30125">
        <ele>323.2</ele>
        <time>2023-05-28T06:47:59Z</time>
      </trkpt>
      <trkpt lat="45.71184" lon="5.30132">
        <ele>323.2</ele>
        <time>2023-05-28T06:48:00Z</time>
      </trkpt>
      <trkpt lat="45.71184" lon="5.30139">
        <ele>323.2</ele>
        <time>2023-05-28T06:48:01Z</time>
      </trkpt>
      <trkpt lat="45.71183" lon="5.30144">
        <ele>323.2</ele>
        <time>2023-05-28T06:48:02Z</time>
      </trkpt>
      <trkpt lat="45.71183" lon="5.30149">
        <ele>323.4</ele>
        <time>2023-05-28T06:48:03Z</time>
      </trkpt>
      <trkpt lat="45.71182" lon="5.30156">
        <ele>323.4</ele>
        <time>2023-05-28T06:48:04Z</time>
      </trkpt>
      <trkpt lat="45.71181" lon="5.30162">
        <ele>323.6</ele>
        <time>2023-05-28T06:48:05Z</time>
      </trkpt>
      <trkpt lat="45.71181" lon="5.3017">
        <ele>323.8</ele>
        <time>2023-05-28T06:48:06Z</time>
      </trkpt>
      <trkpt lat="45.7118" lon="5.30176">
        <ele>323.8</ele>
        <time>2023-05-28T06:48:07Z</time>
      </trkpt>
      <trkpt lat="45.7118" lon="5.30181">
        <ele>324</ele>
        <time>2023-05-28T06:48:08Z</time>
      </trkpt>
      <trkpt lat="45.71179" lon="5.30187">
        <ele>324</ele>
        <time>2023-05-28T06:48:09Z</time>
      </trkpt>
      <trkpt lat="45.71178" lon="5.30194">
        <ele>324.2</ele>
        <time>2023-05-28T06:48:10Z</time>
      </trkpt>
      <trkpt lat="45.71177" lon="5.302">
        <ele>324.2</ele>
        <time>2023-05-28T06:48:11Z</time>
      </trkpt>
      <trkpt lat="45.71176" lon="5.30205">
        <ele>324.4</ele>
        <time>2023-05-28T06:48:12Z</time>
      </trkpt>
      <trkpt lat="45.71175" lon="5.30211">
        <ele>324.4</ele>
        <time>2023-05-28T06:48:13Z</time>
      </trkpt>
      <trkpt lat="45.71174" lon="5.30216">
        <ele>324.6</ele>
        <time>2023-05-28T06:48:14Z</time>
      </trkpt>
      <trkpt lat="45.71172" lon="5.30221">
        <ele>324.6</ele>
        <time>2023-05-28T06:48:15Z</time>
      </trkpt>
      <trkpt lat="45.71171" lon="5.30226">
        <ele>324.8</ele>
        <time>2023-05-28T06:48:16Z</time>
      </trkpt>
      <trkpt lat="45.71169" lon="5.30231">
        <ele>325</ele>
        <time>2023-05-28T06:48:17Z</time>
      </trkpt>
      <trkpt lat="45.71167" lon="5.30236">
        <ele>325</ele>
        <time>2023-05-28T06:48:18Z</time>
      </trkpt>
      <trkpt lat="45.71166" lon="5.30241">
        <ele>325.2</ele>
        <time>2023-05-28T06:48:19Z</time>
      </trkpt>
      <trkpt lat="45.71164" lon="5.30247">
        <ele>325.2</ele>
        <time>2023-05-28T06:48:20Z</time>
      </trkpt>
      <trkpt lat="45.71163" lon="5.30252">
        <ele>325.4</ele>
        <time>2023-05-28T06:48:21Z</time>
      </trkpt>
      <trkpt lat="45.71161" lon="5.30257">
        <ele>325.4</ele>
        <time>2023-05-28T06:48:22Z</time>
      </trkpt>
      <trkpt lat="45.7116" lon="5.30262">
        <ele>325.4</ele>
        <time>2023-05-28T06:48:23Z</time>
      </trkpt>
      <trkpt lat="45.71159" lon="5.30266">
        <ele>325.6</ele>
        <time>2023-05-28T06:48:24Z</time>
      </trkpt>
      <trkpt lat="45.71157" lon="5.30271">
        <ele>325.6</ele>
        <time>2023-05-28T06:48:25Z</time>
      </trkpt>
      <trkpt lat="45.71155" lon="5.30277">
        <ele>326</ele>
        <time>2023-05-28T06:48:26Z</time>
      </trkpt>
      <trkpt lat="45.71154" lon="5.30282">
        <ele>326.2</ele>
        <time>2023-05-28T06:48:27Z</time>
      </trkpt>
      <trkpt lat="45.71153" lon="5.30286">
        <ele>326.4</ele>
        <time>2023-05-28T06:48:28Z</time>
      </trkpt>
      <trkpt lat="45.71151" lon="5.30292">
        <ele>326.6</ele>
        <time>2023-05-28T06:48:29Z</time>
      </trkpt>
      <trkpt lat="45.7115" lon="5.30298">
        <ele>326.6</ele>
        <time>2023-05-28T06:48:30Z</time>
      </trkpt>
      <trkpt lat="45.71149" lon="5.30303">
        <ele>327</ele>
        <time>2023-05-28T06:48:31Z</time>
      </trkpt>
      <trkpt lat="45.71148" lon="5.30308">
        <ele>327</ele>
        <time>2023-05-28T06:48:32Z</time>
      </trkpt>
      <trkpt lat="45.71147" lon="5.30313">
        <ele>327.2</ele>
        <time>2023-05-28T06:48:33Z</time>
      </trkpt>
      <trkpt lat="45.71146" lon="5.30318">
        <ele>327.4</ele>
        <time>2023-05-28T06:48:34Z</time>
      </trkpt>
      <trkpt lat="45.71145" lon="5.30323">
        <ele>327.6</ele>
        <time>2023-05-28T06:48:35Z</time>
      </trkpt>
      <trkpt lat="45.71143" lon="5.3033">
        <ele>327.8</ele>
        <time>2023-05-28T06:48:36Z</time>
      </trkpt>
      <trkpt lat="45.71142" lon="5.30335">
        <ele>328.2</ele>
        <time>2023-05-28T06:48:37Z</time>
      </trkpt>
      <trkpt lat="45.71142" lon="5.30339">
        <ele>328.4</ele>
        <time>2023-05-28T06:48:38Z</time>
      </trkpt>
      <trkpt lat="45.71141" lon="5.30345">
        <ele>328.6</ele>
        <time>2023-05-28T06:48:39Z</time>
      </trkpt>
      <trkpt lat="45.71141" lon="5.3035">
        <ele>328.6</ele>
        <time>2023-05-28T06:48:40Z</time>
      </trkpt>
      <trkpt lat="45.7114" lon="5.30357">
        <ele>328.6</ele>
        <time>2023-05-28T06:48:41Z</time>
      </trkpt>
      <trkpt lat="45.7114" lon="5.30362">
        <ele>328.8</ele>
        <time>2023-05-28T06:48:42Z</time>
      </trkpt>
      <trkpt lat="45.7114" lon="5.30366">
        <ele>329</ele>
        <time>2023-05-28T06:48:43Z</time>
      </trkpt>
      <trkpt lat="45.71139" lon="5.30372">
        <ele>329.2</ele>
        <time>2023-05-28T06:48:44Z</time>
      </trkpt>
      <trkpt lat="45.71139" lon="5.30377">
        <ele>329.4</ele>
        <time>2023-05-28T06:48:45Z</time>
      </trkpt>
      <trkpt lat="45.71139" lon="5.30384">
        <ele>329.6</ele>
        <time>2023-05-28T06:48:46Z</time>
      </trkpt>
      <trkpt lat="45.71139" lon="5.30389">
        <ele>330</ele>
        <time>2023-05-28T06:48:47Z</time>
      </trkpt>
      <trkpt lat="45.71139" lon="5.30394">
        <ele>330</ele>
        <time>2023-05-28T06:48:48Z</time>
      </trkpt>
      <trkpt lat="45.7114" lon="5.304">
        <ele>330.4</ele>
        <time>2023-05-28T06:48:49Z</time>
      </trkpt>
      <trkpt lat="45.7114" lon="5.30405">
        <ele>330.6</ele>
        <time>2023-05-28T06:48:50Z</time>
      </trkpt>
      <trkpt lat="45.71141" lon="5.30411">
        <ele>331</ele>
        <time>2023-05-28T06:48:51Z</time>
      </trkpt>
      <trkpt lat="45.71141" lon="5.30416">
        <ele>331.4</ele>
        <time>2023-05-28T06:48:52Z</time>
      </trkpt>
      <trkpt lat="45.71143" lon="5.3042">
        <ele>331.6</ele>
        <time>2023-05-28T06:48:53Z</time>
      </trkpt>
      <trkpt lat="45.71144" lon="5.30425">
        <ele>331.8</ele>
        <time>2023-05-28T06:48:54Z</time>
      </trkpt>
      <trkpt lat="45.71146" lon="5.3043">
        <ele>332</ele>
        <time>2023-05-28T06:48:55Z</time>
      </trkpt>
      <trkpt lat="45.71148" lon="5.30436">
        <ele>332.4</ele>
        <time>2023-05-28T06:48:56Z</time>
      </trkpt>
      <trkpt lat="45.7115" lon="5.3044">
        <ele>332.6</ele>
        <time>2023-05-28T06:48:57Z</time>
      </trkpt>
      <trkpt lat="45.71151" lon="5.30444">
        <ele>332.6</ele>
        <time>2023-05-28T06:48:58Z</time>
      </trkpt>
      <trkpt lat="45.71153" lon="5.3045">
        <ele>332.8</ele>
        <time>2023-05-28T06:48:59Z</time>
      </trkpt>
      <trkpt lat="45.71156" lon="5.30455">
        <ele>332.8</ele>
        <time>2023-05-28T06:49:00Z</time>
      </trkpt>
      <trkpt lat="45.71159" lon="5.30461">
        <ele>333.2</ele>
        <time>2023-05-28T06:49:01Z</time>
      </trkpt>
      <trkpt lat="45.71162" lon="5.30467">
        <ele>333.2</ele>
        <time>2023-05-28T06:49:02Z</time>
      </trkpt>
      <trkpt lat="45.71164" lon="5.30471">
        <ele>333.4</ele>
        <time>2023-05-28T06:49:03Z</time>
      </trkpt>
      <trkpt lat="45.71166" lon="5.30476">
        <ele>333.6</ele>
        <time>2023-05-28T06:49:04Z</time>
      </trkpt>
      <trkpt lat="45.71169" lon="5.30482">
        <ele>333.6</ele>
        <time>2023-05-28T06:49:05Z</time>
      </trkpt>
      <trkpt lat="45.71171" lon="5.30487">
        <ele>333.8</ele>
        <time>2023-05-28T06:49:06Z</time>
      </trkpt>
      <trkpt lat="45.71174" lon="5.30493">
        <ele>333.8</ele>
        <time>2023-05-28T06:49:07Z</time>
      </trkpt>
      <trkpt lat="45.71176" lon="5.30498">
        <ele>334</ele>
        <time>2023-05-28T06:49:08Z</time>
      </trkpt>
      <trkpt lat="45.71178" lon="5.30503">
        <ele>334</ele>
        <time>2023-05-28T06:49:09Z</time>
      </trkpt>
      <trkpt lat="45.71181" lon="5.30508">
        <ele>334.2</ele>
        <time>2023-05-28T06:49:10Z</time>
      </trkpt>
      <trkpt lat="45.71183" lon="5.30513">
        <ele>334.6</ele>
        <time>2023-05-28T06:49:11Z</time>
      </trkpt>
      <trkpt lat="45.71186" lon="5.30519">
        <ele>334.6</ele>
        <time>2023-05-28T06:49:12Z</time>
      </trkpt>
      <trkpt lat="45.71189" lon="5.30524">
        <ele>335</ele>
        <time>2023-05-28T06:49:13Z</time>
      </trkpt>
      <trkpt lat="45.71191" lon="5.3053">
        <ele>335</ele>
        <time>2023-05-28T06:49:14Z</time>
      </trkpt>
      <trkpt lat="45.71194" lon="5.30535">
        <ele>335.4</ele>
        <time>2023-05-28T06:49:15Z</time>
      </trkpt>
      <trkpt lat="45.71197" lon="5.30541">
        <ele>335.6</ele>
        <time>2023-05-28T06:49:16Z</time>
      </trkpt>
      <trkpt lat="45.712" lon="5.30546">
        <ele>335.8</ele>
        <time>2023-05-28T06:49:17Z</time>
      </trkpt>
      <trkpt lat="45.71202" lon="5.30552">
        <ele>336</ele>
        <time>2023-05-28T06:49:18Z</time>
      </trkpt>
      <trkpt lat="45.71205" lon="5.30557">
        <ele>336</ele>
        <time>2023-05-28T06:49:19Z</time>
      </trkpt>
      <trkpt lat="45.71208" lon="5.30563">
        <ele>336.2</ele>
        <time>2023-05-28T06:49:20Z</time>
      </trkpt>
      <trkpt lat="45.71211" lon="5.30569">
        <ele>336.2</ele>
        <time>2023-05-28T06:49:21Z</time>
      </trkpt>
      <trkpt lat="45.71214" lon="5.30575">
        <ele>336.4</ele>
        <time>2023-05-28T06:49:22Z</time>
      </trkpt>
      <trkpt lat="45.71217" lon="5.3058">
        <ele>336.4</ele>
        <time>2023-05-28T06:49:23Z</time>
      </trkpt>
      <trkpt lat="45.71219" lon="5.30586">
        <ele>336.4</ele>
        <time>2023-05-28T06:49:24Z</time>
      </trkpt>
      <trkpt lat="45.71222" lon="5.30592">
        <ele>336.4</ele>
        <time>2023-05-28T06:49:25Z</time>
      </trkpt>
      <trkpt lat="45.71225" lon="5.30598">
        <ele>336.2</ele>
        <time>2023-05-28T06:49:26Z</time>
      </trkpt>
      <trkpt lat="45.71227" lon="5.30604">
        <ele>336.6</ele>
        <time>2023-05-28T06:49:27Z</time>
      </trkpt>
      <trkpt lat="45.7123" lon="5.3061">
        <ele>336.6</ele>
        <time>2023-05-28T06:49:28Z</time>
      </trkpt>
      <trkpt lat="45.71232" lon="5.30616">
        <ele>336.6</ele>
        <time>2023-05-28T06:49:29Z</time>
      </trkpt>
      <trkpt lat="45.71235" lon="5.30622">
        <ele>336.8</ele>
        <time>2023-05-28T06:49:30Z</time>
      </trkpt>
      <trkpt lat="45.71237" lon="5.30628">
        <ele>337</ele>
        <time>2023-05-28T06:49:31Z</time>
      </trkpt>
      <trkpt lat="45.71239" lon="5.30634">
        <ele>337</ele>
        <time>2023-05-28T06:49:32Z</time>
      </trkpt>
      <trkpt lat="45.71242" lon="5.30639">
        <ele>337</ele>
        <time>2023-05-28T06:49:33Z</time>
      </trkpt>
      <trkpt lat="45.71244" lon="5.30645">
        <ele>337.4</ele>
        <time>2023-05-28T06:49:34Z</time>
      </trkpt>
      <trkpt lat="45.71246" lon="5.30651">
        <ele>337.4</ele>
        <time>2023-05-28T06:49:35Z</time>
      </trkpt>
      <trkpt lat="45.71248" lon="5.30657">
        <ele>337.6</ele>
        <time>2023-05-28T06:49:36Z</time>
      </trkpt>
      <trkpt lat="45.7125" lon="5.30662">
        <ele>337.6</ele>
        <time>2023-05-28T06:49:37Z</time>
      </trkpt>
      <trkpt lat="45.71253" lon="5.30668">
        <ele>337.8</ele>
        <time>2023-05-28T06:49:38Z</time>
      </trkpt>
      <trkpt lat="45.71255" lon="5.30673">
        <ele>337.8</ele>
        <time>2023-05-28T06:49:39Z</time>
      </trkpt>
      <trkpt lat="45.71257" lon="5.30679">
        <ele>338</ele>
        <time>2023-05-28T06:49:40Z</time>
      </trkpt>
      <trkpt lat="45.71259" lon="5.30684">
        <ele>338</ele>
        <time>2023-05-28T06:49:41Z</time>
      </trkpt>
      <trkpt lat="45.71261" lon="5.30689">
        <ele>338.2</ele>
        <time>2023-05-28T06:49:42Z</time>
      </trkpt>
      <trkpt lat="45.71263" lon="5.30694">
        <ele>338.4</ele>
        <time>2023-05-28T06:49:43Z</time>
      </trkpt>
      <trkpt lat="45.71265" lon="5.307">
        <ele>338.6</ele>
        <time>2023-05-28T06:49:44Z</time>
      </trkpt>
      <trkpt lat="45.71266" lon="5.30704">
        <ele>339</ele>
        <time>2023-05-28T06:49:45Z</time>
      </trkpt>
      <trkpt lat="45.71268" lon="5.30709">
        <ele>339.2</ele>
        <time>2023-05-28T06:49:46Z</time>
      </trkpt>
      <trkpt lat="45.7127" lon="5.30715">
        <ele>339.4</ele>
        <time>2023-05-28T06:49:47Z</time>
      </trkpt>
      <trkpt lat="45.71271" lon="5.3072">
        <ele>339.6</ele>
        <time>2023-05-28T06:49:48Z</time>
      </trkpt>
      <trkpt lat="45.71272" lon="5.30725">
        <ele>339.8</ele>
        <time>2023-05-28T06:49:49Z</time>
      </trkpt>
      <trkpt lat="45.71274" lon="5.3073">
        <ele>340.2</ele>
        <time>2023-05-28T06:49:50Z</time>
      </trkpt>
      <trkpt lat="45.71275" lon="5.30737">
        <ele>340.2</ele>
        <time>2023-05-28T06:49:51Z</time>
      </trkpt>
      <trkpt lat="45.71276" lon="5.30742">
        <ele>340.4</ele>
        <time>2023-05-28T06:49:52Z</time>
      </trkpt>
      <trkpt lat="45.71277" lon="5.30748">
        <ele>341</ele>
        <time>2023-05-28T06:49:53Z</time>
      </trkpt>
      <trkpt lat="45.71278" lon="5.30753">
        <ele>341.2</ele>
        <time>2023-05-28T06:49:54Z</time>
      </trkpt>
      <trkpt lat="45.71279" lon="5.30758">
        <ele>341.4</ele>
        <time>2023-05-28T06:49:55Z</time>
      </trkpt>
      <trkpt lat="45.7128" lon="5.30765">
        <ele>341.6</ele>
        <time>2023-05-28T06:49:56Z</time>
      </trkpt>
      <trkpt lat="45.71281" lon="5.3077">
        <ele>341.8</ele>
        <time>2023-05-28T06:49:57Z</time>
      </trkpt>
      <trkpt lat="45.71281" lon="5.30776">
        <ele>342.2</ele>
        <time>2023-05-28T06:49:58Z</time>
      </trkpt>
      <trkpt lat="45.71282" lon="5.30781">
        <ele>342.2</ele>
        <time>2023-05-28T06:49:59Z</time>
      </trkpt>
      <trkpt lat="45.71283" lon="5.30793">
        <ele>342.4</ele>
        <time>2023-05-28T06:50:01Z</time>
      </trkpt>
      <trkpt lat="45.71283" lon="5.30798">
        <ele>342.4</ele>
        <time>2023-05-28T06:50:02Z</time>
      </trkpt>
      <trkpt lat="45.71284" lon="5.30804">
        <ele>342.6</ele>
        <time>2023-05-28T06:50:03Z</time>
      </trkpt>
      <trkpt lat="45.71284" lon="5.3081">
        <ele>342.6</ele>
        <time>2023-05-28T06:50:04Z</time>
      </trkpt>
      <trkpt lat="45.71285" lon="5.30815">
        <ele>342.8</ele>
        <time>2023-05-28T06:50:05Z</time>
      </trkpt>
      <trkpt lat="45.71285" lon="5.30821">
        <ele>343</ele>
        <time>2023-05-28T06:50:06Z</time>
      </trkpt>
      <trkpt lat="45.71286" lon="5.30827">
        <ele>343.6</ele>
        <time>2023-05-28T06:50:07Z</time>
      </trkpt>
      <trkpt lat="45.71286" lon="5.30832">
        <ele>343.8</ele>
        <time>2023-05-28T06:50:08Z</time>
      </trkpt>
      <trkpt lat="45.71287" lon="5.30838">
        <ele>344.2</ele>
        <time>2023-05-28T06:50:09Z</time>
      </trkpt>
      <trkpt lat="45.71287" lon="5.30843">
        <ele>344.4</ele>
        <time>2023-05-28T06:50:10Z</time>
      </trkpt>
      <trkpt lat="45.71288" lon="5.30849">
        <ele>344.8</ele>
        <time>2023-05-28T06:50:11Z</time>
      </trkpt>
      <trkpt lat="45.71288" lon="5.30855">
        <ele>345.2</ele>
        <time>2023-05-28T06:50:12Z</time>
      </trkpt>
      <trkpt lat="45.71289" lon="5.3086">
        <ele>345.2</ele>
        <time>2023-05-28T06:50:13Z</time>
      </trkpt>
      <trkpt lat="45.7129" lon="5.30866">
        <ele>345.4</ele>
        <time>2023-05-28T06:50:14Z</time>
      </trkpt>
      <trkpt lat="45.7129" lon="5.30871">
        <ele>345.6</ele>
        <time>2023-05-28T06:50:15Z</time>
      </trkpt>
      <trkpt lat="45.71291" lon="5.30876">
        <ele>346</ele>
        <time>2023-05-28T06:50:16Z</time>
      </trkpt>
      <trkpt lat="45.71292" lon="5.30881">
        <ele>346.4</ele>
        <time>2023-05-28T06:50:17Z</time>
      </trkpt>
      <trkpt lat="45.71293" lon="5.30886">
        <ele>346.8</ele>
        <time>2023-05-28T06:50:18Z</time>
      </trkpt>
      <trkpt lat="45.71294" lon="5.30891">
        <ele>347.6</ele>
        <time>2023-05-28T06:50:19Z</time>
      </trkpt>
      <trkpt lat="45.71295" lon="5.30896">
        <ele>348</ele>
        <time>2023-05-28T06:50:20Z</time>
      </trkpt>
      <trkpt lat="45.71296" lon="5.30901">
        <ele>348.4</ele>
        <time>2023-05-28T06:50:21Z</time>
      </trkpt>
      <trkpt lat="45.71297" lon="5.30906">
        <ele>348.6</ele>
        <time>2023-05-28T06:50:22Z</time>
      </trkpt>
      <trkpt lat="45.71298" lon="5.30911">
        <ele>349</ele>
        <time>2023-05-28T06:50:23Z</time>
      </trkpt>
      <trkpt lat="45.71299" lon="5.30916">
        <ele>349.2</ele>
        <time>2023-05-28T06:50:24Z</time>
      </trkpt>
      <trkpt lat="45.713" lon="5.30921">
        <ele>349.4</ele>
        <time>2023-05-28T06:50:25Z</time>
      </trkpt>
      <trkpt lat="45.71302" lon="5.30931">
        <ele>350</ele>
        <time>2023-05-28T06:50:27Z</time>
      </trkpt>
      <trkpt lat="45.71303" lon="5.30936">
        <ele>350.2</ele>
        <time>2023-05-28T06:50:28Z</time>
      </trkpt>
      <trkpt lat="45.71305" lon="5.30942">
        <ele>350.4</ele>
        <time>2023-05-28T06:50:29Z</time>
      </trkpt>
      <trkpt lat="45.71306" lon="5.30947">
        <ele>350.4</ele>
        <time>2023-05-28T06:50:30Z</time>
      </trkpt>
      <trkpt lat="45.71307" lon="5.30952">
        <ele>350.6</ele>
        <time>2023-05-28T06:50:31Z</time>
      </trkpt>
      <trkpt lat="45.71308" lon="5.30958">
        <ele>350.8</ele>
        <time>2023-05-28T06:50:32Z</time>
      </trkpt>
      <trkpt lat="45.71311" lon="5.30968">
        <ele>351.4</ele>
        <time>2023-05-28T06:50:34Z</time>
      </trkpt>
      <trkpt lat="45.71312" lon="5.30974">
        <ele>351.6</ele>
        <time>2023-05-28T06:50:35Z</time>
      </trkpt>
      <trkpt lat="45.71313" lon="5.30979">
        <ele>351.8</ele>
        <time>2023-05-28T06:50:36Z</time>
      </trkpt>
      <trkpt lat="45.71314" lon="5.30985">
        <ele>352</ele>
        <time>2023-05-28T06:50:37Z</time>
      </trkpt>
      <trkpt lat="45.71316" lon="5.30996">
        <ele>352.4</ele>
        <time>2023-05-28T06:50:39Z</time>
      </trkpt>
      <trkpt lat="45.71317" lon="5.31001">
        <ele>352.6</ele>
        <time>2023-05-28T06:50:40Z</time>
      </trkpt>
      <trkpt lat="45.71319" lon="5.31006">
        <ele>352.6</ele>
        <time>2023-05-28T06:50:41Z</time>
      </trkpt>
      <trkpt lat="45.7132" lon="5.31012">
        <ele>352.6</ele>
        <time>2023-05-28T06:50:42Z</time>
      </trkpt>
      <trkpt lat="45.71321" lon="5.31017">
        <ele>352.6</ele>
        <time>2023-05-28T06:50:43Z</time>
      </trkpt>
      <trkpt lat="45.71322" lon="5.31023">
        <ele>352.8</ele>
        <time>2023-05-28T06:50:44Z</time>
      </trkpt>
      <trkpt lat="45.71323" lon="5.31029">
        <ele>352.8</ele>
        <time>2023-05-28T06:50:45Z</time>
      </trkpt>
      <trkpt lat="45.71324" lon="5.31035">
        <ele>353</ele>
        <time>2023-05-28T06:50:46Z</time>
      </trkpt>
      <trkpt lat="45.71327" lon="5.31047">
        <ele>353.4</ele>
        <time>2023-05-28T06:50:48Z</time>
      </trkpt>
      <trkpt lat="45.71329" lon="5.31054">
        <ele>353.4</ele>
        <time>2023-05-28T06:50:49Z</time>
      </trkpt>
      <trkpt lat="45.7133" lon="5.31059">
        <ele>353.4</ele>
        <time>2023-05-28T06:50:50Z</time>
      </trkpt>
      <trkpt lat="45.71331" lon="5.31065">
        <ele>353.6</ele>
        <time>2023-05-28T06:50:51Z</time>
      </trkpt>
      <trkpt lat="45.71332" lon="5.31071">
        <ele>353.8</ele>
        <time>2023-05-28T06:50:52Z</time>
      </trkpt>
      <trkpt lat="45.71335" lon="5.31082">
        <ele>354.2</ele>
        <time>2023-05-28T06:50:54Z</time>
      </trkpt>
      <trkpt lat="45.71336" lon="5.31088">
        <ele>354.4</ele>
        <time>2023-05-28T06:50:55Z</time>
      </trkpt>
      <trkpt lat="45.71336" lon="5.31092">
        <ele>354.6</ele>
        <time>2023-05-28T06:50:56Z</time>
      </trkpt>
      <trkpt lat="45.71337" lon="5.31098">
        <ele>354.6</ele>
        <time>2023-05-28T06:50:57Z</time>
      </trkpt>
      <trkpt lat="45.71338" lon="5.31104">
        <ele>354.8</ele>
        <time>2023-05-28T06:50:58Z</time>
      </trkpt>
      <trkpt lat="45.71339" lon="5.31109">
        <ele>354.8</ele>
        <time>2023-05-28T06:50:59Z</time>
      </trkpt>
      <trkpt lat="45.71341" lon="5.31118">
        <ele>355.2</ele>
        <time>2023-05-28T06:51:01Z</time>
      </trkpt>
      <trkpt lat="45.71342" lon="5.31124">
        <ele>355.2</ele>
        <time>2023-05-28T06:51:02Z</time>
      </trkpt>
      <trkpt lat="45.71344" lon="5.31128">
        <ele>355.4</ele>
        <time>2023-05-28T06:51:03Z</time>
      </trkpt>
      <trkpt lat="45.71345" lon="5.31133">
        <ele>355.6</ele>
        <time>2023-05-28T06:51:04Z</time>
      </trkpt>
      <trkpt lat="45.71347" lon="5.31137">
        <ele>356</ele>
        <time>2023-05-28T06:51:05Z</time>
      </trkpt>
      <trkpt lat="45.71349" lon="5.31142">
        <ele>356.2</ele>
        <time>2023-05-28T06:51:06Z</time>
      </trkpt>
      <trkpt lat="45.71353" lon="5.31147">
        <ele>356.6</ele>
        <time>2023-05-28T06:51:07Z</time>
      </trkpt>
      <trkpt lat="45.71356" lon="5.3115">
        <ele>356.8</ele>
        <time>2023-05-28T06:51:08Z</time>
      </trkpt>
      <trkpt lat="45.71359" lon="5.31153">
        <ele>356.8</ele>
        <time>2023-05-28T06:51:09Z</time>
      </trkpt>
      <trkpt lat="45.71363" lon="5.31156">
        <ele>357</ele>
        <time>2023-05-28T06:51:10Z</time>
      </trkpt>
      <trkpt lat="45.7137" lon="5.31161">
        <ele>357.4</ele>
        <time>2023-05-28T06:51:12Z</time>
      </trkpt>
      <trkpt lat="45.71373" lon="5.31163">
        <ele>357.4</ele>
        <time>2023-05-28T06:51:13Z</time>
      </trkpt>
      <trkpt lat="45.71376" lon="5.31166">
        <ele>357.6</ele>
        <time>2023-05-28T06:51:14Z</time>
      </trkpt>
      <trkpt lat="45.71384" lon="5.3117">
        <ele>357.8</ele>
        <time>2023-05-28T06:51:16Z</time>
      </trkpt>
      <trkpt lat="45.71387" lon="5.31172">
        <ele>357.8</ele>
        <time>2023-05-28T06:51:17Z</time>
      </trkpt>
      <trkpt lat="45.71391" lon="5.31175">
        <ele>358</ele>
        <time>2023-05-28T06:51:18Z</time>
      </trkpt>
      <trkpt lat="45.71398" lon="5.3118">
        <ele>358.2</ele>
        <time>2023-05-28T06:51:20Z</time>
      </trkpt>
      <trkpt lat="45.71401" lon="5.31182">
        <ele>358.2</ele>
        <time>2023-05-28T06:51:21Z</time>
      </trkpt>
      <trkpt lat="45.71405" lon="5.31184">
        <ele>358.4</ele>
        <time>2023-05-28T06:51:22Z</time>
      </trkpt>
      <trkpt lat="45.71411" lon="5.31188">
        <ele>358.6</ele>
        <time>2023-05-28T06:51:24Z</time>
      </trkpt>
      <trkpt lat="45.71415" lon="5.31191">
        <ele>358.6</ele>
        <time>2023-05-28T06:51:25Z</time>
      </trkpt>
      <trkpt lat="45.71419" lon="5.31193">
        <ele>358.8</ele>
        <time>2023-05-28T06:51:26Z</time>
      </trkpt>
      <trkpt lat="45.71423" lon="5.31196">
        <ele>359</ele>
        <time>2023-05-28T06:51:27Z</time>
      </trkpt>
      <trkpt lat="45.71427" lon="5.31198">
        <ele>359</ele>
        <time>2023-05-28T06:51:28Z</time>
      </trkpt>
      <trkpt lat="45.7143" lon="5.312">
        <ele>359</ele>
        <time>2023-05-28T06:51:29Z</time>
      </trkpt>
      <trkpt lat="45.71434" lon="5.31202">
        <ele>359.2</ele>
        <time>2023-05-28T06:51:30Z</time>
      </trkpt>
      <trkpt lat="45.71442" lon="5.31208">
        <ele>359.2</ele>
        <time>2023-05-28T06:51:32Z</time>
      </trkpt>
      <trkpt lat="45.71446" lon="5.3121">
        <ele>359.4</ele>
        <time>2023-05-28T06:51:33Z</time>
      </trkpt>
      <trkpt lat="45.7145" lon="5.31212">
        <ele>359.6</ele>
        <time>2023-05-28T06:51:34Z</time>
      </trkpt>
      <trkpt lat="45.71453" lon="5.31214">
        <ele>359.8</ele>
        <time>2023-05-28T06:51:35Z</time>
      </trkpt>
      <trkpt lat="45.71461" lon="5.3122">
        <ele>360</ele>
        <time>2023-05-28T06:51:37Z</time>
      </trkpt>
      <trkpt lat="45.71466" lon="5.31223">
        <ele>360.4</ele>
        <time>2023-05-28T06:51:38Z</time>
      </trkpt>
      <trkpt lat="45.7147" lon="5.31226">
        <ele>360.4</ele>
        <time>2023-05-28T06:51:39Z</time>
      </trkpt>
      <trkpt lat="45.71473" lon="5.3123">
        <ele>360.6</ele>
        <time>2023-05-28T06:51:40Z</time>
      </trkpt>
      <trkpt lat="45.71476" lon="5.31234">
        <ele>360.6</ele>
        <time>2023-05-28T06:51:41Z</time>
      </trkpt>
      <trkpt lat="45.71478" lon="5.31239">
        <ele>360.8</ele>
        <time>2023-05-28T06:51:42Z</time>
      </trkpt>
      <trkpt lat="45.7148" lon="5.31245">
        <ele>360.8</ele>
        <time>2023-05-28T06:51:43Z</time>
      </trkpt>
      <trkpt lat="45.7148" lon="5.31258">
        <ele>361.2</ele>
        <time>2023-05-28T06:51:45Z</time>
      </trkpt>
      <trkpt lat="45.7148" lon="5.31265">
        <ele>361.2</ele>
        <time>2023-05-28T06:51:46Z</time>
      </trkpt>
      <trkpt lat="45.71479" lon="5.31271">
        <ele>361.6</ele>
        <time>2023-05-28T06:51:47Z</time>
      </trkpt>
      <trkpt lat="45.71478" lon="5.31279">
        <ele>361.8</ele>
        <time>2023-05-28T06:51:48Z</time>
      </trkpt>
      <trkpt lat="45.71477" lon="5.31286">
        <ele>362.2</ele>
        <time>2023-05-28T06:51:49Z</time>
      </trkpt>
      <trkpt lat="45.71476" lon="5.31301">
        <ele>362.6</ele>
        <time>2023-05-28T06:51:51Z</time>
      </trkpt>
      <trkpt lat="45.71474" lon="5.31316">
        <ele>363</ele>
        <time>2023-05-28T06:51:53Z</time>
      </trkpt>
      <trkpt lat="45.71472" lon="5.31324">
        <ele>363.2</ele>
        <time>2023-05-28T06:51:54Z</time>
      </trkpt>
      <trkpt lat="45.71471" lon="5.31332">
        <ele>363.4</ele>
        <time>2023-05-28T06:51:55Z</time>
      </trkpt>
      <trkpt lat="45.7147" lon="5.3134">
        <ele>363.6</ele>
        <time>2023-05-28T06:51:56Z</time>
      </trkpt>
      <trkpt lat="45.71469" lon="5.31348">
        <ele>363.8</ele>
        <time>2023-05-28T06:51:57Z</time>
      </trkpt>
      <trkpt lat="45.71467" lon="5.31355">
        <ele>364</ele>
        <time>2023-05-28T06:51:58Z</time>
      </trkpt>
      <trkpt lat="45.71466" lon="5.31363">
        <ele>364</ele>
        <time>2023-05-28T06:51:59Z</time>
      </trkpt>
      <trkpt lat="45.71464" lon="5.31371">
        <ele>364.2</ele>
        <time>2023-05-28T06:52:00Z</time>
      </trkpt>
      <trkpt lat="45.71463" lon="5.31379">
        <ele>364.4</ele>
        <time>2023-05-28T06:52:01Z</time>
      </trkpt>
      <trkpt lat="45.71461" lon="5.31386">
        <ele>364.4</ele>
        <time>2023-05-28T06:52:02Z</time>
      </trkpt>
      <trkpt lat="45.71459" lon="5.31394">
        <ele>364.6</ele>
        <time>2023-05-28T06:52:03Z</time>
      </trkpt>
      <trkpt lat="45.71458" lon="5.31401">
        <ele>365</ele>
        <time>2023-05-28T06:52:04Z</time>
      </trkpt>
      <trkpt lat="45.71456" lon="5.31409">
        <ele>365.2</ele>
        <time>2023-05-28T06:52:05Z</time>
      </trkpt>
      <trkpt lat="45.71455" lon="5.31417">
        <ele>365.2</ele>
        <time>2023-05-28T06:52:06Z</time>
      </trkpt>
      <trkpt lat="45.71453" lon="5.31424">
        <ele>365.4</ele>
        <time>2023-05-28T06:52:07Z</time>
      </trkpt>
      <trkpt lat="45.71451" lon="5.31432">
        <ele>365.4</ele>
        <time>2023-05-28T06:52:08Z</time>
      </trkpt>
      <trkpt lat="45.71449" lon="5.3144">
        <ele>365.6</ele>
        <time>2023-05-28T06:52:09Z</time>
      </trkpt>
      <trkpt lat="45.71447" lon="5.31448">
        <ele>365.8</ele>
        <time>2023-05-28T06:52:10Z</time>
      </trkpt>
      <trkpt lat="45.71445" lon="5.31456">
        <ele>366</ele>
        <time>2023-05-28T06:52:11Z</time>
      </trkpt>
      <trkpt lat="45.71443" lon="5.31464">
        <ele>366</ele>
        <time>2023-05-28T06:52:12Z</time>
      </trkpt>
      <trkpt lat="45.71441" lon="5.31471">
        <ele>366</ele>
        <time>2023-05-28T06:52:13Z</time>
      </trkpt>
      <trkpt lat="45.71439" lon="5.31479">
        <ele>366.2</ele>
        <time>2023-05-28T06:52:14Z</time>
      </trkpt>
      <trkpt lat="45.71437" lon="5.31488">
        <ele>366.2</ele>
        <time>2023-05-28T06:52:15Z</time>
      </trkpt>
      <trkpt lat="45.71435" lon="5.31497">
        <ele>366.2</ele>
        <time>2023-05-28T06:52:16Z</time>
      </trkpt>
      <trkpt lat="45.71433" lon="5.31505">
        <ele>366.6</ele>
        <time>2023-05-28T06:52:17Z</time>
      </trkpt>
      <trkpt lat="45.71431" lon="5.31514">
        <ele>366.8</ele>
        <time>2023-05-28T06:52:18Z</time>
      </trkpt>
      <trkpt lat="45.71429" lon="5.31524">
        <ele>367</ele>
        <time>2023-05-28T06:52:19Z</time>
      </trkpt>
      <trkpt lat="45.71428" lon="5.31531">
        <ele>367</ele>
        <time>2023-05-28T06:52:20Z</time>
      </trkpt>
      <trkpt lat="45.71426" lon="5.31541">
        <ele>367</ele>
        <time>2023-05-28T06:52:21Z</time>
      </trkpt>
      <trkpt lat="45.71424" lon="5.31552">
        <ele>367.2</ele>
        <time>2023-05-28T06:52:22Z</time>
      </trkpt>
      <trkpt lat="45.71423" lon="5.3156">
        <ele>367.2</ele>
        <time>2023-05-28T06:52:23Z</time>
      </trkpt>
      <trkpt lat="45.71422" lon="5.3157">
        <ele>367.4</ele>
        <time>2023-05-28T06:52:24Z</time>
      </trkpt>
      <trkpt lat="45.71421" lon="5.3158">
        <ele>367.4</ele>
        <time>2023-05-28T06:52:25Z</time>
      </trkpt>
      <trkpt lat="45.7142" lon="5.31591">
        <ele>367.6</ele>
        <time>2023-05-28T06:52:26Z</time>
      </trkpt>
      <trkpt lat="45.71419" lon="5.31603">
        <ele>367.6</ele>
        <time>2023-05-28T06:52:27Z</time>
      </trkpt>
      <trkpt lat="45.71418" lon="5.31614">
        <ele>367.6</ele>
        <time>2023-05-28T06:52:28Z</time>
      </trkpt>
      <trkpt lat="45.71417" lon="5.31624">
        <ele>367.6</ele>
        <time>2023-05-28T06:52:29Z</time>
      </trkpt>
      <trkpt lat="45.71417" lon="5.31633">
        <ele>367.6</ele>
        <time>2023-05-28T06:52:30Z</time>
      </trkpt>
      <trkpt lat="45.71417" lon="5.31644">
        <ele>367.6</ele>
        <time>2023-05-28T06:52:31Z</time>
      </trkpt>
      <trkpt lat="45.71417" lon="5.31658">
        <ele>367.6</ele>
        <time>2023-05-28T06:52:32Z</time>
      </trkpt>
      <trkpt lat="45.71418" lon="5.31669">
        <ele>367.6</ele>
        <time>2023-05-28T06:52:33Z</time>
      </trkpt>
      <trkpt lat="45.71419" lon="5.31681">
        <ele>367.6</ele>
        <time>2023-05-28T06:52:34Z</time>
      </trkpt>
      <trkpt lat="45.7142" lon="5.31691">
        <ele>367.6</ele>
        <time>2023-05-28T06:52:35Z</time>
      </trkpt>
      <trkpt lat="45.71421" lon="5.31707">
        <ele>367.4</ele>
        <time>2023-05-28T06:52:36Z</time>
      </trkpt>
      <trkpt lat="45.71423" lon="5.3172">
        <ele>367.4</ele>
        <time>2023-05-28T06:52:37Z</time>
      </trkpt>
      <trkpt lat="45.71425" lon="5.31734">
        <ele>367.2</ele>
        <time>2023-05-28T06:52:38Z</time>
      </trkpt>
      <trkpt lat="45.71426" lon="5.31748">
        <ele>367</ele>
        <time>2023-05-28T06:52:39Z</time>
      </trkpt>
      <trkpt lat="45.71428" lon="5.31763">
        <ele>366.8</ele>
        <time>2023-05-28T06:52:40Z</time>
      </trkpt>
      <trkpt lat="45.71431" lon="5.31778">
        <ele>366.6</ele>
        <time>2023-05-28T06:52:41Z</time>
      </trkpt>
      <trkpt lat="45.71436" lon="5.31792">
        <ele>366.2</ele>
        <time>2023-05-28T06:52:42Z</time>
      </trkpt>
      <trkpt lat="45.71442" lon="5.31805">
        <ele>365.8</ele>
        <time>2023-05-28T06:52:43Z</time>
      </trkpt>
      <trkpt lat="45.71449" lon="5.31818">
        <ele>365.8</ele>
        <time>2023-05-28T06:52:44Z</time>
      </trkpt>
      <trkpt lat="45.71457" lon="5.31829">
        <ele>364.4</ele>
        <time>2023-05-28T06:52:45Z</time>
      </trkpt>
      <trkpt lat="45.71466" lon="5.31839">
        <ele>363.8</ele>
        <time>2023-05-28T06:52:46Z</time>
      </trkpt>
      <trkpt lat="45.71476" lon="5.31849">
        <ele>363.2</ele>
        <time>2023-05-28T06:52:47Z</time>
      </trkpt>
      <trkpt lat="45.71485" lon="5.3186">
        <ele>362.6</ele>
        <time>2023-05-28T06:52:48Z</time>
      </trkpt>
      <trkpt lat="45.71494" lon="5.3187">
        <ele>362.4</ele>
        <time>2023-05-28T06:52:49Z</time>
      </trkpt>
      <trkpt lat="45.71504" lon="5.31879">
        <ele>361.6</ele>
        <time>2023-05-28T06:52:50Z</time>
      </trkpt>
      <trkpt lat="45.71515" lon="5.31886">
        <ele>361.2</ele>
        <time>2023-05-28T06:52:51Z</time>
      </trkpt>
      <trkpt lat="45.71526" lon="5.31891">
        <ele>360.6</ele>
        <time>2023-05-28T06:52:52Z</time>
      </trkpt>
      <trkpt lat="45.71537" lon="5.31891">
        <ele>360.2</ele>
        <time>2023-05-28T06:52:53Z</time>
      </trkpt>
      <trkpt lat="45.71548" lon="5.31888">
        <ele>359.8</ele>
        <time>2023-05-28T06:52:54Z</time>
      </trkpt>
      <trkpt lat="45.71559" lon="5.31884">
        <ele>358.8</ele>
        <time>2023-05-28T06:52:55Z</time>
      </trkpt>
      <trkpt lat="45.71569" lon="5.31879">
        <ele>358.2</ele>
        <time>2023-05-28T06:52:56Z</time>
      </trkpt>
      <trkpt lat="45.7158" lon="5.31875">
        <ele>357.6</ele>
        <time>2023-05-28T06:52:57Z</time>
      </trkpt>
      <trkpt lat="45.7159" lon="5.3187">
        <ele>357.4</ele>
        <time>2023-05-28T06:52:58Z</time>
      </trkpt>
      <trkpt lat="45.71601" lon="5.31865">
        <ele>357.2</ele>
        <time>2023-05-28T06:52:59Z</time>
      </trkpt>
      <trkpt lat="45.71611" lon="5.3186">
        <ele>356.8</ele>
        <time>2023-05-28T06:53:00Z</time>
      </trkpt>
      <trkpt lat="45.71622" lon="5.31855">
        <ele>356.8</ele>
        <time>2023-05-28T06:53:01Z</time>
      </trkpt>
      <trkpt lat="45.71633" lon="5.31851">
        <ele>356</ele>
        <time>2023-05-28T06:53:02Z</time>
      </trkpt>
      <trkpt lat="45.71644" lon="5.31847">
        <ele>355.6</ele>
        <time>2023-05-28T06:53:03Z</time>
      </trkpt>
      <trkpt lat="45.71653" lon="5.31845">
        <ele>355.2</ele>
        <time>2023-05-28T06:53:04Z</time>
      </trkpt>
      <trkpt lat="45.71666" lon="5.31842">
        <ele>355</ele>
        <time>2023-05-28T06:53:05Z</time>
      </trkpt>
      <trkpt lat="45.71678" lon="5.3184">
        <ele>354.6</ele>
        <time>2023-05-28T06:53:06Z</time>
      </trkpt>
      <trkpt lat="45.71687" lon="5.31839">
        <ele>354</ele>
        <time>2023-05-28T06:53:07Z</time>
      </trkpt>
      <trkpt lat="45.71699" lon="5.31836">
        <ele>353.8</ele>
        <time>2023-05-28T06:53:08Z</time>
      </trkpt>
      <trkpt lat="45.71713" lon="5.31833">
        <ele>353.2</ele>
        <time>2023-05-28T06:53:09Z</time>
      </trkpt>
      <trkpt lat="45.71725" lon="5.31829">
        <ele>352.6</ele>
        <time>2023-05-28T06:53:10Z</time>
      </trkpt>
      <trkpt lat="45.71736" lon="5.31826">
        <ele>352</ele>
        <time>2023-05-28T06:53:11Z</time>
      </trkpt>
      <trkpt lat="45.71745" lon="5.31825">
        <ele>351.6</ele>
        <time>2023-05-28T06:53:12Z</time>
      </trkpt>
      <trkpt lat="45.71756" lon="5.31826">
        <ele>351.2</ele>
        <time>2023-05-28T06:53:13Z</time>
      </trkpt>
      <trkpt lat="45.71769" lon="5.31829">
        <ele>350.6</ele>
        <time>2023-05-28T06:53:14Z</time>
      </trkpt>
      <trkpt lat="45.71779" lon="5.31834">
        <ele>350.2</ele>
        <time>2023-05-28T06:53:15Z</time>
      </trkpt>
      <trkpt lat="45.71789" lon="5.31841">
        <ele>349.6</ele>
        <time>2023-05-28T06:53:16Z</time>
      </trkpt>
      <trkpt lat="45.71799" lon="5.31847">
        <ele>349.4</ele>
        <time>2023-05-28T06:53:17Z</time>
      </trkpt>
      <trkpt lat="45.71809" lon="5.31854">
        <ele>348.6</ele>
        <time>2023-05-28T06:53:18Z</time>
      </trkpt>
      <trkpt lat="45.71818" lon="5.31859">
        <ele>348.2</ele>
        <time>2023-05-28T06:53:19Z</time>
      </trkpt>
      <trkpt lat="45.71827" lon="5.31865">
        <ele>347.4</ele>
        <time>2023-05-28T06:53:20Z</time>
      </trkpt>
      <trkpt lat="45.71835" lon="5.3187">
        <ele>347</ele>
        <time>2023-05-28T06:53:21Z</time>
      </trkpt>
      <trkpt lat="45.71842" lon="5.31874">
        <ele>346.6</ele>
        <time>2023-05-28T06:53:22Z</time>
      </trkpt>
      <trkpt lat="45.71849" lon="5.31878">
        <ele>345.8</ele>
        <time>2023-05-28T06:53:23Z</time>
      </trkpt>
      <trkpt lat="45.71854" lon="5.31882">
        <ele>345.4</ele>
        <time>2023-05-28T06:53:24Z</time>
      </trkpt>
      <trkpt lat="45.71857" lon="5.31886">
        <ele>344.2</ele>
        <time>2023-05-28T06:53:25Z</time>
      </trkpt>
      <trkpt lat="45.7186" lon="5.3189">
        <ele>343.6</ele>
        <time>2023-05-28T06:53:26Z</time>
      </trkpt>
      <trkpt lat="45.71863" lon="5.31895">
        <ele>342.8</ele>
        <time>2023-05-28T06:53:27Z</time>
      </trkpt>
      <trkpt lat="45.71866" lon="5.31901">
        <ele>342.2</ele>
        <time>2023-05-28T06:53:28Z</time>
      </trkpt>
      <trkpt lat="45.71868" lon="5.31908">
        <ele>342</ele>
        <time>2023-05-28T06:53:29Z</time>
      </trkpt>
      <trkpt lat="45.7187" lon="5.31917">
        <ele>341.2</ele>
        <time>2023-05-28T06:53:30Z</time>
      </trkpt>
      <trkpt lat="45.71869" lon="5.31925">
        <ele>340.8</ele>
        <time>2023-05-28T06:53:31Z</time>
      </trkpt>
      <trkpt lat="45.71867" lon="5.31931">
        <ele>339.8</ele>
        <time>2023-05-28T06:53:32Z</time>
      </trkpt>
      <trkpt lat="45.71865" lon="5.31938">
        <ele>339.4</ele>
        <time>2023-05-28T06:53:33Z</time>
      </trkpt>
      <trkpt lat="45.71864" lon="5.31946">
        <ele>338.8</ele>
        <time>2023-05-28T06:53:34Z</time>
      </trkpt>
      <trkpt lat="45.71862" lon="5.31955">
        <ele>338.4</ele>
        <time>2023-05-28T06:53:35Z</time>
      </trkpt>
      <trkpt lat="45.7186" lon="5.31962">
        <ele>338.2</ele>
        <time>2023-05-28T06:53:36Z</time>
      </trkpt>
      <trkpt lat="45.71859" lon="5.31968">
        <ele>337.6</ele>
        <time>2023-05-28T06:53:37Z</time>
      </trkpt>
      <trkpt lat="45.71858" lon="5.31976">
        <ele>337.4</ele>
        <time>2023-05-28T06:53:38Z</time>
      </trkpt>
      <trkpt lat="45.71856" lon="5.31985">
        <ele>337</ele>
        <time>2023-05-28T06:53:39Z</time>
      </trkpt>
      <trkpt lat="45.71854" lon="5.31992">
        <ele>336.8</ele>
        <time>2023-05-28T06:53:40Z</time>
      </trkpt>
      <trkpt lat="45.71852" lon="5.31999">
        <ele>336.2</ele>
        <time>2023-05-28T06:53:41Z</time>
      </trkpt>
      <trkpt lat="45.71851" lon="5.32006">
        <ele>336</ele>
        <time>2023-05-28T06:53:42Z</time>
      </trkpt>
      <trkpt lat="45.71849" lon="5.32013">
        <ele>336</ele>
        <time>2023-05-28T06:53:43Z</time>
      </trkpt>
      <trkpt lat="45.71847" lon="5.32022">
        <ele>335.8</ele>
        <time>2023-05-28T06:53:44Z</time>
      </trkpt>
      <trkpt lat="45.71845" lon="5.3203">
        <ele>335.8</ele>
        <time>2023-05-28T06:53:45Z</time>
      </trkpt>
      <trkpt lat="45.71843" lon="5.32037">
        <ele>335.8</ele>
        <time>2023-05-28T06:53:46Z</time>
      </trkpt>
      <trkpt lat="45.71842" lon="5.32043">
        <ele>335.8</ele>
        <time>2023-05-28T06:53:47Z</time>
      </trkpt>
      <trkpt lat="45.7184" lon="5.3205">
        <ele>335.8</ele>
        <time>2023-05-28T06:53:48Z</time>
      </trkpt>
      <trkpt lat="45.71841" lon="5.32059">
        <ele>335.8</ele>
        <time>2023-05-28T06:53:49Z</time>
      </trkpt>
      <trkpt lat="45.71842" lon="5.32067">
        <ele>336</ele>
        <time>2023-05-28T06:53:50Z</time>
      </trkpt>
      <trkpt lat="45.71844" lon="5.32074">
        <ele>336</ele>
        <time>2023-05-28T06:53:51Z</time>
      </trkpt>
      <trkpt lat="45.71845" lon="5.3208">
        <ele>336.2</ele>
        <time>2023-05-28T06:53:52Z</time>
      </trkpt>
      <trkpt lat="45.71847" lon="5.32087">
        <ele>336.2</ele>
        <time>2023-05-28T06:53:53Z</time>
      </trkpt>
      <trkpt lat="45.71849" lon="5.32094">
        <ele>336.2</ele>
        <time>2023-05-28T06:53:54Z</time>
      </trkpt>
      <trkpt lat="45.71851" lon="5.32103">
        <ele>336.2</ele>
        <time>2023-05-28T06:53:55Z</time>
      </trkpt>
      <trkpt lat="45.71853" lon="5.3211">
        <ele>336.4</ele>
        <time>2023-05-28T06:53:56Z</time>
      </trkpt>
      <trkpt lat="45.71855" lon="5.32115">
        <ele>336.6</ele>
        <time>2023-05-28T06:53:57Z</time>
      </trkpt>
      <trkpt lat="45.71857" lon="5.32123">
        <ele>336.8</ele>
        <time>2023-05-28T06:53:58Z</time>
      </trkpt>
      <trkpt lat="45.71859" lon="5.3213">
        <ele>336.8</ele>
        <time>2023-05-28T06:53:59Z</time>
      </trkpt>
      <trkpt lat="45.7186" lon="5.32138">
        <ele>336.8</ele>
        <time>2023-05-28T06:54:00Z</time>
      </trkpt>
      <trkpt lat="45.7186" lon="5.32148">
        <ele>336.8</ele>
        <time>2023-05-28T06:54:01Z</time>
      </trkpt>
      <trkpt lat="45.71858" lon="5.32154">
        <ele>337</ele>
        <time>2023-05-28T06:54:02Z</time>
      </trkpt>
      <trkpt lat="45.71854" lon="5.32161">
        <ele>336.8</ele>
        <time>2023-05-28T06:54:03Z</time>
      </trkpt>
      <trkpt lat="45.7185" lon="5.32167">
        <ele>337</ele>
        <time>2023-05-28T06:54:04Z</time>
      </trkpt>
      <trkpt lat="45.71845" lon="5.32173">
        <ele>337</ele>
        <time>2023-05-28T06:54:05Z</time>
      </trkpt>
      <trkpt lat="45.7184" lon="5.32183">
        <ele>337</ele>
        <time>2023-05-28T06:54:06Z</time>
      </trkpt>
      <trkpt lat="45.71838" lon="5.32191">
        <ele>336.8</ele>
        <time>2023-05-28T06:54:07Z</time>
      </trkpt>
      <trkpt lat="45.71836" lon="5.32202">
        <ele>336.8</ele>
        <time>2023-05-28T06:54:08Z</time>
      </trkpt>
      <trkpt lat="45.71834" lon="5.32215">
        <ele>336.6</ele>
        <time>2023-05-28T06:54:09Z</time>
      </trkpt>
      <trkpt lat="45.71832" lon="5.32226">
        <ele>336.6</ele>
        <time>2023-05-28T06:54:10Z</time>
      </trkpt>
      <trkpt lat="45.71831" lon="5.32236">
        <ele>336.6</ele>
        <time>2023-05-28T06:54:11Z</time>
      </trkpt>
      <trkpt lat="45.7183" lon="5.32255">
        <ele>336.8</ele>
        <time>2023-05-28T06:54:13Z</time>
      </trkpt>
      <trkpt lat="45.7183" lon="5.32266">
        <ele>336.4</ele>
        <time>2023-05-28T06:54:14Z</time>
      </trkpt>
      <trkpt lat="45.71832" lon="5.32279">
        <ele>336.4</ele>
        <time>2023-05-28T06:54:15Z</time>
      </trkpt>
      <trkpt lat="45.71833" lon="5.3229">
        <ele>336.2</ele>
        <time>2023-05-28T06:54:16Z</time>
      </trkpt>
      <trkpt lat="45.71835" lon="5.32299">
        <ele>336.2</ele>
        <time>2023-05-28T06:54:17Z</time>
      </trkpt>
      <trkpt lat="45.71837" lon="5.32311">
        <ele>336</ele>
        <time>2023-05-28T06:54:18Z</time>
      </trkpt>
      <trkpt lat="45.71838" lon="5.32322">
        <ele>335.8</ele>
        <time>2023-05-28T06:54:19Z</time>
      </trkpt>
      <trkpt lat="45.7184" lon="5.32334">
        <ele>335.4</ele>
        <time>2023-05-28T06:54:20Z</time>
      </trkpt>
      <trkpt lat="45.71842" lon="5.32348">
        <ele>335.2</ele>
        <time>2023-05-28T06:54:21Z</time>
      </trkpt>
      <trkpt lat="45.71843" lon="5.32358">
        <ele>335.2</ele>
        <time>2023-05-28T06:54:22Z</time>
      </trkpt>
      <trkpt lat="45.71845" lon="5.3237">
        <ele>335</ele>
        <time>2023-05-28T06:54:23Z</time>
      </trkpt>
      <trkpt lat="45.71847" lon="5.32381">
        <ele>334.6</ele>
        <time>2023-05-28T06:54:24Z</time>
      </trkpt>
      <trkpt lat="45.7185" lon="5.32393">
        <ele>334.4</ele>
        <time>2023-05-28T06:54:25Z</time>
      </trkpt>
      <trkpt lat="45.71852" lon="5.32406">
        <ele>334</ele>
        <time>2023-05-28T06:54:26Z</time>
      </trkpt>
      <trkpt lat="45.71854" lon="5.32415">
        <ele>334</ele>
        <time>2023-05-28T06:54:27Z</time>
      </trkpt>
      <trkpt lat="45.71857" lon="5.32426">
        <ele>333.8</ele>
        <time>2023-05-28T06:54:28Z</time>
      </trkpt>
      <trkpt lat="45.71859" lon="5.32436">
        <ele>333.8</ele>
        <time>2023-05-28T06:54:29Z</time>
      </trkpt>
      <trkpt lat="45.71862" lon="5.32447">
        <ele>333.4</ele>
        <time>2023-05-28T06:54:30Z</time>
      </trkpt>
      <trkpt lat="45.71864" lon="5.32457">
        <ele>333.2</ele>
        <time>2023-05-28T06:54:31Z</time>
      </trkpt>
      <trkpt lat="45.71866" lon="5.32468">
        <ele>333.2</ele>
        <time>2023-05-28T06:54:32Z</time>
      </trkpt>
      <trkpt lat="45.71868" lon="5.32479">
        <ele>333</ele>
        <time>2023-05-28T06:54:33Z</time>
      </trkpt>
      <trkpt lat="45.71868" lon="5.3249">
        <ele>333</ele>
        <time>2023-05-28T06:54:34Z</time>
      </trkpt>
      <trkpt lat="45.71867" lon="5.325">
        <ele>332.8</ele>
        <time>2023-05-28T06:54:35Z</time>
      </trkpt>
      <trkpt lat="45.71864" lon="5.32511">
        <ele>332.8</ele>
        <time>2023-05-28T06:54:36Z</time>
      </trkpt>
      <trkpt lat="45.71861" lon="5.3252">
        <ele>332.6</ele>
        <time>2023-05-28T06:54:37Z</time>
      </trkpt>
      <trkpt lat="45.71856" lon="5.32529">
        <ele>332.6</ele>
        <time>2023-05-28T06:54:38Z</time>
      </trkpt>
      <trkpt lat="45.71849" lon="5.32535">
        <ele>332.6</ele>
        <time>2023-05-28T06:54:39Z</time>
      </trkpt>
      <trkpt lat="45.71843" lon="5.32541">
        <ele>332.4</ele>
        <time>2023-05-28T06:54:40Z</time>
      </trkpt>
      <trkpt lat="45.71836" lon="5.32547">
        <ele>332.4</ele>
        <time>2023-05-28T06:54:41Z</time>
      </trkpt>
      <trkpt lat="45.71829" lon="5.32553">
        <ele>332.2</ele>
        <time>2023-05-28T06:54:42Z</time>
      </trkpt>
      <trkpt lat="45.71822" lon="5.32559">
        <ele>332.2</ele>
        <time>2023-05-28T06:54:43Z</time>
      </trkpt>
      <trkpt lat="45.71816" lon="5.32566">
        <ele>332</ele>
        <time>2023-05-28T06:54:44Z</time>
      </trkpt>
      <trkpt lat="45.71809" lon="5.32572">
        <ele>332</ele>
        <time>2023-05-28T06:54:45Z</time>
      </trkpt>
      <trkpt lat="45.71803" lon="5.32579">
        <ele>331.8</ele>
        <time>2023-05-28T06:54:46Z</time>
      </trkpt>
      <trkpt lat="45.71798" lon="5.32587">
        <ele>331.8</ele>
        <time>2023-05-28T06:54:47Z</time>
      </trkpt>
      <trkpt lat="45.71792" lon="5.32595">
        <ele>331.8</ele>
        <time>2023-05-28T06:54:48Z</time>
      </trkpt>
      <trkpt lat="45.71787" lon="5.32604">
        <ele>331.8</ele>
        <time>2023-05-28T06:54:49Z</time>
      </trkpt>
      <trkpt lat="45.71782" lon="5.32612">
        <ele>331.4</ele>
        <time>2023-05-28T06:54:50Z</time>
      </trkpt>
      <trkpt lat="45.71778" lon="5.32622">
        <ele>331.2</ele>
        <time>2023-05-28T06:54:51Z</time>
      </trkpt>
      <trkpt lat="45.71775" lon="5.32631">
        <ele>331.2</ele>
        <time>2023-05-28T06:54:52Z</time>
      </trkpt>
      <trkpt lat="45.71771" lon="5.3264">
        <ele>331.4</ele>
        <time>2023-05-28T06:54:53Z</time>
      </trkpt>
      <trkpt lat="45.71768" lon="5.32649">
        <ele>331.2</ele>
        <time>2023-05-28T06:54:54Z</time>
      </trkpt>
      <trkpt lat="45.71764" lon="5.32658">
        <ele>331.2</ele>
        <time>2023-05-28T06:54:55Z</time>
      </trkpt>
      <trkpt lat="45.7176" lon="5.32669">
        <ele>331.2</ele>
        <time>2023-05-28T06:54:56Z</time>
      </trkpt>
      <trkpt lat="45.71756" lon="5.32677">
        <ele>331.4</ele>
        <time>2023-05-28T06:54:57Z</time>
      </trkpt>
      <trkpt lat="45.71753" lon="5.32684">
        <ele>331.4</ele>
        <time>2023-05-28T06:54:58Z</time>
      </trkpt>
      <trkpt lat="45.7175" lon="5.32693">
        <ele>331.2</ele>
        <time>2023-05-28T06:54:59Z</time>
      </trkpt>
      <trkpt lat="45.71746" lon="5.32703">
        <ele>331.2</ele>
        <time>2023-05-28T06:55:00Z</time>
      </trkpt>
      <trkpt lat="45.71743" lon="5.32712">
        <ele>331.4</ele>
        <time>2023-05-28T06:55:01Z</time>
      </trkpt>
      <trkpt lat="45.7174" lon="5.32721">
        <ele>331.4</ele>
        <time>2023-05-28T06:55:02Z</time>
      </trkpt>
      <trkpt lat="45.71738" lon="5.32729">
        <ele>331.6</ele>
        <time>2023-05-28T06:55:03Z</time>
      </trkpt>
      <trkpt lat="45.71737" lon="5.32739">
        <ele>331.6</ele>
        <time>2023-05-28T06:55:04Z</time>
      </trkpt>
      <trkpt lat="45.71735" lon="5.3275">
        <ele>331.8</ele>
        <time>2023-05-28T06:55:05Z</time>
      </trkpt>
      <trkpt lat="45.71734" lon="5.3276">
        <ele>331.8</ele>
        <time>2023-05-28T06:55:06Z</time>
      </trkpt>
      <trkpt lat="45.71734" lon="5.32769">
        <ele>331.8</ele>
        <time>2023-05-28T06:55:07Z</time>
      </trkpt>
      <trkpt lat="45.71734" lon="5.32779">
        <ele>331.8</ele>
        <time>2023-05-28T06:55:08Z</time>
      </trkpt>
      <trkpt lat="45.71734" lon="5.32789">
        <ele>331.8</ele>
        <time>2023-05-28T06:55:09Z</time>
      </trkpt>
      <trkpt lat="45.71735" lon="5.32799">
        <ele>331.8</ele>
        <time>2023-05-28T06:55:10Z</time>
      </trkpt>
      <trkpt lat="45.71735" lon="5.3281">
        <ele>332</ele>
        <time>2023-05-28T06:55:11Z</time>
      </trkpt>
      <trkpt lat="45.71736" lon="5.3282">
        <ele>332</ele>
        <time>2023-05-28T06:55:12Z</time>
      </trkpt>
      <trkpt lat="45.71735" lon="5.3283">
        <ele>332</ele>
        <time>2023-05-28T06:55:13Z</time>
      </trkpt>
      <trkpt lat="45.71734" lon="5.3284">
        <ele>332</ele>
        <time>2023-05-28T06:55:14Z</time>
      </trkpt>
      <trkpt lat="45.71732" lon="5.3285">
        <ele>332</ele>
        <time>2023-05-28T06:55:15Z</time>
      </trkpt>
      <trkpt lat="45.71728" lon="5.3286">
        <ele>332</ele>
        <time>2023-05-28T06:55:16Z</time>
      </trkpt>
      <trkpt lat="45.71723" lon="5.32868">
        <ele>332</ele>
        <time>2023-05-28T06:55:17Z</time>
      </trkpt>
      <trkpt lat="45.71719" lon="5.32874">
        <ele>332</ele>
        <time>2023-05-28T06:55:18Z</time>
      </trkpt>
      <trkpt lat="45.71714" lon="5.32881">
        <ele>332.2</ele>
        <time>2023-05-28T06:55:19Z</time>
      </trkpt>
      <trkpt lat="45.71709" lon="5.32887">
        <ele>332.4</ele>
        <time>2023-05-28T06:55:20Z</time>
      </trkpt>
      <trkpt lat="45.71703" lon="5.32895">
        <ele>332.4</ele>
        <time>2023-05-28T06:55:21Z</time>
      </trkpt>
      <trkpt lat="45.71697" lon="5.32902">
        <ele>332.4</ele>
        <time>2023-05-28T06:55:22Z</time>
      </trkpt>
      <trkpt lat="45.71692" lon="5.32909">
        <ele>332.4</ele>
        <time>2023-05-28T06:55:23Z</time>
      </trkpt>
      <trkpt lat="45.71687" lon="5.32914">
        <ele>332.4</ele>
        <time>2023-05-28T06:55:24Z</time>
      </trkpt>
      <trkpt lat="45.71681" lon="5.32921">
        <ele>332.6</ele>
        <time>2023-05-28T06:55:25Z</time>
      </trkpt>
      <trkpt lat="45.71674" lon="5.3293">
        <ele>332.6</ele>
        <time>2023-05-28T06:55:26Z</time>
      </trkpt>
      <trkpt lat="45.71669" lon="5.32937">
        <ele>332.4</ele>
        <time>2023-05-28T06:55:27Z</time>
      </trkpt>
      <trkpt lat="45.71663" lon="5.32945">
        <ele>332.4</ele>
        <time>2023-05-28T06:55:28Z</time>
      </trkpt>
      <trkpt lat="45.71656" lon="5.32953">
        <ele>332.4</ele>
        <time>2023-05-28T06:55:29Z</time>
      </trkpt>
      <trkpt lat="45.7165" lon="5.32962">
        <ele>332.4</ele>
        <time>2023-05-28T06:55:30Z</time>
      </trkpt>
      <trkpt lat="45.71643" lon="5.3297">
        <ele>332.2</ele>
        <time>2023-05-28T06:55:31Z</time>
      </trkpt>
      <trkpt lat="45.71637" lon="5.3298">
        <ele>332</ele>
        <time>2023-05-28T06:55:32Z</time>
      </trkpt>
      <trkpt lat="45.71631" lon="5.32989">
        <ele>331.8</ele>
        <time>2023-05-28T06:55:33Z</time>
      </trkpt>
      <trkpt lat="45.71624" lon="5.32998">
        <ele>331.4</ele>
        <time>2023-05-28T06:55:34Z</time>
      </trkpt>
      <trkpt lat="45.71618" lon="5.33008">
        <ele>331.2</ele>
        <time>2023-05-28T06:55:35Z</time>
      </trkpt>
      <trkpt lat="45.71612" lon="5.33017">
        <ele>331.2</ele>
        <time>2023-05-28T06:55:36Z</time>
      </trkpt>
      <trkpt lat="45.71606" lon="5.33026">
        <ele>331</ele>
        <time>2023-05-28T06:55:37Z</time>
      </trkpt>
      <trkpt lat="45.71599" lon="5.33034">
        <ele>330.8</ele>
        <time>2023-05-28T06:55:38Z</time>
      </trkpt>
      <trkpt lat="45.71592" lon="5.33042">
        <ele>330.8</ele>
        <time>2023-05-28T06:55:39Z</time>
      </trkpt>
      <trkpt lat="45.71584" lon="5.3305">
        <ele>330.6</ele>
        <time>2023-05-28T06:55:40Z</time>
      </trkpt>
      <trkpt lat="45.71576" lon="5.33057">
        <ele>330.4</ele>
        <time>2023-05-28T06:55:41Z</time>
      </trkpt>
      <trkpt lat="45.71568" lon="5.33064">
        <ele>330.2</ele>
        <time>2023-05-28T06:55:42Z</time>
      </trkpt>
      <trkpt lat="45.7156" lon="5.3307">
        <ele>330</ele>
        <time>2023-05-28T06:55:43Z</time>
      </trkpt>
      <trkpt lat="45.71552" lon="5.33077">
        <ele>330</ele>
        <time>2023-05-28T06:55:44Z</time>
      </trkpt>
      <trkpt lat="45.71544" lon="5.33085">
        <ele>329.8</ele>
        <time>2023-05-28T06:55:45Z</time>
      </trkpt>
      <trkpt lat="45.71537" lon="5.33094">
        <ele>329.6</ele>
        <time>2023-05-28T06:55:46Z</time>
      </trkpt>
      <trkpt lat="45.71531" lon="5.33104">
        <ele>329.4</ele>
        <time>2023-05-28T06:55:47Z</time>
      </trkpt>
      <trkpt lat="45.71525" lon="5.33115">
        <ele>329</ele>
        <time>2023-05-28T06:55:48Z</time>
      </trkpt>
      <trkpt lat="45.71521" lon="5.33128">
        <ele>329</ele>
        <time>2023-05-28T06:55:49Z</time>
      </trkpt>
      <trkpt lat="45.71517" lon="5.33141">
        <ele>328.8</ele>
        <time>2023-05-28T06:55:50Z</time>
      </trkpt>
      <trkpt lat="45.71514" lon="5.33156">
        <ele>328.6</ele>
        <time>2023-05-28T06:55:51Z</time>
      </trkpt>
      <trkpt lat="45.7151" lon="5.33171">
        <ele>328.2</ele>
        <time>2023-05-28T06:55:52Z</time>
      </trkpt>
      <trkpt lat="45.71506" lon="5.33185">
        <ele>328</ele>
        <time>2023-05-28T06:55:53Z</time>
      </trkpt>
      <trkpt lat="45.71501" lon="5.332">
        <ele>327.8</ele>
        <time>2023-05-28T06:55:54Z</time>
      </trkpt>
      <trkpt lat="45.71495" lon="5.33214">
        <ele>327.4</ele>
        <time>2023-05-28T06:55:55Z</time>
      </trkpt>
      <trkpt lat="45.71488" lon="5.33226">
        <ele>327.2</ele>
        <time>2023-05-28T06:55:56Z</time>
      </trkpt>
      <trkpt lat="45.71479" lon="5.33238">
        <ele>326.6</ele>
        <time>2023-05-28T06:55:57Z</time>
      </trkpt>
      <trkpt lat="45.71471" lon="5.33249">
        <ele>326.4</ele>
        <time>2023-05-28T06:55:58Z</time>
      </trkpt>
      <trkpt lat="45.71462" lon="5.33262">
        <ele>326</ele>
        <time>2023-05-28T06:55:59Z</time>
      </trkpt>
      <trkpt lat="45.71455" lon="5.33275">
        <ele>325.8</ele>
        <time>2023-05-28T06:56:00Z</time>
      </trkpt>
      <trkpt lat="45.71451" lon="5.33291">
        <ele>325.4</ele>
        <time>2023-05-28T06:56:01Z</time>
      </trkpt>
      <trkpt lat="45.71448" lon="5.33308">
        <ele>324.6</ele>
        <time>2023-05-28T06:56:02Z</time>
      </trkpt>
      <trkpt lat="45.71446" lon="5.33325">
        <ele>324.2</ele>
        <time>2023-05-28T06:56:03Z</time>
      </trkpt>
      <trkpt lat="45.71445" lon="5.33342">
        <ele>323.8</ele>
        <time>2023-05-28T06:56:04Z</time>
      </trkpt>
      <trkpt lat="45.71443" lon="5.33358">
        <ele>323.6</ele>
        <time>2023-05-28T06:56:05Z</time>
      </trkpt>
      <trkpt lat="45.71443" lon="5.33374">
        <ele>323</ele>
        <time>2023-05-28T06:56:06Z</time>
      </trkpt>
      <trkpt lat="45.71443" lon="5.33389">
        <ele>322.6</ele>
        <time>2023-05-28T06:56:07Z</time>
      </trkpt>
      <trkpt lat="45.71443" lon="5.33403">
        <ele>322.2</ele>
        <time>2023-05-28T06:56:08Z</time>
      </trkpt>
      <trkpt lat="45.71443" lon="5.33417">
        <ele>322</ele>
        <time>2023-05-28T06:56:09Z</time>
      </trkpt>
      <trkpt lat="45.71444" lon="5.33431">
        <ele>321.8</ele>
        <time>2023-05-28T06:56:10Z</time>
      </trkpt>
      <trkpt lat="45.71445" lon="5.33443">
        <ele>321.6</ele>
        <time>2023-05-28T06:56:11Z</time>
      </trkpt>
      <trkpt lat="45.71446" lon="5.33455">
        <ele>321.6</ele>
        <time>2023-05-28T06:56:12Z</time>
      </trkpt>
      <trkpt lat="45.71445" lon="5.33466">
        <ele>321.2</ele>
        <time>2023-05-28T06:56:13Z</time>
      </trkpt>
      <trkpt lat="45.71444" lon="5.33477">
        <ele>321.2</ele>
        <time>2023-05-28T06:56:14Z</time>
      </trkpt>
      <trkpt lat="45.71443" lon="5.33487">
        <ele>321</ele>
        <time>2023-05-28T06:56:15Z</time>
      </trkpt>
      <trkpt lat="45.71441" lon="5.33497">
        <ele>320.8</ele>
        <time>2023-05-28T06:56:16Z</time>
      </trkpt>
      <trkpt lat="45.71439" lon="5.33506">
        <ele>320.6</ele>
        <time>2023-05-28T06:56:17Z</time>
      </trkpt>
      <trkpt lat="45.71437" lon="5.33516">
        <ele>320.4</ele>
        <time>2023-05-28T06:56:18Z</time>
      </trkpt>
      <trkpt lat="45.71435" lon="5.33525">
        <ele>320.4</ele>
        <time>2023-05-28T06:56:19Z</time>
      </trkpt>
      <trkpt lat="45.71433" lon="5.33534">
        <ele>320.4</ele>
        <time>2023-05-28T06:56:20Z</time>
      </trkpt>
      <trkpt lat="45.71431" lon="5.33543">
        <ele>320.6</ele>
        <time>2023-05-28T06:56:21Z</time>
      </trkpt>
      <trkpt lat="45.71429" lon="5.33553">
        <ele>320.2</ele>
        <time>2023-05-28T06:56:22Z</time>
      </trkpt>
      <trkpt lat="45.71427" lon="5.33563">
        <ele>320.2</ele>
        <time>2023-05-28T06:56:23Z</time>
      </trkpt>
      <trkpt lat="45.71426" lon="5.33573">
        <ele>320.2</ele>
        <time>2023-05-28T06:56:24Z</time>
      </trkpt>
      <trkpt lat="45.71423" lon="5.33584">
        <ele>320.2</ele>
        <time>2023-05-28T06:56:25Z</time>
      </trkpt>
      <trkpt lat="45.71422" lon="5.33594">
        <ele>320</ele>
        <time>2023-05-28T06:56:26Z</time>
      </trkpt>
      <trkpt lat="45.71419" lon="5.33605">
        <ele>320</ele>
        <time>2023-05-28T06:56:27Z</time>
      </trkpt>
      <trkpt lat="45.71416" lon="5.33617">
        <ele>319.8</ele>
        <time>2023-05-28T06:56:28Z</time>
      </trkpt>
      <trkpt lat="45.71414" lon="5.33628">
        <ele>319.8</ele>
        <time>2023-05-28T06:56:29Z</time>
      </trkpt>
      <trkpt lat="45.7141" lon="5.33639">
        <ele>319.6</ele>
        <time>2023-05-28T06:56:30Z</time>
      </trkpt>
      <trkpt lat="45.71407" lon="5.3365">
        <ele>319.4</ele>
        <time>2023-05-28T06:56:31Z</time>
      </trkpt>
      <trkpt lat="45.71402" lon="5.33661">
        <ele>319.2</ele>
        <time>2023-05-28T06:56:32Z</time>
      </trkpt>
      <trkpt lat="45.71396" lon="5.33671">
        <ele>319</ele>
        <time>2023-05-28T06:56:33Z</time>
      </trkpt>
      <trkpt lat="45.7139" lon="5.3368">
        <ele>318.6</ele>
        <time>2023-05-28T06:56:34Z</time>
      </trkpt>
      <trkpt lat="45.71383" lon="5.33689">
        <ele>318.4</ele>
        <time>2023-05-28T06:56:35Z</time>
      </trkpt>
      <trkpt lat="45.71376" lon="5.33697">
        <ele>318.2</ele>
        <time>2023-05-28T06:56:36Z</time>
      </trkpt>
      <trkpt lat="45.71369" lon="5.33705">
        <ele>318</ele>
        <time>2023-05-28T06:56:37Z</time>
      </trkpt>
      <trkpt lat="45.71362" lon="5.33713">
        <ele>317.8</ele>
        <time>2023-05-28T06:56:38Z</time>
      </trkpt>
      <trkpt lat="45.71355" lon="5.3372">
        <ele>317.6</ele>
        <time>2023-05-28T06:56:39Z</time>
      </trkpt>
      <trkpt lat="45.71348" lon="5.33728">
        <ele>317.6</ele>
        <time>2023-05-28T06:56:40Z</time>
      </trkpt>
      <trkpt lat="45.71342" lon="5.33735">
        <ele>317.4</ele>
        <time>2023-05-28T06:56:41Z</time>
      </trkpt>
      <trkpt lat="45.71335" lon="5.33742">
        <ele>317.4</ele>
        <time>2023-05-28T06:56:42Z</time>
      </trkpt>
      <trkpt lat="45.71328" lon="5.3375">
        <ele>317</ele>
        <time>2023-05-28T06:56:43Z</time>
      </trkpt>
      <trkpt lat="45.71322" lon="5.33757">
        <ele>317</ele>
        <time>2023-05-28T06:56:44Z</time>
      </trkpt>
      <trkpt lat="45.71316" lon="5.33764">
        <ele>316.4</ele>
        <time>2023-05-28T06:56:45Z</time>
      </trkpt>
      <trkpt lat="45.7131" lon="5.33771">
        <ele>316</ele>
        <time>2023-05-28T06:56:46Z</time>
      </trkpt>
      <trkpt lat="45.71304" lon="5.33778">
        <ele>315.6</ele>
        <time>2023-05-28T06:56:47Z</time>
      </trkpt>
      <trkpt lat="45.71297" lon="5.33785">
        <ele>315.2</ele>
        <time>2023-05-28T06:56:48Z</time>
      </trkpt>
      <trkpt lat="45.71291" lon="5.33792">
        <ele>315</ele>
        <time>2023-05-28T06:56:49Z</time>
      </trkpt>
      <trkpt lat="45.71285" lon="5.33799">
        <ele>314.8</ele>
        <time>2023-05-28T06:56:50Z</time>
      </trkpt>
      <trkpt lat="45.71279" lon="5.33806">
        <ele>314.6</ele>
        <time>2023-05-28T06:56:51Z</time>
      </trkpt>
      <trkpt lat="45.71273" lon="5.33813">
        <ele>314.4</ele>
        <time>2023-05-28T06:56:52Z</time>
      </trkpt>
      <trkpt lat="45.71266" lon="5.3382">
        <ele>314.2</ele>
        <time>2023-05-28T06:56:53Z</time>
      </trkpt>
      <trkpt lat="45.7126" lon="5.33827">
        <ele>314</ele>
        <time>2023-05-28T06:56:54Z</time>
      </trkpt>
      <trkpt lat="45.71254" lon="5.33834">
        <ele>313.6</ele>
        <time>2023-05-28T06:56:55Z</time>
      </trkpt>
      <trkpt lat="45.71248" lon="5.33841">
        <ele>313.4</ele>
        <time>2023-05-28T06:56:56Z</time>
      </trkpt>
      <trkpt lat="45.71241" lon="5.33848">
        <ele>313.2</ele>
        <time>2023-05-28T06:56:57Z</time>
      </trkpt>
      <trkpt lat="45.71235" lon="5.33855">
        <ele>313</ele>
        <time>2023-05-28T06:56:58Z</time>
      </trkpt>
      <trkpt lat="45.71229" lon="5.33862">
        <ele>313</ele>
        <time>2023-05-28T06:56:59Z</time>
      </trkpt>
      <trkpt lat="45.71222" lon="5.33869">
        <ele>313</ele>
        <time>2023-05-28T06:57:00Z</time>
      </trkpt>
      <trkpt lat="45.71216" lon="5.33875">
        <ele>313</ele>
        <time>2023-05-28T06:57:01Z</time>
      </trkpt>
      <trkpt lat="45.7121" lon="5.33882">
        <ele>312.8</ele>
        <time>2023-05-28T06:57:02Z</time>
      </trkpt>
      <trkpt lat="45.71204" lon="5.33889">
        <ele>312.8</ele>
        <time>2023-05-28T06:57:03Z</time>
      </trkpt>
      <trkpt lat="45.71198" lon="5.33895">
        <ele>312.8</ele>
        <time>2023-05-28T06:57:04Z</time>
      </trkpt>
      <trkpt lat="45.71192" lon="5.33902">
        <ele>312.8</ele>
        <time>2023-05-28T06:57:05Z</time>
      </trkpt>
      <trkpt lat="45.71185" lon="5.33909">
        <ele>312.8</ele>
        <time>2023-05-28T06:57:06Z</time>
      </trkpt>
      <trkpt lat="45.71179" lon="5.33917">
        <ele>312.6</ele>
        <time>2023-05-28T06:57:07Z</time>
      </trkpt>
      <trkpt lat="45.71173" lon="5.33925">
        <ele>312.4</ele>
        <time>2023-05-28T06:57:08Z</time>
      </trkpt>
      <trkpt lat="45.71167" lon="5.33933">
        <ele>312.4</ele>
        <time>2023-05-28T06:57:09Z</time>
      </trkpt>
      <trkpt lat="45.71161" lon="5.33941">
        <ele>312.2</ele>
        <time>2023-05-28T06:57:10Z</time>
      </trkpt>
      <trkpt lat="45.71156" lon="5.3395">
        <ele>311.8</ele>
        <time>2023-05-28T06:57:11Z</time>
      </trkpt>
      <trkpt lat="45.7115" lon="5.3396">
        <ele>312</ele>
        <time>2023-05-28T06:57:12Z</time>
      </trkpt>
      <trkpt lat="45.71146" lon="5.3397">
        <ele>311.8</ele>
        <time>2023-05-28T06:57:13Z</time>
      </trkpt>
      <trkpt lat="45.71142" lon="5.33981">
        <ele>311.4</ele>
        <time>2023-05-28T06:57:14Z</time>
      </trkpt>
      <trkpt lat="45.71139" lon="5.33992">
        <ele>311.6</ele>
        <time>2023-05-28T06:57:15Z</time>
      </trkpt>
      <trkpt lat="45.71136" lon="5.34003">
        <ele>311.4</ele>
        <time>2023-05-28T06:57:16Z</time>
      </trkpt>
      <trkpt lat="45.71135" lon="5.34014">
        <ele>311.4</ele>
        <time>2023-05-28T06:57:17Z</time>
      </trkpt>
      <trkpt lat="45.71133" lon="5.34026">
        <ele>311.2</ele>
        <time>2023-05-28T06:57:18Z</time>
      </trkpt>
      <trkpt lat="45.71132" lon="5.34038">
        <ele>311.2</ele>
        <time>2023-05-28T06:57:19Z</time>
      </trkpt>
      <trkpt lat="45.7113" lon="5.34049">
        <ele>311.2</ele>
        <time>2023-05-28T06:57:20Z</time>
      </trkpt>
      <trkpt lat="45.71128" lon="5.3406">
        <ele>311.2</ele>
        <time>2023-05-28T06:57:21Z</time>
      </trkpt>
      <trkpt lat="45.71126" lon="5.34072">
        <ele>311.2</ele>
        <time>2023-05-28T06:57:22Z</time>
      </trkpt>
      <trkpt lat="45.71124" lon="5.34083">
        <ele>311.2</ele>
        <time>2023-05-28T06:57:23Z</time>
      </trkpt>
      <trkpt lat="45.71123" lon="5.34094">
        <ele>311.2</ele>
        <time>2023-05-28T06:57:24Z</time>
      </trkpt>
      <trkpt lat="45.71121" lon="5.34105">
        <ele>311.2</ele>
        <time>2023-05-28T06:57:25Z</time>
      </trkpt>
      <trkpt lat="45.7112" lon="5.34116">
        <ele>311.2</ele>
        <time>2023-05-28T06:57:26Z</time>
      </trkpt>
      <trkpt lat="45.71118" lon="5.34127">
        <ele>311.2</ele>
        <time>2023-05-28T06:57:27Z</time>
      </trkpt>
      <trkpt lat="45.71117" lon="5.34138">
        <ele>311.4</ele>
        <time>2023-05-28T06:57:28Z</time>
      </trkpt>
      <trkpt lat="45.71115" lon="5.34148">
        <ele>311.4</ele>
        <time>2023-05-28T06:57:29Z</time>
      </trkpt>
      <trkpt lat="45.71114" lon="5.34159">
        <ele>311.4</ele>
        <time>2023-05-28T06:57:30Z</time>
      </trkpt>
      <trkpt lat="45.71113" lon="5.3417">
        <ele>311.4</ele>
        <time>2023-05-28T06:57:31Z</time>
      </trkpt>
      <trkpt lat="45.71111" lon="5.34179">
        <ele>311.4</ele>
        <time>2023-05-28T06:57:32Z</time>
      </trkpt>
      <trkpt lat="45.7111" lon="5.34189">
        <ele>311.4</ele>
        <time>2023-05-28T06:57:33Z</time>
      </trkpt>
      <trkpt lat="45.71109" lon="5.34198">
        <ele>311.6</ele>
        <time>2023-05-28T06:57:34Z</time>
      </trkpt>
      <trkpt lat="45.71108" lon="5.34206">
        <ele>311.6</ele>
        <time>2023-05-28T06:57:35Z</time>
      </trkpt>
      <trkpt lat="45.71108" lon="5.34215">
        <ele>311.6</ele>
        <time>2023-05-28T06:57:36Z</time>
      </trkpt>
      <trkpt lat="45.71107" lon="5.34224">
        <ele>311.8</ele>
        <time>2023-05-28T06:57:37Z</time>
      </trkpt>
      <trkpt lat="45.71107" lon="5.34233">
        <ele>312</ele>
        <time>2023-05-28T06:57:38Z</time>
      </trkpt>
      <trkpt lat="45.71107" lon="5.34242">
        <ele>312</ele>
        <time>2023-05-28T06:57:39Z</time>
      </trkpt>
      <trkpt lat="45.71107" lon="5.34251">
        <ele>312</ele>
        <time>2023-05-28T06:57:40Z</time>
      </trkpt>
      <trkpt lat="45.71107" lon="5.3426">
        <ele>312.4</ele>
        <time>2023-05-28T06:57:41Z</time>
      </trkpt>
      <trkpt lat="45.71107" lon="5.34269">
        <ele>312.6</ele>
        <time>2023-05-28T06:57:42Z</time>
      </trkpt>
      <trkpt lat="45.71107" lon="5.34277">
        <ele>312.6</ele>
        <time>2023-05-28T06:57:43Z</time>
      </trkpt>
      <trkpt lat="45.71107" lon="5.34286">
        <ele>312.8</ele>
        <time>2023-05-28T06:57:44Z</time>
      </trkpt>
      <trkpt lat="45.71107" lon="5.34295">
        <ele>312.8</ele>
        <time>2023-05-28T06:57:45Z</time>
      </trkpt>
      <trkpt lat="45.71106" lon="5.34304">
        <ele>312.8</ele>
        <time>2023-05-28T06:57:46Z</time>
      </trkpt>
      <trkpt lat="45.71105" lon="5.34313">
        <ele>312.8</ele>
        <time>2023-05-28T06:57:47Z</time>
      </trkpt>
      <trkpt lat="45.71104" lon="5.34322">
        <ele>313.2</ele>
        <time>2023-05-28T06:57:48Z</time>
      </trkpt>
      <trkpt lat="45.71104" lon="5.34331">
        <ele>313.2</ele>
        <time>2023-05-28T06:57:49Z</time>
      </trkpt>
      <trkpt lat="45.71102" lon="5.3434">
        <ele>313.4</ele>
        <time>2023-05-28T06:57:50Z</time>
      </trkpt>
      <trkpt lat="45.71101" lon="5.34349">
        <ele>313.6</ele>
        <time>2023-05-28T06:57:51Z</time>
      </trkpt>
      <trkpt lat="45.711" lon="5.34358">
        <ele>313.6</ele>
        <time>2023-05-28T06:57:52Z</time>
      </trkpt>
      <trkpt lat="45.71098" lon="5.34367">
        <ele>313.8</ele>
        <time>2023-05-28T06:57:53Z</time>
      </trkpt>
      <trkpt lat="45.71096" lon="5.34375">
        <ele>313.8</ele>
        <time>2023-05-28T06:57:54Z</time>
      </trkpt>
      <trkpt lat="45.71094" lon="5.34383">
        <ele>314</ele>
        <time>2023-05-28T06:57:55Z</time>
      </trkpt>
      <trkpt lat="45.71093" lon="5.34392">
        <ele>314.2</ele>
        <time>2023-05-28T06:57:56Z</time>
      </trkpt>
      <trkpt lat="45.71091" lon="5.344">
        <ele>314.2</ele>
        <time>2023-05-28T06:57:57Z</time>
      </trkpt>
      <trkpt lat="45.71089" lon="5.34408">
        <ele>314.4</ele>
        <time>2023-05-28T06:57:58Z</time>
      </trkpt>
      <trkpt lat="45.71087" lon="5.34416">
        <ele>314.6</ele>
        <time>2023-05-28T06:57:59Z</time>
      </trkpt>
      <trkpt lat="45.71085" lon="5.34424">
        <ele>314.6</ele>
        <time>2023-05-28T06:58:00Z</time>
      </trkpt>
      <trkpt lat="45.71085" lon="5.34424">
        <ele>314.8</ele>
        <time>2023-05-28T06:58:01Z</time>
      </trkpt>
      <trkpt lat="45.71081" lon="5.3444">
        <ele>315.2</ele>
        <time>2023-05-28T06:58:02Z</time>
      </trkpt>
      <trkpt lat="45.71079" lon="5.34448">
        <ele>315.4</ele>
        <time>2023-05-28T06:58:03Z</time>
      </trkpt>
      <trkpt lat="45.71077" lon="5.34456">
        <ele>315.6</ele>
        <time>2023-05-28T06:58:04Z</time>
      </trkpt>
      <trkpt lat="45.71075" lon="5.34464">
        <ele>315.6</ele>
        <time>2023-05-28T06:58:05Z</time>
      </trkpt>
      <trkpt lat="45.71073" lon="5.34472">
        <ele>315.8</ele>
        <time>2023-05-28T06:58:06Z</time>
      </trkpt>
      <trkpt lat="45.71071" lon="5.3448">
        <ele>316</ele>
        <time>2023-05-28T06:58:07Z</time>
      </trkpt>
      <trkpt lat="45.7107" lon="5.34488">
        <ele>316.4</ele>
        <time>2023-05-28T06:58:08Z</time>
      </trkpt>
      <trkpt lat="45.71068" lon="5.34497">
        <ele>316.8</ele>
        <time>2023-05-28T06:58:09Z</time>
      </trkpt>
      <trkpt lat="45.71066" lon="5.34505">
        <ele>317.2</ele>
        <time>2023-05-28T06:58:10Z</time>
      </trkpt>
      <trkpt lat="45.71064" lon="5.34515">
        <ele>317.4</ele>
        <time>2023-05-28T06:58:11Z</time>
      </trkpt>
      <trkpt lat="45.71063" lon="5.34524">
        <ele>317.4</ele>
        <time>2023-05-28T06:58:12Z</time>
      </trkpt>
      <trkpt lat="45.71063" lon="5.34534">
        <ele>317.4</ele>
        <time>2023-05-28T06:58:13Z</time>
      </trkpt>
      <trkpt lat="45.71062" lon="5.34544">
        <ele>317.8</ele>
        <time>2023-05-28T06:58:14Z</time>
      </trkpt>
      <trkpt lat="45.71062" lon="5.34554">
        <ele>317.8</ele>
        <time>2023-05-28T06:58:15Z</time>
      </trkpt>
      <trkpt lat="45.71063" lon="5.34563">
        <ele>317.8</ele>
        <time>2023-05-28T06:58:16Z</time>
      </trkpt>
      <trkpt lat="45.71063" lon="5.34573">
        <ele>317.8</ele>
        <time>2023-05-28T06:58:17Z</time>
      </trkpt>
      <trkpt lat="45.71064" lon="5.34583">
        <ele>318</ele>
        <time>2023-05-28T06:58:18Z</time>
      </trkpt>
      <trkpt lat="45.71064" lon="5.34593">
        <ele>318</ele>
        <time>2023-05-28T06:58:19Z</time>
      </trkpt>
      <trkpt lat="45.71064" lon="5.34602">
        <ele>318</ele>
        <time>2023-05-28T06:58:20Z</time>
      </trkpt>
      <trkpt lat="45.71064" lon="5.34611">
        <ele>318</ele>
        <time>2023-05-28T06:58:21Z</time>
      </trkpt>
      <trkpt lat="45.71064" lon="5.34621">
        <ele>318</ele>
        <time>2023-05-28T06:58:22Z</time>
      </trkpt>
      <trkpt lat="45.71063" lon="5.34631">
        <ele>318</ele>
        <time>2023-05-28T06:58:23Z</time>
      </trkpt>
      <trkpt lat="45.71062" lon="5.3464">
        <ele>318.2</ele>
        <time>2023-05-28T06:58:24Z</time>
      </trkpt>
      <trkpt lat="45.7106" lon="5.3465">
        <ele>318.2</ele>
        <time>2023-05-28T06:58:25Z</time>
      </trkpt>
      <trkpt lat="45.71059" lon="5.34659">
        <ele>318.2</ele>
        <time>2023-05-28T06:58:26Z</time>
      </trkpt>
      <trkpt lat="45.71057" lon="5.34668">
        <ele>318.4</ele>
        <time>2023-05-28T06:58:27Z</time>
      </trkpt>
      <trkpt lat="45.71054" lon="5.34677">
        <ele>318.4</ele>
        <time>2023-05-28T06:58:28Z</time>
      </trkpt>
      <trkpt lat="45.71052" lon="5.34686">
        <ele>318.4</ele>
        <time>2023-05-28T06:58:29Z</time>
      </trkpt>
      <trkpt lat="45.7105" lon="5.34695">
        <ele>318.4</ele>
        <time>2023-05-28T06:58:30Z</time>
      </trkpt>
      <trkpt lat="45.71048" lon="5.34704">
        <ele>318.4</ele>
        <time>2023-05-28T06:58:31Z</time>
      </trkpt>
      <trkpt lat="45.71046" lon="5.34713">
        <ele>318.6</ele>
        <time>2023-05-28T06:58:32Z</time>
      </trkpt>
      <trkpt lat="45.71044" lon="5.34722">
        <ele>318.8</ele>
        <time>2023-05-28T06:58:33Z</time>
      </trkpt>
      <trkpt lat="45.71042" lon="5.34731">
        <ele>318.8</ele>
        <time>2023-05-28T06:58:34Z</time>
      </trkpt>
      <trkpt lat="45.7104" lon="5.3474">
        <ele>318.8</ele>
        <time>2023-05-28T06:58:35Z</time>
      </trkpt>
      <trkpt lat="45.71038" lon="5.34749">
        <ele>318.8</ele>
        <time>2023-05-28T06:58:36Z</time>
      </trkpt>
      <trkpt lat="45.71037" lon="5.34758">
        <ele>318.8</ele>
        <time>2023-05-28T06:58:37Z</time>
      </trkpt>
      <trkpt lat="45.71035" lon="5.34767">
        <ele>318.8</ele>
        <time>2023-05-28T06:58:38Z</time>
      </trkpt>
      <trkpt lat="45.71033" lon="5.34777">
        <ele>318.8</ele>
        <time>2023-05-28T06:58:39Z</time>
      </trkpt>
      <trkpt lat="45.71032" lon="5.34786">
        <ele>318.8</ele>
        <time>2023-05-28T06:58:40Z</time>
      </trkpt>
      <trkpt lat="45.71031" lon="5.34795">
        <ele>318.8</ele>
        <time>2023-05-28T06:58:41Z</time>
      </trkpt>
      <trkpt lat="45.7103" lon="5.34804">
        <ele>318.8</ele>
        <time>2023-05-28T06:58:42Z</time>
      </trkpt>
      <trkpt lat="45.71029" lon="5.34814">
        <ele>318.8</ele>
        <time>2023-05-28T06:58:43Z</time>
      </trkpt>
      <trkpt lat="45.71029" lon="5.34823">
        <ele>318.8</ele>
        <time>2023-05-28T06:58:44Z</time>
      </trkpt>
      <trkpt lat="45.71028" lon="5.34832">
        <ele>318.8</ele>
        <time>2023-05-28T06:58:45Z</time>
      </trkpt>
      <trkpt lat="45.71028" lon="5.34841">
        <ele>318.8</ele>
        <time>2023-05-28T06:58:46Z</time>
      </trkpt>
      <trkpt lat="45.71027" lon="5.3485">
        <ele>319</ele>
        <time>2023-05-28T06:58:47Z</time>
      </trkpt>
      <trkpt lat="45.71027" lon="5.34859">
        <ele>319</ele>
        <time>2023-05-28T06:58:48Z</time>
      </trkpt>
      <trkpt lat="45.71027" lon="5.34868">
        <ele>319.4</ele>
        <time>2023-05-28T06:58:49Z</time>
      </trkpt>
      <trkpt lat="45.71026" lon="5.34876">
        <ele>319.4</ele>
        <time>2023-05-28T06:58:50Z</time>
      </trkpt>
      <trkpt lat="45.71025" lon="5.34884">
        <ele>319.6</ele>
        <time>2023-05-28T06:58:51Z</time>
      </trkpt>
      <trkpt lat="45.71024" lon="5.34892">
        <ele>319.6</ele>
        <time>2023-05-28T06:58:52Z</time>
      </trkpt>
      <trkpt lat="45.71021" lon="5.34899">
        <ele>319.8</ele>
        <time>2023-05-28T06:58:53Z</time>
      </trkpt>
      <trkpt lat="45.71019" lon="5.34906">
        <ele>320</ele>
        <time>2023-05-28T06:58:54Z</time>
      </trkpt>
      <trkpt lat="45.71017" lon="5.34914">
        <ele>320</ele>
        <time>2023-05-28T06:58:55Z</time>
      </trkpt>
      <trkpt lat="45.71017" lon="5.34921">
        <ele>320</ele>
        <time>2023-05-28T06:58:56Z</time>
      </trkpt>
      <trkpt lat="45.71018" lon="5.34928">
        <ele>320</ele>
        <time>2023-05-28T06:58:57Z</time>
      </trkpt>
      <trkpt lat="45.71019" lon="5.34935">
        <ele>320.2</ele>
        <time>2023-05-28T06:58:58Z</time>
      </trkpt>
      <trkpt lat="45.7102" lon="5.34942">
        <ele>320.2</ele>
        <time>2023-05-28T06:58:59Z</time>
      </trkpt>
      <trkpt lat="45.71022" lon="5.34948">
        <ele>320.4</ele>
        <time>2023-05-28T06:59:00Z</time>
      </trkpt>
      <trkpt lat="45.71025" lon="5.34954">
        <ele>320.6</ele>
        <time>2023-05-28T06:59:01Z</time>
      </trkpt>
      <trkpt lat="45.71028" lon="5.3496">
        <ele>320.6</ele>
        <time>2023-05-28T06:59:02Z</time>
      </trkpt>
      <trkpt lat="45.71032" lon="5.34964">
        <ele>320.8</ele>
        <time>2023-05-28T06:59:03Z</time>
      </trkpt>
      <trkpt lat="45.71035" lon="5.34968">
        <ele>320.8</ele>
        <time>2023-05-28T06:59:04Z</time>
      </trkpt>
      <trkpt lat="45.71035" lon="5.34968">
        <ele>321</ele>
        <time>2023-05-28T06:59:05Z</time>
      </trkpt>
      <trkpt lat="45.71042" lon="5.34976">
        <ele>321.2</ele>
        <time>2023-05-28T06:59:06Z</time>
      </trkpt>
      <trkpt lat="45.7105" lon="5.34984">
        <ele>321.6</ele>
        <time>2023-05-28T06:59:08Z</time>
      </trkpt>
      <trkpt lat="45.71053" lon="5.34988">
        <ele>321.6</ele>
        <time>2023-05-28T06:59:09Z</time>
      </trkpt>
      <trkpt lat="45.71057" lon="5.34992">
        <ele>321.8</ele>
        <time>2023-05-28T06:59:10Z</time>
      </trkpt>
      <trkpt lat="45.71062" lon="5.34996">
        <ele>322</ele>
        <time>2023-05-28T06:59:11Z</time>
      </trkpt>
      <trkpt lat="45.71066" lon="5.35">
        <ele>322.2</ele>
        <time>2023-05-28T06:59:12Z</time>
      </trkpt>
      <trkpt lat="45.7107" lon="5.35004">
        <ele>322.4</ele>
        <time>2023-05-28T06:59:13Z</time>
      </trkpt>
      <trkpt lat="45.71073" lon="5.35008">
        <ele>322.4</ele>
        <time>2023-05-28T06:59:14Z</time>
      </trkpt>
      <trkpt lat="45.71078" lon="5.35012">
        <ele>322.6</ele>
        <time>2023-05-28T06:59:15Z</time>
      </trkpt>
      <trkpt lat="45.71082" lon="5.35017">
        <ele>322.8</ele>
        <time>2023-05-28T06:59:16Z</time>
      </trkpt>
      <trkpt lat="45.71086" lon="5.35021">
        <ele>323</ele>
        <time>2023-05-28T06:59:17Z</time>
      </trkpt>
      <trkpt lat="45.71086" lon="5.35021">
        <ele>323.2</ele>
        <time>2023-05-28T06:59:18Z</time>
      </trkpt>
      <trkpt lat="45.71094" lon="5.3503">
        <ele>323.4</ele>
        <time>2023-05-28T06:59:19Z</time>
      </trkpt>
      <trkpt lat="45.71099" lon="5.35034">
        <ele>323.4</ele>
        <time>2023-05-28T06:59:20Z</time>
      </trkpt>
      <trkpt lat="45.71103" lon="5.35038">
        <ele>323.6</ele>
        <time>2023-05-28T06:59:21Z</time>
      </trkpt>
      <trkpt lat="45.71107" lon="5.35043">
        <ele>323.8</ele>
        <time>2023-05-28T06:59:22Z</time>
      </trkpt>
      <trkpt lat="45.71111" lon="5.35047">
        <ele>323.8</ele>
        <time>2023-05-28T06:59:23Z</time>
      </trkpt>
      <trkpt lat="45.71116" lon="5.35051">
        <ele>324.2</ele>
        <time>2023-05-28T06:59:24Z</time>
      </trkpt>
      <trkpt lat="45.71121" lon="5.35056">
        <ele>324.2</ele>
        <time>2023-05-28T06:59:25Z</time>
      </trkpt>
      <trkpt lat="45.71125" lon="5.3506">
        <ele>324.4</ele>
        <time>2023-05-28T06:59:26Z</time>
      </trkpt>
      <trkpt lat="45.71129" lon="5.35065">
        <ele>324.6</ele>
        <time>2023-05-28T06:59:27Z</time>
      </trkpt>
      <trkpt lat="45.71133" lon="5.35069">
        <ele>324.6</ele>
        <time>2023-05-28T06:59:28Z</time>
      </trkpt>
      <trkpt lat="45.71138" lon="5.35074">
        <ele>324.8</ele>
        <time>2023-05-28T06:59:29Z</time>
      </trkpt>
      <trkpt lat="45.71143" lon="5.35078">
        <ele>324.8</ele>
        <time>2023-05-28T06:59:30Z</time>
      </trkpt>
      <trkpt lat="45.71147" lon="5.35082">
        <ele>324.8</ele>
        <time>2023-05-28T06:59:31Z</time>
      </trkpt>
      <trkpt lat="45.71151" lon="5.35087">
        <ele>325</ele>
        <time>2023-05-28T06:59:32Z</time>
      </trkpt>
      <trkpt lat="45.71156" lon="5.35091">
        <ele>325.2</ele>
        <time>2023-05-28T06:59:33Z</time>
      </trkpt>
      <trkpt lat="45.71161" lon="5.35096">
        <ele>325.4</ele>
        <time>2023-05-28T06:59:34Z</time>
      </trkpt>
      <trkpt lat="45.71165" lon="5.35101">
        <ele>325.4</ele>
        <time>2023-05-28T06:59:35Z</time>
      </trkpt>
      <trkpt lat="45.71171" lon="5.35106">
        <ele>325.4</ele>
        <time>2023-05-28T06:59:36Z</time>
      </trkpt>
      <trkpt lat="45.71176" lon="5.35111">
        <ele>325.6</ele>
        <time>2023-05-28T06:59:37Z</time>
      </trkpt>
      <trkpt lat="45.71182" lon="5.35116">
        <ele>325.6</ele>
        <time>2023-05-28T06:59:38Z</time>
      </trkpt>
      <trkpt lat="45.71188" lon="5.35122">
        <ele>325.6</ele>
        <time>2023-05-28T06:59:39Z</time>
      </trkpt>
      <trkpt lat="45.71193" lon="5.35128">
        <ele>325.6</ele>
        <time>2023-05-28T06:59:40Z</time>
      </trkpt>
      <trkpt lat="45.71199" lon="5.35134">
        <ele>325.6</ele>
        <time>2023-05-28T06:59:41Z</time>
      </trkpt>
      <trkpt lat="45.71205" lon="5.3514">
        <ele>325.6</ele>
        <time>2023-05-28T06:59:42Z</time>
      </trkpt>
      <trkpt lat="45.71211" lon="5.35147">
        <ele>325.6</ele>
        <time>2023-05-28T06:59:43Z</time>
      </trkpt>
      <trkpt lat="45.71218" lon="5.35154">
        <ele>325.6</ele>
        <time>2023-05-28T06:59:44Z</time>
      </trkpt>
      <trkpt lat="45.71226" lon="5.35161">
        <ele>325.4</ele>
        <time>2023-05-28T06:59:45Z</time>
      </trkpt>
      <trkpt lat="45.71233" lon="5.35168">
        <ele>325.4</ele>
        <time>2023-05-28T06:59:46Z</time>
      </trkpt>
      <trkpt lat="45.71241" lon="5.35176">
        <ele>325.2</ele>
        <time>2023-05-28T06:59:47Z</time>
      </trkpt>
      <trkpt lat="45.71249" lon="5.35183">
        <ele>325</ele>
        <time>2023-05-28T06:59:48Z</time>
      </trkpt>
      <trkpt lat="45.71257" lon="5.35191">
        <ele>325</ele>
        <time>2023-05-28T06:59:49Z</time>
      </trkpt>
      <trkpt lat="45.71264" lon="5.35199">
        <ele>324.8</ele>
        <time>2023-05-28T06:59:50Z</time>
      </trkpt>
      <trkpt lat="45.71272" lon="5.35207">
        <ele>324.6</ele>
        <time>2023-05-28T06:59:51Z</time>
      </trkpt>
      <trkpt lat="45.71279" lon="5.35215">
        <ele>323.8</ele>
        <time>2023-05-28T06:59:52Z</time>
      </trkpt>
      <trkpt lat="45.71287" lon="5.35223">
        <ele>323.6</ele>
        <time>2023-05-28T06:59:53Z</time>
      </trkpt>
      <trkpt lat="45.71295" lon="5.35231">
        <ele>323.4</ele>
        <time>2023-05-28T06:59:54Z</time>
      </trkpt>
      <trkpt lat="45.71303" lon="5.3524">
        <ele>323</ele>
        <time>2023-05-28T06:59:55Z</time>
      </trkpt>
      <trkpt lat="45.71311" lon="5.35249">
        <ele>323</ele>
        <time>2023-05-28T06:59:56Z</time>
      </trkpt>
      <trkpt lat="45.71319" lon="5.35258">
        <ele>322.8</ele>
        <time>2023-05-28T06:59:57Z</time>
      </trkpt>
      <trkpt lat="45.71328" lon="5.35267">
        <ele>322.6</ele>
        <time>2023-05-28T06:59:58Z</time>
      </trkpt>
      <trkpt lat="45.71336" lon="5.35276">
        <ele>322.2</ele>
        <time>2023-05-28T06:59:59Z</time>
      </trkpt>
      <trkpt lat="45.71345" lon="5.35286">
        <ele>322.2</ele>
        <time>2023-05-28T07:00:00Z</time>
      </trkpt>
      <trkpt lat="45.71353" lon="5.35296">
        <ele>321.8</ele>
        <time>2023-05-28T07:00:01Z</time>
      </trkpt>
      <trkpt lat="45.71361" lon="5.35306">
        <ele>321.4</ele>
        <time>2023-05-28T07:00:02Z</time>
      </trkpt>
      <trkpt lat="45.71369" lon="5.35315">
        <ele>321</ele>
        <time>2023-05-28T07:00:03Z</time>
      </trkpt>
      <trkpt lat="45.71377" lon="5.35325">
        <ele>320.6</ele>
        <time>2023-05-28T07:00:04Z</time>
      </trkpt>
      <trkpt lat="45.71385" lon="5.35335">
        <ele>320.6</ele>
        <time>2023-05-28T07:00:05Z</time>
      </trkpt>
      <trkpt lat="45.71393" lon="5.35345">
        <ele>320.4</ele>
        <time>2023-05-28T07:00:06Z</time>
      </trkpt>
      <trkpt lat="45.714" lon="5.35355">
        <ele>320</ele>
        <time>2023-05-28T07:00:07Z</time>
      </trkpt>
      <trkpt lat="45.714" lon="5.35355">
        <ele>319.6</ele>
        <time>2023-05-28T07:00:08Z</time>
      </trkpt>
      <trkpt lat="45.71413" lon="5.35377">
        <ele>319.2</ele>
        <time>2023-05-28T07:00:09Z</time>
      </trkpt>
      <trkpt lat="45.7142" lon="5.35388">
        <ele>319.2</ele>
        <time>2023-05-28T07:00:10Z</time>
      </trkpt>
      <trkpt lat="45.71426" lon="5.35399">
        <ele>318.8</ele>
        <time>2023-05-28T07:00:11Z</time>
      </trkpt>
      <trkpt lat="45.71432" lon="5.35411">
        <ele>318.6</ele>
        <time>2023-05-28T07:00:12Z</time>
      </trkpt>
      <trkpt lat="45.71438" lon="5.35423">
        <ele>318</ele>
        <time>2023-05-28T07:00:13Z</time>
      </trkpt>
      <trkpt lat="45.71443" lon="5.35436">
        <ele>317.6</ele>
        <time>2023-05-28T07:00:14Z</time>
      </trkpt>
      <trkpt lat="45.71448" lon="5.35448">
        <ele>317.2</ele>
        <time>2023-05-28T07:00:15Z</time>
      </trkpt>
      <trkpt lat="45.71452" lon="5.3546">
        <ele>316.8</ele>
        <time>2023-05-28T07:00:16Z</time>
      </trkpt>
      <trkpt lat="45.71458" lon="5.35473">
        <ele>316.8</ele>
        <time>2023-05-28T07:00:17Z</time>
      </trkpt>
      <trkpt lat="45.71463" lon="5.35485">
        <ele>316.4</ele>
        <time>2023-05-28T07:00:18Z</time>
      </trkpt>
      <trkpt lat="45.71468" lon="5.35496">
        <ele>316.2</ele>
        <time>2023-05-28T07:00:19Z</time>
      </trkpt>
      <trkpt lat="45.71474" lon="5.35507">
        <ele>315.8</ele>
        <time>2023-05-28T07:00:20Z</time>
      </trkpt>
      <trkpt lat="45.7148" lon="5.35518">
        <ele>315.4</ele>
        <time>2023-05-28T07:00:21Z</time>
      </trkpt>
      <trkpt lat="45.71485" lon="5.35529">
        <ele>315.2</ele>
        <time>2023-05-28T07:00:22Z</time>
      </trkpt>
      <trkpt lat="45.71491" lon="5.3554">
        <ele>315</ele>
        <time>2023-05-28T07:00:23Z</time>
      </trkpt>
      <trkpt lat="45.71498" lon="5.3555">
        <ele>314.8</ele>
        <time>2023-05-28T07:00:24Z</time>
      </trkpt>
      <trkpt lat="45.71504" lon="5.35559">
        <ele>314.6</ele>
        <time>2023-05-28T07:00:25Z</time>
      </trkpt>
      <trkpt lat="45.71511" lon="5.35569">
        <ele>314.2</ele>
        <time>2023-05-28T07:00:26Z</time>
      </trkpt>
      <trkpt lat="45.71518" lon="5.35578">
        <ele>313.8</ele>
        <time>2023-05-28T07:00:27Z</time>
      </trkpt>
      <trkpt lat="45.71524" lon="5.35588">
        <ele>313.6</ele>
        <time>2023-05-28T07:00:28Z</time>
      </trkpt>
      <trkpt lat="45.71524" lon="5.35588">
        <ele>313.4</ele>
        <time>2023-05-28T07:00:29Z</time>
      </trkpt>
      <trkpt lat="45.71537" lon="5.35606">
        <ele>312.8</ele>
        <time>2023-05-28T07:00:30Z</time>
      </trkpt>
      <trkpt lat="45.71543" lon="5.35616">
        <ele>312.6</ele>
        <time>2023-05-28T07:00:31Z</time>
      </trkpt>
      <trkpt lat="45.71548" lon="5.35626">
        <ele>312.2</ele>
        <time>2023-05-28T07:00:32Z</time>
      </trkpt>
      <trkpt lat="45.71553" lon="5.35636">
        <ele>312</ele>
        <time>2023-05-28T07:00:33Z</time>
      </trkpt>
      <trkpt lat="45.71558" lon="5.35646">
        <ele>311.8</ele>
        <time>2023-05-28T07:00:34Z</time>
      </trkpt>
      <trkpt lat="45.71562" lon="5.35657">
        <ele>311.6</ele>
        <time>2023-05-28T07:00:35Z</time>
      </trkpt>
      <trkpt lat="45.71566" lon="5.35668">
        <ele>311.4</ele>
        <time>2023-05-28T07:00:36Z</time>
      </trkpt>
      <trkpt lat="45.7157" lon="5.35678">
        <ele>311.2</ele>
        <time>2023-05-28T07:00:37Z</time>
      </trkpt>
      <trkpt lat="45.71574" lon="5.35689">
        <ele>311.2</ele>
        <time>2023-05-28T07:00:38Z</time>
      </trkpt>
      <trkpt lat="45.71577" lon="5.357">
        <ele>311</ele>
        <time>2023-05-28T07:00:39Z</time>
      </trkpt>
      <trkpt lat="45.7158" lon="5.35711">
        <ele>311</ele>
        <time>2023-05-28T07:00:40Z</time>
      </trkpt>
      <trkpt lat="45.71582" lon="5.35722">
        <ele>310.8</ele>
        <time>2023-05-28T07:00:41Z</time>
      </trkpt>
      <trkpt lat="45.71585" lon="5.35733">
        <ele>310.8</ele>
        <time>2023-05-28T07:00:42Z</time>
      </trkpt>
      <trkpt lat="45.71587" lon="5.35744">
        <ele>310.8</ele>
        <time>2023-05-28T07:00:43Z</time>
      </trkpt>
      <trkpt lat="45.71589" lon="5.35755">
        <ele>310.8</ele>
        <time>2023-05-28T07:00:44Z</time>
      </trkpt>
      <trkpt lat="45.71592" lon="5.35768">
        <ele>310.6</ele>
        <time>2023-05-28T07:00:45Z</time>
      </trkpt>
      <trkpt lat="45.71594" lon="5.35779">
        <ele>310.6</ele>
        <time>2023-05-28T07:00:46Z</time>
      </trkpt>
      <trkpt lat="45.71596" lon="5.3579">
        <ele>310.6</ele>
        <time>2023-05-28T07:00:47Z</time>
      </trkpt>
      <trkpt lat="45.71598" lon="5.35798">
        <ele>310.6</ele>
        <time>2023-05-28T07:00:48Z</time>
      </trkpt>
      <trkpt lat="45.716" lon="5.35809">
        <ele>310.4</ele>
        <time>2023-05-28T07:00:49Z</time>
      </trkpt>
      <trkpt lat="45.71605" lon="5.35833">
        <ele>310.2</ele>
        <time>2023-05-28T07:00:51Z</time>
      </trkpt>
      <trkpt lat="45.71607" lon="5.35841">
        <ele>310.2</ele>
        <time>2023-05-28T07:00:52Z</time>
      </trkpt>
      <trkpt lat="45.71609" lon="5.35852">
        <ele>310.4</ele>
        <time>2023-05-28T07:00:53Z</time>
      </trkpt>
      <trkpt lat="45.71611" lon="5.35864">
        <ele>310.4</ele>
        <time>2023-05-28T07:00:54Z</time>
      </trkpt>
      <trkpt lat="45.71614" lon="5.35877">
        <ele>310.6</ele>
        <time>2023-05-28T07:00:55Z</time>
      </trkpt>
      <trkpt lat="45.71616" lon="5.35889">
        <ele>310.6</ele>
        <time>2023-05-28T07:00:56Z</time>
      </trkpt>
      <trkpt lat="45.71618" lon="5.35901">
        <ele>311</ele>
        <time>2023-05-28T07:00:57Z</time>
      </trkpt>
      <trkpt lat="45.7162" lon="5.3591">
        <ele>311</ele>
        <time>2023-05-28T07:00:58Z</time>
      </trkpt>
      <trkpt lat="45.71623" lon="5.35923">
        <ele>311</ele>
        <time>2023-05-28T07:00:59Z</time>
      </trkpt>
      <trkpt lat="45.71626" lon="5.35935">
        <ele>311</ele>
        <time>2023-05-28T07:01:00Z</time>
      </trkpt>
      <trkpt lat="45.71628" lon="5.35946">
        <ele>311</ele>
        <time>2023-05-28T07:01:01Z</time>
      </trkpt>
      <trkpt lat="45.71631" lon="5.35955">
        <ele>311.2</ele>
        <time>2023-05-28T07:01:02Z</time>
      </trkpt>
      <trkpt lat="45.71634" lon="5.35966">
        <ele>311.2</ele>
        <time>2023-05-28T07:01:03Z</time>
      </trkpt>
      <trkpt lat="45.71639" lon="5.35979">
        <ele>311.2</ele>
        <time>2023-05-28T07:01:04Z</time>
      </trkpt>
      <trkpt lat="45.71643" lon="5.35988">
        <ele>311.2</ele>
        <time>2023-05-28T07:01:05Z</time>
      </trkpt>
      <trkpt lat="45.71647" lon="5.35998">
        <ele>311.2</ele>
        <time>2023-05-28T07:01:06Z</time>
      </trkpt>
      <trkpt lat="45.71652" lon="5.36007">
        <ele>311.2</ele>
        <time>2023-05-28T07:01:07Z</time>
      </trkpt>
      <trkpt lat="45.71656" lon="5.36014">
        <ele>311.2</ele>
        <time>2023-05-28T07:01:08Z</time>
      </trkpt>
      <trkpt lat="45.71662" lon="5.36024">
        <ele>311.4</ele>
        <time>2023-05-28T07:01:09Z</time>
      </trkpt>
      <trkpt lat="45.71667" lon="5.36033">
        <ele>311.4</ele>
        <time>2023-05-28T07:01:10Z</time>
      </trkpt>
      <trkpt lat="45.71671" lon="5.3604">
        <ele>311.4</ele>
        <time>2023-05-28T07:01:11Z</time>
      </trkpt>
      <trkpt lat="45.71676" lon="5.36048">
        <ele>311.4</ele>
        <time>2023-05-28T07:01:12Z</time>
      </trkpt>
      <trkpt lat="45.71682" lon="5.36058">
        <ele>311.4</ele>
        <time>2023-05-28T07:01:13Z</time>
      </trkpt>
      <trkpt lat="45.71687" lon="5.36067">
        <ele>311.4</ele>
        <time>2023-05-28T07:01:14Z</time>
      </trkpt>
      <trkpt lat="45.71692" lon="5.36075">
        <ele>311.2</ele>
        <time>2023-05-28T07:01:15Z</time>
      </trkpt>
      <trkpt lat="45.71696" lon="5.36082">
        <ele>311.2</ele>
        <time>2023-05-28T07:01:16Z</time>
      </trkpt>
      <trkpt lat="45.71702" lon="5.36089">
        <ele>311.2</ele>
        <time>2023-05-28T07:01:17Z</time>
      </trkpt>
      <trkpt lat="45.71707" lon="5.36099">
        <ele>311</ele>
        <time>2023-05-28T07:01:18Z</time>
      </trkpt>
      <trkpt lat="45.71712" lon="5.36107">
        <ele>311</ele>
        <time>2023-05-28T07:01:19Z</time>
      </trkpt>
      <trkpt lat="45.71717" lon="5.36115">
        <ele>311</ele>
        <time>2023-05-28T07:01:20Z</time>
      </trkpt>
      <trkpt lat="45.71721" lon="5.36122">
        <ele>310.8</ele>
        <time>2023-05-28T07:01:21Z</time>
      </trkpt>
      <trkpt lat="45.71726" lon="5.36129">
        <ele>310.8</ele>
        <time>2023-05-28T07:01:22Z</time>
      </trkpt>
      <trkpt lat="45.71731" lon="5.36139">
        <ele>310.8</ele>
        <time>2023-05-28T07:01:23Z</time>
      </trkpt>
      <trkpt lat="45.71736" lon="5.36147">
        <ele>310.8</ele>
        <time>2023-05-28T07:01:24Z</time>
      </trkpt>
      <trkpt lat="45.7174" lon="5.36153">
        <ele>310.6</ele>
        <time>2023-05-28T07:01:25Z</time>
      </trkpt>
      <trkpt lat="45.71745" lon="5.36161">
        <ele>310.6</ele>
        <time>2023-05-28T07:01:26Z</time>
      </trkpt>
      <trkpt lat="45.71749" lon="5.36169">
        <ele>310.4</ele>
        <time>2023-05-28T07:01:27Z</time>
      </trkpt>
      <trkpt lat="45.71754" lon="5.36178">
        <ele>310.4</ele>
        <time>2023-05-28T07:01:28Z</time>
      </trkpt>
      <trkpt lat="45.71759" lon="5.36186">
        <ele>310.2</ele>
        <time>2023-05-28T07:01:29Z</time>
      </trkpt>
      <trkpt lat="45.71762" lon="5.36192">
        <ele>310.2</ele>
        <time>2023-05-28T07:01:30Z</time>
      </trkpt>
      <trkpt lat="45.71767" lon="5.36199">
        <ele>310.2</ele>
        <time>2023-05-28T07:01:31Z</time>
      </trkpt>
      <trkpt lat="45.71773" lon="5.36209">
        <ele>310</ele>
        <time>2023-05-28T07:01:32Z</time>
      </trkpt>
      <trkpt lat="45.71777" lon="5.36216">
        <ele>310</ele>
        <time>2023-05-28T07:01:33Z</time>
      </trkpt>
      <trkpt lat="45.71782" lon="5.36224">
        <ele>309.8</ele>
        <time>2023-05-28T07:01:34Z</time>
      </trkpt>
      <trkpt lat="45.71785" lon="5.3623">
        <ele>309.8</ele>
        <time>2023-05-28T07:01:35Z</time>
      </trkpt>
      <trkpt lat="45.7179" lon="5.36238">
        <ele>309.8</ele>
        <time>2023-05-28T07:01:36Z</time>
      </trkpt>
      <trkpt lat="45.71795" lon="5.36247">
        <ele>309.8</ele>
        <time>2023-05-28T07:01:37Z</time>
      </trkpt>
      <trkpt lat="45.71799" lon="5.36254">
        <ele>309.8</ele>
        <time>2023-05-28T07:01:38Z</time>
      </trkpt>
      <trkpt lat="45.71803" lon="5.36261">
        <ele>310</ele>
        <time>2023-05-28T07:01:39Z</time>
      </trkpt>
      <trkpt lat="45.71806" lon="5.36267">
        <ele>309.8</ele>
        <time>2023-05-28T07:01:40Z</time>
      </trkpt>
      <trkpt lat="45.71811" lon="5.36275">
        <ele>309.8</ele>
        <time>2023-05-28T07:01:41Z</time>
      </trkpt>
      <trkpt lat="45.71815" lon="5.36282">
        <ele>309.8</ele>
        <time>2023-05-28T07:01:42Z</time>
      </trkpt>
      <trkpt lat="45.71818" lon="5.36289">
        <ele>309.8</ele>
        <time>2023-05-28T07:01:43Z</time>
      </trkpt>
      <trkpt lat="45.71821" lon="5.36295">
        <ele>310.4</ele>
        <time>2023-05-28T07:01:44Z</time>
      </trkpt>
      <trkpt lat="45.71825" lon="5.36302">
        <ele>310.4</ele>
        <time>2023-05-28T07:01:45Z</time>
      </trkpt>
      <trkpt lat="45.71829" lon="5.3631">
        <ele>310.6</ele>
        <time>2023-05-28T07:01:46Z</time>
      </trkpt>
      <trkpt lat="45.71833" lon="5.36318">
        <ele>310.8</ele>
        <time>2023-05-28T07:01:47Z</time>
      </trkpt>
      <trkpt lat="45.71837" lon="5.36325">
        <ele>310.8</ele>
        <time>2023-05-28T07:01:48Z</time>
      </trkpt>
      <trkpt lat="45.71839" lon="5.36332">
        <ele>310.8</ele>
        <time>2023-05-28T07:01:49Z</time>
      </trkpt>
      <trkpt lat="45.71843" lon="5.3634">
        <ele>311</ele>
        <time>2023-05-28T07:01:50Z</time>
      </trkpt>
      <trkpt lat="45.71847" lon="5.3635">
        <ele>311</ele>
        <time>2023-05-28T07:01:51Z</time>
      </trkpt>
      <trkpt lat="45.7185" lon="5.36358">
        <ele>311</ele>
        <time>2023-05-28T07:01:52Z</time>
      </trkpt>
      <trkpt lat="45.71854" lon="5.36366">
        <ele>311</ele>
        <time>2023-05-28T07:01:53Z</time>
      </trkpt>
      <trkpt lat="45.71857" lon="5.36373">
        <ele>311</ele>
        <time>2023-05-28T07:01:54Z</time>
      </trkpt>
      <trkpt lat="45.7186" lon="5.36381">
        <ele>311.2</ele>
        <time>2023-05-28T07:01:55Z</time>
      </trkpt>
      <trkpt lat="45.71864" lon="5.36391">
        <ele>311.2</ele>
        <time>2023-05-28T07:01:56Z</time>
      </trkpt>
      <trkpt lat="45.71868" lon="5.36399">
        <ele>311.2</ele>
        <time>2023-05-28T07:01:57Z</time>
      </trkpt>
      <trkpt lat="45.7187" lon="5.36406">
        <ele>311.2</ele>
        <time>2023-05-28T07:01:58Z</time>
      </trkpt>
      <trkpt lat="45.71874" lon="5.36415">
        <ele>311.4</ele>
        <time>2023-05-28T07:01:59Z</time>
      </trkpt>
      <trkpt lat="45.71878" lon="5.36425">
        <ele>311.6</ele>
        <time>2023-05-28T07:02:00Z</time>
      </trkpt>
      <trkpt lat="45.71881" lon="5.36434">
        <ele>311.6</ele>
        <time>2023-05-28T07:02:01Z</time>
      </trkpt>
      <trkpt lat="45.71885" lon="5.36442">
        <ele>311.8</ele>
        <time>2023-05-28T07:02:02Z</time>
      </trkpt>
      <trkpt lat="45.71889" lon="5.36449">
        <ele>311.8</ele>
        <time>2023-05-28T07:02:03Z</time>
      </trkpt>
      <trkpt lat="45.71893" lon="5.36457">
        <ele>311.8</ele>
        <time>2023-05-28T07:02:04Z</time>
      </trkpt>
      <trkpt lat="45.71898" lon="5.36467">
        <ele>312</ele>
        <time>2023-05-28T07:02:05Z</time>
      </trkpt>
      <trkpt lat="45.71903" lon="5.36474">
        <ele>312</ele>
        <time>2023-05-28T07:02:06Z</time>
      </trkpt>
      <trkpt lat="45.71908" lon="5.36482">
        <ele>312</ele>
        <time>2023-05-28T07:02:07Z</time>
      </trkpt>
      <trkpt lat="45.71912" lon="5.36488">
        <ele>312</ele>
        <time>2023-05-28T07:02:08Z</time>
      </trkpt>
      <trkpt lat="45.71918" lon="5.36495">
        <ele>312.2</ele>
        <time>2023-05-28T07:02:09Z</time>
      </trkpt>
      <trkpt lat="45.71924" lon="5.36504">
        <ele>312.4</ele>
        <time>2023-05-28T07:02:10Z</time>
      </trkpt>
      <trkpt lat="45.71929" lon="5.36512">
        <ele>312.4</ele>
        <time>2023-05-28T07:02:11Z</time>
      </trkpt>
      <trkpt lat="45.71934" lon="5.36518">
        <ele>312.4</ele>
        <time>2023-05-28T07:02:12Z</time>
      </trkpt>
      <trkpt lat="45.71939" lon="5.36526">
        <ele>312.6</ele>
        <time>2023-05-28T07:02:13Z</time>
      </trkpt>
      <trkpt lat="45.71945" lon="5.36534">
        <ele>312.6</ele>
        <time>2023-05-28T07:02:14Z</time>
      </trkpt>
      <trkpt lat="45.71952" lon="5.36543">
        <ele>312.6</ele>
        <time>2023-05-28T07:02:15Z</time>
      </trkpt>
      <trkpt lat="45.71957" lon="5.36551">
        <ele>312.6</ele>
        <time>2023-05-28T07:02:16Z</time>
      </trkpt>
      <trkpt lat="45.71962" lon="5.36556">
        <ele>312.6</ele>
        <time>2023-05-28T07:02:17Z</time>
      </trkpt>
      <trkpt lat="45.71967" lon="5.36564">
        <ele>312.6</ele>
        <time>2023-05-28T07:02:18Z</time>
      </trkpt>
      <trkpt lat="45.71974" lon="5.36573">
        <ele>312.8</ele>
        <time>2023-05-28T07:02:19Z</time>
      </trkpt>
      <trkpt lat="45.71979" lon="5.3658">
        <ele>312.8</ele>
        <time>2023-05-28T07:02:20Z</time>
      </trkpt>
      <trkpt lat="45.71984" lon="5.36587">
        <ele>312.8</ele>
        <time>2023-05-28T07:02:21Z</time>
      </trkpt>
      <trkpt lat="45.71989" lon="5.36593">
        <ele>312.8</ele>
        <time>2023-05-28T07:02:22Z</time>
      </trkpt>
      <trkpt lat="45.71995" lon="5.36599">
        <ele>312.8</ele>
        <time>2023-05-28T07:02:23Z</time>
      </trkpt>
      <trkpt lat="45.72001" lon="5.36606">
        <ele>313</ele>
        <time>2023-05-28T07:02:24Z</time>
      </trkpt>
      <trkpt lat="45.72007" lon="5.36612">
        <ele>313</ele>
        <time>2023-05-28T07:02:25Z</time>
      </trkpt>
      <trkpt lat="45.72011" lon="5.36617">
        <ele>313.2</ele>
        <time>2023-05-28T07:02:26Z</time>
      </trkpt>
      <trkpt lat="45.72016" lon="5.36623">
        <ele>313.2</ele>
        <time>2023-05-28T07:02:27Z</time>
      </trkpt>
      <trkpt lat="45.72022" lon="5.36629">
        <ele>313.4</ele>
        <time>2023-05-28T07:02:28Z</time>
      </trkpt>
      <trkpt lat="45.7203" lon="5.36636">
        <ele>313.4</ele>
        <time>2023-05-28T07:02:29Z</time>
      </trkpt>
      <trkpt lat="45.72035" lon="5.36642">
        <ele>313.4</ele>
        <time>2023-05-28T07:02:30Z</time>
      </trkpt>
      <trkpt lat="45.7204" lon="5.36647">
        <ele>313.4</ele>
        <time>2023-05-28T07:02:31Z</time>
      </trkpt>
      <trkpt lat="45.72046" lon="5.36653">
        <ele>313.4</ele>
        <time>2023-05-28T07:02:32Z</time>
      </trkpt>
      <trkpt lat="45.72053" lon="5.36661">
        <ele>313.6</ele>
        <time>2023-05-28T07:02:33Z</time>
      </trkpt>
      <trkpt lat="45.72059" lon="5.36667">
        <ele>313.6</ele>
        <time>2023-05-28T07:02:34Z</time>
      </trkpt>
      <trkpt lat="45.72065" lon="5.36673">
        <ele>313.6</ele>
        <time>2023-05-28T07:02:35Z</time>
      </trkpt>
      <trkpt lat="45.7207" lon="5.36677">
        <ele>313.6</ele>
        <time>2023-05-28T07:02:36Z</time>
      </trkpt>
      <trkpt lat="45.72075" lon="5.36683">
        <ele>313.6</ele>
        <time>2023-05-28T07:02:37Z</time>
      </trkpt>
      <trkpt lat="45.72082" lon="5.3669">
        <ele>313.4</ele>
        <time>2023-05-28T07:02:38Z</time>
      </trkpt>
      <trkpt lat="45.72087" lon="5.36695">
        <ele>313.4</ele>
        <time>2023-05-28T07:02:39Z</time>
      </trkpt>
      <trkpt lat="45.72093" lon="5.36701">
        <ele>313.4</ele>
        <time>2023-05-28T07:02:40Z</time>
      </trkpt>
      <trkpt lat="45.72098" lon="5.36706">
        <ele>313.4</ele>
        <time>2023-05-28T07:02:41Z</time>
      </trkpt>
      <trkpt lat="45.72104" lon="5.36712">
        <ele>313.4</ele>
        <time>2023-05-28T07:02:42Z</time>
      </trkpt>
      <trkpt lat="45.7211" lon="5.36718">
        <ele>313.4</ele>
        <time>2023-05-28T07:02:43Z</time>
      </trkpt>
      <trkpt lat="45.72116" lon="5.36724">
        <ele>313.4</ele>
        <time>2023-05-28T07:02:44Z</time>
      </trkpt>
      <trkpt lat="45.72122" lon="5.3673">
        <ele>313.2</ele>
        <time>2023-05-28T07:02:45Z</time>
      </trkpt>
      <trkpt lat="45.72128" lon="5.36736">
        <ele>313.2</ele>
        <time>2023-05-28T07:02:46Z</time>
      </trkpt>
      <trkpt lat="45.72128" lon="5.36736">
        <ele>313</ele>
        <time>2023-05-28T07:02:47Z</time>
      </trkpt>
      <trkpt lat="45.72139" lon="5.3675">
        <ele>313</ele>
        <time>2023-05-28T07:02:48Z</time>
      </trkpt>
      <trkpt lat="45.72144" lon="5.36758">
        <ele>313</ele>
        <time>2023-05-28T07:02:49Z</time>
      </trkpt>
      <trkpt lat="45.72148" lon="5.36767">
        <ele>313</ele>
        <time>2023-05-28T07:02:50Z</time>
      </trkpt>
      <trkpt lat="45.72152" lon="5.36778">
        <ele>313</ele>
        <time>2023-05-28T07:02:51Z</time>
      </trkpt>
      <trkpt lat="45.72154" lon="5.36789">
        <ele>312.8</ele>
        <time>2023-05-28T07:02:52Z</time>
      </trkpt>
      <trkpt lat="45.72157" lon="5.368">
        <ele>312.8</ele>
        <time>2023-05-28T07:02:53Z</time>
      </trkpt>
      <trkpt lat="45.72159" lon="5.36812">
        <ele>312.6</ele>
        <time>2023-05-28T07:02:54Z</time>
      </trkpt>
      <trkpt lat="45.7216" lon="5.36824">
        <ele>312.6</ele>
        <time>2023-05-28T07:02:55Z</time>
      </trkpt>
      <trkpt lat="45.72162" lon="5.36836">
        <ele>312.4</ele>
        <time>2023-05-28T07:02:56Z</time>
      </trkpt>
      <trkpt lat="45.72162" lon="5.36836">
        <ele>312.4</ele>
        <time>2023-05-28T07:02:57Z</time>
      </trkpt>
      <trkpt lat="45.72169" lon="5.3687">
        <ele>312.2</ele>
        <time>2023-05-28T07:02:59Z</time>
      </trkpt>
      <trkpt lat="45.72172" lon="5.36881">
        <ele>312</ele>
        <time>2023-05-28T07:03:00Z</time>
      </trkpt>
      <trkpt lat="45.72177" lon="5.3689">
        <ele>312</ele>
        <time>2023-05-28T07:03:01Z</time>
      </trkpt>
      <trkpt lat="45.72184" lon="5.36898">
        <ele>312</ele>
        <time>2023-05-28T07:03:02Z</time>
      </trkpt>
      <trkpt lat="45.7219" lon="5.36905">
        <ele>311.8</ele>
        <time>2023-05-28T07:03:03Z</time>
      </trkpt>
      <trkpt lat="45.72196" lon="5.36912">
        <ele>311.8</ele>
        <time>2023-05-28T07:03:04Z</time>
      </trkpt>
      <trkpt lat="45.72196" lon="5.36912">
        <ele>311.8</ele>
        <time>2023-05-28T07:03:05Z</time>
      </trkpt>
      <trkpt lat="45.72208" lon="5.36925">
        <ele>311.8</ele>
        <time>2023-05-28T07:03:06Z</time>
      </trkpt>
      <trkpt lat="45.72213" lon="5.36931">
        <ele>311.8</ele>
        <time>2023-05-28T07:03:07Z</time>
      </trkpt>
      <trkpt lat="45.72219" lon="5.36938">
        <ele>311.8</ele>
        <time>2023-05-28T07:03:08Z</time>
      </trkpt>
      <trkpt lat="45.72225" lon="5.36944">
        <ele>312</ele>
        <time>2023-05-28T07:03:09Z</time>
      </trkpt>
      <trkpt lat="45.72225" lon="5.36944">
        <ele>312.2</ele>
        <time>2023-05-28T07:03:10Z</time>
      </trkpt>
      <trkpt lat="45.72235" lon="5.36956">
        <ele>312.2</ele>
        <time>2023-05-28T07:03:11Z</time>
      </trkpt>
      <trkpt lat="45.72241" lon="5.36964">
        <ele>312.4</ele>
        <time>2023-05-28T07:03:12Z</time>
      </trkpt>
      <trkpt lat="45.72241" lon="5.36964">
        <ele>312.4</ele>
        <time>2023-05-28T07:03:13Z</time>
      </trkpt>
      <trkpt lat="45.72245" lon="5.3697">
        <ele>312.6</ele>
        <time>2023-05-28T07:03:14Z</time>
      </trkpt>
      <trkpt lat="45.72254" lon="5.36983">
        <ele>312.8</ele>
        <time>2023-05-28T07:03:15Z</time>
      </trkpt>
      <trkpt lat="45.72259" lon="5.36989">
        <ele>312.8</ele>
        <time>2023-05-28T07:03:16Z</time>
      </trkpt>
      <trkpt lat="45.72263" lon="5.36996">
        <ele>312.8</ele>
        <time>2023-05-28T07:03:17Z</time>
      </trkpt>
      <trkpt lat="45.72263" lon="5.36996">
        <ele>313.2</ele>
        <time>2023-05-28T07:03:18Z</time>
      </trkpt>
      <trkpt lat="45.72272" lon="5.37009">
        <ele>313.4</ele>
        <time>2023-05-28T07:03:19Z</time>
      </trkpt>
      <trkpt lat="45.72272" lon="5.37009">
        <ele>313.4</ele>
        <time>2023-05-28T07:03:20Z</time>
      </trkpt>
      <trkpt lat="45.7228" lon="5.37022">
        <ele>313.6</ele>
        <time>2023-05-28T07:03:21Z</time>
      </trkpt>
      <trkpt lat="45.72285" lon="5.37028">
        <ele>313.8</ele>
        <time>2023-05-28T07:03:22Z</time>
      </trkpt>
      <trkpt lat="45.72289" lon="5.37035">
        <ele>313.8</ele>
        <time>2023-05-28T07:03:23Z</time>
      </trkpt>
      <trkpt lat="45.72289" lon="5.37035">
        <ele>313.8</ele>
        <time>2023-05-28T07:03:24Z</time>
      </trkpt>
      <trkpt lat="45.72293" lon="5.37041">
        <ele>314</ele>
        <time>2023-05-28T07:03:25Z</time>
      </trkpt>
      <trkpt lat="45.72302" lon="5.37054">
        <ele>314</ele>
        <time>2023-05-28T07:03:26Z</time>
      </trkpt>
      <trkpt lat="45.72307" lon="5.37061">
        <ele>314</ele>
        <time>2023-05-28T07:03:27Z</time>
      </trkpt>
      <trkpt lat="45.72307" lon="5.37061">
        <ele>314</ele>
        <time>2023-05-28T07:03:28Z</time>
      </trkpt>
      <trkpt lat="45.72316" lon="5.37075">
        <ele>314</ele>
        <time>2023-05-28T07:03:29Z</time>
      </trkpt>
      <trkpt lat="45.72316" lon="5.37075">
        <ele>314</ele>
        <time>2023-05-28T07:03:30Z</time>
      </trkpt>
      <trkpt lat="45.72325" lon="5.37089">
        <ele>314</ele>
        <time>2023-05-28T07:03:31Z</time>
      </trkpt>
      <trkpt lat="45.7233" lon="5.37096">
        <ele>314</ele>
        <time>2023-05-28T07:03:32Z</time>
      </trkpt>
      <trkpt lat="45.7233" lon="5.37096">
        <ele>314</ele>
        <time>2023-05-28T07:03:33Z</time>
      </trkpt>
      <trkpt lat="45.72334" lon="5.37103">
        <ele>314</ele>
        <time>2023-05-28T07:03:34Z</time>
      </trkpt>
      <trkpt lat="45.72343" lon="5.37117">
        <ele>314</ele>
        <time>2023-05-28T07:03:35Z</time>
      </trkpt>
      <trkpt lat="45.72348" lon="5.37124">
        <ele>314</ele>
        <time>2023-05-28T07:03:36Z</time>
      </trkpt>
      <trkpt lat="45.72353" lon="5.37131">
        <ele>314</ele>
        <time>2023-05-28T07:03:37Z</time>
      </trkpt>
      <trkpt lat="45.72353" lon="5.37131">
        <ele>314</ele>
        <time>2023-05-28T07:03:38Z</time>
      </trkpt>
      <trkpt lat="45.72358" lon="5.37138">
        <ele>314</ele>
        <time>2023-05-28T07:03:39Z</time>
      </trkpt>
      <trkpt lat="45.72368" lon="5.37152">
        <ele>314</ele>
        <time>2023-05-28T07:03:40Z</time>
      </trkpt>
      <trkpt lat="45.72373" lon="5.3716">
        <ele>314</ele>
        <time>2023-05-28T07:03:41Z</time>
      </trkpt>
      <trkpt lat="45.72377" lon="5.37167">
        <ele>314</ele>
        <time>2023-05-28T07:03:42Z</time>
      </trkpt>
      <trkpt lat="45.72377" lon="5.37167">
        <ele>314</ele>
        <time>2023-05-28T07:03:43Z</time>
      </trkpt>
      <trkpt lat="45.72382" lon="5.37175">
        <ele>314</ele>
        <time>2023-05-28T07:03:44Z</time>
      </trkpt>
      <trkpt lat="45.72391" lon="5.37191">
        <ele>313.8</ele>
        <time>2023-05-28T07:03:45Z</time>
      </trkpt>
      <trkpt lat="45.72395" lon="5.372">
        <ele>313.8</ele>
        <time>2023-05-28T07:03:46Z</time>
      </trkpt>
      <trkpt lat="45.72399" lon="5.37209">
        <ele>313.8</ele>
        <time>2023-05-28T07:03:47Z</time>
      </trkpt>
      <trkpt lat="45.72403" lon="5.37219">
        <ele>313.8</ele>
        <time>2023-05-28T07:03:48Z</time>
      </trkpt>
      <trkpt lat="45.72403" lon="5.37219">
        <ele>313.6</ele>
        <time>2023-05-28T07:03:49Z</time>
      </trkpt>
      <trkpt lat="45.72411" lon="5.37239">
        <ele>313.6</ele>
        <time>2023-05-28T07:03:50Z</time>
      </trkpt>
      <trkpt lat="45.72414" lon="5.3725">
        <ele>313.6</ele>
        <time>2023-05-28T07:03:51Z</time>
      </trkpt>
      <trkpt lat="45.72418" lon="5.3726">
        <ele>313.4</ele>
        <time>2023-05-28T07:03:52Z</time>
      </trkpt>
      <trkpt lat="45.72422" lon="5.37271">
        <ele>313.4</ele>
        <time>2023-05-28T07:03:53Z</time>
      </trkpt>
      <trkpt lat="45.72422" lon="5.37271">
        <ele>313.4</ele>
        <time>2023-05-28T07:03:54Z</time>
      </trkpt>
      <trkpt lat="45.72426" lon="5.37281">
        <ele>313.4</ele>
        <time>2023-05-28T07:03:55Z</time>
      </trkpt>
      <trkpt lat="45.72433" lon="5.37303">
        <ele>313.2</ele>
        <time>2023-05-28T07:03:56Z</time>
      </trkpt>
      <trkpt lat="45.72435" lon="5.37314">
        <ele>313</ele>
        <time>2023-05-28T07:03:57Z</time>
      </trkpt>
      <trkpt lat="45.72435" lon="5.37314">
        <ele>313</ele>
        <time>2023-05-28T07:03:58Z</time>
      </trkpt>
      <trkpt lat="45.72441" lon="5.37336">
        <ele>312.8</ele>
        <time>2023-05-28T07:03:59Z</time>
      </trkpt>
      <trkpt lat="45.72441" lon="5.37336">
        <ele>312.8</ele>
        <time>2023-05-28T07:04:00Z</time>
      </trkpt>
      <trkpt lat="45.72447" lon="5.37358">
        <ele>312.6</ele>
        <time>2023-05-28T07:04:01Z</time>
      </trkpt>
      <trkpt lat="45.72453" lon="5.3738">
        <ele>312.4</ele>
        <time>2023-05-28T07:04:03Z</time>
      </trkpt>
      <trkpt lat="45.72453" lon="5.3738">
        <ele>312.4</ele>
        <time>2023-05-28T07:04:04Z</time>
      </trkpt>
      <trkpt lat="45.7246" lon="5.37411">
        <ele>312.2</ele>
        <time>2023-05-28T07:04:06Z</time>
      </trkpt>
      <trkpt lat="45.72463" lon="5.37421">
        <ele>312</ele>
        <time>2023-05-28T07:04:08Z</time>
      </trkpt>
      <trkpt lat="45.72466" lon="5.37432">
        <ele>312</ele>
        <time>2023-05-28T07:04:09Z</time>
      </trkpt>
      <trkpt lat="45.7247" lon="5.37451">
        <ele>311.8</ele>
        <time>2023-05-28T07:04:10Z</time>
      </trkpt>
      <trkpt lat="45.72475" lon="5.3747">
        <ele>312</ele>
        <time>2023-05-28T07:04:12Z</time>
      </trkpt>
      <trkpt lat="45.7248" lon="5.37489">
        <ele>311.8</ele>
        <time>2023-05-28T07:04:14Z</time>
      </trkpt>
      <trkpt lat="45.72483" lon="5.37499">
        <ele>311.6</ele>
        <time>2023-05-28T07:04:15Z</time>
      </trkpt>
      <trkpt lat="45.72485" lon="5.37508">
        <ele>311.6</ele>
        <time>2023-05-28T07:04:16Z</time>
      </trkpt>
      <trkpt lat="45.72488" lon="5.37518">
        <ele>311.6</ele>
        <time>2023-05-28T07:04:17Z</time>
      </trkpt>
      <trkpt lat="45.72491" lon="5.37527">
        <ele>311.4</ele>
        <time>2023-05-28T07:04:18Z</time>
      </trkpt>
      <trkpt lat="45.72493" lon="5.37536">
        <ele>311.4</ele>
        <time>2023-05-28T07:04:19Z</time>
      </trkpt>
      <trkpt lat="45.72495" lon="5.37545">
        <ele>311.2</ele>
        <time>2023-05-28T07:04:20Z</time>
      </trkpt>
      <trkpt lat="45.725" lon="5.37562">
        <ele>311.2</ele>
        <time>2023-05-28T07:04:22Z</time>
      </trkpt>
      <trkpt lat="45.72502" lon="5.3757">
        <ele>311.2</ele>
        <time>2023-05-28T07:04:23Z</time>
      </trkpt>
      <trkpt lat="45.72504" lon="5.37579">
        <ele>311</ele>
        <time>2023-05-28T07:04:24Z</time>
      </trkpt>
      <trkpt lat="45.72506" lon="5.37587">
        <ele>311</ele>
        <time>2023-05-28T07:04:25Z</time>
      </trkpt>
      <trkpt lat="45.72509" lon="5.37595">
        <ele>311</ele>
        <time>2023-05-28T07:04:26Z</time>
      </trkpt>
      <trkpt lat="45.72511" lon="5.37604">
        <ele>311.2</ele>
        <time>2023-05-28T07:04:27Z</time>
      </trkpt>
      <trkpt lat="45.72514" lon="5.37612">
        <ele>311.2</ele>
        <time>2023-05-28T07:04:28Z</time>
      </trkpt>
      <trkpt lat="45.72517" lon="5.3762">
        <ele>311.2</ele>
        <time>2023-05-28T07:04:29Z</time>
      </trkpt>
      <trkpt lat="45.7252" lon="5.37628">
        <ele>311.2</ele>
        <time>2023-05-28T07:04:30Z</time>
      </trkpt>
      <trkpt lat="45.72523" lon="5.37635">
        <ele>311.4</ele>
        <time>2023-05-28T07:04:31Z</time>
      </trkpt>
      <trkpt lat="45.72527" lon="5.37642">
        <ele>311.6</ele>
        <time>2023-05-28T07:04:32Z</time>
      </trkpt>
      <trkpt lat="45.72532" lon="5.3765">
        <ele>311.8</ele>
        <time>2023-05-28T07:04:33Z</time>
      </trkpt>
      <trkpt lat="45.72532" lon="5.3765">
        <ele>312</ele>
        <time>2023-05-28T07:04:34Z</time>
      </trkpt>
      <trkpt lat="45.72535" lon="5.37656">
        <ele>312.2</ele>
        <time>2023-05-28T07:04:35Z</time>
      </trkpt>
      <trkpt lat="45.72544" lon="5.37669">
        <ele>312.4</ele>
        <time>2023-05-28T07:04:36Z</time>
      </trkpt>
      <trkpt lat="45.72548" lon="5.37675">
        <ele>312.4</ele>
        <time>2023-05-28T07:04:37Z</time>
      </trkpt>
      <trkpt lat="45.72553" lon="5.37682">
        <ele>312.6</ele>
        <time>2023-05-28T07:04:38Z</time>
      </trkpt>
      <trkpt lat="45.72558" lon="5.37688">
        <ele>312.6</ele>
        <time>2023-05-28T07:04:39Z</time>
      </trkpt>
      <trkpt lat="45.72562" lon="5.37694">
        <ele>312.8</ele>
        <time>2023-05-28T07:04:40Z</time>
      </trkpt>
      <trkpt lat="45.72566" lon="5.377">
        <ele>313</ele>
        <time>2023-05-28T07:04:41Z</time>
      </trkpt>
      <trkpt lat="45.72572" lon="5.37708">
        <ele>313.2</ele>
        <time>2023-05-28T07:04:42Z</time>
      </trkpt>
      <trkpt lat="45.72576" lon="5.37714">
        <ele>313.4</ele>
        <time>2023-05-28T07:04:43Z</time>
      </trkpt>
      <trkpt lat="45.72579" lon="5.37719">
        <ele>313.4</ele>
        <time>2023-05-28T07:04:44Z</time>
      </trkpt>
      <trkpt lat="45.72583" lon="5.37726">
        <ele>313.8</ele>
        <time>2023-05-28T07:04:45Z</time>
      </trkpt>
      <trkpt lat="45.72588" lon="5.37733">
        <ele>313.8</ele>
        <time>2023-05-28T07:04:46Z</time>
      </trkpt>
      <trkpt lat="45.72592" lon="5.37739">
        <ele>314</ele>
        <time>2023-05-28T07:04:47Z</time>
      </trkpt>
      <trkpt lat="45.72596" lon="5.37744">
        <ele>314.2</ele>
        <time>2023-05-28T07:04:48Z</time>
      </trkpt>
      <trkpt lat="45.72599" lon="5.37749">
        <ele>314.4</ele>
        <time>2023-05-28T07:04:49Z</time>
      </trkpt>
      <trkpt lat="45.72603" lon="5.37754">
        <ele>314.6</ele>
        <time>2023-05-28T07:04:50Z</time>
      </trkpt>
      <trkpt lat="45.72607" lon="5.37761">
        <ele>314.8</ele>
        <time>2023-05-28T07:04:51Z</time>
      </trkpt>
      <trkpt lat="45.72607" lon="5.37761">
        <ele>315.2</ele>
        <time>2023-05-28T07:04:52Z</time>
      </trkpt>
      <trkpt lat="45.72613" lon="5.3777">
        <ele>315.4</ele>
        <time>2023-05-28T07:04:53Z</time>
      </trkpt>
      <trkpt lat="45.72616" lon="5.37775">
        <ele>315.8</ele>
        <time>2023-05-28T07:04:54Z</time>
      </trkpt>
      <trkpt lat="45.7262" lon="5.3778">
        <ele>316</ele>
        <time>2023-05-28T07:04:55Z</time>
      </trkpt>
      <trkpt lat="45.72623" lon="5.37785">
        <ele>316</ele>
        <time>2023-05-28T07:04:56Z</time>
      </trkpt>
      <trkpt lat="45.72623" lon="5.37785">
        <ele>316.4</ele>
        <time>2023-05-28T07:04:57Z</time>
      </trkpt>
      <trkpt lat="45.7263" lon="5.37793">
        <ele>316.6</ele>
        <time>2023-05-28T07:04:58Z</time>
      </trkpt>
      <trkpt lat="45.72633" lon="5.37797">
        <ele>317</ele>
        <time>2023-05-28T07:04:59Z</time>
      </trkpt>
      <trkpt lat="45.72636" lon="5.378">
        <ele>317.2</ele>
        <time>2023-05-28T07:05:00Z</time>
      </trkpt>
      <trkpt lat="45.72638" lon="5.37805">
        <ele>317.4</ele>
        <time>2023-05-28T07:05:01Z</time>
      </trkpt>
      <trkpt lat="45.7264" lon="5.37809">
        <ele>317.6</ele>
        <time>2023-05-28T07:05:02Z</time>
      </trkpt>
      <trkpt lat="45.72643" lon="5.37813">
        <ele>317.8</ele>
        <time>2023-05-28T07:05:03Z</time>
      </trkpt>
      <trkpt lat="45.72644" lon="5.37816">
        <ele>318.4</ele>
        <time>2023-05-28T07:05:04Z</time>
      </trkpt>
      <trkpt lat="45.72647" lon="5.3782">
        <ele>318.6</ele>
        <time>2023-05-28T07:05:05Z</time>
      </trkpt>
      <trkpt lat="45.72649" lon="5.37825">
        <ele>318.8</ele>
        <time>2023-05-28T07:05:06Z</time>
      </trkpt>
      <trkpt lat="45.72651" lon="5.3783">
        <ele>319</ele>
        <time>2023-05-28T07:05:07Z</time>
      </trkpt>
      <trkpt lat="45.72654" lon="5.37839">
        <ele>319.4</ele>
        <time>2023-05-28T07:05:09Z</time>
      </trkpt>
      <trkpt lat="45.72655" lon="5.37845">
        <ele>319.4</ele>
        <time>2023-05-28T07:05:10Z</time>
      </trkpt>
      <trkpt lat="45.72657" lon="5.37849">
        <ele>319.6</ele>
        <time>2023-05-28T07:05:11Z</time>
      </trkpt>
      <trkpt lat="45.72658" lon="5.37853">
        <ele>319.6</ele>
        <time>2023-05-28T07:05:12Z</time>
      </trkpt>
      <trkpt lat="45.72659" lon="5.37857">
        <ele>319.8</ele>
        <time>2023-05-28T07:05:13Z</time>
      </trkpt>
      <trkpt lat="45.72661" lon="5.37862">
        <ele>319.8</ele>
        <time>2023-05-28T07:05:14Z</time>
      </trkpt>
      <trkpt lat="45.72662" lon="5.37867">
        <ele>320.2</ele>
        <time>2023-05-28T07:05:15Z</time>
      </trkpt>
      <trkpt lat="45.72664" lon="5.37874">
        <ele>320.6</ele>
        <time>2023-05-28T07:05:17Z</time>
      </trkpt>
      <trkpt lat="45.72666" lon="5.37879">
        <ele>321.2</ele>
        <time>2023-05-28T07:05:18Z</time>
      </trkpt>
      <trkpt lat="45.72666" lon="5.37884">
        <ele>321.2</ele>
        <time>2023-05-28T07:05:19Z</time>
      </trkpt>
      <trkpt lat="45.72667" lon="5.37888">
        <ele>321.6</ele>
        <time>2023-05-28T07:05:20Z</time>
      </trkpt>
      <trkpt lat="45.72668" lon="5.37894">
        <ele>322</ele>
        <time>2023-05-28T07:05:21Z</time>
      </trkpt>
      <trkpt lat="45.72668" lon="5.37898">
        <ele>322.2</ele>
        <time>2023-05-28T07:05:22Z</time>
      </trkpt>
      <trkpt lat="45.72669" lon="5.37902">
        <ele>322.4</ele>
        <time>2023-05-28T07:05:23Z</time>
      </trkpt>
      <trkpt lat="45.7267" lon="5.37914">
        <ele>323</ele>
        <time>2023-05-28T07:05:25Z</time>
      </trkpt>
      <trkpt lat="45.72671" lon="5.37919">
        <ele>323.2</ele>
        <time>2023-05-28T07:05:26Z</time>
      </trkpt>
      <trkpt lat="45.72673" lon="5.37924">
        <ele>323.6</ele>
        <time>2023-05-28T07:05:27Z</time>
      </trkpt>
      <trkpt lat="45.72674" lon="5.37929">
        <ele>323.8</ele>
        <time>2023-05-28T07:05:28Z</time>
      </trkpt>
      <trkpt lat="45.72677" lon="5.37941">
        <ele>324.4</ele>
        <time>2023-05-28T07:05:30Z</time>
      </trkpt>
      <trkpt lat="45.72679" lon="5.37946">
        <ele>324.6</ele>
        <time>2023-05-28T07:05:31Z</time>
      </trkpt>
      <trkpt lat="45.7268" lon="5.37951">
        <ele>324.8</ele>
        <time>2023-05-28T07:05:32Z</time>
      </trkpt>
      <trkpt lat="45.72682" lon="5.37956">
        <ele>324.8</ele>
        <time>2023-05-28T07:05:33Z</time>
      </trkpt>
      <trkpt lat="45.72684" lon="5.37962">
        <ele>325</ele>
        <time>2023-05-28T07:05:34Z</time>
      </trkpt>
      <trkpt lat="45.72688" lon="5.37973">
        <ele>325.2</ele>
        <time>2023-05-28T07:05:36Z</time>
      </trkpt>
      <trkpt lat="45.72689" lon="5.37977">
        <ele>325.4</ele>
        <time>2023-05-28T07:05:37Z</time>
      </trkpt>
      <trkpt lat="45.7269" lon="5.37983">
        <ele>325.6</ele>
        <time>2023-05-28T07:05:38Z</time>
      </trkpt>
      <trkpt lat="45.72692" lon="5.37996">
        <ele>325.8</ele>
        <time>2023-05-28T07:05:40Z</time>
      </trkpt>
      <trkpt lat="45.72694" lon="5.38003">
        <ele>326</ele>
        <time>2023-05-28T07:05:41Z</time>
      </trkpt>
      <trkpt lat="45.72695" lon="5.38008">
        <ele>326</ele>
        <time>2023-05-28T07:05:42Z</time>
      </trkpt>
      <trkpt lat="45.72697" lon="5.38014">
        <ele>326.2</ele>
        <time>2023-05-28T07:05:43Z</time>
      </trkpt>
      <trkpt lat="45.72699" lon="5.3802">
        <ele>326.4</ele>
        <time>2023-05-28T07:05:44Z</time>
      </trkpt>
      <trkpt lat="45.72703" lon="5.38031">
        <ele>326.6</ele>
        <time>2023-05-28T07:05:46Z</time>
      </trkpt>
      <trkpt lat="45.72704" lon="5.38037">
        <ele>326.8</ele>
        <time>2023-05-28T07:05:47Z</time>
      </trkpt>
      <trkpt lat="45.72706" lon="5.38043">
        <ele>326.8</ele>
        <time>2023-05-28T07:05:48Z</time>
      </trkpt>
      <trkpt lat="45.72708" lon="5.38049">
        <ele>327</ele>
        <time>2023-05-28T07:05:49Z</time>
      </trkpt>
      <trkpt lat="45.72712" lon="5.38061">
        <ele>327.2</ele>
        <time>2023-05-28T07:05:51Z</time>
      </trkpt>
      <trkpt lat="45.72714" lon="5.38067">
        <ele>327.4</ele>
        <time>2023-05-28T07:05:52Z</time>
      </trkpt>
      <trkpt lat="45.72717" lon="5.38073">
        <ele>327.4</ele>
        <time>2023-05-28T07:05:53Z</time>
      </trkpt>
      <trkpt lat="45.72719" lon="5.38077">
        <ele>327.6</ele>
        <time>2023-05-28T07:05:54Z</time>
      </trkpt>
      <trkpt lat="45.72723" lon="5.38083">
        <ele>327.6</ele>
        <time>2023-05-28T07:05:55Z</time>
      </trkpt>
      <trkpt lat="45.72726" lon="5.38087">
        <ele>327.8</ele>
        <time>2023-05-28T07:05:56Z</time>
      </trkpt>
      <trkpt lat="45.7273" lon="5.38091">
        <ele>327.8</ele>
        <time>2023-05-28T07:05:57Z</time>
      </trkpt>
      <trkpt lat="45.72734" lon="5.38097">
        <ele>328.2</ele>
        <time>2023-05-28T07:05:58Z</time>
      </trkpt>
      <trkpt lat="45.72738" lon="5.38102">
        <ele>328.4</ele>
        <time>2023-05-28T07:05:59Z</time>
      </trkpt>
      <trkpt lat="45.72742" lon="5.38106">
        <ele>328.6</ele>
        <time>2023-05-28T07:06:00Z</time>
      </trkpt>
      <trkpt lat="45.72745" lon="5.3811">
        <ele>328.4</ele>
        <time>2023-05-28T07:06:01Z</time>
      </trkpt>
      <trkpt lat="45.72749" lon="5.38114">
        <ele>328.6</ele>
        <time>2023-05-28T07:06:02Z</time>
      </trkpt>
      <trkpt lat="45.72757" lon="5.38123">
        <ele>328.8</ele>
        <time>2023-05-28T07:06:04Z</time>
      </trkpt>
      <trkpt lat="45.72761" lon="5.38127">
        <ele>328.8</ele>
        <time>2023-05-28T07:06:05Z</time>
      </trkpt>
      <trkpt lat="45.72763" lon="5.3813">
        <ele>329</ele>
        <time>2023-05-28T07:06:06Z</time>
      </trkpt>
      <trkpt lat="45.72767" lon="5.38134">
        <ele>329.2</ele>
        <time>2023-05-28T07:06:07Z</time>
      </trkpt>
      <trkpt lat="45.7277" lon="5.38138">
        <ele>329.4</ele>
        <time>2023-05-28T07:06:08Z</time>
      </trkpt>
      <trkpt lat="45.72775" lon="5.38143">
        <ele>329.6</ele>
        <time>2023-05-28T07:06:09Z</time>
      </trkpt>
      <trkpt lat="45.72782" lon="5.38151">
        <ele>329.8</ele>
        <time>2023-05-28T07:06:11Z</time>
      </trkpt>
      <trkpt lat="45.72786" lon="5.38156">
        <ele>329.8</ele>
        <time>2023-05-28T07:06:12Z</time>
      </trkpt>
      <trkpt lat="45.7279" lon="5.3816">
        <ele>329.8</ele>
        <time>2023-05-28T07:06:13Z</time>
      </trkpt>
      <trkpt lat="45.72794" lon="5.38165">
        <ele>330</ele>
        <time>2023-05-28T07:06:14Z</time>
      </trkpt>
      <trkpt lat="45.72797" lon="5.38168">
        <ele>330.2</ele>
        <time>2023-05-28T07:06:15Z</time>
      </trkpt>
      <trkpt lat="45.72801" lon="5.38172">
        <ele>330.4</ele>
        <time>2023-05-28T07:06:16Z</time>
      </trkpt>
      <trkpt lat="45.72805" lon="5.38176">
        <ele>330.4</ele>
        <time>2023-05-28T07:06:17Z</time>
      </trkpt>
      <trkpt lat="45.7281" lon="5.3818">
        <ele>330.4</ele>
        <time>2023-05-28T07:06:18Z</time>
      </trkpt>
      <trkpt lat="45.72815" lon="5.38184">
        <ele>330.6</ele>
        <time>2023-05-28T07:06:19Z</time>
      </trkpt>
      <trkpt lat="45.72821" lon="5.38187">
        <ele>330.8</ele>
        <time>2023-05-28T07:06:20Z</time>
      </trkpt>
      <trkpt lat="45.72826" lon="5.3819">
        <ele>330.8</ele>
        <time>2023-05-28T07:06:21Z</time>
      </trkpt>
      <trkpt lat="45.72833" lon="5.38192">
        <ele>331</ele>
        <time>2023-05-28T07:06:22Z</time>
      </trkpt>
      <trkpt lat="45.7284" lon="5.38195">
        <ele>331</ele>
        <time>2023-05-28T07:06:23Z</time>
      </trkpt>
      <trkpt lat="45.72848" lon="5.38197">
        <ele>331</ele>
        <time>2023-05-28T07:06:24Z</time>
      </trkpt>
      <trkpt lat="45.72855" lon="5.38199">
        <ele>331</ele>
        <time>2023-05-28T07:06:25Z</time>
      </trkpt>
      <trkpt lat="45.72863" lon="5.38202">
        <ele>331</ele>
        <time>2023-05-28T07:06:26Z</time>
      </trkpt>
      <trkpt lat="45.72871" lon="5.38204">
        <ele>331</ele>
        <time>2023-05-28T07:06:27Z</time>
      </trkpt>
      <trkpt lat="45.72879" lon="5.38207">
        <ele>331</ele>
        <time>2023-05-28T07:06:28Z</time>
      </trkpt>
      <trkpt lat="45.72887" lon="5.38209">
        <ele>330.8</ele>
        <time>2023-05-28T07:06:29Z</time>
      </trkpt>
      <trkpt lat="45.72887" lon="5.38209">
        <ele>330.8</ele>
        <time>2023-05-28T07:06:30Z</time>
      </trkpt>
      <trkpt lat="45.72903" lon="5.38214">
        <ele>330.6</ele>
        <time>2023-05-28T07:06:31Z</time>
      </trkpt>
      <trkpt lat="45.72911" lon="5.38217">
        <ele>330.2</ele>
        <time>2023-05-28T07:06:32Z</time>
      </trkpt>
      <trkpt lat="45.72919" lon="5.38219">
        <ele>330</ele>
        <time>2023-05-28T07:06:33Z</time>
      </trkpt>
      <trkpt lat="45.72926" lon="5.38222">
        <ele>329.8</ele>
        <time>2023-05-28T07:06:34Z</time>
      </trkpt>
      <trkpt lat="45.72934" lon="5.38226">
        <ele>329.8</ele>
        <time>2023-05-28T07:06:35Z</time>
      </trkpt>
      <trkpt lat="45.72941" lon="5.3823">
        <ele>329.6</ele>
        <time>2023-05-28T07:06:36Z</time>
      </trkpt>
      <trkpt lat="45.72948" lon="5.38235">
        <ele>329.2</ele>
        <time>2023-05-28T07:06:37Z</time>
      </trkpt>
      <trkpt lat="45.72955" lon="5.3824">
        <ele>329.2</ele>
        <time>2023-05-28T07:06:38Z</time>
      </trkpt>
      <trkpt lat="45.72962" lon="5.38246">
        <ele>328.8</ele>
        <time>2023-05-28T07:06:39Z</time>
      </trkpt>
      <trkpt lat="45.72969" lon="5.38251">
        <ele>328.8</ele>
        <time>2023-05-28T07:06:40Z</time>
      </trkpt>
      <trkpt lat="45.72977" lon="5.38255">
        <ele>328.4</ele>
        <time>2023-05-28T07:06:41Z</time>
      </trkpt>
      <trkpt lat="45.72984" lon="5.38258">
        <ele>328.4</ele>
        <time>2023-05-28T07:06:42Z</time>
      </trkpt>
      <trkpt lat="45.72992" lon="5.38259">
        <ele>328.2</ele>
        <time>2023-05-28T07:06:43Z</time>
      </trkpt>
      <trkpt lat="45.72992" lon="5.38259">
        <ele>328.2</ele>
        <time>2023-05-28T07:06:44Z</time>
      </trkpt>
      <trkpt lat="45.73008" lon="5.38262">
        <ele>328.2</ele>
        <time>2023-05-28T07:06:45Z</time>
      </trkpt>
      <trkpt lat="45.73015" lon="5.38264">
        <ele>328</ele>
        <time>2023-05-28T07:06:46Z</time>
      </trkpt>
      <trkpt lat="45.73023" lon="5.38267">
        <ele>328</ele>
        <time>2023-05-28T07:06:47Z</time>
      </trkpt>
      <trkpt lat="45.7303" lon="5.3827">
        <ele>328</ele>
        <time>2023-05-28T07:06:48Z</time>
      </trkpt>
      <trkpt lat="45.73037" lon="5.38274">
        <ele>327.8</ele>
        <time>2023-05-28T07:06:49Z</time>
      </trkpt>
      <trkpt lat="45.73037" lon="5.38274">
        <ele>327.6</ele>
        <time>2023-05-28T07:06:50Z</time>
      </trkpt>
      <trkpt lat="45.73051" lon="5.38281">
        <ele>327.6</ele>
        <time>2023-05-28T07:06:51Z</time>
      </trkpt>
      <trkpt lat="45.73059" lon="5.38286">
        <ele>327.4</ele>
        <time>2023-05-28T07:06:52Z</time>
      </trkpt>
      <trkpt lat="45.73066" lon="5.3829">
        <ele>327.4</ele>
        <time>2023-05-28T07:06:53Z</time>
      </trkpt>
      <trkpt lat="45.73073" lon="5.38294">
        <ele>327.4</ele>
        <time>2023-05-28T07:06:54Z</time>
      </trkpt>
      <trkpt lat="45.73081" lon="5.38298">
        <ele>327.4</ele>
        <time>2023-05-28T07:06:55Z</time>
      </trkpt>
      <trkpt lat="45.73088" lon="5.38303">
        <ele>327.4</ele>
        <time>2023-05-28T07:06:56Z</time>
      </trkpt>
      <trkpt lat="45.73095" lon="5.38308">
        <ele>327.2</ele>
        <time>2023-05-28T07:06:57Z</time>
      </trkpt>
      <trkpt lat="45.73102" lon="5.38313">
        <ele>327</ele>
        <time>2023-05-28T07:06:58Z</time>
      </trkpt>
      <trkpt lat="45.7311" lon="5.38318">
        <ele>327</ele>
        <time>2023-05-28T07:06:59Z</time>
      </trkpt>
      <trkpt lat="45.73117" lon="5.38323">
        <ele>326.8</ele>
        <time>2023-05-28T07:07:00Z</time>
      </trkpt>
      <trkpt lat="45.73124" lon="5.38329">
        <ele>326.8</ele>
        <time>2023-05-28T07:07:01Z</time>
      </trkpt>
      <trkpt lat="45.73131" lon="5.38335">
        <ele>326.6</ele>
        <time>2023-05-28T07:07:02Z</time>
      </trkpt>
      <trkpt lat="45.73138" lon="5.3834">
        <ele>326.6</ele>
        <time>2023-05-28T07:07:03Z</time>
      </trkpt>
      <trkpt lat="45.73146" lon="5.38347">
        <ele>326.4</ele>
        <time>2023-05-28T07:07:04Z</time>
      </trkpt>
      <trkpt lat="45.73153" lon="5.38353">
        <ele>326.4</ele>
        <time>2023-05-28T07:07:05Z</time>
      </trkpt>
      <trkpt lat="45.7316" lon="5.38359">
        <ele>326</ele>
        <time>2023-05-28T07:07:06Z</time>
      </trkpt>
      <trkpt lat="45.73169" lon="5.38367">
        <ele>325.8</ele>
        <time>2023-05-28T07:07:07Z</time>
      </trkpt>
      <trkpt lat="45.73176" lon="5.38374">
        <ele>325.6</ele>
        <time>2023-05-28T07:07:08Z</time>
      </trkpt>
      <trkpt lat="45.73183" lon="5.3838">
        <ele>325.6</ele>
        <time>2023-05-28T07:07:09Z</time>
      </trkpt>
      <trkpt lat="45.73189" lon="5.38385">
        <ele>325.4</ele>
        <time>2023-05-28T07:07:10Z</time>
      </trkpt>
      <trkpt lat="45.73196" lon="5.38392">
        <ele>325.4</ele>
        <time>2023-05-28T07:07:11Z</time>
      </trkpt>
      <trkpt lat="45.73203" lon="5.38398">
        <ele>325.4</ele>
        <time>2023-05-28T07:07:12Z</time>
      </trkpt>
      <trkpt lat="45.73212" lon="5.38405">
        <ele>325.2</ele>
        <time>2023-05-28T07:07:13Z</time>
      </trkpt>
      <trkpt lat="45.73217" lon="5.3841">
        <ele>325</ele>
        <time>2023-05-28T07:07:14Z</time>
      </trkpt>
      <trkpt lat="45.73225" lon="5.38417">
        <ele>325</ele>
        <time>2023-05-28T07:07:15Z</time>
      </trkpt>
      <trkpt lat="45.73232" lon="5.38423">
        <ele>324.8</ele>
        <time>2023-05-28T07:07:16Z</time>
      </trkpt>
      <trkpt lat="45.7324" lon="5.3843">
        <ele>324.6</ele>
        <time>2023-05-28T07:07:17Z</time>
      </trkpt>
      <trkpt lat="45.73247" lon="5.38436">
        <ele>324.4</ele>
        <time>2023-05-28T07:07:18Z</time>
      </trkpt>
      <trkpt lat="45.73253" lon="5.38441">
        <ele>324.4</ele>
        <time>2023-05-28T07:07:19Z</time>
      </trkpt>
      <trkpt lat="45.7326" lon="5.38447">
        <ele>324.4</ele>
        <time>2023-05-28T07:07:20Z</time>
      </trkpt>
      <trkpt lat="45.73269" lon="5.38454">
        <ele>324.4</ele>
        <time>2023-05-28T07:07:21Z</time>
      </trkpt>
      <trkpt lat="45.73275" lon="5.38459">
        <ele>324.4</ele>
        <time>2023-05-28T07:07:22Z</time>
      </trkpt>
      <trkpt lat="45.73281" lon="5.38464">
        <ele>324.4</ele>
        <time>2023-05-28T07:07:23Z</time>
      </trkpt>
      <trkpt lat="45.73288" lon="5.3847">
        <ele>324.4</ele>
        <time>2023-05-28T07:07:24Z</time>
      </trkpt>
      <trkpt lat="45.73294" lon="5.38476">
        <ele>324.4</ele>
        <time>2023-05-28T07:07:25Z</time>
      </trkpt>
      <trkpt lat="45.73302" lon="5.38483">
        <ele>324.4</ele>
        <time>2023-05-28T07:07:26Z</time>
      </trkpt>
      <trkpt lat="45.73308" lon="5.38489">
        <ele>324.4</ele>
        <time>2023-05-28T07:07:27Z</time>
      </trkpt>
      <trkpt lat="45.73315" lon="5.38496">
        <ele>324.6</ele>
        <time>2023-05-28T07:07:28Z</time>
      </trkpt>
      <trkpt lat="45.73319" lon="5.38501">
        <ele>324.6</ele>
        <time>2023-05-28T07:07:29Z</time>
      </trkpt>
      <trkpt lat="45.73326" lon="5.38508">
        <ele>324.6</ele>
        <time>2023-05-28T07:07:30Z</time>
      </trkpt>
      <trkpt lat="45.73333" lon="5.38517">
        <ele>324.6</ele>
        <time>2023-05-28T07:07:31Z</time>
      </trkpt>
      <trkpt lat="45.7334" lon="5.38524">
        <ele>324.6</ele>
        <time>2023-05-28T07:07:32Z</time>
      </trkpt>
      <trkpt lat="45.73345" lon="5.3853">
        <ele>324.8</ele>
        <time>2023-05-28T07:07:33Z</time>
      </trkpt>
      <trkpt lat="45.73351" lon="5.38537">
        <ele>324.8</ele>
        <time>2023-05-28T07:07:34Z</time>
      </trkpt>
      <trkpt lat="45.73358" lon="5.38547">
        <ele>324.8</ele>
        <time>2023-05-28T07:07:35Z</time>
      </trkpt>
      <trkpt lat="45.73365" lon="5.38554">
        <ele>324.8</ele>
        <time>2023-05-28T07:07:36Z</time>
      </trkpt>
      <trkpt lat="45.73371" lon="5.38562">
        <ele>324.8</ele>
        <time>2023-05-28T07:07:37Z</time>
      </trkpt>
      <trkpt lat="45.73377" lon="5.38569">
        <ele>324.8</ele>
        <time>2023-05-28T07:07:38Z</time>
      </trkpt>
      <trkpt lat="45.73383" lon="5.38577">
        <ele>324.8</ele>
        <time>2023-05-28T07:07:39Z</time>
      </trkpt>
      <trkpt lat="45.7339" lon="5.38587">
        <ele>324.8</ele>
        <time>2023-05-28T07:07:40Z</time>
      </trkpt>
      <trkpt lat="45.73396" lon="5.38595">
        <ele>324.8</ele>
        <time>2023-05-28T07:07:41Z</time>
      </trkpt>
      <trkpt lat="45.73403" lon="5.38604">
        <ele>324.6</ele>
        <time>2023-05-28T07:07:42Z</time>
      </trkpt>
      <trkpt lat="45.73407" lon="5.38611">
        <ele>324.6</ele>
        <time>2023-05-28T07:07:43Z</time>
      </trkpt>
      <trkpt lat="45.73413" lon="5.38619">
        <ele>324.4</ele>
        <time>2023-05-28T07:07:44Z</time>
      </trkpt>
      <trkpt lat="45.7342" lon="5.3863">
        <ele>324.4</ele>
        <time>2023-05-28T07:07:45Z</time>
      </trkpt>
      <trkpt lat="45.73426" lon="5.38639">
        <ele>324.4</ele>
        <time>2023-05-28T07:07:46Z</time>
      </trkpt>
      <trkpt lat="45.73431" lon="5.38646">
        <ele>324.4</ele>
        <time>2023-05-28T07:07:47Z</time>
      </trkpt>
      <trkpt lat="45.73436" lon="5.38654">
        <ele>324.4</ele>
        <time>2023-05-28T07:07:48Z</time>
      </trkpt>
      <trkpt lat="45.73442" lon="5.38662">
        <ele>324.6</ele>
        <time>2023-05-28T07:07:49Z</time>
      </trkpt>
      <trkpt lat="45.7345" lon="5.38672">
        <ele>324.6</ele>
        <time>2023-05-28T07:07:50Z</time>
      </trkpt>
      <trkpt lat="45.73456" lon="5.38679">
        <ele>324.6</ele>
        <time>2023-05-28T07:07:51Z</time>
      </trkpt>
      <trkpt lat="45.73462" lon="5.38684">
        <ele>324.4</ele>
        <time>2023-05-28T07:07:52Z</time>
      </trkpt>
      <trkpt lat="45.73469" lon="5.3869">
        <ele>324.2</ele>
        <time>2023-05-28T07:07:53Z</time>
      </trkpt>
      <trkpt lat="45.73477" lon="5.38698">
        <ele>324.2</ele>
        <time>2023-05-28T07:07:54Z</time>
      </trkpt>
      <trkpt lat="45.73484" lon="5.38705">
        <ele>324</ele>
        <time>2023-05-28T07:07:55Z</time>
      </trkpt>
      <trkpt lat="45.73489" lon="5.38712">
        <ele>323.8</ele>
        <time>2023-05-28T07:07:56Z</time>
      </trkpt>
      <trkpt lat="45.73494" lon="5.38721">
        <ele>323.6</ele>
        <time>2023-05-28T07:07:57Z</time>
      </trkpt>
      <trkpt lat="45.73498" lon="5.38732">
        <ele>323.4</ele>
        <time>2023-05-28T07:07:58Z</time>
      </trkpt>
      <trkpt lat="45.73502" lon="5.38746">
        <ele>323.2</ele>
        <time>2023-05-28T07:07:59Z</time>
      </trkpt>
      <trkpt lat="45.73503" lon="5.38759">
        <ele>323.2</ele>
        <time>2023-05-28T07:08:00Z</time>
      </trkpt>
      <trkpt lat="45.73503" lon="5.38769">
        <ele>323.2</ele>
        <time>2023-05-28T07:08:01Z</time>
      </trkpt>
      <trkpt lat="45.73503" lon="5.38796">
        <ele>323</ele>
        <time>2023-05-28T07:08:03Z</time>
      </trkpt>
      <trkpt lat="45.73503" lon="5.38809">
        <ele>322.8</ele>
        <time>2023-05-28T07:08:04Z</time>
      </trkpt>
      <trkpt lat="45.73503" lon="5.38826">
        <ele>322.8</ele>
        <time>2023-05-28T07:08:05Z</time>
      </trkpt>
      <trkpt lat="45.73503" lon="5.38837">
        <ele>322.8</ele>
        <time>2023-05-28T07:08:06Z</time>
      </trkpt>
      <trkpt lat="45.73503" lon="5.38851">
        <ele>322.4</ele>
        <time>2023-05-28T07:08:07Z</time>
      </trkpt>
      <trkpt lat="45.73503" lon="5.38868">
        <ele>322.2</ele>
        <time>2023-05-28T07:08:08Z</time>
      </trkpt>
      <trkpt lat="45.73503" lon="5.38883">
        <ele>322</ele>
        <time>2023-05-28T07:08:09Z</time>
      </trkpt>
      <trkpt lat="45.73503" lon="5.38909">
        <ele>321.6</ele>
        <time>2023-05-28T07:08:11Z</time>
      </trkpt>
      <trkpt lat="45.73502" lon="5.38937">
        <ele>321.4</ele>
        <time>2023-05-28T07:08:13Z</time>
      </trkpt>
      <trkpt lat="45.73503" lon="5.38955">
        <ele>321.2</ele>
        <time>2023-05-28T07:08:14Z</time>
      </trkpt>
      <trkpt lat="45.73504" lon="5.38969">
        <ele>321</ele>
        <time>2023-05-28T07:08:15Z</time>
      </trkpt>
      <trkpt lat="45.73506" lon="5.3898">
        <ele>320.8</ele>
        <time>2023-05-28T07:08:16Z</time>
      </trkpt>
      <trkpt lat="45.7351" lon="5.38993">
        <ele>320.4</ele>
        <time>2023-05-28T07:08:17Z</time>
      </trkpt>
      <trkpt lat="45.73517" lon="5.39008">
        <ele>319.6</ele>
        <time>2023-05-28T07:08:18Z</time>
      </trkpt>
      <trkpt lat="45.73525" lon="5.39018">
        <ele>319.2</ele>
        <time>2023-05-28T07:08:19Z</time>
      </trkpt>
      <trkpt lat="45.73532" lon="5.39024">
        <ele>319.2</ele>
        <time>2023-05-28T07:08:20Z</time>
      </trkpt>
      <trkpt lat="45.73542" lon="5.39029">
        <ele>318.8</ele>
        <time>2023-05-28T07:08:21Z</time>
      </trkpt>
      <trkpt lat="45.73553" lon="5.39031">
        <ele>318.6</ele>
        <time>2023-05-28T07:08:22Z</time>
      </trkpt>
      <trkpt lat="45.73563" lon="5.39029">
        <ele>318.2</ele>
        <time>2023-05-28T07:08:23Z</time>
      </trkpt>
      <trkpt lat="45.73571" lon="5.39023">
        <ele>318</ele>
        <time>2023-05-28T07:08:24Z</time>
      </trkpt>
      <trkpt lat="45.7358" lon="5.39014">
        <ele>317.6</ele>
        <time>2023-05-28T07:08:25Z</time>
      </trkpt>
      <trkpt lat="45.73589" lon="5.39004">
        <ele>316.6</ele>
        <time>2023-05-28T07:08:26Z</time>
      </trkpt>
      <trkpt lat="45.73601" lon="5.38996">
        <ele>316.2</ele>
        <time>2023-05-28T07:08:27Z</time>
      </trkpt>
      <trkpt lat="45.7361" lon="5.38993">
        <ele>315.6</ele>
        <time>2023-05-28T07:08:28Z</time>
      </trkpt>
      <trkpt lat="45.73622" lon="5.38995">
        <ele>315.2</ele>
        <time>2023-05-28T07:08:29Z</time>
      </trkpt>
      <trkpt lat="45.73632" lon="5.39002">
        <ele>314.2</ele>
        <time>2023-05-28T07:08:30Z</time>
      </trkpt>
      <trkpt lat="45.7364" lon="5.39012">
        <ele>313.6</ele>
        <time>2023-05-28T07:08:31Z</time>
      </trkpt>
      <trkpt lat="45.73651" lon="5.39023">
        <ele>313</ele>
        <time>2023-05-28T07:08:32Z</time>
      </trkpt>
      <trkpt lat="45.73659" lon="5.3903">
        <ele>312.2</ele>
        <time>2023-05-28T07:08:33Z</time>
      </trkpt>
      <trkpt lat="45.7367" lon="5.39038">
        <ele>311.8</ele>
        <time>2023-05-28T07:08:34Z</time>
      </trkpt>
      <trkpt lat="45.7368" lon="5.39044">
        <ele>310.8</ele>
        <time>2023-05-28T07:08:35Z</time>
      </trkpt>
      <trkpt lat="45.73688" lon="5.39048">
        <ele>310.2</ele>
        <time>2023-05-28T07:08:36Z</time>
      </trkpt>
      <trkpt lat="45.737" lon="5.39054">
        <ele>309.2</ele>
        <time>2023-05-28T07:08:37Z</time>
      </trkpt>
      <trkpt lat="45.7371" lon="5.39059">
        <ele>308.8</ele>
        <time>2023-05-28T07:08:38Z</time>
      </trkpt>
      <trkpt lat="45.73719" lon="5.39064">
        <ele>308.2</ele>
        <time>2023-05-28T07:08:39Z</time>
      </trkpt>
      <trkpt lat="45.73727" lon="5.39067">
        <ele>307.8</ele>
        <time>2023-05-28T07:08:40Z</time>
      </trkpt>
      <trkpt lat="45.73736" lon="5.39072">
        <ele>306.8</ele>
        <time>2023-05-28T07:08:41Z</time>
      </trkpt>
      <trkpt lat="45.73744" lon="5.39078">
        <ele>306.2</ele>
        <time>2023-05-28T07:08:42Z</time>
      </trkpt>
      <trkpt lat="45.73753" lon="5.39086">
        <ele>306</ele>
        <time>2023-05-28T07:08:43Z</time>
      </trkpt>
      <trkpt lat="45.73759" lon="5.39093">
        <ele>305.4</ele>
        <time>2023-05-28T07:08:44Z</time>
      </trkpt>
      <trkpt lat="45.73765" lon="5.39102">
        <ele>304.8</ele>
        <time>2023-05-28T07:08:45Z</time>
      </trkpt>
      <trkpt lat="45.73771" lon="5.39111">
        <ele>304.2</ele>
        <time>2023-05-28T07:08:46Z</time>
      </trkpt>
      <trkpt lat="45.73778" lon="5.39121">
        <ele>304</ele>
        <time>2023-05-28T07:08:47Z</time>
      </trkpt>
      <trkpt lat="45.73785" lon="5.39132">
        <ele>303.4</ele>
        <time>2023-05-28T07:08:48Z</time>
      </trkpt>
      <trkpt lat="45.73789" lon="5.3914">
        <ele>302.8</ele>
        <time>2023-05-28T07:08:49Z</time>
      </trkpt>
      <trkpt lat="45.73795" lon="5.3915">
        <ele>302.4</ele>
        <time>2023-05-28T07:08:50Z</time>
      </trkpt>
      <trkpt lat="45.73802" lon="5.39161">
        <ele>301.8</ele>
        <time>2023-05-28T07:08:51Z</time>
      </trkpt>
      <trkpt lat="45.73807" lon="5.39171">
        <ele>301.6</ele>
        <time>2023-05-28T07:08:52Z</time>
      </trkpt>
      <trkpt lat="45.73812" lon="5.3918">
        <ele>301.4</ele>
        <time>2023-05-28T07:08:53Z</time>
      </trkpt>
      <trkpt lat="45.73817" lon="5.39187">
        <ele>301.4</ele>
        <time>2023-05-28T07:08:54Z</time>
      </trkpt>
      <trkpt lat="45.73822" lon="5.39196">
        <ele>300.8</ele>
        <time>2023-05-28T07:08:55Z</time>
      </trkpt>
      <trkpt lat="45.73828" lon="5.39207">
        <ele>300.4</ele>
        <time>2023-05-28T07:08:56Z</time>
      </trkpt>
      <trkpt lat="45.73834" lon="5.39216">
        <ele>300.2</ele>
        <time>2023-05-28T07:08:57Z</time>
      </trkpt>
      <trkpt lat="45.73838" lon="5.39225">
        <ele>299.8</ele>
        <time>2023-05-28T07:08:58Z</time>
      </trkpt>
      <trkpt lat="45.73843" lon="5.39232">
        <ele>299.8</ele>
        <time>2023-05-28T07:08:59Z</time>
      </trkpt>
      <trkpt lat="45.73848" lon="5.39241">
        <ele>299.6</ele>
        <time>2023-05-28T07:09:00Z</time>
      </trkpt>
      <trkpt lat="45.73853" lon="5.39251">
        <ele>299.4</ele>
        <time>2023-05-28T07:09:01Z</time>
      </trkpt>
      <trkpt lat="45.73856" lon="5.3926">
        <ele>299.2</ele>
        <time>2023-05-28T07:09:02Z</time>
      </trkpt>
      <trkpt lat="45.7386" lon="5.3927">
        <ele>299</ele>
        <time>2023-05-28T07:09:03Z</time>
      </trkpt>
      <trkpt lat="45.73863" lon="5.39281">
        <ele>299</ele>
        <time>2023-05-28T07:09:04Z</time>
      </trkpt>
      <trkpt lat="45.73865" lon="5.39292">
        <ele>298.8</ele>
        <time>2023-05-28T07:09:05Z</time>
      </trkpt>
      <trkpt lat="45.73867" lon="5.39305">
        <ele>298.6</ele>
        <time>2023-05-28T07:09:06Z</time>
      </trkpt>
      <trkpt lat="45.73868" lon="5.39317">
        <ele>298.4</ele>
        <time>2023-05-28T07:09:07Z</time>
      </trkpt>
      <trkpt lat="45.7387" lon="5.39326">
        <ele>298.2</ele>
        <time>2023-05-28T07:09:08Z</time>
      </trkpt>
      <trkpt lat="45.73872" lon="5.39337">
        <ele>298</ele>
        <time>2023-05-28T07:09:09Z</time>
      </trkpt>
      <trkpt lat="45.73874" lon="5.39351">
        <ele>297.8</ele>
        <time>2023-05-28T07:09:10Z</time>
      </trkpt>
      <trkpt lat="45.73876" lon="5.3936">
        <ele>297.8</ele>
        <time>2023-05-28T07:09:11Z</time>
      </trkpt>
      <trkpt lat="45.73878" lon="5.39373">
        <ele>297.6</ele>
        <time>2023-05-28T07:09:12Z</time>
      </trkpt>
      <trkpt lat="45.73879" lon="5.39382">
        <ele>297.6</ele>
        <time>2023-05-28T07:09:13Z</time>
      </trkpt>
      <trkpt lat="45.73881" lon="5.39394">
        <ele>297.6</ele>
        <time>2023-05-28T07:09:14Z</time>
      </trkpt>
      <trkpt lat="45.73884" lon="5.39407">
        <ele>297.6</ele>
        <time>2023-05-28T07:09:15Z</time>
      </trkpt>
      <trkpt lat="45.73886" lon="5.39418">
        <ele>297.6</ele>
        <time>2023-05-28T07:09:16Z</time>
      </trkpt>
      <trkpt lat="45.73889" lon="5.39428">
        <ele>297.6</ele>
        <time>2023-05-28T07:09:17Z</time>
      </trkpt>
      <trkpt lat="45.73891" lon="5.39436">
        <ele>297.6</ele>
        <time>2023-05-28T07:09:18Z</time>
      </trkpt>
      <trkpt lat="45.73895" lon="5.39446">
        <ele>297.4</ele>
        <time>2023-05-28T07:09:19Z</time>
      </trkpt>
      <trkpt lat="45.739" lon="5.39458">
        <ele>297.4</ele>
        <time>2023-05-28T07:09:20Z</time>
      </trkpt>
      <trkpt lat="45.73904" lon="5.39467">
        <ele>297.4</ele>
        <time>2023-05-28T07:09:21Z</time>
      </trkpt>
      <trkpt lat="45.73908" lon="5.39474">
        <ele>297.2</ele>
        <time>2023-05-28T07:09:22Z</time>
      </trkpt>
      <trkpt lat="45.73914" lon="5.39482">
        <ele>297.4</ele>
        <time>2023-05-28T07:09:23Z</time>
      </trkpt>
      <trkpt lat="45.73921" lon="5.39492">
        <ele>297</ele>
        <time>2023-05-28T07:09:24Z</time>
      </trkpt>
      <trkpt lat="45.73927" lon="5.395">
        <ele>297.2</ele>
        <time>2023-05-28T07:09:25Z</time>
      </trkpt>
      <trkpt lat="45.73934" lon="5.39508">
        <ele>296.8</ele>
        <time>2023-05-28T07:09:26Z</time>
      </trkpt>
      <trkpt lat="45.7394" lon="5.39513">
        <ele>296.6</ele>
        <time>2023-05-28T07:09:27Z</time>
      </trkpt>
      <trkpt lat="45.73947" lon="5.3952">
        <ele>296.4</ele>
        <time>2023-05-28T07:09:28Z</time>
      </trkpt>
      <trkpt lat="45.73955" lon="5.39528">
        <ele>296.4</ele>
        <time>2023-05-28T07:09:29Z</time>
      </trkpt>
      <trkpt lat="45.73961" lon="5.39536">
        <ele>296.2</ele>
        <time>2023-05-28T07:09:30Z</time>
      </trkpt>
      <trkpt lat="45.73968" lon="5.39544">
        <ele>296.2</ele>
        <time>2023-05-28T07:09:31Z</time>
      </trkpt>
      <trkpt lat="45.73972" lon="5.3955">
        <ele>296</ele>
        <time>2023-05-28T07:09:32Z</time>
      </trkpt>
      <trkpt lat="45.73978" lon="5.39558">
        <ele>295.6</ele>
        <time>2023-05-28T07:09:33Z</time>
      </trkpt>
      <trkpt lat="45.73985" lon="5.39569">
        <ele>295.6</ele>
        <time>2023-05-28T07:09:34Z</time>
      </trkpt>
      <trkpt lat="45.7399" lon="5.39577">
        <ele>295.6</ele>
        <time>2023-05-28T07:09:35Z</time>
      </trkpt>
      <trkpt lat="45.73995" lon="5.39584">
        <ele>295.6</ele>
        <time>2023-05-28T07:09:36Z</time>
      </trkpt>
      <trkpt lat="45.74" lon="5.39593">
        <ele>295.4</ele>
        <time>2023-05-28T07:09:37Z</time>
      </trkpt>
      <trkpt lat="45.74007" lon="5.39602">
        <ele>295.4</ele>
        <time>2023-05-28T07:09:38Z</time>
      </trkpt>
      <trkpt lat="45.74012" lon="5.39608">
        <ele>295.4</ele>
        <time>2023-05-28T07:09:39Z</time>
      </trkpt>
      <trkpt lat="45.7402" lon="5.39615">
        <ele>295.4</ele>
        <time>2023-05-28T07:09:40Z</time>
      </trkpt>
      <trkpt lat="45.74025" lon="5.39619">
        <ele>295.4</ele>
        <time>2023-05-28T07:09:41Z</time>
      </trkpt>
      <trkpt lat="45.74033" lon="5.39625">
        <ele>295.4</ele>
        <time>2023-05-28T07:09:42Z</time>
      </trkpt>
      <trkpt lat="45.7404" lon="5.39629">
        <ele>295.4</ele>
        <time>2023-05-28T07:09:43Z</time>
      </trkpt>
      <trkpt lat="45.74047" lon="5.39633">
        <ele>295.4</ele>
        <time>2023-05-28T07:09:44Z</time>
      </trkpt>
      <trkpt lat="45.74054" lon="5.39638">
        <ele>295.4</ele>
        <time>2023-05-28T07:09:45Z</time>
      </trkpt>
      <trkpt lat="45.7406" lon="5.39641">
        <ele>295.4</ele>
        <time>2023-05-28T07:09:46Z</time>
      </trkpt>
      <trkpt lat="45.74067" lon="5.39645">
        <ele>295.4</ele>
        <time>2023-05-28T07:09:47Z</time>
      </trkpt>
      <trkpt lat="45.74076" lon="5.39651">
        <ele>295.4</ele>
        <time>2023-05-28T07:09:48Z</time>
      </trkpt>
      <trkpt lat="45.74083" lon="5.39656">
        <ele>295.4</ele>
        <time>2023-05-28T07:09:49Z</time>
      </trkpt>
      <trkpt lat="45.74089" lon="5.39661">
        <ele>295.4</ele>
        <time>2023-05-28T07:09:50Z</time>
      </trkpt>
      <trkpt lat="45.74096" lon="5.39668">
        <ele>295.4</ele>
        <time>2023-05-28T07:09:51Z</time>
      </trkpt>
      <trkpt lat="45.74103" lon="5.39675">
        <ele>295.4</ele>
        <time>2023-05-28T07:09:52Z</time>
      </trkpt>
      <trkpt lat="45.74111" lon="5.39683">
        <ele>295.2</ele>
        <time>2023-05-28T07:09:53Z</time>
      </trkpt>
      <trkpt lat="45.7412" lon="5.39693">
        <ele>295.2</ele>
        <time>2023-05-28T07:09:54Z</time>
      </trkpt>
      <trkpt lat="45.74125" lon="5.39699">
        <ele>295.2</ele>
        <time>2023-05-28T07:09:55Z</time>
      </trkpt>
      <trkpt lat="45.74133" lon="5.39707">
        <ele>295</ele>
        <time>2023-05-28T07:09:56Z</time>
      </trkpt>
      <trkpt lat="45.74141" lon="5.39715">
        <ele>295</ele>
        <time>2023-05-28T07:09:57Z</time>
      </trkpt>
      <trkpt lat="45.74149" lon="5.39725">
        <ele>294.6</ele>
        <time>2023-05-28T07:09:58Z</time>
      </trkpt>
      <trkpt lat="45.74156" lon="5.39733">
        <ele>294.4</ele>
        <time>2023-05-28T07:09:59Z</time>
      </trkpt>
      <trkpt lat="45.74162" lon="5.3974">
        <ele>294</ele>
        <time>2023-05-28T07:10:00Z</time>
      </trkpt>
      <trkpt lat="45.74168" lon="5.3975">
        <ele>293.8</ele>
        <time>2023-05-28T07:10:01Z</time>
      </trkpt>
      <trkpt lat="45.74174" lon="5.3976">
        <ele>293.6</ele>
        <time>2023-05-28T07:10:02Z</time>
      </trkpt>
      <trkpt lat="45.7418" lon="5.39769">
        <ele>293.6</ele>
        <time>2023-05-28T07:10:03Z</time>
      </trkpt>
      <trkpt lat="45.74187" lon="5.39781">
        <ele>293.2</ele>
        <time>2023-05-28T07:10:04Z</time>
      </trkpt>
      <trkpt lat="45.74192" lon="5.3979">
        <ele>292.4</ele>
        <time>2023-05-28T07:10:05Z</time>
      </trkpt>
      <trkpt lat="45.74198" lon="5.398">
        <ele>292.2</ele>
        <time>2023-05-28T07:10:06Z</time>
      </trkpt>
      <trkpt lat="45.74205" lon="5.39812">
        <ele>291.8</ele>
        <time>2023-05-28T07:10:07Z</time>
      </trkpt>
      <trkpt lat="45.74211" lon="5.39823">
        <ele>291.6</ele>
        <time>2023-05-28T07:10:08Z</time>
      </trkpt>
      <trkpt lat="45.74215" lon="5.39831">
        <ele>291.6</ele>
        <time>2023-05-28T07:10:09Z</time>
      </trkpt>
      <trkpt lat="45.74221" lon="5.39842">
        <ele>291.6</ele>
        <time>2023-05-28T07:10:10Z</time>
      </trkpt>
      <trkpt lat="45.74227" lon="5.39852">
        <ele>291.4</ele>
        <time>2023-05-28T07:10:11Z</time>
      </trkpt>
      <trkpt lat="45.74234" lon="5.39865">
        <ele>291</ele>
        <time>2023-05-28T07:10:12Z</time>
      </trkpt>
      <trkpt lat="45.7424" lon="5.39875">
        <ele>290.6</ele>
        <time>2023-05-28T07:10:13Z</time>
      </trkpt>
      <trkpt lat="45.74245" lon="5.39883">
        <ele>290.2</ele>
        <time>2023-05-28T07:10:14Z</time>
      </trkpt>
      <trkpt lat="45.74252" lon="5.39893">
        <ele>289.8</ele>
        <time>2023-05-28T07:10:15Z</time>
      </trkpt>
      <trkpt lat="45.74259" lon="5.39902">
        <ele>289.8</ele>
        <time>2023-05-28T07:10:16Z</time>
      </trkpt>
      <trkpt lat="45.74267" lon="5.39913">
        <ele>289.4</ele>
        <time>2023-05-28T07:10:17Z</time>
      </trkpt>
      <trkpt lat="45.74275" lon="5.39921">
        <ele>289</ele>
        <time>2023-05-28T07:10:18Z</time>
      </trkpt>
      <trkpt lat="45.74281" lon="5.39927">
        <ele>288.6</ele>
        <time>2023-05-28T07:10:19Z</time>
      </trkpt>
      <trkpt lat="45.74289" lon="5.39934">
        <ele>288.6</ele>
        <time>2023-05-28T07:10:20Z</time>
      </trkpt>
      <trkpt lat="45.74298" lon="5.39943">
        <ele>288.2</ele>
        <time>2023-05-28T07:10:21Z</time>
      </trkpt>
      <trkpt lat="45.74306" lon="5.3995">
        <ele>288</ele>
        <time>2023-05-28T07:10:22Z</time>
      </trkpt>
      <trkpt lat="45.74312" lon="5.39955">
        <ele>287.8</ele>
        <time>2023-05-28T07:10:23Z</time>
      </trkpt>
      <trkpt lat="45.7432" lon="5.39962">
        <ele>287.6</ele>
        <time>2023-05-28T07:10:24Z</time>
      </trkpt>
      <trkpt lat="45.74327" lon="5.39969">
        <ele>287.4</ele>
        <time>2023-05-28T07:10:25Z</time>
      </trkpt>
      <trkpt lat="45.74336" lon="5.39979">
        <ele>287</ele>
        <time>2023-05-28T07:10:26Z</time>
      </trkpt>
      <trkpt lat="45.74343" lon="5.39987">
        <ele>286.8</ele>
        <time>2023-05-28T07:10:27Z</time>
      </trkpt>
      <trkpt lat="45.74348" lon="5.39994">
        <ele>286.4</ele>
        <time>2023-05-28T07:10:28Z</time>
      </trkpt>
      <trkpt lat="45.74354" lon="5.40003">
        <ele>286.2</ele>
        <time>2023-05-28T07:10:29Z</time>
      </trkpt>
      <trkpt lat="45.7436" lon="5.40012">
        <ele>286</ele>
        <time>2023-05-28T07:10:30Z</time>
      </trkpt>
      <trkpt lat="45.74368" lon="5.40023">
        <ele>285.8</ele>
        <time>2023-05-28T07:10:31Z</time>
      </trkpt>
      <trkpt lat="45.74374" lon="5.40032">
        <ele>285.8</ele>
        <time>2023-05-28T07:10:32Z</time>
      </trkpt>
      <trkpt lat="45.74379" lon="5.40039">
        <ele>285.6</ele>
        <time>2023-05-28T07:10:33Z</time>
      </trkpt>
      <trkpt lat="45.74386" lon="5.40048">
        <ele>285.4</ele>
        <time>2023-05-28T07:10:34Z</time>
      </trkpt>
      <trkpt lat="45.74393" lon="5.40057">
        <ele>285.4</ele>
        <time>2023-05-28T07:10:35Z</time>
      </trkpt>
      <trkpt lat="45.744" lon="5.40065">
        <ele>285.2</ele>
        <time>2023-05-28T07:10:36Z</time>
      </trkpt>
      <trkpt lat="45.74408" lon="5.40074">
        <ele>285.2</ele>
        <time>2023-05-28T07:10:37Z</time>
      </trkpt>
      <trkpt lat="45.74414" lon="5.40079">
        <ele>285</ele>
        <time>2023-05-28T07:10:38Z</time>
      </trkpt>
      <trkpt lat="45.74421" lon="5.40086">
        <ele>284.8</ele>
        <time>2023-05-28T07:10:39Z</time>
      </trkpt>
      <trkpt lat="45.74429" lon="5.40094">
        <ele>284.8</ele>
        <time>2023-05-28T07:10:40Z</time>
      </trkpt>
      <trkpt lat="45.74437" lon="5.401">
        <ele>284.6</ele>
        <time>2023-05-28T07:10:41Z</time>
      </trkpt>
      <trkpt lat="45.74444" lon="5.40106">
        <ele>284.4</ele>
        <time>2023-05-28T07:10:42Z</time>
      </trkpt>
      <trkpt lat="45.7445" lon="5.40111">
        <ele>284.2</ele>
        <time>2023-05-28T07:10:43Z</time>
      </trkpt>
      <trkpt lat="45.74458" lon="5.40116">
        <ele>284</ele>
        <time>2023-05-28T07:10:44Z</time>
      </trkpt>
      <trkpt lat="45.74468" lon="5.40123">
        <ele>283.8</ele>
        <time>2023-05-28T07:10:45Z</time>
      </trkpt>
      <trkpt lat="45.74476" lon="5.40128">
        <ele>283.8</ele>
        <time>2023-05-28T07:10:46Z</time>
      </trkpt>
      <trkpt lat="45.74482" lon="5.40132">
        <ele>283.6</ele>
        <time>2023-05-28T07:10:47Z</time>
      </trkpt>
      <trkpt lat="45.7449" lon="5.40137">
        <ele>283.6</ele>
        <time>2023-05-28T07:10:48Z</time>
      </trkpt>
      <trkpt lat="45.74498" lon="5.40142">
        <ele>283.4</ele>
        <time>2023-05-28T07:10:49Z</time>
      </trkpt>
      <trkpt lat="45.74508" lon="5.40148">
        <ele>283.4</ele>
        <time>2023-05-28T07:10:50Z</time>
      </trkpt>
      <trkpt lat="45.74516" lon="5.40153">
        <ele>283.2</ele>
        <time>2023-05-28T07:10:51Z</time>
      </trkpt>
      <trkpt lat="45.74522" lon="5.40157">
        <ele>283</ele>
        <time>2023-05-28T07:10:52Z</time>
      </trkpt>
      <trkpt lat="45.7453" lon="5.40163">
        <ele>283</ele>
        <time>2023-05-28T07:10:53Z</time>
      </trkpt>
      <trkpt lat="45.74539" lon="5.4017">
        <ele>282.8</ele>
        <time>2023-05-28T07:10:54Z</time>
      </trkpt>
      <trkpt lat="45.74545" lon="5.40174">
        <ele>282.8</ele>
        <time>2023-05-28T07:10:55Z</time>
      </trkpt>
      <trkpt lat="45.74554" lon="5.40181">
        <ele>282.8</ele>
        <time>2023-05-28T07:10:56Z</time>
      </trkpt>
      <trkpt lat="45.7456" lon="5.40185">
        <ele>282.8</ele>
        <time>2023-05-28T07:10:57Z</time>
      </trkpt>
      <trkpt lat="45.74567" lon="5.40191">
        <ele>282.6</ele>
        <time>2023-05-28T07:10:58Z</time>
      </trkpt>
      <trkpt lat="45.74576" lon="5.40197">
        <ele>282.4</ele>
        <time>2023-05-28T07:10:59Z</time>
      </trkpt>
      <trkpt lat="45.74584" lon="5.40203">
        <ele>282.4</ele>
        <time>2023-05-28T07:11:00Z</time>
      </trkpt>
      <trkpt lat="45.74592" lon="5.40209">
        <ele>282.2</ele>
        <time>2023-05-28T07:11:01Z</time>
      </trkpt>
      <trkpt lat="45.74598" lon="5.40213">
        <ele>282.2</ele>
        <time>2023-05-28T07:11:02Z</time>
      </trkpt>
      <trkpt lat="45.74606" lon="5.40218">
        <ele>282.2</ele>
        <time>2023-05-28T07:11:03Z</time>
      </trkpt>
      <trkpt lat="45.74615" lon="5.40225">
        <ele>282.2</ele>
        <time>2023-05-28T07:11:04Z</time>
      </trkpt>
      <trkpt lat="45.74623" lon="5.4023">
        <ele>282</ele>
        <time>2023-05-28T07:11:05Z</time>
      </trkpt>
      <trkpt lat="45.74629" lon="5.40234">
        <ele>282</ele>
        <time>2023-05-28T07:11:06Z</time>
      </trkpt>
      <trkpt lat="45.74637" lon="5.40238">
        <ele>282</ele>
        <time>2023-05-28T07:11:07Z</time>
      </trkpt>
      <trkpt lat="45.74644" lon="5.40243">
        <ele>282</ele>
        <time>2023-05-28T07:11:08Z</time>
      </trkpt>
      <trkpt lat="45.74654" lon="5.40248">
        <ele>282</ele>
        <time>2023-05-28T07:11:09Z</time>
      </trkpt>
      <trkpt lat="45.74662" lon="5.40253">
        <ele>282</ele>
        <time>2023-05-28T07:11:10Z</time>
      </trkpt>
      <trkpt lat="45.74668" lon="5.40256">
        <ele>282</ele>
        <time>2023-05-28T07:11:11Z</time>
      </trkpt>
      <trkpt lat="45.74676" lon="5.4026">
        <ele>281.8</ele>
        <time>2023-05-28T07:11:12Z</time>
      </trkpt>
      <trkpt lat="45.74684" lon="5.40264">
        <ele>281.8</ele>
        <time>2023-05-28T07:11:13Z</time>
      </trkpt>
      <trkpt lat="45.74692" lon="5.40268">
        <ele>281.8</ele>
        <time>2023-05-28T07:11:14Z</time>
      </trkpt>
      <trkpt lat="45.747" lon="5.40272">
        <ele>281.8</ele>
        <time>2023-05-28T07:11:15Z</time>
      </trkpt>
      <trkpt lat="45.74708" lon="5.40276">
        <ele>281.8</ele>
        <time>2023-05-28T07:11:16Z</time>
      </trkpt>
      <trkpt lat="45.74715" lon="5.4028">
        <ele>281.8</ele>
        <time>2023-05-28T07:11:17Z</time>
      </trkpt>
      <trkpt lat="45.74725" lon="5.40285">
        <ele>281.8</ele>
        <time>2023-05-28T07:11:18Z</time>
      </trkpt>
      <trkpt lat="45.74731" lon="5.40288">
        <ele>281.8</ele>
        <time>2023-05-28T07:11:19Z</time>
      </trkpt>
      <trkpt lat="45.74741" lon="5.40292">
        <ele>281.8</ele>
        <time>2023-05-28T07:11:20Z</time>
      </trkpt>
      <trkpt lat="45.74747" lon="5.40295">
        <ele>281.8</ele>
        <time>2023-05-28T07:11:21Z</time>
      </trkpt>
      <trkpt lat="45.74756" lon="5.40298">
        <ele>281.6</ele>
        <time>2023-05-28T07:11:22Z</time>
      </trkpt>
      <trkpt lat="45.74764" lon="5.40302">
        <ele>281.6</ele>
        <time>2023-05-28T07:11:23Z</time>
      </trkpt>
      <trkpt lat="45.74772" lon="5.40305">
        <ele>281.6</ele>
        <time>2023-05-28T07:11:24Z</time>
      </trkpt>
      <trkpt lat="45.7478" lon="5.40308">
        <ele>281.4</ele>
        <time>2023-05-28T07:11:25Z</time>
      </trkpt>
      <trkpt lat="45.74788" lon="5.40312">
        <ele>281.4</ele>
        <time>2023-05-28T07:11:26Z</time>
      </trkpt>
      <trkpt lat="45.74797" lon="5.40315">
        <ele>281.2</ele>
        <time>2023-05-28T07:11:27Z</time>
      </trkpt>
      <trkpt lat="45.74805" lon="5.40318">
        <ele>281.2</ele>
        <time>2023-05-28T07:11:28Z</time>
      </trkpt>
      <trkpt lat="45.74813" lon="5.40321">
        <ele>281.2</ele>
        <time>2023-05-28T07:11:29Z</time>
      </trkpt>
      <trkpt lat="45.74821" lon="5.40324">
        <ele>281</ele>
        <time>2023-05-28T07:11:30Z</time>
      </trkpt>
      <trkpt lat="45.74829" lon="5.40327">
        <ele>281</ele>
        <time>2023-05-28T07:11:31Z</time>
      </trkpt>
      <trkpt lat="45.74838" lon="5.4033">
        <ele>281</ele>
        <time>2023-05-28T07:11:32Z</time>
      </trkpt>
      <trkpt lat="45.74846" lon="5.40333">
        <ele>280.8</ele>
        <time>2023-05-28T07:11:33Z</time>
      </trkpt>
      <trkpt lat="45.74854" lon="5.40336">
        <ele>280.8</ele>
        <time>2023-05-28T07:11:34Z</time>
      </trkpt>
      <trkpt lat="45.74861" lon="5.40339">
        <ele>280.8</ele>
        <time>2023-05-28T07:11:35Z</time>
      </trkpt>
      <trkpt lat="45.74869" lon="5.40342">
        <ele>280.8</ele>
        <time>2023-05-28T07:11:36Z</time>
      </trkpt>
      <trkpt lat="45.74878" lon="5.40345">
        <ele>280.8</ele>
        <time>2023-05-28T07:11:37Z</time>
      </trkpt>
      <trkpt lat="45.74886" lon="5.40348">
        <ele>280.8</ele>
        <time>2023-05-28T07:11:38Z</time>
      </trkpt>
      <trkpt lat="45.74894" lon="5.4035">
        <ele>280.8</ele>
        <time>2023-05-28T07:11:39Z</time>
      </trkpt>
      <trkpt lat="45.74902" lon="5.40353">
        <ele>280.6</ele>
        <time>2023-05-28T07:11:40Z</time>
      </trkpt>
      <trkpt lat="45.7491" lon="5.40356">
        <ele>280.6</ele>
        <time>2023-05-28T07:11:41Z</time>
      </trkpt>
      <trkpt lat="45.74918" lon="5.40359">
        <ele>280.6</ele>
        <time>2023-05-28T07:11:42Z</time>
      </trkpt>
      <trkpt lat="45.74925" lon="5.40361">
        <ele>280.6</ele>
        <time>2023-05-28T07:11:43Z</time>
      </trkpt>
      <trkpt lat="45.74932" lon="5.40364">
        <ele>280.6</ele>
        <time>2023-05-28T07:11:44Z</time>
      </trkpt>
      <trkpt lat="45.74939" lon="5.40367">
        <ele>280.4</ele>
        <time>2023-05-28T07:11:45Z</time>
      </trkpt>
      <trkpt lat="45.74946" lon="5.40371">
        <ele>280.4</ele>
        <time>2023-05-28T07:11:46Z</time>
      </trkpt>
      <trkpt lat="45.74952" lon="5.40376">
        <ele>280.4</ele>
        <time>2023-05-28T07:11:47Z</time>
      </trkpt>
      <trkpt lat="45.74956" lon="5.40383">
        <ele>280.4</ele>
        <time>2023-05-28T07:11:48Z</time>
      </trkpt>
      <trkpt lat="45.7496" lon="5.4039">
        <ele>280.4</ele>
        <time>2023-05-28T07:11:49Z</time>
      </trkpt>
      <trkpt lat="45.74963" lon="5.40397">
        <ele>280.2</ele>
        <time>2023-05-28T07:11:50Z</time>
      </trkpt>
      <trkpt lat="45.74966" lon="5.40402">
        <ele>280.2</ele>
        <time>2023-05-28T07:11:51Z</time>
      </trkpt>
      <trkpt lat="45.7497" lon="5.40406">
        <ele>280.2</ele>
        <time>2023-05-28T07:11:52Z</time>
      </trkpt>
      <trkpt lat="45.74975" lon="5.40407">
        <ele>280.2</ele>
        <time>2023-05-28T07:11:53Z</time>
      </trkpt>
      <trkpt lat="45.74981" lon="5.40408">
        <ele>280.2</ele>
        <time>2023-05-28T07:11:54Z</time>
      </trkpt>
      <trkpt lat="45.74987" lon="5.40407">
        <ele>280.2</ele>
        <time>2023-05-28T07:11:55Z</time>
      </trkpt>
      <trkpt lat="45.74994" lon="5.40407">
        <ele>280.2</ele>
        <time>2023-05-28T07:11:56Z</time>
      </trkpt>
      <trkpt lat="45.75" lon="5.40406">
        <ele>280.2</ele>
        <time>2023-05-28T07:11:57Z</time>
      </trkpt>
      <trkpt lat="45.75007" lon="5.40404">
        <ele>280.2</ele>
        <time>2023-05-28T07:11:58Z</time>
      </trkpt>
      <trkpt lat="45.75014" lon="5.40404">
        <ele>280</ele>
        <time>2023-05-28T07:11:59Z</time>
      </trkpt>
      <trkpt lat="45.75021" lon="5.40403">
        <ele>280</ele>
        <time>2023-05-28T07:12:00Z</time>
      </trkpt>
      <trkpt lat="45.75029" lon="5.40403">
        <ele>280</ele>
        <time>2023-05-28T07:12:01Z</time>
      </trkpt>
      <trkpt lat="45.75036" lon="5.40403">
        <ele>280</ele>
        <time>2023-05-28T07:12:02Z</time>
      </trkpt>
      <trkpt lat="45.75042" lon="5.40404">
        <ele>280</ele>
        <time>2023-05-28T07:12:03Z</time>
      </trkpt>
      <trkpt lat="45.75051" lon="5.40408">
        <ele>280</ele>
        <time>2023-05-28T07:12:04Z</time>
      </trkpt>
      <trkpt lat="45.75056" lon="5.40411">
        <ele>280</ele>
        <time>2023-05-28T07:12:05Z</time>
      </trkpt>
      <trkpt lat="45.75062" lon="5.40416">
        <ele>280</ele>
        <time>2023-05-28T07:12:06Z</time>
      </trkpt>
      <trkpt lat="45.75068" lon="5.40421">
        <ele>280</ele>
        <time>2023-05-28T07:12:07Z</time>
      </trkpt>
      <trkpt lat="45.75075" lon="5.40427">
        <ele>280.2</ele>
        <time>2023-05-28T07:12:08Z</time>
      </trkpt>
      <trkpt lat="45.75081" lon="5.40432">
        <ele>280.2</ele>
        <time>2023-05-28T07:12:09Z</time>
      </trkpt>
      <trkpt lat="45.75087" lon="5.40438">
        <ele>280.2</ele>
        <time>2023-05-28T07:12:10Z</time>
      </trkpt>
      <trkpt lat="45.75093" lon="5.40444">
        <ele>280.2</ele>
        <time>2023-05-28T07:12:11Z</time>
      </trkpt>
      <trkpt lat="45.75099" lon="5.4045">
        <ele>280.4</ele>
        <time>2023-05-28T07:12:12Z</time>
      </trkpt>
      <trkpt lat="45.75106" lon="5.40455">
        <ele>280.4</ele>
        <time>2023-05-28T07:12:13Z</time>
      </trkpt>
      <trkpt lat="45.75112" lon="5.40461">
        <ele>280.4</ele>
        <time>2023-05-28T07:12:14Z</time>
      </trkpt>
      <trkpt lat="45.75119" lon="5.40467">
        <ele>280.6</ele>
        <time>2023-05-28T07:12:15Z</time>
      </trkpt>
      <trkpt lat="45.75125" lon="5.40472">
        <ele>280.6</ele>
        <time>2023-05-28T07:12:16Z</time>
      </trkpt>
      <trkpt lat="45.75132" lon="5.40478">
        <ele>280.6</ele>
        <time>2023-05-28T07:12:17Z</time>
      </trkpt>
      <trkpt lat="45.75139" lon="5.40483">
        <ele>280.8</ele>
        <time>2023-05-28T07:12:18Z</time>
      </trkpt>
      <trkpt lat="45.75147" lon="5.40489">
        <ele>280.8</ele>
        <time>2023-05-28T07:12:19Z</time>
      </trkpt>
      <trkpt lat="45.75154" lon="5.40494">
        <ele>280.8</ele>
        <time>2023-05-28T07:12:20Z</time>
      </trkpt>
      <trkpt lat="45.75162" lon="5.40498">
        <ele>281</ele>
        <time>2023-05-28T07:12:21Z</time>
      </trkpt>
      <trkpt lat="45.75169" lon="5.40502">
        <ele>281</ele>
        <time>2023-05-28T07:12:22Z</time>
      </trkpt>
      <trkpt lat="45.75177" lon="5.40506">
        <ele>281</ele>
        <time>2023-05-28T07:12:23Z</time>
      </trkpt>
      <trkpt lat="45.75184" lon="5.4051">
        <ele>281</ele>
        <time>2023-05-28T07:12:24Z</time>
      </trkpt>
      <trkpt lat="45.75192" lon="5.40513">
        <ele>281.2</ele>
        <time>2023-05-28T07:12:25Z</time>
      </trkpt>
      <trkpt lat="45.752" lon="5.40516">
        <ele>281.2</ele>
        <time>2023-05-28T07:12:26Z</time>
      </trkpt>
      <trkpt lat="45.75208" lon="5.40519">
        <ele>281.2</ele>
        <time>2023-05-28T07:12:27Z</time>
      </trkpt>
      <trkpt lat="45.75217" lon="5.40522">
        <ele>281.4</ele>
        <time>2023-05-28T07:12:28Z</time>
      </trkpt>
      <trkpt lat="45.75225" lon="5.40524">
        <ele>281.4</ele>
        <time>2023-05-28T07:12:29Z</time>
      </trkpt>
      <trkpt lat="45.75233" lon="5.40527">
        <ele>281.4</ele>
        <time>2023-05-28T07:12:30Z</time>
      </trkpt>
      <trkpt lat="45.75241" lon="5.40531">
        <ele>281.4</ele>
        <time>2023-05-28T07:12:31Z</time>
      </trkpt>
      <trkpt lat="45.75248" lon="5.40535">
        <ele>281.2</ele>
        <time>2023-05-28T07:12:32Z</time>
      </trkpt>
      <trkpt lat="45.75257" lon="5.40538">
        <ele>281.2</ele>
        <time>2023-05-28T07:12:33Z</time>
      </trkpt>
      <trkpt lat="45.75265" lon="5.40542">
        <ele>280.8</ele>
        <time>2023-05-28T07:12:34Z</time>
      </trkpt>
      <trkpt lat="45.75273" lon="5.40545">
        <ele>280.8</ele>
        <time>2023-05-28T07:12:35Z</time>
      </trkpt>
      <trkpt lat="45.75281" lon="5.40548">
        <ele>280.6</ele>
        <time>2023-05-28T07:12:36Z</time>
      </trkpt>
      <trkpt lat="45.75289" lon="5.40551">
        <ele>280.4</ele>
        <time>2023-05-28T07:12:37Z</time>
      </trkpt>
      <trkpt lat="45.75297" lon="5.40554">
        <ele>280.2</ele>
        <time>2023-05-28T07:12:38Z</time>
      </trkpt>
      <trkpt lat="45.75305" lon="5.40558">
        <ele>280</ele>
        <time>2023-05-28T07:12:39Z</time>
      </trkpt>
      <trkpt lat="45.75313" lon="5.40561">
        <ele>280</ele>
        <time>2023-05-28T07:12:40Z</time>
      </trkpt>
      <trkpt lat="45.7532" lon="5.40565">
        <ele>279.8</ele>
        <time>2023-05-28T07:12:41Z</time>
      </trkpt>
      <trkpt lat="45.75328" lon="5.40569">
        <ele>279.8</ele>
        <time>2023-05-28T07:12:42Z</time>
      </trkpt>
      <trkpt lat="45.75335" lon="5.40574">
        <ele>279.6</ele>
        <time>2023-05-28T07:12:43Z</time>
      </trkpt>
      <trkpt lat="45.75343" lon="5.40579">
        <ele>279.4</ele>
        <time>2023-05-28T07:12:44Z</time>
      </trkpt>
      <trkpt lat="45.7535" lon="5.40584">
        <ele>279.4</ele>
        <time>2023-05-28T07:12:45Z</time>
      </trkpt>
      <trkpt lat="45.75358" lon="5.40589">
        <ele>279</ele>
        <time>2023-05-28T07:12:46Z</time>
      </trkpt>
      <trkpt lat="45.75364" lon="5.40594">
        <ele>278.8</ele>
        <time>2023-05-28T07:12:47Z</time>
      </trkpt>
      <trkpt lat="45.75372" lon="5.40599">
        <ele>278.6</ele>
        <time>2023-05-28T07:12:48Z</time>
      </trkpt>
      <trkpt lat="45.7538" lon="5.40604">
        <ele>278.6</ele>
        <time>2023-05-28T07:12:49Z</time>
      </trkpt>
      <trkpt lat="45.75388" lon="5.40608">
        <ele>278.6</ele>
        <time>2023-05-28T07:12:50Z</time>
      </trkpt>
      <trkpt lat="45.75396" lon="5.40612">
        <ele>278.4</ele>
        <time>2023-05-28T07:12:51Z</time>
      </trkpt>
      <trkpt lat="45.75405" lon="5.40617">
        <ele>278.4</ele>
        <time>2023-05-28T07:12:52Z</time>
      </trkpt>
      <trkpt lat="45.75412" lon="5.4062">
        <ele>278.4</ele>
        <time>2023-05-28T07:12:53Z</time>
      </trkpt>
      <trkpt lat="45.7542" lon="5.40625">
        <ele>278.4</ele>
        <time>2023-05-28T07:12:54Z</time>
      </trkpt>
      <trkpt lat="45.7543" lon="5.40629">
        <ele>278.4</ele>
        <time>2023-05-28T07:12:55Z</time>
      </trkpt>
      <trkpt lat="45.75438" lon="5.40633">
        <ele>278.6</ele>
        <time>2023-05-28T07:12:56Z</time>
      </trkpt>
      <trkpt lat="45.75444" lon="5.40636">
        <ele>278.4</ele>
        <time>2023-05-28T07:12:57Z</time>
      </trkpt>
      <trkpt lat="45.75452" lon="5.4064">
        <ele>278.6</ele>
        <time>2023-05-28T07:12:58Z</time>
      </trkpt>
      <trkpt lat="45.7546" lon="5.40644">
        <ele>278.6</ele>
        <time>2023-05-28T07:12:59Z</time>
      </trkpt>
      <trkpt lat="45.75467" lon="5.40649">
        <ele>278.4</ele>
        <time>2023-05-28T07:13:00Z</time>
      </trkpt>
      <trkpt lat="45.75475" lon="5.40653">
        <ele>278.4</ele>
        <time>2023-05-28T07:13:01Z</time>
      </trkpt>
      <trkpt lat="45.75483" lon="5.40658">
        <ele>278.6</ele>
        <time>2023-05-28T07:13:02Z</time>
      </trkpt>
      <trkpt lat="45.75491" lon="5.40662">
        <ele>278.6</ele>
        <time>2023-05-28T07:13:03Z</time>
      </trkpt>
      <trkpt lat="45.755" lon="5.40668">
        <ele>278.4</ele>
        <time>2023-05-28T07:13:04Z</time>
      </trkpt>
      <trkpt lat="45.75506" lon="5.40673">
        <ele>278.4</ele>
        <time>2023-05-28T07:13:05Z</time>
      </trkpt>
      <trkpt lat="45.75515" lon="5.40679">
        <ele>278.4</ele>
        <time>2023-05-28T07:13:06Z</time>
      </trkpt>
      <trkpt lat="45.7552" lon="5.40684">
        <ele>278.4</ele>
        <time>2023-05-28T07:13:07Z</time>
      </trkpt>
      <trkpt lat="45.75527" lon="5.4069">
        <ele>278.6</ele>
        <time>2023-05-28T07:13:08Z</time>
      </trkpt>
      <trkpt lat="45.75534" lon="5.40695">
        <ele>278.6</ele>
        <time>2023-05-28T07:13:09Z</time>
      </trkpt>
      <trkpt lat="45.75541" lon="5.40701">
        <ele>278.6</ele>
        <time>2023-05-28T07:13:10Z</time>
      </trkpt>
      <trkpt lat="45.75548" lon="5.40706">
        <ele>278.6</ele>
        <time>2023-05-28T07:13:11Z</time>
      </trkpt>
      <trkpt lat="45.75556" lon="5.4071">
        <ele>278.4</ele>
        <time>2023-05-28T07:13:12Z</time>
      </trkpt>
      <trkpt lat="45.75563" lon="5.40714">
        <ele>278.2</ele>
        <time>2023-05-28T07:13:13Z</time>
      </trkpt>
      <trkpt lat="45.7557" lon="5.40718">
        <ele>278</ele>
        <time>2023-05-28T07:13:14Z</time>
      </trkpt>
      <trkpt lat="45.75579" lon="5.40723">
        <ele>278</ele>
        <time>2023-05-28T07:13:15Z</time>
      </trkpt>
      <trkpt lat="45.75585" lon="5.40726">
        <ele>278</ele>
        <time>2023-05-28T07:13:16Z</time>
      </trkpt>
      <trkpt lat="45.75593" lon="5.4073">
        <ele>278</ele>
        <time>2023-05-28T07:13:17Z</time>
      </trkpt>
      <trkpt lat="45.75602" lon="5.40734">
        <ele>277.8</ele>
        <time>2023-05-28T07:13:18Z</time>
      </trkpt>
      <trkpt lat="45.75607" lon="5.40738">
        <ele>277.8</ele>
        <time>2023-05-28T07:13:19Z</time>
      </trkpt>
      <trkpt lat="45.75614" lon="5.40743">
        <ele>277.8</ele>
        <time>2023-05-28T07:13:20Z</time>
      </trkpt>
      <trkpt lat="45.75621" lon="5.40747">
        <ele>277.8</ele>
        <time>2023-05-28T07:13:21Z</time>
      </trkpt>
      <trkpt lat="45.75628" lon="5.40753">
        <ele>277.8</ele>
        <time>2023-05-28T07:13:22Z</time>
      </trkpt>
      <trkpt lat="45.75636" lon="5.40761">
        <ele>277.8</ele>
        <time>2023-05-28T07:13:23Z</time>
      </trkpt>
      <trkpt lat="45.75641" lon="5.40766">
        <ele>277.8</ele>
        <time>2023-05-28T07:13:24Z</time>
      </trkpt>
      <trkpt lat="45.75646" lon="5.40773">
        <ele>277.6</ele>
        <time>2023-05-28T07:13:25Z</time>
      </trkpt>
      <trkpt lat="45.75652" lon="5.40781">
        <ele>277.6</ele>
        <time>2023-05-28T07:13:26Z</time>
      </trkpt>
      <trkpt lat="45.75657" lon="5.40788">
        <ele>277.6</ele>
        <time>2023-05-28T07:13:27Z</time>
      </trkpt>
      <trkpt lat="45.75662" lon="5.40796">
        <ele>277.8</ele>
        <time>2023-05-28T07:13:28Z</time>
      </trkpt>
      <trkpt lat="45.75667" lon="5.40803">
        <ele>277.8</ele>
        <time>2023-05-28T07:13:29Z</time>
      </trkpt>
      <trkpt lat="45.75671" lon="5.4081">
        <ele>277.8</ele>
        <time>2023-05-28T07:13:30Z</time>
      </trkpt>
      <trkpt lat="45.75675" lon="5.40817">
        <ele>277.8</ele>
        <time>2023-05-28T07:13:31Z</time>
      </trkpt>
      <trkpt lat="45.75678" lon="5.40824">
        <ele>277.8</ele>
        <time>2023-05-28T07:13:32Z</time>
      </trkpt>
      <trkpt lat="45.75682" lon="5.40831">
        <ele>277.8</ele>
        <time>2023-05-28T07:13:33Z</time>
      </trkpt>
      <trkpt lat="45.75685" lon="5.40837">
        <ele>277.8</ele>
        <time>2023-05-28T07:13:34Z</time>
      </trkpt>
      <trkpt lat="45.75689" lon="5.40843">
        <ele>278</ele>
        <time>2023-05-28T07:13:35Z</time>
      </trkpt>
      <trkpt lat="45.75692" lon="5.40849">
        <ele>278</ele>
        <time>2023-05-28T07:13:36Z</time>
      </trkpt>
      <trkpt lat="45.75695" lon="5.40856">
        <ele>278</ele>
        <time>2023-05-28T07:13:37Z</time>
      </trkpt>
      <trkpt lat="45.75699" lon="5.40862">
        <ele>278</ele>
        <time>2023-05-28T07:13:38Z</time>
      </trkpt>
      <trkpt lat="45.75702" lon="5.40867">
        <ele>278.2</ele>
        <time>2023-05-28T07:13:39Z</time>
      </trkpt>
      <trkpt lat="45.75706" lon="5.40873">
        <ele>278.2</ele>
        <time>2023-05-28T07:13:40Z</time>
      </trkpt>
      <trkpt lat="45.75709" lon="5.40878">
        <ele>278.2</ele>
        <time>2023-05-28T07:13:41Z</time>
      </trkpt>
      <trkpt lat="45.75713" lon="5.40883">
        <ele>278.2</ele>
        <time>2023-05-28T07:13:42Z</time>
      </trkpt>
      <trkpt lat="45.75716" lon="5.40888">
        <ele>278.6</ele>
        <time>2023-05-28T07:13:43Z</time>
      </trkpt>
      <trkpt lat="45.7572" lon="5.40893">
        <ele>278.8</ele>
        <time>2023-05-28T07:13:44Z</time>
      </trkpt>
      <trkpt lat="45.75723" lon="5.40898">
        <ele>278.8</ele>
        <time>2023-05-28T07:13:45Z</time>
      </trkpt>
      <trkpt lat="45.75727" lon="5.40902">
        <ele>279</ele>
        <time>2023-05-28T07:13:46Z</time>
      </trkpt>
      <trkpt lat="45.7573" lon="5.40907">
        <ele>279.4</ele>
        <time>2023-05-28T07:13:47Z</time>
      </trkpt>
      <trkpt lat="45.75733" lon="5.40912">
        <ele>279.6</ele>
        <time>2023-05-28T07:13:48Z</time>
      </trkpt>
      <trkpt lat="45.75736" lon="5.40916">
        <ele>279.8</ele>
        <time>2023-05-28T07:13:49Z</time>
      </trkpt>
      <trkpt lat="45.75739" lon="5.40921">
        <ele>280</ele>
        <time>2023-05-28T07:13:50Z</time>
      </trkpt>
      <trkpt lat="45.75742" lon="5.40926">
        <ele>280.2</ele>
        <time>2023-05-28T07:13:51Z</time>
      </trkpt>
      <trkpt lat="45.75745" lon="5.4093">
        <ele>280.2</ele>
        <time>2023-05-28T07:13:52Z</time>
      </trkpt>
      <trkpt lat="45.75748" lon="5.40935">
        <ele>280.6</ele>
        <time>2023-05-28T07:13:53Z</time>
      </trkpt>
      <trkpt lat="45.75751" lon="5.40939">
        <ele>281</ele>
        <time>2023-05-28T07:13:54Z</time>
      </trkpt>
      <trkpt lat="45.75754" lon="5.40943">
        <ele>281.4</ele>
        <time>2023-05-28T07:13:55Z</time>
      </trkpt>
      <trkpt lat="45.75758" lon="5.40948">
        <ele>281.6</ele>
        <time>2023-05-28T07:13:56Z</time>
      </trkpt>
      <trkpt lat="45.75761" lon="5.40952">
        <ele>282</ele>
        <time>2023-05-28T07:13:57Z</time>
      </trkpt>
      <trkpt lat="45.75764" lon="5.40957">
        <ele>282.2</ele>
        <time>2023-05-28T07:13:58Z</time>
      </trkpt>
      <trkpt lat="45.75767" lon="5.40962">
        <ele>282.4</ele>
        <time>2023-05-28T07:13:59Z</time>
      </trkpt>
      <trkpt lat="45.7577" lon="5.40967">
        <ele>282.6</ele>
        <time>2023-05-28T07:14:00Z</time>
      </trkpt>
      <trkpt lat="45.75773" lon="5.40972">
        <ele>282.8</ele>
        <time>2023-05-28T07:14:01Z</time>
      </trkpt>
      <trkpt lat="45.75776" lon="5.40976">
        <ele>283.2</ele>
        <time>2023-05-28T07:14:02Z</time>
      </trkpt>
      <trkpt lat="45.75779" lon="5.40981">
        <ele>283.4</ele>
        <time>2023-05-28T07:14:03Z</time>
      </trkpt>
      <trkpt lat="45.75782" lon="5.40985">
        <ele>284</ele>
        <time>2023-05-28T07:14:04Z</time>
      </trkpt>
      <trkpt lat="45.75785" lon="5.4099">
        <ele>284.2</ele>
        <time>2023-05-28T07:14:05Z</time>
      </trkpt>
      <trkpt lat="45.75788" lon="5.40994">
        <ele>284.4</ele>
        <time>2023-05-28T07:14:06Z</time>
      </trkpt>
      <trkpt lat="45.75792" lon="5.40998">
        <ele>284.4</ele>
        <time>2023-05-28T07:14:07Z</time>
      </trkpt>
      <trkpt lat="45.75795" lon="5.41002">
        <ele>284.6</ele>
        <time>2023-05-28T07:14:08Z</time>
      </trkpt>
      <trkpt lat="45.75799" lon="5.41006">
        <ele>284.8</ele>
        <time>2023-05-28T07:14:09Z</time>
      </trkpt>
      <trkpt lat="45.75802" lon="5.4101">
        <ele>285</ele>
        <time>2023-05-28T07:14:10Z</time>
      </trkpt>
      <trkpt lat="45.75806" lon="5.41014">
        <ele>285.2</ele>
        <time>2023-05-28T07:14:11Z</time>
      </trkpt>
      <trkpt lat="45.7581" lon="5.41018">
        <ele>285.2</ele>
        <time>2023-05-28T07:14:12Z</time>
      </trkpt>
      <trkpt lat="45.75814" lon="5.41022">
        <ele>285.4</ele>
        <time>2023-05-28T07:14:13Z</time>
      </trkpt>
      <trkpt lat="45.75819" lon="5.41027">
        <ele>285.6</ele>
        <time>2023-05-28T07:14:14Z</time>
      </trkpt>
      <trkpt lat="45.75823" lon="5.41031">
        <ele>285.6</ele>
        <time>2023-05-28T07:14:15Z</time>
      </trkpt>
      <trkpt lat="45.75828" lon="5.41036">
        <ele>285.8</ele>
        <time>2023-05-28T07:14:16Z</time>
      </trkpt>
      <trkpt lat="45.75833" lon="5.41041">
        <ele>285.8</ele>
        <time>2023-05-28T07:14:17Z</time>
      </trkpt>
      <trkpt lat="45.75838" lon="5.41047">
        <ele>286</ele>
        <time>2023-05-28T07:14:18Z</time>
      </trkpt>
      <trkpt lat="45.75842" lon="5.41051">
        <ele>286</ele>
        <time>2023-05-28T07:14:19Z</time>
      </trkpt>
      <trkpt lat="45.75848" lon="5.41057">
        <ele>285.8</ele>
        <time>2023-05-28T07:14:20Z</time>
      </trkpt>
      <trkpt lat="45.75853" lon="5.41062">
        <ele>285.8</ele>
        <time>2023-05-28T07:14:21Z</time>
      </trkpt>
      <trkpt lat="45.75858" lon="5.41067">
        <ele>285.8</ele>
        <time>2023-05-28T07:14:22Z</time>
      </trkpt>
      <trkpt lat="45.75863" lon="5.41073">
        <ele>285.8</ele>
        <time>2023-05-28T07:14:23Z</time>
      </trkpt>
      <trkpt lat="45.75869" lon="5.41078">
        <ele>285.8</ele>
        <time>2023-05-28T07:14:24Z</time>
      </trkpt>
      <trkpt lat="45.75875" lon="5.41084">
        <ele>285.8</ele>
        <time>2023-05-28T07:14:25Z</time>
      </trkpt>
      <trkpt lat="45.75881" lon="5.41089">
        <ele>285.8</ele>
        <time>2023-05-28T07:14:26Z</time>
      </trkpt>
      <trkpt lat="45.75887" lon="5.41095">
        <ele>285.8</ele>
        <time>2023-05-28T07:14:27Z</time>
      </trkpt>
      <trkpt lat="45.75895" lon="5.41103">
        <ele>285.8</ele>
        <time>2023-05-28T07:14:28Z</time>
      </trkpt>
      <trkpt lat="45.75901" lon="5.41109">
        <ele>285.8</ele>
        <time>2023-05-28T07:14:29Z</time>
      </trkpt>
      <trkpt lat="45.75907" lon="5.41114">
        <ele>285.8</ele>
        <time>2023-05-28T07:14:30Z</time>
      </trkpt>
      <trkpt lat="45.75914" lon="5.4112">
        <ele>285.6</ele>
        <time>2023-05-28T07:14:31Z</time>
      </trkpt>
      <trkpt lat="45.75922" lon="5.41128">
        <ele>285.6</ele>
        <time>2023-05-28T07:14:32Z</time>
      </trkpt>
      <trkpt lat="45.75929" lon="5.41134">
        <ele>285.6</ele>
        <time>2023-05-28T07:14:33Z</time>
      </trkpt>
      <trkpt lat="45.75934" lon="5.4114">
        <ele>285.6</ele>
        <time>2023-05-28T07:14:34Z</time>
      </trkpt>
      <trkpt lat="45.75941" lon="5.41148">
        <ele>285.4</ele>
        <time>2023-05-28T07:14:35Z</time>
      </trkpt>
      <trkpt lat="45.75947" lon="5.41157">
        <ele>285.4</ele>
        <time>2023-05-28T07:14:36Z</time>
      </trkpt>
      <trkpt lat="45.75952" lon="5.41167">
        <ele>285</ele>
        <time>2023-05-28T07:14:37Z</time>
      </trkpt>
      <trkpt lat="45.75956" lon="5.4118">
        <ele>285</ele>
        <time>2023-05-28T07:14:38Z</time>
      </trkpt>
      <trkpt lat="45.75959" lon="5.41189">
        <ele>284.8</ele>
        <time>2023-05-28T07:14:39Z</time>
      </trkpt>
      <trkpt lat="45.75962" lon="5.41201">
        <ele>284.6</ele>
        <time>2023-05-28T07:14:40Z</time>
      </trkpt>
      <trkpt lat="45.75965" lon="5.41212">
        <ele>284.4</ele>
        <time>2023-05-28T07:14:41Z</time>
      </trkpt>
      <trkpt lat="45.75967" lon="5.41224">
        <ele>284.2</ele>
        <time>2023-05-28T07:14:42Z</time>
      </trkpt>
      <trkpt lat="45.7597" lon="5.41235">
        <ele>284.2</ele>
        <time>2023-05-28T07:14:43Z</time>
      </trkpt>
      <trkpt lat="45.75973" lon="5.41246">
        <ele>284</ele>
        <time>2023-05-28T07:14:44Z</time>
      </trkpt>
      <trkpt lat="45.75977" lon="5.41257">
        <ele>283.8</ele>
        <time>2023-05-28T07:14:45Z</time>
      </trkpt>
      <trkpt lat="45.7598" lon="5.41268">
        <ele>283.8</ele>
        <time>2023-05-28T07:14:46Z</time>
      </trkpt>
      <trkpt lat="45.75985" lon="5.41278">
        <ele>283.8</ele>
        <time>2023-05-28T07:14:47Z</time>
      </trkpt>
      <trkpt lat="45.7599" lon="5.4129">
        <ele>283.6</ele>
        <time>2023-05-28T07:14:48Z</time>
      </trkpt>
      <trkpt lat="45.75994" lon="5.41298">
        <ele>283.6</ele>
        <time>2023-05-28T07:14:49Z</time>
      </trkpt>
      <trkpt lat="45.75999" lon="5.41308">
        <ele>283.6</ele>
        <time>2023-05-28T07:14:50Z</time>
      </trkpt>
      <trkpt lat="45.76004" lon="5.41318">
        <ele>283.6</ele>
        <time>2023-05-28T07:14:51Z</time>
      </trkpt>
      <trkpt lat="45.76009" lon="5.41328">
        <ele>283.6</ele>
        <time>2023-05-28T07:14:52Z</time>
      </trkpt>
      <trkpt lat="45.76016" lon="5.41339">
        <ele>283.6</ele>
        <time>2023-05-28T07:14:53Z</time>
      </trkpt>
      <trkpt lat="45.7602" lon="5.41346">
        <ele>283.6</ele>
        <time>2023-05-28T07:14:54Z</time>
      </trkpt>
      <trkpt lat="45.76026" lon="5.41356">
        <ele>283.6</ele>
        <time>2023-05-28T07:14:55Z</time>
      </trkpt>
      <trkpt lat="45.76032" lon="5.41367">
        <ele>283.4</ele>
        <time>2023-05-28T07:14:56Z</time>
      </trkpt>
      <trkpt lat="45.76038" lon="5.41377">
        <ele>283.4</ele>
        <time>2023-05-28T07:14:57Z</time>
      </trkpt>
      <trkpt lat="45.76042" lon="5.41383">
        <ele>283.4</ele>
        <time>2023-05-28T07:14:58Z</time>
      </trkpt>
      <trkpt lat="45.76048" lon="5.41391">
        <ele>283.4</ele>
        <time>2023-05-28T07:14:59Z</time>
      </trkpt>
      <trkpt lat="45.76055" lon="5.41399">
        <ele>283.4</ele>
        <time>2023-05-28T07:15:00Z</time>
      </trkpt>
      <trkpt lat="45.76063" lon="5.41408">
        <ele>283.4</ele>
        <time>2023-05-28T07:15:01Z</time>
      </trkpt>
      <trkpt lat="45.7607" lon="5.41415">
        <ele>283.2</ele>
        <time>2023-05-28T07:15:02Z</time>
      </trkpt>
      <trkpt lat="45.76076" lon="5.4142">
        <ele>283.2</ele>
        <time>2023-05-28T07:15:03Z</time>
      </trkpt>
      <trkpt lat="45.76085" lon="5.41427">
        <ele>283</ele>
        <time>2023-05-28T07:15:04Z</time>
      </trkpt>
      <trkpt lat="45.76093" lon="5.41432">
        <ele>283.2</ele>
        <time>2023-05-28T07:15:05Z</time>
      </trkpt>
      <trkpt lat="45.76102" lon="5.41438">
        <ele>282.8</ele>
        <time>2023-05-28T07:15:06Z</time>
      </trkpt>
      <trkpt lat="45.7611" lon="5.41443">
        <ele>282.6</ele>
        <time>2023-05-28T07:15:07Z</time>
      </trkpt>
      <trkpt lat="45.76119" lon="5.41448">
        <ele>282.8</ele>
        <time>2023-05-28T07:15:08Z</time>
      </trkpt>
      <trkpt lat="45.76128" lon="5.41452">
        <ele>282.6</ele>
        <time>2023-05-28T07:15:09Z</time>
      </trkpt>
      <trkpt lat="45.76137" lon="5.41457">
        <ele>282.4</ele>
        <time>2023-05-28T07:15:10Z</time>
      </trkpt>
      <trkpt lat="45.76146" lon="5.41462">
        <ele>282.2</ele>
        <time>2023-05-28T07:15:11Z</time>
      </trkpt>
      <trkpt lat="45.76154" lon="5.41468">
        <ele>282.2</ele>
        <time>2023-05-28T07:15:12Z</time>
      </trkpt>
      <trkpt lat="45.76163" lon="5.41474">
        <ele>282</ele>
        <time>2023-05-28T07:15:13Z</time>
      </trkpt>
      <trkpt lat="45.76171" lon="5.4148">
        <ele>282</ele>
        <time>2023-05-28T07:15:14Z</time>
      </trkpt>
      <trkpt lat="45.7618" lon="5.41487">
        <ele>281.8</ele>
        <time>2023-05-28T07:15:15Z</time>
      </trkpt>
      <trkpt lat="45.76188" lon="5.41494">
        <ele>281.2</ele>
        <time>2023-05-28T07:15:16Z</time>
      </trkpt>
      <trkpt lat="45.76196" lon="5.41502">
        <ele>280.8</ele>
        <time>2023-05-28T07:15:17Z</time>
      </trkpt>
      <trkpt lat="45.76204" lon="5.41509">
        <ele>280.6</ele>
        <time>2023-05-28T07:15:18Z</time>
      </trkpt>
      <trkpt lat="45.76213" lon="5.41517">
        <ele>280.2</ele>
        <time>2023-05-28T07:15:19Z</time>
      </trkpt>
      <trkpt lat="45.76221" lon="5.41525">
        <ele>280</ele>
        <time>2023-05-28T07:15:20Z</time>
      </trkpt>
      <trkpt lat="45.76229" lon="5.41533">
        <ele>279.6</ele>
        <time>2023-05-28T07:15:21Z</time>
      </trkpt>
      <trkpt lat="45.76237" lon="5.41542">
        <ele>279.4</ele>
        <time>2023-05-28T07:15:22Z</time>
      </trkpt>
      <trkpt lat="45.76245" lon="5.4155">
        <ele>279.2</ele>
        <time>2023-05-28T07:15:23Z</time>
      </trkpt>
      <trkpt lat="45.76253" lon="5.41559">
        <ele>278.8</ele>
        <time>2023-05-28T07:15:24Z</time>
      </trkpt>
      <trkpt lat="45.76261" lon="5.41569">
        <ele>278.6</ele>
        <time>2023-05-28T07:15:25Z</time>
      </trkpt>
      <trkpt lat="45.76267" lon="5.41579">
        <ele>278.4</ele>
        <time>2023-05-28T07:15:26Z</time>
      </trkpt>
      <trkpt lat="45.76274" lon="5.41591">
        <ele>278.2</ele>
        <time>2023-05-28T07:15:27Z</time>
      </trkpt>
      <trkpt lat="45.7628" lon="5.41603">
        <ele>278</ele>
        <time>2023-05-28T07:15:28Z</time>
      </trkpt>
      <trkpt lat="45.76285" lon="5.41614">
        <ele>277.8</ele>
        <time>2023-05-28T07:15:29Z</time>
      </trkpt>
      <trkpt lat="45.7629" lon="5.41627">
        <ele>277.4</ele>
        <time>2023-05-28T07:15:30Z</time>
      </trkpt>
      <trkpt lat="45.76296" lon="5.41639">
        <ele>277</ele>
        <time>2023-05-28T07:15:31Z</time>
      </trkpt>
      <trkpt lat="45.76302" lon="5.4165">
        <ele>276.6</ele>
        <time>2023-05-28T07:15:32Z</time>
      </trkpt>
      <trkpt lat="45.76309" lon="5.41661">
        <ele>276.2</ele>
        <time>2023-05-28T07:15:33Z</time>
      </trkpt>
      <trkpt lat="45.76316" lon="5.4167">
        <ele>276</ele>
        <time>2023-05-28T07:15:34Z</time>
      </trkpt>
      <trkpt lat="45.76325" lon="5.41679">
        <ele>275.6</ele>
        <time>2023-05-28T07:15:35Z</time>
      </trkpt>
      <trkpt lat="45.76333" lon="5.41686">
        <ele>275.4</ele>
        <time>2023-05-28T07:15:36Z</time>
      </trkpt>
      <trkpt lat="45.76342" lon="5.41693">
        <ele>275</ele>
        <time>2023-05-28T07:15:37Z</time>
      </trkpt>
      <trkpt lat="45.76351" lon="5.417">
        <ele>274.6</ele>
        <time>2023-05-28T07:15:38Z</time>
      </trkpt>
      <trkpt lat="45.7636" lon="5.41707">
        <ele>274.4</ele>
        <time>2023-05-28T07:15:39Z</time>
      </trkpt>
      <trkpt lat="45.76368" lon="5.41715">
        <ele>274.2</ele>
        <time>2023-05-28T07:15:40Z</time>
      </trkpt>
      <trkpt lat="45.76377" lon="5.41723">
        <ele>274</ele>
        <time>2023-05-28T07:15:41Z</time>
      </trkpt>
      <trkpt lat="45.76385" lon="5.41731">
        <ele>273.4</ele>
        <time>2023-05-28T07:15:42Z</time>
      </trkpt>
      <trkpt lat="45.76393" lon="5.41738">
        <ele>273</ele>
        <time>2023-05-28T07:15:43Z</time>
      </trkpt>
      <trkpt lat="45.76401" lon="5.41745">
        <ele>272.6</ele>
        <time>2023-05-28T07:15:44Z</time>
      </trkpt>
      <trkpt lat="45.7641" lon="5.41752">
        <ele>272.4</ele>
        <time>2023-05-28T07:15:45Z</time>
      </trkpt>
      <trkpt lat="45.76418" lon="5.41759">
        <ele>272</ele>
        <time>2023-05-28T07:15:46Z</time>
      </trkpt>
      <trkpt lat="45.76426" lon="5.41766">
        <ele>271.6</ele>
        <time>2023-05-28T07:15:47Z</time>
      </trkpt>
      <trkpt lat="45.76434" lon="5.41773">
        <ele>271.4</ele>
        <time>2023-05-28T07:15:48Z</time>
      </trkpt>
      <trkpt lat="45.76442" lon="5.4178">
        <ele>271.2</ele>
        <time>2023-05-28T07:15:49Z</time>
      </trkpt>
      <trkpt lat="45.7645" lon="5.41787">
        <ele>271.2</ele>
        <time>2023-05-28T07:15:50Z</time>
      </trkpt>
      <trkpt lat="45.76458" lon="5.41794">
        <ele>271</ele>
        <time>2023-05-28T07:15:51Z</time>
      </trkpt>
      <trkpt lat="45.76466" lon="5.41801">
        <ele>271</ele>
        <time>2023-05-28T07:15:52Z</time>
      </trkpt>
      <trkpt lat="45.76484" lon="5.41812">
        <ele>270</ele>
        <time>2023-05-28T07:15:54Z</time>
      </trkpt>
      <trkpt lat="45.76493" lon="5.41815">
        <ele>269.8</ele>
        <time>2023-05-28T07:15:55Z</time>
      </trkpt>
      <trkpt lat="45.76503" lon="5.41817">
        <ele>269.4</ele>
        <time>2023-05-28T07:15:56Z</time>
      </trkpt>
      <trkpt lat="45.76513" lon="5.41817">
        <ele>269.2</ele>
        <time>2023-05-28T07:15:57Z</time>
      </trkpt>
      <trkpt lat="45.76523" lon="5.41817">
        <ele>268.6</ele>
        <time>2023-05-28T07:15:58Z</time>
      </trkpt>
      <trkpt lat="45.76534" lon="5.41817">
        <ele>268.4</ele>
        <time>2023-05-28T07:15:59Z</time>
      </trkpt>
      <trkpt lat="45.76544" lon="5.41817">
        <ele>267.8</ele>
        <time>2023-05-28T07:16:00Z</time>
      </trkpt>
      <trkpt lat="45.76554" lon="5.41817">
        <ele>267.4</ele>
        <time>2023-05-28T07:16:01Z</time>
      </trkpt>
      <trkpt lat="45.76564" lon="5.41817">
        <ele>267.4</ele>
        <time>2023-05-28T07:16:02Z</time>
      </trkpt>
      <trkpt lat="45.76573" lon="5.41816">
        <ele>267</ele>
        <time>2023-05-28T07:16:03Z</time>
      </trkpt>
      <trkpt lat="45.76583" lon="5.41816">
        <ele>267</ele>
        <time>2023-05-28T07:16:04Z</time>
      </trkpt>
      <trkpt lat="45.76593" lon="5.41816">
        <ele>266.2</ele>
        <time>2023-05-28T07:16:05Z</time>
      </trkpt>
      <trkpt lat="45.76612" lon="5.41817">
        <ele>265.4</ele>
        <time>2023-05-28T07:16:07Z</time>
      </trkpt>
      <trkpt lat="45.76622" lon="5.41817">
        <ele>265</ele>
        <time>2023-05-28T07:16:08Z</time>
      </trkpt>
      <trkpt lat="45.76631" lon="5.41816">
        <ele>264.8</ele>
        <time>2023-05-28T07:16:09Z</time>
      </trkpt>
      <trkpt lat="45.76641" lon="5.41816">
        <ele>264.4</ele>
        <time>2023-05-28T07:16:10Z</time>
      </trkpt>
      <trkpt lat="45.76651" lon="5.41816">
        <ele>264</ele>
        <time>2023-05-28T07:16:11Z</time>
      </trkpt>
      <trkpt lat="45.7666" lon="5.41815">
        <ele>263.6</ele>
        <time>2023-05-28T07:16:12Z</time>
      </trkpt>
      <trkpt lat="45.7667" lon="5.41815">
        <ele>263.4</ele>
        <time>2023-05-28T07:16:13Z</time>
      </trkpt>
      <trkpt lat="45.7668" lon="5.41816">
        <ele>263.2</ele>
        <time>2023-05-28T07:16:14Z</time>
      </trkpt>
      <trkpt lat="45.7669" lon="5.41816">
        <ele>262.8</ele>
        <time>2023-05-28T07:16:15Z</time>
      </trkpt>
      <trkpt lat="45.76699" lon="5.41817">
        <ele>262.8</ele>
        <time>2023-05-28T07:16:16Z</time>
      </trkpt>
      <trkpt lat="45.76708" lon="5.41819">
        <ele>262.2</ele>
        <time>2023-05-28T07:16:17Z</time>
      </trkpt>
      <trkpt lat="45.76718" lon="5.41821">
        <ele>262</ele>
        <time>2023-05-28T07:16:18Z</time>
      </trkpt>
      <trkpt lat="45.76727" lon="5.41824">
        <ele>261.8</ele>
        <time>2023-05-28T07:16:19Z</time>
      </trkpt>
      <trkpt lat="45.76736" lon="5.41826">
        <ele>261.8</ele>
        <time>2023-05-28T07:16:20Z</time>
      </trkpt>
      <trkpt lat="45.76745" lon="5.4183">
        <ele>261.6</ele>
        <time>2023-05-28T07:16:21Z</time>
      </trkpt>
      <trkpt lat="45.76754" lon="5.41833">
        <ele>261.4</ele>
        <time>2023-05-28T07:16:22Z</time>
      </trkpt>
      <trkpt lat="45.76763" lon="5.41837">
        <ele>261.4</ele>
        <time>2023-05-28T07:16:23Z</time>
      </trkpt>
      <trkpt lat="45.76773" lon="5.41841">
        <ele>261</ele>
        <time>2023-05-28T07:16:24Z</time>
      </trkpt>
      <trkpt lat="45.76782" lon="5.41845">
        <ele>261</ele>
        <time>2023-05-28T07:16:25Z</time>
      </trkpt>
      <trkpt lat="45.76791" lon="5.41849">
        <ele>260.8</ele>
        <time>2023-05-28T07:16:26Z</time>
      </trkpt>
      <trkpt lat="45.768" lon="5.41853">
        <ele>260.6</ele>
        <time>2023-05-28T07:16:27Z</time>
      </trkpt>
      <trkpt lat="45.76809" lon="5.41857">
        <ele>260.4</ele>
        <time>2023-05-28T07:16:28Z</time>
      </trkpt>
      <trkpt lat="45.76818" lon="5.41861">
        <ele>260.4</ele>
        <time>2023-05-28T07:16:29Z</time>
      </trkpt>
      <trkpt lat="45.76827" lon="5.41865">
        <ele>260.4</ele>
        <time>2023-05-28T07:16:30Z</time>
      </trkpt>
      <trkpt lat="45.76836" lon="5.41868">
        <ele>260.2</ele>
        <time>2023-05-28T07:16:31Z</time>
      </trkpt>
      <trkpt lat="45.76845" lon="5.41873">
        <ele>260</ele>
        <time>2023-05-28T07:16:32Z</time>
      </trkpt>
      <trkpt lat="45.76854" lon="5.41877">
        <ele>259.8</ele>
        <time>2023-05-28T07:16:33Z</time>
      </trkpt>
      <trkpt lat="45.76863" lon="5.4188">
        <ele>259.8</ele>
        <time>2023-05-28T07:16:34Z</time>
      </trkpt>
      <trkpt lat="45.76872" lon="5.41884">
        <ele>259.6</ele>
        <time>2023-05-28T07:16:35Z</time>
      </trkpt>
      <trkpt lat="45.76881" lon="5.41888">
        <ele>259.2</ele>
        <time>2023-05-28T07:16:36Z</time>
      </trkpt>
      <trkpt lat="45.7689" lon="5.41893">
        <ele>259.2</ele>
        <time>2023-05-28T07:16:37Z</time>
      </trkpt>
      <trkpt lat="45.76898" lon="5.41897">
        <ele>258.8</ele>
        <time>2023-05-28T07:16:38Z</time>
      </trkpt>
      <trkpt lat="45.76907" lon="5.41902">
        <ele>258.4</ele>
        <time>2023-05-28T07:16:39Z</time>
      </trkpt>
      <trkpt lat="45.76914" lon="5.41909">
        <ele>258</ele>
        <time>2023-05-28T07:16:40Z</time>
      </trkpt>
      <trkpt lat="45.76922" lon="5.41916">
        <ele>257.8</ele>
        <time>2023-05-28T07:16:41Z</time>
      </trkpt>
      <trkpt lat="45.7693" lon="5.41923">
        <ele>257.8</ele>
        <time>2023-05-28T07:16:42Z</time>
      </trkpt>
      <trkpt lat="45.76937" lon="5.41931">
        <ele>257.8</ele>
        <time>2023-05-28T07:16:43Z</time>
      </trkpt>
      <trkpt lat="45.76945" lon="5.41939">
        <ele>257.4</ele>
        <time>2023-05-28T07:16:44Z</time>
      </trkpt>
      <trkpt lat="45.76953" lon="5.41946">
        <ele>256.8</ele>
        <time>2023-05-28T07:16:45Z</time>
      </trkpt>
      <trkpt lat="45.7696" lon="5.41954">
        <ele>256.6</ele>
        <time>2023-05-28T07:16:46Z</time>
      </trkpt>
      <trkpt lat="45.76968" lon="5.41961">
        <ele>256.2</ele>
        <time>2023-05-28T07:16:47Z</time>
      </trkpt>
      <trkpt lat="45.76975" lon="5.41969">
        <ele>256</ele>
        <time>2023-05-28T07:16:48Z</time>
      </trkpt>
      <trkpt lat="45.76983" lon="5.41977">
        <ele>255.8</ele>
        <time>2023-05-28T07:16:49Z</time>
      </trkpt>
      <trkpt lat="45.7699" lon="5.41984">
        <ele>255.8</ele>
        <time>2023-05-28T07:16:50Z</time>
      </trkpt>
      <trkpt lat="45.76997" lon="5.41992">
        <ele>255.4</ele>
        <time>2023-05-28T07:16:51Z</time>
      </trkpt>
      <trkpt lat="45.77005" lon="5.41999">
        <ele>255</ele>
        <time>2023-05-28T07:16:52Z</time>
      </trkpt>
      <trkpt lat="45.77012" lon="5.42006">
        <ele>254.8</ele>
        <time>2023-05-28T07:16:53Z</time>
      </trkpt>
      <trkpt lat="45.7702" lon="5.42013">
        <ele>254.6</ele>
        <time>2023-05-28T07:16:54Z</time>
      </trkpt>
      <trkpt lat="45.77027" lon="5.4202">
        <ele>254.6</ele>
        <time>2023-05-28T07:16:55Z</time>
      </trkpt>
      <trkpt lat="45.77035" lon="5.42027">
        <ele>254.2</ele>
        <time>2023-05-28T07:16:56Z</time>
      </trkpt>
      <trkpt lat="45.77041" lon="5.42032">
        <ele>254</ele>
        <time>2023-05-28T07:16:57Z</time>
      </trkpt>
      <trkpt lat="45.7705" lon="5.4204">
        <ele>253.4</ele>
        <time>2023-05-28T07:16:58Z</time>
      </trkpt>
      <trkpt lat="45.77057" lon="5.42047">
        <ele>253</ele>
        <time>2023-05-28T07:16:59Z</time>
      </trkpt>
      <trkpt lat="45.77064" lon="5.42053">
        <ele>252.8</ele>
        <time>2023-05-28T07:17:00Z</time>
      </trkpt>
      <trkpt lat="45.77072" lon="5.4206">
        <ele>252.6</ele>
        <time>2023-05-28T07:17:01Z</time>
      </trkpt>
      <trkpt lat="45.77078" lon="5.42065">
        <ele>252.6</ele>
        <time>2023-05-28T07:17:02Z</time>
      </trkpt>
      <trkpt lat="45.77088" lon="5.42073">
        <ele>252.4</ele>
        <time>2023-05-28T07:17:03Z</time>
      </trkpt>
      <trkpt lat="45.77096" lon="5.4208">
        <ele>252</ele>
        <time>2023-05-28T07:17:04Z</time>
      </trkpt>
      <trkpt lat="45.77104" lon="5.42087">
        <ele>251.6</ele>
        <time>2023-05-28T07:17:05Z</time>
      </trkpt>
      <trkpt lat="45.77112" lon="5.42094">
        <ele>251.4</ele>
        <time>2023-05-28T07:17:06Z</time>
      </trkpt>
      <trkpt lat="45.77121" lon="5.421">
        <ele>251.2</ele>
        <time>2023-05-28T07:17:07Z</time>
      </trkpt>
      <trkpt lat="45.77129" lon="5.42107">
        <ele>250.8</ele>
        <time>2023-05-28T07:17:08Z</time>
      </trkpt>
      <trkpt lat="45.77137" lon="5.42114">
        <ele>250.6</ele>
        <time>2023-05-28T07:17:09Z</time>
      </trkpt>
      <trkpt lat="45.77146" lon="5.4212">
        <ele>250.4</ele>
        <time>2023-05-28T07:17:10Z</time>
      </trkpt>
      <trkpt lat="45.77153" lon="5.42125">
        <ele>250.2</ele>
        <time>2023-05-28T07:17:11Z</time>
      </trkpt>
      <trkpt lat="45.77162" lon="5.42131">
        <ele>250</ele>
        <time>2023-05-28T07:17:12Z</time>
      </trkpt>
      <trkpt lat="45.77173" lon="5.42138">
        <ele>249.8</ele>
        <time>2023-05-28T07:17:13Z</time>
      </trkpt>
      <trkpt lat="45.77182" lon="5.42143">
        <ele>249.6</ele>
        <time>2023-05-28T07:17:14Z</time>
      </trkpt>
      <trkpt lat="45.77189" lon="5.42147">
        <ele>249.6</ele>
        <time>2023-05-28T07:17:15Z</time>
      </trkpt>
      <trkpt lat="45.77198" lon="5.42151">
        <ele>249.4</ele>
        <time>2023-05-28T07:17:16Z</time>
      </trkpt>
      <trkpt lat="45.77208" lon="5.42155">
        <ele>249</ele>
        <time>2023-05-28T07:17:17Z</time>
      </trkpt>
      <trkpt lat="45.77218" lon="5.4216">
        <ele>248.8</ele>
        <time>2023-05-28T07:17:18Z</time>
      </trkpt>
      <trkpt lat="45.77227" lon="5.42165">
        <ele>248.4</ele>
        <time>2023-05-28T07:17:19Z</time>
      </trkpt>
      <trkpt lat="45.77234" lon="5.42171">
        <ele>248.2</ele>
        <time>2023-05-28T07:17:20Z</time>
      </trkpt>
      <trkpt lat="45.77242" lon="5.42177">
        <ele>248</ele>
        <time>2023-05-28T07:17:21Z</time>
      </trkpt>
      <trkpt lat="45.77249" lon="5.42184">
        <ele>247.8</ele>
        <time>2023-05-28T07:17:22Z</time>
      </trkpt>
      <trkpt lat="45.77256" lon="5.42191">
        <ele>247.6</ele>
        <time>2023-05-28T07:17:23Z</time>
      </trkpt>
      <trkpt lat="45.77263" lon="5.42198">
        <ele>247.4</ele>
        <time>2023-05-28T07:17:24Z</time>
      </trkpt>
      <trkpt lat="45.77269" lon="5.42206">
        <ele>247.2</ele>
        <time>2023-05-28T07:17:25Z</time>
      </trkpt>
      <trkpt lat="45.77276" lon="5.42214">
        <ele>247</ele>
        <time>2023-05-28T07:17:26Z</time>
      </trkpt>
      <trkpt lat="45.77283" lon="5.42222">
        <ele>246.8</ele>
        <time>2023-05-28T07:17:27Z</time>
      </trkpt>
      <trkpt lat="45.77289" lon="5.4223">
        <ele>246.8</ele>
        <time>2023-05-28T07:17:28Z</time>
      </trkpt>
      <trkpt lat="45.77295" lon="5.42238">
        <ele>246.4</ele>
        <time>2023-05-28T07:17:29Z</time>
      </trkpt>
      <trkpt lat="45.77301" lon="5.42247">
        <ele>246.2</ele>
        <time>2023-05-28T07:17:30Z</time>
      </trkpt>
      <trkpt lat="45.77307" lon="5.42256">
        <ele>246</ele>
        <time>2023-05-28T07:17:31Z</time>
      </trkpt>
      <trkpt lat="45.77313" lon="5.42266">
        <ele>246</ele>
        <time>2023-05-28T07:17:32Z</time>
      </trkpt>
      <trkpt lat="45.77318" lon="5.42275">
        <ele>245.8</ele>
        <time>2023-05-28T07:17:33Z</time>
      </trkpt>
      <trkpt lat="45.77323" lon="5.42285">
        <ele>245.8</ele>
        <time>2023-05-28T07:17:34Z</time>
      </trkpt>
      <trkpt lat="45.77328" lon="5.42296">
        <ele>245.8</ele>
        <time>2023-05-28T07:17:35Z</time>
      </trkpt>
      <trkpt lat="45.77333" lon="5.42306">
        <ele>245.6</ele>
        <time>2023-05-28T07:17:36Z</time>
      </trkpt>
      <trkpt lat="45.77338" lon="5.42317">
        <ele>245.6</ele>
        <time>2023-05-28T07:17:37Z</time>
      </trkpt>
      <trkpt lat="45.77342" lon="5.42328">
        <ele>245.4</ele>
        <time>2023-05-28T07:17:38Z</time>
      </trkpt>
      <trkpt lat="45.77347" lon="5.42339">
        <ele>245.4</ele>
        <time>2023-05-28T07:17:39Z</time>
      </trkpt>
      <trkpt lat="45.77351" lon="5.4235">
        <ele>245.2</ele>
        <time>2023-05-28T07:17:40Z</time>
      </trkpt>
      <trkpt lat="45.77355" lon="5.42358">
        <ele>245</ele>
        <time>2023-05-28T07:17:41Z</time>
      </trkpt>
      <trkpt lat="45.77359" lon="5.42372">
        <ele>245</ele>
        <time>2023-05-28T07:17:42Z</time>
      </trkpt>
      <trkpt lat="45.77363" lon="5.42383">
        <ele>244.8</ele>
        <time>2023-05-28T07:17:43Z</time>
      </trkpt>
      <trkpt lat="45.77366" lon="5.42395">
        <ele>244.8</ele>
        <time>2023-05-28T07:17:44Z</time>
      </trkpt>
      <trkpt lat="45.77369" lon="5.42407">
        <ele>244.8</ele>
        <time>2023-05-28T07:17:45Z</time>
      </trkpt>
      <trkpt lat="45.77372" lon="5.42419">
        <ele>244.6</ele>
        <time>2023-05-28T07:17:46Z</time>
      </trkpt>
      <trkpt lat="45.77375" lon="5.42432">
        <ele>244.6</ele>
        <time>2023-05-28T07:17:47Z</time>
      </trkpt>
      <trkpt lat="45.77379" lon="5.42444">
        <ele>244.6</ele>
        <time>2023-05-28T07:17:48Z</time>
      </trkpt>
      <trkpt lat="45.77382" lon="5.42457">
        <ele>244.4</ele>
        <time>2023-05-28T07:17:49Z</time>
      </trkpt>
      <trkpt lat="45.77385" lon="5.42469">
        <ele>244.2</ele>
        <time>2023-05-28T07:17:50Z</time>
      </trkpt>
      <trkpt lat="45.77388" lon="5.42482">
        <ele>244</ele>
        <time>2023-05-28T07:17:51Z</time>
      </trkpt>
      <trkpt lat="45.77391" lon="5.42494">
        <ele>243.8</ele>
        <time>2023-05-28T07:17:52Z</time>
      </trkpt>
      <trkpt lat="45.77394" lon="5.42507">
        <ele>243.6</ele>
        <time>2023-05-28T07:17:53Z</time>
      </trkpt>
      <trkpt lat="45.77396" lon="5.4252">
        <ele>243.2</ele>
        <time>2023-05-28T07:17:54Z</time>
      </trkpt>
      <trkpt lat="45.77398" lon="5.4253">
        <ele>243.2</ele>
        <time>2023-05-28T07:17:55Z</time>
      </trkpt>
      <trkpt lat="45.77401" lon="5.42546">
        <ele>242.8</ele>
        <time>2023-05-28T07:17:56Z</time>
      </trkpt>
      <trkpt lat="45.77402" lon="5.42558">
        <ele>242.2</ele>
        <time>2023-05-28T07:17:57Z</time>
      </trkpt>
      <trkpt lat="45.77402" lon="5.42571">
        <ele>242.2</ele>
        <time>2023-05-28T07:17:58Z</time>
      </trkpt>
      <trkpt lat="45.77402" lon="5.42584">
        <ele>242</ele>
        <time>2023-05-28T07:17:59Z</time>
      </trkpt>
      <trkpt lat="45.77402" lon="5.42597">
        <ele>242</ele>
        <time>2023-05-28T07:18:00Z</time>
      </trkpt>
      <trkpt lat="45.77402" lon="5.4261">
        <ele>241.8</ele>
        <time>2023-05-28T07:18:01Z</time>
      </trkpt>
      <trkpt lat="45.77402" lon="5.42622">
        <ele>242</ele>
        <time>2023-05-28T07:18:02Z</time>
      </trkpt>
      <trkpt lat="45.77402" lon="5.42635">
        <ele>242</ele>
        <time>2023-05-28T07:18:03Z</time>
      </trkpt>
      <trkpt lat="45.77402" lon="5.42647">
        <ele>241.8</ele>
        <time>2023-05-28T07:18:04Z</time>
      </trkpt>
      <trkpt lat="45.77402" lon="5.42659">
        <ele>241.8</ele>
        <time>2023-05-28T07:18:05Z</time>
      </trkpt>
      <trkpt lat="45.77403" lon="5.42671">
        <ele>241.8</ele>
        <time>2023-05-28T07:18:06Z</time>
      </trkpt>
      <trkpt lat="45.77403" lon="5.42683">
        <ele>241.8</ele>
        <time>2023-05-28T07:18:07Z</time>
      </trkpt>
      <trkpt lat="45.77403" lon="5.42695">
        <ele>241.8</ele>
        <time>2023-05-28T07:18:08Z</time>
      </trkpt>
      <trkpt lat="45.77405" lon="5.42707">
        <ele>241.8</ele>
        <time>2023-05-28T07:18:09Z</time>
      </trkpt>
      <trkpt lat="45.77406" lon="5.42719">
        <ele>241.8</ele>
        <time>2023-05-28T07:18:10Z</time>
      </trkpt>
      <trkpt lat="45.77407" lon="5.4273">
        <ele>241.8</ele>
        <time>2023-05-28T07:18:11Z</time>
      </trkpt>
      <trkpt lat="45.77409" lon="5.42742">
        <ele>241.8</ele>
        <time>2023-05-28T07:18:12Z</time>
      </trkpt>
      <trkpt lat="45.77412" lon="5.42753">
        <ele>241.4</ele>
        <time>2023-05-28T07:18:13Z</time>
      </trkpt>
      <trkpt lat="45.77414" lon="5.42765">
        <ele>241.4</ele>
        <time>2023-05-28T07:18:14Z</time>
      </trkpt>
      <trkpt lat="45.77417" lon="5.42777">
        <ele>241.4</ele>
        <time>2023-05-28T07:18:15Z</time>
      </trkpt>
      <trkpt lat="45.77419" lon="5.4279">
        <ele>241.4</ele>
        <time>2023-05-28T07:18:16Z</time>
      </trkpt>
      <trkpt lat="45.77421" lon="5.42802">
        <ele>241.2</ele>
        <time>2023-05-28T07:18:17Z</time>
      </trkpt>
      <trkpt lat="45.77423" lon="5.42814">
        <ele>241</ele>
        <time>2023-05-28T07:18:18Z</time>
      </trkpt>
      <trkpt lat="45.77425" lon="5.42826">
        <ele>241</ele>
        <time>2023-05-28T07:18:19Z</time>
      </trkpt>
      <trkpt lat="45.77427" lon="5.42837">
        <ele>240.8</ele>
        <time>2023-05-28T07:18:20Z</time>
      </trkpt>
      <trkpt lat="45.77429" lon="5.42849">
        <ele>240.8</ele>
        <time>2023-05-28T07:18:21Z</time>
      </trkpt>
      <trkpt lat="45.77432" lon="5.42861">
        <ele>240.8</ele>
        <time>2023-05-28T07:18:22Z</time>
      </trkpt>
      <trkpt lat="45.77434" lon="5.42873">
        <ele>240.8</ele>
        <time>2023-05-28T07:18:23Z</time>
      </trkpt>
      <trkpt lat="45.77437" lon="5.42884">
        <ele>240.6</ele>
        <time>2023-05-28T07:18:24Z</time>
      </trkpt>
      <trkpt lat="45.77439" lon="5.42896">
        <ele>240.6</ele>
        <time>2023-05-28T07:18:25Z</time>
      </trkpt>
      <trkpt lat="45.77442" lon="5.42906">
        <ele>240.6</ele>
        <time>2023-05-28T07:18:26Z</time>
      </trkpt>
      <trkpt lat="45.77446" lon="5.42917">
        <ele>240.6</ele>
        <time>2023-05-28T07:18:27Z</time>
      </trkpt>
      <trkpt lat="45.77449" lon="5.42928">
        <ele>240.4</ele>
        <time>2023-05-28T07:18:28Z</time>
      </trkpt>
      <trkpt lat="45.77453" lon="5.42938">
        <ele>240.4</ele>
        <time>2023-05-28T07:18:29Z</time>
      </trkpt>
      <trkpt lat="45.77457" lon="5.42949">
        <ele>240.4</ele>
        <time>2023-05-28T07:18:30Z</time>
      </trkpt>
      <trkpt lat="45.77461" lon="5.42959">
        <ele>240.2</ele>
        <time>2023-05-28T07:18:31Z</time>
      </trkpt>
      <trkpt lat="45.77465" lon="5.42969">
        <ele>240.2</ele>
        <time>2023-05-28T07:18:32Z</time>
      </trkpt>
      <trkpt lat="45.77469" lon="5.4298">
        <ele>240.2</ele>
        <time>2023-05-28T07:18:33Z</time>
      </trkpt>
      <trkpt lat="45.77473" lon="5.4299">
        <ele>240</ele>
        <time>2023-05-28T07:18:34Z</time>
      </trkpt>
      <trkpt lat="45.77477" lon="5.43">
        <ele>240</ele>
        <time>2023-05-28T07:18:35Z</time>
      </trkpt>
      <trkpt lat="45.77481" lon="5.4301">
        <ele>240</ele>
        <time>2023-05-28T07:18:36Z</time>
      </trkpt>
      <trkpt lat="45.77484" lon="5.43021">
        <ele>240</ele>
        <time>2023-05-28T07:18:37Z</time>
      </trkpt>
      <trkpt lat="45.77488" lon="5.43031">
        <ele>239.8</ele>
        <time>2023-05-28T07:18:38Z</time>
      </trkpt>
      <trkpt lat="45.77492" lon="5.43042">
        <ele>239.8</ele>
        <time>2023-05-28T07:18:39Z</time>
      </trkpt>
      <trkpt lat="45.77496" lon="5.43052">
        <ele>239.6</ele>
        <time>2023-05-28T07:18:40Z</time>
      </trkpt>
      <trkpt lat="45.77499" lon="5.43063">
        <ele>239.4</ele>
        <time>2023-05-28T07:18:41Z</time>
      </trkpt>
      <trkpt lat="45.77503" lon="5.43073">
        <ele>239.4</ele>
        <time>2023-05-28T07:18:42Z</time>
      </trkpt>
      <trkpt lat="45.77506" lon="5.43084">
        <ele>239.4</ele>
        <time>2023-05-28T07:18:43Z</time>
      </trkpt>
      <trkpt lat="45.7751" lon="5.43094">
        <ele>239.4</ele>
        <time>2023-05-28T07:18:44Z</time>
      </trkpt>
      <trkpt lat="45.77513" lon="5.43105">
        <ele>239.4</ele>
        <time>2023-05-28T07:18:45Z</time>
      </trkpt>
      <trkpt lat="45.77517" lon="5.43116">
        <ele>239.4</ele>
        <time>2023-05-28T07:18:46Z</time>
      </trkpt>
      <trkpt lat="45.7752" lon="5.43127">
        <ele>239.4</ele>
        <time>2023-05-28T07:18:47Z</time>
      </trkpt>
      <trkpt lat="45.77523" lon="5.43138">
        <ele>239.6</ele>
        <time>2023-05-28T07:18:48Z</time>
      </trkpt>
      <trkpt lat="45.77526" lon="5.4315">
        <ele>239.4</ele>
        <time>2023-05-28T07:18:49Z</time>
      </trkpt>
      <trkpt lat="45.77529" lon="5.43161">
        <ele>239.4</ele>
        <time>2023-05-28T07:18:50Z</time>
      </trkpt>
      <trkpt lat="45.77532" lon="5.43172">
        <ele>239.4</ele>
        <time>2023-05-28T07:18:51Z</time>
      </trkpt>
      <trkpt lat="45.77534" lon="5.43184">
        <ele>239.4</ele>
        <time>2023-05-28T07:18:52Z</time>
      </trkpt>
      <trkpt lat="45.77537" lon="5.43196">
        <ele>239.4</ele>
        <time>2023-05-28T07:18:53Z</time>
      </trkpt>
      <trkpt lat="45.77539" lon="5.43208">
        <ele>239.4</ele>
        <time>2023-05-28T07:18:54Z</time>
      </trkpt>
      <trkpt lat="45.77542" lon="5.4322">
        <ele>239.4</ele>
        <time>2023-05-28T07:18:55Z</time>
      </trkpt>
      <trkpt lat="45.77544" lon="5.43231">
        <ele>239.2</ele>
        <time>2023-05-28T07:18:56Z</time>
      </trkpt>
      <trkpt lat="45.77546" lon="5.43244">
        <ele>239.2</ele>
        <time>2023-05-28T07:18:57Z</time>
      </trkpt>
      <trkpt lat="45.77548" lon="5.43256">
        <ele>239.2</ele>
        <time>2023-05-28T07:18:58Z</time>
      </trkpt>
      <trkpt lat="45.7755" lon="5.43268">
        <ele>239</ele>
        <time>2023-05-28T07:18:59Z</time>
      </trkpt>
      <trkpt lat="45.77552" lon="5.43279">
        <ele>239</ele>
        <time>2023-05-28T07:19:00Z</time>
      </trkpt>
      <trkpt lat="45.77554" lon="5.43293">
        <ele>239</ele>
        <time>2023-05-28T07:19:01Z</time>
      </trkpt>
      <trkpt lat="45.77555" lon="5.43302">
        <ele>239</ele>
        <time>2023-05-28T07:19:02Z</time>
      </trkpt>
      <trkpt lat="45.77557" lon="5.43314">
        <ele>239</ele>
        <time>2023-05-28T07:19:03Z</time>
      </trkpt>
      <trkpt lat="45.77559" lon="5.43326">
        <ele>238.8</ele>
        <time>2023-05-28T07:19:04Z</time>
      </trkpt>
      <trkpt lat="45.7756" lon="5.43338">
        <ele>238.8</ele>
        <time>2023-05-28T07:19:05Z</time>
      </trkpt>
      <trkpt lat="45.77562" lon="5.4335">
        <ele>238.6</ele>
        <time>2023-05-28T07:19:06Z</time>
      </trkpt>
      <trkpt lat="45.77563" lon="5.43362">
        <ele>238.6</ele>
        <time>2023-05-28T07:19:07Z</time>
      </trkpt>
      <trkpt lat="45.77565" lon="5.43374">
        <ele>238.6</ele>
        <time>2023-05-28T07:19:08Z</time>
      </trkpt>
      <trkpt lat="45.77566" lon="5.43385">
        <ele>238.2</ele>
        <time>2023-05-28T07:19:09Z</time>
      </trkpt>
      <trkpt lat="45.77568" lon="5.43397">
        <ele>238.2</ele>
        <time>2023-05-28T07:19:10Z</time>
      </trkpt>
      <trkpt lat="45.7757" lon="5.43409">
        <ele>238.2</ele>
        <time>2023-05-28T07:19:11Z</time>
      </trkpt>
      <trkpt lat="45.77571" lon="5.43421">
        <ele>238</ele>
        <time>2023-05-28T07:19:12Z</time>
      </trkpt>
      <trkpt lat="45.77572" lon="5.43433">
        <ele>237.8</ele>
        <time>2023-05-28T07:19:13Z</time>
      </trkpt>
      <trkpt lat="45.77573" lon="5.43445">
        <ele>237.8</ele>
        <time>2023-05-28T07:19:14Z</time>
      </trkpt>
      <trkpt lat="45.77575" lon="5.43456">
        <ele>237.6</ele>
        <time>2023-05-28T07:19:15Z</time>
      </trkpt>
      <trkpt lat="45.77575" lon="5.43468">
        <ele>237.6</ele>
        <time>2023-05-28T07:19:16Z</time>
      </trkpt>
      <trkpt lat="45.77576" lon="5.4348">
        <ele>237.6</ele>
        <time>2023-05-28T07:19:17Z</time>
      </trkpt>
      <trkpt lat="45.77577" lon="5.43491">
        <ele>237.6</ele>
        <time>2023-05-28T07:19:18Z</time>
      </trkpt>
      <trkpt lat="45.77578" lon="5.43503">
        <ele>237.6</ele>
        <time>2023-05-28T07:19:19Z</time>
      </trkpt>
      <trkpt lat="45.77578" lon="5.43515">
        <ele>237.4</ele>
        <time>2023-05-28T07:19:20Z</time>
      </trkpt>
      <trkpt lat="45.77579" lon="5.43527">
        <ele>237.4</ele>
        <time>2023-05-28T07:19:21Z</time>
      </trkpt>
      <trkpt lat="45.7758" lon="5.43538">
        <ele>237.2</ele>
        <time>2023-05-28T07:19:22Z</time>
      </trkpt>
      <trkpt lat="45.77582" lon="5.4355">
        <ele>237.2</ele>
        <time>2023-05-28T07:19:23Z</time>
      </trkpt>
      <trkpt lat="45.77584" lon="5.43561">
        <ele>237</ele>
        <time>2023-05-28T07:19:24Z</time>
      </trkpt>
      <trkpt lat="45.77586" lon="5.43572">
        <ele>236.8</ele>
        <time>2023-05-28T07:19:25Z</time>
      </trkpt>
      <trkpt lat="45.77588" lon="5.43583">
        <ele>236.8</ele>
        <time>2023-05-28T07:19:26Z</time>
      </trkpt>
      <trkpt lat="45.77591" lon="5.43594">
        <ele>236.8</ele>
        <time>2023-05-28T07:19:27Z</time>
      </trkpt>
      <trkpt lat="45.77594" lon="5.43604">
        <ele>236.8</ele>
        <time>2023-05-28T07:19:28Z</time>
      </trkpt>
      <trkpt lat="45.77597" lon="5.43614">
        <ele>236.6</ele>
        <time>2023-05-28T07:19:29Z</time>
      </trkpt>
      <trkpt lat="45.776" lon="5.43625">
        <ele>236.6</ele>
        <time>2023-05-28T07:19:30Z</time>
      </trkpt>
      <trkpt lat="45.77604" lon="5.43635">
        <ele>236.6</ele>
        <time>2023-05-28T07:19:31Z</time>
      </trkpt>
      <trkpt lat="45.77608" lon="5.43645">
        <ele>236.6</ele>
        <time>2023-05-28T07:19:32Z</time>
      </trkpt>
      <trkpt lat="45.77611" lon="5.43656">
        <ele>236.4</ele>
        <time>2023-05-28T07:19:33Z</time>
      </trkpt>
      <trkpt lat="45.77614" lon="5.43666">
        <ele>236.6</ele>
        <time>2023-05-28T07:19:34Z</time>
      </trkpt>
      <trkpt lat="45.77618" lon="5.43675">
        <ele>236.6</ele>
        <time>2023-05-28T07:19:35Z</time>
      </trkpt>
      <trkpt lat="45.77621" lon="5.43685">
        <ele>236.6</ele>
        <time>2023-05-28T07:19:36Z</time>
      </trkpt>
      <trkpt lat="45.77625" lon="5.43695">
        <ele>236.6</ele>
        <time>2023-05-28T07:19:37Z</time>
      </trkpt>
      <trkpt lat="45.77628" lon="5.43705">
        <ele>236.6</ele>
        <time>2023-05-28T07:19:38Z</time>
      </trkpt>
      <trkpt lat="45.77631" lon="5.43715">
        <ele>236.6</ele>
        <time>2023-05-28T07:19:39Z</time>
      </trkpt>
      <trkpt lat="45.77635" lon="5.43726">
        <ele>236.4</ele>
        <time>2023-05-28T07:19:40Z</time>
      </trkpt>
      <trkpt lat="45.77638" lon="5.43736">
        <ele>236.4</ele>
        <time>2023-05-28T07:19:41Z</time>
      </trkpt>
      <trkpt lat="45.77642" lon="5.43746">
        <ele>236.4</ele>
        <time>2023-05-28T07:19:42Z</time>
      </trkpt>
      <trkpt lat="45.77645" lon="5.43756">
        <ele>236.2</ele>
        <time>2023-05-28T07:19:43Z</time>
      </trkpt>
      <trkpt lat="45.77649" lon="5.43767">
        <ele>236.4</ele>
        <time>2023-05-28T07:19:44Z</time>
      </trkpt>
      <trkpt lat="45.77653" lon="5.43777">
        <ele>236.4</ele>
        <time>2023-05-28T07:19:45Z</time>
      </trkpt>
      <trkpt lat="45.77656" lon="5.43788">
        <ele>236.4</ele>
        <time>2023-05-28T07:19:46Z</time>
      </trkpt>
      <trkpt lat="45.77659" lon="5.43798">
        <ele>236.2</ele>
        <time>2023-05-28T07:19:47Z</time>
      </trkpt>
      <trkpt lat="45.77663" lon="5.43808">
        <ele>236.2</ele>
        <time>2023-05-28T07:19:48Z</time>
      </trkpt>
      <trkpt lat="45.77667" lon="5.43818">
        <ele>236.2</ele>
        <time>2023-05-28T07:19:49Z</time>
      </trkpt>
      <trkpt lat="45.77671" lon="5.43828">
        <ele>236.2</ele>
        <time>2023-05-28T07:19:50Z</time>
      </trkpt>
      <trkpt lat="45.77675" lon="5.43838">
        <ele>236</ele>
        <time>2023-05-28T07:19:51Z</time>
      </trkpt>
      <trkpt lat="45.77679" lon="5.43847">
        <ele>236</ele>
        <time>2023-05-28T07:19:52Z</time>
      </trkpt>
      <trkpt lat="45.77684" lon="5.43856">
        <ele>236.2</ele>
        <time>2023-05-28T07:19:53Z</time>
      </trkpt>
      <trkpt lat="45.77688" lon="5.43865">
        <ele>236.2</ele>
        <time>2023-05-28T07:19:54Z</time>
      </trkpt>
      <trkpt lat="45.77693" lon="5.43874">
        <ele>236.4</ele>
        <time>2023-05-28T07:19:55Z</time>
      </trkpt>
      <trkpt lat="45.77698" lon="5.43883">
        <ele>236.4</ele>
        <time>2023-05-28T07:19:56Z</time>
      </trkpt>
      <trkpt lat="45.77703" lon="5.43893">
        <ele>236.2</ele>
        <time>2023-05-28T07:19:57Z</time>
      </trkpt>
      <trkpt lat="45.77708" lon="5.43902">
        <ele>236.2</ele>
        <time>2023-05-28T07:19:58Z</time>
      </trkpt>
      <trkpt lat="45.77713" lon="5.4391">
        <ele>236.2</ele>
        <time>2023-05-28T07:19:59Z</time>
      </trkpt>
      <trkpt lat="45.77718" lon="5.43919">
        <ele>236.2</ele>
        <time>2023-05-28T07:20:00Z</time>
      </trkpt>
      <trkpt lat="45.77723" lon="5.43928">
        <ele>236</ele>
        <time>2023-05-28T07:20:01Z</time>
      </trkpt>
      <trkpt lat="45.77729" lon="5.43936">
        <ele>236.2</ele>
        <time>2023-05-28T07:20:02Z</time>
      </trkpt>
      <trkpt lat="45.77734" lon="5.43944">
        <ele>236.2</ele>
        <time>2023-05-28T07:20:03Z</time>
      </trkpt>
      <trkpt lat="45.7774" lon="5.43952">
        <ele>236.2</ele>
        <time>2023-05-28T07:20:04Z</time>
      </trkpt>
      <trkpt lat="45.77746" lon="5.4396">
        <ele>236.2</ele>
        <time>2023-05-28T07:20:05Z</time>
      </trkpt>
      <trkpt lat="45.77752" lon="5.43968">
        <ele>236</ele>
        <time>2023-05-28T07:20:06Z</time>
      </trkpt>
      <trkpt lat="45.77758" lon="5.43975">
        <ele>235.8</ele>
        <time>2023-05-28T07:20:07Z</time>
      </trkpt>
      <trkpt lat="45.7777" lon="5.43989">
        <ele>235.6</ele>
        <time>2023-05-28T07:20:09Z</time>
      </trkpt>
      <trkpt lat="45.77776" lon="5.43997">
        <ele>235.6</ele>
        <time>2023-05-28T07:20:10Z</time>
      </trkpt>
      <trkpt lat="45.77782" lon="5.44004">
        <ele>235.6</ele>
        <time>2023-05-28T07:20:11Z</time>
      </trkpt>
      <trkpt lat="45.77788" lon="5.4401">
        <ele>235.6</ele>
        <time>2023-05-28T07:20:12Z</time>
      </trkpt>
      <trkpt lat="45.77794" lon="5.44017">
        <ele>235.4</ele>
        <time>2023-05-28T07:20:13Z</time>
      </trkpt>
      <trkpt lat="45.778" lon="5.44024">
        <ele>235.4</ele>
        <time>2023-05-28T07:20:14Z</time>
      </trkpt>
      <trkpt lat="45.77807" lon="5.4403">
        <ele>235.2</ele>
        <time>2023-05-28T07:20:15Z</time>
      </trkpt>
      <trkpt lat="45.77813" lon="5.44036">
        <ele>235</ele>
        <time>2023-05-28T07:20:16Z</time>
      </trkpt>
      <trkpt lat="45.7782" lon="5.44042">
        <ele>235</ele>
        <time>2023-05-28T07:20:17Z</time>
      </trkpt>
      <trkpt lat="45.77827" lon="5.44047">
        <ele>235</ele>
        <time>2023-05-28T07:20:18Z</time>
      </trkpt>
      <trkpt lat="45.77834" lon="5.44052">
        <ele>234.8</ele>
        <time>2023-05-28T07:20:19Z</time>
      </trkpt>
      <trkpt lat="45.7784" lon="5.44057">
        <ele>234.8</ele>
        <time>2023-05-28T07:20:20Z</time>
      </trkpt>
      <trkpt lat="45.77847" lon="5.44061">
        <ele>234.4</ele>
        <time>2023-05-28T07:20:21Z</time>
      </trkpt>
      <trkpt lat="45.77854" lon="5.44066">
        <ele>234.2</ele>
        <time>2023-05-28T07:20:22Z</time>
      </trkpt>
      <trkpt lat="45.77861" lon="5.44071">
        <ele>234</ele>
        <time>2023-05-28T07:20:23Z</time>
      </trkpt>
      <trkpt lat="45.77875" lon="5.4408">
        <ele>233.8</ele>
        <time>2023-05-28T07:20:25Z</time>
      </trkpt>
      <trkpt lat="45.77881" lon="5.44084">
        <ele>233.6</ele>
        <time>2023-05-28T07:20:26Z</time>
      </trkpt>
      <trkpt lat="45.77888" lon="5.44089">
        <ele>233.4</ele>
        <time>2023-05-28T07:20:27Z</time>
      </trkpt>
      <trkpt lat="45.77895" lon="5.44093">
        <ele>233.4</ele>
        <time>2023-05-28T07:20:28Z</time>
      </trkpt>
      <trkpt lat="45.77901" lon="5.44097">
        <ele>233.4</ele>
        <time>2023-05-28T07:20:29Z</time>
      </trkpt>
      <trkpt lat="45.77908" lon="5.44101">
        <ele>233.4</ele>
        <time>2023-05-28T07:20:30Z</time>
      </trkpt>
      <trkpt lat="45.77915" lon="5.44105">
        <ele>233.4</ele>
        <time>2023-05-28T07:20:31Z</time>
      </trkpt>
      <trkpt lat="45.77921" lon="5.44109">
        <ele>233.4</ele>
        <time>2023-05-28T07:20:32Z</time>
      </trkpt>
      <trkpt lat="45.77927" lon="5.44114">
        <ele>233.4</ele>
        <time>2023-05-28T07:20:33Z</time>
      </trkpt>
      <trkpt lat="45.77934" lon="5.44118">
        <ele>233.4</ele>
        <time>2023-05-28T07:20:34Z</time>
      </trkpt>
      <trkpt lat="45.77941" lon="5.44122">
        <ele>233.4</ele>
        <time>2023-05-28T07:20:35Z</time>
      </trkpt>
      <trkpt lat="45.77948" lon="5.44126">
        <ele>233.4</ele>
        <time>2023-05-28T07:20:36Z</time>
      </trkpt>
      <trkpt lat="45.77955" lon="5.4413">
        <ele>233.4</ele>
        <time>2023-05-28T07:20:37Z</time>
      </trkpt>
      <trkpt lat="45.77961" lon="5.44135">
        <ele>233.6</ele>
        <time>2023-05-28T07:20:38Z</time>
      </trkpt>
      <trkpt lat="45.77968" lon="5.4414">
        <ele>233.6</ele>
        <time>2023-05-28T07:20:39Z</time>
      </trkpt>
      <trkpt lat="45.77975" lon="5.44144">
        <ele>233.6</ele>
        <time>2023-05-28T07:20:40Z</time>
      </trkpt>
      <trkpt lat="45.77982" lon="5.44149">
        <ele>233.4</ele>
        <time>2023-05-28T07:20:41Z</time>
      </trkpt>
      <trkpt lat="45.77989" lon="5.44153">
        <ele>233.4</ele>
        <time>2023-05-28T07:20:42Z</time>
      </trkpt>
      <trkpt lat="45.77996" lon="5.44157">
        <ele>233.2</ele>
        <time>2023-05-28T07:20:43Z</time>
      </trkpt>
      <trkpt lat="45.78002" lon="5.44161">
        <ele>233.2</ele>
        <time>2023-05-28T07:20:44Z</time>
      </trkpt>
      <trkpt lat="45.78009" lon="5.44165">
        <ele>233.2</ele>
        <time>2023-05-28T07:20:45Z</time>
      </trkpt>
      <trkpt lat="45.78015" lon="5.4417">
        <ele>233.2</ele>
        <time>2023-05-28T07:20:46Z</time>
      </trkpt>
      <trkpt lat="45.78022" lon="5.44174">
        <ele>233.2</ele>
        <time>2023-05-28T07:20:47Z</time>
      </trkpt>
      <trkpt lat="45.78028" lon="5.44178">
        <ele>233</ele>
        <time>2023-05-28T07:20:48Z</time>
      </trkpt>
      <trkpt lat="45.78034" lon="5.44181">
        <ele>233</ele>
        <time>2023-05-28T07:20:49Z</time>
      </trkpt>
      <trkpt lat="45.7804" lon="5.44185">
        <ele>233.2</ele>
        <time>2023-05-28T07:20:50Z</time>
      </trkpt>
      <trkpt lat="45.78045" lon="5.44189">
        <ele>233.2</ele>
        <time>2023-05-28T07:20:51Z</time>
      </trkpt>
      <trkpt lat="45.7805" lon="5.44192">
        <ele>233.2</ele>
        <time>2023-05-28T07:20:52Z</time>
      </trkpt>
      <trkpt lat="45.78053" lon="5.44194">
        <ele>233.2</ele>
        <time>2023-05-28T07:20:53Z</time>
      </trkpt>
      <trkpt lat="45.78056" lon="5.44196">
        <ele>233.4</ele>
        <time>2023-05-28T07:20:54Z</time>
      </trkpt>
      <trkpt lat="45.78056" lon="5.44197">
        <ele>233.4</ele>
        <time>2023-05-28T07:20:55Z</time>
      </trkpt>
      <trkpt lat="45.78056" lon="5.44199">
        <ele>233.4</ele>
        <time>2023-05-28T07:20:56Z</time>
      </trkpt>
      <trkpt lat="45.78056" lon="5.44202">
        <ele>233.4</ele>
        <time>2023-05-28T07:20:57Z</time>
      </trkpt>
      <trkpt lat="45.78055" lon="5.44205">
        <ele>233.4</ele>
        <time>2023-05-28T07:20:58Z</time>
      </trkpt>
      <trkpt lat="45.78054" lon="5.44209">
        <ele>233.4</ele>
        <time>2023-05-28T07:20:59Z</time>
      </trkpt>
      <trkpt lat="45.78053" lon="5.44213">
        <ele>233.4</ele>
        <time>2023-05-28T07:21:00Z</time>
      </trkpt>
      <trkpt lat="45.78052" lon="5.44218">
        <ele>233.4</ele>
        <time>2023-05-28T07:21:01Z</time>
      </trkpt>
      <trkpt lat="45.7805" lon="5.44225">
        <ele>233.2</ele>
        <time>2023-05-28T07:21:02Z</time>
      </trkpt>
      <trkpt lat="45.78048" lon="5.44232">
        <ele>233.2</ele>
        <time>2023-05-28T07:21:03Z</time>
      </trkpt>
      <trkpt lat="45.78046" lon="5.4424">
        <ele>233</ele>
        <time>2023-05-28T07:21:04Z</time>
      </trkpt>
      <trkpt lat="45.78044" lon="5.44248">
        <ele>233</ele>
        <time>2023-05-28T07:21:05Z</time>
      </trkpt>
      <trkpt lat="45.78042" lon="5.44258">
        <ele>233</ele>
        <time>2023-05-28T07:21:06Z</time>
      </trkpt>
      <trkpt lat="45.7804" lon="5.44267">
        <ele>233</ele>
        <time>2023-05-28T07:21:07Z</time>
      </trkpt>
      <trkpt lat="45.78038" lon="5.44277">
        <ele>232.8</ele>
        <time>2023-05-28T07:21:08Z</time>
      </trkpt>
      <trkpt lat="45.78036" lon="5.44287">
        <ele>232.8</ele>
        <time>2023-05-28T07:21:09Z</time>
      </trkpt>
      <trkpt lat="45.78033" lon="5.44297">
        <ele>232.8</ele>
        <time>2023-05-28T07:21:10Z</time>
      </trkpt>
      <trkpt lat="45.7803" lon="5.44307">
        <ele>232.8</ele>
        <time>2023-05-28T07:21:11Z</time>
      </trkpt>
      <trkpt lat="45.78028" lon="5.44317">
        <ele>232.6</ele>
        <time>2023-05-28T07:21:12Z</time>
      </trkpt>
      <trkpt lat="45.78026" lon="5.44327">
        <ele>232.6</ele>
        <time>2023-05-28T07:21:13Z</time>
      </trkpt>
      <trkpt lat="45.78023" lon="5.44337">
        <ele>232.6</ele>
        <time>2023-05-28T07:21:14Z</time>
      </trkpt>
      <trkpt lat="45.78021" lon="5.44347">
        <ele>232.6</ele>
        <time>2023-05-28T07:21:15Z</time>
      </trkpt>
      <trkpt lat="45.78019" lon="5.44357">
        <ele>232.6</ele>
        <time>2023-05-28T07:21:16Z</time>
      </trkpt>
      <trkpt lat="45.78016" lon="5.44367">
        <ele>232.6</ele>
        <time>2023-05-28T07:21:17Z</time>
      </trkpt>
      <trkpt lat="45.78014" lon="5.44377">
        <ele>232.6</ele>
        <time>2023-05-28T07:21:18Z</time>
      </trkpt>
      <trkpt lat="45.78011" lon="5.44387">
        <ele>232.8</ele>
        <time>2023-05-28T07:21:19Z</time>
      </trkpt>
      <trkpt lat="45.78009" lon="5.44397">
        <ele>232.8</ele>
        <time>2023-05-28T07:21:20Z</time>
      </trkpt>
      <trkpt lat="45.78007" lon="5.44407">
        <ele>232.8</ele>
        <time>2023-05-28T07:21:21Z</time>
      </trkpt>
      <trkpt lat="45.78005" lon="5.44416">
        <ele>232.8</ele>
        <time>2023-05-28T07:21:22Z</time>
      </trkpt>
      <trkpt lat="45.78003" lon="5.44426">
        <ele>232.8</ele>
        <time>2023-05-28T07:21:23Z</time>
      </trkpt>
      <trkpt lat="45.78001" lon="5.44437">
        <ele>232.8</ele>
        <time>2023-05-28T07:21:24Z</time>
      </trkpt>
      <trkpt lat="45.77999" lon="5.44447">
        <ele>232.8</ele>
        <time>2023-05-28T07:21:25Z</time>
      </trkpt>
      <trkpt lat="45.77997" lon="5.44457">
        <ele>232.8</ele>
        <time>2023-05-28T07:21:26Z</time>
      </trkpt>
      <trkpt lat="45.77994" lon="5.44468">
        <ele>232.8</ele>
        <time>2023-05-28T07:21:27Z</time>
      </trkpt>
      <trkpt lat="45.77992" lon="5.44478">
        <ele>233</ele>
        <time>2023-05-28T07:21:28Z</time>
      </trkpt>
      <trkpt lat="45.7799" lon="5.44488">
        <ele>233</ele>
        <time>2023-05-28T07:21:29Z</time>
      </trkpt>
      <trkpt lat="45.77987" lon="5.44498">
        <ele>233</ele>
        <time>2023-05-28T07:21:30Z</time>
      </trkpt>
      <trkpt lat="45.77985" lon="5.44509">
        <ele>233.2</ele>
        <time>2023-05-28T07:21:31Z</time>
      </trkpt>
      <trkpt lat="45.77983" lon="5.44519">
        <ele>233</ele>
        <time>2023-05-28T07:21:32Z</time>
      </trkpt>
      <trkpt lat="45.77981" lon="5.4453">
        <ele>233.2</ele>
        <time>2023-05-28T07:21:33Z</time>
      </trkpt>
      <trkpt lat="45.7798" lon="5.44541">
        <ele>233.2</ele>
        <time>2023-05-28T07:21:34Z</time>
      </trkpt>
      <trkpt lat="45.77979" lon="5.44553">
        <ele>233.2</ele>
        <time>2023-05-28T07:21:35Z</time>
      </trkpt>
      <trkpt lat="45.77978" lon="5.44564">
        <ele>233.2</ele>
        <time>2023-05-28T07:21:36Z</time>
      </trkpt>
      <trkpt lat="45.77977" lon="5.44575">
        <ele>233.4</ele>
        <time>2023-05-28T07:21:37Z</time>
      </trkpt>
      <trkpt lat="45.77978" lon="5.44586">
        <ele>233.4</ele>
        <time>2023-05-28T07:21:38Z</time>
      </trkpt>
      <trkpt lat="45.77979" lon="5.44597">
        <ele>233.4</ele>
        <time>2023-05-28T07:21:39Z</time>
      </trkpt>
      <trkpt lat="45.7798" lon="5.44609">
        <ele>233.4</ele>
        <time>2023-05-28T07:21:40Z</time>
      </trkpt>
      <trkpt lat="45.77982" lon="5.4462">
        <ele>233.4</ele>
        <time>2023-05-28T07:21:41Z</time>
      </trkpt>
      <trkpt lat="45.77985" lon="5.44632">
        <ele>233.4</ele>
        <time>2023-05-28T07:21:42Z</time>
      </trkpt>
      <trkpt lat="45.77988" lon="5.44643">
        <ele>233.4</ele>
        <time>2023-05-28T07:21:43Z</time>
      </trkpt>
      <trkpt lat="45.77992" lon="5.44654">
        <ele>233.4</ele>
        <time>2023-05-28T07:21:44Z</time>
      </trkpt>
      <trkpt lat="45.77995" lon="5.44664">
        <ele>233.4</ele>
        <time>2023-05-28T07:21:45Z</time>
      </trkpt>
      <trkpt lat="45.77998" lon="5.44675">
        <ele>233.6</ele>
        <time>2023-05-28T07:21:46Z</time>
      </trkpt>
      <trkpt lat="45.78002" lon="5.44686">
        <ele>233.6</ele>
        <time>2023-05-28T07:21:47Z</time>
      </trkpt>
      <trkpt lat="45.78006" lon="5.44696">
        <ele>233.6</ele>
        <time>2023-05-28T07:21:48Z</time>
      </trkpt>
      <trkpt lat="45.7801" lon="5.44706">
        <ele>233.6</ele>
        <time>2023-05-28T07:21:49Z</time>
      </trkpt>
      <trkpt lat="45.78014" lon="5.44716">
        <ele>233.6</ele>
        <time>2023-05-28T07:21:50Z</time>
      </trkpt>
      <trkpt lat="45.78017" lon="5.44727">
        <ele>233.6</ele>
        <time>2023-05-28T07:21:51Z</time>
      </trkpt>
      <trkpt lat="45.78021" lon="5.44737">
        <ele>233.6</ele>
        <time>2023-05-28T07:21:52Z</time>
      </trkpt>
      <trkpt lat="45.78025" lon="5.44747">
        <ele>233.6</ele>
        <time>2023-05-28T07:21:53Z</time>
      </trkpt>
      <trkpt lat="45.78029" lon="5.44757">
        <ele>233.6</ele>
        <time>2023-05-28T07:21:54Z</time>
      </trkpt>
      <trkpt lat="45.78032" lon="5.44767">
        <ele>233.6</ele>
        <time>2023-05-28T07:21:55Z</time>
      </trkpt>
      <trkpt lat="45.78036" lon="5.44777">
        <ele>233.6</ele>
        <time>2023-05-28T07:21:56Z</time>
      </trkpt>
      <trkpt lat="45.7804" lon="5.44787">
        <ele>233.6</ele>
        <time>2023-05-28T07:21:57Z</time>
      </trkpt>
      <trkpt lat="45.78043" lon="5.44797">
        <ele>233.6</ele>
        <time>2023-05-28T07:21:58Z</time>
      </trkpt>
      <trkpt lat="45.78047" lon="5.44808">
        <ele>233.6</ele>
        <time>2023-05-28T07:21:59Z</time>
      </trkpt>
      <trkpt lat="45.78051" lon="5.44818">
        <ele>233.6</ele>
        <time>2023-05-28T07:22:00Z</time>
      </trkpt>
      <trkpt lat="45.78055" lon="5.44829">
        <ele>233.6</ele>
        <time>2023-05-28T07:22:01Z</time>
      </trkpt>
      <trkpt lat="45.78059" lon="5.44839">
        <ele>233.4</ele>
        <time>2023-05-28T07:22:02Z</time>
      </trkpt>
      <trkpt lat="45.78063" lon="5.44849">
        <ele>233.4</ele>
        <time>2023-05-28T07:22:03Z</time>
      </trkpt>
      <trkpt lat="45.78067" lon="5.4486">
        <ele>233.4</ele>
        <time>2023-05-28T07:22:04Z</time>
      </trkpt>
      <trkpt lat="45.78071" lon="5.4487">
        <ele>233.4</ele>
        <time>2023-05-28T07:22:05Z</time>
      </trkpt>
      <trkpt lat="45.78075" lon="5.4488">
        <ele>233.4</ele>
        <time>2023-05-28T07:22:06Z</time>
      </trkpt>
      <trkpt lat="45.78079" lon="5.44891">
        <ele>233.4</ele>
        <time>2023-05-28T07:22:07Z</time>
      </trkpt>
      <trkpt lat="45.78084" lon="5.44901">
        <ele>233.4</ele>
        <time>2023-05-28T07:22:08Z</time>
      </trkpt>
      <trkpt lat="45.7809" lon="5.44911">
        <ele>233.4</ele>
        <time>2023-05-28T07:22:09Z</time>
      </trkpt>
      <trkpt lat="45.78095" lon="5.44921">
        <ele>233.2</ele>
        <time>2023-05-28T07:22:10Z</time>
      </trkpt>
      <trkpt lat="45.78101" lon="5.44931">
        <ele>233.2</ele>
        <time>2023-05-28T07:22:11Z</time>
      </trkpt>
      <trkpt lat="45.78107" lon="5.44942">
        <ele>233.2</ele>
        <time>2023-05-28T07:22:12Z</time>
      </trkpt>
      <trkpt lat="45.78113" lon="5.44952">
        <ele>232.8</ele>
        <time>2023-05-28T07:22:13Z</time>
      </trkpt>
      <trkpt lat="45.78121" lon="5.44962">
        <ele>232.8</ele>
        <time>2023-05-28T07:22:14Z</time>
      </trkpt>
      <trkpt lat="45.78128" lon="5.44973">
        <ele>232.6</ele>
        <time>2023-05-28T07:22:15Z</time>
      </trkpt>
      <trkpt lat="45.78135" lon="5.44983">
        <ele>232.6</ele>
        <time>2023-05-28T07:22:16Z</time>
      </trkpt>
      <trkpt lat="45.78143" lon="5.44993">
        <ele>232</ele>
        <time>2023-05-28T07:22:17Z</time>
      </trkpt>
      <trkpt lat="45.78152" lon="5.45002">
        <ele>231.8</ele>
        <time>2023-05-28T07:22:18Z</time>
      </trkpt>
      <trkpt lat="45.78161" lon="5.45012">
        <ele>231.6</ele>
        <time>2023-05-28T07:22:19Z</time>
      </trkpt>
      <trkpt lat="45.7817" lon="5.45021">
        <ele>231.4</ele>
        <time>2023-05-28T07:22:20Z</time>
      </trkpt>
      <trkpt lat="45.78179" lon="5.45029">
        <ele>231.2</ele>
        <time>2023-05-28T07:22:21Z</time>
      </trkpt>
      <trkpt lat="45.78188" lon="5.45038">
        <ele>231</ele>
        <time>2023-05-28T07:22:22Z</time>
      </trkpt>
      <trkpt lat="45.78197" lon="5.45046">
        <ele>230.6</ele>
        <time>2023-05-28T07:22:23Z</time>
      </trkpt>
      <trkpt lat="45.78207" lon="5.45053">
        <ele>230.6</ele>
        <time>2023-05-28T07:22:24Z</time>
      </trkpt>
      <trkpt lat="45.78216" lon="5.4506">
        <ele>230.4</ele>
        <time>2023-05-28T07:22:25Z</time>
      </trkpt>
      <trkpt lat="45.78225" lon="5.45067">
        <ele>229.8</ele>
        <time>2023-05-28T07:22:26Z</time>
      </trkpt>
      <trkpt lat="45.78235" lon="5.45074">
        <ele>229.8</ele>
        <time>2023-05-28T07:22:27Z</time>
      </trkpt>
      <trkpt lat="45.78244" lon="5.4508">
        <ele>229.6</ele>
        <time>2023-05-28T07:22:28Z</time>
      </trkpt>
      <trkpt lat="45.78253" lon="5.45086">
        <ele>229.4</ele>
        <time>2023-05-28T07:22:29Z</time>
      </trkpt>
      <trkpt lat="45.78262" lon="5.45092">
        <ele>229</ele>
        <time>2023-05-28T07:22:30Z</time>
      </trkpt>
      <trkpt lat="45.78271" lon="5.45099">
        <ele>228.6</ele>
        <time>2023-05-28T07:22:31Z</time>
      </trkpt>
      <trkpt lat="45.7828" lon="5.45105">
        <ele>228.6</ele>
        <time>2023-05-28T07:22:32Z</time>
      </trkpt>
      <trkpt lat="45.78289" lon="5.45111">
        <ele>228.4</ele>
        <time>2023-05-28T07:22:33Z</time>
      </trkpt>
      <trkpt lat="45.78298" lon="5.45116">
        <ele>228.2</ele>
        <time>2023-05-28T07:22:34Z</time>
      </trkpt>
      <trkpt lat="45.78306" lon="5.45121">
        <ele>228</ele>
        <time>2023-05-28T07:22:35Z</time>
      </trkpt>
      <trkpt lat="45.78314" lon="5.45126">
        <ele>228</ele>
        <time>2023-05-28T07:22:36Z</time>
      </trkpt>
      <trkpt lat="45.78322" lon="5.45132">
        <ele>227.8</ele>
        <time>2023-05-28T07:22:37Z</time>
      </trkpt>
      <trkpt lat="45.78329" lon="5.45137">
        <ele>227.8</ele>
        <time>2023-05-28T07:22:38Z</time>
      </trkpt>
      <trkpt lat="45.78337" lon="5.45142">
        <ele>227.6</ele>
        <time>2023-05-28T07:22:39Z</time>
      </trkpt>
      <trkpt lat="45.78344" lon="5.45147">
        <ele>227.6</ele>
        <time>2023-05-28T07:22:40Z</time>
      </trkpt>
      <trkpt lat="45.78351" lon="5.45152">
        <ele>227.6</ele>
        <time>2023-05-28T07:22:41Z</time>
      </trkpt>
      <trkpt lat="45.78359" lon="5.45158">
        <ele>227.4</ele>
        <time>2023-05-28T07:22:42Z</time>
      </trkpt>
      <trkpt lat="45.78366" lon="5.45163">
        <ele>227.4</ele>
        <time>2023-05-28T07:22:43Z</time>
      </trkpt>
      <trkpt lat="45.78374" lon="5.45168">
        <ele>227.4</ele>
        <time>2023-05-28T07:22:44Z</time>
      </trkpt>
      <trkpt lat="45.78381" lon="5.45173">
        <ele>227.4</ele>
        <time>2023-05-28T07:22:45Z</time>
      </trkpt>
      <trkpt lat="45.78388" lon="5.45178">
        <ele>227.2</ele>
        <time>2023-05-28T07:22:46Z</time>
      </trkpt>
      <trkpt lat="45.78396" lon="5.45183">
        <ele>227.2</ele>
        <time>2023-05-28T07:22:47Z</time>
      </trkpt>
      <trkpt lat="45.78404" lon="5.45189">
        <ele>227.2</ele>
        <time>2023-05-28T07:22:48Z</time>
      </trkpt>
      <trkpt lat="45.78412" lon="5.45194">
        <ele>227</ele>
        <time>2023-05-28T07:22:49Z</time>
      </trkpt>
      <trkpt lat="45.7842" lon="5.452">
        <ele>227</ele>
        <time>2023-05-28T07:22:50Z</time>
      </trkpt>
      <trkpt lat="45.78428" lon="5.45205">
        <ele>227</ele>
        <time>2023-05-28T07:22:51Z</time>
      </trkpt>
      <trkpt lat="45.78436" lon="5.45211">
        <ele>226.8</ele>
        <time>2023-05-28T07:22:52Z</time>
      </trkpt>
      <trkpt lat="45.78444" lon="5.45216">
        <ele>226.6</ele>
        <time>2023-05-28T07:22:53Z</time>
      </trkpt>
      <trkpt lat="45.78452" lon="5.45222">
        <ele>226.4</ele>
        <time>2023-05-28T07:22:54Z</time>
      </trkpt>
      <trkpt lat="45.7846" lon="5.45227">
        <ele>226.2</ele>
        <time>2023-05-28T07:22:55Z</time>
      </trkpt>
      <trkpt lat="45.78469" lon="5.45233">
        <ele>226</ele>
        <time>2023-05-28T07:22:56Z</time>
      </trkpt>
      <trkpt lat="45.78477" lon="5.45239">
        <ele>225.8</ele>
        <time>2023-05-28T07:22:57Z</time>
      </trkpt>
      <trkpt lat="45.78485" lon="5.45245">
        <ele>225.6</ele>
        <time>2023-05-28T07:22:58Z</time>
      </trkpt>
      <trkpt lat="45.78494" lon="5.45251">
        <ele>225.4</ele>
        <time>2023-05-28T07:22:59Z</time>
      </trkpt>
      <trkpt lat="45.78502" lon="5.45257">
        <ele>225.2</ele>
        <time>2023-05-28T07:23:00Z</time>
      </trkpt>
      <trkpt lat="45.78509" lon="5.45266">
        <ele>225</ele>
        <time>2023-05-28T07:23:01Z</time>
      </trkpt>
      <trkpt lat="45.78515" lon="5.45279">
        <ele>224.8</ele>
        <time>2023-05-28T07:23:02Z</time>
      </trkpt>
      <trkpt lat="45.78515" lon="5.45292">
        <ele>224.6</ele>
        <time>2023-05-28T07:23:03Z</time>
      </trkpt>
      <trkpt lat="45.78514" lon="5.45305">
        <ele>224.4</ele>
        <time>2023-05-28T07:23:04Z</time>
      </trkpt>
      <trkpt lat="45.78508" lon="5.45329">
        <ele>223.8</ele>
        <time>2023-05-28T07:23:06Z</time>
      </trkpt>
      <trkpt lat="45.78504" lon="5.4534">
        <ele>223.4</ele>
        <time>2023-05-28T07:23:07Z</time>
      </trkpt>
      <trkpt lat="45.78501" lon="5.45352">
        <ele>223</ele>
        <time>2023-05-28T07:23:08Z</time>
      </trkpt>
      <trkpt lat="45.78498" lon="5.45363">
        <ele>222.8</ele>
        <time>2023-05-28T07:23:09Z</time>
      </trkpt>
      <trkpt lat="45.78494" lon="5.45373">
        <ele>222.4</ele>
        <time>2023-05-28T07:23:10Z</time>
      </trkpt>
      <trkpt lat="45.78491" lon="5.45383">
        <ele>222.4</ele>
        <time>2023-05-28T07:23:11Z</time>
      </trkpt>
      <trkpt lat="45.78487" lon="5.45394">
        <ele>222.2</ele>
        <time>2023-05-28T07:23:12Z</time>
      </trkpt>
      <trkpt lat="45.78483" lon="5.45404">
        <ele>222</ele>
        <time>2023-05-28T07:23:13Z</time>
      </trkpt>
      <trkpt lat="45.7848" lon="5.45414">
        <ele>222</ele>
        <time>2023-05-28T07:23:14Z</time>
      </trkpt>
      <trkpt lat="45.78473" lon="5.45434">
        <ele>222</ele>
        <time>2023-05-28T07:23:16Z</time>
      </trkpt>
      <trkpt lat="45.7847" lon="5.45445">
        <ele>222</ele>
        <time>2023-05-28T07:23:17Z</time>
      </trkpt>
      <trkpt lat="45.78467" lon="5.45455">
        <ele>222</ele>
        <time>2023-05-28T07:23:18Z</time>
      </trkpt>
      <trkpt lat="45.78463" lon="5.45465">
        <ele>222</ele>
        <time>2023-05-28T07:23:19Z</time>
      </trkpt>
      <trkpt lat="45.7846" lon="5.45476">
        <ele>221.8</ele>
        <time>2023-05-28T07:23:20Z</time>
      </trkpt>
      <trkpt lat="45.78456" lon="5.45486">
        <ele>221.8</ele>
        <time>2023-05-28T07:23:21Z</time>
      </trkpt>
      <trkpt lat="45.78453" lon="5.45496">
        <ele>221.8</ele>
        <time>2023-05-28T07:23:22Z</time>
      </trkpt>
      <trkpt lat="45.78449" lon="5.45506">
        <ele>221.8</ele>
        <time>2023-05-28T07:23:23Z</time>
      </trkpt>
      <trkpt lat="45.78445" lon="5.45516">
        <ele>221.8</ele>
        <time>2023-05-28T07:23:24Z</time>
      </trkpt>
      <trkpt lat="45.78441" lon="5.45526">
        <ele>221.8</ele>
        <time>2023-05-28T07:23:25Z</time>
      </trkpt>
      <trkpt lat="45.78436" lon="5.45536">
        <ele>221.8</ele>
        <time>2023-05-28T07:23:26Z</time>
      </trkpt>
      <trkpt lat="45.78427" lon="5.45556">
        <ele>221.6</ele>
        <time>2023-05-28T07:23:28Z</time>
      </trkpt>
      <trkpt lat="45.78422" lon="5.45566">
        <ele>221.6</ele>
        <time>2023-05-28T07:23:29Z</time>
      </trkpt>
      <trkpt lat="45.78417" lon="5.45575">
        <ele>221.6</ele>
        <time>2023-05-28T07:23:30Z</time>
      </trkpt>
      <trkpt lat="45.78412" lon="5.45586">
        <ele>221.6</ele>
        <time>2023-05-28T07:23:31Z</time>
      </trkpt>
      <trkpt lat="45.78408" lon="5.45596">
        <ele>221.6</ele>
        <time>2023-05-28T07:23:32Z</time>
      </trkpt>
      <trkpt lat="45.78403" lon="5.45605">
        <ele>221.6</ele>
        <time>2023-05-28T07:23:33Z</time>
      </trkpt>
      <trkpt lat="45.78399" lon="5.45615">
        <ele>221.4</ele>
        <time>2023-05-28T07:23:34Z</time>
      </trkpt>
      <trkpt lat="45.78394" lon="5.45625">
        <ele>221.4</ele>
        <time>2023-05-28T07:23:35Z</time>
      </trkpt>
      <trkpt lat="45.7839" lon="5.45635">
        <ele>221.4</ele>
        <time>2023-05-28T07:23:36Z</time>
      </trkpt>
      <trkpt lat="45.78386" lon="5.45645">
        <ele>221.2</ele>
        <time>2023-05-28T07:23:37Z</time>
      </trkpt>
      <trkpt lat="45.78378" lon="5.45664">
        <ele>221</ele>
        <time>2023-05-28T07:23:39Z</time>
      </trkpt>
      <trkpt lat="45.78373" lon="5.45673">
        <ele>221</ele>
        <time>2023-05-28T07:23:40Z</time>
      </trkpt>
      <trkpt lat="45.78369" lon="5.45683">
        <ele>221</ele>
        <time>2023-05-28T07:23:41Z</time>
      </trkpt>
      <trkpt lat="45.78365" lon="5.45693">
        <ele>220.8</ele>
        <time>2023-05-28T07:23:42Z</time>
      </trkpt>
      <trkpt lat="45.7836" lon="5.45703">
        <ele>220.8</ele>
        <time>2023-05-28T07:23:43Z</time>
      </trkpt>
      <trkpt lat="45.78356" lon="5.45712">
        <ele>220.8</ele>
        <time>2023-05-28T07:23:44Z</time>
      </trkpt>
      <trkpt lat="45.78352" lon="5.45722">
        <ele>220.8</ele>
        <time>2023-05-28T07:23:45Z</time>
      </trkpt>
      <trkpt lat="45.78347" lon="5.45732">
        <ele>220.8</ele>
        <time>2023-05-28T07:23:46Z</time>
      </trkpt>
      <trkpt lat="45.78342" lon="5.45741">
        <ele>220.8</ele>
        <time>2023-05-28T07:23:47Z</time>
      </trkpt>
      <trkpt lat="45.78337" lon="5.45751">
        <ele>220.8</ele>
        <time>2023-05-28T07:23:48Z</time>
      </trkpt>
      <trkpt lat="45.78328" lon="5.4577">
        <ele>220.6</ele>
        <time>2023-05-28T07:23:50Z</time>
      </trkpt>
      <trkpt lat="45.78323" lon="5.45779">
        <ele>220.4</ele>
        <time>2023-05-28T07:23:51Z</time>
      </trkpt>
      <trkpt lat="45.78318" lon="5.45788">
        <ele>220.4</ele>
        <time>2023-05-28T07:23:52Z</time>
      </trkpt>
      <trkpt lat="45.78313" lon="5.45796">
        <ele>220.4</ele>
        <time>2023-05-28T07:23:53Z</time>
      </trkpt>
      <trkpt lat="45.78307" lon="5.45805">
        <ele>220.4</ele>
        <time>2023-05-28T07:23:54Z</time>
      </trkpt>
      <trkpt lat="45.78303" lon="5.45814">
        <ele>220.4</ele>
        <time>2023-05-28T07:23:55Z</time>
      </trkpt>
      <trkpt lat="45.78298" lon="5.45823">
        <ele>220.4</ele>
        <time>2023-05-28T07:23:56Z</time>
      </trkpt>
      <trkpt lat="45.78293" lon="5.45831">
        <ele>220.4</ele>
        <time>2023-05-28T07:23:57Z</time>
      </trkpt>
      <trkpt lat="45.78287" lon="5.4584">
        <ele>220.6</ele>
        <time>2023-05-28T07:23:58Z</time>
      </trkpt>
      <trkpt lat="45.78282" lon="5.45848">
        <ele>220.6</ele>
        <time>2023-05-28T07:23:59Z</time>
      </trkpt>
      <trkpt lat="45.78277" lon="5.45857">
        <ele>220.6</ele>
        <time>2023-05-28T07:24:00Z</time>
      </trkpt>
      <trkpt lat="45.78267" lon="5.45873">
        <ele>220.6</ele>
        <time>2023-05-28T07:24:02Z</time>
      </trkpt>
      <trkpt lat="45.78262" lon="5.4588">
        <ele>220.4</ele>
        <time>2023-05-28T07:24:03Z</time>
      </trkpt>
      <trkpt lat="45.78257" lon="5.45888">
        <ele>220.4</ele>
        <time>2023-05-28T07:24:04Z</time>
      </trkpt>
      <trkpt lat="45.78252" lon="5.45895">
        <ele>220.4</ele>
        <time>2023-05-28T07:24:05Z</time>
      </trkpt>
      <trkpt lat="45.78246" lon="5.45903">
        <ele>220.4</ele>
        <time>2023-05-28T07:24:06Z</time>
      </trkpt>
      <trkpt lat="45.78241" lon="5.4591">
        <ele>220.4</ele>
        <time>2023-05-28T07:24:07Z</time>
      </trkpt>
      <trkpt lat="45.78235" lon="5.45918">
        <ele>220.4</ele>
        <time>2023-05-28T07:24:08Z</time>
      </trkpt>
      <trkpt lat="45.78229" lon="5.45926">
        <ele>220.4</ele>
        <time>2023-05-28T07:24:09Z</time>
      </trkpt>
      <trkpt lat="45.78223" lon="5.45934">
        <ele>220.4</ele>
        <time>2023-05-28T07:24:10Z</time>
      </trkpt>
      <trkpt lat="45.78218" lon="5.45943">
        <ele>220.4</ele>
        <time>2023-05-28T07:24:11Z</time>
      </trkpt>
      <trkpt lat="45.78208" lon="5.45962">
        <ele>220.2</ele>
        <time>2023-05-28T07:24:13Z</time>
      </trkpt>
      <trkpt lat="45.78203" lon="5.45972">
        <ele>220.2</ele>
        <time>2023-05-28T07:24:14Z</time>
      </trkpt>
      <trkpt lat="45.782" lon="5.45982">
        <ele>220</ele>
        <time>2023-05-28T07:24:15Z</time>
      </trkpt>
      <trkpt lat="45.78196" lon="5.45993">
        <ele>220</ele>
        <time>2023-05-28T07:24:16Z</time>
      </trkpt>
      <trkpt lat="45.78194" lon="5.46004">
        <ele>219.8</ele>
        <time>2023-05-28T07:24:17Z</time>
      </trkpt>
      <trkpt lat="45.78192" lon="5.46016">
        <ele>219.8</ele>
        <time>2023-05-28T07:24:18Z</time>
      </trkpt>
      <trkpt lat="45.7819" lon="5.46027">
        <ele>219.8</ele>
        <time>2023-05-28T07:24:19Z</time>
      </trkpt>
      <trkpt lat="45.78188" lon="5.46038">
        <ele>219.6</ele>
        <time>2023-05-28T07:24:20Z</time>
      </trkpt>
      <trkpt lat="45.78185" lon="5.46049">
        <ele>219.6</ele>
        <time>2023-05-28T07:24:21Z</time>
      </trkpt>
      <trkpt lat="45.78183" lon="5.4606">
        <ele>219.4</ele>
        <time>2023-05-28T07:24:22Z</time>
      </trkpt>
      <trkpt lat="45.78178" lon="5.46082">
        <ele>219.4</ele>
        <time>2023-05-28T07:24:24Z</time>
      </trkpt>
      <trkpt lat="45.78177" lon="5.46093">
        <ele>219.4</ele>
        <time>2023-05-28T07:24:25Z</time>
      </trkpt>
      <trkpt lat="45.78176" lon="5.46105">
        <ele>219.4</ele>
        <time>2023-05-28T07:24:26Z</time>
      </trkpt>
      <trkpt lat="45.78175" lon="5.46116">
        <ele>219.4</ele>
        <time>2023-05-28T07:24:27Z</time>
      </trkpt>
      <trkpt lat="45.78175" lon="5.46127">
        <ele>219.4</ele>
        <time>2023-05-28T07:24:28Z</time>
      </trkpt>
      <trkpt lat="45.78176" lon="5.46139">
        <ele>219.2</ele>
        <time>2023-05-28T07:24:29Z</time>
      </trkpt>
      <trkpt lat="45.78177" lon="5.4615">
        <ele>219.2</ele>
        <time>2023-05-28T07:24:30Z</time>
      </trkpt>
      <trkpt lat="45.78178" lon="5.46161">
        <ele>219.2</ele>
        <time>2023-05-28T07:24:31Z</time>
      </trkpt>
      <trkpt lat="45.78179" lon="5.46173">
        <ele>219.2</ele>
        <time>2023-05-28T07:24:32Z</time>
      </trkpt>
      <trkpt lat="45.78179" lon="5.46184">
        <ele>219.2</ele>
        <time>2023-05-28T07:24:33Z</time>
      </trkpt>
      <trkpt lat="45.7818" lon="5.46195">
        <ele>219.2</ele>
        <time>2023-05-28T07:24:34Z</time>
      </trkpt>
      <trkpt lat="45.78181" lon="5.46206">
        <ele>219.2</ele>
        <time>2023-05-28T07:24:35Z</time>
      </trkpt>
      <trkpt lat="45.78181" lon="5.46217">
        <ele>219</ele>
        <time>2023-05-28T07:24:36Z</time>
      </trkpt>
      <trkpt lat="45.78182" lon="5.46228">
        <ele>219</ele>
        <time>2023-05-28T07:24:37Z</time>
      </trkpt>
      <trkpt lat="45.78182" lon="5.46239">
        <ele>219</ele>
        <time>2023-05-28T07:24:38Z</time>
      </trkpt>
      <trkpt lat="45.78182" lon="5.4625">
        <ele>219</ele>
        <time>2023-05-28T07:24:39Z</time>
      </trkpt>
      <trkpt lat="45.78182" lon="5.46261">
        <ele>218.8</ele>
        <time>2023-05-28T07:24:40Z</time>
      </trkpt>
      <trkpt lat="45.78182" lon="5.46272">
        <ele>218.8</ele>
        <time>2023-05-28T07:24:41Z</time>
      </trkpt>
      <trkpt lat="45.78181" lon="5.46283">
        <ele>218.8</ele>
        <time>2023-05-28T07:24:42Z</time>
      </trkpt>
      <trkpt lat="45.7818" lon="5.46294">
        <ele>218.8</ele>
        <time>2023-05-28T07:24:43Z</time>
      </trkpt>
      <trkpt lat="45.78179" lon="5.46305">
        <ele>218.8</ele>
        <time>2023-05-28T07:24:44Z</time>
      </trkpt>
      <trkpt lat="45.78178" lon="5.46315">
        <ele>218.8</ele>
        <time>2023-05-28T07:24:45Z</time>
      </trkpt>
      <trkpt lat="45.78177" lon="5.46326">
        <ele>218.8</ele>
        <time>2023-05-28T07:24:46Z</time>
      </trkpt>
      <trkpt lat="45.78175" lon="5.46337">
        <ele>218.8</ele>
        <time>2023-05-28T07:24:47Z</time>
      </trkpt>
      <trkpt lat="45.78173" lon="5.46348">
        <ele>219</ele>
        <time>2023-05-28T07:24:48Z</time>
      </trkpt>
      <trkpt lat="45.78171" lon="5.46358">
        <ele>219.2</ele>
        <time>2023-05-28T07:24:49Z</time>
      </trkpt>
      <trkpt lat="45.78169" lon="5.46369">
        <ele>219.2</ele>
        <time>2023-05-28T07:24:50Z</time>
      </trkpt>
      <trkpt lat="45.78168" lon="5.46379">
        <ele>219.2</ele>
        <time>2023-05-28T07:24:51Z</time>
      </trkpt>
      <trkpt lat="45.78166" lon="5.4639">
        <ele>219.2</ele>
        <time>2023-05-28T07:24:52Z</time>
      </trkpt>
      <trkpt lat="45.78164" lon="5.464">
        <ele>219.4</ele>
        <time>2023-05-28T07:24:53Z</time>
      </trkpt>
      <trkpt lat="45.78162" lon="5.46411">
        <ele>219.4</ele>
        <time>2023-05-28T07:24:54Z</time>
      </trkpt>
      <trkpt lat="45.7816" lon="5.46421">
        <ele>219.4</ele>
        <time>2023-05-28T07:24:55Z</time>
      </trkpt>
      <trkpt lat="45.78159" lon="5.46432">
        <ele>219.4</ele>
        <time>2023-05-28T07:24:56Z</time>
      </trkpt>
      <trkpt lat="45.78157" lon="5.46443">
        <ele>219.4</ele>
        <time>2023-05-28T07:24:57Z</time>
      </trkpt>
      <trkpt lat="45.78156" lon="5.46453">
        <ele>219.6</ele>
        <time>2023-05-28T07:24:58Z</time>
      </trkpt>
      <trkpt lat="45.78154" lon="5.46464">
        <ele>219.6</ele>
        <time>2023-05-28T07:24:59Z</time>
      </trkpt>
      <trkpt lat="45.78152" lon="5.46474">
        <ele>219.6</ele>
        <time>2023-05-28T07:25:00Z</time>
      </trkpt>
      <trkpt lat="45.7815" lon="5.46485">
        <ele>219.6</ele>
        <time>2023-05-28T07:25:01Z</time>
      </trkpt>
      <trkpt lat="45.78148" lon="5.46496">
        <ele>219.6</ele>
        <time>2023-05-28T07:25:02Z</time>
      </trkpt>
      <trkpt lat="45.78147" lon="5.46506">
        <ele>219.6</ele>
        <time>2023-05-28T07:25:03Z</time>
      </trkpt>
      <trkpt lat="45.78145" lon="5.46517">
        <ele>219.4</ele>
        <time>2023-05-28T07:25:04Z</time>
      </trkpt>
      <trkpt lat="45.78143" lon="5.46528">
        <ele>219.6</ele>
        <time>2023-05-28T07:25:05Z</time>
      </trkpt>
      <trkpt lat="45.78142" lon="5.46539">
        <ele>219.6</ele>
        <time>2023-05-28T07:25:06Z</time>
      </trkpt>
      <trkpt lat="45.7814" lon="5.4655">
        <ele>219.8</ele>
        <time>2023-05-28T07:25:07Z</time>
      </trkpt>
      <trkpt lat="45.78138" lon="5.4656">
        <ele>219.6</ele>
        <time>2023-05-28T07:25:08Z</time>
      </trkpt>
      <trkpt lat="45.78136" lon="5.4657">
        <ele>219.6</ele>
        <time>2023-05-28T07:25:09Z</time>
      </trkpt>
      <trkpt lat="45.78134" lon="5.4658">
        <ele>219.6</ele>
        <time>2023-05-28T07:25:10Z</time>
      </trkpt>
      <trkpt lat="45.78132" lon="5.46591">
        <ele>219.6</ele>
        <time>2023-05-28T07:25:11Z</time>
      </trkpt>
      <trkpt lat="45.78129" lon="5.46601">
        <ele>219.8</ele>
        <time>2023-05-28T07:25:12Z</time>
      </trkpt>
      <trkpt lat="45.78127" lon="5.4661">
        <ele>219.8</ele>
        <time>2023-05-28T07:25:13Z</time>
      </trkpt>
      <trkpt lat="45.78125" lon="5.4662">
        <ele>219.8</ele>
        <time>2023-05-28T07:25:14Z</time>
      </trkpt>
      <trkpt lat="45.78122" lon="5.4663">
        <ele>219.8</ele>
        <time>2023-05-28T07:25:15Z</time>
      </trkpt>
      <trkpt lat="45.7812" lon="5.46639">
        <ele>219.8</ele>
        <time>2023-05-28T07:25:16Z</time>
      </trkpt>
      <trkpt lat="45.78117" lon="5.46649">
        <ele>219.8</ele>
        <time>2023-05-28T07:25:17Z</time>
      </trkpt>
      <trkpt lat="45.78115" lon="5.46658">
        <ele>220</ele>
        <time>2023-05-28T07:25:18Z</time>
      </trkpt>
      <trkpt lat="45.78112" lon="5.46668">
        <ele>220</ele>
        <time>2023-05-28T07:25:19Z</time>
      </trkpt>
      <trkpt lat="45.7811" lon="5.46677">
        <ele>220</ele>
        <time>2023-05-28T07:25:20Z</time>
      </trkpt>
      <trkpt lat="45.78108" lon="5.46687">
        <ele>220.2</ele>
        <time>2023-05-28T07:25:21Z</time>
      </trkpt>
      <trkpt lat="45.78105" lon="5.46696">
        <ele>220.2</ele>
        <time>2023-05-28T07:25:22Z</time>
      </trkpt>
      <trkpt lat="45.78103" lon="5.46706">
        <ele>220.2</ele>
        <time>2023-05-28T07:25:23Z</time>
      </trkpt>
      <trkpt lat="45.781" lon="5.46715">
        <ele>220.2</ele>
        <time>2023-05-28T07:25:24Z</time>
      </trkpt>
      <trkpt lat="45.78097" lon="5.46724">
        <ele>220.2</ele>
        <time>2023-05-28T07:25:25Z</time>
      </trkpt>
      <trkpt lat="45.78095" lon="5.46734">
        <ele>220.4</ele>
        <time>2023-05-28T07:25:26Z</time>
      </trkpt>
      <trkpt lat="45.78093" lon="5.46743">
        <ele>220.4</ele>
        <time>2023-05-28T07:25:27Z</time>
      </trkpt>
      <trkpt lat="45.7809" lon="5.46752">
        <ele>220.4</ele>
        <time>2023-05-28T07:25:28Z</time>
      </trkpt>
      <trkpt lat="45.78088" lon="5.46761">
        <ele>220.6</ele>
        <time>2023-05-28T07:25:29Z</time>
      </trkpt>
      <trkpt lat="45.78085" lon="5.4677">
        <ele>220.8</ele>
        <time>2023-05-28T07:25:30Z</time>
      </trkpt>
      <trkpt lat="45.78083" lon="5.46779">
        <ele>220.8</ele>
        <time>2023-05-28T07:25:31Z</time>
      </trkpt>
      <trkpt lat="45.7808" lon="5.46787">
        <ele>220.8</ele>
        <time>2023-05-28T07:25:32Z</time>
      </trkpt>
      <trkpt lat="45.78078" lon="5.46795">
        <ele>221</ele>
        <time>2023-05-28T07:25:33Z</time>
      </trkpt>
      <trkpt lat="45.78076" lon="5.46803">
        <ele>221</ele>
        <time>2023-05-28T07:25:34Z</time>
      </trkpt>
      <trkpt lat="45.78074" lon="5.46811">
        <ele>221.2</ele>
        <time>2023-05-28T07:25:35Z</time>
      </trkpt>
      <trkpt lat="45.78072" lon="5.46818">
        <ele>221.2</ele>
        <time>2023-05-28T07:25:36Z</time>
      </trkpt>
      <trkpt lat="45.7807" lon="5.46825">
        <ele>221.2</ele>
        <time>2023-05-28T07:25:37Z</time>
      </trkpt>
      <trkpt lat="45.78068" lon="5.46832">
        <ele>221.4</ele>
        <time>2023-05-28T07:25:38Z</time>
      </trkpt>
      <trkpt lat="45.78065" lon="5.4684">
        <ele>221.6</ele>
        <time>2023-05-28T07:25:39Z</time>
      </trkpt>
      <trkpt lat="45.78063" lon="5.46847">
        <ele>221.8</ele>
        <time>2023-05-28T07:25:40Z</time>
      </trkpt>
      <trkpt lat="45.7806" lon="5.46854">
        <ele>222</ele>
        <time>2023-05-28T07:25:41Z</time>
      </trkpt>
      <trkpt lat="45.78057" lon="5.4686">
        <ele>222.4</ele>
        <time>2023-05-28T07:25:42Z</time>
      </trkpt>
      <trkpt lat="45.78054" lon="5.46867">
        <ele>222.6</ele>
        <time>2023-05-28T07:25:43Z</time>
      </trkpt>
      <trkpt lat="45.78051" lon="5.46873">
        <ele>222.8</ele>
        <time>2023-05-28T07:25:44Z</time>
      </trkpt>
      <trkpt lat="45.78048" lon="5.4688">
        <ele>223.2</ele>
        <time>2023-05-28T07:25:45Z</time>
      </trkpt>
      <trkpt lat="45.78044" lon="5.46886">
        <ele>223.2</ele>
        <time>2023-05-28T07:25:46Z</time>
      </trkpt>
      <trkpt lat="45.78041" lon="5.46891">
        <ele>223.6</ele>
        <time>2023-05-28T07:25:47Z</time>
      </trkpt>
      <trkpt lat="45.78037" lon="5.46896">
        <ele>223.6</ele>
        <time>2023-05-28T07:25:48Z</time>
      </trkpt>
      <trkpt lat="45.78033" lon="5.46901">
        <ele>223.8</ele>
        <time>2023-05-28T07:25:49Z</time>
      </trkpt>
      <trkpt lat="45.78028" lon="5.46905">
        <ele>224</ele>
        <time>2023-05-28T07:25:50Z</time>
      </trkpt>
      <trkpt lat="45.78025" lon="5.46909">
        <ele>224</ele>
        <time>2023-05-28T07:25:51Z</time>
      </trkpt>
      <trkpt lat="45.78021" lon="5.46913">
        <ele>224.2</ele>
        <time>2023-05-28T07:25:52Z</time>
      </trkpt>
      <trkpt lat="45.78017" lon="5.46916">
        <ele>224.4</ele>
        <time>2023-05-28T07:25:53Z</time>
      </trkpt>
      <trkpt lat="45.78014" lon="5.46919">
        <ele>224.6</ele>
        <time>2023-05-28T07:25:54Z</time>
      </trkpt>
      <trkpt lat="45.7801" lon="5.46923">
        <ele>224.8</ele>
        <time>2023-05-28T07:25:55Z</time>
      </trkpt>
      <trkpt lat="45.78007" lon="5.46926">
        <ele>225.2</ele>
        <time>2023-05-28T07:25:56Z</time>
      </trkpt>
      <trkpt lat="45.78003" lon="5.46929">
        <ele>225.4</ele>
        <time>2023-05-28T07:25:57Z</time>
      </trkpt>
      <trkpt lat="45.78" lon="5.46933">
        <ele>225.4</ele>
        <time>2023-05-28T07:25:58Z</time>
      </trkpt>
      <trkpt lat="45.77996" lon="5.46936">
        <ele>225.8</ele>
        <time>2023-05-28T07:25:59Z</time>
      </trkpt>
      <trkpt lat="45.77993" lon="5.46939">
        <ele>226</ele>
        <time>2023-05-28T07:26:00Z</time>
      </trkpt>
      <trkpt lat="45.77989" lon="5.46943">
        <ele>226.4</ele>
        <time>2023-05-28T07:26:01Z</time>
      </trkpt>
      <trkpt lat="45.77986" lon="5.46946">
        <ele>226.6</ele>
        <time>2023-05-28T07:26:02Z</time>
      </trkpt>
      <trkpt lat="45.77983" lon="5.46949">
        <ele>226.8</ele>
        <time>2023-05-28T07:26:03Z</time>
      </trkpt>
      <trkpt lat="45.7798" lon="5.46952">
        <ele>227.2</ele>
        <time>2023-05-28T07:26:04Z</time>
      </trkpt>
      <trkpt lat="45.77976" lon="5.46956">
        <ele>227.4</ele>
        <time>2023-05-28T07:26:05Z</time>
      </trkpt>
      <trkpt lat="45.77973" lon="5.46959">
        <ele>227.8</ele>
        <time>2023-05-28T07:26:06Z</time>
      </trkpt>
      <trkpt lat="45.7797" lon="5.46962">
        <ele>228</ele>
        <time>2023-05-28T07:26:07Z</time>
      </trkpt>
      <trkpt lat="45.77966" lon="5.46966">
        <ele>228.2</ele>
        <time>2023-05-28T07:26:08Z</time>
      </trkpt>
      <trkpt lat="45.77963" lon="5.46969">
        <ele>228.2</ele>
        <time>2023-05-28T07:26:09Z</time>
      </trkpt>
      <trkpt lat="45.7796" lon="5.46973">
        <ele>228.2</ele>
        <time>2023-05-28T07:26:10Z</time>
      </trkpt>
      <trkpt lat="45.77957" lon="5.46977">
        <ele>228.4</ele>
        <time>2023-05-28T07:26:11Z</time>
      </trkpt>
      <trkpt lat="45.77954" lon="5.4698">
        <ele>228.4</ele>
        <time>2023-05-28T07:26:12Z</time>
      </trkpt>
      <trkpt lat="45.7795" lon="5.46984">
        <ele>228.8</ele>
        <time>2023-05-28T07:26:13Z</time>
      </trkpt>
      <trkpt lat="45.77947" lon="5.46987">
        <ele>228.8</ele>
        <time>2023-05-28T07:26:14Z</time>
      </trkpt>
      <trkpt lat="45.77944" lon="5.4699">
        <ele>229</ele>
        <time>2023-05-28T07:26:15Z</time>
      </trkpt>
      <trkpt lat="45.77941" lon="5.46994">
        <ele>229.2</ele>
        <time>2023-05-28T07:26:16Z</time>
      </trkpt>
      <trkpt lat="45.77938" lon="5.46998">
        <ele>229.6</ele>
        <time>2023-05-28T07:26:17Z</time>
      </trkpt>
      <trkpt lat="45.77934" lon="5.47002">
        <ele>229.8</ele>
        <time>2023-05-28T07:26:18Z</time>
      </trkpt>
      <trkpt lat="45.77931" lon="5.47005">
        <ele>230</ele>
        <time>2023-05-28T07:26:19Z</time>
      </trkpt>
      <trkpt lat="45.77927" lon="5.4701">
        <ele>230.2</ele>
        <time>2023-05-28T07:26:20Z</time>
      </trkpt>
      <trkpt lat="45.77924" lon="5.47013">
        <ele>230.2</ele>
        <time>2023-05-28T07:26:21Z</time>
      </trkpt>
      <trkpt lat="45.77921" lon="5.47017">
        <ele>230.4</ele>
        <time>2023-05-28T07:26:22Z</time>
      </trkpt>
      <trkpt lat="45.77917" lon="5.47021">
        <ele>230.6</ele>
        <time>2023-05-28T07:26:23Z</time>
      </trkpt>
      <trkpt lat="45.77914" lon="5.47025">
        <ele>230.6</ele>
        <time>2023-05-28T07:26:24Z</time>
      </trkpt>
      <trkpt lat="45.77911" lon="5.47029">
        <ele>230.6</ele>
        <time>2023-05-28T07:26:25Z</time>
      </trkpt>
      <trkpt lat="45.77908" lon="5.47033">
        <ele>230.8</ele>
        <time>2023-05-28T07:26:26Z</time>
      </trkpt>
      <trkpt lat="45.77905" lon="5.47036">
        <ele>230.8</ele>
        <time>2023-05-28T07:26:27Z</time>
      </trkpt>
      <trkpt lat="45.77902" lon="5.4704">
        <ele>231</ele>
        <time>2023-05-28T07:26:28Z</time>
      </trkpt>
      <trkpt lat="45.77899" lon="5.47045">
        <ele>231.2</ele>
        <time>2023-05-28T07:26:29Z</time>
      </trkpt>
      <trkpt lat="45.77896" lon="5.47049">
        <ele>231.2</ele>
        <time>2023-05-28T07:26:30Z</time>
      </trkpt>
      <trkpt lat="45.77892" lon="5.47054">
        <ele>231.6</ele>
        <time>2023-05-28T07:26:31Z</time>
      </trkpt>
      <trkpt lat="45.7789" lon="5.47058">
        <ele>231.8</ele>
        <time>2023-05-28T07:26:32Z</time>
      </trkpt>
      <trkpt lat="45.77888" lon="5.47063">
        <ele>232.2</ele>
        <time>2023-05-28T07:26:33Z</time>
      </trkpt>
      <trkpt lat="45.77886" lon="5.47067">
        <ele>232.2</ele>
        <time>2023-05-28T07:26:34Z</time>
      </trkpt>
      <trkpt lat="45.77884" lon="5.47071">
        <ele>232.4</ele>
        <time>2023-05-28T07:26:35Z</time>
      </trkpt>
      <trkpt lat="45.77883" lon="5.47076">
        <ele>232.4</ele>
        <time>2023-05-28T07:26:36Z</time>
      </trkpt>
      <trkpt lat="45.77882" lon="5.47082">
        <ele>232.6</ele>
        <time>2023-05-28T07:26:37Z</time>
      </trkpt>
      <trkpt lat="45.77881" lon="5.47088">
        <ele>232.8</ele>
        <time>2023-05-28T07:26:38Z</time>
      </trkpt>
      <trkpt lat="45.7788" lon="5.47094">
        <ele>232.8</ele>
        <time>2023-05-28T07:26:39Z</time>
      </trkpt>
      <trkpt lat="45.77879" lon="5.471">
        <ele>233</ele>
        <time>2023-05-28T07:26:40Z</time>
      </trkpt>
      <trkpt lat="45.77879" lon="5.47106">
        <ele>233</ele>
        <time>2023-05-28T07:26:41Z</time>
      </trkpt>
      <trkpt lat="45.77879" lon="5.47111">
        <ele>233.2</ele>
        <time>2023-05-28T07:26:42Z</time>
      </trkpt>
      <trkpt lat="45.77878" lon="5.47117">
        <ele>233.4</ele>
        <time>2023-05-28T07:26:43Z</time>
      </trkpt>
      <trkpt lat="45.77878" lon="5.47123">
        <ele>233.6</ele>
        <time>2023-05-28T07:26:44Z</time>
      </trkpt>
      <trkpt lat="45.77878" lon="5.4713">
        <ele>233.8</ele>
        <time>2023-05-28T07:26:45Z</time>
      </trkpt>
      <trkpt lat="45.77879" lon="5.47136">
        <ele>233.8</ele>
        <time>2023-05-28T07:26:46Z</time>
      </trkpt>
      <trkpt lat="45.7788" lon="5.47143">
        <ele>234</ele>
        <time>2023-05-28T07:26:47Z</time>
      </trkpt>
      <trkpt lat="45.77881" lon="5.47149">
        <ele>234.2</ele>
        <time>2023-05-28T07:26:48Z</time>
      </trkpt>
      <trkpt lat="45.77883" lon="5.47156">
        <ele>234.4</ele>
        <time>2023-05-28T07:26:49Z</time>
      </trkpt>
      <trkpt lat="45.77885" lon="5.47162">
        <ele>234.4</ele>
        <time>2023-05-28T07:26:50Z</time>
      </trkpt>
      <trkpt lat="45.77887" lon="5.47168">
        <ele>234.4</ele>
        <time>2023-05-28T07:26:51Z</time>
      </trkpt>
      <trkpt lat="45.77889" lon="5.47175">
        <ele>234.6</ele>
        <time>2023-05-28T07:26:52Z</time>
      </trkpt>
      <trkpt lat="45.77892" lon="5.47181">
        <ele>234.8</ele>
        <time>2023-05-28T07:26:53Z</time>
      </trkpt>
      <trkpt lat="45.77893" lon="5.47187">
        <ele>234.8</ele>
        <time>2023-05-28T07:26:54Z</time>
      </trkpt>
      <trkpt lat="45.77895" lon="5.47193">
        <ele>235.2</ele>
        <time>2023-05-28T07:26:55Z</time>
      </trkpt>
      <trkpt lat="45.77897" lon="5.47199">
        <ele>235.2</ele>
        <time>2023-05-28T07:26:56Z</time>
      </trkpt>
      <trkpt lat="45.77898" lon="5.47204">
        <ele>235.4</ele>
        <time>2023-05-28T07:26:57Z</time>
      </trkpt>
      <trkpt lat="45.77901" lon="5.47211">
        <ele>235.4</ele>
        <time>2023-05-28T07:26:58Z</time>
      </trkpt>
      <trkpt lat="45.77902" lon="5.47216">
        <ele>235.6</ele>
        <time>2023-05-28T07:26:59Z</time>
      </trkpt>
      <trkpt lat="45.77904" lon="5.47222">
        <ele>235.6</ele>
        <time>2023-05-28T07:27:00Z</time>
      </trkpt>
      <trkpt lat="45.77905" lon="5.47228">
        <ele>235.8</ele>
        <time>2023-05-28T07:27:01Z</time>
      </trkpt>
      <trkpt lat="45.77907" lon="5.47233">
        <ele>236</ele>
        <time>2023-05-28T07:27:02Z</time>
      </trkpt>
      <trkpt lat="45.77908" lon="5.47239">
        <ele>236</ele>
        <time>2023-05-28T07:27:03Z</time>
      </trkpt>
      <trkpt lat="45.77908" lon="5.47245">
        <ele>236</ele>
        <time>2023-05-28T07:27:04Z</time>
      </trkpt>
      <trkpt lat="45.77909" lon="5.47251">
        <ele>236.2</ele>
        <time>2023-05-28T07:27:05Z</time>
      </trkpt>
      <trkpt lat="45.7791" lon="5.47256">
        <ele>236.2</ele>
        <time>2023-05-28T07:27:06Z</time>
      </trkpt>
      <trkpt lat="45.7791" lon="5.47262">
        <ele>236.4</ele>
        <time>2023-05-28T07:27:07Z</time>
      </trkpt>
      <trkpt lat="45.77911" lon="5.47268">
        <ele>236.8</ele>
        <time>2023-05-28T07:27:08Z</time>
      </trkpt>
      <trkpt lat="45.77911" lon="5.47273">
        <ele>237.2</ele>
        <time>2023-05-28T07:27:09Z</time>
      </trkpt>
      <trkpt lat="45.77911" lon="5.47278">
        <ele>237.4</ele>
        <time>2023-05-28T07:27:10Z</time>
      </trkpt>
      <trkpt lat="45.77911" lon="5.47283">
        <ele>237.8</ele>
        <time>2023-05-28T07:27:11Z</time>
      </trkpt>
      <trkpt lat="45.77911" lon="5.47288">
        <ele>238</ele>
        <time>2023-05-28T07:27:12Z</time>
      </trkpt>
      <trkpt lat="45.77911" lon="5.47293">
        <ele>238.2</ele>
        <time>2023-05-28T07:27:13Z</time>
      </trkpt>
      <trkpt lat="45.77911" lon="5.47297">
        <ele>238.4</ele>
        <time>2023-05-28T07:27:14Z</time>
      </trkpt>
      <trkpt lat="45.7791" lon="5.47302">
        <ele>238.6</ele>
        <time>2023-05-28T07:27:15Z</time>
      </trkpt>
      <trkpt lat="45.7791" lon="5.47311">
        <ele>239</ele>
        <time>2023-05-28T07:27:17Z</time>
      </trkpt>
      <trkpt lat="45.77909" lon="5.47315">
        <ele>239.4</ele>
        <time>2023-05-28T07:27:18Z</time>
      </trkpt>
      <trkpt lat="45.77909" lon="5.4732">
        <ele>239.6</ele>
        <time>2023-05-28T07:27:19Z</time>
      </trkpt>
      <trkpt lat="45.77908" lon="5.47325">
        <ele>239.6</ele>
        <time>2023-05-28T07:27:20Z</time>
      </trkpt>
      <trkpt lat="45.77908" lon="5.4733">
        <ele>239.8</ele>
        <time>2023-05-28T07:27:21Z</time>
      </trkpt>
      <trkpt lat="45.77908" lon="5.47334">
        <ele>240</ele>
        <time>2023-05-28T07:27:22Z</time>
      </trkpt>
      <trkpt lat="45.77908" lon="5.47339">
        <ele>240</ele>
        <time>2023-05-28T07:27:23Z</time>
      </trkpt>
      <trkpt lat="45.77908" lon="5.47344">
        <ele>240.4</ele>
        <time>2023-05-28T07:27:24Z</time>
      </trkpt>
      <trkpt lat="45.77908" lon="5.47348">
        <ele>240.8</ele>
        <time>2023-05-28T07:27:25Z</time>
      </trkpt>
      <trkpt lat="45.77908" lon="5.47352">
        <ele>241</ele>
        <time>2023-05-28T07:27:26Z</time>
      </trkpt>
      <trkpt lat="45.77909" lon="5.47359">
        <ele>241.4</ele>
        <time>2023-05-28T07:27:28Z</time>
      </trkpt>
      <trkpt lat="45.77911" lon="5.47363">
        <ele>241.6</ele>
        <time>2023-05-28T07:27:29Z</time>
      </trkpt>
      <trkpt lat="45.77913" lon="5.47366">
        <ele>241.8</ele>
        <time>2023-05-28T07:27:30Z</time>
      </trkpt>
      <trkpt lat="45.77917" lon="5.47367">
        <ele>242</ele>
        <time>2023-05-28T07:27:31Z</time>
      </trkpt>
      <trkpt lat="45.7792" lon="5.47367">
        <ele>242.4</ele>
        <time>2023-05-28T07:27:32Z</time>
      </trkpt>
      <trkpt lat="45.77922" lon="5.47367">
        <ele>242.6</ele>
        <time>2023-05-28T07:27:33Z</time>
      </trkpt>
      <trkpt lat="45.77925" lon="5.47365">
        <ele>243</ele>
        <time>2023-05-28T07:27:34Z</time>
      </trkpt>
      <trkpt lat="45.77928" lon="5.47364">
        <ele>243.2</ele>
        <time>2023-05-28T07:27:35Z</time>
      </trkpt>
      <trkpt lat="45.77935" lon="5.47359">
        <ele>244</ele>
        <time>2023-05-28T07:27:37Z</time>
      </trkpt>
      <trkpt lat="45.77938" lon="5.47356">
        <ele>244.4</ele>
        <time>2023-05-28T07:27:38Z</time>
      </trkpt>
      <trkpt lat="45.77941" lon="5.47354">
        <ele>244.8</ele>
        <time>2023-05-28T07:27:39Z</time>
      </trkpt>
      <trkpt lat="45.77945" lon="5.47352">
        <ele>245.2</ele>
        <time>2023-05-28T07:27:40Z</time>
      </trkpt>
      <trkpt lat="45.77948" lon="5.4735">
        <ele>245.4</ele>
        <time>2023-05-28T07:27:41Z</time>
      </trkpt>
      <trkpt lat="45.7795" lon="5.47347">
        <ele>246</ele>
        <time>2023-05-28T07:27:42Z</time>
      </trkpt>
      <trkpt lat="45.77953" lon="5.47344">
        <ele>246.4</ele>
        <time>2023-05-28T07:27:43Z</time>
      </trkpt>
      <trkpt lat="45.77956" lon="5.47342">
        <ele>246.8</ele>
        <time>2023-05-28T07:27:44Z</time>
      </trkpt>
      <trkpt lat="45.77962" lon="5.47337">
        <ele>247.6</ele>
        <time>2023-05-28T07:27:46Z</time>
      </trkpt>
      <trkpt lat="45.77965" lon="5.47335">
        <ele>247.8</ele>
        <time>2023-05-28T07:27:47Z</time>
      </trkpt>
      <trkpt lat="45.77968" lon="5.47333">
        <ele>248.2</ele>
        <time>2023-05-28T07:27:48Z</time>
      </trkpt>
      <trkpt lat="45.77971" lon="5.47331">
        <ele>248.4</ele>
        <time>2023-05-28T07:27:49Z</time>
      </trkpt>
      <trkpt lat="45.77974" lon="5.47328">
        <ele>248.8</ele>
        <time>2023-05-28T07:27:50Z</time>
      </trkpt>
      <trkpt lat="45.77981" lon="5.47324">
        <ele>249</ele>
        <time>2023-05-28T07:27:52Z</time>
      </trkpt>
      <trkpt lat="45.77984" lon="5.47321">
        <ele>249.4</ele>
        <time>2023-05-28T07:27:53Z</time>
      </trkpt>
      <trkpt lat="45.77988" lon="5.47319">
        <ele>249.6</ele>
        <time>2023-05-28T07:27:54Z</time>
      </trkpt>
      <trkpt lat="45.77991" lon="5.47317">
        <ele>250</ele>
        <time>2023-05-28T07:27:55Z</time>
      </trkpt>
      <trkpt lat="45.77998" lon="5.47313">
        <ele>250.6</ele>
        <time>2023-05-28T07:27:57Z</time>
      </trkpt>
      <trkpt lat="45.78001" lon="5.47311">
        <ele>250.6</ele>
        <time>2023-05-28T07:27:58Z</time>
      </trkpt>
      <trkpt lat="45.78005" lon="5.47309">
        <ele>251</ele>
        <time>2023-05-28T07:27:59Z</time>
      </trkpt>
      <trkpt lat="45.78008" lon="5.47307">
        <ele>251.2</ele>
        <time>2023-05-28T07:28:00Z</time>
      </trkpt>
      <trkpt lat="45.78011" lon="5.47307">
        <ele>251.2</ele>
        <time>2023-05-28T07:28:01Z</time>
      </trkpt>
      <trkpt lat="45.78015" lon="5.47309">
        <ele>251.4</ele>
        <time>2023-05-28T07:28:02Z</time>
      </trkpt>
      <trkpt lat="45.78017" lon="5.47312">
        <ele>251.6</ele>
        <time>2023-05-28T07:28:03Z</time>
      </trkpt>
      <trkpt lat="45.78018" lon="5.47316">
        <ele>251.8</ele>
        <time>2023-05-28T07:28:04Z</time>
      </trkpt>
      <trkpt lat="45.78018" lon="5.47321">
        <ele>252</ele>
        <time>2023-05-28T07:28:05Z</time>
      </trkpt>
      <trkpt lat="45.78017" lon="5.47325">
        <ele>252.2</ele>
        <time>2023-05-28T07:28:06Z</time>
      </trkpt>
      <trkpt lat="45.78014" lon="5.47328">
        <ele>252.2</ele>
        <time>2023-05-28T07:28:07Z</time>
      </trkpt>
      <trkpt lat="45.78008" lon="5.47333">
        <ele>252.8</ele>
        <time>2023-05-28T07:28:09Z</time>
      </trkpt>
      <trkpt lat="45.78006" lon="5.47335">
        <ele>253</ele>
        <time>2023-05-28T07:28:10Z</time>
      </trkpt>
      <trkpt lat="45.78003" lon="5.47337">
        <ele>253.4</ele>
        <time>2023-05-28T07:28:11Z</time>
      </trkpt>
      <trkpt lat="45.78" lon="5.47339">
        <ele>253.4</ele>
        <time>2023-05-28T07:28:12Z</time>
      </trkpt>
      <trkpt lat="45.77997" lon="5.47342">
        <ele>253.8</ele>
        <time>2023-05-28T07:28:13Z</time>
      </trkpt>
      <trkpt lat="45.77995" lon="5.47344">
        <ele>253.8</ele>
        <time>2023-05-28T07:28:14Z</time>
      </trkpt>
      <trkpt lat="45.77992" lon="5.47347">
        <ele>254</ele>
        <time>2023-05-28T07:28:15Z</time>
      </trkpt>
      <trkpt lat="45.7799" lon="5.47349">
        <ele>254.4</ele>
        <time>2023-05-28T07:28:16Z</time>
      </trkpt>
      <trkpt lat="45.77987" lon="5.47352">
        <ele>254.8</ele>
        <time>2023-05-28T07:28:17Z</time>
      </trkpt>
      <trkpt lat="45.77984" lon="5.47355">
        <ele>255</ele>
        <time>2023-05-28T07:28:18Z</time>
      </trkpt>
      <trkpt lat="45.77982" lon="5.47357">
        <ele>255.4</ele>
        <time>2023-05-28T07:28:19Z</time>
      </trkpt>
      <trkpt lat="45.77979" lon="5.4736">
        <ele>255.6</ele>
        <time>2023-05-28T07:28:20Z</time>
      </trkpt>
      <trkpt lat="45.77977" lon="5.47363">
        <ele>255.8</ele>
        <time>2023-05-28T07:28:21Z</time>
      </trkpt>
      <trkpt lat="45.77974" lon="5.47365">
        <ele>256</ele>
        <time>2023-05-28T07:28:22Z</time>
      </trkpt>
      <trkpt lat="45.77972" lon="5.47368">
        <ele>256.4</ele>
        <time>2023-05-28T07:28:23Z</time>
      </trkpt>
      <trkpt lat="45.77969" lon="5.47371">
        <ele>256.6</ele>
        <time>2023-05-28T07:28:24Z</time>
      </trkpt>
      <trkpt lat="45.77966" lon="5.47375">
        <ele>257</ele>
        <time>2023-05-28T07:28:25Z</time>
      </trkpt>
      <trkpt lat="45.77962" lon="5.47378">
        <ele>257.2</ele>
        <time>2023-05-28T07:28:26Z</time>
      </trkpt>
      <trkpt lat="45.77959" lon="5.47381">
        <ele>257.8</ele>
        <time>2023-05-28T07:28:27Z</time>
      </trkpt>
      <trkpt lat="45.77956" lon="5.47384">
        <ele>257.8</ele>
        <time>2023-05-28T07:28:28Z</time>
      </trkpt>
      <trkpt lat="45.77953" lon="5.47387">
        <ele>258.2</ele>
        <time>2023-05-28T07:28:29Z</time>
      </trkpt>
      <trkpt lat="45.7795" lon="5.47389">
        <ele>258.8</ele>
        <time>2023-05-28T07:28:30Z</time>
      </trkpt>
      <trkpt lat="45.77948" lon="5.47392">
        <ele>259</ele>
        <time>2023-05-28T07:28:31Z</time>
      </trkpt>
      <trkpt lat="45.77945" lon="5.47395">
        <ele>259.4</ele>
        <time>2023-05-28T07:28:32Z</time>
      </trkpt>
      <trkpt lat="45.77943" lon="5.47397">
        <ele>259.6</ele>
        <time>2023-05-28T07:28:33Z</time>
      </trkpt>
      <trkpt lat="45.7794" lon="5.47399">
        <ele>259.8</ele>
        <time>2023-05-28T07:28:34Z</time>
      </trkpt>
      <trkpt lat="45.77936" lon="5.47402">
        <ele>260</ele>
        <time>2023-05-28T07:28:35Z</time>
      </trkpt>
      <trkpt lat="45.77933" lon="5.47405">
        <ele>260.4</ele>
        <time>2023-05-28T07:28:36Z</time>
      </trkpt>
      <trkpt lat="45.7793" lon="5.47407">
        <ele>260.6</ele>
        <time>2023-05-28T07:28:37Z</time>
      </trkpt>
      <trkpt lat="45.77926" lon="5.47409">
        <ele>261.2</ele>
        <time>2023-05-28T07:28:38Z</time>
      </trkpt>
      <trkpt lat="45.77923" lon="5.4741">
        <ele>261.8</ele>
        <time>2023-05-28T07:28:39Z</time>
      </trkpt>
      <trkpt lat="45.7792" lon="5.47412">
        <ele>262</ele>
        <time>2023-05-28T07:28:40Z</time>
      </trkpt>
      <trkpt lat="45.77917" lon="5.47414">
        <ele>262.4</ele>
        <time>2023-05-28T07:28:41Z</time>
      </trkpt>
      <trkpt lat="45.77914" lon="5.47416">
        <ele>262.4</ele>
        <time>2023-05-28T07:28:42Z</time>
      </trkpt>
      <trkpt lat="45.77911" lon="5.47418">
        <ele>262.8</ele>
        <time>2023-05-28T07:28:43Z</time>
      </trkpt>
      <trkpt lat="45.77908" lon="5.4742">
        <ele>263</ele>
        <time>2023-05-28T07:28:44Z</time>
      </trkpt>
      <trkpt lat="45.77905" lon="5.47422">
        <ele>263.4</ele>
        <time>2023-05-28T07:28:45Z</time>
      </trkpt>
      <trkpt lat="45.77902" lon="5.47423">
        <ele>263.8</ele>
        <time>2023-05-28T07:28:46Z</time>
      </trkpt>
      <trkpt lat="45.779" lon="5.47425">
        <ele>263.8</ele>
        <time>2023-05-28T07:28:47Z</time>
      </trkpt>
      <trkpt lat="45.77897" lon="5.47427">
        <ele>264</ele>
        <time>2023-05-28T07:28:48Z</time>
      </trkpt>
      <trkpt lat="45.77895" lon="5.47429">
        <ele>264.2</ele>
        <time>2023-05-28T07:28:49Z</time>
      </trkpt>
      <trkpt lat="45.77892" lon="5.47431">
        <ele>264.4</ele>
        <time>2023-05-28T07:28:50Z</time>
      </trkpt>
      <trkpt lat="45.77889" lon="5.47432">
        <ele>264.8</ele>
        <time>2023-05-28T07:28:51Z</time>
      </trkpt>
      <trkpt lat="45.77886" lon="5.47435">
        <ele>265</ele>
        <time>2023-05-28T07:28:52Z</time>
      </trkpt>
      <trkpt lat="45.77883" lon="5.47438">
        <ele>265.4</ele>
        <time>2023-05-28T07:28:53Z</time>
      </trkpt>
      <trkpt lat="45.7788" lon="5.4744">
        <ele>265.6</ele>
        <time>2023-05-28T07:28:54Z</time>
      </trkpt>
      <trkpt lat="45.77877" lon="5.47443">
        <ele>265.8</ele>
        <time>2023-05-28T07:28:55Z</time>
      </trkpt>
      <trkpt lat="45.77874" lon="5.47445">
        <ele>266</ele>
        <time>2023-05-28T07:28:56Z</time>
      </trkpt>
      <trkpt lat="45.77871" lon="5.47447">
        <ele>266.4</ele>
        <time>2023-05-28T07:28:57Z</time>
      </trkpt>
      <trkpt lat="45.77867" lon="5.47449">
        <ele>266.4</ele>
        <time>2023-05-28T07:28:58Z</time>
      </trkpt>
      <trkpt lat="45.77864" lon="5.47451">
        <ele>266.6</ele>
        <time>2023-05-28T07:28:59Z</time>
      </trkpt>
      <trkpt lat="45.77861" lon="5.47454">
        <ele>266.8</ele>
        <time>2023-05-28T07:29:00Z</time>
      </trkpt>
      <trkpt lat="45.77858" lon="5.47456">
        <ele>266.8</ele>
        <time>2023-05-28T07:29:01Z</time>
      </trkpt>
      <trkpt lat="45.77855" lon="5.47459">
        <ele>267</ele>
        <time>2023-05-28T07:29:02Z</time>
      </trkpt>
      <trkpt lat="45.77852" lon="5.47461">
        <ele>267.4</ele>
        <time>2023-05-28T07:29:03Z</time>
      </trkpt>
      <trkpt lat="45.77849" lon="5.47463">
        <ele>268.2</ele>
        <time>2023-05-28T07:29:04Z</time>
      </trkpt>
      <trkpt lat="45.77847" lon="5.47465">
        <ele>268.4</ele>
        <time>2023-05-28T07:29:05Z</time>
      </trkpt>
      <trkpt lat="45.77845" lon="5.47467">
        <ele>268.6</ele>
        <time>2023-05-28T07:29:06Z</time>
      </trkpt>
      <trkpt lat="45.77841" lon="5.4747">
        <ele>269</ele>
        <time>2023-05-28T07:29:07Z</time>
      </trkpt>
      <trkpt lat="45.77838" lon="5.47472">
        <ele>269</ele>
        <time>2023-05-28T07:29:08Z</time>
      </trkpt>
      <trkpt lat="45.77834" lon="5.47475">
        <ele>269.2</ele>
        <time>2023-05-28T07:29:09Z</time>
      </trkpt>
      <trkpt lat="45.77831" lon="5.47478">
        <ele>269.4</ele>
        <time>2023-05-28T07:29:10Z</time>
      </trkpt>
      <trkpt lat="45.77829" lon="5.47482">
        <ele>269.6</ele>
        <time>2023-05-28T07:29:11Z</time>
      </trkpt>
      <trkpt lat="45.77826" lon="5.47485">
        <ele>269.8</ele>
        <time>2023-05-28T07:29:12Z</time>
      </trkpt>
      <trkpt lat="45.77824" lon="5.47489">
        <ele>270</ele>
        <time>2023-05-28T07:29:13Z</time>
      </trkpt>
      <trkpt lat="45.77821" lon="5.47493">
        <ele>270</ele>
        <time>2023-05-28T07:29:14Z</time>
      </trkpt>
      <trkpt lat="45.77818" lon="5.47497">
        <ele>270.2</ele>
        <time>2023-05-28T07:29:15Z</time>
      </trkpt>
      <trkpt lat="45.77816" lon="5.475">
        <ele>270.6</ele>
        <time>2023-05-28T07:29:16Z</time>
      </trkpt>
      <trkpt lat="45.77814" lon="5.47504">
        <ele>270.6</ele>
        <time>2023-05-28T07:29:17Z</time>
      </trkpt>
      <trkpt lat="45.77811" lon="5.47508">
        <ele>271</ele>
        <time>2023-05-28T07:29:18Z</time>
      </trkpt>
      <trkpt lat="45.77809" lon="5.47512">
        <ele>271</ele>
        <time>2023-05-28T07:29:19Z</time>
      </trkpt>
      <trkpt lat="45.77807" lon="5.47515">
        <ele>271.6</ele>
        <time>2023-05-28T07:29:20Z</time>
      </trkpt>
      <trkpt lat="45.77804" lon="5.47519">
        <ele>271.8</ele>
        <time>2023-05-28T07:29:21Z</time>
      </trkpt>
      <trkpt lat="45.77802" lon="5.47523">
        <ele>272</ele>
        <time>2023-05-28T07:29:22Z</time>
      </trkpt>
      <trkpt lat="45.77799" lon="5.47528">
        <ele>272.2</ele>
        <time>2023-05-28T07:29:23Z</time>
      </trkpt>
      <trkpt lat="45.77796" lon="5.47532">
        <ele>272.4</ele>
        <time>2023-05-28T07:29:24Z</time>
      </trkpt>
      <trkpt lat="45.77793" lon="5.47536">
        <ele>272.6</ele>
        <time>2023-05-28T07:29:25Z</time>
      </trkpt>
      <trkpt lat="45.7779" lon="5.4754">
        <ele>272.6</ele>
        <time>2023-05-28T07:29:26Z</time>
      </trkpt>
      <trkpt lat="45.77788" lon="5.47544">
        <ele>272.8</ele>
        <time>2023-05-28T07:29:27Z</time>
      </trkpt>
      <trkpt lat="45.77786" lon="5.47547">
        <ele>273.2</ele>
        <time>2023-05-28T07:29:28Z</time>
      </trkpt>
      <trkpt lat="45.77784" lon="5.47552">
        <ele>273.2</ele>
        <time>2023-05-28T07:29:29Z</time>
      </trkpt>
      <trkpt lat="45.77781" lon="5.47557">
        <ele>273.6</ele>
        <time>2023-05-28T07:29:30Z</time>
      </trkpt>
      <trkpt lat="45.77779" lon="5.47561">
        <ele>273.8</ele>
        <time>2023-05-28T07:29:31Z</time>
      </trkpt>
      <trkpt lat="45.77776" lon="5.47564">
        <ele>274</ele>
        <time>2023-05-28T07:29:32Z</time>
      </trkpt>
      <trkpt lat="45.77774" lon="5.47567">
        <ele>274</ele>
        <time>2023-05-28T07:29:33Z</time>
      </trkpt>
      <trkpt lat="45.77771" lon="5.4757">
        <ele>274.4</ele>
        <time>2023-05-28T07:29:34Z</time>
      </trkpt>
      <trkpt lat="45.77769" lon="5.47574">
        <ele>274.4</ele>
        <time>2023-05-28T07:29:35Z</time>
      </trkpt>
      <trkpt lat="45.77767" lon="5.47578">
        <ele>274.8</ele>
        <time>2023-05-28T07:29:36Z</time>
      </trkpt>
      <trkpt lat="45.77765" lon="5.47582">
        <ele>275.2</ele>
        <time>2023-05-28T07:29:37Z</time>
      </trkpt>
      <trkpt lat="45.77762" lon="5.47586">
        <ele>275.2</ele>
        <time>2023-05-28T07:29:38Z</time>
      </trkpt>
      <trkpt lat="45.77759" lon="5.47591">
        <ele>275.6</ele>
        <time>2023-05-28T07:29:39Z</time>
      </trkpt>
      <trkpt lat="45.77757" lon="5.47594">
        <ele>275.6</ele>
        <time>2023-05-28T07:29:40Z</time>
      </trkpt>
      <trkpt lat="45.77754" lon="5.47598">
        <ele>275.8</ele>
        <time>2023-05-28T07:29:41Z</time>
      </trkpt>
      <trkpt lat="45.77752" lon="5.47602">
        <ele>276</ele>
        <time>2023-05-28T07:29:42Z</time>
      </trkpt>
      <trkpt lat="45.77749" lon="5.47606">
        <ele>276.4</ele>
        <time>2023-05-28T07:29:43Z</time>
      </trkpt>
      <trkpt lat="45.77746" lon="5.47611">
        <ele>276.6</ele>
        <time>2023-05-28T07:29:44Z</time>
      </trkpt>
      <trkpt lat="45.77744" lon="5.47615">
        <ele>276.6</ele>
        <time>2023-05-28T07:29:45Z</time>
      </trkpt>
      <trkpt lat="45.77742" lon="5.4762">
        <ele>277</ele>
        <time>2023-05-28T07:29:46Z</time>
      </trkpt>
      <trkpt lat="45.7774" lon="5.47624">
        <ele>277.2</ele>
        <time>2023-05-28T07:29:47Z</time>
      </trkpt>
      <trkpt lat="45.77738" lon="5.47629">
        <ele>277.4</ele>
        <time>2023-05-28T07:29:48Z</time>
      </trkpt>
      <trkpt lat="45.77735" lon="5.47633">
        <ele>277.8</ele>
        <time>2023-05-28T07:29:49Z</time>
      </trkpt>
      <trkpt lat="45.77733" lon="5.47637">
        <ele>278.2</ele>
        <time>2023-05-28T07:29:50Z</time>
      </trkpt>
      <trkpt lat="45.7773" lon="5.47641">
        <ele>278.4</ele>
        <time>2023-05-28T07:29:51Z</time>
      </trkpt>
      <trkpt lat="45.77728" lon="5.47646">
        <ele>278.6</ele>
        <time>2023-05-28T07:29:52Z</time>
      </trkpt>
      <trkpt lat="45.77727" lon="5.4765">
        <ele>279.2</ele>
        <time>2023-05-28T07:29:53Z</time>
      </trkpt>
      <trkpt lat="45.77725" lon="5.47655">
        <ele>279.2</ele>
        <time>2023-05-28T07:29:54Z</time>
      </trkpt>
      <trkpt lat="45.77723" lon="5.4766">
        <ele>279.6</ele>
        <time>2023-05-28T07:29:55Z</time>
      </trkpt>
      <trkpt lat="45.77722" lon="5.47665">
        <ele>279.8</ele>
        <time>2023-05-28T07:29:56Z</time>
      </trkpt>
      <trkpt lat="45.77721" lon="5.47671">
        <ele>280</ele>
        <time>2023-05-28T07:29:57Z</time>
      </trkpt>
      <trkpt lat="45.77719" lon="5.47676">
        <ele>280</ele>
        <time>2023-05-28T07:29:58Z</time>
      </trkpt>
      <trkpt lat="45.77719" lon="5.47681">
        <ele>280.2</ele>
        <time>2023-05-28T07:29:59Z</time>
      </trkpt>
      <trkpt lat="45.77718" lon="5.47687">
        <ele>280.4</ele>
        <time>2023-05-28T07:30:00Z</time>
      </trkpt>
      <trkpt lat="45.77718" lon="5.47693">
        <ele>280.4</ele>
        <time>2023-05-28T07:30:01Z</time>
      </trkpt>
      <trkpt lat="45.77717" lon="5.47699">
        <ele>280.6</ele>
        <time>2023-05-28T07:30:02Z</time>
      </trkpt>
      <trkpt lat="45.77716" lon="5.47705">
        <ele>280.6</ele>
        <time>2023-05-28T07:30:03Z</time>
      </trkpt>
      <trkpt lat="45.77716" lon="5.47711">
        <ele>280.8</ele>
        <time>2023-05-28T07:30:04Z</time>
      </trkpt>
      <trkpt lat="45.77715" lon="5.47717">
        <ele>280.8</ele>
        <time>2023-05-28T07:30:05Z</time>
      </trkpt>
      <trkpt lat="45.77715" lon="5.47723">
        <ele>280.8</ele>
        <time>2023-05-28T07:30:06Z</time>
      </trkpt>
      <trkpt lat="45.77715" lon="5.4773">
        <ele>281</ele>
        <time>2023-05-28T07:30:07Z</time>
      </trkpt>
      <trkpt lat="45.77715" lon="5.47736">
        <ele>281.2</ele>
        <time>2023-05-28T07:30:08Z</time>
      </trkpt>
      <trkpt lat="45.77715" lon="5.47743">
        <ele>281.2</ele>
        <time>2023-05-28T07:30:09Z</time>
      </trkpt>
      <trkpt lat="45.77715" lon="5.4775">
        <ele>281.4</ele>
        <time>2023-05-28T07:30:10Z</time>
      </trkpt>
      <trkpt lat="45.77715" lon="5.47758">
        <ele>281.4</ele>
        <time>2023-05-28T07:30:11Z</time>
      </trkpt>
      <trkpt lat="45.77715" lon="5.47773">
        <ele>281.6</ele>
        <time>2023-05-28T07:30:13Z</time>
      </trkpt>
      <trkpt lat="45.77716" lon="5.47782">
        <ele>281.6</ele>
        <time>2023-05-28T07:30:14Z</time>
      </trkpt>
      <trkpt lat="45.77717" lon="5.47791">
        <ele>281.6</ele>
        <time>2023-05-28T07:30:15Z</time>
      </trkpt>
      <trkpt lat="45.77719" lon="5.47801">
        <ele>281.6</ele>
        <time>2023-05-28T07:30:16Z</time>
      </trkpt>
      <trkpt lat="45.77721" lon="5.4781">
        <ele>281.2</ele>
        <time>2023-05-28T07:30:17Z</time>
      </trkpt>
      <trkpt lat="45.77724" lon="5.4782">
        <ele>281.4</ele>
        <time>2023-05-28T07:30:18Z</time>
      </trkpt>
      <trkpt lat="45.77727" lon="5.47829">
        <ele>281.2</ele>
        <time>2023-05-28T07:30:19Z</time>
      </trkpt>
      <trkpt lat="45.7773" lon="5.47838">
        <ele>281.2</ele>
        <time>2023-05-28T07:30:20Z</time>
      </trkpt>
      <trkpt lat="45.77733" lon="5.47847">
        <ele>281</ele>
        <time>2023-05-28T07:30:21Z</time>
      </trkpt>
      <trkpt lat="45.77737" lon="5.47857">
        <ele>280.8</ele>
        <time>2023-05-28T07:30:22Z</time>
      </trkpt>
      <trkpt lat="45.7774" lon="5.47867">
        <ele>280.8</ele>
        <time>2023-05-28T07:30:23Z</time>
      </trkpt>
      <trkpt lat="45.77743" lon="5.47877">
        <ele>281</ele>
        <time>2023-05-28T07:30:24Z</time>
      </trkpt>
      <trkpt lat="45.77748" lon="5.47889">
        <ele>281</ele>
        <time>2023-05-28T07:30:25Z</time>
      </trkpt>
      <trkpt lat="45.77751" lon="5.47898">
        <ele>280.8</ele>
        <time>2023-05-28T07:30:26Z</time>
      </trkpt>
      <trkpt lat="45.77755" lon="5.47909">
        <ele>280.6</ele>
        <time>2023-05-28T07:30:27Z</time>
      </trkpt>
      <trkpt lat="45.77759" lon="5.47921">
        <ele>280.4</ele>
        <time>2023-05-28T07:30:28Z</time>
      </trkpt>
      <trkpt lat="45.77762" lon="5.4793">
        <ele>280.4</ele>
        <time>2023-05-28T07:30:29Z</time>
      </trkpt>
      <trkpt lat="45.77766" lon="5.47943">
        <ele>280.2</ele>
        <time>2023-05-28T07:30:30Z</time>
      </trkpt>
      <trkpt lat="45.7777" lon="5.47951">
        <ele>280.2</ele>
        <time>2023-05-28T07:30:31Z</time>
      </trkpt>
      <trkpt lat="45.77774" lon="5.47962">
        <ele>280</ele>
        <time>2023-05-28T07:30:32Z</time>
      </trkpt>
      <trkpt lat="45.77777" lon="5.47973">
        <ele>279.8</ele>
        <time>2023-05-28T07:30:33Z</time>
      </trkpt>
      <trkpt lat="45.77781" lon="5.47984">
        <ele>279.4</ele>
        <time>2023-05-28T07:30:34Z</time>
      </trkpt>
      <trkpt lat="45.77785" lon="5.47994">
        <ele>279.4</ele>
        <time>2023-05-28T07:30:35Z</time>
      </trkpt>
      <trkpt lat="45.77789" lon="5.48005">
        <ele>279.4</ele>
        <time>2023-05-28T07:30:36Z</time>
      </trkpt>
      <trkpt lat="45.77793" lon="5.48016">
        <ele>279.4</ele>
        <time>2023-05-28T07:30:37Z</time>
      </trkpt>
      <trkpt lat="45.77797" lon="5.48027">
        <ele>279.2</ele>
        <time>2023-05-28T07:30:38Z</time>
      </trkpt>
      <trkpt lat="45.77801" lon="5.48037">
        <ele>279.2</ele>
        <time>2023-05-28T07:30:39Z</time>
      </trkpt>
      <trkpt lat="45.77804" lon="5.48047">
        <ele>279.2</ele>
        <time>2023-05-28T07:30:40Z</time>
      </trkpt>
      <trkpt lat="45.77808" lon="5.48057">
        <ele>279.2</ele>
        <time>2023-05-28T07:30:41Z</time>
      </trkpt>
      <trkpt lat="45.77812" lon="5.48067">
        <ele>279.2</ele>
        <time>2023-05-28T07:30:42Z</time>
      </trkpt>
      <trkpt lat="45.77815" lon="5.48076">
        <ele>279.4</ele>
        <time>2023-05-28T07:30:43Z</time>
      </trkpt>
      <trkpt lat="45.77819" lon="5.48086">
        <ele>279.6</ele>
        <time>2023-05-28T07:30:44Z</time>
      </trkpt>
      <trkpt lat="45.77822" lon="5.48095">
        <ele>279.6</ele>
        <time>2023-05-28T07:30:45Z</time>
      </trkpt>
      <trkpt lat="45.77825" lon="5.48104">
        <ele>279.8</ele>
        <time>2023-05-28T07:30:46Z</time>
      </trkpt>
      <trkpt lat="45.77828" lon="5.48113">
        <ele>279.6</ele>
        <time>2023-05-28T07:30:47Z</time>
      </trkpt>
      <trkpt lat="45.77831" lon="5.48121">
        <ele>279.6</ele>
        <time>2023-05-28T07:30:48Z</time>
      </trkpt>
      <trkpt lat="45.77834" lon="5.4813">
        <ele>279.6</ele>
        <time>2023-05-28T07:30:49Z</time>
      </trkpt>
      <trkpt lat="45.77837" lon="5.48139">
        <ele>279.6</ele>
        <time>2023-05-28T07:30:50Z</time>
      </trkpt>
      <trkpt lat="45.7784" lon="5.48147">
        <ele>279.6</ele>
        <time>2023-05-28T07:30:51Z</time>
      </trkpt>
      <trkpt lat="45.77842" lon="5.48156">
        <ele>279.6</ele>
        <time>2023-05-28T07:30:52Z</time>
      </trkpt>
      <trkpt lat="45.77845" lon="5.48164">
        <ele>279.6</ele>
        <time>2023-05-28T07:30:53Z</time>
      </trkpt>
      <trkpt lat="45.77847" lon="5.48174">
        <ele>279.8</ele>
        <time>2023-05-28T07:30:54Z</time>
      </trkpt>
      <trkpt lat="45.77849" lon="5.48183">
        <ele>279.6</ele>
        <time>2023-05-28T07:30:55Z</time>
      </trkpt>
      <trkpt lat="45.77851" lon="5.48191">
        <ele>279.4</ele>
        <time>2023-05-28T07:30:56Z</time>
      </trkpt>
      <trkpt lat="45.77853" lon="5.482">
        <ele>279.4</ele>
        <time>2023-05-28T07:30:57Z</time>
      </trkpt>
      <trkpt lat="45.77855" lon="5.4821">
        <ele>279.4</ele>
        <time>2023-05-28T07:30:58Z</time>
      </trkpt>
      <trkpt lat="45.77857" lon="5.48218">
        <ele>279.4</ele>
        <time>2023-05-28T07:30:59Z</time>
      </trkpt>
      <trkpt lat="45.77858" lon="5.48227">
        <ele>279.6</ele>
        <time>2023-05-28T07:31:00Z</time>
      </trkpt>
      <trkpt lat="45.77858" lon="5.48236">
        <ele>279.6</ele>
        <time>2023-05-28T07:31:01Z</time>
      </trkpt>
      <trkpt lat="45.77859" lon="5.48245">
        <ele>279.6</ele>
        <time>2023-05-28T07:31:02Z</time>
      </trkpt>
      <trkpt lat="45.7786" lon="5.48255">
        <ele>279.6</ele>
        <time>2023-05-28T07:31:03Z</time>
      </trkpt>
      <trkpt lat="45.77861" lon="5.48264">
        <ele>279.8</ele>
        <time>2023-05-28T07:31:04Z</time>
      </trkpt>
      <trkpt lat="45.77861" lon="5.48273">
        <ele>279.8</ele>
        <time>2023-05-28T07:31:05Z</time>
      </trkpt>
      <trkpt lat="45.77862" lon="5.48282">
        <ele>279.8</ele>
        <time>2023-05-28T07:31:06Z</time>
      </trkpt>
      <trkpt lat="45.77862" lon="5.48291">
        <ele>280</ele>
        <time>2023-05-28T07:31:07Z</time>
      </trkpt>
      <trkpt lat="45.77863" lon="5.48301">
        <ele>280.2</ele>
        <time>2023-05-28T07:31:08Z</time>
      </trkpt>
      <trkpt lat="45.77863" lon="5.4831">
        <ele>280.2</ele>
        <time>2023-05-28T07:31:09Z</time>
      </trkpt>
      <trkpt lat="45.77864" lon="5.48319">
        <ele>280.4</ele>
        <time>2023-05-28T07:31:10Z</time>
      </trkpt>
      <trkpt lat="45.77865" lon="5.48328">
        <ele>280.4</ele>
        <time>2023-05-28T07:31:11Z</time>
      </trkpt>
      <trkpt lat="45.77865" lon="5.48338">
        <ele>280.4</ele>
        <time>2023-05-28T07:31:12Z</time>
      </trkpt>
      <trkpt lat="45.77866" lon="5.48347">
        <ele>280.6</ele>
        <time>2023-05-28T07:31:13Z</time>
      </trkpt>
      <trkpt lat="45.77867" lon="5.48356">
        <ele>280.6</ele>
        <time>2023-05-28T07:31:14Z</time>
      </trkpt>
      <trkpt lat="45.77867" lon="5.48365">
        <ele>281</ele>
        <time>2023-05-28T07:31:15Z</time>
      </trkpt>
      <trkpt lat="45.77867" lon="5.48374">
        <ele>281</ele>
        <time>2023-05-28T07:31:16Z</time>
      </trkpt>
      <trkpt lat="45.77867" lon="5.48383">
        <ele>281.4</ele>
        <time>2023-05-28T07:31:17Z</time>
      </trkpt>
      <trkpt lat="45.77866" lon="5.48392">
        <ele>281.6</ele>
        <time>2023-05-28T07:31:18Z</time>
      </trkpt>
      <trkpt lat="45.77867" lon="5.484">
        <ele>281.6</ele>
        <time>2023-05-28T07:31:19Z</time>
      </trkpt>
      <trkpt lat="45.77867" lon="5.48407">
        <ele>281.8</ele>
        <time>2023-05-28T07:31:20Z</time>
      </trkpt>
      <trkpt lat="45.77869" lon="5.48413">
        <ele>282.2</ele>
        <time>2023-05-28T07:31:21Z</time>
      </trkpt>
      <trkpt lat="45.77871" lon="5.4842">
        <ele>282</ele>
        <time>2023-05-28T07:31:22Z</time>
      </trkpt>
      <trkpt lat="45.77872" lon="5.48427">
        <ele>282</ele>
        <time>2023-05-28T07:31:23Z</time>
      </trkpt>
      <trkpt lat="45.77872" lon="5.48435">
        <ele>282.2</ele>
        <time>2023-05-28T07:31:24Z</time>
      </trkpt>
      <trkpt lat="45.77872" lon="5.48443">
        <ele>282</ele>
        <time>2023-05-28T07:31:25Z</time>
      </trkpt>
      <trkpt lat="45.77873" lon="5.48452">
        <ele>282.4</ele>
        <time>2023-05-28T07:31:26Z</time>
      </trkpt>
      <trkpt lat="45.77875" lon="5.48461">
        <ele>282.4</ele>
        <time>2023-05-28T07:31:27Z</time>
      </trkpt>
      <trkpt lat="45.77877" lon="5.4847">
        <ele>282.2</ele>
        <time>2023-05-28T07:31:28Z</time>
      </trkpt>
      <trkpt lat="45.77879" lon="5.48479">
        <ele>282.4</ele>
        <time>2023-05-28T07:31:29Z</time>
      </trkpt>
      <trkpt lat="45.77881" lon="5.48488">
        <ele>282.4</ele>
        <time>2023-05-28T07:31:30Z</time>
      </trkpt>
      <trkpt lat="45.77884" lon="5.48497">
        <ele>282.4</ele>
        <time>2023-05-28T07:31:31Z</time>
      </trkpt>
      <trkpt lat="45.77885" lon="5.48506">
        <ele>282.2</ele>
        <time>2023-05-28T07:31:32Z</time>
      </trkpt>
      <trkpt lat="45.77888" lon="5.48516">
        <ele>282.4</ele>
        <time>2023-05-28T07:31:33Z</time>
      </trkpt>
      <trkpt lat="45.7789" lon="5.48522">
        <ele>282.6</ele>
        <time>2023-05-28T07:31:34Z</time>
      </trkpt>
      <trkpt lat="45.77894" lon="5.48531">
        <ele>282.6</ele>
        <time>2023-05-28T07:31:35Z</time>
      </trkpt>
      <trkpt lat="45.77897" lon="5.48537">
        <ele>282.6</ele>
        <time>2023-05-28T07:31:36Z</time>
      </trkpt>
      <trkpt lat="45.77901" lon="5.48544">
        <ele>282.8</ele>
        <time>2023-05-28T07:31:37Z</time>
      </trkpt>
      <trkpt lat="45.77905" lon="5.48551">
        <ele>282.8</ele>
        <time>2023-05-28T07:31:38Z</time>
      </trkpt>
      <trkpt lat="45.77908" lon="5.48558">
        <ele>283</ele>
        <time>2023-05-28T07:31:39Z</time>
      </trkpt>
      <trkpt lat="45.77914" lon="5.48571">
        <ele>282.8</ele>
        <time>2023-05-28T07:31:40Z</time>
      </trkpt>
      <trkpt lat="45.77914" lon="5.48571">
        <ele>283</ele>
        <time>2023-05-28T07:31:41Z</time>
      </trkpt>
      <trkpt lat="45.77918" lon="5.48578">
        <ele>283.2</ele>
        <time>2023-05-28T07:31:42Z</time>
      </trkpt>
      <trkpt lat="45.77921" lon="5.48587">
        <ele>283</ele>
        <time>2023-05-28T07:31:43Z</time>
      </trkpt>
      <trkpt lat="45.77924" lon="5.48593">
        <ele>283.4</ele>
        <time>2023-05-28T07:31:44Z</time>
      </trkpt>
      <trkpt lat="45.77926" lon="5.48599">
        <ele>283.2</ele>
        <time>2023-05-28T07:31:45Z</time>
      </trkpt>
      <trkpt lat="45.77929" lon="5.48605">
        <ele>283.4</ele>
        <time>2023-05-28T07:31:46Z</time>
      </trkpt>
      <trkpt lat="45.77932" lon="5.48611">
        <ele>283.6</ele>
        <time>2023-05-28T07:31:47Z</time>
      </trkpt>
      <trkpt lat="45.77934" lon="5.48616">
        <ele>283.8</ele>
        <time>2023-05-28T07:31:48Z</time>
      </trkpt>
      <trkpt lat="45.77936" lon="5.4862">
        <ele>284</ele>
        <time>2023-05-28T07:31:49Z</time>
      </trkpt>
      <trkpt lat="45.77938" lon="5.48625">
        <ele>284.2</ele>
        <time>2023-05-28T07:31:50Z</time>
      </trkpt>
      <trkpt lat="45.77941" lon="5.48628">
        <ele>284.8</ele>
        <time>2023-05-28T07:31:51Z</time>
      </trkpt>
      <trkpt lat="45.77944" lon="5.48631">
        <ele>285</ele>
        <time>2023-05-28T07:31:52Z</time>
      </trkpt>
      <trkpt lat="45.77948" lon="5.48634">
        <ele>285.2</ele>
        <time>2023-05-28T07:31:53Z</time>
      </trkpt>
      <trkpt lat="45.77952" lon="5.48635">
        <ele>285.4</ele>
        <time>2023-05-28T07:31:54Z</time>
      </trkpt>
      <trkpt lat="45.77955" lon="5.48636">
        <ele>285.6</ele>
        <time>2023-05-28T07:31:55Z</time>
      </trkpt>
      <trkpt lat="45.77959" lon="5.48637">
        <ele>285.8</ele>
        <time>2023-05-28T07:31:56Z</time>
      </trkpt>
      <trkpt lat="45.77963" lon="5.48637">
        <ele>286</ele>
        <time>2023-05-28T07:31:57Z</time>
      </trkpt>
      <trkpt lat="45.77967" lon="5.48638">
        <ele>286.2</ele>
        <time>2023-05-28T07:31:58Z</time>
      </trkpt>
      <trkpt lat="45.77971" lon="5.48639">
        <ele>286.4</ele>
        <time>2023-05-28T07:31:59Z</time>
      </trkpt>
      <trkpt lat="45.77975" lon="5.48639">
        <ele>286.6</ele>
        <time>2023-05-28T07:32:00Z</time>
      </trkpt>
      <trkpt lat="45.77979" lon="5.4864">
        <ele>286.6</ele>
        <time>2023-05-28T07:32:01Z</time>
      </trkpt>
      <trkpt lat="45.77982" lon="5.4864">
        <ele>286.8</ele>
        <time>2023-05-28T07:32:02Z</time>
      </trkpt>
      <trkpt lat="45.7799" lon="5.4864">
        <ele>287</ele>
        <time>2023-05-28T07:32:03Z</time>
      </trkpt>
      <trkpt lat="45.7799" lon="5.4864">
        <ele>287</ele>
        <time>2023-05-28T07:32:04Z</time>
      </trkpt>
      <trkpt lat="45.77994" lon="5.48641">
        <ele>287.2</ele>
        <time>2023-05-28T07:32:05Z</time>
      </trkpt>
      <trkpt lat="45.77998" lon="5.48641">
        <ele>287.4</ele>
        <time>2023-05-28T07:32:06Z</time>
      </trkpt>
      <trkpt lat="45.78003" lon="5.48641">
        <ele>287.8</ele>
        <time>2023-05-28T07:32:07Z</time>
      </trkpt>
      <trkpt lat="45.78007" lon="5.48641">
        <ele>288</ele>
        <time>2023-05-28T07:32:08Z</time>
      </trkpt>
      <trkpt lat="45.78011" lon="5.48641">
        <ele>288.6</ele>
        <time>2023-05-28T07:32:09Z</time>
      </trkpt>
      <trkpt lat="45.78015" lon="5.48641">
        <ele>289</ele>
        <time>2023-05-28T07:32:10Z</time>
      </trkpt>
      <trkpt lat="45.78019" lon="5.48641">
        <ele>289.2</ele>
        <time>2023-05-28T07:32:11Z</time>
      </trkpt>
      <trkpt lat="45.78022" lon="5.48641">
        <ele>289.6</ele>
        <time>2023-05-28T07:32:12Z</time>
      </trkpt>
      <trkpt lat="45.78026" lon="5.4864">
        <ele>289.8</ele>
        <time>2023-05-28T07:32:13Z</time>
      </trkpt>
      <trkpt lat="45.7803" lon="5.4864">
        <ele>290.2</ele>
        <time>2023-05-28T07:32:14Z</time>
      </trkpt>
      <trkpt lat="45.78034" lon="5.48639">
        <ele>290.2</ele>
        <time>2023-05-28T07:32:15Z</time>
      </trkpt>
      <trkpt lat="45.78037" lon="5.48639">
        <ele>290.6</ele>
        <time>2023-05-28T07:32:16Z</time>
      </trkpt>
      <trkpt lat="45.78042" lon="5.48639">
        <ele>290.6</ele>
        <time>2023-05-28T07:32:17Z</time>
      </trkpt>
      <trkpt lat="45.78046" lon="5.48639">
        <ele>290.8</ele>
        <time>2023-05-28T07:32:18Z</time>
      </trkpt>
      <trkpt lat="45.78049" lon="5.48638">
        <ele>290.8</ele>
        <time>2023-05-28T07:32:19Z</time>
      </trkpt>
      <trkpt lat="45.78053" lon="5.48638">
        <ele>291</ele>
        <time>2023-05-28T07:32:20Z</time>
      </trkpt>
      <trkpt lat="45.78057" lon="5.48637">
        <ele>291.4</ele>
        <time>2023-05-28T07:32:21Z</time>
      </trkpt>
      <trkpt lat="45.7806" lon="5.48636">
        <ele>291.6</ele>
        <time>2023-05-28T07:32:22Z</time>
      </trkpt>
      <trkpt lat="45.78063" lon="5.48634">
        <ele>292.2</ele>
        <time>2023-05-28T07:32:23Z</time>
      </trkpt>
      <trkpt lat="45.78067" lon="5.48631">
        <ele>292.4</ele>
        <time>2023-05-28T07:32:24Z</time>
      </trkpt>
      <trkpt lat="45.7807" lon="5.4863">
        <ele>292.6</ele>
        <time>2023-05-28T07:32:25Z</time>
      </trkpt>
      <trkpt lat="45.78074" lon="5.48628">
        <ele>293.2</ele>
        <time>2023-05-28T07:32:26Z</time>
      </trkpt>
      <trkpt lat="45.78078" lon="5.48626">
        <ele>293.4</ele>
        <time>2023-05-28T07:32:27Z</time>
      </trkpt>
      <trkpt lat="45.78082" lon="5.48624">
        <ele>293.8</ele>
        <time>2023-05-28T07:32:28Z</time>
      </trkpt>
      <trkpt lat="45.78087" lon="5.48622">
        <ele>294</ele>
        <time>2023-05-28T07:32:29Z</time>
      </trkpt>
      <trkpt lat="45.78092" lon="5.48621">
        <ele>294.4</ele>
        <time>2023-05-28T07:32:30Z</time>
      </trkpt>
      <trkpt lat="45.78096" lon="5.4862">
        <ele>294.6</ele>
        <time>2023-05-28T07:32:31Z</time>
      </trkpt>
      <trkpt lat="45.78102" lon="5.48619">
        <ele>294.8</ele>
        <time>2023-05-28T07:32:32Z</time>
      </trkpt>
      <trkpt lat="45.78108" lon="5.4862">
        <ele>294.8</ele>
        <time>2023-05-28T07:32:33Z</time>
      </trkpt>
      <trkpt lat="45.78114" lon="5.4862">
        <ele>295</ele>
        <time>2023-05-28T07:32:34Z</time>
      </trkpt>
      <trkpt lat="45.78121" lon="5.48623">
        <ele>295</ele>
        <time>2023-05-28T07:32:35Z</time>
      </trkpt>
      <trkpt lat="45.78125" lon="5.48625">
        <ele>295</ele>
        <time>2023-05-28T07:32:36Z</time>
      </trkpt>
      <trkpt lat="45.78132" lon="5.48628">
        <ele>295</ele>
        <time>2023-05-28T07:32:37Z</time>
      </trkpt>
      <trkpt lat="45.7814" lon="5.48632">
        <ele>295</ele>
        <time>2023-05-28T07:32:38Z</time>
      </trkpt>
      <trkpt lat="45.78147" lon="5.48636">
        <ele>295.2</ele>
        <time>2023-05-28T07:32:39Z</time>
      </trkpt>
      <trkpt lat="45.78162" lon="5.48644">
        <ele>295.4</ele>
        <time>2023-05-28T07:32:40Z</time>
      </trkpt>
      <trkpt lat="45.78162" lon="5.48644">
        <ele>295.4</ele>
        <time>2023-05-28T07:32:41Z</time>
      </trkpt>
      <trkpt lat="45.78169" lon="5.48647">
        <ele>295.4</ele>
        <time>2023-05-28T07:32:42Z</time>
      </trkpt>
      <trkpt lat="45.78184" lon="5.48654">
        <ele>295.6</ele>
        <time>2023-05-28T07:32:43Z</time>
      </trkpt>
      <trkpt lat="45.78192" lon="5.4866">
        <ele>295.6</ele>
        <time>2023-05-28T07:32:44Z</time>
      </trkpt>
      <trkpt lat="45.78192" lon="5.4866">
        <ele>295.4</ele>
        <time>2023-05-28T07:32:45Z</time>
      </trkpt>
      <trkpt lat="45.78199" lon="5.48665">
        <ele>295.4</ele>
        <time>2023-05-28T07:32:46Z</time>
      </trkpt>
      <trkpt lat="45.78205" lon="5.48671">
        <ele>295.4</ele>
        <time>2023-05-28T07:32:47Z</time>
      </trkpt>
      <trkpt lat="45.78222" lon="5.48684">
        <ele>295.4</ele>
        <time>2023-05-28T07:32:48Z</time>
      </trkpt>
      <trkpt lat="45.78222" lon="5.48684">
        <ele>295.4</ele>
        <time>2023-05-28T07:32:49Z</time>
      </trkpt>
      <trkpt lat="45.7823" lon="5.48691">
        <ele>295.4</ele>
        <time>2023-05-28T07:32:50Z</time>
      </trkpt>
      <trkpt lat="45.78246" lon="5.48705">
        <ele>295.4</ele>
        <time>2023-05-28T07:32:51Z</time>
      </trkpt>
      <trkpt lat="45.78246" lon="5.48705">
        <ele>295.4</ele>
        <time>2023-05-28T07:32:52Z</time>
      </trkpt>
      <trkpt lat="45.78255" lon="5.48712">
        <ele>295.4</ele>
        <time>2023-05-28T07:32:53Z</time>
      </trkpt>
      <trkpt lat="45.78272" lon="5.48721">
        <ele>295.2</ele>
        <time>2023-05-28T07:32:54Z</time>
      </trkpt>
      <trkpt lat="45.78272" lon="5.48721">
        <ele>295.2</ele>
        <time>2023-05-28T07:32:55Z</time>
      </trkpt>
      <trkpt lat="45.78282" lon="5.48723">
        <ele>295.2</ele>
        <time>2023-05-28T07:32:56Z</time>
      </trkpt>
      <trkpt lat="45.78305" lon="5.48722">
        <ele>295.2</ele>
        <time>2023-05-28T07:32:58Z</time>
      </trkpt>
      <trkpt lat="45.78315" lon="5.48722">
        <ele>295.2</ele>
        <time>2023-05-28T07:32:59Z</time>
      </trkpt>
      <trkpt lat="45.78323" lon="5.48721">
        <ele>295</ele>
        <time>2023-05-28T07:33:00Z</time>
      </trkpt>
      <trkpt lat="45.78334" lon="5.4872">
        <ele>294.8</ele>
        <time>2023-05-28T07:33:01Z</time>
      </trkpt>
      <trkpt lat="45.78344" lon="5.48721">
        <ele>294.4</ele>
        <time>2023-05-28T07:33:02Z</time>
      </trkpt>
      <trkpt lat="45.78364" lon="5.48723">
        <ele>293.8</ele>
        <time>2023-05-28T07:33:04Z</time>
      </trkpt>
      <trkpt lat="45.78374" lon="5.48725">
        <ele>293.4</ele>
        <time>2023-05-28T07:33:05Z</time>
      </trkpt>
      <trkpt lat="45.78387" lon="5.48729">
        <ele>293</ele>
        <time>2023-05-28T07:33:06Z</time>
      </trkpt>
      <trkpt lat="45.78406" lon="5.48735">
        <ele>292.6</ele>
        <time>2023-05-28T07:33:07Z</time>
      </trkpt>
      <trkpt lat="45.78406" lon="5.48735">
        <ele>292.4</ele>
        <time>2023-05-28T07:33:08Z</time>
      </trkpt>
      <trkpt lat="45.78414" lon="5.48739">
        <ele>292.2</ele>
        <time>2023-05-28T07:33:09Z</time>
      </trkpt>
      <trkpt lat="45.78419" lon="5.48744">
        <ele>291.8</ele>
        <time>2023-05-28T07:33:10Z</time>
      </trkpt>
      <trkpt lat="45.78422" lon="5.48751">
        <ele>291.8</ele>
        <time>2023-05-28T07:33:11Z</time>
      </trkpt>
      <trkpt lat="45.78422" lon="5.4876">
        <ele>291.2</ele>
        <time>2023-05-28T07:33:12Z</time>
      </trkpt>
      <trkpt lat="45.78421" lon="5.48776">
        <ele>291.2</ele>
        <time>2023-05-28T07:33:13Z</time>
      </trkpt>
      <trkpt lat="45.7842" lon="5.48784">
        <ele>290.8</ele>
        <time>2023-05-28T07:33:14Z</time>
      </trkpt>
      <trkpt lat="45.78418" lon="5.4879">
        <ele>290.6</ele>
        <time>2023-05-28T07:33:15Z</time>
      </trkpt>
      <trkpt lat="45.78418" lon="5.4879">
        <ele>290.4</ele>
        <time>2023-05-28T07:33:16Z</time>
      </trkpt>
      <trkpt lat="45.78416" lon="5.48796">
        <ele>290</ele>
        <time>2023-05-28T07:33:17Z</time>
      </trkpt>
      <trkpt lat="45.78415" lon="5.48802">
        <ele>290</ele>
        <time>2023-05-28T07:33:18Z</time>
      </trkpt>
      <trkpt lat="45.78413" lon="5.48808">
        <ele>289.8</ele>
        <time>2023-05-28T07:33:19Z</time>
      </trkpt>
      <trkpt lat="45.78407" lon="5.48818">
        <ele>289.6</ele>
        <time>2023-05-28T07:33:20Z</time>
      </trkpt>
      <trkpt lat="45.78404" lon="5.48822">
        <ele>289.6</ele>
        <time>2023-05-28T07:33:21Z</time>
      </trkpt>
      <trkpt lat="45.784" lon="5.48828">
        <ele>289.6</ele>
        <time>2023-05-28T07:33:22Z</time>
      </trkpt>
      <trkpt lat="45.78397" lon="5.48832">
        <ele>289.4</ele>
        <time>2023-05-28T07:33:23Z</time>
      </trkpt>
      <trkpt lat="45.78397" lon="5.48832">
        <ele>289.4</ele>
        <time>2023-05-28T07:33:24Z</time>
      </trkpt>
      <trkpt lat="45.78393" lon="5.48836">
        <ele>289.2</ele>
        <time>2023-05-28T07:33:25Z</time>
      </trkpt>
      <trkpt lat="45.78391" lon="5.4884">
        <ele>289.2</ele>
        <time>2023-05-28T07:33:26Z</time>
      </trkpt>
      <trkpt lat="45.78387" lon="5.48847">
        <ele>289.2</ele>
        <time>2023-05-28T07:33:27Z</time>
      </trkpt>
      <trkpt lat="45.78386" lon="5.48851">
        <ele>289.2</ele>
        <time>2023-05-28T07:33:28Z</time>
      </trkpt>
      <trkpt lat="45.78384" lon="5.48855">
        <ele>289.2</ele>
        <time>2023-05-28T07:33:29Z</time>
      </trkpt>
      <trkpt lat="45.78382" lon="5.48859">
        <ele>289.2</ele>
        <time>2023-05-28T07:33:30Z</time>
      </trkpt>
      <trkpt lat="45.7838" lon="5.48863">
        <ele>289.2</ele>
        <time>2023-05-28T07:33:31Z</time>
      </trkpt>
      <trkpt lat="45.78378" lon="5.48867">
        <ele>289.2</ele>
        <time>2023-05-28T07:33:32Z</time>
      </trkpt>
      <trkpt lat="45.78378" lon="5.48867">
        <ele>289.2</ele>
        <time>2023-05-28T07:33:33Z</time>
      </trkpt>
      <trkpt lat="45.78375" lon="5.4887">
        <ele>289.2</ele>
        <time>2023-05-28T07:33:34Z</time>
      </trkpt>
      <trkpt lat="45.78374" lon="5.48874">
        <ele>289.4</ele>
        <time>2023-05-28T07:33:35Z</time>
      </trkpt>
      <trkpt lat="45.78371" lon="5.48882">
        <ele>289.4</ele>
        <time>2023-05-28T07:33:36Z</time>
      </trkpt>
      <trkpt lat="45.78372" lon="5.48887">
        <ele>289.6</ele>
        <time>2023-05-28T07:33:37Z</time>
      </trkpt>
      <trkpt lat="45.78373" lon="5.4889">
        <ele>289.6</ele>
        <time>2023-05-28T07:33:38Z</time>
      </trkpt>
      <trkpt lat="45.78373" lon="5.4889">
        <ele>289.8</ele>
        <time>2023-05-28T07:33:39Z</time>
      </trkpt>
      <trkpt lat="45.78376" lon="5.48893">
        <ele>289.8</ele>
        <time>2023-05-28T07:33:40Z</time>
      </trkpt>
      <trkpt lat="45.78382" lon="5.48893">
        <ele>289.8</ele>
        <time>2023-05-28T07:33:41Z</time>
      </trkpt>
      <trkpt lat="45.78384" lon="5.4889">
        <ele>290</ele>
        <time>2023-05-28T07:33:42Z</time>
      </trkpt>
      <trkpt lat="45.78386" lon="5.48886">
        <ele>290</ele>
        <time>2023-05-28T07:33:43Z</time>
      </trkpt>
      <trkpt lat="45.78389" lon="5.48883">
        <ele>290.4</ele>
        <time>2023-05-28T07:33:44Z</time>
      </trkpt>
      <trkpt lat="45.78389" lon="5.48883">
        <ele>290.6</ele>
        <time>2023-05-28T07:33:45Z</time>
      </trkpt>
      <trkpt lat="45.78391" lon="5.4888">
        <ele>290.8</ele>
        <time>2023-05-28T07:33:46Z</time>
      </trkpt>
      <trkpt lat="45.78393" lon="5.48877">
        <ele>291</ele>
        <time>2023-05-28T07:33:47Z</time>
      </trkpt>
      <trkpt lat="45.78395" lon="5.48874">
        <ele>291.2</ele>
        <time>2023-05-28T07:33:48Z</time>
      </trkpt>
      <trkpt lat="45.78398" lon="5.4887">
        <ele>291.4</ele>
        <time>2023-05-28T07:33:49Z</time>
      </trkpt>
      <trkpt lat="45.78403" lon="5.48864">
        <ele>291.6</ele>
        <time>2023-05-28T07:33:50Z</time>
      </trkpt>
      <trkpt lat="45.78403" lon="5.48864">
        <ele>291.8</ele>
        <time>2023-05-28T07:33:51Z</time>
      </trkpt>
      <trkpt lat="45.78408" lon="5.48857">
        <ele>291.8</ele>
        <time>2023-05-28T07:33:52Z</time>
      </trkpt>
      <trkpt lat="45.78411" lon="5.48853">
        <ele>292.2</ele>
        <time>2023-05-28T07:33:53Z</time>
      </trkpt>
      <trkpt lat="45.78411" lon="5.48853">
        <ele>292.4</ele>
        <time>2023-05-28T07:33:54Z</time>
      </trkpt>
      <trkpt lat="45.78415" lon="5.48845">
        <ele>292.4</ele>
        <time>2023-05-28T07:33:55Z</time>
      </trkpt>
      <trkpt lat="45.78417" lon="5.48842">
        <ele>292.8</ele>
        <time>2023-05-28T07:33:56Z</time>
      </trkpt>
      <trkpt lat="45.78417" lon="5.48842">
        <ele>293</ele>
        <time>2023-05-28T07:33:57Z</time>
      </trkpt>
      <trkpt lat="45.78421" lon="5.48834">
        <ele>293.2</ele>
        <time>2023-05-28T07:33:58Z</time>
      </trkpt>
      <trkpt lat="45.78423" lon="5.4883">
        <ele>293.4</ele>
        <time>2023-05-28T07:33:59Z</time>
      </trkpt>
      <trkpt lat="45.78425" lon="5.48826">
        <ele>293.6</ele>
        <time>2023-05-28T07:34:00Z</time>
      </trkpt>
      <trkpt lat="45.78427" lon="5.48822">
        <ele>294.2</ele>
        <time>2023-05-28T07:34:01Z</time>
      </trkpt>
      <trkpt lat="45.78427" lon="5.48822">
        <ele>294.2</ele>
        <time>2023-05-28T07:34:02Z</time>
      </trkpt>
      <trkpt lat="45.7843" lon="5.48818">
        <ele>294.6</ele>
        <time>2023-05-28T07:34:03Z</time>
      </trkpt>
      <trkpt lat="45.78433" lon="5.4881">
        <ele>294.6</ele>
        <time>2023-05-28T07:34:04Z</time>
      </trkpt>
      <trkpt lat="45.78433" lon="5.4881">
        <ele>295</ele>
        <time>2023-05-28T07:34:05Z</time>
      </trkpt>
      <trkpt lat="45.78437" lon="5.48802">
        <ele>295</ele>
        <time>2023-05-28T07:34:06Z</time>
      </trkpt>
      <trkpt lat="45.78438" lon="5.48799">
        <ele>295.2</ele>
        <time>2023-05-28T07:34:07Z</time>
      </trkpt>
      <trkpt lat="45.7844" lon="5.48795">
        <ele>295.8</ele>
        <time>2023-05-28T07:34:08Z</time>
      </trkpt>
      <trkpt lat="45.78441" lon="5.48792">
        <ele>296</ele>
        <time>2023-05-28T07:34:09Z</time>
      </trkpt>
      <trkpt lat="45.78441" lon="5.48792">
        <ele>296.4</ele>
        <time>2023-05-28T07:34:10Z</time>
      </trkpt>
      <trkpt lat="45.78445" lon="5.48785">
        <ele>296.6</ele>
        <time>2023-05-28T07:34:11Z</time>
      </trkpt>
      <trkpt lat="45.78445" lon="5.48785">
        <ele>296.8</ele>
        <time>2023-05-28T07:34:12Z</time>
      </trkpt>
      <trkpt lat="45.78449" lon="5.48778">
        <ele>297</ele>
        <time>2023-05-28T07:34:13Z</time>
      </trkpt>
      <trkpt lat="45.78449" lon="5.48778">
        <ele>297.2</ele>
        <time>2023-05-28T07:34:14Z</time>
      </trkpt>
      <trkpt lat="45.78454" lon="5.48773">
        <ele>297.4</ele>
        <time>2023-05-28T07:34:15Z</time>
      </trkpt>
      <trkpt lat="45.78457" lon="5.48771">
        <ele>297.6</ele>
        <time>2023-05-28T07:34:16Z</time>
      </trkpt>
      <trkpt lat="45.78457" lon="5.48771">
        <ele>297.8</ele>
        <time>2023-05-28T07:34:17Z</time>
      </trkpt>
      <trkpt lat="45.7846" lon="5.48769">
        <ele>297.8</ele>
        <time>2023-05-28T07:34:18Z</time>
      </trkpt>
      <trkpt lat="45.78466" lon="5.48766">
        <ele>298</ele>
        <time>2023-05-28T07:34:19Z</time>
      </trkpt>
      <trkpt lat="45.78469" lon="5.48764">
        <ele>298</ele>
        <time>2023-05-28T07:34:20Z</time>
      </trkpt>
      <trkpt lat="45.78472" lon="5.48763">
        <ele>298.2</ele>
        <time>2023-05-28T07:34:21Z</time>
      </trkpt>
      <trkpt lat="45.78475" lon="5.48763">
        <ele>298.2</ele>
        <time>2023-05-28T07:34:22Z</time>
      </trkpt>
      <trkpt lat="45.78478" lon="5.48763">
        <ele>298.2</ele>
        <time>2023-05-28T07:34:23Z</time>
      </trkpt>
      <trkpt lat="45.78481" lon="5.48763">
        <ele>298.6</ele>
        <time>2023-05-28T07:34:24Z</time>
      </trkpt>
      <trkpt lat="45.78481" lon="5.48763">
        <ele>298.8</ele>
        <time>2023-05-28T07:34:25Z</time>
      </trkpt>
      <trkpt lat="45.78484" lon="5.48763">
        <ele>299</ele>
        <time>2023-05-28T07:34:26Z</time>
      </trkpt>
      <trkpt lat="45.7849" lon="5.48763">
        <ele>299.2</ele>
        <time>2023-05-28T07:34:27Z</time>
      </trkpt>
      <trkpt lat="45.7849" lon="5.48763">
        <ele>299.4</ele>
        <time>2023-05-28T07:34:28Z</time>
      </trkpt>
      <trkpt lat="45.78495" lon="5.48765">
        <ele>299.6</ele>
        <time>2023-05-28T07:34:29Z</time>
      </trkpt>
      <trkpt lat="45.78498" lon="5.48766">
        <ele>299.8</ele>
        <time>2023-05-28T07:34:30Z</time>
      </trkpt>
      <trkpt lat="45.78501" lon="5.48767">
        <ele>300</ele>
        <time>2023-05-28T07:34:31Z</time>
      </trkpt>
      <trkpt lat="45.78504" lon="5.48768">
        <ele>300</ele>
        <time>2023-05-28T07:34:32Z</time>
      </trkpt>
      <trkpt lat="45.78506" lon="5.4877">
        <ele>300.2</ele>
        <time>2023-05-28T07:34:33Z</time>
      </trkpt>
      <trkpt lat="45.78508" lon="5.48771">
        <ele>300.2</ele>
        <time>2023-05-28T07:34:34Z</time>
      </trkpt>
      <trkpt lat="45.78511" lon="5.48773">
        <ele>300.4</ele>
        <time>2023-05-28T07:34:35Z</time>
      </trkpt>
      <trkpt lat="45.78514" lon="5.48775">
        <ele>300.6</ele>
        <time>2023-05-28T07:34:36Z</time>
      </trkpt>
      <trkpt lat="45.78516" lon="5.48777">
        <ele>300.6</ele>
        <time>2023-05-28T07:34:37Z</time>
      </trkpt>
      <trkpt lat="45.78519" lon="5.48778">
        <ele>301</ele>
        <time>2023-05-28T07:34:38Z</time>
      </trkpt>
      <trkpt lat="45.78522" lon="5.48779">
        <ele>301.2</ele>
        <time>2023-05-28T07:34:39Z</time>
      </trkpt>
      <trkpt lat="45.78524" lon="5.48781">
        <ele>301.4</ele>
        <time>2023-05-28T07:34:40Z</time>
      </trkpt>
      <trkpt lat="45.78524" lon="5.48781">
        <ele>301.6</ele>
        <time>2023-05-28T07:34:41Z</time>
      </trkpt>
      <trkpt lat="45.78527" lon="5.48783">
        <ele>301.6</ele>
        <time>2023-05-28T07:34:42Z</time>
      </trkpt>
      <trkpt lat="45.78533" lon="5.48786">
        <ele>302.2</ele>
        <time>2023-05-28T07:34:43Z</time>
      </trkpt>
      <trkpt lat="45.78536" lon="5.48788">
        <ele>302.4</ele>
        <time>2023-05-28T07:34:44Z</time>
      </trkpt>
      <trkpt lat="45.78536" lon="5.48788">
        <ele>303</ele>
        <time>2023-05-28T07:34:45Z</time>
      </trkpt>
      <trkpt lat="45.78541" lon="5.48791">
        <ele>303.2</ele>
        <time>2023-05-28T07:34:46Z</time>
      </trkpt>
      <trkpt lat="45.78541" lon="5.48791">
        <ele>303.4</ele>
        <time>2023-05-28T07:34:47Z</time>
      </trkpt>
      <trkpt lat="45.78547" lon="5.48795">
        <ele>303.6</ele>
        <time>2023-05-28T07:34:48Z</time>
      </trkpt>
      <trkpt lat="45.78549" lon="5.48797">
        <ele>304</ele>
        <time>2023-05-28T07:34:49Z</time>
      </trkpt>
      <trkpt lat="45.78552" lon="5.48799">
        <ele>304.6</ele>
        <time>2023-05-28T07:34:50Z</time>
      </trkpt>
      <trkpt lat="45.78555" lon="5.48801">
        <ele>304.8</ele>
        <time>2023-05-28T07:34:51Z</time>
      </trkpt>
      <trkpt lat="45.78558" lon="5.48802">
        <ele>305</ele>
        <time>2023-05-28T07:34:52Z</time>
      </trkpt>
      <trkpt lat="45.7856" lon="5.48804">
        <ele>305.4</ele>
        <time>2023-05-28T07:34:53Z</time>
      </trkpt>
      <trkpt lat="45.78563" lon="5.48805">
        <ele>305.8</ele>
        <time>2023-05-28T07:34:54Z</time>
      </trkpt>
      <trkpt lat="45.78566" lon="5.48807">
        <ele>306</ele>
        <time>2023-05-28T07:34:55Z</time>
      </trkpt>
      <trkpt lat="45.78569" lon="5.48808">
        <ele>306.2</ele>
        <time>2023-05-28T07:34:56Z</time>
      </trkpt>
      <trkpt lat="45.78572" lon="5.48809">
        <ele>306.4</ele>
        <time>2023-05-28T07:34:57Z</time>
      </trkpt>
      <trkpt lat="45.78575" lon="5.48811">
        <ele>306.6</ele>
        <time>2023-05-28T07:34:58Z</time>
      </trkpt>
      <trkpt lat="45.78578" lon="5.48812">
        <ele>307.2</ele>
        <time>2023-05-28T07:34:59Z</time>
      </trkpt>
      <trkpt lat="45.78581" lon="5.48813">
        <ele>307.4</ele>
        <time>2023-05-28T07:35:00Z</time>
      </trkpt>
      <trkpt lat="45.78583" lon="5.48814">
        <ele>307.8</ele>
        <time>2023-05-28T07:35:01Z</time>
      </trkpt>
      <trkpt lat="45.78586" lon="5.48816">
        <ele>308.2</ele>
        <time>2023-05-28T07:35:02Z</time>
      </trkpt>
      <trkpt lat="45.78589" lon="5.48818">
        <ele>308.6</ele>
        <time>2023-05-28T07:35:03Z</time>
      </trkpt>
      <trkpt lat="45.78591" lon="5.48821">
        <ele>308.8</ele>
        <time>2023-05-28T07:35:04Z</time>
      </trkpt>
      <trkpt lat="45.78591" lon="5.48825">
        <ele>309.4</ele>
        <time>2023-05-28T07:35:05Z</time>
      </trkpt>
      <trkpt lat="45.78591" lon="5.48828">
        <ele>309.6</ele>
        <time>2023-05-28T07:35:06Z</time>
      </trkpt>
      <trkpt lat="45.78589" lon="5.48831">
        <ele>309.8</ele>
        <time>2023-05-28T07:35:07Z</time>
      </trkpt>
      <trkpt lat="45.78587" lon="5.48832">
        <ele>310.4</ele>
        <time>2023-05-28T07:35:08Z</time>
      </trkpt>
      <trkpt lat="45.78585" lon="5.48832">
        <ele>310.6</ele>
        <time>2023-05-28T07:35:09Z</time>
      </trkpt>
      <trkpt lat="45.78582" lon="5.48832">
        <ele>311.2</ele>
        <time>2023-05-28T07:35:10Z</time>
      </trkpt>
      <trkpt lat="45.78579" lon="5.48831">
        <ele>311.2</ele>
        <time>2023-05-28T07:35:11Z</time>
      </trkpt>
      <trkpt lat="45.78577" lon="5.48831">
        <ele>312</ele>
        <time>2023-05-28T07:35:12Z</time>
      </trkpt>
      <trkpt lat="45.78574" lon="5.4883">
        <ele>312.4</ele>
        <time>2023-05-28T07:35:13Z</time>
      </trkpt>
      <trkpt lat="45.78571" lon="5.4883">
        <ele>312.8</ele>
        <time>2023-05-28T07:35:14Z</time>
      </trkpt>
      <trkpt lat="45.78568" lon="5.48829">
        <ele>313.2</ele>
        <time>2023-05-28T07:35:15Z</time>
      </trkpt>
      <trkpt lat="45.78565" lon="5.48829">
        <ele>313.4</ele>
        <time>2023-05-28T07:35:16Z</time>
      </trkpt>
      <trkpt lat="45.78565" lon="5.48829">
        <ele>313.8</ele>
        <time>2023-05-28T07:35:17Z</time>
      </trkpt>
      <trkpt lat="45.7856" lon="5.48828">
        <ele>313.6</ele>
        <time>2023-05-28T07:35:18Z</time>
      </trkpt>
      <trkpt lat="45.78557" lon="5.48828">
        <ele>314</ele>
        <time>2023-05-28T07:35:19Z</time>
      </trkpt>
      <trkpt lat="45.78554" lon="5.48829">
        <ele>314.2</ele>
        <time>2023-05-28T07:35:20Z</time>
      </trkpt>
      <trkpt lat="45.78551" lon="5.48829">
        <ele>314.6</ele>
        <time>2023-05-28T07:35:21Z</time>
      </trkpt>
      <trkpt lat="45.78551" lon="5.48829">
        <ele>315</ele>
        <time>2023-05-28T07:35:22Z</time>
      </trkpt>
      <trkpt lat="45.78545" lon="5.48828">
        <ele>315</ele>
        <time>2023-05-28T07:35:23Z</time>
      </trkpt>
      <trkpt lat="45.78542" lon="5.48828">
        <ele>315.2</ele>
        <time>2023-05-28T07:35:24Z</time>
      </trkpt>
      <trkpt lat="45.7854" lon="5.48828">
        <ele>315.4</ele>
        <time>2023-05-28T07:35:25Z</time>
      </trkpt>
      <trkpt lat="45.78537" lon="5.48828">
        <ele>315.6</ele>
        <time>2023-05-28T07:35:26Z</time>
      </trkpt>
      <trkpt lat="45.78537" lon="5.48828">
        <ele>315.8</ele>
        <time>2023-05-28T07:35:27Z</time>
      </trkpt>
      <trkpt lat="45.78532" lon="5.48828">
        <ele>315.8</ele>
        <time>2023-05-28T07:35:28Z</time>
      </trkpt>
      <trkpt lat="45.78529" lon="5.48828">
        <ele>316</ele>
        <time>2023-05-28T07:35:29Z</time>
      </trkpt>
      <trkpt lat="45.78526" lon="5.48828">
        <ele>316</ele>
        <time>2023-05-28T07:35:30Z</time>
      </trkpt>
      <trkpt lat="45.78523" lon="5.48829">
        <ele>316.2</ele>
        <time>2023-05-28T07:35:31Z</time>
      </trkpt>
      <trkpt lat="45.78523" lon="5.48829">
        <ele>316.2</ele>
        <time>2023-05-28T07:35:32Z</time>
      </trkpt>
      <trkpt lat="45.78517" lon="5.48829">
        <ele>316.4</ele>
        <time>2023-05-28T07:35:33Z</time>
      </trkpt>
      <trkpt lat="45.78515" lon="5.48829">
        <ele>316.6</ele>
        <time>2023-05-28T07:35:34Z</time>
      </trkpt>
      <trkpt lat="45.78512" lon="5.4883">
        <ele>316.6</ele>
        <time>2023-05-28T07:35:35Z</time>
      </trkpt>
      <trkpt lat="45.78509" lon="5.4883">
        <ele>316.8</ele>
        <time>2023-05-28T07:35:36Z</time>
      </trkpt>
      <trkpt lat="45.78509" lon="5.4883">
        <ele>316.8</ele>
        <time>2023-05-28T07:35:37Z</time>
      </trkpt>
      <trkpt lat="45.78504" lon="5.4883">
        <ele>317</ele>
        <time>2023-05-28T07:35:38Z</time>
      </trkpt>
      <trkpt lat="45.78501" lon="5.48831">
        <ele>317</ele>
        <time>2023-05-28T07:35:39Z</time>
      </trkpt>
      <trkpt lat="45.78498" lon="5.48832">
        <ele>317.2</ele>
        <time>2023-05-28T07:35:40Z</time>
      </trkpt>
      <trkpt lat="45.78495" lon="5.48833">
        <ele>317.4</ele>
        <time>2023-05-28T07:35:41Z</time>
      </trkpt>
      <trkpt lat="45.78495" lon="5.48833">
        <ele>317.4</ele>
        <time>2023-05-28T07:35:42Z</time>
      </trkpt>
      <trkpt lat="45.7849" lon="5.48837">
        <ele>317.4</ele>
        <time>2023-05-28T07:35:43Z</time>
      </trkpt>
      <trkpt lat="45.78488" lon="5.48841">
        <ele>317.6</ele>
        <time>2023-05-28T07:35:44Z</time>
      </trkpt>
      <trkpt lat="45.78487" lon="5.48844">
        <ele>317.6</ele>
        <time>2023-05-28T07:35:45Z</time>
      </trkpt>
      <trkpt lat="45.78486" lon="5.48848">
        <ele>317.8</ele>
        <time>2023-05-28T07:35:46Z</time>
      </trkpt>
      <trkpt lat="45.78486" lon="5.48852">
        <ele>317.6</ele>
        <time>2023-05-28T07:35:47Z</time>
      </trkpt>
      <trkpt lat="45.78485" lon="5.48856">
        <ele>318</ele>
        <time>2023-05-28T07:35:48Z</time>
      </trkpt>
      <trkpt lat="45.78485" lon="5.4886">
        <ele>318</ele>
        <time>2023-05-28T07:35:49Z</time>
      </trkpt>
      <trkpt lat="45.78485" lon="5.48865">
        <ele>318.2</ele>
        <time>2023-05-28T07:35:50Z</time>
      </trkpt>
      <trkpt lat="45.78486" lon="5.4887">
        <ele>318.4</ele>
        <time>2023-05-28T07:35:51Z</time>
      </trkpt>
      <trkpt lat="45.78487" lon="5.48874">
        <ele>318.4</ele>
        <time>2023-05-28T07:35:52Z</time>
      </trkpt>
      <trkpt lat="45.78487" lon="5.48878">
        <ele>318.6</ele>
        <time>2023-05-28T07:35:53Z</time>
      </trkpt>
      <trkpt lat="45.78488" lon="5.48883">
        <ele>318.8</ele>
        <time>2023-05-28T07:35:54Z</time>
      </trkpt>
      <trkpt lat="45.78489" lon="5.48888">
        <ele>319</ele>
        <time>2023-05-28T07:35:55Z</time>
      </trkpt>
      <trkpt lat="45.7849" lon="5.48893">
        <ele>319.4</ele>
        <time>2023-05-28T07:35:56Z</time>
      </trkpt>
      <trkpt lat="45.78491" lon="5.48897">
        <ele>319.6</ele>
        <time>2023-05-28T07:35:57Z</time>
      </trkpt>
      <trkpt lat="45.78491" lon="5.48902">
        <ele>319.8</ele>
        <time>2023-05-28T07:35:58Z</time>
      </trkpt>
      <trkpt lat="45.78492" lon="5.48907">
        <ele>320</ele>
        <time>2023-05-28T07:35:59Z</time>
      </trkpt>
      <trkpt lat="45.78492" lon="5.48912">
        <ele>320</ele>
        <time>2023-05-28T07:36:00Z</time>
      </trkpt>
      <trkpt lat="45.78492" lon="5.48917">
        <ele>320.4</ele>
        <time>2023-05-28T07:36:01Z</time>
      </trkpt>
      <trkpt lat="45.78492" lon="5.48922">
        <ele>320.4</ele>
        <time>2023-05-28T07:36:02Z</time>
      </trkpt>
      <trkpt lat="45.78491" lon="5.48927">
        <ele>320.6</ele>
        <time>2023-05-28T07:36:03Z</time>
      </trkpt>
      <trkpt lat="45.78491" lon="5.48932">
        <ele>320.8</ele>
        <time>2023-05-28T07:36:04Z</time>
      </trkpt>
      <trkpt lat="45.7849" lon="5.48937">
        <ele>321</ele>
        <time>2023-05-28T07:36:05Z</time>
      </trkpt>
      <trkpt lat="45.7849" lon="5.48942">
        <ele>321.4</ele>
        <time>2023-05-28T07:36:06Z</time>
      </trkpt>
      <trkpt lat="45.7849" lon="5.48947">
        <ele>321.6</ele>
        <time>2023-05-28T07:36:07Z</time>
      </trkpt>
      <trkpt lat="45.7849" lon="5.48951">
        <ele>322</ele>
        <time>2023-05-28T07:36:08Z</time>
      </trkpt>
      <trkpt lat="45.78491" lon="5.48955">
        <ele>322.2</ele>
        <time>2023-05-28T07:36:09Z</time>
      </trkpt>
      <trkpt lat="45.78494" lon="5.48958">
        <ele>322.4</ele>
        <time>2023-05-28T07:36:10Z</time>
      </trkpt>
      <trkpt lat="45.78497" lon="5.48959">
        <ele>322.6</ele>
        <time>2023-05-28T07:36:11Z</time>
      </trkpt>
      <trkpt lat="45.78499" lon="5.48958">
        <ele>322.6</ele>
        <time>2023-05-28T07:36:12Z</time>
      </trkpt>
      <trkpt lat="45.78501" lon="5.48956">
        <ele>322.6</ele>
        <time>2023-05-28T07:36:13Z</time>
      </trkpt>
      <trkpt lat="45.78501" lon="5.48956">
        <ele>322.8</ele>
        <time>2023-05-28T07:36:14Z</time>
      </trkpt>
      <trkpt lat="45.78504" lon="5.48948">
        <ele>323.2</ele>
        <time>2023-05-28T07:36:15Z</time>
      </trkpt>
      <trkpt lat="45.78505" lon="5.48943">
        <ele>323.2</ele>
        <time>2023-05-28T07:36:16Z</time>
      </trkpt>
      <trkpt lat="45.78506" lon="5.48939">
        <ele>323.6</ele>
        <time>2023-05-28T07:36:17Z</time>
      </trkpt>
      <trkpt lat="45.78507" lon="5.48934">
        <ele>324</ele>
        <time>2023-05-28T07:36:18Z</time>
      </trkpt>
      <trkpt lat="45.78508" lon="5.48929">
        <ele>324.2</ele>
        <time>2023-05-28T07:36:19Z</time>
      </trkpt>
      <trkpt lat="45.78508" lon="5.48925">
        <ele>324.4</ele>
        <time>2023-05-28T07:36:20Z</time>
      </trkpt>
      <trkpt lat="45.78509" lon="5.4892">
        <ele>324.6</ele>
        <time>2023-05-28T07:36:21Z</time>
      </trkpt>
      <trkpt lat="45.78509" lon="5.48915">
        <ele>324.8</ele>
        <time>2023-05-28T07:36:22Z</time>
      </trkpt>
      <trkpt lat="45.7851" lon="5.48911">
        <ele>325</ele>
        <time>2023-05-28T07:36:23Z</time>
      </trkpt>
      <trkpt lat="45.78511" lon="5.48906">
        <ele>325.2</ele>
        <time>2023-05-28T07:36:24Z</time>
      </trkpt>
      <trkpt lat="45.78512" lon="5.48902">
        <ele>325.4</ele>
        <time>2023-05-28T07:36:25Z</time>
      </trkpt>
      <trkpt lat="45.78513" lon="5.48899">
        <ele>325.6</ele>
        <time>2023-05-28T07:36:26Z</time>
      </trkpt>
      <trkpt lat="45.78515" lon="5.48896">
        <ele>326</ele>
        <time>2023-05-28T07:36:27Z</time>
      </trkpt>
      <trkpt lat="45.78517" lon="5.48892">
        <ele>326.4</ele>
        <time>2023-05-28T07:36:28Z</time>
      </trkpt>
      <trkpt lat="45.7852" lon="5.4889">
        <ele>326.8</ele>
        <time>2023-05-28T07:36:29Z</time>
      </trkpt>
      <trkpt lat="45.78523" lon="5.48888">
        <ele>326.8</ele>
        <time>2023-05-28T07:36:30Z</time>
      </trkpt>
      <trkpt lat="45.78526" lon="5.48888">
        <ele>327</ele>
        <time>2023-05-28T07:36:31Z</time>
      </trkpt>
      <trkpt lat="45.78529" lon="5.48888">
        <ele>327.2</ele>
        <time>2023-05-28T07:36:32Z</time>
      </trkpt>
      <trkpt lat="45.78532" lon="5.48889">
        <ele>327.2</ele>
        <time>2023-05-28T07:36:33Z</time>
      </trkpt>
      <trkpt lat="45.78535" lon="5.4889">
        <ele>327.4</ele>
        <time>2023-05-28T07:36:34Z</time>
      </trkpt>
      <trkpt lat="45.78538" lon="5.48891">
        <ele>327.6</ele>
        <time>2023-05-28T07:36:35Z</time>
      </trkpt>
      <trkpt lat="45.7854" lon="5.48892">
        <ele>327.8</ele>
        <time>2023-05-28T07:36:36Z</time>
      </trkpt>
      <trkpt lat="45.78543" lon="5.48893">
        <ele>328</ele>
        <time>2023-05-28T07:36:37Z</time>
      </trkpt>
      <trkpt lat="45.78546" lon="5.48894">
        <ele>328.2</ele>
        <time>2023-05-28T07:36:38Z</time>
      </trkpt>
      <trkpt lat="45.78549" lon="5.48896">
        <ele>328.4</ele>
        <time>2023-05-28T07:36:39Z</time>
      </trkpt>
      <trkpt lat="45.78551" lon="5.48896">
        <ele>328.4</ele>
        <time>2023-05-28T07:36:40Z</time>
      </trkpt>
      <trkpt lat="45.78554" lon="5.48897">
        <ele>328.8</ele>
        <time>2023-05-28T07:36:41Z</time>
      </trkpt>
      <trkpt lat="45.78557" lon="5.48898">
        <ele>329</ele>
        <time>2023-05-28T07:36:42Z</time>
      </trkpt>
      <trkpt lat="45.7856" lon="5.48899">
        <ele>329.4</ele>
        <time>2023-05-28T07:36:43Z</time>
      </trkpt>
      <trkpt lat="45.78563" lon="5.489">
        <ele>329.6</ele>
        <time>2023-05-28T07:36:44Z</time>
      </trkpt>
      <trkpt lat="45.78566" lon="5.48901">
        <ele>330</ele>
        <time>2023-05-28T07:36:45Z</time>
      </trkpt>
      <trkpt lat="45.78569" lon="5.48902">
        <ele>330</ele>
        <time>2023-05-28T07:36:46Z</time>
      </trkpt>
      <trkpt lat="45.78572" lon="5.48903">
        <ele>330.6</ele>
        <time>2023-05-28T07:36:47Z</time>
      </trkpt>
      <trkpt lat="45.78575" lon="5.48904">
        <ele>331</ele>
        <time>2023-05-28T07:36:48Z</time>
      </trkpt>
      <trkpt lat="45.78578" lon="5.48905">
        <ele>331.2</ele>
        <time>2023-05-28T07:36:49Z</time>
      </trkpt>
      <trkpt lat="45.78581" lon="5.48906">
        <ele>331.2</ele>
        <time>2023-05-28T07:36:50Z</time>
      </trkpt>
      <trkpt lat="45.78584" lon="5.48907">
        <ele>331.4</ele>
        <time>2023-05-28T07:36:51Z</time>
      </trkpt>
      <trkpt lat="45.78584" lon="5.48907">
        <ele>331.8</ele>
        <time>2023-05-28T07:36:52Z</time>
      </trkpt>
      <trkpt lat="45.7859" lon="5.4891">
        <ele>332.4</ele>
        <time>2023-05-28T07:36:53Z</time>
      </trkpt>
      <trkpt lat="45.78592" lon="5.48911">
        <ele>333.2</ele>
        <time>2023-05-28T07:36:54Z</time>
      </trkpt>
      <trkpt lat="45.78595" lon="5.48913">
        <ele>333.6</ele>
        <time>2023-05-28T07:36:55Z</time>
      </trkpt>
      <trkpt lat="45.78595" lon="5.48913">
        <ele>333.8</ele>
        <time>2023-05-28T07:36:56Z</time>
      </trkpt>
      <trkpt lat="45.786" lon="5.48916">
        <ele>334.2</ele>
        <time>2023-05-28T07:36:57Z</time>
      </trkpt>
      <trkpt lat="45.78603" lon="5.48919">
        <ele>334.4</ele>
        <time>2023-05-28T07:36:58Z</time>
      </trkpt>
      <trkpt lat="45.78606" lon="5.48921">
        <ele>334.6</ele>
        <time>2023-05-28T07:36:59Z</time>
      </trkpt>
      <trkpt lat="45.78608" lon="5.48924">
        <ele>334.8</ele>
        <time>2023-05-28T07:37:00Z</time>
      </trkpt>
      <trkpt lat="45.7861" lon="5.48926">
        <ele>335</ele>
        <time>2023-05-28T07:37:01Z</time>
      </trkpt>
      <trkpt lat="45.78613" lon="5.48929">
        <ele>335</ele>
        <time>2023-05-28T07:37:02Z</time>
      </trkpt>
      <trkpt lat="45.78615" lon="5.48932">
        <ele>335.4</ele>
        <time>2023-05-28T07:37:03Z</time>
      </trkpt>
      <trkpt lat="45.78617" lon="5.48935">
        <ele>335.8</ele>
        <time>2023-05-28T07:37:04Z</time>
      </trkpt>
      <trkpt lat="45.7862" lon="5.48938">
        <ele>336</ele>
        <time>2023-05-28T07:37:05Z</time>
      </trkpt>
      <trkpt lat="45.78622" lon="5.48941">
        <ele>336.4</ele>
        <time>2023-05-28T07:37:06Z</time>
      </trkpt>
      <trkpt lat="45.78622" lon="5.48941">
        <ele>336.6</ele>
        <time>2023-05-28T07:37:07Z</time>
      </trkpt>
      <trkpt lat="45.78627" lon="5.48947">
        <ele>337</ele>
        <time>2023-05-28T07:37:08Z</time>
      </trkpt>
      <trkpt lat="45.78629" lon="5.48951">
        <ele>337.4</ele>
        <time>2023-05-28T07:37:09Z</time>
      </trkpt>
      <trkpt lat="45.78631" lon="5.48954">
        <ele>337.6</ele>
        <time>2023-05-28T07:37:10Z</time>
      </trkpt>
      <trkpt lat="45.78631" lon="5.48954">
        <ele>338</ele>
        <time>2023-05-28T07:37:11Z</time>
      </trkpt>
      <trkpt lat="45.78635" lon="5.48961">
        <ele>338</ele>
        <time>2023-05-28T07:37:12Z</time>
      </trkpt>
      <trkpt lat="45.78637" lon="5.48964">
        <ele>338.2</ele>
        <time>2023-05-28T07:37:13Z</time>
      </trkpt>
      <trkpt lat="45.7864" lon="5.48966">
        <ele>338.4</ele>
        <time>2023-05-28T07:37:14Z</time>
      </trkpt>
      <trkpt lat="45.78642" lon="5.48969">
        <ele>338.6</ele>
        <time>2023-05-28T07:37:15Z</time>
      </trkpt>
      <trkpt lat="45.78645" lon="5.48972">
        <ele>338.8</ele>
        <time>2023-05-28T07:37:16Z</time>
      </trkpt>
      <trkpt lat="45.78647" lon="5.48974">
        <ele>339</ele>
        <time>2023-05-28T07:37:17Z</time>
      </trkpt>
      <trkpt lat="45.7865" lon="5.48977">
        <ele>339.2</ele>
        <time>2023-05-28T07:37:18Z</time>
      </trkpt>
      <trkpt lat="45.78652" lon="5.48979">
        <ele>339.2</ele>
        <time>2023-05-28T07:37:19Z</time>
      </trkpt>
      <trkpt lat="45.78655" lon="5.48982">
        <ele>339.2</ele>
        <time>2023-05-28T07:37:20Z</time>
      </trkpt>
      <trkpt lat="45.78658" lon="5.48984">
        <ele>339.4</ele>
        <time>2023-05-28T07:37:21Z</time>
      </trkpt>
      <trkpt lat="45.7866" lon="5.48986">
        <ele>339.6</ele>
        <time>2023-05-28T07:37:22Z</time>
      </trkpt>
      <trkpt lat="45.78663" lon="5.48988">
        <ele>339.6</ele>
        <time>2023-05-28T07:37:23Z</time>
      </trkpt>
      <trkpt lat="45.78665" lon="5.4899">
        <ele>339.8</ele>
        <time>2023-05-28T07:37:24Z</time>
      </trkpt>
      <trkpt lat="45.78668" lon="5.48991">
        <ele>340</ele>
        <time>2023-05-28T07:37:25Z</time>
      </trkpt>
      <trkpt lat="45.78671" lon="5.48993">
        <ele>340.2</ele>
        <time>2023-05-28T07:37:26Z</time>
      </trkpt>
      <trkpt lat="45.78673" lon="5.48994">
        <ele>340.6</ele>
        <time>2023-05-28T07:37:27Z</time>
      </trkpt>
      <trkpt lat="45.78676" lon="5.48995">
        <ele>340.8</ele>
        <time>2023-05-28T07:37:28Z</time>
      </trkpt>
      <trkpt lat="45.78678" lon="5.48997">
        <ele>341</ele>
        <time>2023-05-28T07:37:29Z</time>
      </trkpt>
      <trkpt lat="45.78681" lon="5.48998">
        <ele>341.2</ele>
        <time>2023-05-28T07:37:30Z</time>
      </trkpt>
      <trkpt lat="45.78683" lon="5.48999">
        <ele>341.6</ele>
        <time>2023-05-28T07:37:31Z</time>
      </trkpt>
      <trkpt lat="45.78686" lon="5.49">
        <ele>341.8</ele>
        <time>2023-05-28T07:37:32Z</time>
      </trkpt>
      <trkpt lat="45.78688" lon="5.49002">
        <ele>341.8</ele>
        <time>2023-05-28T07:37:33Z</time>
      </trkpt>
      <trkpt lat="45.78691" lon="5.49003">
        <ele>342</ele>
        <time>2023-05-28T07:37:34Z</time>
      </trkpt>
      <trkpt lat="45.78694" lon="5.49005">
        <ele>342.2</ele>
        <time>2023-05-28T07:37:35Z</time>
      </trkpt>
      <trkpt lat="45.78697" lon="5.49006">
        <ele>342.4</ele>
        <time>2023-05-28T07:37:36Z</time>
      </trkpt>
      <trkpt lat="45.787" lon="5.49007">
        <ele>342.4</ele>
        <time>2023-05-28T07:37:37Z</time>
      </trkpt>
      <trkpt lat="45.78703" lon="5.49008">
        <ele>342.6</ele>
        <time>2023-05-28T07:37:38Z</time>
      </trkpt>
      <trkpt lat="45.78705" lon="5.49009">
        <ele>343</ele>
        <time>2023-05-28T07:37:39Z</time>
      </trkpt>
      <trkpt lat="45.78708" lon="5.4901">
        <ele>343.2</ele>
        <time>2023-05-28T07:37:40Z</time>
      </trkpt>
      <trkpt lat="45.7871" lon="5.49011">
        <ele>343.4</ele>
        <time>2023-05-28T07:37:41Z</time>
      </trkpt>
      <trkpt lat="45.78713" lon="5.49012">
        <ele>343.6</ele>
        <time>2023-05-28T07:37:42Z</time>
      </trkpt>
      <trkpt lat="45.78716" lon="5.49013">
        <ele>343.8</ele>
        <time>2023-05-28T07:37:43Z</time>
      </trkpt>
      <trkpt lat="45.78719" lon="5.49015">
        <ele>343.8</ele>
        <time>2023-05-28T07:37:44Z</time>
      </trkpt>
      <trkpt lat="45.78721" lon="5.49017">
        <ele>344</ele>
        <time>2023-05-28T07:37:45Z</time>
      </trkpt>
      <trkpt lat="45.78724" lon="5.49019">
        <ele>344.4</ele>
        <time>2023-05-28T07:37:46Z</time>
      </trkpt>
      <trkpt lat="45.78725" lon="5.49022">
        <ele>344.8</ele>
        <time>2023-05-28T07:37:47Z</time>
      </trkpt>
      <trkpt lat="45.78726" lon="5.49025">
        <ele>345.2</ele>
        <time>2023-05-28T07:37:48Z</time>
      </trkpt>
      <trkpt lat="45.78727" lon="5.49028">
        <ele>345.6</ele>
        <time>2023-05-28T07:37:49Z</time>
      </trkpt>
      <trkpt lat="45.78726" lon="5.49031">
        <ele>345.8</ele>
        <time>2023-05-28T07:37:50Z</time>
      </trkpt>
      <trkpt lat="45.78724" lon="5.49034">
        <ele>346</ele>
        <time>2023-05-28T07:37:51Z</time>
      </trkpt>
      <trkpt lat="45.78722" lon="5.49035">
        <ele>346.2</ele>
        <time>2023-05-28T07:37:52Z</time>
      </trkpt>
      <trkpt lat="45.78719" lon="5.49035">
        <ele>346.6</ele>
        <time>2023-05-28T07:37:53Z</time>
      </trkpt>
      <trkpt lat="45.78716" lon="5.49035">
        <ele>346.6</ele>
        <time>2023-05-28T07:37:54Z</time>
      </trkpt>
      <trkpt lat="45.78714" lon="5.49033">
        <ele>347.2</ele>
        <time>2023-05-28T07:37:55Z</time>
      </trkpt>
      <trkpt lat="45.78711" lon="5.49033">
        <ele>347.6</ele>
        <time>2023-05-28T07:37:56Z</time>
      </trkpt>
      <trkpt lat="45.78709" lon="5.49033">
        <ele>348.2</ele>
        <time>2023-05-28T07:37:57Z</time>
      </trkpt>
      <trkpt lat="45.78709" lon="5.49033">
        <ele>348.4</ele>
        <time>2023-05-28T07:37:58Z</time>
      </trkpt>
      <trkpt lat="45.78703" lon="5.49034">
        <ele>348.6</ele>
        <time>2023-05-28T07:37:59Z</time>
      </trkpt>
      <trkpt lat="45.78701" lon="5.49034">
        <ele>348.8</ele>
        <time>2023-05-28T07:38:00Z</time>
      </trkpt>
      <trkpt lat="45.78699" lon="5.49034">
        <ele>349</ele>
        <time>2023-05-28T07:38:01Z</time>
      </trkpt>
      <trkpt lat="45.78696" lon="5.49034">
        <ele>349.2</ele>
        <time>2023-05-28T07:38:02Z</time>
      </trkpt>
      <trkpt lat="45.78693" lon="5.49035">
        <ele>349.2</ele>
        <time>2023-05-28T07:38:03Z</time>
      </trkpt>
      <trkpt lat="45.7869" lon="5.49036">
        <ele>349.4</ele>
        <time>2023-05-28T07:38:04Z</time>
      </trkpt>
      <trkpt lat="45.78687" lon="5.49036">
        <ele>349.4</ele>
        <time>2023-05-28T07:38:05Z</time>
      </trkpt>
      <trkpt lat="45.78685" lon="5.49036">
        <ele>349.6</ele>
        <time>2023-05-28T07:38:06Z</time>
      </trkpt>
      <trkpt lat="45.78682" lon="5.49037">
        <ele>349.8</ele>
        <time>2023-05-28T07:38:07Z</time>
      </trkpt>
      <trkpt lat="45.78679" lon="5.49038">
        <ele>350.2</ele>
        <time>2023-05-28T07:38:08Z</time>
      </trkpt>
      <trkpt lat="45.78676" lon="5.49038">
        <ele>350.6</ele>
        <time>2023-05-28T07:38:09Z</time>
      </trkpt>
      <trkpt lat="45.78672" lon="5.4904">
        <ele>351</ele>
        <time>2023-05-28T07:38:11Z</time>
      </trkpt>
      <trkpt lat="45.78669" lon="5.49041">
        <ele>351</ele>
        <time>2023-05-28T07:38:12Z</time>
      </trkpt>
      <trkpt lat="45.78667" lon="5.49042">
        <ele>351.2</ele>
        <time>2023-05-28T07:38:13Z</time>
      </trkpt>
      <trkpt lat="45.78663" lon="5.49043">
        <ele>351.4</ele>
        <time>2023-05-28T07:38:14Z</time>
      </trkpt>
      <trkpt lat="45.78661" lon="5.49044">
        <ele>351.6</ele>
        <time>2023-05-28T07:38:15Z</time>
      </trkpt>
      <trkpt lat="45.78658" lon="5.49044">
        <ele>352</ele>
        <time>2023-05-28T07:38:16Z</time>
      </trkpt>
      <trkpt lat="45.78655" lon="5.49045">
        <ele>352.2</ele>
        <time>2023-05-28T07:38:17Z</time>
      </trkpt>
      <trkpt lat="45.78652" lon="5.49046">
        <ele>352.4</ele>
        <time>2023-05-28T07:38:18Z</time>
      </trkpt>
      <trkpt lat="45.78649" lon="5.49046">
        <ele>352.4</ele>
        <time>2023-05-28T07:38:19Z</time>
      </trkpt>
      <trkpt lat="45.78645" lon="5.49047">
        <ele>352.6</ele>
        <time>2023-05-28T07:38:20Z</time>
      </trkpt>
      <trkpt lat="45.78642" lon="5.49047">
        <ele>352.8</ele>
        <time>2023-05-28T07:38:22Z</time>
      </trkpt>
      <trkpt lat="45.78637" lon="5.49047">
        <ele>353</ele>
        <time>2023-05-28T07:38:23Z</time>
      </trkpt>
      <trkpt lat="45.78633" lon="5.49046">
        <ele>353.2</ele>
        <time>2023-05-28T07:38:24Z</time>
      </trkpt>
      <trkpt lat="45.78631" lon="5.49045">
        <ele>353.4</ele>
        <time>2023-05-28T07:38:25Z</time>
      </trkpt>
      <trkpt lat="45.78628" lon="5.49044">
        <ele>353.6</ele>
        <time>2023-05-28T07:38:26Z</time>
      </trkpt>
      <trkpt lat="45.78625" lon="5.49043">
        <ele>354</ele>
        <time>2023-05-28T07:38:27Z</time>
      </trkpt>
      <trkpt lat="45.78622" lon="5.49042">
        <ele>354.2</ele>
        <time>2023-05-28T07:38:28Z</time>
      </trkpt>
      <trkpt lat="45.78619" lon="5.4904">
        <ele>354.4</ele>
        <time>2023-05-28T07:38:29Z</time>
      </trkpt>
      <trkpt lat="45.78617" lon="5.49039">
        <ele>354.6</ele>
        <time>2023-05-28T07:38:30Z</time>
      </trkpt>
      <trkpt lat="45.78612" lon="5.49035">
        <ele>355</ele>
        <time>2023-05-28T07:38:32Z</time>
      </trkpt>
      <trkpt lat="45.7861" lon="5.49034">
        <ele>355.2</ele>
        <time>2023-05-28T07:38:33Z</time>
      </trkpt>
      <trkpt lat="45.78607" lon="5.49033">
        <ele>355.2</ele>
        <time>2023-05-28T07:38:34Z</time>
      </trkpt>
      <trkpt lat="45.78604" lon="5.49032">
        <ele>355.4</ele>
        <time>2023-05-28T07:38:35Z</time>
      </trkpt>
      <trkpt lat="45.78601" lon="5.49032">
        <ele>355.6</ele>
        <time>2023-05-28T07:38:36Z</time>
      </trkpt>
      <trkpt lat="45.78599" lon="5.49034">
        <ele>355.6</ele>
        <time>2023-05-28T07:38:37Z</time>
      </trkpt>
      <trkpt lat="45.78597" lon="5.49036">
        <ele>355.8</ele>
        <time>2023-05-28T07:38:38Z</time>
      </trkpt>
      <trkpt lat="45.78594" lon="5.49039">
        <ele>356.4</ele>
        <time>2023-05-28T07:38:39Z</time>
      </trkpt>
      <trkpt lat="45.78594" lon="5.49042">
        <ele>356.4</ele>
        <time>2023-05-28T07:38:40Z</time>
      </trkpt>
      <trkpt lat="45.78594" lon="5.49049">
        <ele>356.8</ele>
        <time>2023-05-28T07:38:42Z</time>
      </trkpt>
      <trkpt lat="45.78595" lon="5.49053">
        <ele>357.2</ele>
        <time>2023-05-28T07:38:43Z</time>
      </trkpt>
      <trkpt lat="45.78596" lon="5.49057">
        <ele>357.4</ele>
        <time>2023-05-28T07:38:44Z</time>
      </trkpt>
      <trkpt lat="45.78596" lon="5.49061">
        <ele>357.8</ele>
        <time>2023-05-28T07:38:45Z</time>
      </trkpt>
      <trkpt lat="45.78597" lon="5.49065">
        <ele>358</ele>
        <time>2023-05-28T07:38:46Z</time>
      </trkpt>
      <trkpt lat="45.78597" lon="5.49068">
        <ele>358.2</ele>
        <time>2023-05-28T07:38:47Z</time>
      </trkpt>
      <trkpt lat="45.78598" lon="5.49071">
        <ele>358.4</ele>
        <time>2023-05-28T07:38:48Z</time>
      </trkpt>
      <trkpt lat="45.78598" lon="5.49075">
        <ele>358.6</ele>
        <time>2023-05-28T07:38:49Z</time>
      </trkpt>
      <trkpt lat="45.78599" lon="5.49079">
        <ele>359</ele>
        <time>2023-05-28T07:38:50Z</time>
      </trkpt>
      <trkpt lat="45.78599" lon="5.49083">
        <ele>359.4</ele>
        <time>2023-05-28T07:38:51Z</time>
      </trkpt>
      <trkpt lat="45.786" lon="5.49085">
        <ele>359.8</ele>
        <time>2023-05-28T07:38:52Z</time>
      </trkpt>
      <trkpt lat="45.786" lon="5.49089">
        <ele>360.2</ele>
        <time>2023-05-28T07:38:53Z</time>
      </trkpt>
      <trkpt lat="45.78601" lon="5.49093">
        <ele>360.4</ele>
        <time>2023-05-28T07:38:54Z</time>
      </trkpt>
      <trkpt lat="45.78602" lon="5.49097">
        <ele>360.8</ele>
        <time>2023-05-28T07:38:55Z</time>
      </trkpt>
      <trkpt lat="45.78602" lon="5.49101">
        <ele>361</ele>
        <time>2023-05-28T07:38:56Z</time>
      </trkpt>
      <trkpt lat="45.78603" lon="5.49104">
        <ele>361.8</ele>
        <time>2023-05-28T07:38:57Z</time>
      </trkpt>
      <trkpt lat="45.78603" lon="5.49108">
        <ele>362.2</ele>
        <time>2023-05-28T07:38:58Z</time>
      </trkpt>
      <trkpt lat="45.78603" lon="5.49111">
        <ele>362.8</ele>
        <time>2023-05-28T07:38:59Z</time>
      </trkpt>
      <trkpt lat="45.78604" lon="5.49114">
        <ele>363.2</ele>
        <time>2023-05-28T07:39:00Z</time>
      </trkpt>
      <trkpt lat="45.78604" lon="5.49117">
        <ele>363.4</ele>
        <time>2023-05-28T07:39:01Z</time>
      </trkpt>
      <trkpt lat="45.78605" lon="5.4912">
        <ele>363.8</ele>
        <time>2023-05-28T07:39:02Z</time>
      </trkpt>
      <trkpt lat="45.78606" lon="5.49127">
        <ele>364.6</ele>
        <time>2023-05-28T07:39:04Z</time>
      </trkpt>
      <trkpt lat="45.78607" lon="5.49132">
        <ele>364.6</ele>
        <time>2023-05-28T07:39:05Z</time>
      </trkpt>
      <trkpt lat="45.78607" lon="5.49132">
        <ele>365</ele>
        <time>2023-05-28T07:39:06Z</time>
      </trkpt>
      <trkpt lat="45.78609" lon="5.49135">
        <ele>365.2</ele>
        <time>2023-05-28T07:39:07Z</time>
      </trkpt>
      <trkpt lat="45.7861" lon="5.49137">
        <ele>365.6</ele>
        <time>2023-05-28T07:39:08Z</time>
      </trkpt>
      <trkpt lat="45.78611" lon="5.49139">
        <ele>366.2</ele>
        <time>2023-05-28T07:39:09Z</time>
      </trkpt>
      <trkpt lat="45.78614" lon="5.49139">
        <ele>366.6</ele>
        <time>2023-05-28T07:39:10Z</time>
      </trkpt>
      <trkpt lat="45.78615" lon="5.49138">
        <ele>367</ele>
        <time>2023-05-28T07:39:11Z</time>
      </trkpt>
      <trkpt lat="45.78618" lon="5.49137">
        <ele>367.2</ele>
        <time>2023-05-28T07:39:12Z</time>
      </trkpt>
      <trkpt lat="45.7862" lon="5.49135">
        <ele>367.6</ele>
        <time>2023-05-28T07:39:13Z</time>
      </trkpt>
      <trkpt lat="45.78622" lon="5.49134">
        <ele>367.8</ele>
        <time>2023-05-28T07:39:14Z</time>
      </trkpt>
      <trkpt lat="45.78625" lon="5.49133">
        <ele>368</ele>
        <time>2023-05-28T07:39:15Z</time>
      </trkpt>
      <trkpt lat="45.78627" lon="5.49131">
        <ele>368.4</ele>
        <time>2023-05-28T07:39:16Z</time>
      </trkpt>
      <trkpt lat="45.7863" lon="5.49131">
        <ele>368.6</ele>
        <time>2023-05-28T07:39:17Z</time>
      </trkpt>
      <trkpt lat="45.78633" lon="5.4913">
        <ele>369</ele>
        <time>2023-05-28T07:39:18Z</time>
      </trkpt>
      <trkpt lat="45.78636" lon="5.49128">
        <ele>369</ele>
        <time>2023-05-28T07:39:19Z</time>
      </trkpt>
      <trkpt lat="45.78639" lon="5.49126">
        <ele>369</ele>
        <time>2023-05-28T07:39:20Z</time>
      </trkpt>
      <trkpt lat="45.78641" lon="5.49125">
        <ele>369.2</ele>
        <time>2023-05-28T07:39:21Z</time>
      </trkpt>
      <trkpt lat="45.78644" lon="5.49124">
        <ele>369.4</ele>
        <time>2023-05-28T07:39:22Z</time>
      </trkpt>
      <trkpt lat="45.78646" lon="5.49122">
        <ele>369.6</ele>
        <time>2023-05-28T07:39:23Z</time>
      </trkpt>
      <trkpt lat="45.78649" lon="5.49121">
        <ele>369.8</ele>
        <time>2023-05-28T07:39:24Z</time>
      </trkpt>
      <trkpt lat="45.78652" lon="5.4912">
        <ele>370</ele>
        <time>2023-05-28T07:39:25Z</time>
      </trkpt>
      <trkpt lat="45.78654" lon="5.49119">
        <ele>370</ele>
        <time>2023-05-28T07:39:26Z</time>
      </trkpt>
      <trkpt lat="45.78657" lon="5.49119">
        <ele>370.4</ele>
        <time>2023-05-28T07:39:27Z</time>
      </trkpt>
      <trkpt lat="45.78659" lon="5.49118">
        <ele>370.4</ele>
        <time>2023-05-28T07:39:28Z</time>
      </trkpt>
      <trkpt lat="45.78662" lon="5.49118">
        <ele>370.6</ele>
        <time>2023-05-28T07:39:29Z</time>
      </trkpt>
      <trkpt lat="45.78665" lon="5.49118">
        <ele>371</ele>
        <time>2023-05-28T07:39:30Z</time>
      </trkpt>
      <trkpt lat="45.78668" lon="5.49117">
        <ele>371.2</ele>
        <time>2023-05-28T07:39:31Z</time>
      </trkpt>
      <trkpt lat="45.7867" lon="5.49117">
        <ele>371.4</ele>
        <time>2023-05-28T07:39:32Z</time>
      </trkpt>
      <trkpt lat="45.78672" lon="5.49117">
        <ele>371.6</ele>
        <time>2023-05-28T07:39:33Z</time>
      </trkpt>
      <trkpt lat="45.78675" lon="5.49118">
        <ele>371.8</ele>
        <time>2023-05-28T07:39:34Z</time>
      </trkpt>
      <trkpt lat="45.78677" lon="5.49119">
        <ele>372</ele>
        <time>2023-05-28T07:39:35Z</time>
      </trkpt>
      <trkpt lat="45.78679" lon="5.4912">
        <ele>372.2</ele>
        <time>2023-05-28T07:39:36Z</time>
      </trkpt>
      <trkpt lat="45.78681" lon="5.49121">
        <ele>372.4</ele>
        <time>2023-05-28T07:39:37Z</time>
      </trkpt>
      <trkpt lat="45.78684" lon="5.49122">
        <ele>372.6</ele>
        <time>2023-05-28T07:39:38Z</time>
      </trkpt>
      <trkpt lat="45.78686" lon="5.49123">
        <ele>373</ele>
        <time>2023-05-28T07:39:39Z</time>
      </trkpt>
      <trkpt lat="45.78689" lon="5.49125">
        <ele>373.2</ele>
        <time>2023-05-28T07:39:40Z</time>
      </trkpt>
      <trkpt lat="45.78691" lon="5.49125">
        <ele>373.4</ele>
        <time>2023-05-28T07:39:41Z</time>
      </trkpt>
      <trkpt lat="45.78693" lon="5.49126">
        <ele>373.6</ele>
        <time>2023-05-28T07:39:42Z</time>
      </trkpt>
      <trkpt lat="45.78696" lon="5.49127">
        <ele>374</ele>
        <time>2023-05-28T07:39:43Z</time>
      </trkpt>
      <trkpt lat="45.78698" lon="5.49128">
        <ele>374.2</ele>
        <time>2023-05-28T07:39:44Z</time>
      </trkpt>
      <trkpt lat="45.78699" lon="5.4913">
        <ele>374.4</ele>
        <time>2023-05-28T07:39:45Z</time>
      </trkpt>
      <trkpt lat="45.78701" lon="5.49131">
        <ele>374.6</ele>
        <time>2023-05-28T07:39:46Z</time>
      </trkpt>
      <trkpt lat="45.78704" lon="5.49133">
        <ele>374.6</ele>
        <time>2023-05-28T07:39:47Z</time>
      </trkpt>
      <trkpt lat="45.78706" lon="5.49134">
        <ele>375.2</ele>
        <time>2023-05-28T07:39:48Z</time>
      </trkpt>
      <trkpt lat="45.78708" lon="5.49135">
        <ele>375.4</ele>
        <time>2023-05-28T07:39:49Z</time>
      </trkpt>
      <trkpt lat="45.78708" lon="5.49135">
        <ele>375.8</ele>
        <time>2023-05-28T07:39:50Z</time>
      </trkpt>
      <trkpt lat="45.78714" lon="5.49137">
        <ele>375.8</ele>
        <time>2023-05-28T07:39:51Z</time>
      </trkpt>
      <trkpt lat="45.78716" lon="5.49139">
        <ele>376</ele>
        <time>2023-05-28T07:39:52Z</time>
      </trkpt>
      <trkpt lat="45.78719" lon="5.49139">
        <ele>376.4</ele>
        <time>2023-05-28T07:39:53Z</time>
      </trkpt>
      <trkpt lat="45.78721" lon="5.4914">
        <ele>376.4</ele>
        <time>2023-05-28T07:39:54Z</time>
      </trkpt>
      <trkpt lat="45.78724" lon="5.49141">
        <ele>376.6</ele>
        <time>2023-05-28T07:39:55Z</time>
      </trkpt>
      <trkpt lat="45.78727" lon="5.49141">
        <ele>376.6</ele>
        <time>2023-05-28T07:39:56Z</time>
      </trkpt>
      <trkpt lat="45.78729" lon="5.49142">
        <ele>377</ele>
        <time>2023-05-28T07:39:57Z</time>
      </trkpt>
      <trkpt lat="45.78732" lon="5.49143">
        <ele>377.2</ele>
        <time>2023-05-28T07:39:58Z</time>
      </trkpt>
      <trkpt lat="45.78734" lon="5.49143">
        <ele>377.4</ele>
        <time>2023-05-28T07:39:59Z</time>
      </trkpt>
      <trkpt lat="45.78737" lon="5.49144">
        <ele>377.4</ele>
        <time>2023-05-28T07:40:00Z</time>
      </trkpt>
      <trkpt lat="45.7874" lon="5.49144">
        <ele>377.6</ele>
        <time>2023-05-28T07:40:01Z</time>
      </trkpt>
      <trkpt lat="45.78743" lon="5.49144">
        <ele>377.8</ele>
        <time>2023-05-28T07:40:02Z</time>
      </trkpt>
      <trkpt lat="45.78746" lon="5.49144">
        <ele>378</ele>
        <time>2023-05-28T07:40:03Z</time>
      </trkpt>
      <trkpt lat="45.78748" lon="5.49143">
        <ele>378.2</ele>
        <time>2023-05-28T07:40:04Z</time>
      </trkpt>
      <trkpt lat="45.78748" lon="5.49143">
        <ele>378.2</ele>
        <time>2023-05-28T07:40:05Z</time>
      </trkpt>
      <trkpt lat="45.78754" lon="5.49144">
        <ele>378.4</ele>
        <time>2023-05-28T07:40:06Z</time>
      </trkpt>
      <trkpt lat="45.78757" lon="5.49144">
        <ele>378.6</ele>
        <time>2023-05-28T07:40:07Z</time>
      </trkpt>
      <trkpt lat="45.7876" lon="5.49144">
        <ele>378.8</ele>
        <time>2023-05-28T07:40:08Z</time>
      </trkpt>
      <trkpt lat="45.78763" lon="5.49144">
        <ele>379</ele>
        <time>2023-05-28T07:40:09Z</time>
      </trkpt>
      <trkpt lat="45.78766" lon="5.49145">
        <ele>379.2</ele>
        <time>2023-05-28T07:40:10Z</time>
      </trkpt>
      <trkpt lat="45.78768" lon="5.49145">
        <ele>379.4</ele>
        <time>2023-05-28T07:40:11Z</time>
      </trkpt>
      <trkpt lat="45.78771" lon="5.49146">
        <ele>379.4</ele>
        <time>2023-05-28T07:40:12Z</time>
      </trkpt>
      <trkpt lat="45.78774" lon="5.49146">
        <ele>379.8</ele>
        <time>2023-05-28T07:40:13Z</time>
      </trkpt>
      <trkpt lat="45.78777" lon="5.49147">
        <ele>379.8</ele>
        <time>2023-05-28T07:40:14Z</time>
      </trkpt>
      <trkpt lat="45.7878" lon="5.49149">
        <ele>380.2</ele>
        <time>2023-05-28T07:40:15Z</time>
      </trkpt>
      <trkpt lat="45.78783" lon="5.4915">
        <ele>380.2</ele>
        <time>2023-05-28T07:40:16Z</time>
      </trkpt>
      <trkpt lat="45.78785" lon="5.49151">
        <ele>380.4</ele>
        <time>2023-05-28T07:40:17Z</time>
      </trkpt>
      <trkpt lat="45.78788" lon="5.49152">
        <ele>380.4</ele>
        <time>2023-05-28T07:40:18Z</time>
      </trkpt>
      <trkpt lat="45.78791" lon="5.49153">
        <ele>380.6</ele>
        <time>2023-05-28T07:40:19Z</time>
      </trkpt>
      <trkpt lat="45.78794" lon="5.49154">
        <ele>380.8</ele>
        <time>2023-05-28T07:40:20Z</time>
      </trkpt>
      <trkpt lat="45.78796" lon="5.49155">
        <ele>381</ele>
        <time>2023-05-28T07:40:21Z</time>
      </trkpt>
      <trkpt lat="45.78798" lon="5.49156">
        <ele>381.2</ele>
        <time>2023-05-28T07:40:22Z</time>
      </trkpt>
      <trkpt lat="45.78801" lon="5.49157">
        <ele>381.4</ele>
        <time>2023-05-28T07:40:23Z</time>
      </trkpt>
      <trkpt lat="45.78804" lon="5.49158">
        <ele>381.6</ele>
        <time>2023-05-28T07:40:24Z</time>
      </trkpt>
      <trkpt lat="45.78806" lon="5.49159">
        <ele>382</ele>
        <time>2023-05-28T07:40:25Z</time>
      </trkpt>
      <trkpt lat="45.78809" lon="5.49159">
        <ele>382.2</ele>
        <time>2023-05-28T07:40:26Z</time>
      </trkpt>
      <trkpt lat="45.78812" lon="5.49159">
        <ele>382.6</ele>
        <time>2023-05-28T07:40:27Z</time>
      </trkpt>
      <trkpt lat="45.78815" lon="5.49159">
        <ele>383</ele>
        <time>2023-05-28T07:40:28Z</time>
      </trkpt>
      <trkpt lat="45.78819" lon="5.49159">
        <ele>383.4</ele>
        <time>2023-05-28T07:40:29Z</time>
      </trkpt>
      <trkpt lat="45.78822" lon="5.49158">
        <ele>383.6</ele>
        <time>2023-05-28T07:40:30Z</time>
      </trkpt>
      <trkpt lat="45.78825" lon="5.49158">
        <ele>383.8</ele>
        <time>2023-05-28T07:40:31Z</time>
      </trkpt>
      <trkpt lat="45.78829" lon="5.49157">
        <ele>384.2</ele>
        <time>2023-05-28T07:40:32Z</time>
      </trkpt>
      <trkpt lat="45.78829" lon="5.49157">
        <ele>384.4</ele>
        <time>2023-05-28T07:40:33Z</time>
      </trkpt>
      <trkpt lat="45.78836" lon="5.49154">
        <ele>384.6</ele>
        <time>2023-05-28T07:40:34Z</time>
      </trkpt>
      <trkpt lat="45.78839" lon="5.49153">
        <ele>384.8</ele>
        <time>2023-05-28T07:40:35Z</time>
      </trkpt>
      <trkpt lat="45.78843" lon="5.49151">
        <ele>385.2</ele>
        <time>2023-05-28T07:40:36Z</time>
      </trkpt>
      <trkpt lat="45.78846" lon="5.49149">
        <ele>385.4</ele>
        <time>2023-05-28T07:40:37Z</time>
      </trkpt>
      <trkpt lat="45.7885" lon="5.49147">
        <ele>385.6</ele>
        <time>2023-05-28T07:40:38Z</time>
      </trkpt>
      <trkpt lat="45.78853" lon="5.49145">
        <ele>385.6</ele>
        <time>2023-05-28T07:40:39Z</time>
      </trkpt>
      <trkpt lat="45.78857" lon="5.49142">
        <ele>385.6</ele>
        <time>2023-05-28T07:40:40Z</time>
      </trkpt>
      <trkpt lat="45.78861" lon="5.49139">
        <ele>385.8</ele>
        <time>2023-05-28T07:40:41Z</time>
      </trkpt>
      <trkpt lat="45.78865" lon="5.49136">
        <ele>385.8</ele>
        <time>2023-05-28T07:40:42Z</time>
      </trkpt>
      <trkpt lat="45.78865" lon="5.49136">
        <ele>385.8</ele>
        <time>2023-05-28T07:40:43Z</time>
      </trkpt>
      <trkpt lat="45.78873" lon="5.49129">
        <ele>386</ele>
        <time>2023-05-28T07:40:44Z</time>
      </trkpt>
      <trkpt lat="45.78877" lon="5.49126">
        <ele>386</ele>
        <time>2023-05-28T07:40:45Z</time>
      </trkpt>
      <trkpt lat="45.78882" lon="5.49123">
        <ele>386.2</ele>
        <time>2023-05-28T07:40:46Z</time>
      </trkpt>
      <trkpt lat="45.78887" lon="5.49119">
        <ele>386.4</ele>
        <time>2023-05-28T07:40:47Z</time>
      </trkpt>
      <trkpt lat="45.78892" lon="5.49115">
        <ele>386.8</ele>
        <time>2023-05-28T07:40:48Z</time>
      </trkpt>
      <trkpt lat="45.78897" lon="5.49111">
        <ele>387</ele>
        <time>2023-05-28T07:40:49Z</time>
      </trkpt>
      <trkpt lat="45.78902" lon="5.49106">
        <ele>387.4</ele>
        <time>2023-05-28T07:40:50Z</time>
      </trkpt>
      <trkpt lat="45.78908" lon="5.49102">
        <ele>387.6</ele>
        <time>2023-05-28T07:40:51Z</time>
      </trkpt>
      <trkpt lat="45.78913" lon="5.49097">
        <ele>387.8</ele>
        <time>2023-05-28T07:40:52Z</time>
      </trkpt>
      <trkpt lat="45.78918" lon="5.49093">
        <ele>388.2</ele>
        <time>2023-05-28T07:40:53Z</time>
      </trkpt>
      <trkpt lat="45.78924" lon="5.49088">
        <ele>388.2</ele>
        <time>2023-05-28T07:40:54Z</time>
      </trkpt>
      <trkpt lat="45.78929" lon="5.49084">
        <ele>388.6</ele>
        <time>2023-05-28T07:40:55Z</time>
      </trkpt>
      <trkpt lat="45.78934" lon="5.49079">
        <ele>388.6</ele>
        <time>2023-05-28T07:40:56Z</time>
      </trkpt>
      <trkpt lat="45.7894" lon="5.49073">
        <ele>388.8</ele>
        <time>2023-05-28T07:40:57Z</time>
      </trkpt>
      <trkpt lat="45.78945" lon="5.49068">
        <ele>388.8</ele>
        <time>2023-05-28T07:40:58Z</time>
      </trkpt>
      <trkpt lat="45.78951" lon="5.49063">
        <ele>389</ele>
        <time>2023-05-28T07:40:59Z</time>
      </trkpt>
      <trkpt lat="45.78957" lon="5.49057">
        <ele>389</ele>
        <time>2023-05-28T07:41:00Z</time>
      </trkpt>
      <trkpt lat="45.78962" lon="5.49051">
        <ele>389.2</ele>
        <time>2023-05-28T07:41:01Z</time>
      </trkpt>
      <trkpt lat="45.78967" lon="5.49045">
        <ele>389.6</ele>
        <time>2023-05-28T07:41:02Z</time>
      </trkpt>
      <trkpt lat="45.78973" lon="5.49038">
        <ele>389.8</ele>
        <time>2023-05-28T07:41:03Z</time>
      </trkpt>
      <trkpt lat="45.78978" lon="5.49032">
        <ele>390.2</ele>
        <time>2023-05-28T07:41:04Z</time>
      </trkpt>
      <trkpt lat="45.78982" lon="5.49025">
        <ele>390.2</ele>
        <time>2023-05-28T07:41:05Z</time>
      </trkpt>
      <trkpt lat="45.78982" lon="5.49025">
        <ele>390.4</ele>
        <time>2023-05-28T07:41:06Z</time>
      </trkpt>
      <trkpt lat="45.78993" lon="5.49013">
        <ele>390.6</ele>
        <time>2023-05-28T07:41:07Z</time>
      </trkpt>
      <trkpt lat="45.78999" lon="5.49008">
        <ele>390.8</ele>
        <time>2023-05-28T07:41:08Z</time>
      </trkpt>
      <trkpt lat="45.79004" lon="5.49003">
        <ele>391.4</ele>
        <time>2023-05-28T07:41:09Z</time>
      </trkpt>
      <trkpt lat="45.7901" lon="5.48998">
        <ele>391.6</ele>
        <time>2023-05-28T07:41:10Z</time>
      </trkpt>
      <trkpt lat="45.79016" lon="5.48992">
        <ele>391.8</ele>
        <time>2023-05-28T07:41:11Z</time>
      </trkpt>
      <trkpt lat="45.79022" lon="5.48987">
        <ele>391.8</ele>
        <time>2023-05-28T07:41:12Z</time>
      </trkpt>
      <trkpt lat="45.79027" lon="5.48982">
        <ele>392</ele>
        <time>2023-05-28T07:41:13Z</time>
      </trkpt>
      <trkpt lat="45.79033" lon="5.48977">
        <ele>392.2</ele>
        <time>2023-05-28T07:41:14Z</time>
      </trkpt>
      <trkpt lat="45.79038" lon="5.48971">
        <ele>392.2</ele>
        <time>2023-05-28T07:41:15Z</time>
      </trkpt>
      <trkpt lat="45.79044" lon="5.48966">
        <ele>392.4</ele>
        <time>2023-05-28T07:41:16Z</time>
      </trkpt>
      <trkpt lat="45.79049" lon="5.4896">
        <ele>392.4</ele>
        <time>2023-05-28T07:41:17Z</time>
      </trkpt>
      <trkpt lat="45.79055" lon="5.48955">
        <ele>392.4</ele>
        <time>2023-05-28T07:41:18Z</time>
      </trkpt>
      <trkpt lat="45.79061" lon="5.4895">
        <ele>392.6</ele>
        <time>2023-05-28T07:41:19Z</time>
      </trkpt>
      <trkpt lat="45.79067" lon="5.48944">
        <ele>392.8</ele>
        <time>2023-05-28T07:41:20Z</time>
      </trkpt>
      <trkpt lat="45.79072" lon="5.48939">
        <ele>393</ele>
        <time>2023-05-28T07:41:21Z</time>
      </trkpt>
      <trkpt lat="45.79077" lon="5.48934">
        <ele>393.2</ele>
        <time>2023-05-28T07:41:22Z</time>
      </trkpt>
      <trkpt lat="45.79083" lon="5.48928">
        <ele>393.4</ele>
        <time>2023-05-28T07:41:23Z</time>
      </trkpt>
      <trkpt lat="45.79083" lon="5.48928">
        <ele>393.4</ele>
        <time>2023-05-28T07:41:24Z</time>
      </trkpt>
      <trkpt lat="45.79094" lon="5.48919">
        <ele>393.6</ele>
        <time>2023-05-28T07:41:25Z</time>
      </trkpt>
      <trkpt lat="45.791" lon="5.48915">
        <ele>393.6</ele>
        <time>2023-05-28T07:41:26Z</time>
      </trkpt>
      <trkpt lat="45.79106" lon="5.48911">
        <ele>393.8</ele>
        <time>2023-05-28T07:41:27Z</time>
      </trkpt>
      <trkpt lat="45.79112" lon="5.48908">
        <ele>393.8</ele>
        <time>2023-05-28T07:41:28Z</time>
      </trkpt>
      <trkpt lat="45.79119" lon="5.48905">
        <ele>393.8</ele>
        <time>2023-05-28T07:41:29Z</time>
      </trkpt>
      <trkpt lat="45.79126" lon="5.48902">
        <ele>394</ele>
        <time>2023-05-28T07:41:30Z</time>
      </trkpt>
      <trkpt lat="45.79132" lon="5.48899">
        <ele>394.2</ele>
        <time>2023-05-28T07:41:31Z</time>
      </trkpt>
      <trkpt lat="45.79139" lon="5.48895">
        <ele>394.2</ele>
        <time>2023-05-28T07:41:32Z</time>
      </trkpt>
      <trkpt lat="45.79145" lon="5.48891">
        <ele>394.2</ele>
        <time>2023-05-28T07:41:33Z</time>
      </trkpt>
      <trkpt lat="45.79151" lon="5.48887">
        <ele>394.2</ele>
        <time>2023-05-28T07:41:34Z</time>
      </trkpt>
      <trkpt lat="45.79157" lon="5.48882">
        <ele>394.4</ele>
        <time>2023-05-28T07:41:35Z</time>
      </trkpt>
      <trkpt lat="45.79163" lon="5.48878">
        <ele>394.4</ele>
        <time>2023-05-28T07:41:36Z</time>
      </trkpt>
      <trkpt lat="45.79169" lon="5.48873">
        <ele>394.4</ele>
        <time>2023-05-28T07:41:37Z</time>
      </trkpt>
      <trkpt lat="45.79175" lon="5.48868">
        <ele>394.6</ele>
        <time>2023-05-28T07:41:38Z</time>
      </trkpt>
      <trkpt lat="45.7918" lon="5.48863">
        <ele>394.6</ele>
        <time>2023-05-28T07:41:39Z</time>
      </trkpt>
      <trkpt lat="45.79186" lon="5.48859">
        <ele>394.6</ele>
        <time>2023-05-28T07:41:40Z</time>
      </trkpt>
      <trkpt lat="45.79192" lon="5.48854">
        <ele>394.8</ele>
        <time>2023-05-28T07:41:41Z</time>
      </trkpt>
      <trkpt lat="45.79198" lon="5.48849">
        <ele>394.8</ele>
        <time>2023-05-28T07:41:42Z</time>
      </trkpt>
      <trkpt lat="45.79203" lon="5.48844">
        <ele>394.8</ele>
        <time>2023-05-28T07:41:43Z</time>
      </trkpt>
      <trkpt lat="45.79209" lon="5.48839">
        <ele>394.8</ele>
        <time>2023-05-28T07:41:44Z</time>
      </trkpt>
      <trkpt lat="45.79214" lon="5.48833">
        <ele>394.8</ele>
        <time>2023-05-28T07:41:45Z</time>
      </trkpt>
      <trkpt lat="45.7922" lon="5.48827">
        <ele>394.8</ele>
        <time>2023-05-28T07:41:46Z</time>
      </trkpt>
      <trkpt lat="45.79225" lon="5.48821">
        <ele>394.8</ele>
        <time>2023-05-28T07:41:47Z</time>
      </trkpt>
      <trkpt lat="45.7923" lon="5.48815">
        <ele>394.8</ele>
        <time>2023-05-28T07:41:48Z</time>
      </trkpt>
      <trkpt lat="45.79235" lon="5.48809">
        <ele>395</ele>
        <time>2023-05-28T07:41:49Z</time>
      </trkpt>
      <trkpt lat="45.79239" lon="5.48802">
        <ele>395.2</ele>
        <time>2023-05-28T07:41:50Z</time>
      </trkpt>
      <trkpt lat="45.79244" lon="5.48796">
        <ele>395.2</ele>
        <time>2023-05-28T07:41:51Z</time>
      </trkpt>
      <trkpt lat="45.79248" lon="5.4879">
        <ele>395.6</ele>
        <time>2023-05-28T07:41:52Z</time>
      </trkpt>
      <trkpt lat="45.79252" lon="5.48785">
        <ele>395.8</ele>
        <time>2023-05-28T07:41:53Z</time>
      </trkpt>
      <trkpt lat="45.79263" lon="5.48772">
        <ele>396.4</ele>
        <time>2023-05-28T07:41:55Z</time>
      </trkpt>
      <trkpt lat="45.79268" lon="5.48767">
        <ele>396.4</ele>
        <time>2023-05-28T07:41:56Z</time>
      </trkpt>
      <trkpt lat="45.79273" lon="5.48762">
        <ele>396.6</ele>
        <time>2023-05-28T07:41:57Z</time>
      </trkpt>
      <trkpt lat="45.79278" lon="5.48757">
        <ele>396.6</ele>
        <time>2023-05-28T07:41:58Z</time>
      </trkpt>
      <trkpt lat="45.79284" lon="5.48753">
        <ele>396.4</ele>
        <time>2023-05-28T07:41:59Z</time>
      </trkpt>
      <trkpt lat="45.7929" lon="5.48749">
        <ele>396.6</ele>
        <time>2023-05-28T07:42:00Z</time>
      </trkpt>
      <trkpt lat="45.79296" lon="5.48746">
        <ele>396.6</ele>
        <time>2023-05-28T07:42:01Z</time>
      </trkpt>
      <trkpt lat="45.79302" lon="5.48744">
        <ele>396.6</ele>
        <time>2023-05-28T07:42:02Z</time>
      </trkpt>
      <trkpt lat="45.79308" lon="5.48744">
        <ele>396.6</ele>
        <time>2023-05-28T07:42:03Z</time>
      </trkpt>
      <trkpt lat="45.79314" lon="5.48743">
        <ele>396.6</ele>
        <time>2023-05-28T07:42:04Z</time>
      </trkpt>
      <trkpt lat="45.7932" lon="5.48743">
        <ele>396.6</ele>
        <time>2023-05-28T07:42:05Z</time>
      </trkpt>
      <trkpt lat="45.79326" lon="5.48744">
        <ele>396.8</ele>
        <time>2023-05-28T07:42:06Z</time>
      </trkpt>
      <trkpt lat="45.79332" lon="5.48744">
        <ele>396.6</ele>
        <time>2023-05-28T07:42:07Z</time>
      </trkpt>
      <trkpt lat="45.79337" lon="5.48743">
        <ele>396.8</ele>
        <time>2023-05-28T07:42:08Z</time>
      </trkpt>
      <trkpt lat="45.79342" lon="5.4874">
        <ele>396.8</ele>
        <time>2023-05-28T07:42:09Z</time>
      </trkpt>
      <trkpt lat="45.79344" lon="5.48736">
        <ele>397</ele>
        <time>2023-05-28T07:42:10Z</time>
      </trkpt>
      <trkpt lat="45.79346" lon="5.4873">
        <ele>397</ele>
        <time>2023-05-28T07:42:11Z</time>
      </trkpt>
      <trkpt lat="45.79346" lon="5.48723">
        <ele>397</ele>
        <time>2023-05-28T07:42:12Z</time>
      </trkpt>
      <trkpt lat="45.79344" lon="5.48716">
        <ele>397</ele>
        <time>2023-05-28T07:42:13Z</time>
      </trkpt>
      <trkpt lat="45.79342" lon="5.4871">
        <ele>397.2</ele>
        <time>2023-05-28T07:42:14Z</time>
      </trkpt>
      <trkpt lat="45.79339" lon="5.48705">
        <ele>397.2</ele>
        <time>2023-05-28T07:42:15Z</time>
      </trkpt>
      <trkpt lat="45.79336" lon="5.487">
        <ele>397.6</ele>
        <time>2023-05-28T07:42:16Z</time>
      </trkpt>
      <trkpt lat="45.79333" lon="5.48695">
        <ele>397.8</ele>
        <time>2023-05-28T07:42:17Z</time>
      </trkpt>
      <trkpt lat="45.79329" lon="5.4869">
        <ele>397.8</ele>
        <time>2023-05-28T07:42:18Z</time>
      </trkpt>
      <trkpt lat="45.79325" lon="5.48685">
        <ele>398</ele>
        <time>2023-05-28T07:42:19Z</time>
      </trkpt>
      <trkpt lat="45.79322" lon="5.4868">
        <ele>398.2</ele>
        <time>2023-05-28T07:42:20Z</time>
      </trkpt>
      <trkpt lat="45.7932" lon="5.48676">
        <ele>398.2</ele>
        <time>2023-05-28T07:42:21Z</time>
      </trkpt>
      <trkpt lat="45.79317" lon="5.48673">
        <ele>398.2</ele>
        <time>2023-05-28T07:42:22Z</time>
      </trkpt>
      <trkpt lat="45.79314" lon="5.48669">
        <ele>398.2</ele>
        <time>2023-05-28T07:42:23Z</time>
      </trkpt>
      <trkpt lat="45.79311" lon="5.48665">
        <ele>398.2</ele>
        <time>2023-05-28T07:42:24Z</time>
      </trkpt>
      <trkpt lat="45.79309" lon="5.48661">
        <ele>398.2</ele>
        <time>2023-05-28T07:42:25Z</time>
      </trkpt>
      <trkpt lat="45.79306" lon="5.48658">
        <ele>398.2</ele>
        <time>2023-05-28T07:42:26Z</time>
      </trkpt>
      <trkpt lat="45.79302" lon="5.48655">
        <ele>398.2</ele>
        <time>2023-05-28T07:42:27Z</time>
      </trkpt>
      <trkpt lat="45.79299" lon="5.48652">
        <ele>398.2</ele>
        <time>2023-05-28T07:42:28Z</time>
      </trkpt>
      <trkpt lat="45.79296" lon="5.48649">
        <ele>398.2</ele>
        <time>2023-05-28T07:42:29Z</time>
      </trkpt>
      <trkpt lat="45.79293" lon="5.48646">
        <ele>398.2</ele>
        <time>2023-05-28T07:42:30Z</time>
      </trkpt>
      <trkpt lat="45.7929" lon="5.48644">
        <ele>398.2</ele>
        <time>2023-05-28T07:42:31Z</time>
      </trkpt>
      <trkpt lat="45.79287" lon="5.48641">
        <ele>398.2</ele>
        <time>2023-05-28T07:42:32Z</time>
      </trkpt>
      <trkpt lat="45.79284" lon="5.48638">
        <ele>398.2</ele>
        <time>2023-05-28T07:42:33Z</time>
      </trkpt>
      <trkpt lat="45.7928" lon="5.48636">
        <ele>398.2</ele>
        <time>2023-05-28T07:42:34Z</time>
      </trkpt>
      <trkpt lat="45.79277" lon="5.48633">
        <ele>398.2</ele>
        <time>2023-05-28T07:42:35Z</time>
      </trkpt>
      <trkpt lat="45.79274" lon="5.48631">
        <ele>398.2</ele>
        <time>2023-05-28T07:42:36Z</time>
      </trkpt>
      <trkpt lat="45.79271" lon="5.48628">
        <ele>398.2</ele>
        <time>2023-05-28T07:42:37Z</time>
      </trkpt>
      <trkpt lat="45.79268" lon="5.48626">
        <ele>398.2</ele>
        <time>2023-05-28T07:42:38Z</time>
      </trkpt>
      <trkpt lat="45.79265" lon="5.48623">
        <ele>398.2</ele>
        <time>2023-05-28T07:42:39Z</time>
      </trkpt>
      <trkpt lat="45.79263" lon="5.4862">
        <ele>398.2</ele>
        <time>2023-05-28T07:42:40Z</time>
      </trkpt>
      <trkpt lat="45.7926" lon="5.48617">
        <ele>398.4</ele>
        <time>2023-05-28T07:42:41Z</time>
      </trkpt>
      <trkpt lat="45.79258" lon="5.48613">
        <ele>398.4</ele>
        <time>2023-05-28T07:42:42Z</time>
      </trkpt>
      <trkpt lat="45.79256" lon="5.48609">
        <ele>398.4</ele>
        <time>2023-05-28T07:42:43Z</time>
      </trkpt>
      <trkpt lat="45.79254" lon="5.48606">
        <ele>398.6</ele>
        <time>2023-05-28T07:42:44Z</time>
      </trkpt>
      <trkpt lat="45.79252" lon="5.48602">
        <ele>398.6</ele>
        <time>2023-05-28T07:42:45Z</time>
      </trkpt>
      <trkpt lat="45.7925" lon="5.48598">
        <ele>398.8</ele>
        <time>2023-05-28T07:42:46Z</time>
      </trkpt>
      <trkpt lat="45.79248" lon="5.48594">
        <ele>398.8</ele>
        <time>2023-05-28T07:42:47Z</time>
      </trkpt>
      <trkpt lat="45.79246" lon="5.48591">
        <ele>398.8</ele>
        <time>2023-05-28T07:42:48Z</time>
      </trkpt>
      <trkpt lat="45.79243" lon="5.48587">
        <ele>399</ele>
        <time>2023-05-28T07:42:49Z</time>
      </trkpt>
      <trkpt lat="45.79241" lon="5.48584">
        <ele>399.2</ele>
        <time>2023-05-28T07:42:50Z</time>
      </trkpt>
      <trkpt lat="45.79239" lon="5.4858">
        <ele>399.4</ele>
        <time>2023-05-28T07:42:51Z</time>
      </trkpt>
      <trkpt lat="45.79237" lon="5.48577">
        <ele>399.6</ele>
        <time>2023-05-28T07:42:52Z</time>
      </trkpt>
      <trkpt lat="45.79235" lon="5.48574">
        <ele>399.8</ele>
        <time>2023-05-28T07:42:53Z</time>
      </trkpt>
      <trkpt lat="45.79232" lon="5.48572">
        <ele>399.8</ele>
        <time>2023-05-28T07:42:54Z</time>
      </trkpt>
      <trkpt lat="45.79229" lon="5.4857">
        <ele>400</ele>
        <time>2023-05-28T07:42:55Z</time>
      </trkpt>
      <trkpt lat="45.79227" lon="5.48569">
        <ele>400</ele>
        <time>2023-05-28T07:42:56Z</time>
      </trkpt>
      <trkpt lat="45.79224" lon="5.48568">
        <ele>400.2</ele>
        <time>2023-05-28T07:42:57Z</time>
      </trkpt>
      <trkpt lat="45.79221" lon="5.48567">
        <ele>400.2</ele>
        <time>2023-05-28T07:42:58Z</time>
      </trkpt>
      <trkpt lat="45.79218" lon="5.48566">
        <ele>400.2</ele>
        <time>2023-05-28T07:42:59Z</time>
      </trkpt>
      <trkpt lat="45.79215" lon="5.48565">
        <ele>400.2</ele>
        <time>2023-05-28T07:43:00Z</time>
      </trkpt>
      <trkpt lat="45.79212" lon="5.48565">
        <ele>400.6</ele>
        <time>2023-05-28T07:43:01Z</time>
      </trkpt>
      <trkpt lat="45.7921" lon="5.48564">
        <ele>400.8</ele>
        <time>2023-05-28T07:43:02Z</time>
      </trkpt>
      <trkpt lat="45.79206" lon="5.48563">
        <ele>401</ele>
        <time>2023-05-28T07:43:03Z</time>
      </trkpt>
      <trkpt lat="45.79204" lon="5.48562">
        <ele>401.4</ele>
        <time>2023-05-28T07:43:04Z</time>
      </trkpt>
      <trkpt lat="45.79199" lon="5.4856">
        <ele>401.4</ele>
        <time>2023-05-28T07:43:05Z</time>
      </trkpt>
      <trkpt lat="45.79196" lon="5.4856">
        <ele>401.6</ele>
        <time>2023-05-28T07:43:06Z</time>
      </trkpt>
      <trkpt lat="45.79193" lon="5.4856">
        <ele>402</ele>
        <time>2023-05-28T07:43:07Z</time>
      </trkpt>
      <trkpt lat="45.79191" lon="5.48559">
        <ele>402.4</ele>
        <time>2023-05-28T07:43:08Z</time>
      </trkpt>
      <trkpt lat="45.79188" lon="5.48559">
        <ele>402.6</ele>
        <time>2023-05-28T07:43:09Z</time>
      </trkpt>
      <trkpt lat="45.79184" lon="5.48559">
        <ele>402.8</ele>
        <time>2023-05-28T07:43:10Z</time>
      </trkpt>
      <trkpt lat="45.7918" lon="5.48558">
        <ele>403</ele>
        <time>2023-05-28T07:43:11Z</time>
      </trkpt>
      <trkpt lat="45.79177" lon="5.48558">
        <ele>403.2</ele>
        <time>2023-05-28T07:43:12Z</time>
      </trkpt>
      <trkpt lat="45.79174" lon="5.48558">
        <ele>403.8</ele>
        <time>2023-05-28T07:43:13Z</time>
      </trkpt>
      <trkpt lat="45.79171" lon="5.48558">
        <ele>404</ele>
        <time>2023-05-28T07:43:14Z</time>
      </trkpt>
      <trkpt lat="45.79168" lon="5.48558">
        <ele>404.4</ele>
        <time>2023-05-28T07:43:15Z</time>
      </trkpt>
      <trkpt lat="45.79165" lon="5.48558">
        <ele>404.6</ele>
        <time>2023-05-28T07:43:16Z</time>
      </trkpt>
      <trkpt lat="45.79162" lon="5.48559">
        <ele>404.8</ele>
        <time>2023-05-28T07:43:17Z</time>
      </trkpt>
      <trkpt lat="45.79159" lon="5.48559">
        <ele>405.2</ele>
        <time>2023-05-28T07:43:18Z</time>
      </trkpt>
      <trkpt lat="45.79156" lon="5.4856">
        <ele>405.4</ele>
        <time>2023-05-28T07:43:19Z</time>
      </trkpt>
      <trkpt lat="45.79152" lon="5.48562">
        <ele>405.6</ele>
        <time>2023-05-28T07:43:20Z</time>
      </trkpt>
      <trkpt lat="45.79149" lon="5.48563">
        <ele>405.8</ele>
        <time>2023-05-28T07:43:21Z</time>
      </trkpt>
      <trkpt lat="45.79146" lon="5.48565">
        <ele>406.4</ele>
        <time>2023-05-28T07:43:22Z</time>
      </trkpt>
      <trkpt lat="45.79143" lon="5.48567">
        <ele>406.8</ele>
        <time>2023-05-28T07:43:23Z</time>
      </trkpt>
      <trkpt lat="45.7914" lon="5.48568">
        <ele>407</ele>
        <time>2023-05-28T07:43:24Z</time>
      </trkpt>
      <trkpt lat="45.79137" lon="5.4857">
        <ele>407.2</ele>
        <time>2023-05-28T07:43:25Z</time>
      </trkpt>
      <trkpt lat="45.79134" lon="5.48572">
        <ele>407.4</ele>
        <time>2023-05-28T07:43:26Z</time>
      </trkpt>
      <trkpt lat="45.79131" lon="5.48574">
        <ele>407.6</ele>
        <time>2023-05-28T07:43:27Z</time>
      </trkpt>
      <trkpt lat="45.79128" lon="5.48576">
        <ele>407.8</ele>
        <time>2023-05-28T07:43:28Z</time>
      </trkpt>
      <trkpt lat="45.79125" lon="5.48578">
        <ele>408</ele>
        <time>2023-05-28T07:43:29Z</time>
      </trkpt>
      <trkpt lat="45.79123" lon="5.48579">
        <ele>408.2</ele>
        <time>2023-05-28T07:43:30Z</time>
      </trkpt>
      <trkpt lat="45.79119" lon="5.48581">
        <ele>408.4</ele>
        <time>2023-05-28T07:43:31Z</time>
      </trkpt>
      <trkpt lat="45.79116" lon="5.48582">
        <ele>408.6</ele>
        <time>2023-05-28T07:43:32Z</time>
      </trkpt>
      <trkpt lat="45.79113" lon="5.48583">
        <ele>408.8</ele>
        <time>2023-05-28T07:43:33Z</time>
      </trkpt>
      <trkpt lat="45.7911" lon="5.48584">
        <ele>409</ele>
        <time>2023-05-28T07:43:34Z</time>
      </trkpt>
      <trkpt lat="45.79106" lon="5.48584">
        <ele>409</ele>
        <time>2023-05-28T07:43:35Z</time>
      </trkpt>
      <trkpt lat="45.79103" lon="5.48583">
        <ele>409.2</ele>
        <time>2023-05-28T07:43:36Z</time>
      </trkpt>
      <trkpt lat="45.79099" lon="5.48581">
        <ele>409.4</ele>
        <time>2023-05-28T07:43:37Z</time>
      </trkpt>
      <trkpt lat="45.79096" lon="5.48579">
        <ele>409.4</ele>
        <time>2023-05-28T07:43:38Z</time>
      </trkpt>
      <trkpt lat="45.79093" lon="5.48577">
        <ele>409.6</ele>
        <time>2023-05-28T07:43:39Z</time>
      </trkpt>
      <trkpt lat="45.79089" lon="5.48573">
        <ele>409.6</ele>
        <time>2023-05-28T07:43:40Z</time>
      </trkpt>
      <trkpt lat="45.79086" lon="5.4857">
        <ele>409.8</ele>
        <time>2023-05-28T07:43:41Z</time>
      </trkpt>
      <trkpt lat="45.79084" lon="5.48566">
        <ele>410</ele>
        <time>2023-05-28T07:43:42Z</time>
      </trkpt>
      <trkpt lat="45.79082" lon="5.48562">
        <ele>410.4</ele>
        <time>2023-05-28T07:43:43Z</time>
      </trkpt>
      <trkpt lat="45.79079" lon="5.48558">
        <ele>410.4</ele>
        <time>2023-05-28T07:43:44Z</time>
      </trkpt>
      <trkpt lat="45.79077" lon="5.48554">
        <ele>410.6</ele>
        <time>2023-05-28T07:43:45Z</time>
      </trkpt>
      <trkpt lat="45.79072" lon="5.48546">
        <ele>410.8</ele>
        <time>2023-05-28T07:43:47Z</time>
      </trkpt>
      <trkpt lat="45.7907" lon="5.48542">
        <ele>411.2</ele>
        <time>2023-05-28T07:43:48Z</time>
      </trkpt>
      <trkpt lat="45.79067" lon="5.48539">
        <ele>411.2</ele>
        <time>2023-05-28T07:43:49Z</time>
      </trkpt>
      <trkpt lat="45.79065" lon="5.48535">
        <ele>411.4</ele>
        <time>2023-05-28T07:43:50Z</time>
      </trkpt>
      <trkpt lat="45.79064" lon="5.48531">
        <ele>411.6</ele>
        <time>2023-05-28T07:43:51Z</time>
      </trkpt>
      <trkpt lat="45.79061" lon="5.48528">
        <ele>411.8</ele>
        <time>2023-05-28T07:43:52Z</time>
      </trkpt>
      <trkpt lat="45.79059" lon="5.48525">
        <ele>412</ele>
        <time>2023-05-28T07:43:53Z</time>
      </trkpt>
      <trkpt lat="45.79057" lon="5.48522">
        <ele>412.2</ele>
        <time>2023-05-28T07:43:54Z</time>
      </trkpt>
      <trkpt lat="45.79056" lon="5.48519">
        <ele>412.2</ele>
        <time>2023-05-28T07:43:55Z</time>
      </trkpt>
      <trkpt lat="45.79054" lon="5.48515">
        <ele>412.4</ele>
        <time>2023-05-28T07:43:56Z</time>
      </trkpt>
      <trkpt lat="45.79052" lon="5.48512">
        <ele>412.4</ele>
        <time>2023-05-28T07:43:57Z</time>
      </trkpt>
      <trkpt lat="45.79049" lon="5.48508">
        <ele>412.4</ele>
        <time>2023-05-28T07:43:58Z</time>
      </trkpt>
      <trkpt lat="45.79047" lon="5.48505">
        <ele>412.6</ele>
        <time>2023-05-28T07:43:59Z</time>
      </trkpt>
      <trkpt lat="45.79045" lon="5.48501">
        <ele>412.6</ele>
        <time>2023-05-28T07:44:00Z</time>
      </trkpt>
      <trkpt lat="45.79042" lon="5.48498">
        <ele>412.8</ele>
        <time>2023-05-28T07:44:01Z</time>
      </trkpt>
      <trkpt lat="45.7904" lon="5.48494">
        <ele>413.2</ele>
        <time>2023-05-28T07:44:02Z</time>
      </trkpt>
      <trkpt lat="45.79038" lon="5.4849">
        <ele>413.4</ele>
        <time>2023-05-28T07:44:03Z</time>
      </trkpt>
      <trkpt lat="45.79035" lon="5.48486">
        <ele>414</ele>
        <time>2023-05-28T07:44:04Z</time>
      </trkpt>
      <trkpt lat="45.79033" lon="5.48482">
        <ele>414.2</ele>
        <time>2023-05-28T07:44:05Z</time>
      </trkpt>
      <trkpt lat="45.7903" lon="5.48478">
        <ele>414.4</ele>
        <time>2023-05-28T07:44:06Z</time>
      </trkpt>
      <trkpt lat="45.79027" lon="5.48473">
        <ele>414.4</ele>
        <time>2023-05-28T07:44:07Z</time>
      </trkpt>
      <trkpt lat="45.79025" lon="5.48469">
        <ele>414.8</ele>
        <time>2023-05-28T07:44:08Z</time>
      </trkpt>
      <trkpt lat="45.79023" lon="5.48465">
        <ele>415</ele>
        <time>2023-05-28T07:44:09Z</time>
      </trkpt>
      <trkpt lat="45.7902" lon="5.48461">
        <ele>415.2</ele>
        <time>2023-05-28T07:44:10Z</time>
      </trkpt>
      <trkpt lat="45.79018" lon="5.48457">
        <ele>415.4</ele>
        <time>2023-05-28T07:44:11Z</time>
      </trkpt>
      <trkpt lat="45.79015" lon="5.48453">
        <ele>415.6</ele>
        <time>2023-05-28T07:44:12Z</time>
      </trkpt>
      <trkpt lat="45.79013" lon="5.48449">
        <ele>415.8</ele>
        <time>2023-05-28T07:44:13Z</time>
      </trkpt>
      <trkpt lat="45.7901" lon="5.48444">
        <ele>415.8</ele>
        <time>2023-05-28T07:44:14Z</time>
      </trkpt>
      <trkpt lat="45.79008" lon="5.4844">
        <ele>416</ele>
        <time>2023-05-28T07:44:15Z</time>
      </trkpt>
      <trkpt lat="45.79006" lon="5.48435">
        <ele>416.4</ele>
        <time>2023-05-28T07:44:16Z</time>
      </trkpt>
      <trkpt lat="45.79003" lon="5.48431">
        <ele>416.6</ele>
        <time>2023-05-28T07:44:17Z</time>
      </trkpt>
      <trkpt lat="45.79001" lon="5.48427">
        <ele>416.8</ele>
        <time>2023-05-28T07:44:18Z</time>
      </trkpt>
      <trkpt lat="45.78999" lon="5.48423">
        <ele>416.8</ele>
        <time>2023-05-28T07:44:19Z</time>
      </trkpt>
      <trkpt lat="45.78996" lon="5.48419">
        <ele>417</ele>
        <time>2023-05-28T07:44:20Z</time>
      </trkpt>
      <trkpt lat="45.78994" lon="5.48415">
        <ele>417.2</ele>
        <time>2023-05-28T07:44:21Z</time>
      </trkpt>
      <trkpt lat="45.78992" lon="5.48411">
        <ele>417.4</ele>
        <time>2023-05-28T07:44:22Z</time>
      </trkpt>
      <trkpt lat="45.7899" lon="5.48407">
        <ele>417.6</ele>
        <time>2023-05-28T07:44:23Z</time>
      </trkpt>
      <trkpt lat="45.78988" lon="5.48404">
        <ele>417.6</ele>
        <time>2023-05-28T07:44:24Z</time>
      </trkpt>
      <trkpt lat="45.78985" lon="5.48399">
        <ele>417.8</ele>
        <time>2023-05-28T07:44:25Z</time>
      </trkpt>
      <trkpt lat="45.78984" lon="5.48395">
        <ele>417.8</ele>
        <time>2023-05-28T07:44:26Z</time>
      </trkpt>
      <trkpt lat="45.78982" lon="5.48391">
        <ele>418</ele>
        <time>2023-05-28T07:44:27Z</time>
      </trkpt>
      <trkpt lat="45.78981" lon="5.48387">
        <ele>418.2</ele>
        <time>2023-05-28T07:44:28Z</time>
      </trkpt>
      <trkpt lat="45.7898" lon="5.48383">
        <ele>418.6</ele>
        <time>2023-05-28T07:44:29Z</time>
      </trkpt>
      <trkpt lat="45.78981" lon="5.48378">
        <ele>418.6</ele>
        <time>2023-05-28T07:44:30Z</time>
      </trkpt>
      <trkpt lat="45.78982" lon="5.48374">
        <ele>418.8</ele>
        <time>2023-05-28T07:44:31Z</time>
      </trkpt>
      <trkpt lat="45.78985" lon="5.48371">
        <ele>419.2</ele>
        <time>2023-05-28T07:44:32Z</time>
      </trkpt>
      <trkpt lat="45.78989" lon="5.48369">
        <ele>419.4</ele>
        <time>2023-05-28T07:44:33Z</time>
      </trkpt>
      <trkpt lat="45.78993" lon="5.48368">
        <ele>419.4</ele>
        <time>2023-05-28T07:44:34Z</time>
      </trkpt>
      <trkpt lat="45.78997" lon="5.48366">
        <ele>419.6</ele>
        <time>2023-05-28T07:44:35Z</time>
      </trkpt>
      <trkpt lat="45.79001" lon="5.48365">
        <ele>419.8</ele>
        <time>2023-05-28T07:44:36Z</time>
      </trkpt>
      <trkpt lat="45.79005" lon="5.48363">
        <ele>420</ele>
        <time>2023-05-28T07:44:37Z</time>
      </trkpt>
      <trkpt lat="45.79009" lon="5.48362">
        <ele>420.2</ele>
        <time>2023-05-28T07:44:38Z</time>
      </trkpt>
      <trkpt lat="45.79013" lon="5.4836">
        <ele>420.6</ele>
        <time>2023-05-28T07:44:39Z</time>
      </trkpt>
      <trkpt lat="45.79016" lon="5.48358">
        <ele>420.8</ele>
        <time>2023-05-28T07:44:40Z</time>
      </trkpt>
      <trkpt lat="45.79021" lon="5.48357">
        <ele>421</ele>
        <time>2023-05-28T07:44:41Z</time>
      </trkpt>
      <trkpt lat="45.79025" lon="5.48356">
        <ele>421.2</ele>
        <time>2023-05-28T07:44:42Z</time>
      </trkpt>
      <trkpt lat="45.7903" lon="5.48355">
        <ele>421.6</ele>
        <time>2023-05-28T07:44:43Z</time>
      </trkpt>
      <trkpt lat="45.79034" lon="5.48354">
        <ele>421.6</ele>
        <time>2023-05-28T07:44:44Z</time>
      </trkpt>
      <trkpt lat="45.79039" lon="5.48353">
        <ele>421.8</ele>
        <time>2023-05-28T07:44:45Z</time>
      </trkpt>
      <trkpt lat="45.79044" lon="5.48353">
        <ele>422</ele>
        <time>2023-05-28T07:44:46Z</time>
      </trkpt>
      <trkpt lat="45.79049" lon="5.48352">
        <ele>422.2</ele>
        <time>2023-05-28T07:44:47Z</time>
      </trkpt>
      <trkpt lat="45.79053" lon="5.48352">
        <ele>422.4</ele>
        <time>2023-05-28T07:44:48Z</time>
      </trkpt>
      <trkpt lat="45.79057" lon="5.48352">
        <ele>422.4</ele>
        <time>2023-05-28T07:44:49Z</time>
      </trkpt>
      <trkpt lat="45.79062" lon="5.48352">
        <ele>422.6</ele>
        <time>2023-05-28T07:44:50Z</time>
      </trkpt>
      <trkpt lat="45.79066" lon="5.48352">
        <ele>422.8</ele>
        <time>2023-05-28T07:44:51Z</time>
      </trkpt>
      <trkpt lat="45.7907" lon="5.48352">
        <ele>423</ele>
        <time>2023-05-28T07:44:52Z</time>
      </trkpt>
      <trkpt lat="45.79074" lon="5.48352">
        <ele>423</ele>
        <time>2023-05-28T07:44:53Z</time>
      </trkpt>
      <trkpt lat="45.79078" lon="5.48352">
        <ele>423.4</ele>
        <time>2023-05-28T07:44:54Z</time>
      </trkpt>
      <trkpt lat="45.79081" lon="5.48352">
        <ele>423.6</ele>
        <time>2023-05-28T07:44:55Z</time>
      </trkpt>
      <trkpt lat="45.79086" lon="5.48351">
        <ele>423.6</ele>
        <time>2023-05-28T07:44:56Z</time>
      </trkpt>
      <trkpt lat="45.7909" lon="5.48351">
        <ele>424</ele>
        <time>2023-05-28T07:44:57Z</time>
      </trkpt>
      <trkpt lat="45.79093" lon="5.48351">
        <ele>424</ele>
        <time>2023-05-28T07:44:58Z</time>
      </trkpt>
      <trkpt lat="45.79097" lon="5.48351">
        <ele>424.2</ele>
        <time>2023-05-28T07:44:59Z</time>
      </trkpt>
      <trkpt lat="45.791" lon="5.4835">
        <ele>424.4</ele>
        <time>2023-05-28T07:45:00Z</time>
      </trkpt>
      <trkpt lat="45.79105" lon="5.4835">
        <ele>424.4</ele>
        <time>2023-05-28T07:45:01Z</time>
      </trkpt>
      <trkpt lat="45.79109" lon="5.4835">
        <ele>424.6</ele>
        <time>2023-05-28T07:45:02Z</time>
      </trkpt>
      <trkpt lat="45.79112" lon="5.4835">
        <ele>424.8</ele>
        <time>2023-05-28T07:45:03Z</time>
      </trkpt>
      <trkpt lat="45.79116" lon="5.4835">
        <ele>425</ele>
        <time>2023-05-28T07:45:04Z</time>
      </trkpt>
      <trkpt lat="45.7912" lon="5.4835">
        <ele>425</ele>
        <time>2023-05-28T07:45:05Z</time>
      </trkpt>
      <trkpt lat="45.79124" lon="5.4835">
        <ele>425.2</ele>
        <time>2023-05-28T07:45:06Z</time>
      </trkpt>
      <trkpt lat="45.79128" lon="5.4835">
        <ele>425.4</ele>
        <time>2023-05-28T07:45:07Z</time>
      </trkpt>
      <trkpt lat="45.79132" lon="5.4835">
        <ele>425.6</ele>
        <time>2023-05-28T07:45:08Z</time>
      </trkpt>
      <trkpt lat="45.79136" lon="5.48349">
        <ele>426</ele>
        <time>2023-05-28T07:45:09Z</time>
      </trkpt>
      <trkpt lat="45.79139" lon="5.48349">
        <ele>426</ele>
        <time>2023-05-28T07:45:10Z</time>
      </trkpt>
      <trkpt lat="45.79143" lon="5.48349">
        <ele>426.2</ele>
        <time>2023-05-28T07:45:11Z</time>
      </trkpt>
      <trkpt lat="45.79147" lon="5.48349">
        <ele>426.4</ele>
        <time>2023-05-28T07:45:12Z</time>
      </trkpt>
      <trkpt lat="45.79151" lon="5.48349">
        <ele>426.6</ele>
        <time>2023-05-28T07:45:13Z</time>
      </trkpt>
      <trkpt lat="45.79155" lon="5.48349">
        <ele>426.8</ele>
        <time>2023-05-28T07:45:14Z</time>
      </trkpt>
      <trkpt lat="45.79159" lon="5.48349">
        <ele>427.2</ele>
        <time>2023-05-28T07:45:15Z</time>
      </trkpt>
      <trkpt lat="45.79163" lon="5.48349">
        <ele>427.2</ele>
        <time>2023-05-28T07:45:16Z</time>
      </trkpt>
      <trkpt lat="45.79167" lon="5.4835">
        <ele>427.6</ele>
        <time>2023-05-28T07:45:17Z</time>
      </trkpt>
      <trkpt lat="45.79171" lon="5.4835">
        <ele>427.8</ele>
        <time>2023-05-28T07:45:18Z</time>
      </trkpt>
      <trkpt lat="45.79175" lon="5.4835">
        <ele>428</ele>
        <time>2023-05-28T07:45:19Z</time>
      </trkpt>
      <trkpt lat="45.7918" lon="5.4835">
        <ele>428.4</ele>
        <time>2023-05-28T07:45:20Z</time>
      </trkpt>
      <trkpt lat="45.79184" lon="5.48351">
        <ele>428.6</ele>
        <time>2023-05-28T07:45:21Z</time>
      </trkpt>
      <trkpt lat="45.79187" lon="5.48352">
        <ele>428.8</ele>
        <time>2023-05-28T07:45:22Z</time>
      </trkpt>
      <trkpt lat="45.79191" lon="5.48352">
        <ele>428.8</ele>
        <time>2023-05-28T07:45:23Z</time>
      </trkpt>
      <trkpt lat="45.79195" lon="5.48353">
        <ele>429</ele>
        <time>2023-05-28T07:45:24Z</time>
      </trkpt>
      <trkpt lat="45.79198" lon="5.48354">
        <ele>429.4</ele>
        <time>2023-05-28T07:45:25Z</time>
      </trkpt>
      <trkpt lat="45.79202" lon="5.48355">
        <ele>429.6</ele>
        <time>2023-05-28T07:45:26Z</time>
      </trkpt>
      <trkpt lat="45.79205" lon="5.48355">
        <ele>430</ele>
        <time>2023-05-28T07:45:27Z</time>
      </trkpt>
      <trkpt lat="45.79209" lon="5.48356">
        <ele>430.2</ele>
        <time>2023-05-28T07:45:28Z</time>
      </trkpt>
      <trkpt lat="45.79212" lon="5.48357">
        <ele>430.6</ele>
        <time>2023-05-28T07:45:29Z</time>
      </trkpt>
      <trkpt lat="45.79215" lon="5.48358">
        <ele>430.6</ele>
        <time>2023-05-28T07:45:30Z</time>
      </trkpt>
      <trkpt lat="45.79219" lon="5.48358">
        <ele>430.8</ele>
        <time>2023-05-28T07:45:31Z</time>
      </trkpt>
      <trkpt lat="45.79222" lon="5.48359">
        <ele>431</ele>
        <time>2023-05-28T07:45:32Z</time>
      </trkpt>
      <trkpt lat="45.79225" lon="5.4836">
        <ele>431</ele>
        <time>2023-05-28T07:45:33Z</time>
      </trkpt>
      <trkpt lat="45.79229" lon="5.48361">
        <ele>431.4</ele>
        <time>2023-05-28T07:45:34Z</time>
      </trkpt>
      <trkpt lat="45.79236" lon="5.48362">
        <ele>431.6</ele>
        <time>2023-05-28T07:45:36Z</time>
      </trkpt>
      <trkpt lat="45.79239" lon="5.48363">
        <ele>431.8</ele>
        <time>2023-05-28T07:45:37Z</time>
      </trkpt>
      <trkpt lat="45.79242" lon="5.48364">
        <ele>431.8</ele>
        <time>2023-05-28T07:45:38Z</time>
      </trkpt>
      <trkpt lat="45.79249" lon="5.48366">
        <ele>432.4</ele>
        <time>2023-05-28T07:45:40Z</time>
      </trkpt>
      <trkpt lat="45.79252" lon="5.48367">
        <ele>432.8</ele>
        <time>2023-05-28T07:45:41Z</time>
      </trkpt>
      <trkpt lat="45.79256" lon="5.48368">
        <ele>433</ele>
        <time>2023-05-28T07:45:42Z</time>
      </trkpt>
      <trkpt lat="45.79259" lon="5.48369">
        <ele>433.8</ele>
        <time>2023-05-28T07:45:43Z</time>
      </trkpt>
      <trkpt lat="45.79262" lon="5.48371">
        <ele>434</ele>
        <time>2023-05-28T07:45:44Z</time>
      </trkpt>
      <trkpt lat="45.79265" lon="5.48372">
        <ele>434.6</ele>
        <time>2023-05-28T07:45:45Z</time>
      </trkpt>
      <trkpt lat="45.79268" lon="5.48373">
        <ele>434.6</ele>
        <time>2023-05-28T07:45:46Z</time>
      </trkpt>
      <trkpt lat="45.79271" lon="5.48374">
        <ele>435</ele>
        <time>2023-05-28T07:45:47Z</time>
      </trkpt>
      <trkpt lat="45.79274" lon="5.48375">
        <ele>435.4</ele>
        <time>2023-05-28T07:45:48Z</time>
      </trkpt>
      <trkpt lat="45.79277" lon="5.48376">
        <ele>435.4</ele>
        <time>2023-05-28T07:45:49Z</time>
      </trkpt>
      <trkpt lat="45.79281" lon="5.48377">
        <ele>435.8</ele>
        <time>2023-05-28T07:45:50Z</time>
      </trkpt>
      <trkpt lat="45.79284" lon="5.48377">
        <ele>436</ele>
        <time>2023-05-28T07:45:51Z</time>
      </trkpt>
      <trkpt lat="45.79287" lon="5.48378">
        <ele>436.2</ele>
        <time>2023-05-28T07:45:52Z</time>
      </trkpt>
      <trkpt lat="45.79291" lon="5.48379">
        <ele>436.4</ele>
        <time>2023-05-28T07:45:53Z</time>
      </trkpt>
      <trkpt lat="45.79295" lon="5.4838">
        <ele>436.6</ele>
        <time>2023-05-28T07:45:54Z</time>
      </trkpt>
      <trkpt lat="45.79298" lon="5.48381">
        <ele>436.8</ele>
        <time>2023-05-28T07:45:55Z</time>
      </trkpt>
      <trkpt lat="45.79302" lon="5.48381">
        <ele>437</ele>
        <time>2023-05-28T07:45:56Z</time>
      </trkpt>
      <trkpt lat="45.79305" lon="5.48382">
        <ele>437.2</ele>
        <time>2023-05-28T07:45:57Z</time>
      </trkpt>
      <trkpt lat="45.79309" lon="5.48382">
        <ele>437.4</ele>
        <time>2023-05-28T07:45:58Z</time>
      </trkpt>
      <trkpt lat="45.79312" lon="5.48382">
        <ele>437.8</ele>
        <time>2023-05-28T07:45:59Z</time>
      </trkpt>
      <trkpt lat="45.79316" lon="5.48383">
        <ele>438.2</ele>
        <time>2023-05-28T07:46:00Z</time>
      </trkpt>
      <trkpt lat="45.79319" lon="5.48383">
        <ele>438.6</ele>
        <time>2023-05-28T07:46:01Z</time>
      </trkpt>
      <trkpt lat="45.79322" lon="5.48383">
        <ele>439</ele>
        <time>2023-05-28T07:46:02Z</time>
      </trkpt>
      <trkpt lat="45.79326" lon="5.48384">
        <ele>439.2</ele>
        <time>2023-05-28T07:46:03Z</time>
      </trkpt>
      <trkpt lat="45.79329" lon="5.48385">
        <ele>439.4</ele>
        <time>2023-05-28T07:46:04Z</time>
      </trkpt>
      <trkpt lat="45.79332" lon="5.48385">
        <ele>439.6</ele>
        <time>2023-05-28T07:46:05Z</time>
      </trkpt>
      <trkpt lat="45.79336" lon="5.48386">
        <ele>439.8</ele>
        <time>2023-05-28T07:46:06Z</time>
      </trkpt>
      <trkpt lat="45.79339" lon="5.48386">
        <ele>439.8</ele>
        <time>2023-05-28T07:46:07Z</time>
      </trkpt>
      <trkpt lat="45.79342" lon="5.48386">
        <ele>440</ele>
        <time>2023-05-28T07:46:08Z</time>
      </trkpt>
      <trkpt lat="45.79346" lon="5.48386">
        <ele>440</ele>
        <time>2023-05-28T07:46:09Z</time>
      </trkpt>
      <trkpt lat="45.79349" lon="5.48387">
        <ele>440.4</ele>
        <time>2023-05-28T07:46:10Z</time>
      </trkpt>
      <trkpt lat="45.79352" lon="5.48387">
        <ele>441</ele>
        <time>2023-05-28T07:46:11Z</time>
      </trkpt>
      <trkpt lat="45.79356" lon="5.48388">
        <ele>441</ele>
        <time>2023-05-28T07:46:12Z</time>
      </trkpt>
      <trkpt lat="45.79359" lon="5.48388">
        <ele>441.2</ele>
        <time>2023-05-28T07:46:13Z</time>
      </trkpt>
      <trkpt lat="45.79363" lon="5.48388">
        <ele>441.4</ele>
        <time>2023-05-28T07:46:14Z</time>
      </trkpt>
      <trkpt lat="45.79366" lon="5.48389">
        <ele>441.6</ele>
        <time>2023-05-28T07:46:15Z</time>
      </trkpt>
      <trkpt lat="45.7937" lon="5.4839">
        <ele>441.8</ele>
        <time>2023-05-28T07:46:16Z</time>
      </trkpt>
      <trkpt lat="45.79373" lon="5.4839">
        <ele>442</ele>
        <time>2023-05-28T07:46:17Z</time>
      </trkpt>
      <trkpt lat="45.79376" lon="5.48391">
        <ele>442.2</ele>
        <time>2023-05-28T07:46:18Z</time>
      </trkpt>
      <trkpt lat="45.7938" lon="5.48392">
        <ele>442.4</ele>
        <time>2023-05-28T07:46:19Z</time>
      </trkpt>
      <trkpt lat="45.79383" lon="5.48393">
        <ele>442.6</ele>
        <time>2023-05-28T07:46:20Z</time>
      </trkpt>
      <trkpt lat="45.79387" lon="5.48394">
        <ele>442.8</ele>
        <time>2023-05-28T07:46:21Z</time>
      </trkpt>
      <trkpt lat="45.7939" lon="5.48395">
        <ele>443.2</ele>
        <time>2023-05-28T07:46:22Z</time>
      </trkpt>
      <trkpt lat="45.79394" lon="5.48396">
        <ele>443.2</ele>
        <time>2023-05-28T07:46:23Z</time>
      </trkpt>
      <trkpt lat="45.79397" lon="5.48396">
        <ele>443.4</ele>
        <time>2023-05-28T07:46:24Z</time>
      </trkpt>
      <trkpt lat="45.794" lon="5.48397">
        <ele>443.4</ele>
        <time>2023-05-28T07:46:25Z</time>
      </trkpt>
      <trkpt lat="45.79404" lon="5.48398">
        <ele>443.6</ele>
        <time>2023-05-28T07:46:26Z</time>
      </trkpt>
      <trkpt lat="45.79407" lon="5.484">
        <ele>443.8</ele>
        <time>2023-05-28T07:46:27Z</time>
      </trkpt>
      <trkpt lat="45.7941" lon="5.48401">
        <ele>444</ele>
        <time>2023-05-28T07:46:28Z</time>
      </trkpt>
      <trkpt lat="45.79413" lon="5.48402">
        <ele>444.4</ele>
        <time>2023-05-28T07:46:29Z</time>
      </trkpt>
      <trkpt lat="45.79416" lon="5.48403">
        <ele>444.6</ele>
        <time>2023-05-28T07:46:30Z</time>
      </trkpt>
      <trkpt lat="45.79419" lon="5.48405">
        <ele>444.8</ele>
        <time>2023-05-28T07:46:31Z</time>
      </trkpt>
      <trkpt lat="45.79423" lon="5.48406">
        <ele>444.8</ele>
        <time>2023-05-28T07:46:32Z</time>
      </trkpt>
      <trkpt lat="45.79426" lon="5.48408">
        <ele>445</ele>
        <time>2023-05-28T07:46:33Z</time>
      </trkpt>
      <trkpt lat="45.79429" lon="5.48409">
        <ele>445.2</ele>
        <time>2023-05-28T07:46:34Z</time>
      </trkpt>
      <trkpt lat="45.79432" lon="5.48411">
        <ele>445.4</ele>
        <time>2023-05-28T07:46:35Z</time>
      </trkpt>
      <trkpt lat="45.79436" lon="5.48413">
        <ele>446</ele>
        <time>2023-05-28T07:46:36Z</time>
      </trkpt>
      <trkpt lat="45.79439" lon="5.48415">
        <ele>446.2</ele>
        <time>2023-05-28T07:46:37Z</time>
      </trkpt>
      <trkpt lat="45.79442" lon="5.48416">
        <ele>446.4</ele>
        <time>2023-05-28T07:46:38Z</time>
      </trkpt>
      <trkpt lat="45.79446" lon="5.48418">
        <ele>446.6</ele>
        <time>2023-05-28T07:46:39Z</time>
      </trkpt>
      <trkpt lat="45.79449" lon="5.4842">
        <ele>446.8</ele>
        <time>2023-05-28T07:46:40Z</time>
      </trkpt>
      <trkpt lat="45.79452" lon="5.48422">
        <ele>447.2</ele>
        <time>2023-05-28T07:46:41Z</time>
      </trkpt>
      <trkpt lat="45.79455" lon="5.48424">
        <ele>447.2</ele>
        <time>2023-05-28T07:46:42Z</time>
      </trkpt>
      <trkpt lat="45.79458" lon="5.48426">
        <ele>447.4</ele>
        <time>2023-05-28T07:46:43Z</time>
      </trkpt>
      <trkpt lat="45.79461" lon="5.48428">
        <ele>447.6</ele>
        <time>2023-05-28T07:46:44Z</time>
      </trkpt>
      <trkpt lat="45.79465" lon="5.48431">
        <ele>447.8</ele>
        <time>2023-05-28T07:46:45Z</time>
      </trkpt>
      <trkpt lat="45.79467" lon="5.48433">
        <ele>448</ele>
        <time>2023-05-28T07:46:46Z</time>
      </trkpt>
      <trkpt lat="45.7947" lon="5.48435">
        <ele>448.2</ele>
        <time>2023-05-28T07:46:47Z</time>
      </trkpt>
      <trkpt lat="45.79473" lon="5.48437">
        <ele>448.4</ele>
        <time>2023-05-28T07:46:48Z</time>
      </trkpt>
      <trkpt lat="45.79476" lon="5.48438">
        <ele>448.8</ele>
        <time>2023-05-28T07:46:49Z</time>
      </trkpt>
      <trkpt lat="45.7948" lon="5.4844">
        <ele>449.2</ele>
        <time>2023-05-28T07:46:50Z</time>
      </trkpt>
      <trkpt lat="45.79482" lon="5.48442">
        <ele>449.4</ele>
        <time>2023-05-28T07:46:51Z</time>
      </trkpt>
      <trkpt lat="45.79486" lon="5.48443">
        <ele>449.8</ele>
        <time>2023-05-28T07:46:52Z</time>
      </trkpt>
      <trkpt lat="45.79489" lon="5.48446">
        <ele>450</ele>
        <time>2023-05-28T07:46:53Z</time>
      </trkpt>
      <trkpt lat="45.79492" lon="5.48448">
        <ele>450.4</ele>
        <time>2023-05-28T07:46:54Z</time>
      </trkpt>
      <trkpt lat="45.79495" lon="5.4845">
        <ele>450.6</ele>
        <time>2023-05-28T07:46:55Z</time>
      </trkpt>
      <trkpt lat="45.79498" lon="5.48452">
        <ele>450.8</ele>
        <time>2023-05-28T07:46:56Z</time>
      </trkpt>
      <trkpt lat="45.79501" lon="5.48454">
        <ele>451.6</ele>
        <time>2023-05-28T07:46:57Z</time>
      </trkpt>
      <trkpt lat="45.79504" lon="5.48456">
        <ele>452</ele>
        <time>2023-05-28T07:46:58Z</time>
      </trkpt>
      <trkpt lat="45.79507" lon="5.48459">
        <ele>452.4</ele>
        <time>2023-05-28T07:46:59Z</time>
      </trkpt>
      <trkpt lat="45.7951" lon="5.48461">
        <ele>452.6</ele>
        <time>2023-05-28T07:47:00Z</time>
      </trkpt>
      <trkpt lat="45.79513" lon="5.48463">
        <ele>452.8</ele>
        <time>2023-05-28T07:47:01Z</time>
      </trkpt>
      <trkpt lat="45.79516" lon="5.48466">
        <ele>453</ele>
        <time>2023-05-28T07:47:02Z</time>
      </trkpt>
      <trkpt lat="45.7952" lon="5.48468">
        <ele>453.2</ele>
        <time>2023-05-28T07:47:03Z</time>
      </trkpt>
      <trkpt lat="45.79523" lon="5.48471">
        <ele>453.4</ele>
        <time>2023-05-28T07:47:04Z</time>
      </trkpt>
      <trkpt lat="45.79526" lon="5.48474">
        <ele>453.6</ele>
        <time>2023-05-28T07:47:05Z</time>
      </trkpt>
      <trkpt lat="45.79528" lon="5.48478">
        <ele>454</ele>
        <time>2023-05-28T07:47:06Z</time>
      </trkpt>
      <trkpt lat="45.79531" lon="5.48482">
        <ele>454.2</ele>
        <time>2023-05-28T07:47:07Z</time>
      </trkpt>
      <trkpt lat="45.79534" lon="5.48485">
        <ele>454.6</ele>
        <time>2023-05-28T07:47:08Z</time>
      </trkpt>
      <trkpt lat="45.79536" lon="5.48489">
        <ele>454.6</ele>
        <time>2023-05-28T07:47:09Z</time>
      </trkpt>
      <trkpt lat="45.79538" lon="5.48492">
        <ele>454.8</ele>
        <time>2023-05-28T07:47:10Z</time>
      </trkpt>
      <trkpt lat="45.7954" lon="5.48496">
        <ele>454.8</ele>
        <time>2023-05-28T07:47:11Z</time>
      </trkpt>
      <trkpt lat="45.79543" lon="5.485">
        <ele>454.8</ele>
        <time>2023-05-28T07:47:12Z</time>
      </trkpt>
      <trkpt lat="45.79545" lon="5.48504">
        <ele>455</ele>
        <time>2023-05-28T07:47:13Z</time>
      </trkpt>
      <trkpt lat="45.79547" lon="5.48509">
        <ele>455.2</ele>
        <time>2023-05-28T07:47:14Z</time>
      </trkpt>
      <trkpt lat="45.79549" lon="5.48513">
        <ele>455.4</ele>
        <time>2023-05-28T07:47:15Z</time>
      </trkpt>
      <trkpt lat="45.79551" lon="5.48517">
        <ele>455.6</ele>
        <time>2023-05-28T07:47:16Z</time>
      </trkpt>
      <trkpt lat="45.79553" lon="5.48521">
        <ele>455.6</ele>
        <time>2023-05-28T07:47:17Z</time>
      </trkpt>
      <trkpt lat="45.79555" lon="5.48525">
        <ele>455.8</ele>
        <time>2023-05-28T07:47:18Z</time>
      </trkpt>
      <trkpt lat="45.79557" lon="5.48528">
        <ele>456.2</ele>
        <time>2023-05-28T07:47:19Z</time>
      </trkpt>
      <trkpt lat="45.79559" lon="5.48532">
        <ele>456.4</ele>
        <time>2023-05-28T07:47:20Z</time>
      </trkpt>
      <trkpt lat="45.79561" lon="5.48536">
        <ele>456.6</ele>
        <time>2023-05-28T07:47:21Z</time>
      </trkpt>
      <trkpt lat="45.79563" lon="5.4854">
        <ele>456.8</ele>
        <time>2023-05-28T07:47:22Z</time>
      </trkpt>
      <trkpt lat="45.79566" lon="5.48543">
        <ele>457</ele>
        <time>2023-05-28T07:47:23Z</time>
      </trkpt>
      <trkpt lat="45.79568" lon="5.48546">
        <ele>457.2</ele>
        <time>2023-05-28T07:47:24Z</time>
      </trkpt>
      <trkpt lat="45.79571" lon="5.48549">
        <ele>457.2</ele>
        <time>2023-05-28T07:47:25Z</time>
      </trkpt>
      <trkpt lat="45.79574" lon="5.48551">
        <ele>457.6</ele>
        <time>2023-05-28T07:47:26Z</time>
      </trkpt>
      <trkpt lat="45.79577" lon="5.48553">
        <ele>457.8</ele>
        <time>2023-05-28T07:47:27Z</time>
      </trkpt>
      <trkpt lat="45.7958" lon="5.48555">
        <ele>458.2</ele>
        <time>2023-05-28T07:47:28Z</time>
      </trkpt>
      <trkpt lat="45.79583" lon="5.48556">
        <ele>458.6</ele>
        <time>2023-05-28T07:47:29Z</time>
      </trkpt>
      <trkpt lat="45.79587" lon="5.48557">
        <ele>458.8</ele>
        <time>2023-05-28T07:47:30Z</time>
      </trkpt>
      <trkpt lat="45.7959" lon="5.48559">
        <ele>459.2</ele>
        <time>2023-05-28T07:47:31Z</time>
      </trkpt>
      <trkpt lat="45.79593" lon="5.4856">
        <ele>459.4</ele>
        <time>2023-05-28T07:47:32Z</time>
      </trkpt>
      <trkpt lat="45.79597" lon="5.48562">
        <ele>459.8</ele>
        <time>2023-05-28T07:47:33Z</time>
      </trkpt>
      <trkpt lat="45.796" lon="5.48563">
        <ele>460.2</ele>
        <time>2023-05-28T07:47:34Z</time>
      </trkpt>
      <trkpt lat="45.79603" lon="5.48565">
        <ele>460.6</ele>
        <time>2023-05-28T07:47:35Z</time>
      </trkpt>
      <trkpt lat="45.79606" lon="5.48566">
        <ele>460.8</ele>
        <time>2023-05-28T07:47:36Z</time>
      </trkpt>
      <trkpt lat="45.79609" lon="5.48568">
        <ele>461</ele>
        <time>2023-05-28T07:47:37Z</time>
      </trkpt>
      <trkpt lat="45.79611" lon="5.4857">
        <ele>461.4</ele>
        <time>2023-05-28T07:47:38Z</time>
      </trkpt>
      <trkpt lat="45.79614" lon="5.48572">
        <ele>461.6</ele>
        <time>2023-05-28T07:47:39Z</time>
      </trkpt>
      <trkpt lat="45.79616" lon="5.48573">
        <ele>462</ele>
        <time>2023-05-28T07:47:40Z</time>
      </trkpt>
      <trkpt lat="45.79619" lon="5.48575">
        <ele>462.2</ele>
        <time>2023-05-28T07:47:41Z</time>
      </trkpt>
      <trkpt lat="45.79621" lon="5.48576">
        <ele>462.6</ele>
        <time>2023-05-28T07:47:42Z</time>
      </trkpt>
      <trkpt lat="45.79625" lon="5.48577">
        <ele>462.8</ele>
        <time>2023-05-28T07:47:43Z</time>
      </trkpt>
      <trkpt lat="45.79628" lon="5.48579">
        <ele>463.2</ele>
        <time>2023-05-28T07:47:44Z</time>
      </trkpt>
      <trkpt lat="45.79631" lon="5.48581">
        <ele>463.8</ele>
        <time>2023-05-28T07:47:45Z</time>
      </trkpt>
      <trkpt lat="45.79633" lon="5.48583">
        <ele>464</ele>
        <time>2023-05-28T07:47:46Z</time>
      </trkpt>
      <trkpt lat="45.79636" lon="5.48584">
        <ele>464.4</ele>
        <time>2023-05-28T07:47:47Z</time>
      </trkpt>
      <trkpt lat="45.79639" lon="5.48587">
        <ele>464.6</ele>
        <time>2023-05-28T07:47:48Z</time>
      </trkpt>
      <trkpt lat="45.79642" lon="5.48589">
        <ele>465.4</ele>
        <time>2023-05-28T07:47:49Z</time>
      </trkpt>
      <trkpt lat="45.79644" lon="5.4859">
        <ele>465.8</ele>
        <time>2023-05-28T07:47:50Z</time>
      </trkpt>
      <trkpt lat="45.79648" lon="5.48592">
        <ele>466.2</ele>
        <time>2023-05-28T07:47:51Z</time>
      </trkpt>
      <trkpt lat="45.7965" lon="5.48593">
        <ele>466.6</ele>
        <time>2023-05-28T07:47:52Z</time>
      </trkpt>
      <trkpt lat="45.79653" lon="5.48595">
        <ele>466.6</ele>
        <time>2023-05-28T07:47:53Z</time>
      </trkpt>
      <trkpt lat="45.79656" lon="5.48597">
        <ele>466.8</ele>
        <time>2023-05-28T07:47:54Z</time>
      </trkpt>
      <trkpt lat="45.79659" lon="5.48599">
        <ele>467</ele>
        <time>2023-05-28T07:47:55Z</time>
      </trkpt>
      <trkpt lat="45.79662" lon="5.48601">
        <ele>467.6</ele>
        <time>2023-05-28T07:47:56Z</time>
      </trkpt>
      <trkpt lat="45.79665" lon="5.48603">
        <ele>468</ele>
        <time>2023-05-28T07:47:57Z</time>
      </trkpt>
      <trkpt lat="45.79667" lon="5.48605">
        <ele>468.6</ele>
        <time>2023-05-28T07:47:58Z</time>
      </trkpt>
      <trkpt lat="45.7967" lon="5.48607">
        <ele>468.8</ele>
        <time>2023-05-28T07:47:59Z</time>
      </trkpt>
      <trkpt lat="45.79672" lon="5.4861">
        <ele>469</ele>
        <time>2023-05-28T07:48:00Z</time>
      </trkpt>
      <trkpt lat="45.79675" lon="5.48612">
        <ele>469.2</ele>
        <time>2023-05-28T07:48:01Z</time>
      </trkpt>
      <trkpt lat="45.79678" lon="5.48615">
        <ele>469.4</ele>
        <time>2023-05-28T07:48:02Z</time>
      </trkpt>
      <trkpt lat="45.79681" lon="5.48617">
        <ele>469.4</ele>
        <time>2023-05-28T07:48:03Z</time>
      </trkpt>
      <trkpt lat="45.79683" lon="5.4862">
        <ele>469.4</ele>
        <time>2023-05-28T07:48:04Z</time>
      </trkpt>
      <trkpt lat="45.79686" lon="5.48623">
        <ele>469.8</ele>
        <time>2023-05-28T07:48:05Z</time>
      </trkpt>
      <trkpt lat="45.79689" lon="5.48626">
        <ele>469.8</ele>
        <time>2023-05-28T07:48:06Z</time>
      </trkpt>
      <trkpt lat="45.79692" lon="5.4863">
        <ele>470</ele>
        <time>2023-05-28T07:48:07Z</time>
      </trkpt>
      <trkpt lat="45.79695" lon="5.48632">
        <ele>470.2</ele>
        <time>2023-05-28T07:48:08Z</time>
      </trkpt>
      <trkpt lat="45.79697" lon="5.48635">
        <ele>470.2</ele>
        <time>2023-05-28T07:48:09Z</time>
      </trkpt>
      <trkpt lat="45.797" lon="5.48639">
        <ele>470.8</ele>
        <time>2023-05-28T07:48:10Z</time>
      </trkpt>
      <trkpt lat="45.79703" lon="5.48642">
        <ele>471</ele>
        <time>2023-05-28T07:48:11Z</time>
      </trkpt>
      <trkpt lat="45.79706" lon="5.48644">
        <ele>471.2</ele>
        <time>2023-05-28T07:48:12Z</time>
      </trkpt>
      <trkpt lat="45.79709" lon="5.48647">
        <ele>471.4</ele>
        <time>2023-05-28T07:48:13Z</time>
      </trkpt>
      <trkpt lat="45.79712" lon="5.48649">
        <ele>471.4</ele>
        <time>2023-05-28T07:48:14Z</time>
      </trkpt>
      <trkpt lat="45.79715" lon="5.48651">
        <ele>471.6</ele>
        <time>2023-05-28T07:48:15Z</time>
      </trkpt>
      <trkpt lat="45.79718" lon="5.48652">
        <ele>471.6</ele>
        <time>2023-05-28T07:48:16Z</time>
      </trkpt>
      <trkpt lat="45.79722" lon="5.48653">
        <ele>472.2</ele>
        <time>2023-05-28T07:48:17Z</time>
      </trkpt>
      <trkpt lat="45.79725" lon="5.48653">
        <ele>472.4</ele>
        <time>2023-05-28T07:48:18Z</time>
      </trkpt>
      <trkpt lat="45.79729" lon="5.48653">
        <ele>472.6</ele>
        <time>2023-05-28T07:48:19Z</time>
      </trkpt>
      <trkpt lat="45.79732" lon="5.48653">
        <ele>472.8</ele>
        <time>2023-05-28T07:48:20Z</time>
      </trkpt>
      <trkpt lat="45.79735" lon="5.48653">
        <ele>473.2</ele>
        <time>2023-05-28T07:48:21Z</time>
      </trkpt>
      <trkpt lat="45.79738" lon="5.48653">
        <ele>473.6</ele>
        <time>2023-05-28T07:48:22Z</time>
      </trkpt>
      <trkpt lat="45.79742" lon="5.48652">
        <ele>473.8</ele>
        <time>2023-05-28T07:48:23Z</time>
      </trkpt>
      <trkpt lat="45.79745" lon="5.48651">
        <ele>474.2</ele>
        <time>2023-05-28T07:48:24Z</time>
      </trkpt>
      <trkpt lat="45.79748" lon="5.48651">
        <ele>474.2</ele>
        <time>2023-05-28T07:48:25Z</time>
      </trkpt>
      <trkpt lat="45.79752" lon="5.4865">
        <ele>474.8</ele>
        <time>2023-05-28T07:48:26Z</time>
      </trkpt>
      <trkpt lat="45.79755" lon="5.4865">
        <ele>474.8</ele>
        <time>2023-05-28T07:48:27Z</time>
      </trkpt>
      <trkpt lat="45.79758" lon="5.48648">
        <ele>475.2</ele>
        <time>2023-05-28T07:48:28Z</time>
      </trkpt>
      <trkpt lat="45.79762" lon="5.48647">
        <ele>475.4</ele>
        <time>2023-05-28T07:48:29Z</time>
      </trkpt>
      <trkpt lat="45.79765" lon="5.48646">
        <ele>475.4</ele>
        <time>2023-05-28T07:48:30Z</time>
      </trkpt>
      <trkpt lat="45.79768" lon="5.48644">
        <ele>475.6</ele>
        <time>2023-05-28T07:48:31Z</time>
      </trkpt>
      <trkpt lat="45.79771" lon="5.48642">
        <ele>475.6</ele>
        <time>2023-05-28T07:48:32Z</time>
      </trkpt>
      <trkpt lat="45.79774" lon="5.4864">
        <ele>476</ele>
        <time>2023-05-28T07:48:33Z</time>
      </trkpt>
      <trkpt lat="45.79778" lon="5.48638">
        <ele>476</ele>
        <time>2023-05-28T07:48:34Z</time>
      </trkpt>
      <trkpt lat="45.79781" lon="5.48635">
        <ele>476.2</ele>
        <time>2023-05-28T07:48:35Z</time>
      </trkpt>
      <trkpt lat="45.79784" lon="5.48633">
        <ele>476.4</ele>
        <time>2023-05-28T07:48:36Z</time>
      </trkpt>
      <trkpt lat="45.79787" lon="5.48631">
        <ele>476.4</ele>
        <time>2023-05-28T07:48:37Z</time>
      </trkpt>
      <trkpt lat="45.7979" lon="5.48629">
        <ele>476.6</ele>
        <time>2023-05-28T07:48:38Z</time>
      </trkpt>
      <trkpt lat="45.79794" lon="5.48627">
        <ele>476.8</ele>
        <time>2023-05-28T07:48:39Z</time>
      </trkpt>
      <trkpt lat="45.79796" lon="5.48625">
        <ele>477</ele>
        <time>2023-05-28T07:48:40Z</time>
      </trkpt>
      <trkpt lat="45.798" lon="5.48622">
        <ele>477.2</ele>
        <time>2023-05-28T07:48:41Z</time>
      </trkpt>
      <trkpt lat="45.79803" lon="5.48619">
        <ele>477.4</ele>
        <time>2023-05-28T07:48:42Z</time>
      </trkpt>
      <trkpt lat="45.79806" lon="5.48617">
        <ele>477.4</ele>
        <time>2023-05-28T07:48:43Z</time>
      </trkpt>
      <trkpt lat="45.79809" lon="5.48614">
        <ele>477.6</ele>
        <time>2023-05-28T07:48:44Z</time>
      </trkpt>
      <trkpt lat="45.79812" lon="5.48612">
        <ele>478</ele>
        <time>2023-05-28T07:48:45Z</time>
      </trkpt>
      <trkpt lat="45.79815" lon="5.4861">
        <ele>478.2</ele>
        <time>2023-05-28T07:48:46Z</time>
      </trkpt>
      <trkpt lat="45.79818" lon="5.48607">
        <ele>478.4</ele>
        <time>2023-05-28T07:48:47Z</time>
      </trkpt>
      <trkpt lat="45.79821" lon="5.48604">
        <ele>478.6</ele>
        <time>2023-05-28T07:48:48Z</time>
      </trkpt>
      <trkpt lat="45.79824" lon="5.48602">
        <ele>478.8</ele>
        <time>2023-05-28T07:48:49Z</time>
      </trkpt>
      <trkpt lat="45.79827" lon="5.48599">
        <ele>478.8</ele>
        <time>2023-05-28T07:48:50Z</time>
      </trkpt>
      <trkpt lat="45.7983" lon="5.48596">
        <ele>479.2</ele>
        <time>2023-05-28T07:48:51Z</time>
      </trkpt>
      <trkpt lat="45.79833" lon="5.48593">
        <ele>479.6</ele>
        <time>2023-05-28T07:48:52Z</time>
      </trkpt>
      <trkpt lat="45.79836" lon="5.4859">
        <ele>479.8</ele>
        <time>2023-05-28T07:48:53Z</time>
      </trkpt>
      <trkpt lat="45.79838" lon="5.48587">
        <ele>480.2</ele>
        <time>2023-05-28T07:48:54Z</time>
      </trkpt>
      <trkpt lat="45.79841" lon="5.48583">
        <ele>480.4</ele>
        <time>2023-05-28T07:48:55Z</time>
      </trkpt>
      <trkpt lat="45.79844" lon="5.4858">
        <ele>480.8</ele>
        <time>2023-05-28T07:48:56Z</time>
      </trkpt>
      <trkpt lat="45.79847" lon="5.48576">
        <ele>480.8</ele>
        <time>2023-05-28T07:48:57Z</time>
      </trkpt>
      <trkpt lat="45.7985" lon="5.48573">
        <ele>481.2</ele>
        <time>2023-05-28T07:48:58Z</time>
      </trkpt>
      <trkpt lat="45.79853" lon="5.4857">
        <ele>481.4</ele>
        <time>2023-05-28T07:48:59Z</time>
      </trkpt>
      <trkpt lat="45.79855" lon="5.48567">
        <ele>481.4</ele>
        <time>2023-05-28T07:49:00Z</time>
      </trkpt>
      <trkpt lat="45.79858" lon="5.48563">
        <ele>481.6</ele>
        <time>2023-05-28T07:49:01Z</time>
      </trkpt>
      <trkpt lat="45.79861" lon="5.4856">
        <ele>481.6</ele>
        <time>2023-05-28T07:49:02Z</time>
      </trkpt>
      <trkpt lat="45.79864" lon="5.48557">
        <ele>482</ele>
        <time>2023-05-28T07:49:03Z</time>
      </trkpt>
      <trkpt lat="45.79866" lon="5.48554">
        <ele>482</ele>
        <time>2023-05-28T07:49:04Z</time>
      </trkpt>
      <trkpt lat="45.79869" lon="5.48551">
        <ele>482.2</ele>
        <time>2023-05-28T07:49:05Z</time>
      </trkpt>
      <trkpt lat="45.79871" lon="5.48548">
        <ele>482.6</ele>
        <time>2023-05-28T07:49:06Z</time>
      </trkpt>
      <trkpt lat="45.79874" lon="5.48544">
        <ele>482.8</ele>
        <time>2023-05-28T07:49:07Z</time>
      </trkpt>
      <trkpt lat="45.79876" lon="5.48541">
        <ele>483</ele>
        <time>2023-05-28T07:49:08Z</time>
      </trkpt>
      <trkpt lat="45.79879" lon="5.48538">
        <ele>483.2</ele>
        <time>2023-05-28T07:49:09Z</time>
      </trkpt>
      <trkpt lat="45.79881" lon="5.48535">
        <ele>483.6</ele>
        <time>2023-05-28T07:49:10Z</time>
      </trkpt>
      <trkpt lat="45.79883" lon="5.48531">
        <ele>483.8</ele>
        <time>2023-05-28T07:49:11Z</time>
      </trkpt>
      <trkpt lat="45.79885" lon="5.48528">
        <ele>484</ele>
        <time>2023-05-28T07:49:12Z</time>
      </trkpt>
      <trkpt lat="45.79888" lon="5.48525">
        <ele>484.2</ele>
        <time>2023-05-28T07:49:13Z</time>
      </trkpt>
      <trkpt lat="45.7989" lon="5.48522">
        <ele>484.6</ele>
        <time>2023-05-28T07:49:14Z</time>
      </trkpt>
      <trkpt lat="45.79893" lon="5.48519">
        <ele>485</ele>
        <time>2023-05-28T07:49:15Z</time>
      </trkpt>
      <trkpt lat="45.79896" lon="5.48517">
        <ele>485</ele>
        <time>2023-05-28T07:49:16Z</time>
      </trkpt>
      <trkpt lat="45.79899" lon="5.48514">
        <ele>485.4</ele>
        <time>2023-05-28T07:49:17Z</time>
      </trkpt>
      <trkpt lat="45.79902" lon="5.48511">
        <ele>485.8</ele>
        <time>2023-05-28T07:49:18Z</time>
      </trkpt>
      <trkpt lat="45.79905" lon="5.48509">
        <ele>486</ele>
        <time>2023-05-28T07:49:19Z</time>
      </trkpt>
      <trkpt lat="45.79907" lon="5.48507">
        <ele>486</ele>
        <time>2023-05-28T07:49:20Z</time>
      </trkpt>
      <trkpt lat="45.7991" lon="5.48504">
        <ele>486.2</ele>
        <time>2023-05-28T07:49:21Z</time>
      </trkpt>
      <trkpt lat="45.79913" lon="5.48502">
        <ele>486.6</ele>
        <time>2023-05-28T07:49:22Z</time>
      </trkpt>
      <trkpt lat="45.79916" lon="5.485">
        <ele>486.6</ele>
        <time>2023-05-28T07:49:23Z</time>
      </trkpt>
      <trkpt lat="45.79919" lon="5.48498">
        <ele>486.8</ele>
        <time>2023-05-28T07:49:24Z</time>
      </trkpt>
      <trkpt lat="45.79922" lon="5.48496">
        <ele>486.8</ele>
        <time>2023-05-28T07:49:25Z</time>
      </trkpt>
      <trkpt lat="45.79926" lon="5.48495">
        <ele>487</ele>
        <time>2023-05-28T07:49:26Z</time>
      </trkpt>
      <trkpt lat="45.79929" lon="5.48493">
        <ele>487</ele>
        <time>2023-05-28T07:49:27Z</time>
      </trkpt>
      <trkpt lat="45.79932" lon="5.48492">
        <ele>487.2</ele>
        <time>2023-05-28T07:49:28Z</time>
      </trkpt>
      <trkpt lat="45.79935" lon="5.48491">
        <ele>487.4</ele>
        <time>2023-05-28T07:49:29Z</time>
      </trkpt>
      <trkpt lat="45.79938" lon="5.4849">
        <ele>487.4</ele>
        <time>2023-05-28T07:49:30Z</time>
      </trkpt>
      <trkpt lat="45.79941" lon="5.48489">
        <ele>487.4</ele>
        <time>2023-05-28T07:49:31Z</time>
      </trkpt>
      <trkpt lat="45.79944" lon="5.48488">
        <ele>487.4</ele>
        <time>2023-05-28T07:49:32Z</time>
      </trkpt>
      <trkpt lat="45.79948" lon="5.48486">
        <ele>487.4</ele>
        <time>2023-05-28T07:49:33Z</time>
      </trkpt>
      <trkpt lat="45.7995" lon="5.48486">
        <ele>487.4</ele>
        <time>2023-05-28T07:49:34Z</time>
      </trkpt>
      <trkpt lat="45.79954" lon="5.48485">
        <ele>487.6</ele>
        <time>2023-05-28T07:49:35Z</time>
      </trkpt>
      <trkpt lat="45.79957" lon="5.48484">
        <ele>487.6</ele>
        <time>2023-05-28T07:49:36Z</time>
      </trkpt>
      <trkpt lat="45.79961" lon="5.48483">
        <ele>487.6</ele>
        <time>2023-05-28T07:49:37Z</time>
      </trkpt>
      <trkpt lat="45.79964" lon="5.48481">
        <ele>487.6</ele>
        <time>2023-05-28T07:49:38Z</time>
      </trkpt>
      <trkpt lat="45.79967" lon="5.4848">
        <ele>487.6</ele>
        <time>2023-05-28T07:49:39Z</time>
      </trkpt>
      <trkpt lat="45.7997" lon="5.48479">
        <ele>487.8</ele>
        <time>2023-05-28T07:49:40Z</time>
      </trkpt>
      <trkpt lat="45.79974" lon="5.48478">
        <ele>487.8</ele>
        <time>2023-05-28T07:49:41Z</time>
      </trkpt>
      <trkpt lat="45.79977" lon="5.48476">
        <ele>487.8</ele>
        <time>2023-05-28T07:49:42Z</time>
      </trkpt>
      <trkpt lat="45.7998" lon="5.48475">
        <ele>487.8</ele>
        <time>2023-05-28T07:49:43Z</time>
      </trkpt>
      <trkpt lat="45.79983" lon="5.48474">
        <ele>488</ele>
        <time>2023-05-28T07:49:44Z</time>
      </trkpt>
      <trkpt lat="45.79986" lon="5.48473">
        <ele>488</ele>
        <time>2023-05-28T07:49:45Z</time>
      </trkpt>
      <trkpt lat="45.7999" lon="5.48473">
        <ele>488.2</ele>
        <time>2023-05-28T07:49:46Z</time>
      </trkpt>
      <trkpt lat="45.79993" lon="5.48472">
        <ele>488.4</ele>
        <time>2023-05-28T07:49:47Z</time>
      </trkpt>
      <trkpt lat="45.79996" lon="5.48471">
        <ele>488.6</ele>
        <time>2023-05-28T07:49:48Z</time>
      </trkpt>
      <trkpt lat="45.79999" lon="5.4847">
        <ele>488.8</ele>
        <time>2023-05-28T07:49:49Z</time>
      </trkpt>
      <trkpt lat="45.80002" lon="5.4847">
        <ele>489</ele>
        <time>2023-05-28T07:49:50Z</time>
      </trkpt>
      <trkpt lat="45.80005" lon="5.48469">
        <ele>489.2</ele>
        <time>2023-05-28T07:49:51Z</time>
      </trkpt>
      <trkpt lat="45.80008" lon="5.48468">
        <ele>489.4</ele>
        <time>2023-05-28T07:49:52Z</time>
      </trkpt>
      <trkpt lat="45.80011" lon="5.48467">
        <ele>489.4</ele>
        <time>2023-05-28T07:49:53Z</time>
      </trkpt>
      <trkpt lat="45.80015" lon="5.48467">
        <ele>489.6</ele>
        <time>2023-05-28T07:49:54Z</time>
      </trkpt>
      <trkpt lat="45.80018" lon="5.48466">
        <ele>489.6</ele>
        <time>2023-05-28T07:49:55Z</time>
      </trkpt>
      <trkpt lat="45.80022" lon="5.48466">
        <ele>489.6</ele>
        <time>2023-05-28T07:49:56Z</time>
      </trkpt>
      <trkpt lat="45.80025" lon="5.48466">
        <ele>489.6</ele>
        <time>2023-05-28T07:49:57Z</time>
      </trkpt>
      <trkpt lat="45.80029" lon="5.48465">
        <ele>489.8</ele>
        <time>2023-05-28T07:49:58Z</time>
      </trkpt>
      <trkpt lat="45.80032" lon="5.48465">
        <ele>489.8</ele>
        <time>2023-05-28T07:49:59Z</time>
      </trkpt>
      <trkpt lat="45.80036" lon="5.48465">
        <ele>489.8</ele>
        <time>2023-05-28T07:50:00Z</time>
      </trkpt>
      <trkpt lat="45.80039" lon="5.48465">
        <ele>489.8</ele>
        <time>2023-05-28T07:50:01Z</time>
      </trkpt>
      <trkpt lat="45.80043" lon="5.48465">
        <ele>490</ele>
        <time>2023-05-28T07:50:02Z</time>
      </trkpt>
      <trkpt lat="45.80046" lon="5.48465">
        <ele>490.2</ele>
        <time>2023-05-28T07:50:03Z</time>
      </trkpt>
      <trkpt lat="45.80049" lon="5.48465">
        <ele>490.2</ele>
        <time>2023-05-28T07:50:04Z</time>
      </trkpt>
      <trkpt lat="45.80052" lon="5.48464">
        <ele>490.4</ele>
        <time>2023-05-28T07:50:05Z</time>
      </trkpt>
      <trkpt lat="45.80055" lon="5.48465">
        <ele>490.2</ele>
        <time>2023-05-28T07:50:06Z</time>
      </trkpt>
      <trkpt lat="45.80059" lon="5.48465">
        <ele>490.4</ele>
        <time>2023-05-28T07:50:07Z</time>
      </trkpt>
      <trkpt lat="45.80062" lon="5.48465">
        <ele>490.6</ele>
        <time>2023-05-28T07:50:08Z</time>
      </trkpt>
      <trkpt lat="45.80066" lon="5.48465">
        <ele>490.8</ele>
        <time>2023-05-28T07:50:09Z</time>
      </trkpt>
      <trkpt lat="45.80069" lon="5.48464">
        <ele>491</ele>
        <time>2023-05-28T07:50:10Z</time>
      </trkpt>
      <trkpt lat="45.80072" lon="5.48464">
        <ele>491</ele>
        <time>2023-05-28T07:50:11Z</time>
      </trkpt>
      <trkpt lat="45.80075" lon="5.48464">
        <ele>491.4</ele>
        <time>2023-05-28T07:50:12Z</time>
      </trkpt>
      <trkpt lat="45.80078" lon="5.48464">
        <ele>491.4</ele>
        <time>2023-05-28T07:50:13Z</time>
      </trkpt>
      <trkpt lat="45.80082" lon="5.48464">
        <ele>491.8</ele>
        <time>2023-05-28T07:50:14Z</time>
      </trkpt>
      <trkpt lat="45.80084" lon="5.48465">
        <ele>492</ele>
        <time>2023-05-28T07:50:15Z</time>
      </trkpt>
      <trkpt lat="45.80087" lon="5.48465">
        <ele>492.4</ele>
        <time>2023-05-28T07:50:16Z</time>
      </trkpt>
      <trkpt lat="45.80089" lon="5.48466">
        <ele>492.6</ele>
        <time>2023-05-28T07:50:17Z</time>
      </trkpt>
      <trkpt lat="45.80092" lon="5.48466">
        <ele>492.8</ele>
        <time>2023-05-28T07:50:18Z</time>
      </trkpt>
      <trkpt lat="45.80095" lon="5.48466">
        <ele>493.2</ele>
        <time>2023-05-28T07:50:19Z</time>
      </trkpt>
      <trkpt lat="45.80099" lon="5.48467">
        <ele>493.2</ele>
        <time>2023-05-28T07:50:20Z</time>
      </trkpt>
      <trkpt lat="45.80102" lon="5.48468">
        <ele>493.6</ele>
        <time>2023-05-28T07:50:21Z</time>
      </trkpt>
      <trkpt lat="45.80104" lon="5.48468">
        <ele>493.6</ele>
        <time>2023-05-28T07:50:22Z</time>
      </trkpt>
      <trkpt lat="45.80107" lon="5.48469">
        <ele>494.6</ele>
        <time>2023-05-28T07:50:23Z</time>
      </trkpt>
      <trkpt lat="45.8011" lon="5.4847">
        <ele>495</ele>
        <time>2023-05-28T07:50:24Z</time>
      </trkpt>
      <trkpt lat="45.80113" lon="5.48471">
        <ele>495.2</ele>
        <time>2023-05-28T07:50:25Z</time>
      </trkpt>
      <trkpt lat="45.80116" lon="5.48472">
        <ele>495.6</ele>
        <time>2023-05-28T07:50:26Z</time>
      </trkpt>
      <trkpt lat="45.8012" lon="5.48473">
        <ele>495.8</ele>
        <time>2023-05-28T07:50:27Z</time>
      </trkpt>
      <trkpt lat="45.80123" lon="5.48473">
        <ele>496</ele>
        <time>2023-05-28T07:50:28Z</time>
      </trkpt>
      <trkpt lat="45.80126" lon="5.48473">
        <ele>496.2</ele>
        <time>2023-05-28T07:50:29Z</time>
      </trkpt>
      <trkpt lat="45.80128" lon="5.48474">
        <ele>496.6</ele>
        <time>2023-05-28T07:50:30Z</time>
      </trkpt>
      <trkpt lat="45.80131" lon="5.48475">
        <ele>496.8</ele>
        <time>2023-05-28T07:50:31Z</time>
      </trkpt>
      <trkpt lat="45.80135" lon="5.48476">
        <ele>497</ele>
        <time>2023-05-28T07:50:32Z</time>
      </trkpt>
      <trkpt lat="45.80138" lon="5.48478">
        <ele>497.2</ele>
        <time>2023-05-28T07:50:33Z</time>
      </trkpt>
      <trkpt lat="45.80141" lon="5.48479">
        <ele>497.2</ele>
        <time>2023-05-28T07:50:34Z</time>
      </trkpt>
      <trkpt lat="45.80144" lon="5.4848">
        <ele>497.6</ele>
        <time>2023-05-28T07:50:35Z</time>
      </trkpt>
      <trkpt lat="45.80147" lon="5.48482">
        <ele>497.8</ele>
        <time>2023-05-28T07:50:36Z</time>
      </trkpt>
      <trkpt lat="45.80151" lon="5.48485">
        <ele>498.2</ele>
        <time>2023-05-28T07:50:37Z</time>
      </trkpt>
      <trkpt lat="45.80154" lon="5.48487">
        <ele>498.4</ele>
        <time>2023-05-28T07:50:38Z</time>
      </trkpt>
      <trkpt lat="45.80158" lon="5.48489">
        <ele>498.4</ele>
        <time>2023-05-28T07:50:39Z</time>
      </trkpt>
      <trkpt lat="45.80161" lon="5.4849">
        <ele>498.4</ele>
        <time>2023-05-28T07:50:40Z</time>
      </trkpt>
      <trkpt lat="45.80164" lon="5.48492">
        <ele>498.6</ele>
        <time>2023-05-28T07:50:41Z</time>
      </trkpt>
      <trkpt lat="45.80167" lon="5.48495">
        <ele>499</ele>
        <time>2023-05-28T07:50:42Z</time>
      </trkpt>
      <trkpt lat="45.8017" lon="5.48497">
        <ele>499</ele>
        <time>2023-05-28T07:50:43Z</time>
      </trkpt>
      <trkpt lat="45.80173" lon="5.485">
        <ele>499.2</ele>
        <time>2023-05-28T07:50:44Z</time>
      </trkpt>
      <trkpt lat="45.80177" lon="5.48502">
        <ele>499.2</ele>
        <time>2023-05-28T07:50:45Z</time>
      </trkpt>
      <trkpt lat="45.8018" lon="5.48504">
        <ele>499.4</ele>
        <time>2023-05-28T07:50:46Z</time>
      </trkpt>
      <trkpt lat="45.80183" lon="5.48506">
        <ele>499.6</ele>
        <time>2023-05-28T07:50:47Z</time>
      </trkpt>
      <trkpt lat="45.80186" lon="5.4851">
        <ele>499.8</ele>
        <time>2023-05-28T07:50:48Z</time>
      </trkpt>
      <trkpt lat="45.80189" lon="5.48512">
        <ele>499.8</ele>
        <time>2023-05-28T07:50:49Z</time>
      </trkpt>
      <trkpt lat="45.80193" lon="5.48515">
        <ele>500</ele>
        <time>2023-05-28T07:50:50Z</time>
      </trkpt>
      <trkpt lat="45.80195" lon="5.48517">
        <ele>500.2</ele>
        <time>2023-05-28T07:50:51Z</time>
      </trkpt>
      <trkpt lat="45.80199" lon="5.4852">
        <ele>500.2</ele>
        <time>2023-05-28T07:50:52Z</time>
      </trkpt>
      <trkpt lat="45.80202" lon="5.48523">
        <ele>500.4</ele>
        <time>2023-05-28T07:50:53Z</time>
      </trkpt>
      <trkpt lat="45.80205" lon="5.48526">
        <ele>500.6</ele>
        <time>2023-05-28T07:50:54Z</time>
      </trkpt>
      <trkpt lat="45.80208" lon="5.48528">
        <ele>501</ele>
        <time>2023-05-28T07:50:55Z</time>
      </trkpt>
      <trkpt lat="45.80211" lon="5.48531">
        <ele>501.2</ele>
        <time>2023-05-28T07:50:56Z</time>
      </trkpt>
      <trkpt lat="45.80214" lon="5.48534">
        <ele>501.2</ele>
        <time>2023-05-28T07:50:57Z</time>
      </trkpt>
      <trkpt lat="45.80218" lon="5.48537">
        <ele>501.4</ele>
        <time>2023-05-28T07:50:58Z</time>
      </trkpt>
      <trkpt lat="45.80221" lon="5.4854">
        <ele>501.6</ele>
        <time>2023-05-28T07:50:59Z</time>
      </trkpt>
      <trkpt lat="45.80224" lon="5.48544">
        <ele>501.8</ele>
        <time>2023-05-28T07:51:00Z</time>
      </trkpt>
      <trkpt lat="45.80227" lon="5.48547">
        <ele>501.6</ele>
        <time>2023-05-28T07:51:01Z</time>
      </trkpt>
      <trkpt lat="45.8023" lon="5.48551">
        <ele>502.2</ele>
        <time>2023-05-28T07:51:02Z</time>
      </trkpt>
      <trkpt lat="45.80232" lon="5.48555">
        <ele>502.2</ele>
        <time>2023-05-28T07:51:03Z</time>
      </trkpt>
      <trkpt lat="45.80235" lon="5.48559">
        <ele>502.4</ele>
        <time>2023-05-28T07:51:04Z</time>
      </trkpt>
      <trkpt lat="45.80238" lon="5.48564">
        <ele>502.6</ele>
        <time>2023-05-28T07:51:05Z</time>
      </trkpt>
      <trkpt lat="45.8024" lon="5.48568">
        <ele>502.6</ele>
        <time>2023-05-28T07:51:06Z</time>
      </trkpt>
      <trkpt lat="45.80241" lon="5.48571">
        <ele>502.6</ele>
        <time>2023-05-28T07:51:07Z</time>
      </trkpt>
      <trkpt lat="45.80244" lon="5.48576">
        <ele>502.6</ele>
        <time>2023-05-28T07:51:08Z</time>
      </trkpt>
      <trkpt lat="45.80246" lon="5.48581">
        <ele>502.8</ele>
        <time>2023-05-28T07:51:09Z</time>
      </trkpt>
      <trkpt lat="45.80248" lon="5.48585">
        <ele>503</ele>
        <time>2023-05-28T07:51:10Z</time>
      </trkpt>
      <trkpt lat="45.8025" lon="5.4859">
        <ele>503.2</ele>
        <time>2023-05-28T07:51:11Z</time>
      </trkpt>
      <trkpt lat="45.80252" lon="5.48594">
        <ele>503.4</ele>
        <time>2023-05-28T07:51:12Z</time>
      </trkpt>
      <trkpt lat="45.80254" lon="5.48598">
        <ele>503.4</ele>
        <time>2023-05-28T07:51:13Z</time>
      </trkpt>
      <trkpt lat="45.80256" lon="5.48603">
        <ele>503.8</ele>
        <time>2023-05-28T07:51:14Z</time>
      </trkpt>
      <trkpt lat="45.80259" lon="5.48607">
        <ele>504</ele>
        <time>2023-05-28T07:51:15Z</time>
      </trkpt>
      <trkpt lat="45.80261" lon="5.48611">
        <ele>504.6</ele>
        <time>2023-05-28T07:51:16Z</time>
      </trkpt>
      <trkpt lat="45.80263" lon="5.48616">
        <ele>504.8</ele>
        <time>2023-05-28T07:51:17Z</time>
      </trkpt>
      <trkpt lat="45.80265" lon="5.4862">
        <ele>505.2</ele>
        <time>2023-05-28T07:51:18Z</time>
      </trkpt>
      <trkpt lat="45.80268" lon="5.48624">
        <ele>505.4</ele>
        <time>2023-05-28T07:51:19Z</time>
      </trkpt>
      <trkpt lat="45.80271" lon="5.48629">
        <ele>505.6</ele>
        <time>2023-05-28T07:51:20Z</time>
      </trkpt>
      <trkpt lat="45.80273" lon="5.48634">
        <ele>505.8</ele>
        <time>2023-05-28T07:51:21Z</time>
      </trkpt>
      <trkpt lat="45.80276" lon="5.48638">
        <ele>506</ele>
        <time>2023-05-28T07:51:22Z</time>
      </trkpt>
      <trkpt lat="45.80279" lon="5.48642">
        <ele>506.2</ele>
        <time>2023-05-28T07:51:23Z</time>
      </trkpt>
      <trkpt lat="45.80281" lon="5.48646">
        <ele>506.4</ele>
        <time>2023-05-28T07:51:24Z</time>
      </trkpt>
      <trkpt lat="45.80284" lon="5.4865">
        <ele>506.8</ele>
        <time>2023-05-28T07:51:25Z</time>
      </trkpt>
      <trkpt lat="45.80286" lon="5.48654">
        <ele>507.2</ele>
        <time>2023-05-28T07:51:26Z</time>
      </trkpt>
      <trkpt lat="45.80289" lon="5.48658">
        <ele>507.4</ele>
        <time>2023-05-28T07:51:27Z</time>
      </trkpt>
      <trkpt lat="45.80292" lon="5.48661">
        <ele>508</ele>
        <time>2023-05-28T07:51:28Z</time>
      </trkpt>
      <trkpt lat="45.80295" lon="5.48664">
        <ele>508</ele>
        <time>2023-05-28T07:51:29Z</time>
      </trkpt>
      <trkpt lat="45.80298" lon="5.48666">
        <ele>508.4</ele>
        <time>2023-05-28T07:51:30Z</time>
      </trkpt>
      <trkpt lat="45.80301" lon="5.48668">
        <ele>508.6</ele>
        <time>2023-05-28T07:51:31Z</time>
      </trkpt>
      <trkpt lat="45.80305" lon="5.48671">
        <ele>509</ele>
        <time>2023-05-28T07:51:32Z</time>
      </trkpt>
      <trkpt lat="45.80308" lon="5.48673">
        <ele>509.2</ele>
        <time>2023-05-28T07:51:33Z</time>
      </trkpt>
      <trkpt lat="45.80312" lon="5.48675">
        <ele>509.4</ele>
        <time>2023-05-28T07:51:34Z</time>
      </trkpt>
      <trkpt lat="45.80315" lon="5.48678">
        <ele>509.6</ele>
        <time>2023-05-28T07:51:35Z</time>
      </trkpt>
      <trkpt lat="45.80319" lon="5.4868">
        <ele>509.8</ele>
        <time>2023-05-28T07:51:36Z</time>
      </trkpt>
      <trkpt lat="45.80322" lon="5.48683">
        <ele>510</ele>
        <time>2023-05-28T07:51:37Z</time>
      </trkpt>
      <trkpt lat="45.80326" lon="5.48685">
        <ele>510.2</ele>
        <time>2023-05-28T07:51:38Z</time>
      </trkpt>
      <trkpt lat="45.80329" lon="5.48688">
        <ele>510.4</ele>
        <time>2023-05-28T07:51:39Z</time>
      </trkpt>
      <trkpt lat="45.80333" lon="5.48691">
        <ele>510.8</ele>
        <time>2023-05-28T07:51:40Z</time>
      </trkpt>
      <trkpt lat="45.80336" lon="5.48693">
        <ele>511.4</ele>
        <time>2023-05-28T07:51:41Z</time>
      </trkpt>
      <trkpt lat="45.8034" lon="5.48696">
        <ele>511.6</ele>
        <time>2023-05-28T07:51:42Z</time>
      </trkpt>
      <trkpt lat="45.80343" lon="5.48699">
        <ele>511.6</ele>
        <time>2023-05-28T07:51:43Z</time>
      </trkpt>
      <trkpt lat="45.80346" lon="5.48702">
        <ele>512</ele>
        <time>2023-05-28T07:51:44Z</time>
      </trkpt>
      <trkpt lat="45.80349" lon="5.48705">
        <ele>512.2</ele>
        <time>2023-05-28T07:51:45Z</time>
      </trkpt>
      <trkpt lat="45.80352" lon="5.48709">
        <ele>512.4</ele>
        <time>2023-05-28T07:51:46Z</time>
      </trkpt>
      <trkpt lat="45.80354" lon="5.48713">
        <ele>512.6</ele>
        <time>2023-05-28T07:51:47Z</time>
      </trkpt>
      <trkpt lat="45.80357" lon="5.48717">
        <ele>512.8</ele>
        <time>2023-05-28T07:51:48Z</time>
      </trkpt>
      <trkpt lat="45.80359" lon="5.48723">
        <ele>513</ele>
        <time>2023-05-28T07:51:49Z</time>
      </trkpt>
      <trkpt lat="45.80361" lon="5.48729">
        <ele>513.2</ele>
        <time>2023-05-28T07:51:50Z</time>
      </trkpt>
      <trkpt lat="45.80363" lon="5.48734">
        <ele>513.4</ele>
        <time>2023-05-28T07:51:51Z</time>
      </trkpt>
      <trkpt lat="45.80364" lon="5.48739">
        <ele>513.4</ele>
        <time>2023-05-28T07:51:52Z</time>
      </trkpt>
      <trkpt lat="45.80365" lon="5.48744">
        <ele>513.6</ele>
        <time>2023-05-28T07:51:53Z</time>
      </trkpt>
      <trkpt lat="45.80367" lon="5.48749">
        <ele>513.6</ele>
        <time>2023-05-28T07:51:54Z</time>
      </trkpt>
      <trkpt lat="45.80368" lon="5.48754">
        <ele>513.8</ele>
        <time>2023-05-28T07:51:55Z</time>
      </trkpt>
      <trkpt lat="45.8037" lon="5.48759">
        <ele>513.8</ele>
        <time>2023-05-28T07:51:56Z</time>
      </trkpt>
      <trkpt lat="45.80372" lon="5.48764">
        <ele>514.2</ele>
        <time>2023-05-28T07:51:57Z</time>
      </trkpt>
      <trkpt lat="45.80373" lon="5.48769">
        <ele>514.4</ele>
        <time>2023-05-28T07:51:58Z</time>
      </trkpt>
      <trkpt lat="45.80375" lon="5.48774">
        <ele>514.4</ele>
        <time>2023-05-28T07:51:59Z</time>
      </trkpt>
      <trkpt lat="45.80378" lon="5.48783">
        <ele>514.6</ele>
        <time>2023-05-28T07:52:01Z</time>
      </trkpt>
      <trkpt lat="45.80381" lon="5.48794">
        <ele>515</ele>
        <time>2023-05-28T07:52:03Z</time>
      </trkpt>
      <trkpt lat="45.80382" lon="5.48799">
        <ele>515.2</ele>
        <time>2023-05-28T07:52:04Z</time>
      </trkpt>
      <trkpt lat="45.80383" lon="5.48804">
        <ele>515.6</ele>
        <time>2023-05-28T07:52:05Z</time>
      </trkpt>
      <trkpt lat="45.80384" lon="5.48808">
        <ele>515.8</ele>
        <time>2023-05-28T07:52:06Z</time>
      </trkpt>
      <trkpt lat="45.80385" lon="5.48813">
        <ele>516.2</ele>
        <time>2023-05-28T07:52:07Z</time>
      </trkpt>
      <trkpt lat="45.80387" lon="5.48818">
        <ele>516.2</ele>
        <time>2023-05-28T07:52:08Z</time>
      </trkpt>
      <trkpt lat="45.80387" lon="5.48823">
        <ele>516.4</ele>
        <time>2023-05-28T07:52:09Z</time>
      </trkpt>
      <trkpt lat="45.80388" lon="5.48828">
        <ele>516.4</ele>
        <time>2023-05-28T07:52:10Z</time>
      </trkpt>
      <trkpt lat="45.80389" lon="5.48833">
        <ele>516.6</ele>
        <time>2023-05-28T07:52:11Z</time>
      </trkpt>
      <trkpt lat="45.80391" lon="5.48843">
        <ele>516.8</ele>
        <time>2023-05-28T07:52:13Z</time>
      </trkpt>
      <trkpt lat="45.80392" lon="5.48848">
        <ele>517</ele>
        <time>2023-05-28T07:52:14Z</time>
      </trkpt>
      <trkpt lat="45.80393" lon="5.48854">
        <ele>517.2</ele>
        <time>2023-05-28T07:52:15Z</time>
      </trkpt>
      <trkpt lat="45.80395" lon="5.48859">
        <ele>517.6</ele>
        <time>2023-05-28T07:52:16Z</time>
      </trkpt>
      <trkpt lat="45.80396" lon="5.48864">
        <ele>517.8</ele>
        <time>2023-05-28T07:52:17Z</time>
      </trkpt>
      <trkpt lat="45.80397" lon="5.48869">
        <ele>518.2</ele>
        <time>2023-05-28T07:52:18Z</time>
      </trkpt>
      <trkpt lat="45.80399" lon="5.48874">
        <ele>518.4</ele>
        <time>2023-05-28T07:52:19Z</time>
      </trkpt>
      <trkpt lat="45.80401" lon="5.48879">
        <ele>518.8</ele>
        <time>2023-05-28T07:52:20Z</time>
      </trkpt>
      <trkpt lat="45.80403" lon="5.48885">
        <ele>519.2</ele>
        <time>2023-05-28T07:52:21Z</time>
      </trkpt>
      <trkpt lat="45.80405" lon="5.4889">
        <ele>519.4</ele>
        <time>2023-05-28T07:52:22Z</time>
      </trkpt>
      <trkpt lat="45.80411" lon="5.48899">
        <ele>519.6</ele>
        <time>2023-05-28T07:52:24Z</time>
      </trkpt>
      <trkpt lat="45.80413" lon="5.48903">
        <ele>519.6</ele>
        <time>2023-05-28T07:52:25Z</time>
      </trkpt>
      <trkpt lat="45.80416" lon="5.48907">
        <ele>519.8</ele>
        <time>2023-05-28T07:52:26Z</time>
      </trkpt>
      <trkpt lat="45.80419" lon="5.48911">
        <ele>520.2</ele>
        <time>2023-05-28T07:52:27Z</time>
      </trkpt>
      <trkpt lat="45.80423" lon="5.48915">
        <ele>520.4</ele>
        <time>2023-05-28T07:52:28Z</time>
      </trkpt>
      <trkpt lat="45.80426" lon="5.48919">
        <ele>520.6</ele>
        <time>2023-05-28T07:52:29Z</time>
      </trkpt>
      <trkpt lat="45.80429" lon="5.48923">
        <ele>520.8</ele>
        <time>2023-05-28T07:52:30Z</time>
      </trkpt>
      <trkpt lat="45.80431" lon="5.48926">
        <ele>521</ele>
        <time>2023-05-28T07:52:31Z</time>
      </trkpt>
      <trkpt lat="45.80435" lon="5.48931">
        <ele>521.2</ele>
        <time>2023-05-28T07:52:32Z</time>
      </trkpt>
      <trkpt lat="45.80437" lon="5.48934">
        <ele>521.4</ele>
        <time>2023-05-28T07:52:33Z</time>
      </trkpt>
      <trkpt lat="45.8044" lon="5.48938">
        <ele>522</ele>
        <time>2023-05-28T07:52:34Z</time>
      </trkpt>
      <trkpt lat="45.80444" lon="5.48942">
        <ele>522.2</ele>
        <time>2023-05-28T07:52:35Z</time>
      </trkpt>
      <trkpt lat="45.80444" lon="5.48942">
        <ele>522.6</ele>
        <time>2023-05-28T07:52:36Z</time>
      </trkpt>
      <trkpt lat="45.8045" lon="5.48949">
        <ele>522.8</ele>
        <time>2023-05-28T07:52:37Z</time>
      </trkpt>
      <trkpt lat="45.80453" lon="5.48954">
        <ele>522.8</ele>
        <time>2023-05-28T07:52:38Z</time>
      </trkpt>
      <trkpt lat="45.80456" lon="5.48957">
        <ele>523</ele>
        <time>2023-05-28T07:52:39Z</time>
      </trkpt>
      <trkpt lat="45.80459" lon="5.48961">
        <ele>523</ele>
        <time>2023-05-28T07:52:40Z</time>
      </trkpt>
      <trkpt lat="45.80463" lon="5.48964">
        <ele>523.2</ele>
        <time>2023-05-28T07:52:41Z</time>
      </trkpt>
      <trkpt lat="45.80466" lon="5.48967">
        <ele>523.2</ele>
        <time>2023-05-28T07:52:42Z</time>
      </trkpt>
      <trkpt lat="45.80473" lon="5.48973">
        <ele>523.6</ele>
        <time>2023-05-28T07:52:44Z</time>
      </trkpt>
      <trkpt lat="45.80476" lon="5.48975">
        <ele>523.6</ele>
        <time>2023-05-28T07:52:45Z</time>
      </trkpt>
      <trkpt lat="45.80479" lon="5.48976">
        <ele>523.8</ele>
        <time>2023-05-28T07:52:46Z</time>
      </trkpt>
      <trkpt lat="45.80483" lon="5.48978">
        <ele>523.8</ele>
        <time>2023-05-28T07:52:47Z</time>
      </trkpt>
      <trkpt lat="45.80487" lon="5.48979">
        <ele>524</ele>
        <time>2023-05-28T07:52:48Z</time>
      </trkpt>
      <trkpt lat="45.8049" lon="5.4898">
        <ele>524</ele>
        <time>2023-05-28T07:52:49Z</time>
      </trkpt>
      <trkpt lat="45.80494" lon="5.4898">
        <ele>524.2</ele>
        <time>2023-05-28T07:52:50Z</time>
      </trkpt>
      <trkpt lat="45.80498" lon="5.48981">
        <ele>524.4</ele>
        <time>2023-05-28T07:52:51Z</time>
      </trkpt>
      <trkpt lat="45.80501" lon="5.48981">
        <ele>524.8</ele>
        <time>2023-05-28T07:52:52Z</time>
      </trkpt>
      <trkpt lat="45.80505" lon="5.48981">
        <ele>525.2</ele>
        <time>2023-05-28T07:52:53Z</time>
      </trkpt>
      <trkpt lat="45.80508" lon="5.4898">
        <ele>525.2</ele>
        <time>2023-05-28T07:52:54Z</time>
      </trkpt>
      <trkpt lat="45.80512" lon="5.4898">
        <ele>525.8</ele>
        <time>2023-05-28T07:52:55Z</time>
      </trkpt>
      <trkpt lat="45.80512" lon="5.4898">
        <ele>525.8</ele>
        <time>2023-05-28T07:52:56Z</time>
      </trkpt>
      <trkpt lat="45.80519" lon="5.48979">
        <ele>526.2</ele>
        <time>2023-05-28T07:52:57Z</time>
      </trkpt>
      <trkpt lat="45.80523" lon="5.48979">
        <ele>526.4</ele>
        <time>2023-05-28T07:52:58Z</time>
      </trkpt>
      <trkpt lat="45.80526" lon="5.48979">
        <ele>526.8</ele>
        <time>2023-05-28T07:52:59Z</time>
      </trkpt>
      <trkpt lat="45.80529" lon="5.48978">
        <ele>527.2</ele>
        <time>2023-05-28T07:53:00Z</time>
      </trkpt>
      <trkpt lat="45.80533" lon="5.48977">
        <ele>527.4</ele>
        <time>2023-05-28T07:53:01Z</time>
      </trkpt>
      <trkpt lat="45.80536" lon="5.48976">
        <ele>527.6</ele>
        <time>2023-05-28T07:53:02Z</time>
      </trkpt>
      <trkpt lat="45.8054" lon="5.48975">
        <ele>527.6</ele>
        <time>2023-05-28T07:53:03Z</time>
      </trkpt>
      <trkpt lat="45.80543" lon="5.48974">
        <ele>528</ele>
        <time>2023-05-28T07:53:04Z</time>
      </trkpt>
      <trkpt lat="45.80548" lon="5.48973">
        <ele>528.2</ele>
        <time>2023-05-28T07:53:05Z</time>
      </trkpt>
      <trkpt lat="45.80551" lon="5.48971">
        <ele>528.2</ele>
        <time>2023-05-28T07:53:06Z</time>
      </trkpt>
      <trkpt lat="45.80555" lon="5.4897">
        <ele>528.4</ele>
        <time>2023-05-28T07:53:07Z</time>
      </trkpt>
      <trkpt lat="45.80558" lon="5.48968">
        <ele>528.4</ele>
        <time>2023-05-28T07:53:08Z</time>
      </trkpt>
      <trkpt lat="45.80562" lon="5.48967">
        <ele>528.6</ele>
        <time>2023-05-28T07:53:09Z</time>
      </trkpt>
      <trkpt lat="45.80565" lon="5.48966">
        <ele>528.6</ele>
        <time>2023-05-28T07:53:10Z</time>
      </trkpt>
      <trkpt lat="45.80569" lon="5.48964">
        <ele>529</ele>
        <time>2023-05-28T07:53:11Z</time>
      </trkpt>
      <trkpt lat="45.80572" lon="5.48963">
        <ele>529</ele>
        <time>2023-05-28T07:53:12Z</time>
      </trkpt>
      <trkpt lat="45.80576" lon="5.48962">
        <ele>529.2</ele>
        <time>2023-05-28T07:53:13Z</time>
      </trkpt>
      <trkpt lat="45.80579" lon="5.4896">
        <ele>529.2</ele>
        <time>2023-05-28T07:53:14Z</time>
      </trkpt>
      <trkpt lat="45.80583" lon="5.48958">
        <ele>529.4</ele>
        <time>2023-05-28T07:53:15Z</time>
      </trkpt>
      <trkpt lat="45.80586" lon="5.48956">
        <ele>529.6</ele>
        <time>2023-05-28T07:53:16Z</time>
      </trkpt>
      <trkpt lat="45.80588" lon="5.48955">
        <ele>529.6</ele>
        <time>2023-05-28T07:53:17Z</time>
      </trkpt>
      <trkpt lat="45.80592" lon="5.48953">
        <ele>529.8</ele>
        <time>2023-05-28T07:53:18Z</time>
      </trkpt>
      <trkpt lat="45.80592" lon="5.48953">
        <ele>530</ele>
        <time>2023-05-28T07:53:19Z</time>
      </trkpt>
      <trkpt lat="45.80598" lon="5.4895">
        <ele>530.2</ele>
        <time>2023-05-28T07:53:20Z</time>
      </trkpt>
      <trkpt lat="45.80601" lon="5.48947">
        <ele>530.2</ele>
        <time>2023-05-28T07:53:21Z</time>
      </trkpt>
      <trkpt lat="45.80604" lon="5.48945">
        <ele>530.4</ele>
        <time>2023-05-28T07:53:22Z</time>
      </trkpt>
      <trkpt lat="45.80608" lon="5.48943">
        <ele>530.8</ele>
        <time>2023-05-28T07:53:23Z</time>
      </trkpt>
      <trkpt lat="45.80611" lon="5.48941">
        <ele>531</ele>
        <time>2023-05-28T07:53:24Z</time>
      </trkpt>
      <trkpt lat="45.80614" lon="5.48938">
        <ele>531.4</ele>
        <time>2023-05-28T07:53:25Z</time>
      </trkpt>
      <trkpt lat="45.80617" lon="5.48936">
        <ele>531.4</ele>
        <time>2023-05-28T07:53:26Z</time>
      </trkpt>
      <trkpt lat="45.80619" lon="5.48934">
        <ele>531.6</ele>
        <time>2023-05-28T07:53:27Z</time>
      </trkpt>
      <trkpt lat="45.80622" lon="5.48932">
        <ele>531.6</ele>
        <time>2023-05-28T07:53:28Z</time>
      </trkpt>
      <trkpt lat="45.80625" lon="5.4893">
        <ele>532</ele>
        <time>2023-05-28T07:53:29Z</time>
      </trkpt>
      <trkpt lat="45.80629" lon="5.48928">
        <ele>532</ele>
        <time>2023-05-28T07:53:30Z</time>
      </trkpt>
      <trkpt lat="45.80635" lon="5.48924">
        <ele>532.4</ele>
        <time>2023-05-28T07:53:32Z</time>
      </trkpt>
      <trkpt lat="45.80638" lon="5.48923">
        <ele>532.6</ele>
        <time>2023-05-28T07:53:33Z</time>
      </trkpt>
      <trkpt lat="45.80641" lon="5.48922">
        <ele>532.6</ele>
        <time>2023-05-28T07:53:34Z</time>
      </trkpt>
      <trkpt lat="45.80644" lon="5.48922">
        <ele>532.8</ele>
        <time>2023-05-28T07:53:35Z</time>
      </trkpt>
      <trkpt lat="45.80647" lon="5.48923">
        <ele>533</ele>
        <time>2023-05-28T07:53:36Z</time>
      </trkpt>
      <trkpt lat="45.80651" lon="5.48924">
        <ele>533.2</ele>
        <time>2023-05-28T07:53:37Z</time>
      </trkpt>
      <trkpt lat="45.80654" lon="5.48926">
        <ele>533.4</ele>
        <time>2023-05-28T07:53:38Z</time>
      </trkpt>
      <trkpt lat="45.80657" lon="5.48928">
        <ele>534</ele>
        <time>2023-05-28T07:53:39Z</time>
      </trkpt>
      <trkpt lat="45.8066" lon="5.4893">
        <ele>534.2</ele>
        <time>2023-05-28T07:53:40Z</time>
      </trkpt>
      <trkpt lat="45.80663" lon="5.48932">
        <ele>535.2</ele>
        <time>2023-05-28T07:53:41Z</time>
      </trkpt>
      <trkpt lat="45.80666" lon="5.48935">
        <ele>535.6</ele>
        <time>2023-05-28T07:53:42Z</time>
      </trkpt>
      <trkpt lat="45.80669" lon="5.48937">
        <ele>536.2</ele>
        <time>2023-05-28T07:53:43Z</time>
      </trkpt>
      <trkpt lat="45.80671" lon="5.4894">
        <ele>536.4</ele>
        <time>2023-05-28T07:53:44Z</time>
      </trkpt>
      <trkpt lat="45.80672" lon="5.48942">
        <ele>537</ele>
        <time>2023-05-28T07:53:45Z</time>
      </trkpt>
      <trkpt lat="45.80674" lon="5.48946">
        <ele>537.2</ele>
        <time>2023-05-28T07:53:46Z</time>
      </trkpt>
      <trkpt lat="45.80675" lon="5.4895">
        <ele>537.8</ele>
        <time>2023-05-28T07:53:47Z</time>
      </trkpt>
      <trkpt lat="45.80677" lon="5.48955">
        <ele>538.2</ele>
        <time>2023-05-28T07:53:48Z</time>
      </trkpt>
      <trkpt lat="45.80678" lon="5.48959">
        <ele>538.6</ele>
        <time>2023-05-28T07:53:49Z</time>
      </trkpt>
      <trkpt lat="45.80679" lon="5.48962">
        <ele>539</ele>
        <time>2023-05-28T07:53:50Z</time>
      </trkpt>
      <trkpt lat="45.80681" lon="5.48965">
        <ele>539.2</ele>
        <time>2023-05-28T07:53:51Z</time>
      </trkpt>
      <trkpt lat="45.80684" lon="5.48967">
        <ele>539.8</ele>
        <time>2023-05-28T07:53:52Z</time>
      </trkpt>
      <trkpt lat="45.80688" lon="5.48968">
        <ele>540.2</ele>
        <time>2023-05-28T07:53:53Z</time>
      </trkpt>
      <trkpt lat="45.80692" lon="5.48968">
        <ele>540.6</ele>
        <time>2023-05-28T07:53:54Z</time>
      </trkpt>
      <trkpt lat="45.80696" lon="5.48967">
        <ele>541</ele>
        <time>2023-05-28T07:53:55Z</time>
      </trkpt>
      <trkpt lat="45.80701" lon="5.48967">
        <ele>541</ele>
        <time>2023-05-28T07:53:56Z</time>
      </trkpt>
      <trkpt lat="45.80705" lon="5.48966">
        <ele>541.2</ele>
        <time>2023-05-28T07:53:57Z</time>
      </trkpt>
      <trkpt lat="45.8071" lon="5.48964">
        <ele>541.2</ele>
        <time>2023-05-28T07:53:58Z</time>
      </trkpt>
      <trkpt lat="45.80715" lon="5.48963">
        <ele>541.4</ele>
        <time>2023-05-28T07:53:59Z</time>
      </trkpt>
      <trkpt lat="45.8072" lon="5.48962">
        <ele>541.4</ele>
        <time>2023-05-28T07:54:00Z</time>
      </trkpt>
      <trkpt lat="45.80726" lon="5.48961">
        <ele>541.8</ele>
        <time>2023-05-28T07:54:01Z</time>
      </trkpt>
      <trkpt lat="45.80733" lon="5.4896">
        <ele>541.8</ele>
        <time>2023-05-28T07:54:02Z</time>
      </trkpt>
      <trkpt lat="45.8074" lon="5.48958">
        <ele>542</ele>
        <time>2023-05-28T07:54:03Z</time>
      </trkpt>
      <trkpt lat="45.80748" lon="5.48957">
        <ele>542</ele>
        <time>2023-05-28T07:54:04Z</time>
      </trkpt>
      <trkpt lat="45.80755" lon="5.48955">
        <ele>542.2</ele>
        <time>2023-05-28T07:54:05Z</time>
      </trkpt>
      <trkpt lat="45.80762" lon="5.48953">
        <ele>542.2</ele>
        <time>2023-05-28T07:54:06Z</time>
      </trkpt>
      <trkpt lat="45.8077" lon="5.4895">
        <ele>542.2</ele>
        <time>2023-05-28T07:54:07Z</time>
      </trkpt>
      <trkpt lat="45.80777" lon="5.48945">
        <ele>542.4</ele>
        <time>2023-05-28T07:54:08Z</time>
      </trkpt>
      <trkpt lat="45.80785" lon="5.48938">
        <ele>542.2</ele>
        <time>2023-05-28T07:54:09Z</time>
      </trkpt>
      <trkpt lat="45.80791" lon="5.48928">
        <ele>542.2</ele>
        <time>2023-05-28T07:54:10Z</time>
      </trkpt>
      <trkpt lat="45.80796" lon="5.48918">
        <ele>542.2</ele>
        <time>2023-05-28T07:54:11Z</time>
      </trkpt>
      <trkpt lat="45.80801" lon="5.48905">
        <ele>542.2</ele>
        <time>2023-05-28T07:54:12Z</time>
      </trkpt>
      <trkpt lat="45.80805" lon="5.48893">
        <ele>542.2</ele>
        <time>2023-05-28T07:54:13Z</time>
      </trkpt>
      <trkpt lat="45.8081" lon="5.4888">
        <ele>542.2</ele>
        <time>2023-05-28T07:54:14Z</time>
      </trkpt>
      <trkpt lat="45.80815" lon="5.48866">
        <ele>542</ele>
        <time>2023-05-28T07:54:15Z</time>
      </trkpt>
      <trkpt lat="45.80821" lon="5.48853">
        <ele>542</ele>
        <time>2023-05-28T07:54:16Z</time>
      </trkpt>
      <trkpt lat="45.80826" lon="5.48841">
        <ele>541.8</ele>
        <time>2023-05-28T07:54:17Z</time>
      </trkpt>
      <trkpt lat="45.80831" lon="5.48831">
        <ele>541.6</ele>
        <time>2023-05-28T07:54:18Z</time>
      </trkpt>
      <trkpt lat="45.80839" lon="5.48818">
        <ele>541.4</ele>
        <time>2023-05-28T07:54:19Z</time>
      </trkpt>
      <trkpt lat="45.80845" lon="5.48807">
        <ele>541</ele>
        <time>2023-05-28T07:54:20Z</time>
      </trkpt>
      <trkpt lat="45.80852" lon="5.48796">
        <ele>540.8</ele>
        <time>2023-05-28T07:54:21Z</time>
      </trkpt>
      <trkpt lat="45.80859" lon="5.48787">
        <ele>540.6</ele>
        <time>2023-05-28T07:54:22Z</time>
      </trkpt>
      <trkpt lat="45.80867" lon="5.48778">
        <ele>540.4</ele>
        <time>2023-05-28T07:54:23Z</time>
      </trkpt>
      <trkpt lat="45.80874" lon="5.4877">
        <ele>540.2</ele>
        <time>2023-05-28T07:54:24Z</time>
      </trkpt>
      <trkpt lat="45.80882" lon="5.48764">
        <ele>539.8</ele>
        <time>2023-05-28T07:54:25Z</time>
      </trkpt>
      <trkpt lat="45.8089" lon="5.4876">
        <ele>539.4</ele>
        <time>2023-05-28T07:54:26Z</time>
      </trkpt>
      <trkpt lat="45.80899" lon="5.48758">
        <ele>539.2</ele>
        <time>2023-05-28T07:54:27Z</time>
      </trkpt>
      <trkpt lat="45.80909" lon="5.48758">
        <ele>539</ele>
        <time>2023-05-28T07:54:28Z</time>
      </trkpt>
      <trkpt lat="45.80919" lon="5.48758">
        <ele>538.8</ele>
        <time>2023-05-28T07:54:29Z</time>
      </trkpt>
      <trkpt lat="45.80929" lon="5.48756">
        <ele>538.6</ele>
        <time>2023-05-28T07:54:30Z</time>
      </trkpt>
      <trkpt lat="45.80938" lon="5.48753">
        <ele>538.4</ele>
        <time>2023-05-28T07:54:31Z</time>
      </trkpt>
      <trkpt lat="45.80948" lon="5.4875">
        <ele>538.2</ele>
        <time>2023-05-28T07:54:32Z</time>
      </trkpt>
      <trkpt lat="45.80957" lon="5.48746">
        <ele>537.4</ele>
        <time>2023-05-28T07:54:33Z</time>
      </trkpt>
      <trkpt lat="45.80967" lon="5.48742">
        <ele>537</ele>
        <time>2023-05-28T07:54:34Z</time>
      </trkpt>
      <trkpt lat="45.80976" lon="5.48739">
        <ele>536.8</ele>
        <time>2023-05-28T07:54:35Z</time>
      </trkpt>
      <trkpt lat="45.80986" lon="5.48736">
        <ele>536.4</ele>
        <time>2023-05-28T07:54:36Z</time>
      </trkpt>
      <trkpt lat="45.80995" lon="5.48733">
        <ele>536.4</ele>
        <time>2023-05-28T07:54:37Z</time>
      </trkpt>
      <trkpt lat="45.81004" lon="5.48731">
        <ele>536</ele>
        <time>2023-05-28T07:54:38Z</time>
      </trkpt>
      <trkpt lat="45.81011" lon="5.48729">
        <ele>535.8</ele>
        <time>2023-05-28T07:54:39Z</time>
      </trkpt>
      <trkpt lat="45.81021" lon="5.4873">
        <ele>535.2</ele>
        <time>2023-05-28T07:54:40Z</time>
      </trkpt>
      <trkpt lat="45.8103" lon="5.48734">
        <ele>535</ele>
        <time>2023-05-28T07:54:41Z</time>
      </trkpt>
      <trkpt lat="45.8104" lon="5.48742">
        <ele>534.6</ele>
        <time>2023-05-28T07:54:42Z</time>
      </trkpt>
      <trkpt lat="45.81048" lon="5.4875">
        <ele>534.4</ele>
        <time>2023-05-28T07:54:43Z</time>
      </trkpt>
      <trkpt lat="45.81056" lon="5.48759">
        <ele>534.2</ele>
        <time>2023-05-28T07:54:44Z</time>
      </trkpt>
      <trkpt lat="45.81064" lon="5.48768">
        <ele>533.8</ele>
        <time>2023-05-28T07:54:45Z</time>
      </trkpt>
      <trkpt lat="45.81072" lon="5.48776">
        <ele>533.6</ele>
        <time>2023-05-28T07:54:46Z</time>
      </trkpt>
      <trkpt lat="45.81081" lon="5.48784">
        <ele>532.6</ele>
        <time>2023-05-28T07:54:47Z</time>
      </trkpt>
      <trkpt lat="45.8109" lon="5.48791">
        <ele>532.2</ele>
        <time>2023-05-28T07:54:48Z</time>
      </trkpt>
      <trkpt lat="45.81101" lon="5.48799">
        <ele>531.6</ele>
        <time>2023-05-28T07:54:49Z</time>
      </trkpt>
      <trkpt lat="45.8111" lon="5.48805">
        <ele>530.8</ele>
        <time>2023-05-28T07:54:50Z</time>
      </trkpt>
      <trkpt lat="45.8112" lon="5.48811">
        <ele>530.6</ele>
        <time>2023-05-28T07:54:51Z</time>
      </trkpt>
      <trkpt lat="45.81129" lon="5.48818">
        <ele>530.2</ele>
        <time>2023-05-28T07:54:52Z</time>
      </trkpt>
      <trkpt lat="45.81138" lon="5.48825">
        <ele>529.8</ele>
        <time>2023-05-28T07:54:53Z</time>
      </trkpt>
      <trkpt lat="45.81146" lon="5.48835">
        <ele>528.6</ele>
        <time>2023-05-28T07:54:54Z</time>
      </trkpt>
      <trkpt lat="45.81154" lon="5.48845">
        <ele>528.2</ele>
        <time>2023-05-28T07:54:55Z</time>
      </trkpt>
      <trkpt lat="45.81161" lon="5.48858">
        <ele>527</ele>
        <time>2023-05-28T07:54:56Z</time>
      </trkpt>
      <trkpt lat="45.81167" lon="5.4887">
        <ele>526</ele>
        <time>2023-05-28T07:54:57Z</time>
      </trkpt>
      <trkpt lat="45.81173" lon="5.48882">
        <ele>526</ele>
        <time>2023-05-28T07:54:58Z</time>
      </trkpt>
      <trkpt lat="45.81178" lon="5.48895">
        <ele>525.4</ele>
        <time>2023-05-28T07:54:59Z</time>
      </trkpt>
      <trkpt lat="45.81184" lon="5.48907">
        <ele>525</ele>
        <time>2023-05-28T07:55:00Z</time>
      </trkpt>
      <trkpt lat="45.81189" lon="5.48918">
        <ele>524.6</ele>
        <time>2023-05-28T07:55:01Z</time>
      </trkpt>
      <trkpt lat="45.81195" lon="5.48926">
        <ele>524.6</ele>
        <time>2023-05-28T07:55:02Z</time>
      </trkpt>
      <trkpt lat="45.81202" lon="5.4893">
        <ele>524.2</ele>
        <time>2023-05-28T07:55:03Z</time>
      </trkpt>
      <trkpt lat="45.81209" lon="5.4893">
        <ele>523.8</ele>
        <time>2023-05-28T07:55:04Z</time>
      </trkpt>
      <trkpt lat="45.81216" lon="5.48928">
        <ele>523</ele>
        <time>2023-05-28T07:55:05Z</time>
      </trkpt>
      <trkpt lat="45.81222" lon="5.48923">
        <ele>522</ele>
        <time>2023-05-28T07:55:06Z</time>
      </trkpt>
      <trkpt lat="45.81227" lon="5.48914">
        <ele>521.8</ele>
        <time>2023-05-28T07:55:07Z</time>
      </trkpt>
      <trkpt lat="45.81232" lon="5.48906">
        <ele>521.2</ele>
        <time>2023-05-28T07:55:08Z</time>
      </trkpt>
      <trkpt lat="45.81237" lon="5.48897">
        <ele>520.8</ele>
        <time>2023-05-28T07:55:09Z</time>
      </trkpt>
      <trkpt lat="45.81243" lon="5.48889">
        <ele>520.6</ele>
        <time>2023-05-28T07:55:10Z</time>
      </trkpt>
      <trkpt lat="45.81249" lon="5.48883">
        <ele>520.4</ele>
        <time>2023-05-28T07:55:11Z</time>
      </trkpt>
      <trkpt lat="45.81257" lon="5.4888">
        <ele>520.2</ele>
        <time>2023-05-28T07:55:12Z</time>
      </trkpt>
      <trkpt lat="45.81265" lon="5.48878">
        <ele>520</ele>
        <time>2023-05-28T07:55:13Z</time>
      </trkpt>
      <trkpt lat="45.81274" lon="5.48878">
        <ele>519.8</ele>
        <time>2023-05-28T07:55:14Z</time>
      </trkpt>
      <trkpt lat="45.81284" lon="5.48878">
        <ele>519.2</ele>
        <time>2023-05-28T07:55:15Z</time>
      </trkpt>
      <trkpt lat="45.81294" lon="5.48878">
        <ele>518.6</ele>
        <time>2023-05-28T07:55:16Z</time>
      </trkpt>
      <trkpt lat="45.81304" lon="5.48877">
        <ele>517.8</ele>
        <time>2023-05-28T07:55:17Z</time>
      </trkpt>
      <trkpt lat="45.81313" lon="5.48876">
        <ele>517.6</ele>
        <time>2023-05-28T07:55:18Z</time>
      </trkpt>
      <trkpt lat="45.81324" lon="5.48876">
        <ele>517</ele>
        <time>2023-05-28T07:55:19Z</time>
      </trkpt>
      <trkpt lat="45.81334" lon="5.48876">
        <ele>516.8</ele>
        <time>2023-05-28T07:55:20Z</time>
      </trkpt>
      <trkpt lat="45.81344" lon="5.48877">
        <ele>516.4</ele>
        <time>2023-05-28T07:55:21Z</time>
      </trkpt>
      <trkpt lat="45.81354" lon="5.48879">
        <ele>515.8</ele>
        <time>2023-05-28T07:55:22Z</time>
      </trkpt>
      <trkpt lat="45.81363" lon="5.4888">
        <ele>515.6</ele>
        <time>2023-05-28T07:55:23Z</time>
      </trkpt>
      <trkpt lat="45.81373" lon="5.48881">
        <ele>514.6</ele>
        <time>2023-05-28T07:55:24Z</time>
      </trkpt>
      <trkpt lat="45.81384" lon="5.48882">
        <ele>514.2</ele>
        <time>2023-05-28T07:55:25Z</time>
      </trkpt>
      <trkpt lat="45.81396" lon="5.48882">
        <ele>513.2</ele>
        <time>2023-05-28T07:55:26Z</time>
      </trkpt>
      <trkpt lat="45.81406" lon="5.48881">
        <ele>512.8</ele>
        <time>2023-05-28T07:55:27Z</time>
      </trkpt>
      <trkpt lat="45.81415" lon="5.48878">
        <ele>511.8</ele>
        <time>2023-05-28T07:55:28Z</time>
      </trkpt>
      <trkpt lat="45.81422" lon="5.48875">
        <ele>511.2</ele>
        <time>2023-05-28T07:55:29Z</time>
      </trkpt>
      <trkpt lat="45.8143" lon="5.4887">
        <ele>510.8</ele>
        <time>2023-05-28T07:55:30Z</time>
      </trkpt>
      <trkpt lat="45.81438" lon="5.48868">
        <ele>509.8</ele>
        <time>2023-05-28T07:55:31Z</time>
      </trkpt>
      <trkpt lat="45.81445" lon="5.4887">
        <ele>509.2</ele>
        <time>2023-05-28T07:55:32Z</time>
      </trkpt>
      <trkpt lat="45.81449" lon="5.48874">
        <ele>508.4</ele>
        <time>2023-05-28T07:55:33Z</time>
      </trkpt>
      <trkpt lat="45.81452" lon="5.48883">
        <ele>507.8</ele>
        <time>2023-05-28T07:55:34Z</time>
      </trkpt>
      <trkpt lat="45.81454" lon="5.48895">
        <ele>507.4</ele>
        <time>2023-05-28T07:55:35Z</time>
      </trkpt>
      <trkpt lat="45.81455" lon="5.48906">
        <ele>506.8</ele>
        <time>2023-05-28T07:55:36Z</time>
      </trkpt>
      <trkpt lat="45.81459" lon="5.48916">
        <ele>506.6</ele>
        <time>2023-05-28T07:55:37Z</time>
      </trkpt>
      <trkpt lat="45.81464" lon="5.48926">
        <ele>506.2</ele>
        <time>2023-05-28T07:55:38Z</time>
      </trkpt>
      <trkpt lat="45.8147" lon="5.48932">
        <ele>505.6</ele>
        <time>2023-05-28T07:55:39Z</time>
      </trkpt>
      <trkpt lat="45.81478" lon="5.48937">
        <ele>504.6</ele>
        <time>2023-05-28T07:55:40Z</time>
      </trkpt>
      <trkpt lat="45.81486" lon="5.48942">
        <ele>504.4</ele>
        <time>2023-05-28T07:55:41Z</time>
      </trkpt>
      <trkpt lat="45.81494" lon="5.48948">
        <ele>503.6</ele>
        <time>2023-05-28T07:55:42Z</time>
      </trkpt>
      <trkpt lat="45.81503" lon="5.48953">
        <ele>503.4</ele>
        <time>2023-05-28T07:55:43Z</time>
      </trkpt>
      <trkpt lat="45.81511" lon="5.4896">
        <ele>502.6</ele>
        <time>2023-05-28T07:55:44Z</time>
      </trkpt>
      <trkpt lat="45.8152" lon="5.48966">
        <ele>501.8</ele>
        <time>2023-05-28T07:55:45Z</time>
      </trkpt>
      <trkpt lat="45.81529" lon="5.48973">
        <ele>501.4</ele>
        <time>2023-05-28T07:55:46Z</time>
      </trkpt>
      <trkpt lat="45.81538" lon="5.48981">
        <ele>500.6</ele>
        <time>2023-05-28T07:55:47Z</time>
      </trkpt>
      <trkpt lat="45.81546" lon="5.48989">
        <ele>500.2</ele>
        <time>2023-05-28T07:55:48Z</time>
      </trkpt>
      <trkpt lat="45.81554" lon="5.49">
        <ele>499.8</ele>
        <time>2023-05-28T07:55:49Z</time>
      </trkpt>
      <trkpt lat="45.81559" lon="5.49013">
        <ele>499.4</ele>
        <time>2023-05-28T07:55:50Z</time>
      </trkpt>
      <trkpt lat="45.81564" lon="5.49028">
        <ele>498.6</ele>
        <time>2023-05-28T07:55:51Z</time>
      </trkpt>
      <trkpt lat="45.81569" lon="5.49042">
        <ele>497.2</ele>
        <time>2023-05-28T07:55:52Z</time>
      </trkpt>
      <trkpt lat="45.81574" lon="5.49056">
        <ele>496.8</ele>
        <time>2023-05-28T07:55:53Z</time>
      </trkpt>
      <trkpt lat="45.81578" lon="5.49071">
        <ele>496.4</ele>
        <time>2023-05-28T07:55:54Z</time>
      </trkpt>
      <trkpt lat="45.81585" lon="5.49084">
        <ele>495.8</ele>
        <time>2023-05-28T07:55:55Z</time>
      </trkpt>
      <trkpt lat="45.8159" lon="5.49097">
        <ele>494.8</ele>
        <time>2023-05-28T07:55:56Z</time>
      </trkpt>
      <trkpt lat="45.81598" lon="5.49109">
        <ele>494.2</ele>
        <time>2023-05-28T07:55:57Z</time>
      </trkpt>
      <trkpt lat="45.81606" lon="5.49119">
        <ele>493</ele>
        <time>2023-05-28T07:55:58Z</time>
      </trkpt>
      <trkpt lat="45.81614" lon="5.49129">
        <ele>492.2</ele>
        <time>2023-05-28T07:55:59Z</time>
      </trkpt>
      <trkpt lat="45.81619" lon="5.49136">
        <ele>491.4</ele>
        <time>2023-05-28T07:56:00Z</time>
      </trkpt>
      <trkpt lat="45.81627" lon="5.49144">
        <ele>490.4</ele>
        <time>2023-05-28T07:56:01Z</time>
      </trkpt>
      <trkpt lat="45.81636" lon="5.49149">
        <ele>490</ele>
        <time>2023-05-28T07:56:02Z</time>
      </trkpt>
      <trkpt lat="45.81643" lon="5.4915">
        <ele>489.4</ele>
        <time>2023-05-28T07:56:03Z</time>
      </trkpt>
      <trkpt lat="45.81651" lon="5.49149">
        <ele>489.2</ele>
        <time>2023-05-28T07:56:04Z</time>
      </trkpt>
      <trkpt lat="45.81661" lon="5.49144">
        <ele>488.2</ele>
        <time>2023-05-28T07:56:05Z</time>
      </trkpt>
      <trkpt lat="45.81669" lon="5.49141">
        <ele>487.8</ele>
        <time>2023-05-28T07:56:06Z</time>
      </trkpt>
      <trkpt lat="45.81678" lon="5.49141">
        <ele>487.2</ele>
        <time>2023-05-28T07:56:07Z</time>
      </trkpt>
      <trkpt lat="45.81684" lon="5.49144">
        <ele>486.6</ele>
        <time>2023-05-28T07:56:08Z</time>
      </trkpt>
      <trkpt lat="45.81694" lon="5.4915">
        <ele>486.4</ele>
        <time>2023-05-28T07:56:09Z</time>
      </trkpt>
      <trkpt lat="45.81705" lon="5.49157">
        <ele>485.4</ele>
        <time>2023-05-28T07:56:10Z</time>
      </trkpt>
      <trkpt lat="45.81713" lon="5.49161">
        <ele>485</ele>
        <time>2023-05-28T07:56:11Z</time>
      </trkpt>
      <trkpt lat="45.81722" lon="5.49163">
        <ele>483.2</ele>
        <time>2023-05-28T07:56:12Z</time>
      </trkpt>
      <trkpt lat="45.81729" lon="5.4917">
        <ele>482.6</ele>
        <time>2023-05-28T07:56:13Z</time>
      </trkpt>
      <trkpt lat="45.81734" lon="5.49178">
        <ele>481.6</ele>
        <time>2023-05-28T07:56:14Z</time>
      </trkpt>
      <trkpt lat="45.8174" lon="5.49189">
        <ele>480.8</ele>
        <time>2023-05-28T07:56:15Z</time>
      </trkpt>
      <trkpt lat="45.81745" lon="5.49199">
        <ele>480.2</ele>
        <time>2023-05-28T07:56:16Z</time>
      </trkpt>
      <trkpt lat="45.8175" lon="5.49207">
        <ele>479</ele>
        <time>2023-05-28T07:56:17Z</time>
      </trkpt>
      <trkpt lat="45.81756" lon="5.49212">
        <ele>478.6</ele>
        <time>2023-05-28T07:56:18Z</time>
      </trkpt>
      <trkpt lat="45.81762" lon="5.49215">
        <ele>477.2</ele>
        <time>2023-05-28T07:56:19Z</time>
      </trkpt>
      <trkpt lat="45.81768" lon="5.49212">
        <ele>476.4</ele>
        <time>2023-05-28T07:56:20Z</time>
      </trkpt>
      <trkpt lat="45.81771" lon="5.49206">
        <ele>475.4</ele>
        <time>2023-05-28T07:56:21Z</time>
      </trkpt>
      <trkpt lat="45.8177" lon="5.49199">
        <ele>473.8</ele>
        <time>2023-05-28T07:56:22Z</time>
      </trkpt>
      <trkpt lat="45.81769" lon="5.49193">
        <ele>473.2</ele>
        <time>2023-05-28T07:56:23Z</time>
      </trkpt>
      <trkpt lat="45.81767" lon="5.49186">
        <ele>472.6</ele>
        <time>2023-05-28T07:56:24Z</time>
      </trkpt>
      <trkpt lat="45.81765" lon="5.4918">
        <ele>472.4</ele>
        <time>2023-05-28T07:56:25Z</time>
      </trkpt>
      <trkpt lat="45.81763" lon="5.49175">
        <ele>471.8</ele>
        <time>2023-05-28T07:56:26Z</time>
      </trkpt>
      <trkpt lat="45.81762" lon="5.4917">
        <ele>471.4</ele>
        <time>2023-05-28T07:56:27Z</time>
      </trkpt>
      <trkpt lat="45.81759" lon="5.49166">
        <ele>471</ele>
        <time>2023-05-28T07:56:28Z</time>
      </trkpt>
      <trkpt lat="45.81757" lon="5.49162">
        <ele>471</ele>
        <time>2023-05-28T07:56:29Z</time>
      </trkpt>
      <trkpt lat="45.81754" lon="5.49159">
        <ele>470.2</ele>
        <time>2023-05-28T07:56:30Z</time>
      </trkpt>
      <trkpt lat="45.8175" lon="5.49155">
        <ele>469.6</ele>
        <time>2023-05-28T07:56:31Z</time>
      </trkpt>
      <trkpt lat="45.81747" lon="5.49151">
        <ele>469.4</ele>
        <time>2023-05-28T07:56:32Z</time>
      </trkpt>
      <trkpt lat="45.81744" lon="5.49147">
        <ele>469.2</ele>
        <time>2023-05-28T07:56:33Z</time>
      </trkpt>
      <trkpt lat="45.81742" lon="5.49143">
        <ele>469</ele>
        <time>2023-05-28T07:56:34Z</time>
      </trkpt>
      <trkpt lat="45.8174" lon="5.49138">
        <ele>468.8</ele>
        <time>2023-05-28T07:56:35Z</time>
      </trkpt>
      <trkpt lat="45.81739" lon="5.49134">
        <ele>468.8</ele>
        <time>2023-05-28T07:56:36Z</time>
      </trkpt>
      <trkpt lat="45.81737" lon="5.4913">
        <ele>468.6</ele>
        <time>2023-05-28T07:56:37Z</time>
      </trkpt>
      <trkpt lat="45.81735" lon="5.49126">
        <ele>468.6</ele>
        <time>2023-05-28T07:56:38Z</time>
      </trkpt>
      <trkpt lat="45.81733" lon="5.49121">
        <ele>468.4</ele>
        <time>2023-05-28T07:56:39Z</time>
      </trkpt>
      <trkpt lat="45.81732" lon="5.49117">
        <ele>468.4</ele>
        <time>2023-05-28T07:56:40Z</time>
      </trkpt>
      <trkpt lat="45.8173" lon="5.49113">
        <ele>468.2</ele>
        <time>2023-05-28T07:56:41Z</time>
      </trkpt>
      <trkpt lat="45.81729" lon="5.49109">
        <ele>468</ele>
        <time>2023-05-28T07:56:42Z</time>
      </trkpt>
      <trkpt lat="45.81727" lon="5.49105">
        <ele>468</ele>
        <time>2023-05-28T07:56:43Z</time>
      </trkpt>
      <trkpt lat="45.81724" lon="5.491">
        <ele>467.8</ele>
        <time>2023-05-28T07:56:44Z</time>
      </trkpt>
      <trkpt lat="45.81723" lon="5.49096">
        <ele>467.8</ele>
        <time>2023-05-28T07:56:45Z</time>
      </trkpt>
      <trkpt lat="45.8172" lon="5.49092">
        <ele>467.8</ele>
        <time>2023-05-28T07:56:46Z</time>
      </trkpt>
      <trkpt lat="45.81718" lon="5.49087">
        <ele>467.8</ele>
        <time>2023-05-28T07:56:47Z</time>
      </trkpt>
      <trkpt lat="45.81716" lon="5.49082">
        <ele>467.8</ele>
        <time>2023-05-28T07:56:48Z</time>
      </trkpt>
      <trkpt lat="45.81715" lon="5.49078">
        <ele>467.8</ele>
        <time>2023-05-28T07:56:49Z</time>
      </trkpt>
      <trkpt lat="45.81716" lon="5.49074">
        <ele>467.8</ele>
        <time>2023-05-28T07:56:50Z</time>
      </trkpt>
      <trkpt lat="45.81716" lon="5.4907">
        <ele>467.8</ele>
        <time>2023-05-28T07:56:51Z</time>
      </trkpt>
      <trkpt lat="45.81715" lon="5.49066">
        <ele>467.8</ele>
        <time>2023-05-28T07:56:52Z</time>
      </trkpt>
      <trkpt lat="45.81713" lon="5.49062">
        <ele>467.8</ele>
        <time>2023-05-28T07:56:53Z</time>
      </trkpt>
      <trkpt lat="45.8171" lon="5.49058">
        <ele>467.8</ele>
        <time>2023-05-28T07:56:54Z</time>
      </trkpt>
      <trkpt lat="45.81708" lon="5.49054">
        <ele>467.8</ele>
        <time>2023-05-28T07:56:55Z</time>
      </trkpt>
      <trkpt lat="45.81706" lon="5.4905">
        <ele>467.8</ele>
        <time>2023-05-28T07:56:56Z</time>
      </trkpt>
      <trkpt lat="45.81704" lon="5.49047">
        <ele>467.8</ele>
        <time>2023-05-28T07:56:57Z</time>
      </trkpt>
      <trkpt lat="45.81702" lon="5.49045">
        <ele>467.8</ele>
        <time>2023-05-28T07:56:58Z</time>
      </trkpt>
      <trkpt lat="45.81699" lon="5.49043">
        <ele>467.8</ele>
        <time>2023-05-28T07:56:59Z</time>
      </trkpt>
      <trkpt lat="45.81696" lon="5.49041">
        <ele>467.8</ele>
        <time>2023-05-28T07:57:00Z</time>
      </trkpt>
      <trkpt lat="45.81693" lon="5.4904">
        <ele>467.8</ele>
        <time>2023-05-28T07:57:01Z</time>
      </trkpt>
      <trkpt lat="45.8169" lon="5.4904">
        <ele>467.8</ele>
        <time>2023-05-28T07:57:02Z</time>
      </trkpt>
      <trkpt lat="45.81688" lon="5.49039">
        <ele>467.8</ele>
        <time>2023-05-28T07:57:03Z</time>
      </trkpt>
      <trkpt lat="45.81685" lon="5.49038">
        <ele>467.8</ele>
        <time>2023-05-28T07:57:04Z</time>
      </trkpt>
      <trkpt lat="45.81682" lon="5.49036">
        <ele>467.8</ele>
        <time>2023-05-28T07:57:05Z</time>
      </trkpt>
      <trkpt lat="45.8168" lon="5.49034">
        <ele>467.8</ele>
        <time>2023-05-28T07:57:06Z</time>
      </trkpt>
      <trkpt lat="45.81677" lon="5.4903">
        <ele>467.8</ele>
        <time>2023-05-28T07:57:07Z</time>
      </trkpt>
      <trkpt lat="45.81676" lon="5.49026">
        <ele>467.8</ele>
        <time>2023-05-28T07:57:08Z</time>
      </trkpt>
      <trkpt lat="45.81675" lon="5.49021">
        <ele>467.8</ele>
        <time>2023-05-28T07:57:09Z</time>
      </trkpt>
      <trkpt lat="45.81674" lon="5.49016">
        <ele>468</ele>
        <time>2023-05-28T07:57:10Z</time>
      </trkpt>
      <trkpt lat="45.81674" lon="5.49012">
        <ele>468</ele>
        <time>2023-05-28T07:57:11Z</time>
      </trkpt>
      <trkpt lat="45.81673" lon="5.49007">
        <ele>468.2</ele>
        <time>2023-05-28T07:57:12Z</time>
      </trkpt>
      <trkpt lat="45.81673" lon="5.49002">
        <ele>468.2</ele>
        <time>2023-05-28T07:57:13Z</time>
      </trkpt>
      <trkpt lat="45.81673" lon="5.48998">
        <ele>468.6</ele>
        <time>2023-05-28T07:57:14Z</time>
      </trkpt>
      <trkpt lat="45.81672" lon="5.48994">
        <ele>468.8</ele>
        <time>2023-05-28T07:57:15Z</time>
      </trkpt>
      <trkpt lat="45.81672" lon="5.4899">
        <ele>468.8</ele>
        <time>2023-05-28T07:57:16Z</time>
      </trkpt>
      <trkpt lat="45.81671" lon="5.48986">
        <ele>469</ele>
        <time>2023-05-28T07:57:17Z</time>
      </trkpt>
      <trkpt lat="45.8167" lon="5.48982">
        <ele>469.2</ele>
        <time>2023-05-28T07:57:18Z</time>
      </trkpt>
      <trkpt lat="45.81669" lon="5.48977">
        <ele>469.2</ele>
        <time>2023-05-28T07:57:19Z</time>
      </trkpt>
      <trkpt lat="45.81668" lon="5.48973">
        <ele>469.2</ele>
        <time>2023-05-28T07:57:20Z</time>
      </trkpt>
      <trkpt lat="45.81668" lon="5.48969">
        <ele>469.4</ele>
        <time>2023-05-28T07:57:21Z</time>
      </trkpt>
      <trkpt lat="45.81667" lon="5.48965">
        <ele>469.6</ele>
        <time>2023-05-28T07:57:22Z</time>
      </trkpt>
      <trkpt lat="45.81666" lon="5.48961">
        <ele>469.8</ele>
        <time>2023-05-28T07:57:23Z</time>
      </trkpt>
      <trkpt lat="45.81666" lon="5.48957">
        <ele>470</ele>
        <time>2023-05-28T07:57:24Z</time>
      </trkpt>
      <trkpt lat="45.81665" lon="5.48953">
        <ele>470</ele>
        <time>2023-05-28T07:57:25Z</time>
      </trkpt>
      <trkpt lat="45.81663" lon="5.48949">
        <ele>470.2</ele>
        <time>2023-05-28T07:57:26Z</time>
      </trkpt>
      <trkpt lat="45.81662" lon="5.48945">
        <ele>470.2</ele>
        <time>2023-05-28T07:57:27Z</time>
      </trkpt>
      <trkpt lat="45.81661" lon="5.48941">
        <ele>470.6</ele>
        <time>2023-05-28T07:57:28Z</time>
      </trkpt>
      <trkpt lat="45.8166" lon="5.48937">
        <ele>470.8</ele>
        <time>2023-05-28T07:57:29Z</time>
      </trkpt>
      <trkpt lat="45.81659" lon="5.48934">
        <ele>471.2</ele>
        <time>2023-05-28T07:57:30Z</time>
      </trkpt>
      <trkpt lat="45.81658" lon="5.4893">
        <ele>471.4</ele>
        <time>2023-05-28T07:57:31Z</time>
      </trkpt>
      <trkpt lat="45.81658" lon="5.48927">
        <ele>471.6</ele>
        <time>2023-05-28T07:57:32Z</time>
      </trkpt>
      <trkpt lat="45.81657" lon="5.48923">
        <ele>471.8</ele>
        <time>2023-05-28T07:57:33Z</time>
      </trkpt>
      <trkpt lat="45.81656" lon="5.4892">
        <ele>471.8</ele>
        <time>2023-05-28T07:57:34Z</time>
      </trkpt>
      <trkpt lat="45.81655" lon="5.48916">
        <ele>472</ele>
        <time>2023-05-28T07:57:35Z</time>
      </trkpt>
      <trkpt lat="45.81653" lon="5.48912">
        <ele>472.2</ele>
        <time>2023-05-28T07:57:36Z</time>
      </trkpt>
      <trkpt lat="45.81652" lon="5.48909">
        <ele>472.4</ele>
        <time>2023-05-28T07:57:37Z</time>
      </trkpt>
      <trkpt lat="45.8165" lon="5.48905">
        <ele>472.6</ele>
        <time>2023-05-28T07:57:38Z</time>
      </trkpt>
      <trkpt lat="45.81648" lon="5.48902">
        <ele>472.8</ele>
        <time>2023-05-28T07:57:39Z</time>
      </trkpt>
      <trkpt lat="45.81647" lon="5.48898">
        <ele>472.8</ele>
        <time>2023-05-28T07:57:40Z</time>
      </trkpt>
      <trkpt lat="45.81646" lon="5.48894">
        <ele>472.8</ele>
        <time>2023-05-28T07:57:41Z</time>
      </trkpt>
      <trkpt lat="45.81645" lon="5.48891">
        <ele>473</ele>
        <time>2023-05-28T07:57:42Z</time>
      </trkpt>
      <trkpt lat="45.81643" lon="5.48887">
        <ele>473.2</ele>
        <time>2023-05-28T07:57:43Z</time>
      </trkpt>
      <trkpt lat="45.81642" lon="5.48884">
        <ele>473.4</ele>
        <time>2023-05-28T07:57:44Z</time>
      </trkpt>
      <trkpt lat="45.81641" lon="5.4888">
        <ele>473.6</ele>
        <time>2023-05-28T07:57:45Z</time>
      </trkpt>
      <trkpt lat="45.81639" lon="5.48877">
        <ele>473.6</ele>
        <time>2023-05-28T07:57:46Z</time>
      </trkpt>
      <trkpt lat="45.81638" lon="5.48874">
        <ele>473.8</ele>
        <time>2023-05-28T07:57:47Z</time>
      </trkpt>
      <trkpt lat="45.81636" lon="5.4887">
        <ele>473.8</ele>
        <time>2023-05-28T07:57:48Z</time>
      </trkpt>
      <trkpt lat="45.81634" lon="5.48866">
        <ele>473.8</ele>
        <time>2023-05-28T07:57:49Z</time>
      </trkpt>
      <trkpt lat="45.81633" lon="5.48862">
        <ele>473.8</ele>
        <time>2023-05-28T07:57:50Z</time>
      </trkpt>
      <trkpt lat="45.81631" lon="5.48858">
        <ele>474</ele>
        <time>2023-05-28T07:57:51Z</time>
      </trkpt>
      <trkpt lat="45.81631" lon="5.48854">
        <ele>474</ele>
        <time>2023-05-28T07:57:52Z</time>
      </trkpt>
      <trkpt lat="45.8163" lon="5.4885">
        <ele>474</ele>
        <time>2023-05-28T07:57:53Z</time>
      </trkpt>
      <trkpt lat="45.81629" lon="5.48846">
        <ele>474</ele>
        <time>2023-05-28T07:57:54Z</time>
      </trkpt>
      <trkpt lat="45.81628" lon="5.48842">
        <ele>474</ele>
        <time>2023-05-28T07:57:55Z</time>
      </trkpt>
      <trkpt lat="45.81628" lon="5.48837">
        <ele>474</ele>
        <time>2023-05-28T07:57:56Z</time>
      </trkpt>
      <trkpt lat="45.81629" lon="5.48833">
        <ele>474.2</ele>
        <time>2023-05-28T07:57:57Z</time>
      </trkpt>
      <trkpt lat="45.8163" lon="5.48829">
        <ele>474.2</ele>
        <time>2023-05-28T07:57:58Z</time>
      </trkpt>
      <trkpt lat="45.81631" lon="5.48825">
        <ele>474.4</ele>
        <time>2023-05-28T07:57:59Z</time>
      </trkpt>
      <trkpt lat="45.81632" lon="5.48821">
        <ele>474.6</ele>
        <time>2023-05-28T07:58:00Z</time>
      </trkpt>
      <trkpt lat="45.81633" lon="5.48817">
        <ele>474.8</ele>
        <time>2023-05-28T07:58:01Z</time>
      </trkpt>
      <trkpt lat="45.81635" lon="5.48813">
        <ele>474.8</ele>
        <time>2023-05-28T07:58:02Z</time>
      </trkpt>
      <trkpt lat="45.81637" lon="5.48809">
        <ele>475</ele>
        <time>2023-05-28T07:58:03Z</time>
      </trkpt>
      <trkpt lat="45.81638" lon="5.48806">
        <ele>475.2</ele>
        <time>2023-05-28T07:58:04Z</time>
      </trkpt>
      <trkpt lat="45.81639" lon="5.48802">
        <ele>475.6</ele>
        <time>2023-05-28T07:58:05Z</time>
      </trkpt>
      <trkpt lat="45.81641" lon="5.48798">
        <ele>475.8</ele>
        <time>2023-05-28T07:58:06Z</time>
      </trkpt>
      <trkpt lat="45.81642" lon="5.48794">
        <ele>476.2</ele>
        <time>2023-05-28T07:58:07Z</time>
      </trkpt>
      <trkpt lat="45.81643" lon="5.4879">
        <ele>476.6</ele>
        <time>2023-05-28T07:58:08Z</time>
      </trkpt>
      <trkpt lat="45.81644" lon="5.48786">
        <ele>476.6</ele>
        <time>2023-05-28T07:58:09Z</time>
      </trkpt>
      <trkpt lat="45.81645" lon="5.48782">
        <ele>476.8</ele>
        <time>2023-05-28T07:58:10Z</time>
      </trkpt>
      <trkpt lat="45.81646" lon="5.48778">
        <ele>477</ele>
        <time>2023-05-28T07:58:11Z</time>
      </trkpt>
      <trkpt lat="45.81647" lon="5.48774">
        <ele>477.4</ele>
        <time>2023-05-28T07:58:12Z</time>
      </trkpt>
      <trkpt lat="45.81648" lon="5.4877">
        <ele>478</ele>
        <time>2023-05-28T07:58:13Z</time>
      </trkpt>
      <trkpt lat="45.81649" lon="5.48766">
        <ele>478.4</ele>
        <time>2023-05-28T07:58:14Z</time>
      </trkpt>
      <trkpt lat="45.8165" lon="5.48761">
        <ele>478.8</ele>
        <time>2023-05-28T07:58:15Z</time>
      </trkpt>
      <trkpt lat="45.81651" lon="5.48757">
        <ele>479</ele>
        <time>2023-05-28T07:58:16Z</time>
      </trkpt>
      <trkpt lat="45.81653" lon="5.48753">
        <ele>479.2</ele>
        <time>2023-05-28T07:58:17Z</time>
      </trkpt>
      <trkpt lat="45.81655" lon="5.4875">
        <ele>479.2</ele>
        <time>2023-05-28T07:58:18Z</time>
      </trkpt>
      <trkpt lat="45.81657" lon="5.48746">
        <ele>479.6</ele>
        <time>2023-05-28T07:58:19Z</time>
      </trkpt>
      <trkpt lat="45.81659" lon="5.48744">
        <ele>479.8</ele>
        <time>2023-05-28T07:58:20Z</time>
      </trkpt>
      <trkpt lat="45.81662" lon="5.48741">
        <ele>480.2</ele>
        <time>2023-05-28T07:58:21Z</time>
      </trkpt>
      <trkpt lat="45.81665" lon="5.4874">
        <ele>480.4</ele>
        <time>2023-05-28T07:58:22Z</time>
      </trkpt>
      <trkpt lat="45.81667" lon="5.48738">
        <ele>480.4</ele>
        <time>2023-05-28T07:58:23Z</time>
      </trkpt>
      <trkpt lat="45.8167" lon="5.48736">
        <ele>480.8</ele>
        <time>2023-05-28T07:58:24Z</time>
      </trkpt>
      <trkpt lat="45.81673" lon="5.48735">
        <ele>480.8</ele>
        <time>2023-05-28T07:58:25Z</time>
      </trkpt>
      <trkpt lat="45.81675" lon="5.48733">
        <ele>481.2</ele>
        <time>2023-05-28T07:58:26Z</time>
      </trkpt>
      <trkpt lat="45.81678" lon="5.48731">
        <ele>481.2</ele>
        <time>2023-05-28T07:58:27Z</time>
      </trkpt>
      <trkpt lat="45.81681" lon="5.48729">
        <ele>481.4</ele>
        <time>2023-05-28T07:58:28Z</time>
      </trkpt>
      <trkpt lat="45.81683" lon="5.48727">
        <ele>481.8</ele>
        <time>2023-05-28T07:58:29Z</time>
      </trkpt>
      <trkpt lat="45.81686" lon="5.48724">
        <ele>482</ele>
        <time>2023-05-28T07:58:30Z</time>
      </trkpt>
      <trkpt lat="45.81688" lon="5.48721">
        <ele>482.4</ele>
        <time>2023-05-28T07:58:31Z</time>
      </trkpt>
      <trkpt lat="45.8169" lon="5.48718">
        <ele>482.6</ele>
        <time>2023-05-28T07:58:32Z</time>
      </trkpt>
      <trkpt lat="45.81691" lon="5.48714">
        <ele>482.8</ele>
        <time>2023-05-28T07:58:33Z</time>
      </trkpt>
      <trkpt lat="45.81693" lon="5.4871">
        <ele>483</ele>
        <time>2023-05-28T07:58:34Z</time>
      </trkpt>
      <trkpt lat="45.81694" lon="5.48706">
        <ele>483.2</ele>
        <time>2023-05-28T07:58:35Z</time>
      </trkpt>
      <trkpt lat="45.81694" lon="5.48702">
        <ele>483.6</ele>
        <time>2023-05-28T07:58:36Z</time>
      </trkpt>
      <trkpt lat="45.81694" lon="5.48697">
        <ele>483.8</ele>
        <time>2023-05-28T07:58:37Z</time>
      </trkpt>
      <trkpt lat="45.81694" lon="5.48693">
        <ele>484</ele>
        <time>2023-05-28T07:58:38Z</time>
      </trkpt>
      <trkpt lat="45.81694" lon="5.48689">
        <ele>484.2</ele>
        <time>2023-05-28T07:58:39Z</time>
      </trkpt>
      <trkpt lat="45.81693" lon="5.48684">
        <ele>484.6</ele>
        <time>2023-05-28T07:58:40Z</time>
      </trkpt>
      <trkpt lat="45.81693" lon="5.4868">
        <ele>484.6</ele>
        <time>2023-05-28T07:58:41Z</time>
      </trkpt>
      <trkpt lat="45.81692" lon="5.48676">
        <ele>485</ele>
        <time>2023-05-28T07:58:42Z</time>
      </trkpt>
      <trkpt lat="45.81691" lon="5.48672">
        <ele>485.2</ele>
        <time>2023-05-28T07:58:43Z</time>
      </trkpt>
      <trkpt lat="45.8169" lon="5.48668">
        <ele>485.4</ele>
        <time>2023-05-28T07:58:44Z</time>
      </trkpt>
      <trkpt lat="45.81689" lon="5.48664">
        <ele>485.6</ele>
        <time>2023-05-28T07:58:45Z</time>
      </trkpt>
      <trkpt lat="45.81688" lon="5.48661">
        <ele>485.8</ele>
        <time>2023-05-28T07:58:46Z</time>
      </trkpt>
      <trkpt lat="45.81687" lon="5.48657">
        <ele>486</ele>
        <time>2023-05-28T07:58:47Z</time>
      </trkpt>
      <trkpt lat="45.81685" lon="5.48654">
        <ele>486</ele>
        <time>2023-05-28T07:58:48Z</time>
      </trkpt>
      <trkpt lat="45.81683" lon="5.4865">
        <ele>486.2</ele>
        <time>2023-05-28T07:58:49Z</time>
      </trkpt>
      <trkpt lat="45.81682" lon="5.48647">
        <ele>486.4</ele>
        <time>2023-05-28T07:58:50Z</time>
      </trkpt>
      <trkpt lat="45.8168" lon="5.48643">
        <ele>486.4</ele>
        <time>2023-05-28T07:58:51Z</time>
      </trkpt>
      <trkpt lat="45.81679" lon="5.4864">
        <ele>486.4</ele>
        <time>2023-05-28T07:58:52Z</time>
      </trkpt>
      <trkpt lat="45.81677" lon="5.48637">
        <ele>486.4</ele>
        <time>2023-05-28T07:58:53Z</time>
      </trkpt>
      <trkpt lat="45.81675" lon="5.48633">
        <ele>486.4</ele>
        <time>2023-05-28T07:58:54Z</time>
      </trkpt>
      <trkpt lat="45.81673" lon="5.4863">
        <ele>486.4</ele>
        <time>2023-05-28T07:58:55Z</time>
      </trkpt>
      <trkpt lat="45.81671" lon="5.48627">
        <ele>486.4</ele>
        <time>2023-05-28T07:58:56Z</time>
      </trkpt>
      <trkpt lat="45.8167" lon="5.48624">
        <ele>486.6</ele>
        <time>2023-05-28T07:58:57Z</time>
      </trkpt>
      <trkpt lat="45.81668" lon="5.48621">
        <ele>486.6</ele>
        <time>2023-05-28T07:58:58Z</time>
      </trkpt>
      <trkpt lat="45.81665" lon="5.48617">
        <ele>486.6</ele>
        <time>2023-05-28T07:58:59Z</time>
      </trkpt>
      <trkpt lat="45.81664" lon="5.48614">
        <ele>486.6</ele>
        <time>2023-05-28T07:59:00Z</time>
      </trkpt>
      <trkpt lat="45.81662" lon="5.48611">
        <ele>486.6</ele>
        <time>2023-05-28T07:59:01Z</time>
      </trkpt>
      <trkpt lat="45.81661" lon="5.48607">
        <ele>486.8</ele>
        <time>2023-05-28T07:59:02Z</time>
      </trkpt>
      <trkpt lat="45.81661" lon="5.48603">
        <ele>486.8</ele>
        <time>2023-05-28T07:59:03Z</time>
      </trkpt>
      <trkpt lat="45.81662" lon="5.48599">
        <ele>486.8</ele>
        <time>2023-05-28T07:59:04Z</time>
      </trkpt>
      <trkpt lat="45.81665" lon="5.48596">
        <ele>486.8</ele>
        <time>2023-05-28T07:59:05Z</time>
      </trkpt>
      <trkpt lat="45.81669" lon="5.48596">
        <ele>487</ele>
        <time>2023-05-28T07:59:06Z</time>
      </trkpt>
      <trkpt lat="45.81672" lon="5.48598">
        <ele>487</ele>
        <time>2023-05-28T07:59:07Z</time>
      </trkpt>
      <trkpt lat="45.81675" lon="5.48601">
        <ele>487.2</ele>
        <time>2023-05-28T07:59:08Z</time>
      </trkpt>
      <trkpt lat="45.81677" lon="5.48604">
        <ele>487.2</ele>
        <time>2023-05-28T07:59:09Z</time>
      </trkpt>
      <trkpt lat="45.8168" lon="5.48608">
        <ele>487.4</ele>
        <time>2023-05-28T07:59:10Z</time>
      </trkpt>
      <trkpt lat="45.81683" lon="5.48611">
        <ele>487.4</ele>
        <time>2023-05-28T07:59:11Z</time>
      </trkpt>
      <trkpt lat="45.81685" lon="5.48615">
        <ele>487.6</ele>
        <time>2023-05-28T07:59:12Z</time>
      </trkpt>
      <trkpt lat="45.81688" lon="5.48618">
        <ele>487.8</ele>
        <time>2023-05-28T07:59:13Z</time>
      </trkpt>
      <trkpt lat="45.8169" lon="5.48621">
        <ele>488</ele>
        <time>2023-05-28T07:59:14Z</time>
      </trkpt>
      <trkpt lat="45.81693" lon="5.48624">
        <ele>488.2</ele>
        <time>2023-05-28T07:59:15Z</time>
      </trkpt>
      <trkpt lat="45.81696" lon="5.48628">
        <ele>488.2</ele>
        <time>2023-05-28T07:59:16Z</time>
      </trkpt>
      <trkpt lat="45.81699" lon="5.48632">
        <ele>488.6</ele>
        <time>2023-05-28T07:59:17Z</time>
      </trkpt>
      <trkpt lat="45.81701" lon="5.48635">
        <ele>488.6</ele>
        <time>2023-05-28T07:59:18Z</time>
      </trkpt>
      <trkpt lat="45.81704" lon="5.48639">
        <ele>488.8</ele>
        <time>2023-05-28T07:59:19Z</time>
      </trkpt>
      <trkpt lat="45.81706" lon="5.48642">
        <ele>489</ele>
        <time>2023-05-28T07:59:20Z</time>
      </trkpt>
      <trkpt lat="45.81709" lon="5.48646">
        <ele>489.2</ele>
        <time>2023-05-28T07:59:21Z</time>
      </trkpt>
      <trkpt lat="45.81712" lon="5.48649">
        <ele>489.4</ele>
        <time>2023-05-28T07:59:22Z</time>
      </trkpt>
      <trkpt lat="45.81714" lon="5.48652">
        <ele>489.6</ele>
        <time>2023-05-28T07:59:23Z</time>
      </trkpt>
      <trkpt lat="45.81717" lon="5.48654">
        <ele>489.8</ele>
        <time>2023-05-28T07:59:24Z</time>
      </trkpt>
      <trkpt lat="45.81721" lon="5.48656">
        <ele>490</ele>
        <time>2023-05-28T07:59:25Z</time>
      </trkpt>
      <trkpt lat="45.81724" lon="5.48657">
        <ele>490.6</ele>
        <time>2023-05-28T07:59:26Z</time>
      </trkpt>
      <trkpt lat="45.81728" lon="5.48657">
        <ele>491</ele>
        <time>2023-05-28T07:59:27Z</time>
      </trkpt>
      <trkpt lat="45.81731" lon="5.48657">
        <ele>491.2</ele>
        <time>2023-05-28T07:59:28Z</time>
      </trkpt>
      <trkpt lat="45.81735" lon="5.48656">
        <ele>491.4</ele>
        <time>2023-05-28T07:59:29Z</time>
      </trkpt>
      <trkpt lat="45.81738" lon="5.48654">
        <ele>491.6</ele>
        <time>2023-05-28T07:59:30Z</time>
      </trkpt>
      <trkpt lat="45.81742" lon="5.48652">
        <ele>492</ele>
        <time>2023-05-28T07:59:31Z</time>
      </trkpt>
      <trkpt lat="45.81745" lon="5.48651">
        <ele>492</ele>
        <time>2023-05-28T07:59:32Z</time>
      </trkpt>
      <trkpt lat="45.81749" lon="5.48649">
        <ele>492.2</ele>
        <time>2023-05-28T07:59:33Z</time>
      </trkpt>
      <trkpt lat="45.81752" lon="5.48647">
        <ele>492.4</ele>
        <time>2023-05-28T07:59:34Z</time>
      </trkpt>
      <trkpt lat="45.81755" lon="5.48645">
        <ele>492.6</ele>
        <time>2023-05-28T07:59:35Z</time>
      </trkpt>
      <trkpt lat="45.81758" lon="5.48644">
        <ele>493</ele>
        <time>2023-05-28T07:59:36Z</time>
      </trkpt>
      <trkpt lat="45.81761" lon="5.48642">
        <ele>493.4</ele>
        <time>2023-05-28T07:59:37Z</time>
      </trkpt>
      <trkpt lat="45.81764" lon="5.4864">
        <ele>493.8</ele>
        <time>2023-05-28T07:59:38Z</time>
      </trkpt>
      <trkpt lat="45.81768" lon="5.48638">
        <ele>494</ele>
        <time>2023-05-28T07:59:39Z</time>
      </trkpt>
      <trkpt lat="45.81771" lon="5.48636">
        <ele>494.2</ele>
        <time>2023-05-28T07:59:40Z</time>
      </trkpt>
      <trkpt lat="45.81774" lon="5.48635">
        <ele>494.4</ele>
        <time>2023-05-28T07:59:41Z</time>
      </trkpt>
      <trkpt lat="45.81778" lon="5.48633">
        <ele>494.6</ele>
        <time>2023-05-28T07:59:42Z</time>
      </trkpt>
      <trkpt lat="45.81781" lon="5.48632">
        <ele>495</ele>
        <time>2023-05-28T07:59:43Z</time>
      </trkpt>
      <trkpt lat="45.81784" lon="5.48631">
        <ele>495</ele>
        <time>2023-05-28T07:59:44Z</time>
      </trkpt>
      <trkpt lat="45.81787" lon="5.4863">
        <ele>495.4</ele>
        <time>2023-05-28T07:59:45Z</time>
      </trkpt>
      <trkpt lat="45.8179" lon="5.48629">
        <ele>495.4</ele>
        <time>2023-05-28T07:59:46Z</time>
      </trkpt>
      <trkpt lat="45.81794" lon="5.48628">
        <ele>495.6</ele>
        <time>2023-05-28T07:59:47Z</time>
      </trkpt>
      <trkpt lat="45.81797" lon="5.48627">
        <ele>495.8</ele>
        <time>2023-05-28T07:59:48Z</time>
      </trkpt>
      <trkpt lat="45.818" lon="5.48627">
        <ele>496.2</ele>
        <time>2023-05-28T07:59:49Z</time>
      </trkpt>
      <trkpt lat="45.81804" lon="5.48626">
        <ele>496.6</ele>
        <time>2023-05-28T07:59:50Z</time>
      </trkpt>
      <trkpt lat="45.81807" lon="5.48626">
        <ele>496.8</ele>
        <time>2023-05-28T07:59:51Z</time>
      </trkpt>
      <trkpt lat="45.8181" lon="5.48625">
        <ele>497.2</ele>
        <time>2023-05-28T07:59:52Z</time>
      </trkpt>
      <trkpt lat="45.81813" lon="5.48625">
        <ele>497.4</ele>
        <time>2023-05-28T07:59:53Z</time>
      </trkpt>
      <trkpt lat="45.81816" lon="5.48624">
        <ele>497.6</ele>
        <time>2023-05-28T07:59:54Z</time>
      </trkpt>
      <trkpt lat="45.81819" lon="5.48623">
        <ele>497.8</ele>
        <time>2023-05-28T07:59:55Z</time>
      </trkpt>
      <trkpt lat="45.81823" lon="5.48622">
        <ele>498.2</ele>
        <time>2023-05-28T07:59:56Z</time>
      </trkpt>
      <trkpt lat="45.81826" lon="5.48621">
        <ele>498.6</ele>
        <time>2023-05-28T07:59:57Z</time>
      </trkpt>
      <trkpt lat="45.8183" lon="5.4862">
        <ele>498.8</ele>
        <time>2023-05-28T07:59:58Z</time>
      </trkpt>
      <trkpt lat="45.81833" lon="5.48618">
        <ele>499.2</ele>
        <time>2023-05-28T07:59:59Z</time>
      </trkpt>
      <trkpt lat="45.81836" lon="5.48616">
        <ele>499.2</ele>
        <time>2023-05-28T08:00:00Z</time>
      </trkpt>
      <trkpt lat="45.8184" lon="5.48613">
        <ele>499.6</ele>
        <time>2023-05-28T08:00:01Z</time>
      </trkpt>
      <trkpt lat="45.81842" lon="5.48611">
        <ele>499.6</ele>
        <time>2023-05-28T08:00:02Z</time>
      </trkpt>
      <trkpt lat="45.81845" lon="5.48609">
        <ele>499.8</ele>
        <time>2023-05-28T08:00:03Z</time>
      </trkpt>
      <trkpt lat="45.81848" lon="5.48607">
        <ele>500</ele>
        <time>2023-05-28T08:00:04Z</time>
      </trkpt>
      <trkpt lat="45.81851" lon="5.48603">
        <ele>500</ele>
        <time>2023-05-28T08:00:05Z</time>
      </trkpt>
      <trkpt lat="45.81853" lon="5.486">
        <ele>500.2</ele>
        <time>2023-05-28T08:00:06Z</time>
      </trkpt>
      <trkpt lat="45.81855" lon="5.48597">
        <ele>500.2</ele>
        <time>2023-05-28T08:00:07Z</time>
      </trkpt>
      <trkpt lat="45.81857" lon="5.48595">
        <ele>500.6</ele>
        <time>2023-05-28T08:00:08Z</time>
      </trkpt>
      <trkpt lat="45.8186" lon="5.48591">
        <ele>500.8</ele>
        <time>2023-05-28T08:00:09Z</time>
      </trkpt>
      <trkpt lat="45.81862" lon="5.48588">
        <ele>501.2</ele>
        <time>2023-05-28T08:00:10Z</time>
      </trkpt>
      <trkpt lat="45.81865" lon="5.48584">
        <ele>501.4</ele>
        <time>2023-05-28T08:00:11Z</time>
      </trkpt>
      <trkpt lat="45.81867" lon="5.4858">
        <ele>501.6</ele>
        <time>2023-05-28T08:00:12Z</time>
      </trkpt>
      <trkpt lat="45.81869" lon="5.48577">
        <ele>501.8</ele>
        <time>2023-05-28T08:00:13Z</time>
      </trkpt>
      <trkpt lat="45.81871" lon="5.48574">
        <ele>502</ele>
        <time>2023-05-28T08:00:14Z</time>
      </trkpt>
      <trkpt lat="45.81873" lon="5.48571">
        <ele>502.6</ele>
        <time>2023-05-28T08:00:15Z</time>
      </trkpt>
      <trkpt lat="45.81875" lon="5.48566">
        <ele>502.8</ele>
        <time>2023-05-28T08:00:16Z</time>
      </trkpt>
      <trkpt lat="45.81877" lon="5.48563">
        <ele>503.2</ele>
        <time>2023-05-28T08:00:17Z</time>
      </trkpt>
      <trkpt lat="45.81879" lon="5.48559">
        <ele>503.4</ele>
        <time>2023-05-28T08:00:18Z</time>
      </trkpt>
      <trkpt lat="45.81881" lon="5.48556">
        <ele>503.8</ele>
        <time>2023-05-28T08:00:19Z</time>
      </trkpt>
      <trkpt lat="45.81883" lon="5.48553">
        <ele>504.4</ele>
        <time>2023-05-28T08:00:20Z</time>
      </trkpt>
      <trkpt lat="45.81885" lon="5.48549">
        <ele>504.6</ele>
        <time>2023-05-28T08:00:21Z</time>
      </trkpt>
      <trkpt lat="45.81887" lon="5.48545">
        <ele>505</ele>
        <time>2023-05-28T08:00:22Z</time>
      </trkpt>
      <trkpt lat="45.81889" lon="5.48543">
        <ele>505.2</ele>
        <time>2023-05-28T08:00:23Z</time>
      </trkpt>
      <trkpt lat="45.81891" lon="5.48539">
        <ele>505.8</ele>
        <time>2023-05-28T08:00:24Z</time>
      </trkpt>
      <trkpt lat="45.81893" lon="5.48536">
        <ele>506</ele>
        <time>2023-05-28T08:00:25Z</time>
      </trkpt>
      <trkpt lat="45.81895" lon="5.48531">
        <ele>506.4</ele>
        <time>2023-05-28T08:00:26Z</time>
      </trkpt>
      <trkpt lat="45.81897" lon="5.48528">
        <ele>506.6</ele>
        <time>2023-05-28T08:00:27Z</time>
      </trkpt>
      <trkpt lat="45.819" lon="5.48524">
        <ele>506.8</ele>
        <time>2023-05-28T08:00:28Z</time>
      </trkpt>
      <trkpt lat="45.81902" lon="5.4852">
        <ele>507.2</ele>
        <time>2023-05-28T08:00:29Z</time>
      </trkpt>
      <trkpt lat="45.81904" lon="5.48517">
        <ele>507.4</ele>
        <time>2023-05-28T08:00:30Z</time>
      </trkpt>
      <trkpt lat="45.81907" lon="5.48513">
        <ele>507.8</ele>
        <time>2023-05-28T08:00:31Z</time>
      </trkpt>
      <trkpt lat="45.81909" lon="5.4851">
        <ele>508</ele>
        <time>2023-05-28T08:00:32Z</time>
      </trkpt>
      <trkpt lat="45.81911" lon="5.48506">
        <ele>508.4</ele>
        <time>2023-05-28T08:00:33Z</time>
      </trkpt>
      <trkpt lat="45.81913" lon="5.48504">
        <ele>508.8</ele>
        <time>2023-05-28T08:00:34Z</time>
      </trkpt>
      <trkpt lat="45.81915" lon="5.485">
        <ele>509</ele>
        <time>2023-05-28T08:00:35Z</time>
      </trkpt>
      <trkpt lat="45.81918" lon="5.48497">
        <ele>509.4</ele>
        <time>2023-05-28T08:00:36Z</time>
      </trkpt>
      <trkpt lat="45.81921" lon="5.48494">
        <ele>509.4</ele>
        <time>2023-05-28T08:00:37Z</time>
      </trkpt>
      <trkpt lat="45.81923" lon="5.48491">
        <ele>509.8</ele>
        <time>2023-05-28T08:00:38Z</time>
      </trkpt>
      <trkpt lat="45.81926" lon="5.48487">
        <ele>509.8</ele>
        <time>2023-05-28T08:00:39Z</time>
      </trkpt>
      <trkpt lat="45.8193" lon="5.48483">
        <ele>509.8</ele>
        <time>2023-05-28T08:00:40Z</time>
      </trkpt>
      <trkpt lat="45.81933" lon="5.48479">
        <ele>510</ele>
        <time>2023-05-28T08:00:41Z</time>
      </trkpt>
      <trkpt lat="45.81937" lon="5.48474">
        <ele>510.2</ele>
        <time>2023-05-28T08:00:42Z</time>
      </trkpt>
      <trkpt lat="45.81941" lon="5.48468">
        <ele>510.4</ele>
        <time>2023-05-28T08:00:43Z</time>
      </trkpt>
      <trkpt lat="45.81944" lon="5.48462">
        <ele>510.4</ele>
        <time>2023-05-28T08:00:44Z</time>
      </trkpt>
      <trkpt lat="45.81948" lon="5.48456">
        <ele>510.4</ele>
        <time>2023-05-28T08:00:45Z</time>
      </trkpt>
      <trkpt lat="45.81953" lon="5.48448">
        <ele>510.6</ele>
        <time>2023-05-28T08:00:46Z</time>
      </trkpt>
      <trkpt lat="45.81957" lon="5.48441">
        <ele>510.6</ele>
        <time>2023-05-28T08:00:47Z</time>
      </trkpt>
      <trkpt lat="45.81961" lon="5.48434">
        <ele>510.6</ele>
        <time>2023-05-28T08:00:48Z</time>
      </trkpt>
      <trkpt lat="45.81964" lon="5.48428">
        <ele>510.6</ele>
        <time>2023-05-28T08:00:49Z</time>
      </trkpt>
      <trkpt lat="45.81969" lon="5.48421">
        <ele>510.6</ele>
        <time>2023-05-28T08:00:50Z</time>
      </trkpt>
      <trkpt lat="45.81974" lon="5.48413">
        <ele>510.6</ele>
        <time>2023-05-28T08:00:51Z</time>
      </trkpt>
      <trkpt lat="45.81979" lon="5.48405">
        <ele>510.6</ele>
        <time>2023-05-28T08:00:52Z</time>
      </trkpt>
      <trkpt lat="45.81985" lon="5.48398">
        <ele>510.6</ele>
        <time>2023-05-28T08:00:53Z</time>
      </trkpt>
      <trkpt lat="45.8199" lon="5.48392">
        <ele>510.6</ele>
        <time>2023-05-28T08:00:54Z</time>
      </trkpt>
      <trkpt lat="45.81997" lon="5.48385">
        <ele>510.6</ele>
        <time>2023-05-28T08:00:55Z</time>
      </trkpt>
      <trkpt lat="45.82003" lon="5.48381">
        <ele>510.2</ele>
        <time>2023-05-28T08:00:56Z</time>
      </trkpt>
      <trkpt lat="45.82012" lon="5.48378">
        <ele>510</ele>
        <time>2023-05-28T08:00:57Z</time>
      </trkpt>
      <trkpt lat="45.8202" lon="5.48375">
        <ele>510</ele>
        <time>2023-05-28T08:00:58Z</time>
      </trkpt>
      <trkpt lat="45.82028" lon="5.48373">
        <ele>510</ele>
        <time>2023-05-28T08:00:59Z</time>
      </trkpt>
      <trkpt lat="45.82034" lon="5.48371">
        <ele>509.8</ele>
        <time>2023-05-28T08:01:00Z</time>
      </trkpt>
      <trkpt lat="45.82042" lon="5.48367">
        <ele>509.6</ele>
        <time>2023-05-28T08:01:01Z</time>
      </trkpt>
      <trkpt lat="45.82059" lon="5.48358">
        <ele>509</ele>
        <time>2023-05-28T08:01:03Z</time>
      </trkpt>
      <trkpt lat="45.82066" lon="5.48353">
        <ele>508.6</ele>
        <time>2023-05-28T08:01:04Z</time>
      </trkpt>
      <trkpt lat="45.82075" lon="5.48346">
        <ele>508.6</ele>
        <time>2023-05-28T08:01:05Z</time>
      </trkpt>
      <trkpt lat="45.82083" lon="5.48339">
        <ele>508.2</ele>
        <time>2023-05-28T08:01:06Z</time>
      </trkpt>
      <trkpt lat="45.82091" lon="5.48333">
        <ele>508</ele>
        <time>2023-05-28T08:01:07Z</time>
      </trkpt>
      <trkpt lat="45.82099" lon="5.48327">
        <ele>507.6</ele>
        <time>2023-05-28T08:01:08Z</time>
      </trkpt>
      <trkpt lat="45.82107" lon="5.4832">
        <ele>507.4</ele>
        <time>2023-05-28T08:01:09Z</time>
      </trkpt>
      <trkpt lat="45.82115" lon="5.48313">
        <ele>507.2</ele>
        <time>2023-05-28T08:01:10Z</time>
      </trkpt>
      <trkpt lat="45.82123" lon="5.48306">
        <ele>507</ele>
        <time>2023-05-28T08:01:11Z</time>
      </trkpt>
      <trkpt lat="45.82131" lon="5.48299">
        <ele>507</ele>
        <time>2023-05-28T08:01:12Z</time>
      </trkpt>
      <trkpt lat="45.82138" lon="5.48292">
        <ele>506.8</ele>
        <time>2023-05-28T08:01:13Z</time>
      </trkpt>
      <trkpt lat="45.82145" lon="5.48285">
        <ele>506.8</ele>
        <time>2023-05-28T08:01:14Z</time>
      </trkpt>
      <trkpt lat="45.82152" lon="5.48278">
        <ele>506.4</ele>
        <time>2023-05-28T08:01:15Z</time>
      </trkpt>
      <trkpt lat="45.8216" lon="5.48271">
        <ele>506.4</ele>
        <time>2023-05-28T08:01:16Z</time>
      </trkpt>
      <trkpt lat="45.82167" lon="5.48264">
        <ele>506</ele>
        <time>2023-05-28T08:01:17Z</time>
      </trkpt>
      <trkpt lat="45.82173" lon="5.48257">
        <ele>505.8</ele>
        <time>2023-05-28T08:01:18Z</time>
      </trkpt>
      <trkpt lat="45.82179" lon="5.48253">
        <ele>505.4</ele>
        <time>2023-05-28T08:01:19Z</time>
      </trkpt>
      <trkpt lat="45.82186" lon="5.4825">
        <ele>505</ele>
        <time>2023-05-28T08:01:20Z</time>
      </trkpt>
      <trkpt lat="45.82196" lon="5.4825">
        <ele>504.8</ele>
        <time>2023-05-28T08:01:21Z</time>
      </trkpt>
      <trkpt lat="45.82204" lon="5.48255">
        <ele>504.2</ele>
        <time>2023-05-28T08:01:22Z</time>
      </trkpt>
      <trkpt lat="45.82211" lon="5.48259">
        <ele>504</ele>
        <time>2023-05-28T08:01:23Z</time>
      </trkpt>
      <trkpt lat="45.82222" lon="5.48265">
        <ele>503.4</ele>
        <time>2023-05-28T08:01:24Z</time>
      </trkpt>
      <trkpt lat="45.82231" lon="5.48266">
        <ele>503.2</ele>
        <time>2023-05-28T08:01:25Z</time>
      </trkpt>
      <trkpt lat="45.82241" lon="5.48266">
        <ele>502.6</ele>
        <time>2023-05-28T08:01:26Z</time>
      </trkpt>
      <trkpt lat="45.82251" lon="5.48264">
        <ele>501.8</ele>
        <time>2023-05-28T08:01:27Z</time>
      </trkpt>
      <trkpt lat="45.82259" lon="5.48263">
        <ele>501.4</ele>
        <time>2023-05-28T08:01:28Z</time>
      </trkpt>
      <trkpt lat="45.82268" lon="5.4826">
        <ele>500.8</ele>
        <time>2023-05-28T08:01:29Z</time>
      </trkpt>
      <trkpt lat="45.82278" lon="5.48258">
        <ele>500.2</ele>
        <time>2023-05-28T08:01:30Z</time>
      </trkpt>
      <trkpt lat="45.82289" lon="5.48258">
        <ele>499.4</ele>
        <time>2023-05-28T08:01:31Z</time>
      </trkpt>
      <trkpt lat="45.82295" lon="5.4826">
        <ele>498.8</ele>
        <time>2023-05-28T08:01:32Z</time>
      </trkpt>
      <trkpt lat="45.82305" lon="5.48265">
        <ele>498.4</ele>
        <time>2023-05-28T08:01:33Z</time>
      </trkpt>
      <trkpt lat="45.82313" lon="5.48271">
        <ele>497.6</ele>
        <time>2023-05-28T08:01:34Z</time>
      </trkpt>
      <trkpt lat="45.82321" lon="5.48276">
        <ele>497.4</ele>
        <time>2023-05-28T08:01:35Z</time>
      </trkpt>
      <trkpt lat="45.82329" lon="5.48282">
        <ele>496.8</ele>
        <time>2023-05-28T08:01:36Z</time>
      </trkpt>
      <trkpt lat="45.82337" lon="5.48288">
        <ele>496.4</ele>
        <time>2023-05-28T08:01:37Z</time>
      </trkpt>
      <trkpt lat="45.82345" lon="5.48293">
        <ele>495.2</ele>
        <time>2023-05-28T08:01:38Z</time>
      </trkpt>
      <trkpt lat="45.82353" lon="5.48298">
        <ele>494.8</ele>
        <time>2023-05-28T08:01:39Z</time>
      </trkpt>
      <trkpt lat="45.82369" lon="5.48308">
        <ele>494.2</ele>
        <time>2023-05-28T08:01:41Z</time>
      </trkpt>
      <trkpt lat="45.82377" lon="5.48313">
        <ele>493.6</ele>
        <time>2023-05-28T08:01:42Z</time>
      </trkpt>
      <trkpt lat="45.82384" lon="5.48318">
        <ele>493.2</ele>
        <time>2023-05-28T08:01:43Z</time>
      </trkpt>
      <trkpt lat="45.82392" lon="5.48324">
        <ele>493.2</ele>
        <time>2023-05-28T08:01:44Z</time>
      </trkpt>
      <trkpt lat="45.82399" lon="5.48331">
        <ele>492.8</ele>
        <time>2023-05-28T08:01:45Z</time>
      </trkpt>
      <trkpt lat="45.82406" lon="5.48338">
        <ele>492.6</ele>
        <time>2023-05-28T08:01:46Z</time>
      </trkpt>
      <trkpt lat="45.82413" lon="5.48345">
        <ele>492</ele>
        <time>2023-05-28T08:01:47Z</time>
      </trkpt>
      <trkpt lat="45.82421" lon="5.48354">
        <ele>491.8</ele>
        <time>2023-05-28T08:01:48Z</time>
      </trkpt>
      <trkpt lat="45.82428" lon="5.48362">
        <ele>491.4</ele>
        <time>2023-05-28T08:01:49Z</time>
      </trkpt>
      <trkpt lat="45.82436" lon="5.48371">
        <ele>491</ele>
        <time>2023-05-28T08:01:50Z</time>
      </trkpt>
      <trkpt lat="45.82444" lon="5.48378">
        <ele>490.8</ele>
        <time>2023-05-28T08:01:51Z</time>
      </trkpt>
      <trkpt lat="45.82453" lon="5.48384">
        <ele>490.4</ele>
        <time>2023-05-28T08:01:52Z</time>
      </trkpt>
      <trkpt lat="45.82462" lon="5.48389">
        <ele>490.2</ele>
        <time>2023-05-28T08:01:53Z</time>
      </trkpt>
      <trkpt lat="45.82472" lon="5.48393">
        <ele>489.6</ele>
        <time>2023-05-28T08:01:54Z</time>
      </trkpt>
      <trkpt lat="45.82482" lon="5.48395">
        <ele>489.4</ele>
        <time>2023-05-28T08:01:55Z</time>
      </trkpt>
      <trkpt lat="45.82493" lon="5.48397">
        <ele>489</ele>
        <time>2023-05-28T08:01:56Z</time>
      </trkpt>
      <trkpt lat="45.82504" lon="5.48399">
        <ele>488.2</ele>
        <time>2023-05-28T08:01:57Z</time>
      </trkpt>
      <trkpt lat="45.82514" lon="5.48401">
        <ele>487.8</ele>
        <time>2023-05-28T08:01:58Z</time>
      </trkpt>
      <trkpt lat="45.82525" lon="5.48403">
        <ele>487.2</ele>
        <time>2023-05-28T08:01:59Z</time>
      </trkpt>
      <trkpt lat="45.82535" lon="5.48407">
        <ele>486.8</ele>
        <time>2023-05-28T08:02:00Z</time>
      </trkpt>
      <trkpt lat="45.82545" lon="5.4841">
        <ele>486.2</ele>
        <time>2023-05-28T08:02:01Z</time>
      </trkpt>
      <trkpt lat="45.82556" lon="5.48414">
        <ele>486</ele>
        <time>2023-05-28T08:02:02Z</time>
      </trkpt>
      <trkpt lat="45.82566" lon="5.48417">
        <ele>485.4</ele>
        <time>2023-05-28T08:02:03Z</time>
      </trkpt>
      <trkpt lat="45.82578" lon="5.4842">
        <ele>485</ele>
        <time>2023-05-28T08:02:04Z</time>
      </trkpt>
      <trkpt lat="45.8259" lon="5.48422">
        <ele>484.6</ele>
        <time>2023-05-28T08:02:05Z</time>
      </trkpt>
      <trkpt lat="45.82601" lon="5.48425">
        <ele>484</ele>
        <time>2023-05-28T08:02:06Z</time>
      </trkpt>
      <trkpt lat="45.82613" lon="5.48428">
        <ele>483.6</ele>
        <time>2023-05-28T08:02:07Z</time>
      </trkpt>
      <trkpt lat="45.82623" lon="5.48431">
        <ele>483.2</ele>
        <time>2023-05-28T08:02:08Z</time>
      </trkpt>
      <trkpt lat="45.82633" lon="5.48434">
        <ele>483</ele>
        <time>2023-05-28T08:02:09Z</time>
      </trkpt>
      <trkpt lat="45.82643" lon="5.48438">
        <ele>482.6</ele>
        <time>2023-05-28T08:02:10Z</time>
      </trkpt>
      <trkpt lat="45.82652" lon="5.48442">
        <ele>482.4</ele>
        <time>2023-05-28T08:02:11Z</time>
      </trkpt>
      <trkpt lat="45.82659" lon="5.48443">
        <ele>482.2</ele>
        <time>2023-05-28T08:02:12Z</time>
      </trkpt>
      <trkpt lat="45.82666" lon="5.4844">
        <ele>481</ele>
        <time>2023-05-28T08:02:13Z</time>
      </trkpt>
      <trkpt lat="45.8267" lon="5.48435">
        <ele>480.6</ele>
        <time>2023-05-28T08:02:14Z</time>
      </trkpt>
      <trkpt lat="45.82672" lon="5.48427">
        <ele>479.8</ele>
        <time>2023-05-28T08:02:15Z</time>
      </trkpt>
      <trkpt lat="45.82671" lon="5.48419">
        <ele>479.4</ele>
        <time>2023-05-28T08:02:16Z</time>
      </trkpt>
      <trkpt lat="45.8267" lon="5.48411">
        <ele>479.2</ele>
        <time>2023-05-28T08:02:17Z</time>
      </trkpt>
      <trkpt lat="45.82667" lon="5.48403">
        <ele>479</ele>
        <time>2023-05-28T08:02:18Z</time>
      </trkpt>
      <trkpt lat="45.82664" lon="5.48396">
        <ele>478.8</ele>
        <time>2023-05-28T08:02:19Z</time>
      </trkpt>
      <trkpt lat="45.82661" lon="5.48389">
        <ele>478.4</ele>
        <time>2023-05-28T08:02:20Z</time>
      </trkpt>
      <trkpt lat="45.82659" lon="5.48384">
        <ele>478.2</ele>
        <time>2023-05-28T08:02:21Z</time>
      </trkpt>
      <trkpt lat="45.82655" lon="5.48379">
        <ele>477.8</ele>
        <time>2023-05-28T08:02:22Z</time>
      </trkpt>
      <trkpt lat="45.82651" lon="5.48375">
        <ele>477.8</ele>
        <time>2023-05-28T08:02:23Z</time>
      </trkpt>
      <trkpt lat="45.82648" lon="5.48372">
        <ele>477.2</ele>
        <time>2023-05-28T08:02:24Z</time>
      </trkpt>
      <trkpt lat="45.82644" lon="5.4837">
        <ele>476.8</ele>
        <time>2023-05-28T08:02:25Z</time>
      </trkpt>
      <trkpt lat="45.8264" lon="5.48368">
        <ele>476.4</ele>
        <time>2023-05-28T08:02:26Z</time>
      </trkpt>
      <trkpt lat="45.82637" lon="5.48365">
        <ele>476</ele>
        <time>2023-05-28T08:02:27Z</time>
      </trkpt>
      <trkpt lat="45.82633" lon="5.48363">
        <ele>475.8</ele>
        <time>2023-05-28T08:02:28Z</time>
      </trkpt>
      <trkpt lat="45.8263" lon="5.48361">
        <ele>475.2</ele>
        <time>2023-05-28T08:02:29Z</time>
      </trkpt>
      <trkpt lat="45.82622" lon="5.48356">
        <ele>475</ele>
        <time>2023-05-28T08:02:31Z</time>
      </trkpt>
      <trkpt lat="45.82616" lon="5.4835">
        <ele>474.8</ele>
        <time>2023-05-28T08:02:33Z</time>
      </trkpt>
      <trkpt lat="45.82612" lon="5.48347">
        <ele>474.8</ele>
        <time>2023-05-28T08:02:34Z</time>
      </trkpt>
      <trkpt lat="45.8261" lon="5.48345">
        <ele>474.8</ele>
        <time>2023-05-28T08:02:35Z</time>
      </trkpt>
      <trkpt lat="45.82607" lon="5.48342">
        <ele>474.8</ele>
        <time>2023-05-28T08:02:36Z</time>
      </trkpt>
      <trkpt lat="45.82604" lon="5.48339">
        <ele>474.8</ele>
        <time>2023-05-28T08:02:37Z</time>
      </trkpt>
      <trkpt lat="45.82601" lon="5.48336">
        <ele>474.8</ele>
        <time>2023-05-28T08:02:38Z</time>
      </trkpt>
      <trkpt lat="45.82598" lon="5.48333">
        <ele>474.8</ele>
        <time>2023-05-28T08:02:39Z</time>
      </trkpt>
      <trkpt lat="45.82595" lon="5.48331">
        <ele>474.8</ele>
        <time>2023-05-28T08:02:40Z</time>
      </trkpt>
      <trkpt lat="45.82589" lon="5.48324">
        <ele>475</ele>
        <time>2023-05-28T08:02:42Z</time>
      </trkpt>
      <trkpt lat="45.82586" lon="5.48321">
        <ele>475</ele>
        <time>2023-05-28T08:02:43Z</time>
      </trkpt>
      <trkpt lat="45.82584" lon="5.48317">
        <ele>475</ele>
        <time>2023-05-28T08:02:44Z</time>
      </trkpt>
      <trkpt lat="45.82582" lon="5.48313">
        <ele>475.2</ele>
        <time>2023-05-28T08:02:45Z</time>
      </trkpt>
      <trkpt lat="45.8258" lon="5.48309">
        <ele>475.2</ele>
        <time>2023-05-28T08:02:46Z</time>
      </trkpt>
      <trkpt lat="45.82578" lon="5.48305">
        <ele>475.2</ele>
        <time>2023-05-28T08:02:47Z</time>
      </trkpt>
      <trkpt lat="45.82577" lon="5.48302">
        <ele>475.2</ele>
        <time>2023-05-28T08:02:48Z</time>
      </trkpt>
      <trkpt lat="45.82575" lon="5.48299">
        <ele>475.2</ele>
        <time>2023-05-28T08:02:49Z</time>
      </trkpt>
      <trkpt lat="45.82573" lon="5.48294">
        <ele>475.4</ele>
        <time>2023-05-28T08:02:50Z</time>
      </trkpt>
      <trkpt lat="45.82571" lon="5.48289">
        <ele>475.4</ele>
        <time>2023-05-28T08:02:51Z</time>
      </trkpt>
      <trkpt lat="45.82569" lon="5.48285">
        <ele>475.8</ele>
        <time>2023-05-28T08:02:52Z</time>
      </trkpt>
      <trkpt lat="45.82568" lon="5.48282">
        <ele>476</ele>
        <time>2023-05-28T08:02:53Z</time>
      </trkpt>
      <trkpt lat="45.82566" lon="5.48278">
        <ele>476.4</ele>
        <time>2023-05-28T08:02:54Z</time>
      </trkpt>
      <trkpt lat="45.82563" lon="5.48273">
        <ele>476.6</ele>
        <time>2023-05-28T08:02:55Z</time>
      </trkpt>
      <trkpt lat="45.82561" lon="5.4827">
        <ele>477</ele>
        <time>2023-05-28T08:02:56Z</time>
      </trkpt>
      <trkpt lat="45.82558" lon="5.48266">
        <ele>477.2</ele>
        <time>2023-05-28T08:02:57Z</time>
      </trkpt>
      <trkpt lat="45.82556" lon="5.48263">
        <ele>477.2</ele>
        <time>2023-05-28T08:02:58Z</time>
      </trkpt>
      <trkpt lat="45.82553" lon="5.4826">
        <ele>477.4</ele>
        <time>2023-05-28T08:02:59Z</time>
      </trkpt>
      <trkpt lat="45.8255" lon="5.48257">
        <ele>477.4</ele>
        <time>2023-05-28T08:03:00Z</time>
      </trkpt>
      <trkpt lat="45.82548" lon="5.48253">
        <ele>477.4</ele>
        <time>2023-05-28T08:03:01Z</time>
      </trkpt>
      <trkpt lat="45.82545" lon="5.4825">
        <ele>477.4</ele>
        <time>2023-05-28T08:03:02Z</time>
      </trkpt>
      <trkpt lat="45.82543" lon="5.48247">
        <ele>477.6</ele>
        <time>2023-05-28T08:03:03Z</time>
      </trkpt>
      <trkpt lat="45.82541" lon="5.48243">
        <ele>477.8</ele>
        <time>2023-05-28T08:03:04Z</time>
      </trkpt>
      <trkpt lat="45.82539" lon="5.48237">
        <ele>478</ele>
        <time>2023-05-28T08:03:05Z</time>
      </trkpt>
      <trkpt lat="45.82537" lon="5.48232">
        <ele>478.2</ele>
        <time>2023-05-28T08:03:06Z</time>
      </trkpt>
      <trkpt lat="45.82536" lon="5.48228">
        <ele>478.2</ele>
        <time>2023-05-28T08:03:07Z</time>
      </trkpt>
      <trkpt lat="45.82535" lon="5.48223">
        <ele>478.2</ele>
        <time>2023-05-28T08:03:08Z</time>
      </trkpt>
      <trkpt lat="45.82535" lon="5.48218">
        <ele>478.2</ele>
        <time>2023-05-28T08:03:09Z</time>
      </trkpt>
      <trkpt lat="45.82534" lon="5.48214">
        <ele>478.2</ele>
        <time>2023-05-28T08:03:10Z</time>
      </trkpt>
      <trkpt lat="45.82534" lon="5.48209">
        <ele>478.4</ele>
        <time>2023-05-28T08:03:11Z</time>
      </trkpt>
      <trkpt lat="45.82534" lon="5.48204">
        <ele>478.4</ele>
        <time>2023-05-28T08:03:12Z</time>
      </trkpt>
      <trkpt lat="45.82534" lon="5.48199">
        <ele>478.6</ele>
        <time>2023-05-28T08:03:13Z</time>
      </trkpt>
      <trkpt lat="45.82535" lon="5.48195">
        <ele>478.6</ele>
        <time>2023-05-28T08:03:14Z</time>
      </trkpt>
      <trkpt lat="45.82536" lon="5.4819">
        <ele>478.6</ele>
        <time>2023-05-28T08:03:15Z</time>
      </trkpt>
      <trkpt lat="45.82537" lon="5.48186">
        <ele>478.6</ele>
        <time>2023-05-28T08:03:16Z</time>
      </trkpt>
      <trkpt lat="45.82538" lon="5.48181">
        <ele>478.8</ele>
        <time>2023-05-28T08:03:17Z</time>
      </trkpt>
      <trkpt lat="45.82539" lon="5.48177">
        <ele>479</ele>
        <time>2023-05-28T08:03:18Z</time>
      </trkpt>
      <trkpt lat="45.82541" lon="5.48173">
        <ele>479.2</ele>
        <time>2023-05-28T08:03:19Z</time>
      </trkpt>
      <trkpt lat="45.82542" lon="5.48169">
        <ele>479.4</ele>
        <time>2023-05-28T08:03:20Z</time>
      </trkpt>
      <trkpt lat="45.82544" lon="5.48164">
        <ele>479.4</ele>
        <time>2023-05-28T08:03:21Z</time>
      </trkpt>
      <trkpt lat="45.82546" lon="5.4816">
        <ele>479.4</ele>
        <time>2023-05-28T08:03:22Z</time>
      </trkpt>
      <trkpt lat="45.82548" lon="5.48156">
        <ele>479.6</ele>
        <time>2023-05-28T08:03:23Z</time>
      </trkpt>
      <trkpt lat="45.8255" lon="5.48152">
        <ele>479.8</ele>
        <time>2023-05-28T08:03:24Z</time>
      </trkpt>
      <trkpt lat="45.82551" lon="5.48148">
        <ele>480</ele>
        <time>2023-05-28T08:03:25Z</time>
      </trkpt>
      <trkpt lat="45.82553" lon="5.48144">
        <ele>480.2</ele>
        <time>2023-05-28T08:03:26Z</time>
      </trkpt>
      <trkpt lat="45.82554" lon="5.48139">
        <ele>480.4</ele>
        <time>2023-05-28T08:03:27Z</time>
      </trkpt>
      <trkpt lat="45.82556" lon="5.48135">
        <ele>480.6</ele>
        <time>2023-05-28T08:03:28Z</time>
      </trkpt>
      <trkpt lat="45.82557" lon="5.48132">
        <ele>481</ele>
        <time>2023-05-28T08:03:29Z</time>
      </trkpt>
      <trkpt lat="45.82559" lon="5.48128">
        <ele>481.2</ele>
        <time>2023-05-28T08:03:30Z</time>
      </trkpt>
      <trkpt lat="45.8256" lon="5.48124">
        <ele>481.4</ele>
        <time>2023-05-28T08:03:31Z</time>
      </trkpt>
      <trkpt lat="45.82561" lon="5.4812">
        <ele>481.6</ele>
        <time>2023-05-28T08:03:32Z</time>
      </trkpt>
      <trkpt lat="45.82562" lon="5.48116">
        <ele>481.8</ele>
        <time>2023-05-28T08:03:33Z</time>
      </trkpt>
      <trkpt lat="45.82563" lon="5.48111">
        <ele>482.2</ele>
        <time>2023-05-28T08:03:34Z</time>
      </trkpt>
      <trkpt lat="45.82563" lon="5.48107">
        <ele>482.2</ele>
        <time>2023-05-28T08:03:35Z</time>
      </trkpt>
      <trkpt lat="45.82563" lon="5.48102">
        <ele>482.4</ele>
        <time>2023-05-28T08:03:36Z</time>
      </trkpt>
      <trkpt lat="45.82563" lon="5.48098">
        <ele>482.4</ele>
        <time>2023-05-28T08:03:37Z</time>
      </trkpt>
      <trkpt lat="45.82563" lon="5.48093">
        <ele>482.8</ele>
        <time>2023-05-28T08:03:38Z</time>
      </trkpt>
      <trkpt lat="45.82562" lon="5.48089">
        <ele>483</ele>
        <time>2023-05-28T08:03:39Z</time>
      </trkpt>
      <trkpt lat="45.82561" lon="5.48085">
        <ele>483.4</ele>
        <time>2023-05-28T08:03:40Z</time>
      </trkpt>
      <trkpt lat="45.82559" lon="5.48081">
        <ele>484.2</ele>
        <time>2023-05-28T08:03:41Z</time>
      </trkpt>
      <trkpt lat="45.82558" lon="5.48078">
        <ele>484.4</ele>
        <time>2023-05-28T08:03:42Z</time>
      </trkpt>
      <trkpt lat="45.82556" lon="5.48074">
        <ele>484.8</ele>
        <time>2023-05-28T08:03:43Z</time>
      </trkpt>
      <trkpt lat="45.82555" lon="5.4807">
        <ele>484.8</ele>
        <time>2023-05-28T08:03:44Z</time>
      </trkpt>
      <trkpt lat="45.82553" lon="5.48066">
        <ele>485</ele>
        <time>2023-05-28T08:03:45Z</time>
      </trkpt>
      <trkpt lat="45.82552" lon="5.48063">
        <ele>485.2</ele>
        <time>2023-05-28T08:03:46Z</time>
      </trkpt>
      <trkpt lat="45.82551" lon="5.48059">
        <ele>485.2</ele>
        <time>2023-05-28T08:03:47Z</time>
      </trkpt>
      <trkpt lat="45.8255" lon="5.48054">
        <ele>485.4</ele>
        <time>2023-05-28T08:03:48Z</time>
      </trkpt>
      <trkpt lat="45.82549" lon="5.4805">
        <ele>485.6</ele>
        <time>2023-05-28T08:03:49Z</time>
      </trkpt>
      <trkpt lat="45.82549" lon="5.48045">
        <ele>485.6</ele>
        <time>2023-05-28T08:03:50Z</time>
      </trkpt>
      <trkpt lat="45.82549" lon="5.4804">
        <ele>485.8</ele>
        <time>2023-05-28T08:03:51Z</time>
      </trkpt>
      <trkpt lat="45.82549" lon="5.48036">
        <ele>486</ele>
        <time>2023-05-28T08:03:52Z</time>
      </trkpt>
      <trkpt lat="45.82549" lon="5.48031">
        <ele>486</ele>
        <time>2023-05-28T08:03:53Z</time>
      </trkpt>
      <trkpt lat="45.8255" lon="5.48027">
        <ele>486.2</ele>
        <time>2023-05-28T08:03:54Z</time>
      </trkpt>
      <trkpt lat="45.82552" lon="5.48021">
        <ele>486.4</ele>
        <time>2023-05-28T08:03:55Z</time>
      </trkpt>
      <trkpt lat="45.82553" lon="5.48016">
        <ele>486.8</ele>
        <time>2023-05-28T08:03:56Z</time>
      </trkpt>
      <trkpt lat="45.82554" lon="5.48011">
        <ele>487</ele>
        <time>2023-05-28T08:03:57Z</time>
      </trkpt>
      <trkpt lat="45.82555" lon="5.48007">
        <ele>487.2</ele>
        <time>2023-05-28T08:03:58Z</time>
      </trkpt>
      <trkpt lat="45.82557" lon="5.48001">
        <ele>487.4</ele>
        <time>2023-05-28T08:03:59Z</time>
      </trkpt>
      <trkpt lat="45.82558" lon="5.47996">
        <ele>487.4</ele>
        <time>2023-05-28T08:04:00Z</time>
      </trkpt>
      <trkpt lat="45.8256" lon="5.47992">
        <ele>487.8</ele>
        <time>2023-05-28T08:04:01Z</time>
      </trkpt>
      <trkpt lat="45.82562" lon="5.47988">
        <ele>488</ele>
        <time>2023-05-28T08:04:02Z</time>
      </trkpt>
      <trkpt lat="45.82563" lon="5.47984">
        <ele>488.2</ele>
        <time>2023-05-28T08:04:03Z</time>
      </trkpt>
      <trkpt lat="45.82565" lon="5.47979">
        <ele>488.4</ele>
        <time>2023-05-28T08:04:04Z</time>
      </trkpt>
      <trkpt lat="45.82569" lon="5.47971">
        <ele>489</ele>
        <time>2023-05-28T08:04:06Z</time>
      </trkpt>
      <trkpt lat="45.82572" lon="5.47967">
        <ele>489.4</ele>
        <time>2023-05-28T08:04:07Z</time>
      </trkpt>
      <trkpt lat="45.82575" lon="5.47964">
        <ele>489.6</ele>
        <time>2023-05-28T08:04:08Z</time>
      </trkpt>
      <trkpt lat="45.82577" lon="5.4796">
        <ele>489.8</ele>
        <time>2023-05-28T08:04:09Z</time>
      </trkpt>
      <trkpt lat="45.8258" lon="5.47957">
        <ele>490</ele>
        <time>2023-05-28T08:04:10Z</time>
      </trkpt>
      <trkpt lat="45.82583" lon="5.47952">
        <ele>490.2</ele>
        <time>2023-05-28T08:04:11Z</time>
      </trkpt>
      <trkpt lat="45.82587" lon="5.47949">
        <ele>490.4</ele>
        <time>2023-05-28T08:04:12Z</time>
      </trkpt>
      <trkpt lat="45.82589" lon="5.47946">
        <ele>490.4</ele>
        <time>2023-05-28T08:04:13Z</time>
      </trkpt>
      <trkpt lat="45.82593" lon="5.47942">
        <ele>490.6</ele>
        <time>2023-05-28T08:04:14Z</time>
      </trkpt>
      <trkpt lat="45.82597" lon="5.47938">
        <ele>490.6</ele>
        <time>2023-05-28T08:04:15Z</time>
      </trkpt>
      <trkpt lat="45.826" lon="5.47936">
        <ele>490.8</ele>
        <time>2023-05-28T08:04:16Z</time>
      </trkpt>
      <trkpt lat="45.82607" lon="5.47929">
        <ele>491</ele>
        <time>2023-05-28T08:04:18Z</time>
      </trkpt>
      <trkpt lat="45.8261" lon="5.47926">
        <ele>491.2</ele>
        <time>2023-05-28T08:04:19Z</time>
      </trkpt>
      <trkpt lat="45.82614" lon="5.47923">
        <ele>491.2</ele>
        <time>2023-05-28T08:04:20Z</time>
      </trkpt>
      <trkpt lat="45.82617" lon="5.4792">
        <ele>491.2</ele>
        <time>2023-05-28T08:04:21Z</time>
      </trkpt>
      <trkpt lat="45.82622" lon="5.47916">
        <ele>491.2</ele>
        <time>2023-05-28T08:04:22Z</time>
      </trkpt>
      <trkpt lat="45.82625" lon="5.47913">
        <ele>491.4</ele>
        <time>2023-05-28T08:04:23Z</time>
      </trkpt>
      <trkpt lat="45.82629" lon="5.4791">
        <ele>491.4</ele>
        <time>2023-05-28T08:04:24Z</time>
      </trkpt>
      <trkpt lat="45.82632" lon="5.47907">
        <ele>491.4</ele>
        <time>2023-05-28T08:04:25Z</time>
      </trkpt>
      <trkpt lat="45.82636" lon="5.47904">
        <ele>491.4</ele>
        <time>2023-05-28T08:04:26Z</time>
      </trkpt>
      <trkpt lat="45.8264" lon="5.47901">
        <ele>491.6</ele>
        <time>2023-05-28T08:04:27Z</time>
      </trkpt>
      <trkpt lat="45.82643" lon="5.47899">
        <ele>491.6</ele>
        <time>2023-05-28T08:04:28Z</time>
      </trkpt>
      <trkpt lat="45.82649" lon="5.47894">
        <ele>491.8</ele>
        <time>2023-05-28T08:04:30Z</time>
      </trkpt>
      <trkpt lat="45.82651" lon="5.47892">
        <ele>492</ele>
        <time>2023-05-28T08:04:31Z</time>
      </trkpt>
      <trkpt lat="45.82653" lon="5.47891">
        <ele>492.2</ele>
        <time>2023-05-28T08:04:32Z</time>
      </trkpt>
      <trkpt lat="45.82655" lon="5.47889">
        <ele>492.6</ele>
        <time>2023-05-28T08:04:33Z</time>
      </trkpt>
      <trkpt lat="45.82657" lon="5.47887">
        <ele>492.8</ele>
        <time>2023-05-28T08:04:34Z</time>
      </trkpt>
      <trkpt lat="45.82659" lon="5.47885">
        <ele>493</ele>
        <time>2023-05-28T08:04:35Z</time>
      </trkpt>
      <trkpt lat="45.82662" lon="5.47881">
        <ele>493.2</ele>
        <time>2023-05-28T08:04:36Z</time>
      </trkpt>
      <trkpt lat="45.82665" lon="5.47877">
        <ele>493.2</ele>
        <time>2023-05-28T08:04:37Z</time>
      </trkpt>
      <trkpt lat="45.82668" lon="5.47872">
        <ele>493.2</ele>
        <time>2023-05-28T08:04:38Z</time>
      </trkpt>
      <trkpt lat="45.8267" lon="5.47866">
        <ele>493.2</ele>
        <time>2023-05-28T08:04:39Z</time>
      </trkpt>
      <trkpt lat="45.82672" lon="5.4786">
        <ele>493.2</ele>
        <time>2023-05-28T08:04:40Z</time>
      </trkpt>
      <trkpt lat="45.82675" lon="5.47851">
        <ele>493.2</ele>
        <time>2023-05-28T08:04:41Z</time>
      </trkpt>
      <trkpt lat="45.82677" lon="5.47843">
        <ele>493.2</ele>
        <time>2023-05-28T08:04:42Z</time>
      </trkpt>
      <trkpt lat="45.8268" lon="5.47836">
        <ele>493.2</ele>
        <time>2023-05-28T08:04:43Z</time>
      </trkpt>
      <trkpt lat="45.82682" lon="5.47829">
        <ele>493.2</ele>
        <time>2023-05-28T08:04:44Z</time>
      </trkpt>
      <trkpt lat="45.82685" lon="5.4782">
        <ele>493.2</ele>
        <time>2023-05-28T08:04:45Z</time>
      </trkpt>
      <trkpt lat="45.82687" lon="5.4781">
        <ele>493.2</ele>
        <time>2023-05-28T08:04:46Z</time>
      </trkpt>
      <trkpt lat="45.8269" lon="5.478">
        <ele>493.2</ele>
        <time>2023-05-28T08:04:47Z</time>
      </trkpt>
      <trkpt lat="45.82695" lon="5.47789">
        <ele>493</ele>
        <time>2023-05-28T08:04:48Z</time>
      </trkpt>
      <trkpt lat="45.82699" lon="5.47783">
        <ele>493</ele>
        <time>2023-05-28T08:04:49Z</time>
      </trkpt>
      <trkpt lat="45.82704" lon="5.47775">
        <ele>492.8</ele>
        <time>2023-05-28T08:04:50Z</time>
      </trkpt>
      <trkpt lat="45.82711" lon="5.47766">
        <ele>492.8</ele>
        <time>2023-05-28T08:04:51Z</time>
      </trkpt>
      <trkpt lat="45.82717" lon="5.4776">
        <ele>492.6</ele>
        <time>2023-05-28T08:04:52Z</time>
      </trkpt>
      <trkpt lat="45.82725" lon="5.47752">
        <ele>492.6</ele>
        <time>2023-05-28T08:04:53Z</time>
      </trkpt>
      <trkpt lat="45.82732" lon="5.47744">
        <ele>492.4</ele>
        <time>2023-05-28T08:04:54Z</time>
      </trkpt>
      <trkpt lat="45.82737" lon="5.47737">
        <ele>492.4</ele>
        <time>2023-05-28T08:04:55Z</time>
      </trkpt>
      <trkpt lat="45.82743" lon="5.47727">
        <ele>492.4</ele>
        <time>2023-05-28T08:04:56Z</time>
      </trkpt>
      <trkpt lat="45.8275" lon="5.47716">
        <ele>492.2</ele>
        <time>2023-05-28T08:04:57Z</time>
      </trkpt>
      <trkpt lat="45.82755" lon="5.47705">
        <ele>492</ele>
        <time>2023-05-28T08:04:58Z</time>
      </trkpt>
      <trkpt lat="45.82758" lon="5.47694">
        <ele>491.8</ele>
        <time>2023-05-28T08:04:59Z</time>
      </trkpt>
      <trkpt lat="45.82761" lon="5.47686">
        <ele>491.6</ele>
        <time>2023-05-28T08:05:00Z</time>
      </trkpt>
      <trkpt lat="45.82766" lon="5.47672">
        <ele>491.2</ele>
        <time>2023-05-28T08:05:01Z</time>
      </trkpt>
      <trkpt lat="45.82768" lon="5.47663">
        <ele>490.8</ele>
        <time>2023-05-28T08:05:02Z</time>
      </trkpt>
      <trkpt lat="45.82771" lon="5.47651">
        <ele>490.2</ele>
        <time>2023-05-28T08:05:03Z</time>
      </trkpt>
      <trkpt lat="45.82774" lon="5.47635">
        <ele>489.8</ele>
        <time>2023-05-28T08:05:04Z</time>
      </trkpt>
      <trkpt lat="45.82775" lon="5.47625">
        <ele>489.6</ele>
        <time>2023-05-28T08:05:05Z</time>
      </trkpt>
      <trkpt lat="45.82776" lon="5.47611">
        <ele>489.4</ele>
        <time>2023-05-28T08:05:06Z</time>
      </trkpt>
      <trkpt lat="45.82776" lon="5.47594">
        <ele>489.2</ele>
        <time>2023-05-28T08:05:07Z</time>
      </trkpt>
      <trkpt lat="45.82776" lon="5.47583">
        <ele>488.8</ele>
        <time>2023-05-28T08:05:08Z</time>
      </trkpt>
      <trkpt lat="45.82776" lon="5.47566">
        <ele>488.6</ele>
        <time>2023-05-28T08:05:09Z</time>
      </trkpt>
      <trkpt lat="45.82776" lon="5.47552">
        <ele>488.2</ele>
        <time>2023-05-28T08:05:10Z</time>
      </trkpt>
      <trkpt lat="45.82775" lon="5.47538">
        <ele>487.6</ele>
        <time>2023-05-28T08:05:11Z</time>
      </trkpt>
      <trkpt lat="45.82775" lon="5.47526">
        <ele>487.4</ele>
        <time>2023-05-28T08:05:12Z</time>
      </trkpt>
      <trkpt lat="45.82775" lon="5.47512">
        <ele>487</ele>
        <time>2023-05-28T08:05:13Z</time>
      </trkpt>
      <trkpt lat="45.82775" lon="5.47495">
        <ele>486.4</ele>
        <time>2023-05-28T08:05:14Z</time>
      </trkpt>
      <trkpt lat="45.82775" lon="5.47481">
        <ele>485.8</ele>
        <time>2023-05-28T08:05:15Z</time>
      </trkpt>
      <trkpt lat="45.82775" lon="5.47467">
        <ele>485.6</ele>
        <time>2023-05-28T08:05:16Z</time>
      </trkpt>
      <trkpt lat="45.82775" lon="5.47456">
        <ele>485.2</ele>
        <time>2023-05-28T08:05:17Z</time>
      </trkpt>
      <trkpt lat="45.82775" lon="5.47442">
        <ele>484.6</ele>
        <time>2023-05-28T08:05:18Z</time>
      </trkpt>
      <trkpt lat="45.82776" lon="5.47426">
        <ele>484.2</ele>
        <time>2023-05-28T08:05:19Z</time>
      </trkpt>
      <trkpt lat="45.82777" lon="5.47413">
        <ele>483.6</ele>
        <time>2023-05-28T08:05:20Z</time>
      </trkpt>
      <trkpt lat="45.82778" lon="5.47401">
        <ele>483.4</ele>
        <time>2023-05-28T08:05:21Z</time>
      </trkpt>
      <trkpt lat="45.8278" lon="5.47392">
        <ele>482.8</ele>
        <time>2023-05-28T08:05:22Z</time>
      </trkpt>
      <trkpt lat="45.82782" lon="5.47383">
        <ele>482.4</ele>
        <time>2023-05-28T08:05:23Z</time>
      </trkpt>
      <trkpt lat="45.82784" lon="5.47372">
        <ele>481.6</ele>
        <time>2023-05-28T08:05:24Z</time>
      </trkpt>
      <trkpt lat="45.82786" lon="5.47363">
        <ele>481.4</ele>
        <time>2023-05-28T08:05:25Z</time>
      </trkpt>
      <trkpt lat="45.82786" lon="5.47356">
        <ele>481</ele>
        <time>2023-05-28T08:05:26Z</time>
      </trkpt>
      <trkpt lat="45.82786" lon="5.4735">
        <ele>480.6</ele>
        <time>2023-05-28T08:05:27Z</time>
      </trkpt>
      <trkpt lat="45.82785" lon="5.47343">
        <ele>480.4</ele>
        <time>2023-05-28T08:05:28Z</time>
      </trkpt>
      <trkpt lat="45.82783" lon="5.47333">
        <ele>480.2</ele>
        <time>2023-05-28T08:05:29Z</time>
      </trkpt>
      <trkpt lat="45.8278" lon="5.47326">
        <ele>480</ele>
        <time>2023-05-28T08:05:30Z</time>
      </trkpt>
      <trkpt lat="45.82776" lon="5.4732">
        <ele>479.6</ele>
        <time>2023-05-28T08:05:31Z</time>
      </trkpt>
      <trkpt lat="45.82771" lon="5.47317">
        <ele>479.2</ele>
        <time>2023-05-28T08:05:32Z</time>
      </trkpt>
      <trkpt lat="45.82764" lon="5.47314">
        <ele>478.4</ele>
        <time>2023-05-28T08:05:33Z</time>
      </trkpt>
      <trkpt lat="45.82755" lon="5.47312">
        <ele>477.6</ele>
        <time>2023-05-28T08:05:34Z</time>
      </trkpt>
      <trkpt lat="45.82747" lon="5.4731">
        <ele>477.2</ele>
        <time>2023-05-28T08:05:35Z</time>
      </trkpt>
      <trkpt lat="45.82739" lon="5.47306">
        <ele>476.6</ele>
        <time>2023-05-28T08:05:36Z</time>
      </trkpt>
      <trkpt lat="45.82733" lon="5.473">
        <ele>476.4</ele>
        <time>2023-05-28T08:05:37Z</time>
      </trkpt>
      <trkpt lat="45.82727" lon="5.47292">
        <ele>475.6</ele>
        <time>2023-05-28T08:05:38Z</time>
      </trkpt>
      <trkpt lat="45.82722" lon="5.47281">
        <ele>475.2</ele>
        <time>2023-05-28T08:05:39Z</time>
      </trkpt>
      <trkpt lat="45.82717" lon="5.47267">
        <ele>474.8</ele>
        <time>2023-05-28T08:05:40Z</time>
      </trkpt>
      <trkpt lat="45.82714" lon="5.47254">
        <ele>474.2</ele>
        <time>2023-05-28T08:05:41Z</time>
      </trkpt>
      <trkpt lat="45.82711" lon="5.47242">
        <ele>473.6</ele>
        <time>2023-05-28T08:05:42Z</time>
      </trkpt>
      <trkpt lat="45.82708" lon="5.47233">
        <ele>472.8</ele>
        <time>2023-05-28T08:05:43Z</time>
      </trkpt>
      <trkpt lat="45.82703" lon="5.47221">
        <ele>472.4</ele>
        <time>2023-05-28T08:05:44Z</time>
      </trkpt>
      <trkpt lat="45.82696" lon="5.47211">
        <ele>472</ele>
        <time>2023-05-28T08:05:45Z</time>
      </trkpt>
      <trkpt lat="45.82689" lon="5.47204">
        <ele>471.8</ele>
        <time>2023-05-28T08:05:46Z</time>
      </trkpt>
      <trkpt lat="45.8268" lon="5.47202">
        <ele>470.8</ele>
        <time>2023-05-28T08:05:47Z</time>
      </trkpt>
      <trkpt lat="45.82671" lon="5.47203">
        <ele>470.2</ele>
        <time>2023-05-28T08:05:48Z</time>
      </trkpt>
      <trkpt lat="45.82659" lon="5.47201">
        <ele>470</ele>
        <time>2023-05-28T08:05:49Z</time>
      </trkpt>
      <trkpt lat="45.82649" lon="5.47198">
        <ele>469.8</ele>
        <time>2023-05-28T08:05:50Z</time>
      </trkpt>
      <trkpt lat="45.82639" lon="5.47194">
        <ele>468.8</ele>
        <time>2023-05-28T08:05:51Z</time>
      </trkpt>
      <trkpt lat="45.82628" lon="5.47192">
        <ele>467.4</ele>
        <time>2023-05-28T08:05:52Z</time>
      </trkpt>
      <trkpt lat="45.8262" lon="5.47191">
        <ele>467</ele>
        <time>2023-05-28T08:05:53Z</time>
      </trkpt>
      <trkpt lat="45.82611" lon="5.47189">
        <ele>466</ele>
        <time>2023-05-28T08:05:54Z</time>
      </trkpt>
      <trkpt lat="45.82601" lon="5.47181">
        <ele>465.8</ele>
        <time>2023-05-28T08:05:55Z</time>
      </trkpt>
      <trkpt lat="45.82594" lon="5.4717">
        <ele>465.2</ele>
        <time>2023-05-28T08:05:56Z</time>
      </trkpt>
      <trkpt lat="45.8259" lon="5.47158">
        <ele>464.4</ele>
        <time>2023-05-28T08:05:57Z</time>
      </trkpt>
      <trkpt lat="45.82588" lon="5.47147">
        <ele>464.2</ele>
        <time>2023-05-28T08:05:58Z</time>
      </trkpt>
      <trkpt lat="45.82587" lon="5.47133">
        <ele>463</ele>
        <time>2023-05-28T08:05:59Z</time>
      </trkpt>
      <trkpt lat="45.82588" lon="5.4712">
        <ele>462.4</ele>
        <time>2023-05-28T08:06:00Z</time>
      </trkpt>
      <trkpt lat="45.82589" lon="5.47108">
        <ele>461.6</ele>
        <time>2023-05-28T08:06:01Z</time>
      </trkpt>
      <trkpt lat="45.8259" lon="5.47093">
        <ele>461</ele>
        <time>2023-05-28T08:06:02Z</time>
      </trkpt>
      <trkpt lat="45.82589" lon="5.4708">
        <ele>460.4</ele>
        <time>2023-05-28T08:06:03Z</time>
      </trkpt>
      <trkpt lat="45.82587" lon="5.4707">
        <ele>459.2</ele>
        <time>2023-05-28T08:06:04Z</time>
      </trkpt>
      <trkpt lat="45.82584" lon="5.47059">
        <ele>459</ele>
        <time>2023-05-28T08:06:05Z</time>
      </trkpt>
      <trkpt lat="45.8258" lon="5.47043">
        <ele>458.4</ele>
        <time>2023-05-28T08:06:06Z</time>
      </trkpt>
      <trkpt lat="45.82579" lon="5.4703">
        <ele>458</ele>
        <time>2023-05-28T08:06:07Z</time>
      </trkpt>
      <trkpt lat="45.8258" lon="5.47019">
        <ele>457.8</ele>
        <time>2023-05-28T08:06:08Z</time>
      </trkpt>
      <trkpt lat="45.82581" lon="5.47005">
        <ele>457.6</ele>
        <time>2023-05-28T08:06:09Z</time>
      </trkpt>
      <trkpt lat="45.8258" lon="5.4699">
        <ele>457</ele>
        <time>2023-05-28T08:06:10Z</time>
      </trkpt>
      <trkpt lat="45.82577" lon="5.46976">
        <ele>456.2</ele>
        <time>2023-05-28T08:06:11Z</time>
      </trkpt>
      <trkpt lat="45.82571" lon="5.46959">
        <ele>455.4</ele>
        <time>2023-05-28T08:06:12Z</time>
      </trkpt>
      <trkpt lat="45.82566" lon="5.46946">
        <ele>454.6</ele>
        <time>2023-05-28T08:06:13Z</time>
      </trkpt>
      <trkpt lat="45.82561" lon="5.46933">
        <ele>453.8</ele>
        <time>2023-05-28T08:06:14Z</time>
      </trkpt>
      <trkpt lat="45.82558" lon="5.46921">
        <ele>453.2</ele>
        <time>2023-05-28T08:06:15Z</time>
      </trkpt>
      <trkpt lat="45.82557" lon="5.46906">
        <ele>452.8</ele>
        <time>2023-05-28T08:06:16Z</time>
      </trkpt>
      <trkpt lat="45.82558" lon="5.46887">
        <ele>452</ele>
        <time>2023-05-28T08:06:17Z</time>
      </trkpt>
      <trkpt lat="45.82561" lon="5.46872">
        <ele>451.4</ele>
        <time>2023-05-28T08:06:18Z</time>
      </trkpt>
      <trkpt lat="45.82564" lon="5.46857">
        <ele>451</ele>
        <time>2023-05-28T08:06:19Z</time>
      </trkpt>
      <trkpt lat="45.82565" lon="5.46844">
        <ele>450.4</ele>
        <time>2023-05-28T08:06:20Z</time>
      </trkpt>
      <trkpt lat="45.82566" lon="5.46829">
        <ele>450</ele>
        <time>2023-05-28T08:06:21Z</time>
      </trkpt>
      <trkpt lat="45.82566" lon="5.46812">
        <ele>449.2</ele>
        <time>2023-05-28T08:06:22Z</time>
      </trkpt>
      <trkpt lat="45.82564" lon="5.46798">
        <ele>448.8</ele>
        <time>2023-05-28T08:06:23Z</time>
      </trkpt>
      <trkpt lat="45.82561" lon="5.46785">
        <ele>448.2</ele>
        <time>2023-05-28T08:06:24Z</time>
      </trkpt>
      <trkpt lat="45.82557" lon="5.46774">
        <ele>447.4</ele>
        <time>2023-05-28T08:06:25Z</time>
      </trkpt>
      <trkpt lat="45.82549" lon="5.46767">
        <ele>447</ele>
        <time>2023-05-28T08:06:26Z</time>
      </trkpt>
      <trkpt lat="45.82537" lon="5.46765">
        <ele>445.4</ele>
        <time>2023-05-28T08:06:27Z</time>
      </trkpt>
      <trkpt lat="45.82527" lon="5.46768">
        <ele>445</ele>
        <time>2023-05-28T08:06:28Z</time>
      </trkpt>
      <trkpt lat="45.82518" lon="5.46773">
        <ele>444.4</ele>
        <time>2023-05-28T08:06:29Z</time>
      </trkpt>
      <trkpt lat="45.82508" lon="5.46779">
        <ele>444.2</ele>
        <time>2023-05-28T08:06:30Z</time>
      </trkpt>
      <trkpt lat="45.82498" lon="5.46783">
        <ele>443.2</ele>
        <time>2023-05-28T08:06:31Z</time>
      </trkpt>
      <trkpt lat="45.82487" lon="5.46785">
        <ele>442</ele>
        <time>2023-05-28T08:06:32Z</time>
      </trkpt>
      <trkpt lat="45.82477" lon="5.46784">
        <ele>441.2</ele>
        <time>2023-05-28T08:06:33Z</time>
      </trkpt>
      <trkpt lat="45.82466" lon="5.46782">
        <ele>440</ele>
        <time>2023-05-28T08:06:34Z</time>
      </trkpt>
      <trkpt lat="45.82455" lon="5.46779">
        <ele>439.6</ele>
        <time>2023-05-28T08:06:35Z</time>
      </trkpt>
      <trkpt lat="45.82445" lon="5.46777">
        <ele>438.2</ele>
        <time>2023-05-28T08:06:36Z</time>
      </trkpt>
      <trkpt lat="45.82432" lon="5.46774">
        <ele>437.8</ele>
        <time>2023-05-28T08:06:37Z</time>
      </trkpt>
      <trkpt lat="45.82422" lon="5.46772">
        <ele>436.4</ele>
        <time>2023-05-28T08:06:38Z</time>
      </trkpt>
      <trkpt lat="45.82411" lon="5.4677">
        <ele>435.8</ele>
        <time>2023-05-28T08:06:39Z</time>
      </trkpt>
      <trkpt lat="45.82401" lon="5.4677">
        <ele>435</ele>
        <time>2023-05-28T08:06:40Z</time>
      </trkpt>
      <trkpt lat="45.8239" lon="5.4677">
        <ele>434.2</ele>
        <time>2023-05-28T08:06:41Z</time>
      </trkpt>
      <trkpt lat="45.82379" lon="5.46771">
        <ele>433.4</ele>
        <time>2023-05-28T08:06:42Z</time>
      </trkpt>
      <trkpt lat="45.82368" lon="5.46772">
        <ele>431.6</ele>
        <time>2023-05-28T08:06:43Z</time>
      </trkpt>
      <trkpt lat="45.82355" lon="5.46769">
        <ele>431</ele>
        <time>2023-05-28T08:06:44Z</time>
      </trkpt>
      <trkpt lat="45.82347" lon="5.46765">
        <ele>429.8</ele>
        <time>2023-05-28T08:06:45Z</time>
      </trkpt>
      <trkpt lat="45.82338" lon="5.46758">
        <ele>429.4</ele>
        <time>2023-05-28T08:06:46Z</time>
      </trkpt>
      <trkpt lat="45.82328" lon="5.46749">
        <ele>428.2</ele>
        <time>2023-05-28T08:06:47Z</time>
      </trkpt>
      <trkpt lat="45.82317" lon="5.46737">
        <ele>427.4</ele>
        <time>2023-05-28T08:06:48Z</time>
      </trkpt>
      <trkpt lat="45.82309" lon="5.46726">
        <ele>427.2</ele>
        <time>2023-05-28T08:06:49Z</time>
      </trkpt>
      <trkpt lat="45.82303" lon="5.46716">
        <ele>425.6</ele>
        <time>2023-05-28T08:06:50Z</time>
      </trkpt>
      <trkpt lat="45.82296" lon="5.46704">
        <ele>425.2</ele>
        <time>2023-05-28T08:06:51Z</time>
      </trkpt>
      <trkpt lat="45.82288" lon="5.46691">
        <ele>424.2</ele>
        <time>2023-05-28T08:06:52Z</time>
      </trkpt>
      <trkpt lat="45.8228" lon="5.46676">
        <ele>423.4</ele>
        <time>2023-05-28T08:06:53Z</time>
      </trkpt>
      <trkpt lat="45.82272" lon="5.46664">
        <ele>422.2</ele>
        <time>2023-05-28T08:06:54Z</time>
      </trkpt>
      <trkpt lat="45.82267" lon="5.46654">
        <ele>421.2</ele>
        <time>2023-05-28T08:06:55Z</time>
      </trkpt>
      <trkpt lat="45.8226" lon="5.46643">
        <ele>420.6</ele>
        <time>2023-05-28T08:06:56Z</time>
      </trkpt>
      <trkpt lat="45.82252" lon="5.46634">
        <ele>420</ele>
        <time>2023-05-28T08:06:57Z</time>
      </trkpt>
      <trkpt lat="45.82243" lon="5.46629">
        <ele>419.8</ele>
        <time>2023-05-28T08:06:58Z</time>
      </trkpt>
      <trkpt lat="45.82231" lon="5.46625">
        <ele>419</ele>
        <time>2023-05-28T08:06:59Z</time>
      </trkpt>
      <trkpt lat="45.82223" lon="5.46624">
        <ele>418.8</ele>
        <time>2023-05-28T08:07:00Z</time>
      </trkpt>
      <trkpt lat="45.82212" lon="5.46623">
        <ele>417.8</ele>
        <time>2023-05-28T08:07:01Z</time>
      </trkpt>
      <trkpt lat="45.82201" lon="5.46621">
        <ele>417</ele>
        <time>2023-05-28T08:07:02Z</time>
      </trkpt>
      <trkpt lat="45.8219" lon="5.46619">
        <ele>416.4</ele>
        <time>2023-05-28T08:07:03Z</time>
      </trkpt>
      <trkpt lat="45.82178" lon="5.46616">
        <ele>415</ele>
        <time>2023-05-28T08:07:04Z</time>
      </trkpt>
      <trkpt lat="45.82167" lon="5.46612">
        <ele>414.4</ele>
        <time>2023-05-28T08:07:05Z</time>
      </trkpt>
      <trkpt lat="45.82156" lon="5.46607">
        <ele>413.6</ele>
        <time>2023-05-28T08:07:06Z</time>
      </trkpt>
      <trkpt lat="45.82145" lon="5.46602">
        <ele>413.2</ele>
        <time>2023-05-28T08:07:07Z</time>
      </trkpt>
      <trkpt lat="45.82133" lon="5.46596">
        <ele>412.2</ele>
        <time>2023-05-28T08:07:08Z</time>
      </trkpt>
      <trkpt lat="45.8212" lon="5.46589">
        <ele>411</ele>
        <time>2023-05-28T08:07:09Z</time>
      </trkpt>
      <trkpt lat="45.82111" lon="5.46585">
        <ele>410.4</ele>
        <time>2023-05-28T08:07:10Z</time>
      </trkpt>
      <trkpt lat="45.82099" lon="5.46579">
        <ele>409.6</ele>
        <time>2023-05-28T08:07:11Z</time>
      </trkpt>
      <trkpt lat="45.82087" lon="5.46572">
        <ele>409.6</ele>
        <time>2023-05-28T08:07:12Z</time>
      </trkpt>
      <trkpt lat="45.82074" lon="5.46565">
        <ele>408.8</ele>
        <time>2023-05-28T08:07:13Z</time>
      </trkpt>
      <trkpt lat="45.82062" lon="5.4656">
        <ele>408.4</ele>
        <time>2023-05-28T08:07:14Z</time>
      </trkpt>
      <trkpt lat="45.82052" lon="5.46558">
        <ele>407</ele>
        <time>2023-05-28T08:07:15Z</time>
      </trkpt>
      <trkpt lat="45.82039" lon="5.46557">
        <ele>406.4</ele>
        <time>2023-05-28T08:07:16Z</time>
      </trkpt>
      <trkpt lat="45.82026" lon="5.46559">
        <ele>405.4</ele>
        <time>2023-05-28T08:07:17Z</time>
      </trkpt>
      <trkpt lat="45.82012" lon="5.46562">
        <ele>404.4</ele>
        <time>2023-05-28T08:07:18Z</time>
      </trkpt>
      <trkpt lat="45.81999" lon="5.46565">
        <ele>404</ele>
        <time>2023-05-28T08:07:19Z</time>
      </trkpt>
      <trkpt lat="45.81989" lon="5.46567">
        <ele>403.2</ele>
        <time>2023-05-28T08:07:20Z</time>
      </trkpt>
      <trkpt lat="45.81976" lon="5.46569">
        <ele>402.6</ele>
        <time>2023-05-28T08:07:21Z</time>
      </trkpt>
      <trkpt lat="45.81963" lon="5.46569">
        <ele>401.8</ele>
        <time>2023-05-28T08:07:22Z</time>
      </trkpt>
      <trkpt lat="45.81952" lon="5.46566">
        <ele>401.2</ele>
        <time>2023-05-28T08:07:23Z</time>
      </trkpt>
      <trkpt lat="45.81937" lon="5.46564">
        <ele>399.6</ele>
        <time>2023-05-28T08:07:24Z</time>
      </trkpt>
      <trkpt lat="45.81927" lon="5.46563">
        <ele>398.4</ele>
        <time>2023-05-28T08:07:25Z</time>
      </trkpt>
      <trkpt lat="45.81915" lon="5.46564">
        <ele>397.6</ele>
        <time>2023-05-28T08:07:26Z</time>
      </trkpt>
      <trkpt lat="45.81903" lon="5.46565">
        <ele>396.4</ele>
        <time>2023-05-28T08:07:27Z</time>
      </trkpt>
      <trkpt lat="45.81888" lon="5.46567">
        <ele>396</ele>
        <time>2023-05-28T08:07:28Z</time>
      </trkpt>
      <trkpt lat="45.81876" lon="5.46569">
        <ele>395.2</ele>
        <time>2023-05-28T08:07:29Z</time>
      </trkpt>
      <trkpt lat="45.81867" lon="5.46571">
        <ele>394.8</ele>
        <time>2023-05-28T08:07:30Z</time>
      </trkpt>
      <trkpt lat="45.81855" lon="5.46575">
        <ele>393</ele>
        <time>2023-05-28T08:07:31Z</time>
      </trkpt>
      <trkpt lat="45.81844" lon="5.46581">
        <ele>391.4</ele>
        <time>2023-05-28T08:07:32Z</time>
      </trkpt>
      <trkpt lat="45.81832" lon="5.46588">
        <ele>391</ele>
        <time>2023-05-28T08:07:33Z</time>
      </trkpt>
      <trkpt lat="45.81821" lon="5.46594">
        <ele>389.2</ele>
        <time>2023-05-28T08:07:34Z</time>
      </trkpt>
      <trkpt lat="45.81809" lon="5.46598">
        <ele>388.8</ele>
        <time>2023-05-28T08:07:35Z</time>
      </trkpt>
      <trkpt lat="45.81798" lon="5.46599">
        <ele>388</ele>
        <time>2023-05-28T08:07:36Z</time>
      </trkpt>
      <trkpt lat="45.81787" lon="5.46596">
        <ele>387.8</ele>
        <time>2023-05-28T08:07:37Z</time>
      </trkpt>
      <trkpt lat="45.81776" lon="5.4659">
        <ele>386.6</ele>
        <time>2023-05-28T08:07:38Z</time>
      </trkpt>
      <trkpt lat="45.81765" lon="5.46583">
        <ele>385.6</ele>
        <time>2023-05-28T08:07:39Z</time>
      </trkpt>
      <trkpt lat="45.81755" lon="5.46576">
        <ele>385</ele>
        <time>2023-05-28T08:07:40Z</time>
      </trkpt>
      <trkpt lat="45.81744" lon="5.46569">
        <ele>383.8</ele>
        <time>2023-05-28T08:07:41Z</time>
      </trkpt>
      <trkpt lat="45.81734" lon="5.46562">
        <ele>383.4</ele>
        <time>2023-05-28T08:07:42Z</time>
      </trkpt>
      <trkpt lat="45.81723" lon="5.46555">
        <ele>382.8</ele>
        <time>2023-05-28T08:07:43Z</time>
      </trkpt>
      <trkpt lat="45.81713" lon="5.46547">
        <ele>382.4</ele>
        <time>2023-05-28T08:07:44Z</time>
      </trkpt>
      <trkpt lat="45.81702" lon="5.46539">
        <ele>381.2</ele>
        <time>2023-05-28T08:07:45Z</time>
      </trkpt>
      <trkpt lat="45.81691" lon="5.4653">
        <ele>379.6</ele>
        <time>2023-05-28T08:07:46Z</time>
      </trkpt>
      <trkpt lat="45.81681" lon="5.46521">
        <ele>379</ele>
        <time>2023-05-28T08:07:47Z</time>
      </trkpt>
      <trkpt lat="45.81668" lon="5.46512">
        <ele>378</ele>
        <time>2023-05-28T08:07:48Z</time>
      </trkpt>
      <trkpt lat="45.81658" lon="5.46506">
        <ele>377.2</ele>
        <time>2023-05-28T08:07:49Z</time>
      </trkpt>
      <trkpt lat="45.81648" lon="5.46503">
        <ele>376</ele>
        <time>2023-05-28T08:07:50Z</time>
      </trkpt>
      <trkpt lat="45.81639" lon="5.46504">
        <ele>375.4</ele>
        <time>2023-05-28T08:07:51Z</time>
      </trkpt>
      <trkpt lat="45.81629" lon="5.46506">
        <ele>374.6</ele>
        <time>2023-05-28T08:07:52Z</time>
      </trkpt>
      <trkpt lat="45.81618" lon="5.4651">
        <ele>374.2</ele>
        <time>2023-05-28T08:07:53Z</time>
      </trkpt>
      <trkpt lat="45.8161" lon="5.46516">
        <ele>373.4</ele>
        <time>2023-05-28T08:07:54Z</time>
      </trkpt>
      <trkpt lat="45.81601" lon="5.46521">
        <ele>372.4</ele>
        <time>2023-05-28T08:07:55Z</time>
      </trkpt>
      <trkpt lat="45.81593" lon="5.46526">
        <ele>371.8</ele>
        <time>2023-05-28T08:07:56Z</time>
      </trkpt>
      <trkpt lat="45.81583" lon="5.46531">
        <ele>371</ele>
        <time>2023-05-28T08:07:57Z</time>
      </trkpt>
      <trkpt lat="45.81571" lon="5.46539">
        <ele>370.4</ele>
        <time>2023-05-28T08:07:58Z</time>
      </trkpt>
      <trkpt lat="45.81561" lon="5.46547">
        <ele>369.8</ele>
        <time>2023-05-28T08:07:59Z</time>
      </trkpt>
      <trkpt lat="45.81553" lon="5.46557">
        <ele>369.6</ele>
        <time>2023-05-28T08:08:00Z</time>
      </trkpt>
      <trkpt lat="45.81546" lon="5.46566">
        <ele>369</ele>
        <time>2023-05-28T08:08:01Z</time>
      </trkpt>
      <trkpt lat="45.81539" lon="5.46578">
        <ele>368.4</ele>
        <time>2023-05-28T08:08:02Z</time>
      </trkpt>
      <trkpt lat="45.81532" lon="5.46592">
        <ele>368</ele>
        <time>2023-05-28T08:08:03Z</time>
      </trkpt>
      <trkpt lat="45.81527" lon="5.46603">
        <ele>367.2</ele>
        <time>2023-05-28T08:08:04Z</time>
      </trkpt>
      <trkpt lat="45.81521" lon="5.46613">
        <ele>367</ele>
        <time>2023-05-28T08:08:05Z</time>
      </trkpt>
      <trkpt lat="45.81516" lon="5.46618">
        <ele>366.4</ele>
        <time>2023-05-28T08:08:06Z</time>
      </trkpt>
      <trkpt lat="45.81507" lon="5.46623">
        <ele>366</ele>
        <time>2023-05-28T08:08:07Z</time>
      </trkpt>
      <trkpt lat="45.81507" lon="5.46623">
        <ele>365.4</ele>
        <time>2023-05-28T08:08:08Z</time>
      </trkpt>
      <trkpt lat="45.81488" lon="5.46628">
        <ele>364.4</ele>
        <time>2023-05-28T08:08:09Z</time>
      </trkpt>
      <trkpt lat="45.81478" lon="5.46629">
        <ele>363.8</ele>
        <time>2023-05-28T08:08:10Z</time>
      </trkpt>
      <trkpt lat="45.81468" lon="5.4663">
        <ele>363.2</ele>
        <time>2023-05-28T08:08:11Z</time>
      </trkpt>
      <trkpt lat="45.81458" lon="5.4663">
        <ele>362.8</ele>
        <time>2023-05-28T08:08:12Z</time>
      </trkpt>
      <trkpt lat="45.81445" lon="5.4663">
        <ele>362.4</ele>
        <time>2023-05-28T08:08:13Z</time>
      </trkpt>
      <trkpt lat="45.81435" lon="5.46627">
        <ele>361.4</ele>
        <time>2023-05-28T08:08:14Z</time>
      </trkpt>
      <trkpt lat="45.81425" lon="5.46623">
        <ele>360.4</ele>
        <time>2023-05-28T08:08:15Z</time>
      </trkpt>
      <trkpt lat="45.81418" lon="5.46618">
        <ele>359.8</ele>
        <time>2023-05-28T08:08:16Z</time>
      </trkpt>
      <trkpt lat="45.81409" lon="5.4661">
        <ele>359.2</ele>
        <time>2023-05-28T08:08:17Z</time>
      </trkpt>
      <trkpt lat="45.81399" lon="5.46598">
        <ele>358.2</ele>
        <time>2023-05-28T08:08:18Z</time>
      </trkpt>
      <trkpt lat="45.81391" lon="5.46586">
        <ele>357.8</ele>
        <time>2023-05-28T08:08:19Z</time>
      </trkpt>
      <trkpt lat="45.81384" lon="5.46574">
        <ele>356.6</ele>
        <time>2023-05-28T08:08:20Z</time>
      </trkpt>
      <trkpt lat="45.81377" lon="5.46565">
        <ele>356.4</ele>
        <time>2023-05-28T08:08:21Z</time>
      </trkpt>
      <trkpt lat="45.81369" lon="5.46554">
        <ele>356</ele>
        <time>2023-05-28T08:08:22Z</time>
      </trkpt>
      <trkpt lat="45.81358" lon="5.46542">
        <ele>354.2</ele>
        <time>2023-05-28T08:08:23Z</time>
      </trkpt>
      <trkpt lat="45.81348" lon="5.46534">
        <ele>353.6</ele>
        <time>2023-05-28T08:08:24Z</time>
      </trkpt>
      <trkpt lat="45.81338" lon="5.46527">
        <ele>352.6</ele>
        <time>2023-05-28T08:08:25Z</time>
      </trkpt>
      <trkpt lat="45.8133" lon="5.46524">
        <ele>352.2</ele>
        <time>2023-05-28T08:08:26Z</time>
      </trkpt>
      <trkpt lat="45.81319" lon="5.46519">
        <ele>351</ele>
        <time>2023-05-28T08:08:27Z</time>
      </trkpt>
      <trkpt lat="45.81305" lon="5.46513">
        <ele>350.6</ele>
        <time>2023-05-28T08:08:28Z</time>
      </trkpt>
      <trkpt lat="45.81295" lon="5.46506">
        <ele>350</ele>
        <time>2023-05-28T08:08:29Z</time>
      </trkpt>
      <trkpt lat="45.81285" lon="5.46497">
        <ele>349.6</ele>
        <time>2023-05-28T08:08:30Z</time>
      </trkpt>
      <trkpt lat="45.81278" lon="5.46487">
        <ele>348.2</ele>
        <time>2023-05-28T08:08:31Z</time>
      </trkpt>
      <trkpt lat="45.81271" lon="5.46473">
        <ele>347.2</ele>
        <time>2023-05-28T08:08:32Z</time>
      </trkpt>
      <trkpt lat="45.81264" lon="5.46454">
        <ele>346.8</ele>
        <time>2023-05-28T08:08:33Z</time>
      </trkpt>
      <trkpt lat="45.8126" lon="5.46441">
        <ele>345.8</ele>
        <time>2023-05-28T08:08:34Z</time>
      </trkpt>
      <trkpt lat="45.81253" lon="5.46426">
        <ele>345.4</ele>
        <time>2023-05-28T08:08:35Z</time>
      </trkpt>
      <trkpt lat="45.81246" lon="5.46412">
        <ele>344.4</ele>
        <time>2023-05-28T08:08:36Z</time>
      </trkpt>
      <trkpt lat="45.81238" lon="5.46399">
        <ele>344.2</ele>
        <time>2023-05-28T08:08:37Z</time>
      </trkpt>
      <trkpt lat="45.81228" lon="5.46384">
        <ele>343.2</ele>
        <time>2023-05-28T08:08:38Z</time>
      </trkpt>
      <trkpt lat="45.81219" lon="5.46371">
        <ele>342.4</ele>
        <time>2023-05-28T08:08:39Z</time>
      </trkpt>
      <trkpt lat="45.81211" lon="5.4636">
        <ele>341.8</ele>
        <time>2023-05-28T08:08:40Z</time>
      </trkpt>
      <trkpt lat="45.81202" lon="5.46348">
        <ele>341.2</ele>
        <time>2023-05-28T08:08:41Z</time>
      </trkpt>
      <trkpt lat="45.81192" lon="5.46338">
        <ele>340.6</ele>
        <time>2023-05-28T08:08:42Z</time>
      </trkpt>
      <trkpt lat="45.81179" lon="5.46327">
        <ele>339.8</ele>
        <time>2023-05-28T08:08:43Z</time>
      </trkpt>
      <trkpt lat="45.81168" lon="5.46319">
        <ele>339.6</ele>
        <time>2023-05-28T08:08:44Z</time>
      </trkpt>
      <trkpt lat="45.81156" lon="5.46311">
        <ele>338.6</ele>
        <time>2023-05-28T08:08:45Z</time>
      </trkpt>
      <trkpt lat="45.81144" lon="5.46304">
        <ele>337.6</ele>
        <time>2023-05-28T08:08:46Z</time>
      </trkpt>
      <trkpt lat="45.81133" lon="5.46295">
        <ele>337.2</ele>
        <time>2023-05-28T08:08:47Z</time>
      </trkpt>
      <trkpt lat="45.81123" lon="5.46286">
        <ele>336.8</ele>
        <time>2023-05-28T08:08:48Z</time>
      </trkpt>
      <trkpt lat="45.81112" lon="5.46276">
        <ele>336.6</ele>
        <time>2023-05-28T08:08:49Z</time>
      </trkpt>
      <trkpt lat="45.81101" lon="5.46266">
        <ele>335.4</ele>
        <time>2023-05-28T08:08:50Z</time>
      </trkpt>
      <trkpt lat="45.81091" lon="5.46253">
        <ele>334.8</ele>
        <time>2023-05-28T08:08:51Z</time>
      </trkpt>
      <trkpt lat="45.81083" lon="5.4624">
        <ele>333.4</ele>
        <time>2023-05-28T08:08:52Z</time>
      </trkpt>
      <trkpt lat="45.81075" lon="5.46227">
        <ele>331.4</ele>
        <time>2023-05-28T08:08:53Z</time>
      </trkpt>
      <trkpt lat="45.81068" lon="5.46214">
        <ele>331</ele>
        <time>2023-05-28T08:08:54Z</time>
      </trkpt>
      <trkpt lat="45.81061" lon="5.46199">
        <ele>330</ele>
        <time>2023-05-28T08:08:55Z</time>
      </trkpt>
      <trkpt lat="45.81056" lon="5.46183">
        <ele>328.8</ele>
        <time>2023-05-28T08:08:56Z</time>
      </trkpt>
      <trkpt lat="45.8105" lon="5.46168">
        <ele>327.4</ele>
        <time>2023-05-28T08:08:57Z</time>
      </trkpt>
      <trkpt lat="45.81044" lon="5.46153">
        <ele>326.8</ele>
        <time>2023-05-28T08:08:58Z</time>
      </trkpt>
      <trkpt lat="45.81037" lon="5.46138">
        <ele>325</ele>
        <time>2023-05-28T08:08:59Z</time>
      </trkpt>
      <trkpt lat="45.8103" lon="5.46124">
        <ele>324.2</ele>
        <time>2023-05-28T08:09:00Z</time>
      </trkpt>
      <trkpt lat="45.81023" lon="5.4611">
        <ele>323</ele>
        <time>2023-05-28T08:09:01Z</time>
      </trkpt>
      <trkpt lat="45.81016" lon="5.46095">
        <ele>321.8</ele>
        <time>2023-05-28T08:09:02Z</time>
      </trkpt>
      <trkpt lat="45.81008" lon="5.4608">
        <ele>321.4</ele>
        <time>2023-05-28T08:09:03Z</time>
      </trkpt>
      <trkpt lat="45.81001" lon="5.46065">
        <ele>320.2</ele>
        <time>2023-05-28T08:09:04Z</time>
      </trkpt>
      <trkpt lat="45.80993" lon="5.4605">
        <ele>319.8</ele>
        <time>2023-05-28T08:09:05Z</time>
      </trkpt>
      <trkpt lat="45.80984" lon="5.46036">
        <ele>318.6</ele>
        <time>2023-05-28T08:09:06Z</time>
      </trkpt>
      <trkpt lat="45.80976" lon="5.4602">
        <ele>318</ele>
        <time>2023-05-28T08:09:07Z</time>
      </trkpt>
      <trkpt lat="45.80968" lon="5.46004">
        <ele>317.2</ele>
        <time>2023-05-28T08:09:08Z</time>
      </trkpt>
      <trkpt lat="45.8096" lon="5.45989">
        <ele>316.4</ele>
        <time>2023-05-28T08:09:09Z</time>
      </trkpt>
      <trkpt lat="45.80953" lon="5.45972">
        <ele>316.2</ele>
        <time>2023-05-28T08:09:10Z</time>
      </trkpt>
      <trkpt lat="45.80947" lon="5.45955">
        <ele>315</ele>
        <time>2023-05-28T08:09:11Z</time>
      </trkpt>
      <trkpt lat="45.80941" lon="5.45938">
        <ele>314.6</ele>
        <time>2023-05-28T08:09:12Z</time>
      </trkpt>
      <trkpt lat="45.80935" lon="5.4592">
        <ele>313.2</ele>
        <time>2023-05-28T08:09:13Z</time>
      </trkpt>
      <trkpt lat="45.8093" lon="5.45903">
        <ele>312.4</ele>
        <time>2023-05-28T08:09:14Z</time>
      </trkpt>
      <trkpt lat="45.80924" lon="5.45882">
        <ele>311.4</ele>
        <time>2023-05-28T08:09:15Z</time>
      </trkpt>
      <trkpt lat="45.8092" lon="5.45869">
        <ele>310.8</ele>
        <time>2023-05-28T08:09:16Z</time>
      </trkpt>
      <trkpt lat="45.80915" lon="5.45852">
        <ele>310</ele>
        <time>2023-05-28T08:09:17Z</time>
      </trkpt>
      <trkpt lat="45.8091" lon="5.45834">
        <ele>308.4</ele>
        <time>2023-05-28T08:09:18Z</time>
      </trkpt>
      <trkpt lat="45.80905" lon="5.45816">
        <ele>307.8</ele>
        <time>2023-05-28T08:09:19Z</time>
      </trkpt>
      <trkpt lat="45.80901" lon="5.45798">
        <ele>307</ele>
        <time>2023-05-28T08:09:20Z</time>
      </trkpt>
      <trkpt lat="45.80898" lon="5.4578">
        <ele>306.6</ele>
        <time>2023-05-28T08:09:21Z</time>
      </trkpt>
      <trkpt lat="45.80893" lon="5.45761">
        <ele>305.8</ele>
        <time>2023-05-28T08:09:22Z</time>
      </trkpt>
      <trkpt lat="45.80887" lon="5.45744">
        <ele>304.2</ele>
        <time>2023-05-28T08:09:23Z</time>
      </trkpt>
      <trkpt lat="45.80881" lon="5.45727">
        <ele>303.6</ele>
        <time>2023-05-28T08:09:24Z</time>
      </trkpt>
      <trkpt lat="45.80872" lon="5.45711">
        <ele>302</ele>
        <time>2023-05-28T08:09:25Z</time>
      </trkpt>
      <trkpt lat="45.80864" lon="5.45696">
        <ele>301.4</ele>
        <time>2023-05-28T08:09:26Z</time>
      </trkpt>
      <trkpt lat="45.80855" lon="5.45681">
        <ele>300</ele>
        <time>2023-05-28T08:09:27Z</time>
      </trkpt>
      <trkpt lat="45.80847" lon="5.45665">
        <ele>299.2</ele>
        <time>2023-05-28T08:09:28Z</time>
      </trkpt>
      <trkpt lat="45.80841" lon="5.45648">
        <ele>298.4</ele>
        <time>2023-05-28T08:09:29Z</time>
      </trkpt>
      <trkpt lat="45.80837" lon="5.45629">
        <ele>298</ele>
        <time>2023-05-28T08:09:30Z</time>
      </trkpt>
      <trkpt lat="45.80835" lon="5.4561">
        <ele>296.6</ele>
        <time>2023-05-28T08:09:31Z</time>
      </trkpt>
      <trkpt lat="45.80835" lon="5.45592">
        <ele>295.4</ele>
        <time>2023-05-28T08:09:32Z</time>
      </trkpt>
      <trkpt lat="45.80835" lon="5.45573">
        <ele>294.4</ele>
        <time>2023-05-28T08:09:33Z</time>
      </trkpt>
      <trkpt lat="45.80838" lon="5.45554">
        <ele>293.2</ele>
        <time>2023-05-28T08:09:34Z</time>
      </trkpt>
      <trkpt lat="45.80842" lon="5.45537">
        <ele>292.6</ele>
        <time>2023-05-28T08:09:35Z</time>
      </trkpt>
      <trkpt lat="45.80849" lon="5.4552">
        <ele>291</ele>
        <time>2023-05-28T08:09:36Z</time>
      </trkpt>
      <trkpt lat="45.80857" lon="5.45505">
        <ele>290.6</ele>
        <time>2023-05-28T08:09:37Z</time>
      </trkpt>
      <trkpt lat="45.80866" lon="5.45492">
        <ele>289</ele>
        <time>2023-05-28T08:09:38Z</time>
      </trkpt>
      <trkpt lat="45.80875" lon="5.4548">
        <ele>288.2</ele>
        <time>2023-05-28T08:09:39Z</time>
      </trkpt>
      <trkpt lat="45.80886" lon="5.45469">
        <ele>287</ele>
        <time>2023-05-28T08:09:40Z</time>
      </trkpt>
      <trkpt lat="45.80897" lon="5.4546">
        <ele>284.8</ele>
        <time>2023-05-28T08:09:41Z</time>
      </trkpt>
      <trkpt lat="45.80908" lon="5.4545">
        <ele>284.2</ele>
        <time>2023-05-28T08:09:42Z</time>
      </trkpt>
      <trkpt lat="45.80919" lon="5.45441">
        <ele>283.4</ele>
        <time>2023-05-28T08:09:43Z</time>
      </trkpt>
      <trkpt lat="45.8093" lon="5.45431">
        <ele>283</ele>
        <time>2023-05-28T08:09:44Z</time>
      </trkpt>
      <trkpt lat="45.80942" lon="5.45421">
        <ele>282.2</ele>
        <time>2023-05-28T08:09:45Z</time>
      </trkpt>
      <trkpt lat="45.80951" lon="5.45413">
        <ele>280.4</ele>
        <time>2023-05-28T08:09:46Z</time>
      </trkpt>
      <trkpt lat="45.80962" lon="5.45404">
        <ele>279.6</ele>
        <time>2023-05-28T08:09:47Z</time>
      </trkpt>
      <trkpt lat="45.80976" lon="5.45393">
        <ele>278.8</ele>
        <time>2023-05-28T08:09:48Z</time>
      </trkpt>
      <trkpt lat="45.80988" lon="5.45385">
        <ele>278.2</ele>
        <time>2023-05-28T08:09:49Z</time>
      </trkpt>
      <trkpt lat="45.81" lon="5.45375">
        <ele>276.8</ele>
        <time>2023-05-28T08:09:50Z</time>
      </trkpt>
      <trkpt lat="45.81011" lon="5.45366">
        <ele>276.4</ele>
        <time>2023-05-28T08:09:51Z</time>
      </trkpt>
      <trkpt lat="45.81021" lon="5.45359">
        <ele>275.4</ele>
        <time>2023-05-28T08:09:52Z</time>
      </trkpt>
      <trkpt lat="45.81035" lon="5.45348">
        <ele>274.4</ele>
        <time>2023-05-28T08:09:53Z</time>
      </trkpt>
      <trkpt lat="45.81047" lon="5.45339">
        <ele>274.2</ele>
        <time>2023-05-28T08:09:54Z</time>
      </trkpt>
      <trkpt lat="45.81059" lon="5.45331">
        <ele>273.4</ele>
        <time>2023-05-28T08:09:55Z</time>
      </trkpt>
      <trkpt lat="45.81068" lon="5.45325">
        <ele>273</ele>
        <time>2023-05-28T08:09:56Z</time>
      </trkpt>
      <trkpt lat="45.81083" lon="5.45316">
        <ele>271.8</ele>
        <time>2023-05-28T08:09:57Z</time>
      </trkpt>
      <trkpt lat="45.81095" lon="5.4531">
        <ele>271.4</ele>
        <time>2023-05-28T08:09:58Z</time>
      </trkpt>
      <trkpt lat="45.81108" lon="5.45304">
        <ele>270.8</ele>
        <time>2023-05-28T08:09:59Z</time>
      </trkpt>
      <trkpt lat="45.8112" lon="5.45298">
        <ele>269.6</ele>
        <time>2023-05-28T08:10:00Z</time>
      </trkpt>
      <trkpt lat="45.81131" lon="5.45292">
        <ele>268.6</ele>
        <time>2023-05-28T08:10:01Z</time>
      </trkpt>
      <trkpt lat="45.81143" lon="5.45286">
        <ele>267.4</ele>
        <time>2023-05-28T08:10:02Z</time>
      </trkpt>
      <trkpt lat="45.81154" lon="5.45279">
        <ele>267</ele>
        <time>2023-05-28T08:10:03Z</time>
      </trkpt>
      <trkpt lat="45.81163" lon="5.45274">
        <ele>265</ele>
        <time>2023-05-28T08:10:04Z</time>
      </trkpt>
      <trkpt lat="45.81173" lon="5.45268">
        <ele>264.2</ele>
        <time>2023-05-28T08:10:05Z</time>
      </trkpt>
      <trkpt lat="45.81183" lon="5.45265">
        <ele>263.2</ele>
        <time>2023-05-28T08:10:06Z</time>
      </trkpt>
      <trkpt lat="45.81193" lon="5.45262">
        <ele>262.8</ele>
        <time>2023-05-28T08:10:07Z</time>
      </trkpt>
      <trkpt lat="45.81203" lon="5.45259">
        <ele>261.4</ele>
        <time>2023-05-28T08:10:08Z</time>
      </trkpt>
      <trkpt lat="45.81209" lon="5.45255">
        <ele>260.2</ele>
        <time>2023-05-28T08:10:09Z</time>
      </trkpt>
      <trkpt lat="45.81213" lon="5.4525">
        <ele>259.6</ele>
        <time>2023-05-28T08:10:10Z</time>
      </trkpt>
      <trkpt lat="45.81216" lon="5.45244">
        <ele>257.8</ele>
        <time>2023-05-28T08:10:11Z</time>
      </trkpt>
      <trkpt lat="45.81216" lon="5.45239">
        <ele>257.2</ele>
        <time>2023-05-28T08:10:12Z</time>
      </trkpt>
      <trkpt lat="45.81216" lon="5.45235">
        <ele>256.2</ele>
        <time>2023-05-28T08:10:13Z</time>
      </trkpt>
      <trkpt lat="45.81216" lon="5.45233">
        <ele>255.4</ele>
        <time>2023-05-28T08:10:14Z</time>
      </trkpt>
      <trkpt lat="45.81216" lon="5.45232">
        <ele>254</ele>
        <time>2023-05-28T08:10:15Z</time>
      </trkpt>
      <trkpt lat="45.81216" lon="5.45232">
        <ele>253.2</ele>
        <time>2023-05-28T08:10:16Z</time>
      </trkpt>
      <trkpt lat="45.81216" lon="5.45232">
        <ele>252.6</ele>
        <time>2023-05-28T08:10:17Z</time>
      </trkpt>
      <trkpt lat="45.81216" lon="5.45232">
        <ele>251.8</ele>
        <time>2023-05-28T08:10:18Z</time>
      </trkpt>
      <trkpt lat="45.81216" lon="5.45232">
        <ele>251.4</ele>
        <time>2023-05-28T08:10:19Z</time>
      </trkpt>
      <trkpt lat="45.81216" lon="5.45232">
        <ele>250.6</ele>
        <time>2023-05-28T08:10:20Z</time>
      </trkpt>
      <trkpt lat="45.81216" lon="5.45232">
        <ele>250.4</ele>
        <time>2023-05-28T08:10:21Z</time>
      </trkpt>
      <trkpt lat="45.81216" lon="5.45232">
        <ele>249.8</ele>
        <time>2023-05-28T08:10:22Z</time>
      </trkpt>
      <trkpt lat="45.81216" lon="5.45232">
        <ele>249.2</ele>
        <time>2023-05-28T08:10:23Z</time>
      </trkpt>
      <trkpt lat="45.81216" lon="5.45232">
        <ele>248.8</ele>
        <time>2023-05-28T08:10:24Z</time>
      </trkpt>
      <trkpt lat="45.81216" lon="5.45232">
        <ele>248.2</ele>
        <time>2023-05-28T08:10:25Z</time>
      </trkpt>
      <trkpt lat="45.81216" lon="5.45232">
        <ele>248</ele>
        <time>2023-05-28T08:10:26Z</time>
      </trkpt>
      <trkpt lat="45.81216" lon="5.45232">
        <ele>247.6</ele>
        <time>2023-05-28T08:10:27Z</time>
      </trkpt>
      <trkpt lat="45.81216" lon="5.45232">
        <ele>247.4</ele>
        <time>2023-05-28T08:10:28Z</time>
      </trkpt>
      <trkpt lat="45.81216" lon="5.45232">
        <ele>247.2</ele>
        <time>2023-05-28T08:10:29Z</time>
      </trkpt>
      <trkpt lat="45.81216" lon="5.45232">
        <ele>246.6</ele>
        <time>2023-05-28T08:10:30Z</time>
      </trkpt>
      <trkpt lat="45.81216" lon="5.45232">
        <ele>246.6</ele>
        <time>2023-05-28T08:10:31Z</time>
      </trkpt>
      <trkpt lat="45.81216" lon="5.45232">
        <ele>246.2</ele>
        <time>2023-05-28T08:10:32Z</time>
      </trkpt>
      <trkpt lat="45.81216" lon="5.45232">
        <ele>246</ele>
        <time>2023-05-28T08:10:33Z</time>
      </trkpt>
      <trkpt lat="45.81216" lon="5.45232">
        <ele>245.8</ele>
        <time>2023-05-28T08:10:34Z</time>
      </trkpt>
      <trkpt lat="45.81215" lon="5.4523">
        <ele>245.4</ele>
        <time>2023-05-28T08:10:35Z</time>
      </trkpt>
      <trkpt lat="45.81213" lon="5.45228">
        <ele>245.2</ele>
        <time>2023-05-28T08:10:36Z</time>
      </trkpt>
      <trkpt lat="45.81212" lon="5.45227">
        <ele>245</ele>
        <time>2023-05-28T08:10:37Z</time>
      </trkpt>
      <trkpt lat="45.81209" lon="5.45226">
        <ele>244.6</ele>
        <time>2023-05-28T08:10:38Z</time>
      </trkpt>
      <trkpt lat="45.81206" lon="5.45227">
        <ele>244</ele>
        <time>2023-05-28T08:10:39Z</time>
      </trkpt>
      <trkpt lat="45.81203" lon="5.45228">
        <ele>243.8</ele>
        <time>2023-05-28T08:10:40Z</time>
      </trkpt>
      <trkpt lat="45.812" lon="5.45229">
        <ele>243.4</ele>
        <time>2023-05-28T08:10:41Z</time>
      </trkpt>
      <trkpt lat="45.81197" lon="5.4523">
        <ele>243.2</ele>
        <time>2023-05-28T08:10:42Z</time>
      </trkpt>
      <trkpt lat="45.81194" lon="5.45231">
        <ele>242.8</ele>
        <time>2023-05-28T08:10:43Z</time>
      </trkpt>
      <trkpt lat="45.8119" lon="5.45233">
        <ele>242.6</ele>
        <time>2023-05-28T08:10:44Z</time>
      </trkpt>
      <trkpt lat="45.81186" lon="5.45235">
        <ele>242</ele>
        <time>2023-05-28T08:10:45Z</time>
      </trkpt>
      <trkpt lat="45.81182" lon="5.45237">
        <ele>241.6</ele>
        <time>2023-05-28T08:10:46Z</time>
      </trkpt>
      <trkpt lat="45.81178" lon="5.45239">
        <ele>241.2</ele>
        <time>2023-05-28T08:10:47Z</time>
      </trkpt>
      <trkpt lat="45.81174" lon="5.45241">
        <ele>240.8</ele>
        <time>2023-05-28T08:10:48Z</time>
      </trkpt>
      <trkpt lat="45.81169" lon="5.45244">
        <ele>240.6</ele>
        <time>2023-05-28T08:10:49Z</time>
      </trkpt>
      <trkpt lat="45.81165" lon="5.45246">
        <ele>240.4</ele>
        <time>2023-05-28T08:10:50Z</time>
      </trkpt>
      <trkpt lat="45.8116" lon="5.45247">
        <ele>240.4</ele>
        <time>2023-05-28T08:10:51Z</time>
      </trkpt>
      <trkpt lat="45.81155" lon="5.4525">
        <ele>240.2</ele>
        <time>2023-05-28T08:10:52Z</time>
      </trkpt>
      <trkpt lat="45.8115" lon="5.45252">
        <ele>240</ele>
        <time>2023-05-28T08:10:53Z</time>
      </trkpt>
      <trkpt lat="45.81145" lon="5.45254">
        <ele>240</ele>
        <time>2023-05-28T08:10:54Z</time>
      </trkpt>
      <trkpt lat="45.81141" lon="5.45256">
        <ele>239.8</ele>
        <time>2023-05-28T08:10:55Z</time>
      </trkpt>
      <trkpt lat="45.81136" lon="5.45258">
        <ele>239.8</ele>
        <time>2023-05-28T08:10:56Z</time>
      </trkpt>
      <trkpt lat="45.81131" lon="5.45261">
        <ele>239.8</ele>
        <time>2023-05-28T08:10:57Z</time>
      </trkpt>
      <trkpt lat="45.81127" lon="5.45263">
        <ele>239.8</ele>
        <time>2023-05-28T08:10:58Z</time>
      </trkpt>
      <trkpt lat="45.81122" lon="5.45265">
        <ele>239.8</ele>
        <time>2023-05-28T08:10:59Z</time>
      </trkpt>
      <trkpt lat="45.81117" lon="5.45266">
        <ele>239.8</ele>
        <time>2023-05-28T08:11:00Z</time>
      </trkpt>
      <trkpt lat="45.81112" lon="5.45268">
        <ele>239.8</ele>
        <time>2023-05-28T08:11:01Z</time>
      </trkpt>
      <trkpt lat="45.81107" lon="5.4527">
        <ele>239.8</ele>
        <time>2023-05-28T08:11:02Z</time>
      </trkpt>
      <trkpt lat="45.81102" lon="5.45271">
        <ele>239.8</ele>
        <time>2023-05-28T08:11:03Z</time>
      </trkpt>
      <trkpt lat="45.81097" lon="5.45273">
        <ele>239.8</ele>
        <time>2023-05-28T08:11:04Z</time>
      </trkpt>
      <trkpt lat="45.81092" lon="5.45274">
        <ele>239.8</ele>
        <time>2023-05-28T08:11:05Z</time>
      </trkpt>
      <trkpt lat="45.81087" lon="5.45276">
        <ele>239.8</ele>
        <time>2023-05-28T08:11:06Z</time>
      </trkpt>
      <trkpt lat="45.81081" lon="5.45278">
        <ele>240</ele>
        <time>2023-05-28T08:11:07Z</time>
      </trkpt>
      <trkpt lat="45.81076" lon="5.4528">
        <ele>240.2</ele>
        <time>2023-05-28T08:11:08Z</time>
      </trkpt>
      <trkpt lat="45.81071" lon="5.45282">
        <ele>240.4</ele>
        <time>2023-05-28T08:11:09Z</time>
      </trkpt>
      <trkpt lat="45.81066" lon="5.45284">
        <ele>240.6</ele>
        <time>2023-05-28T08:11:10Z</time>
      </trkpt>
      <trkpt lat="45.81061" lon="5.45285">
        <ele>240.8</ele>
        <time>2023-05-28T08:11:11Z</time>
      </trkpt>
      <trkpt lat="45.81055" lon="5.45287">
        <ele>241</ele>
        <time>2023-05-28T08:11:12Z</time>
      </trkpt>
      <trkpt lat="45.8105" lon="5.45288">
        <ele>241</ele>
        <time>2023-05-28T08:11:13Z</time>
      </trkpt>
      <trkpt lat="45.81044" lon="5.4529">
        <ele>241</ele>
        <time>2023-05-28T08:11:14Z</time>
      </trkpt>
      <trkpt lat="45.81039" lon="5.45291">
        <ele>241.2</ele>
        <time>2023-05-28T08:11:15Z</time>
      </trkpt>
      <trkpt lat="45.81033" lon="5.45293">
        <ele>241.2</ele>
        <time>2023-05-28T08:11:16Z</time>
      </trkpt>
      <trkpt lat="45.81028" lon="5.45294">
        <ele>241.2</ele>
        <time>2023-05-28T08:11:17Z</time>
      </trkpt>
      <trkpt lat="45.81022" lon="5.45296">
        <ele>241.2</ele>
        <time>2023-05-28T08:11:18Z</time>
      </trkpt>
      <trkpt lat="45.81017" lon="5.45297">
        <ele>241.2</ele>
        <time>2023-05-28T08:11:19Z</time>
      </trkpt>
      <trkpt lat="45.81011" lon="5.45298">
        <ele>241.4</ele>
        <time>2023-05-28T08:11:20Z</time>
      </trkpt>
      <trkpt lat="45.81005" lon="5.45298">
        <ele>241.4</ele>
        <time>2023-05-28T08:11:21Z</time>
      </trkpt>
      <trkpt lat="45.80999" lon="5.45298">
        <ele>241.6</ele>
        <time>2023-05-28T08:11:22Z</time>
      </trkpt>
      <trkpt lat="45.80993" lon="5.45297">
        <ele>241.6</ele>
        <time>2023-05-28T08:11:23Z</time>
      </trkpt>
      <trkpt lat="45.80987" lon="5.45295">
        <ele>241.6</ele>
        <time>2023-05-28T08:11:24Z</time>
      </trkpt>
      <trkpt lat="45.80982" lon="5.45293">
        <ele>241.6</ele>
        <time>2023-05-28T08:11:25Z</time>
      </trkpt>
      <trkpt lat="45.80977" lon="5.45291">
        <ele>241.6</ele>
        <time>2023-05-28T08:11:26Z</time>
      </trkpt>
      <trkpt lat="45.80971" lon="5.45288">
        <ele>241.6</ele>
        <time>2023-05-28T08:11:27Z</time>
      </trkpt>
      <trkpt lat="45.80965" lon="5.45286">
        <ele>241.6</ele>
        <time>2023-05-28T08:11:28Z</time>
      </trkpt>
      <trkpt lat="45.80959" lon="5.45283">
        <ele>241.6</ele>
        <time>2023-05-28T08:11:29Z</time>
      </trkpt>
      <trkpt lat="45.80954" lon="5.45281">
        <ele>241.6</ele>
        <time>2023-05-28T08:11:30Z</time>
      </trkpt>
      <trkpt lat="45.80948" lon="5.45278">
        <ele>241.6</ele>
        <time>2023-05-28T08:11:31Z</time>
      </trkpt>
      <trkpt lat="45.80942" lon="5.45276">
        <ele>241.6</ele>
        <time>2023-05-28T08:11:32Z</time>
      </trkpt>
      <trkpt lat="45.80937" lon="5.45275">
        <ele>241.6</ele>
        <time>2023-05-28T08:11:33Z</time>
      </trkpt>
      <trkpt lat="45.8093" lon="5.45274">
        <ele>241.8</ele>
        <time>2023-05-28T08:11:34Z</time>
      </trkpt>
      <trkpt lat="45.80924" lon="5.45274">
        <ele>241.8</ele>
        <time>2023-05-28T08:11:35Z</time>
      </trkpt>
      <trkpt lat="45.80919" lon="5.45274">
        <ele>241.8</ele>
        <time>2023-05-28T08:11:36Z</time>
      </trkpt>
      <trkpt lat="45.80913" lon="5.45275">
        <ele>241.8</ele>
        <time>2023-05-28T08:11:37Z</time>
      </trkpt>
      <trkpt lat="45.80907" lon="5.45278">
        <ele>241.8</ele>
        <time>2023-05-28T08:11:38Z</time>
      </trkpt>
      <trkpt lat="45.80902" lon="5.45281">
        <ele>241.6</ele>
        <time>2023-05-28T08:11:39Z</time>
      </trkpt>
      <trkpt lat="45.80896" lon="5.45285">
        <ele>241.6</ele>
        <time>2023-05-28T08:11:40Z</time>
      </trkpt>
      <trkpt lat="45.8089" lon="5.4529">
        <ele>241.8</ele>
        <time>2023-05-28T08:11:41Z</time>
      </trkpt>
      <trkpt lat="45.80885" lon="5.45294">
        <ele>241.8</ele>
        <time>2023-05-28T08:11:42Z</time>
      </trkpt>
      <trkpt lat="45.80879" lon="5.45299">
        <ele>241.8</ele>
        <time>2023-05-28T08:11:43Z</time>
      </trkpt>
      <trkpt lat="45.80873" lon="5.45303">
        <ele>242</ele>
        <time>2023-05-28T08:11:44Z</time>
      </trkpt>
      <trkpt lat="45.80868" lon="5.45307">
        <ele>242</ele>
        <time>2023-05-28T08:11:45Z</time>
      </trkpt>
      <trkpt lat="45.80863" lon="5.4531">
        <ele>242</ele>
        <time>2023-05-28T08:11:46Z</time>
      </trkpt>
      <trkpt lat="45.80857" lon="5.45315">
        <ele>242</ele>
        <time>2023-05-28T08:11:47Z</time>
      </trkpt>
      <trkpt lat="45.80852" lon="5.4532">
        <ele>242.4</ele>
        <time>2023-05-28T08:11:48Z</time>
      </trkpt>
      <trkpt lat="45.80847" lon="5.45324">
        <ele>242.6</ele>
        <time>2023-05-28T08:11:49Z</time>
      </trkpt>
      <trkpt lat="45.80843" lon="5.45326">
        <ele>243</ele>
        <time>2023-05-28T08:11:50Z</time>
      </trkpt>
      <trkpt lat="45.80837" lon="5.45329">
        <ele>243</ele>
        <time>2023-05-28T08:11:51Z</time>
      </trkpt>
      <trkpt lat="45.80831" lon="5.45332">
        <ele>243.2</ele>
        <time>2023-05-28T08:11:52Z</time>
      </trkpt>
      <trkpt lat="45.80824" lon="5.45335">
        <ele>243.4</ele>
        <time>2023-05-28T08:11:53Z</time>
      </trkpt>
      <trkpt lat="45.8082" lon="5.45336">
        <ele>243.4</ele>
        <time>2023-05-28T08:11:54Z</time>
      </trkpt>
      <trkpt lat="45.80816" lon="5.45337">
        <ele>243.6</ele>
        <time>2023-05-28T08:11:55Z</time>
      </trkpt>
      <trkpt lat="45.80814" lon="5.45338">
        <ele>243.6</ele>
        <time>2023-05-28T08:11:56Z</time>
      </trkpt>
      <trkpt lat="45.80809" lon="5.45338">
        <ele>243.6</ele>
        <time>2023-05-28T08:11:57Z</time>
      </trkpt>
      <trkpt lat="45.80805" lon="5.45339">
        <ele>243.6</ele>
        <time>2023-05-28T08:11:58Z</time>
      </trkpt>
      <trkpt lat="45.80801" lon="5.4534">
        <ele>243.6</ele>
        <time>2023-05-28T08:11:59Z</time>
      </trkpt>
      <trkpt lat="45.80795" lon="5.45341">
        <ele>243.6</ele>
        <time>2023-05-28T08:12:00Z</time>
      </trkpt>
      <trkpt lat="45.8079" lon="5.45342">
        <ele>243.6</ele>
        <time>2023-05-28T08:12:01Z</time>
      </trkpt>
      <trkpt lat="45.80785" lon="5.45343">
        <ele>243.6</ele>
        <time>2023-05-28T08:12:02Z</time>
      </trkpt>
      <trkpt lat="45.8078" lon="5.45343">
        <ele>243.6</ele>
        <time>2023-05-28T08:12:03Z</time>
      </trkpt>
      <trkpt lat="45.80775" lon="5.45344">
        <ele>243.8</ele>
        <time>2023-05-28T08:12:05Z</time>
      </trkpt>
      <trkpt lat="45.80773" lon="5.45345">
        <ele>243.8</ele>
        <time>2023-05-28T08:12:06Z</time>
      </trkpt>
      <trkpt lat="45.80771" lon="5.45346">
        <ele>243.8</ele>
        <time>2023-05-28T08:12:07Z</time>
      </trkpt>
      <trkpt lat="45.80768" lon="5.45346">
        <ele>243.8</ele>
        <time>2023-05-28T08:12:08Z</time>
      </trkpt>
      <trkpt lat="45.80764" lon="5.45347">
        <ele>243.6</ele>
        <time>2023-05-28T08:12:09Z</time>
      </trkpt>
      <trkpt lat="45.8076" lon="5.45348">
        <ele>243.6</ele>
        <time>2023-05-28T08:12:10Z</time>
      </trkpt>
      <trkpt lat="45.80755" lon="5.4535">
        <ele>243.4</ele>
        <time>2023-05-28T08:12:11Z</time>
      </trkpt>
      <trkpt lat="45.8075" lon="5.45351">
        <ele>243.2</ele>
        <time>2023-05-28T08:12:12Z</time>
      </trkpt>
      <trkpt lat="45.80745" lon="5.45352">
        <ele>243</ele>
        <time>2023-05-28T08:12:13Z</time>
      </trkpt>
      <trkpt lat="45.80733" lon="5.45355">
        <ele>242.6</ele>
        <time>2023-05-28T08:12:15Z</time>
      </trkpt>
      <trkpt lat="45.80727" lon="5.45356">
        <ele>242.4</ele>
        <time>2023-05-28T08:12:16Z</time>
      </trkpt>
      <trkpt lat="45.80722" lon="5.45358">
        <ele>242.2</ele>
        <time>2023-05-28T08:12:17Z</time>
      </trkpt>
      <trkpt lat="45.80717" lon="5.45359">
        <ele>242.2</ele>
        <time>2023-05-28T08:12:18Z</time>
      </trkpt>
      <trkpt lat="45.80712" lon="5.45358">
        <ele>242.2</ele>
        <time>2023-05-28T08:12:19Z</time>
      </trkpt>
      <trkpt lat="45.80704" lon="5.45359">
        <ele>242.2</ele>
        <time>2023-05-28T08:12:20Z</time>
      </trkpt>
      <trkpt lat="45.80699" lon="5.45359">
        <ele>242</ele>
        <time>2023-05-28T08:12:21Z</time>
      </trkpt>
      <trkpt lat="45.80692" lon="5.4536">
        <ele>242</ele>
        <time>2023-05-28T08:12:22Z</time>
      </trkpt>
      <trkpt lat="45.80683" lon="5.45362">
        <ele>242</ele>
        <time>2023-05-28T08:12:23Z</time>
      </trkpt>
      <trkpt lat="45.80677" lon="5.45365">
        <ele>242</ele>
        <time>2023-05-28T08:12:24Z</time>
      </trkpt>
      <trkpt lat="45.8067" lon="5.45368">
        <ele>242</ele>
        <time>2023-05-28T08:12:25Z</time>
      </trkpt>
      <trkpt lat="45.80663" lon="5.45371">
        <ele>242</ele>
        <time>2023-05-28T08:12:26Z</time>
      </trkpt>
      <trkpt lat="45.80656" lon="5.45374">
        <ele>242</ele>
        <time>2023-05-28T08:12:27Z</time>
      </trkpt>
      <trkpt lat="45.80649" lon="5.45377">
        <ele>242</ele>
        <time>2023-05-28T08:12:28Z</time>
      </trkpt>
      <trkpt lat="45.80644" lon="5.45379">
        <ele>242</ele>
        <time>2023-05-28T08:12:29Z</time>
      </trkpt>
      <trkpt lat="45.80637" lon="5.4538">
        <ele>242</ele>
        <time>2023-05-28T08:12:30Z</time>
      </trkpt>
      <trkpt lat="45.80631" lon="5.45382">
        <ele>242</ele>
        <time>2023-05-28T08:12:31Z</time>
      </trkpt>
      <trkpt lat="45.80624" lon="5.45385">
        <ele>242</ele>
        <time>2023-05-28T08:12:32Z</time>
      </trkpt>
      <trkpt lat="45.80618" lon="5.45388">
        <ele>242</ele>
        <time>2023-05-28T08:12:33Z</time>
      </trkpt>
      <trkpt lat="45.8061" lon="5.45391">
        <ele>242</ele>
        <time>2023-05-28T08:12:34Z</time>
      </trkpt>
      <trkpt lat="45.80604" lon="5.45393">
        <ele>242</ele>
        <time>2023-05-28T08:12:35Z</time>
      </trkpt>
      <trkpt lat="45.806" lon="5.45394">
        <ele>242</ele>
        <time>2023-05-28T08:12:36Z</time>
      </trkpt>
      <trkpt lat="45.80593" lon="5.45395">
        <ele>242.2</ele>
        <time>2023-05-28T08:12:37Z</time>
      </trkpt>
      <trkpt lat="45.80587" lon="5.45396">
        <ele>242.2</ele>
        <time>2023-05-28T08:12:38Z</time>
      </trkpt>
      <trkpt lat="45.80581" lon="5.45395">
        <ele>242.2</ele>
        <time>2023-05-28T08:12:39Z</time>
      </trkpt>
      <trkpt lat="45.80574" lon="5.45393">
        <ele>242.2</ele>
        <time>2023-05-28T08:12:40Z</time>
      </trkpt>
      <trkpt lat="45.80568" lon="5.45393">
        <ele>242.2</ele>
        <time>2023-05-28T08:12:41Z</time>
      </trkpt>
      <trkpt lat="45.80557" lon="5.45389">
        <ele>242.2</ele>
        <time>2023-05-28T08:12:43Z</time>
      </trkpt>
      <trkpt lat="45.8055" lon="5.45386">
        <ele>242.4</ele>
        <time>2023-05-28T08:12:44Z</time>
      </trkpt>
      <trkpt lat="45.80545" lon="5.45385">
        <ele>242.4</ele>
        <time>2023-05-28T08:12:45Z</time>
      </trkpt>
      <trkpt lat="45.80539" lon="5.45383">
        <ele>242.4</ele>
        <time>2023-05-28T08:12:46Z</time>
      </trkpt>
      <trkpt lat="45.80533" lon="5.45383">
        <ele>242.4</ele>
        <time>2023-05-28T08:12:47Z</time>
      </trkpt>
      <trkpt lat="45.80527" lon="5.45384">
        <ele>242.6</ele>
        <time>2023-05-28T08:12:48Z</time>
      </trkpt>
      <trkpt lat="45.80521" lon="5.45387">
        <ele>242.8</ele>
        <time>2023-05-28T08:12:49Z</time>
      </trkpt>
      <trkpt lat="45.80515" lon="5.4539">
        <ele>242.8</ele>
        <time>2023-05-28T08:12:50Z</time>
      </trkpt>
      <trkpt lat="45.80503" lon="5.45398">
        <ele>243.2</ele>
        <time>2023-05-28T08:12:52Z</time>
      </trkpt>
      <trkpt lat="45.80497" lon="5.45403">
        <ele>243.4</ele>
        <time>2023-05-28T08:12:53Z</time>
      </trkpt>
      <trkpt lat="45.80491" lon="5.45407">
        <ele>243.6</ele>
        <time>2023-05-28T08:12:54Z</time>
      </trkpt>
      <trkpt lat="45.80484" lon="5.45411">
        <ele>243.8</ele>
        <time>2023-05-28T08:12:55Z</time>
      </trkpt>
      <trkpt lat="45.80484" lon="5.45411">
        <ele>243.8</ele>
        <time>2023-05-28T08:12:56Z</time>
      </trkpt>
      <trkpt lat="45.80472" lon="5.4542">
        <ele>244</ele>
        <time>2023-05-28T08:12:57Z</time>
      </trkpt>
      <trkpt lat="45.80459" lon="5.45428">
        <ele>244</ele>
        <time>2023-05-28T08:12:59Z</time>
      </trkpt>
      <trkpt lat="45.80452" lon="5.45434">
        <ele>244.2</ele>
        <time>2023-05-28T08:13:00Z</time>
      </trkpt>
      <trkpt lat="45.80447" lon="5.45438">
        <ele>244.2</ele>
        <time>2023-05-28T08:13:01Z</time>
      </trkpt>
      <trkpt lat="45.80441" lon="5.45443">
        <ele>244.4</ele>
        <time>2023-05-28T08:13:02Z</time>
      </trkpt>
      <trkpt lat="45.80435" lon="5.45449">
        <ele>244.4</ele>
        <time>2023-05-28T08:13:03Z</time>
      </trkpt>
      <trkpt lat="45.8043" lon="5.45453">
        <ele>244.4</ele>
        <time>2023-05-28T08:13:04Z</time>
      </trkpt>
      <trkpt lat="45.80418" lon="5.45464">
        <ele>244.4</ele>
        <time>2023-05-28T08:13:06Z</time>
      </trkpt>
      <trkpt lat="45.80412" lon="5.4547">
        <ele>244.6</ele>
        <time>2023-05-28T08:13:07Z</time>
      </trkpt>
      <trkpt lat="45.80405" lon="5.45477">
        <ele>244.6</ele>
        <time>2023-05-28T08:13:08Z</time>
      </trkpt>
      <trkpt lat="45.80399" lon="5.45484">
        <ele>244.4</ele>
        <time>2023-05-28T08:13:09Z</time>
      </trkpt>
      <trkpt lat="45.80395" lon="5.45489">
        <ele>244.4</ele>
        <time>2023-05-28T08:13:10Z</time>
      </trkpt>
      <trkpt lat="45.80389" lon="5.45495">
        <ele>244.4</ele>
        <time>2023-05-28T08:13:11Z</time>
      </trkpt>
      <trkpt lat="45.80383" lon="5.45501">
        <ele>244.2</ele>
        <time>2023-05-28T08:13:12Z</time>
      </trkpt>
      <trkpt lat="45.80369" lon="5.45515">
        <ele>244.2</ele>
        <time>2023-05-28T08:13:14Z</time>
      </trkpt>
      <trkpt lat="45.80362" lon="5.4552">
        <ele>244</ele>
        <time>2023-05-28T08:13:15Z</time>
      </trkpt>
      <trkpt lat="45.80356" lon="5.45524">
        <ele>244</ele>
        <time>2023-05-28T08:13:16Z</time>
      </trkpt>
      <trkpt lat="45.80349" lon="5.45529">
        <ele>243.8</ele>
        <time>2023-05-28T08:13:17Z</time>
      </trkpt>
      <trkpt lat="45.80342" lon="5.45533">
        <ele>243.6</ele>
        <time>2023-05-28T08:13:18Z</time>
      </trkpt>
      <trkpt lat="45.80334" lon="5.45538">
        <ele>243.6</ele>
        <time>2023-05-28T08:13:19Z</time>
      </trkpt>
      <trkpt lat="45.80326" lon="5.45543">
        <ele>243.4</ele>
        <time>2023-05-28T08:13:20Z</time>
      </trkpt>
      <trkpt lat="45.8032" lon="5.45547">
        <ele>243.2</ele>
        <time>2023-05-28T08:13:21Z</time>
      </trkpt>
      <trkpt lat="45.80312" lon="5.45552">
        <ele>243</ele>
        <time>2023-05-28T08:13:22Z</time>
      </trkpt>
      <trkpt lat="45.80304" lon="5.45556">
        <ele>242.8</ele>
        <time>2023-05-28T08:13:23Z</time>
      </trkpt>
      <trkpt lat="45.80295" lon="5.45563">
        <ele>242.8</ele>
        <time>2023-05-28T08:13:24Z</time>
      </trkpt>
      <trkpt lat="45.80288" lon="5.45568">
        <ele>242.6</ele>
        <time>2023-05-28T08:13:25Z</time>
      </trkpt>
      <trkpt lat="45.80281" lon="5.45572">
        <ele>242.6</ele>
        <time>2023-05-28T08:13:26Z</time>
      </trkpt>
      <trkpt lat="45.80274" lon="5.45577">
        <ele>242.6</ele>
        <time>2023-05-28T08:13:27Z</time>
      </trkpt>
      <trkpt lat="45.80266" lon="5.45583">
        <ele>242.6</ele>
        <time>2023-05-28T08:13:28Z</time>
      </trkpt>
      <trkpt lat="45.80257" lon="5.45589">
        <ele>242.4</ele>
        <time>2023-05-28T08:13:29Z</time>
      </trkpt>
      <trkpt lat="45.80249" lon="5.45594">
        <ele>242.2</ele>
        <time>2023-05-28T08:13:30Z</time>
      </trkpt>
      <trkpt lat="45.80243" lon="5.45598">
        <ele>242.2</ele>
        <time>2023-05-28T08:13:31Z</time>
      </trkpt>
      <trkpt lat="45.80235" lon="5.45603">
        <ele>242</ele>
        <time>2023-05-28T08:13:32Z</time>
      </trkpt>
      <trkpt lat="45.80227" lon="5.45609">
        <ele>242</ele>
        <time>2023-05-28T08:13:33Z</time>
      </trkpt>
      <trkpt lat="45.80219" lon="5.45614">
        <ele>241.6</ele>
        <time>2023-05-28T08:13:34Z</time>
      </trkpt>
      <trkpt lat="45.80209" lon="5.45621">
        <ele>241.6</ele>
        <time>2023-05-28T08:13:35Z</time>
      </trkpt>
      <trkpt lat="45.80203" lon="5.45625">
        <ele>241.4</ele>
        <time>2023-05-28T08:13:36Z</time>
      </trkpt>
      <trkpt lat="45.80195" lon="5.45631">
        <ele>241.4</ele>
        <time>2023-05-28T08:13:37Z</time>
      </trkpt>
      <trkpt lat="45.80187" lon="5.45636">
        <ele>241.4</ele>
        <time>2023-05-28T08:13:38Z</time>
      </trkpt>
      <trkpt lat="45.80179" lon="5.45642">
        <ele>241.2</ele>
        <time>2023-05-28T08:13:39Z</time>
      </trkpt>
      <trkpt lat="45.80163" lon="5.45653">
        <ele>241</ele>
        <time>2023-05-28T08:13:41Z</time>
      </trkpt>
      <trkpt lat="45.80155" lon="5.45659">
        <ele>241</ele>
        <time>2023-05-28T08:13:42Z</time>
      </trkpt>
      <trkpt lat="45.80147" lon="5.45664">
        <ele>240.4</ele>
        <time>2023-05-28T08:13:43Z</time>
      </trkpt>
      <trkpt lat="45.80139" lon="5.4567">
        <ele>240.2</ele>
        <time>2023-05-28T08:13:44Z</time>
      </trkpt>
      <trkpt lat="45.80131" lon="5.45675">
        <ele>239.8</ele>
        <time>2023-05-28T08:13:45Z</time>
      </trkpt>
      <trkpt lat="45.80123" lon="5.4568">
        <ele>239.6</ele>
        <time>2023-05-28T08:13:46Z</time>
      </trkpt>
      <trkpt lat="45.80114" lon="5.45685">
        <ele>239.6</ele>
        <time>2023-05-28T08:13:47Z</time>
      </trkpt>
      <trkpt lat="45.80106" lon="5.4569">
        <ele>239.4</ele>
        <time>2023-05-28T08:13:48Z</time>
      </trkpt>
      <trkpt lat="45.80098" lon="5.45694">
        <ele>239.4</ele>
        <time>2023-05-28T08:13:49Z</time>
      </trkpt>
      <trkpt lat="45.80089" lon="5.45699">
        <ele>239.4</ele>
        <time>2023-05-28T08:13:50Z</time>
      </trkpt>
      <trkpt lat="45.80081" lon="5.45703">
        <ele>239.6</ele>
        <time>2023-05-28T08:13:51Z</time>
      </trkpt>
      <trkpt lat="45.80073" lon="5.45707">
        <ele>239.6</ele>
        <time>2023-05-28T08:13:52Z</time>
      </trkpt>
      <trkpt lat="45.80065" lon="5.4571">
        <ele>239.4</ele>
        <time>2023-05-28T08:13:53Z</time>
      </trkpt>
      <trkpt lat="45.80048" lon="5.45718">
        <ele>239.4</ele>
        <time>2023-05-28T08:13:55Z</time>
      </trkpt>
      <trkpt lat="45.8004" lon="5.45721">
        <ele>239.2</ele>
        <time>2023-05-28T08:13:56Z</time>
      </trkpt>
      <trkpt lat="45.80032" lon="5.45724">
        <ele>239.2</ele>
        <time>2023-05-28T08:13:57Z</time>
      </trkpt>
      <trkpt lat="45.80024" lon="5.45728">
        <ele>239.2</ele>
        <time>2023-05-28T08:13:58Z</time>
      </trkpt>
      <trkpt lat="45.80016" lon="5.45731">
        <ele>239.2</ele>
        <time>2023-05-28T08:13:59Z</time>
      </trkpt>
      <trkpt lat="45.80007" lon="5.45735">
        <ele>239.2</ele>
        <time>2023-05-28T08:14:00Z</time>
      </trkpt>
      <trkpt lat="45.79999" lon="5.45739">
        <ele>239.2</ele>
        <time>2023-05-28T08:14:01Z</time>
      </trkpt>
      <trkpt lat="45.79991" lon="5.45743">
        <ele>239.2</ele>
        <time>2023-05-28T08:14:02Z</time>
      </trkpt>
      <trkpt lat="45.79982" lon="5.45748">
        <ele>239.2</ele>
        <time>2023-05-28T08:14:03Z</time>
      </trkpt>
      <trkpt lat="45.79974" lon="5.45752">
        <ele>239.2</ele>
        <time>2023-05-28T08:14:04Z</time>
      </trkpt>
      <trkpt lat="45.79967" lon="5.45757">
        <ele>239.2</ele>
        <time>2023-05-28T08:14:05Z</time>
      </trkpt>
      <trkpt lat="45.79959" lon="5.45761">
        <ele>239.4</ele>
        <time>2023-05-28T08:14:06Z</time>
      </trkpt>
      <trkpt lat="45.79951" lon="5.45765">
        <ele>239.4</ele>
        <time>2023-05-28T08:14:07Z</time>
      </trkpt>
      <trkpt lat="45.79944" lon="5.4577">
        <ele>239.4</ele>
        <time>2023-05-28T08:14:08Z</time>
      </trkpt>
      <trkpt lat="45.79936" lon="5.45774">
        <ele>239.6</ele>
        <time>2023-05-28T08:14:09Z</time>
      </trkpt>
      <trkpt lat="45.79929" lon="5.45778">
        <ele>239.6</ele>
        <time>2023-05-28T08:14:10Z</time>
      </trkpt>
      <trkpt lat="45.79921" lon="5.45783">
        <ele>239.8</ele>
        <time>2023-05-28T08:14:11Z</time>
      </trkpt>
      <trkpt lat="45.79914" lon="5.45787">
        <ele>239.8</ele>
        <time>2023-05-28T08:14:12Z</time>
      </trkpt>
      <trkpt lat="45.79907" lon="5.45791">
        <ele>239.8</ele>
        <time>2023-05-28T08:14:13Z</time>
      </trkpt>
      <trkpt lat="45.799" lon="5.45796">
        <ele>239.8</ele>
        <time>2023-05-28T08:14:14Z</time>
      </trkpt>
      <trkpt lat="45.79894" lon="5.458">
        <ele>239.8</ele>
        <time>2023-05-28T08:14:15Z</time>
      </trkpt>
      <trkpt lat="45.79885" lon="5.45805">
        <ele>239.8</ele>
        <time>2023-05-28T08:14:16Z</time>
      </trkpt>
      <trkpt lat="45.79878" lon="5.45809">
        <ele>239.8</ele>
        <time>2023-05-28T08:14:17Z</time>
      </trkpt>
      <trkpt lat="45.79871" lon="5.45813">
        <ele>239.8</ele>
        <time>2023-05-28T08:14:18Z</time>
      </trkpt>
      <trkpt lat="45.79864" lon="5.45817">
        <ele>239.8</ele>
        <time>2023-05-28T08:14:19Z</time>
      </trkpt>
      <trkpt lat="45.79857" lon="5.4582">
        <ele>239.8</ele>
        <time>2023-05-28T08:14:20Z</time>
      </trkpt>
      <trkpt lat="45.79841" lon="5.45825">
        <ele>239.8</ele>
        <time>2023-05-28T08:14:22Z</time>
      </trkpt>
      <trkpt lat="45.79833" lon="5.45827">
        <ele>239.8</ele>
        <time>2023-05-28T08:14:23Z</time>
      </trkpt>
      <trkpt lat="45.79826" lon="5.45828">
        <ele>239.8</ele>
        <time>2023-05-28T08:14:24Z</time>
      </trkpt>
      <trkpt lat="45.7982" lon="5.45829">
        <ele>239.8</ele>
        <time>2023-05-28T08:14:25Z</time>
      </trkpt>
      <trkpt lat="45.79812" lon="5.4583">
        <ele>239.8</ele>
        <time>2023-05-28T08:14:26Z</time>
      </trkpt>
      <trkpt lat="45.79795" lon="5.45833">
        <ele>239.8</ele>
        <time>2023-05-28T08:14:28Z</time>
      </trkpt>
      <trkpt lat="45.79787" lon="5.45834">
        <ele>239.8</ele>
        <time>2023-05-28T08:14:29Z</time>
      </trkpt>
      <trkpt lat="45.79782" lon="5.45835">
        <ele>239.8</ele>
        <time>2023-05-28T08:14:30Z</time>
      </trkpt>
      <trkpt lat="45.79773" lon="5.45836">
        <ele>239.8</ele>
        <time>2023-05-28T08:14:31Z</time>
      </trkpt>
      <trkpt lat="45.79765" lon="5.45837">
        <ele>239.8</ele>
        <time>2023-05-28T08:14:32Z</time>
      </trkpt>
      <trkpt lat="45.79759" lon="5.45837">
        <ele>239.8</ele>
        <time>2023-05-28T08:14:33Z</time>
      </trkpt>
      <trkpt lat="45.79751" lon="5.45837">
        <ele>239.8</ele>
        <time>2023-05-28T08:14:34Z</time>
      </trkpt>
      <trkpt lat="45.79742" lon="5.45838">
        <ele>239.8</ele>
        <time>2023-05-28T08:14:35Z</time>
      </trkpt>
      <trkpt lat="45.79726" lon="5.4584">
        <ele>239.8</ele>
        <time>2023-05-28T08:14:37Z</time>
      </trkpt>
      <trkpt lat="45.79717" lon="5.45841">
        <ele>239.8</ele>
        <time>2023-05-28T08:14:38Z</time>
      </trkpt>
      <trkpt lat="45.79709" lon="5.45842">
        <ele>239.8</ele>
        <time>2023-05-28T08:14:39Z</time>
      </trkpt>
      <trkpt lat="45.797" lon="5.45845">
        <ele>239.8</ele>
        <time>2023-05-28T08:14:40Z</time>
      </trkpt>
      <trkpt lat="45.79692" lon="5.45848">
        <ele>239.8</ele>
        <time>2023-05-28T08:14:41Z</time>
      </trkpt>
      <trkpt lat="45.79681" lon="5.45853">
        <ele>239.8</ele>
        <time>2023-05-28T08:14:42Z</time>
      </trkpt>
      <trkpt lat="45.79673" lon="5.45859">
        <ele>239.8</ele>
        <time>2023-05-28T08:14:43Z</time>
      </trkpt>
      <trkpt lat="45.79667" lon="5.45863">
        <ele>239.8</ele>
        <time>2023-05-28T08:14:44Z</time>
      </trkpt>
      <trkpt lat="45.79658" lon="5.45869">
        <ele>239.6</ele>
        <time>2023-05-28T08:14:45Z</time>
      </trkpt>
      <trkpt lat="45.7965" lon="5.45875">
        <ele>239.6</ele>
        <time>2023-05-28T08:14:46Z</time>
      </trkpt>
      <trkpt lat="45.79633" lon="5.45888">
        <ele>239.4</ele>
        <time>2023-05-28T08:14:48Z</time>
      </trkpt>
      <trkpt lat="45.79626" lon="5.45893">
        <ele>239.4</ele>
        <time>2023-05-28T08:14:49Z</time>
      </trkpt>
      <trkpt lat="45.79618" lon="5.45898">
        <ele>239.2</ele>
        <time>2023-05-28T08:14:50Z</time>
      </trkpt>
      <trkpt lat="45.79611" lon="5.45904">
        <ele>239.2</ele>
        <time>2023-05-28T08:14:51Z</time>
      </trkpt>
      <trkpt lat="45.79603" lon="5.45909">
        <ele>239</ele>
        <time>2023-05-28T08:14:52Z</time>
      </trkpt>
      <trkpt lat="45.79594" lon="5.45916">
        <ele>239</ele>
        <time>2023-05-28T08:14:53Z</time>
      </trkpt>
      <trkpt lat="45.79588" lon="5.45921">
        <ele>239</ele>
        <time>2023-05-28T08:14:54Z</time>
      </trkpt>
      <trkpt lat="45.79582" lon="5.45928">
        <ele>239</ele>
        <time>2023-05-28T08:14:55Z</time>
      </trkpt>
      <trkpt lat="45.79576" lon="5.45936">
        <ele>239</ele>
        <time>2023-05-28T08:14:56Z</time>
      </trkpt>
      <trkpt lat="45.79571" lon="5.45945">
        <ele>238.8</ele>
        <time>2023-05-28T08:14:57Z</time>
      </trkpt>
      <trkpt lat="45.79561" lon="5.45965">
        <ele>238.4</ele>
        <time>2023-05-28T08:14:59Z</time>
      </trkpt>
      <trkpt lat="45.79556" lon="5.45975">
        <ele>238.4</ele>
        <time>2023-05-28T08:15:00Z</time>
      </trkpt>
      <trkpt lat="45.79552" lon="5.45985">
        <ele>238.2</ele>
        <time>2023-05-28T08:15:01Z</time>
      </trkpt>
      <trkpt lat="45.79547" lon="5.45995">
        <ele>238</ele>
        <time>2023-05-28T08:15:02Z</time>
      </trkpt>
      <trkpt lat="45.79542" lon="5.46007">
        <ele>237.8</ele>
        <time>2023-05-28T08:15:03Z</time>
      </trkpt>
      <trkpt lat="45.79538" lon="5.46017">
        <ele>237.8</ele>
        <time>2023-05-28T08:15:04Z</time>
      </trkpt>
      <trkpt lat="45.79533" lon="5.46027">
        <ele>237.8</ele>
        <time>2023-05-28T08:15:05Z</time>
      </trkpt>
      <trkpt lat="45.7953" lon="5.46034">
        <ele>237.8</ele>
        <time>2023-05-28T08:15:06Z</time>
      </trkpt>
      <trkpt lat="45.79525" lon="5.46046">
        <ele>237.6</ele>
        <time>2023-05-28T08:15:07Z</time>
      </trkpt>
      <trkpt lat="45.79522" lon="5.46055">
        <ele>237.6</ele>
        <time>2023-05-28T08:15:08Z</time>
      </trkpt>
      <trkpt lat="45.79519" lon="5.46064">
        <ele>237.6</ele>
        <time>2023-05-28T08:15:09Z</time>
      </trkpt>
      <trkpt lat="45.79516" lon="5.46073">
        <ele>237.4</ele>
        <time>2023-05-28T08:15:10Z</time>
      </trkpt>
      <trkpt lat="45.79511" lon="5.46091">
        <ele>237.2</ele>
        <time>2023-05-28T08:15:12Z</time>
      </trkpt>
      <trkpt lat="45.79509" lon="5.46099">
        <ele>237.2</ele>
        <time>2023-05-28T08:15:13Z</time>
      </trkpt>
      <trkpt lat="45.79508" lon="5.46106">
        <ele>237.2</ele>
        <time>2023-05-28T08:15:14Z</time>
      </trkpt>
      <trkpt lat="45.79507" lon="5.46112">
        <ele>237.2</ele>
        <time>2023-05-28T08:15:15Z</time>
      </trkpt>
      <trkpt lat="45.79505" lon="5.4612">
        <ele>237.2</ele>
        <time>2023-05-28T08:15:16Z</time>
      </trkpt>
      <trkpt lat="45.79504" lon="5.46125">
        <ele>237.2</ele>
        <time>2023-05-28T08:15:17Z</time>
      </trkpt>
      <trkpt lat="45.79503" lon="5.4613">
        <ele>237.2</ele>
        <time>2023-05-28T08:15:18Z</time>
      </trkpt>
      <trkpt lat="45.79503" lon="5.46133">
        <ele>237.2</ele>
        <time>2023-05-28T08:15:19Z</time>
      </trkpt>
      <trkpt lat="45.79502" lon="5.46136">
        <ele>237.2</ele>
        <time>2023-05-28T08:15:20Z</time>
      </trkpt>
      <trkpt lat="45.79502" lon="5.46138">
        <ele>237.2</ele>
        <time>2023-05-28T08:15:21Z</time>
      </trkpt>
      <trkpt lat="45.79502" lon="5.46139">
        <ele>237.2</ele>
        <time>2023-05-28T08:15:22Z</time>
      </trkpt>
      <trkpt lat="45.79502" lon="5.46139">
        <ele>237.2</ele>
        <time>2023-05-28T08:15:23Z</time>
      </trkpt>
      <trkpt lat="45.79502" lon="5.4614">
        <ele>237.2</ele>
        <time>2023-05-28T08:15:24Z</time>
      </trkpt>
      <trkpt lat="45.79502" lon="5.46141">
        <ele>237.2</ele>
        <time>2023-05-28T08:15:25Z</time>
      </trkpt>
      <trkpt lat="45.79501" lon="5.46142">
        <ele>237.2</ele>
        <time>2023-05-28T08:15:26Z</time>
      </trkpt>
      <trkpt lat="45.79501" lon="5.46144">
        <ele>237.2</ele>
        <time>2023-05-28T08:15:27Z</time>
      </trkpt>
      <trkpt lat="45.79501" lon="5.46147">
        <ele>237.2</ele>
        <time>2023-05-28T08:15:28Z</time>
      </trkpt>
      <trkpt lat="45.795" lon="5.4615">
        <ele>237.2</ele>
        <time>2023-05-28T08:15:29Z</time>
      </trkpt>
      <trkpt lat="45.795" lon="5.46154">
        <ele>237.2</ele>
        <time>2023-05-28T08:15:30Z</time>
      </trkpt>
      <trkpt lat="45.79498" lon="5.4616">
        <ele>237.2</ele>
        <time>2023-05-28T08:15:31Z</time>
      </trkpt>
      <trkpt lat="45.79494" lon="5.46165">
        <ele>237.2</ele>
        <time>2023-05-28T08:15:32Z</time>
      </trkpt>
      <trkpt lat="45.7949" lon="5.46169">
        <ele>237.2</ele>
        <time>2023-05-28T08:15:33Z</time>
      </trkpt>
      <trkpt lat="45.79487" lon="5.46172">
        <ele>237.2</ele>
        <time>2023-05-28T08:15:34Z</time>
      </trkpt>
      <trkpt lat="45.79482" lon="5.46176">
        <ele>237.2</ele>
        <time>2023-05-28T08:15:35Z</time>
      </trkpt>
      <trkpt lat="45.79477" lon="5.46177">
        <ele>237.2</ele>
        <time>2023-05-28T08:15:36Z</time>
      </trkpt>
      <trkpt lat="45.79471" lon="5.46178">
        <ele>237.2</ele>
        <time>2023-05-28T08:15:37Z</time>
      </trkpt>
      <trkpt lat="45.79466" lon="5.46179">
        <ele>236.8</ele>
        <time>2023-05-28T08:15:38Z</time>
      </trkpt>
      <trkpt lat="45.7946" lon="5.46179">
        <ele>236.6</ele>
        <time>2023-05-28T08:15:39Z</time>
      </trkpt>
      <trkpt lat="45.79456" lon="5.46177">
        <ele>236.6</ele>
        <time>2023-05-28T08:15:40Z</time>
      </trkpt>
      <trkpt lat="45.79451" lon="5.46174">
        <ele>236.6</ele>
        <time>2023-05-28T08:15:41Z</time>
      </trkpt>
      <trkpt lat="45.79447" lon="5.46169">
        <ele>236.6</ele>
        <time>2023-05-28T08:15:42Z</time>
      </trkpt>
      <trkpt lat="45.79444" lon="5.46162">
        <ele>236.6</ele>
        <time>2023-05-28T08:15:43Z</time>
      </trkpt>
      <trkpt lat="45.79441" lon="5.46157">
        <ele>236.6</ele>
        <time>2023-05-28T08:15:44Z</time>
      </trkpt>
      <trkpt lat="45.79437" lon="5.46149">
        <ele>236.6</ele>
        <time>2023-05-28T08:15:45Z</time>
      </trkpt>
      <trkpt lat="45.79435" lon="5.46143">
        <ele>236.6</ele>
        <time>2023-05-28T08:15:46Z</time>
      </trkpt>
      <trkpt lat="45.79432" lon="5.46134">
        <ele>236.6</ele>
        <time>2023-05-28T08:15:47Z</time>
      </trkpt>
      <trkpt lat="45.79429" lon="5.46126">
        <ele>236.6</ele>
        <time>2023-05-28T08:15:48Z</time>
      </trkpt>
      <trkpt lat="45.79423" lon="5.4611">
        <ele>236.6</ele>
        <time>2023-05-28T08:15:50Z</time>
      </trkpt>
      <trkpt lat="45.79419" lon="5.46102">
        <ele>236.6</ele>
        <time>2023-05-28T08:15:51Z</time>
      </trkpt>
      <trkpt lat="45.79416" lon="5.46094">
        <ele>236.8</ele>
        <time>2023-05-28T08:15:52Z</time>
      </trkpt>
      <trkpt lat="45.79412" lon="5.46086">
        <ele>236.8</ele>
        <time>2023-05-28T08:15:53Z</time>
      </trkpt>
      <trkpt lat="45.79409" lon="5.46078">
        <ele>237.2</ele>
        <time>2023-05-28T08:15:54Z</time>
      </trkpt>
      <trkpt lat="45.79405" lon="5.46069">
        <ele>237.2</ele>
        <time>2023-05-28T08:15:55Z</time>
      </trkpt>
      <trkpt lat="45.79402" lon="5.4606">
        <ele>237.2</ele>
        <time>2023-05-28T08:15:56Z</time>
      </trkpt>
      <trkpt lat="45.79398" lon="5.46052">
        <ele>237.2</ele>
        <time>2023-05-28T08:15:57Z</time>
      </trkpt>
      <trkpt lat="45.79394" lon="5.46043">
        <ele>237.2</ele>
        <time>2023-05-28T08:15:58Z</time>
      </trkpt>
      <trkpt lat="45.79387" lon="5.46028">
        <ele>237.2</ele>
        <time>2023-05-28T08:16:00Z</time>
      </trkpt>
      <trkpt lat="45.79381" lon="5.46018">
        <ele>237.4</ele>
        <time>2023-05-28T08:16:01Z</time>
      </trkpt>
      <trkpt lat="45.79376" lon="5.4601">
        <ele>237.4</ele>
        <time>2023-05-28T08:16:02Z</time>
      </trkpt>
      <trkpt lat="45.79371" lon="5.46002">
        <ele>237.4</ele>
        <time>2023-05-28T08:16:03Z</time>
      </trkpt>
      <trkpt lat="45.79365" lon="5.45994">
        <ele>237.4</ele>
        <time>2023-05-28T08:16:04Z</time>
      </trkpt>
      <trkpt lat="45.79359" lon="5.45987">
        <ele>237.4</ele>
        <time>2023-05-28T08:16:05Z</time>
      </trkpt>
      <trkpt lat="45.79353" lon="5.45979">
        <ele>237.2</ele>
        <time>2023-05-28T08:16:06Z</time>
      </trkpt>
      <trkpt lat="45.79347" lon="5.45971">
        <ele>237.2</ele>
        <time>2023-05-28T08:16:07Z</time>
      </trkpt>
      <trkpt lat="45.79342" lon="5.45963">
        <ele>237.2</ele>
        <time>2023-05-28T08:16:08Z</time>
      </trkpt>
      <trkpt lat="45.79336" lon="5.45955">
        <ele>237.2</ele>
        <time>2023-05-28T08:16:09Z</time>
      </trkpt>
      <trkpt lat="45.79326" lon="5.45938">
        <ele>237.4</ele>
        <time>2023-05-28T08:16:11Z</time>
      </trkpt>
      <trkpt lat="45.79321" lon="5.4593">
        <ele>237.4</ele>
        <time>2023-05-28T08:16:12Z</time>
      </trkpt>
      <trkpt lat="45.79315" lon="5.45922">
        <ele>237.4</ele>
        <time>2023-05-28T08:16:13Z</time>
      </trkpt>
      <trkpt lat="45.7931" lon="5.45914">
        <ele>237.4</ele>
        <time>2023-05-28T08:16:14Z</time>
      </trkpt>
      <trkpt lat="45.79305" lon="5.45906">
        <ele>237.4</ele>
        <time>2023-05-28T08:16:15Z</time>
      </trkpt>
      <trkpt lat="45.79294" lon="5.45891">
        <ele>237.8</ele>
        <time>2023-05-28T08:16:17Z</time>
      </trkpt>
      <trkpt lat="45.79288" lon="5.45884">
        <ele>237.8</ele>
        <time>2023-05-28T08:16:18Z</time>
      </trkpt>
      <trkpt lat="45.79281" lon="5.45877">
        <ele>237.8</ele>
        <time>2023-05-28T08:16:19Z</time>
      </trkpt>
      <trkpt lat="45.79275" lon="5.45872">
        <ele>238</ele>
        <time>2023-05-28T08:16:20Z</time>
      </trkpt>
      <trkpt lat="45.79269" lon="5.45866">
        <ele>237.8</ele>
        <time>2023-05-28T08:16:21Z</time>
      </trkpt>
      <trkpt lat="45.79262" lon="5.45861">
        <ele>237.8</ele>
        <time>2023-05-28T08:16:22Z</time>
      </trkpt>
      <trkpt lat="45.79255" lon="5.45856">
        <ele>237.8</ele>
        <time>2023-05-28T08:16:23Z</time>
      </trkpt>
      <trkpt lat="45.7925" lon="5.45852">
        <ele>237.8</ele>
        <time>2023-05-28T08:16:24Z</time>
      </trkpt>
      <trkpt lat="45.79242" lon="5.45846">
        <ele>237.8</ele>
        <time>2023-05-28T08:16:25Z</time>
      </trkpt>
      <trkpt lat="45.79235" lon="5.4584">
        <ele>237.8</ele>
        <time>2023-05-28T08:16:26Z</time>
      </trkpt>
      <trkpt lat="45.79228" lon="5.45834">
        <ele>237.8</ele>
        <time>2023-05-28T08:16:27Z</time>
      </trkpt>
      <trkpt lat="45.79221" lon="5.45829">
        <ele>237.4</ele>
        <time>2023-05-28T08:16:28Z</time>
      </trkpt>
      <trkpt lat="45.79213" lon="5.45823">
        <ele>237.2</ele>
        <time>2023-05-28T08:16:29Z</time>
      </trkpt>
      <trkpt lat="45.79207" lon="5.45818">
        <ele>237.2</ele>
        <time>2023-05-28T08:16:30Z</time>
      </trkpt>
      <trkpt lat="45.792" lon="5.45813">
        <ele>237.2</ele>
        <time>2023-05-28T08:16:31Z</time>
      </trkpt>
      <trkpt lat="45.79191" lon="5.45806">
        <ele>237.2</ele>
        <time>2023-05-28T08:16:32Z</time>
      </trkpt>
      <trkpt lat="45.79185" lon="5.45801">
        <ele>237.2</ele>
        <time>2023-05-28T08:16:33Z</time>
      </trkpt>
      <trkpt lat="45.79178" lon="5.45795">
        <ele>236.8</ele>
        <time>2023-05-28T08:16:34Z</time>
      </trkpt>
      <trkpt lat="45.7917" lon="5.4579">
        <ele>236.6</ele>
        <time>2023-05-28T08:16:35Z</time>
      </trkpt>
      <trkpt lat="45.79163" lon="5.45783">
        <ele>236.4</ele>
        <time>2023-05-28T08:16:36Z</time>
      </trkpt>
      <trkpt lat="45.79154" lon="5.45776">
        <ele>236.2</ele>
        <time>2023-05-28T08:16:37Z</time>
      </trkpt>
      <trkpt lat="45.79149" lon="5.45771">
        <ele>235.8</ele>
        <time>2023-05-28T08:16:38Z</time>
      </trkpt>
      <trkpt lat="45.79141" lon="5.45765">
        <ele>235.6</ele>
        <time>2023-05-28T08:16:39Z</time>
      </trkpt>
      <trkpt lat="45.79134" lon="5.45759">
        <ele>235.2</ele>
        <time>2023-05-28T08:16:40Z</time>
      </trkpt>
      <trkpt lat="45.79126" lon="5.45753">
        <ele>235</ele>
        <time>2023-05-28T08:16:41Z</time>
      </trkpt>
      <trkpt lat="45.79118" lon="5.45746">
        <ele>235</ele>
        <time>2023-05-28T08:16:42Z</time>
      </trkpt>
      <trkpt lat="45.79111" lon="5.4574">
        <ele>234.8</ele>
        <time>2023-05-28T08:16:43Z</time>
      </trkpt>
      <trkpt lat="45.79103" lon="5.45734">
        <ele>234.8</ele>
        <time>2023-05-28T08:16:44Z</time>
      </trkpt>
      <trkpt lat="45.79094" lon="5.45727">
        <ele>234.4</ele>
        <time>2023-05-28T08:16:45Z</time>
      </trkpt>
      <trkpt lat="45.79086" lon="5.45721">
        <ele>234.4</ele>
        <time>2023-05-28T08:16:46Z</time>
      </trkpt>
      <trkpt lat="45.79077" lon="5.45713">
        <ele>234.2</ele>
        <time>2023-05-28T08:16:47Z</time>
      </trkpt>
      <trkpt lat="45.7907" lon="5.45708">
        <ele>234</ele>
        <time>2023-05-28T08:16:48Z</time>
      </trkpt>
      <trkpt lat="45.79063" lon="5.45702">
        <ele>233.8</ele>
        <time>2023-05-28T08:16:49Z</time>
      </trkpt>
      <trkpt lat="45.79055" lon="5.45696">
        <ele>233.8</ele>
        <time>2023-05-28T08:16:50Z</time>
      </trkpt>
      <trkpt lat="45.79047" lon="5.45689">
        <ele>233.6</ele>
        <time>2023-05-28T08:16:51Z</time>
      </trkpt>
      <trkpt lat="45.7904" lon="5.45683">
        <ele>233.2</ele>
        <time>2023-05-28T08:16:52Z</time>
      </trkpt>
      <trkpt lat="45.79032" lon="5.45676">
        <ele>233.2</ele>
        <time>2023-05-28T08:16:53Z</time>
      </trkpt>
      <trkpt lat="45.79024" lon="5.4567">
        <ele>232.8</ele>
        <time>2023-05-28T08:16:54Z</time>
      </trkpt>
      <trkpt lat="45.79016" lon="5.45663">
        <ele>232.6</ele>
        <time>2023-05-28T08:16:55Z</time>
      </trkpt>
      <trkpt lat="45.79008" lon="5.45657">
        <ele>232.2</ele>
        <time>2023-05-28T08:16:56Z</time>
      </trkpt>
      <trkpt lat="45.79" lon="5.4565">
        <ele>231.8</ele>
        <time>2023-05-28T08:16:57Z</time>
      </trkpt>
      <trkpt lat="45.78991" lon="5.45644">
        <ele>231.6</ele>
        <time>2023-05-28T08:16:58Z</time>
      </trkpt>
      <trkpt lat="45.78983" lon="5.45637">
        <ele>231.4</ele>
        <time>2023-05-28T08:16:59Z</time>
      </trkpt>
      <trkpt lat="45.78974" lon="5.45629">
        <ele>231.4</ele>
        <time>2023-05-28T08:17:00Z</time>
      </trkpt>
      <trkpt lat="45.78967" lon="5.45623">
        <ele>231.2</ele>
        <time>2023-05-28T08:17:01Z</time>
      </trkpt>
      <trkpt lat="45.78959" lon="5.45617">
        <ele>231.2</ele>
        <time>2023-05-28T08:17:02Z</time>
      </trkpt>
      <trkpt lat="45.78951" lon="5.4561">
        <ele>231</ele>
        <time>2023-05-28T08:17:03Z</time>
      </trkpt>
      <trkpt lat="45.78943" lon="5.45604">
        <ele>230.4</ele>
        <time>2023-05-28T08:17:04Z</time>
      </trkpt>
      <trkpt lat="45.78935" lon="5.45597">
        <ele>230</ele>
        <time>2023-05-28T08:17:05Z</time>
      </trkpt>
      <trkpt lat="45.78925" lon="5.45589">
        <ele>229.6</ele>
        <time>2023-05-28T08:17:06Z</time>
      </trkpt>
      <trkpt lat="45.78918" lon="5.45584">
        <ele>229.4</ele>
        <time>2023-05-28T08:17:07Z</time>
      </trkpt>
      <trkpt lat="45.7891" lon="5.45578">
        <ele>229.2</ele>
        <time>2023-05-28T08:17:08Z</time>
      </trkpt>
      <trkpt lat="45.78902" lon="5.45571">
        <ele>229</ele>
        <time>2023-05-28T08:17:09Z</time>
      </trkpt>
      <trkpt lat="45.78894" lon="5.45564">
        <ele>228.8</ele>
        <time>2023-05-28T08:17:10Z</time>
      </trkpt>
      <trkpt lat="45.78884" lon="5.45556">
        <ele>228.6</ele>
        <time>2023-05-28T08:17:11Z</time>
      </trkpt>
      <trkpt lat="45.78876" lon="5.4555">
        <ele>228.4</ele>
        <time>2023-05-28T08:17:12Z</time>
      </trkpt>
      <trkpt lat="45.78868" lon="5.45543">
        <ele>228</ele>
        <time>2023-05-28T08:17:13Z</time>
      </trkpt>
      <trkpt lat="45.7886" lon="5.45537">
        <ele>228</ele>
        <time>2023-05-28T08:17:14Z</time>
      </trkpt>
      <trkpt lat="45.78853" lon="5.4553">
        <ele>227.8</ele>
        <time>2023-05-28T08:17:15Z</time>
      </trkpt>
      <trkpt lat="45.78845" lon="5.45524">
        <ele>227.6</ele>
        <time>2023-05-28T08:17:16Z</time>
      </trkpt>
      <trkpt lat="45.78837" lon="5.45517">
        <ele>227.6</ele>
        <time>2023-05-28T08:17:17Z</time>
      </trkpt>
      <trkpt lat="45.78829" lon="5.45511">
        <ele>227.6</ele>
        <time>2023-05-28T08:17:18Z</time>
      </trkpt>
      <trkpt lat="45.78822" lon="5.45505">
        <ele>227.6</ele>
        <time>2023-05-28T08:17:19Z</time>
      </trkpt>
      <trkpt lat="45.78814" lon="5.45498">
        <ele>227.4</ele>
        <time>2023-05-28T08:17:20Z</time>
      </trkpt>
      <trkpt lat="45.78806" lon="5.45491">
        <ele>227.4</ele>
        <time>2023-05-28T08:17:21Z</time>
      </trkpt>
      <trkpt lat="45.78789" lon="5.45478">
        <ele>227</ele>
        <time>2023-05-28T08:17:23Z</time>
      </trkpt>
      <trkpt lat="45.78781" lon="5.45472">
        <ele>226.8</ele>
        <time>2023-05-28T08:17:24Z</time>
      </trkpt>
      <trkpt lat="45.78763" lon="5.45459">
        <ele>226.6</ele>
        <time>2023-05-28T08:17:26Z</time>
      </trkpt>
      <trkpt lat="45.78755" lon="5.45451">
        <ele>226.2</ele>
        <time>2023-05-28T08:17:27Z</time>
      </trkpt>
      <trkpt lat="45.78746" lon="5.45444">
        <ele>226.2</ele>
        <time>2023-05-28T08:17:28Z</time>
      </trkpt>
      <trkpt lat="45.78738" lon="5.45437">
        <ele>226</ele>
        <time>2023-05-28T08:17:29Z</time>
      </trkpt>
      <trkpt lat="45.78721" lon="5.45424">
        <ele>225.8</ele>
        <time>2023-05-28T08:17:31Z</time>
      </trkpt>
      <trkpt lat="45.78713" lon="5.45417">
        <ele>225.6</ele>
        <time>2023-05-28T08:17:32Z</time>
      </trkpt>
      <trkpt lat="45.78705" lon="5.45411">
        <ele>225.4</ele>
        <time>2023-05-28T08:17:33Z</time>
      </trkpt>
      <trkpt lat="45.78689" lon="5.45397">
        <ele>225.2</ele>
        <time>2023-05-28T08:17:35Z</time>
      </trkpt>
      <trkpt lat="45.78682" lon="5.4539">
        <ele>224.8</ele>
        <time>2023-05-28T08:17:36Z</time>
      </trkpt>
      <trkpt lat="45.78676" lon="5.45382">
        <ele>224.8</ele>
        <time>2023-05-28T08:17:37Z</time>
      </trkpt>
      <trkpt lat="45.78667" lon="5.45366">
        <ele>224.6</ele>
        <time>2023-05-28T08:17:39Z</time>
      </trkpt>
      <trkpt lat="45.78662" lon="5.45359">
        <ele>224.6</ele>
        <time>2023-05-28T08:17:40Z</time>
      </trkpt>
      <trkpt lat="45.78657" lon="5.45354">
        <ele>224.6</ele>
        <time>2023-05-28T08:17:41Z</time>
      </trkpt>
      <trkpt lat="45.78651" lon="5.45351">
        <ele>224.6</ele>
        <time>2023-05-28T08:17:42Z</time>
      </trkpt>
      <trkpt lat="45.78644" lon="5.4535">
        <ele>224.4</ele>
        <time>2023-05-28T08:17:43Z</time>
      </trkpt>
      <trkpt lat="45.78637" lon="5.45348">
        <ele>224.4</ele>
        <time>2023-05-28T08:17:44Z</time>
      </trkpt>
      <trkpt lat="45.7863" lon="5.45345">
        <ele>224.4</ele>
        <time>2023-05-28T08:17:45Z</time>
      </trkpt>
      <trkpt lat="45.78624" lon="5.4534">
        <ele>224.2</ele>
        <time>2023-05-28T08:17:46Z</time>
      </trkpt>
      <trkpt lat="45.78617" lon="5.45336">
        <ele>223.6</ele>
        <time>2023-05-28T08:17:47Z</time>
      </trkpt>
      <trkpt lat="45.7861" lon="5.4533">
        <ele>223.6</ele>
        <time>2023-05-28T08:17:48Z</time>
      </trkpt>
      <trkpt lat="45.78603" lon="5.45325">
        <ele>223.2</ele>
        <time>2023-05-28T08:17:49Z</time>
      </trkpt>
      <trkpt lat="45.78596" lon="5.45319">
        <ele>223.2</ele>
        <time>2023-05-28T08:17:50Z</time>
      </trkpt>
      <trkpt lat="45.78589" lon="5.45314">
        <ele>222.8</ele>
        <time>2023-05-28T08:17:51Z</time>
      </trkpt>
      <trkpt lat="45.78582" lon="5.45308">
        <ele>222.6</ele>
        <time>2023-05-28T08:17:52Z</time>
      </trkpt>
      <trkpt lat="45.78574" lon="5.45303">
        <ele>222.4</ele>
        <time>2023-05-28T08:17:53Z</time>
      </trkpt>
      <trkpt lat="45.78567" lon="5.45297">
        <ele>222.2</ele>
        <time>2023-05-28T08:17:54Z</time>
      </trkpt>
      <trkpt lat="45.7856" lon="5.45292">
        <ele>222.2</ele>
        <time>2023-05-28T08:17:55Z</time>
      </trkpt>
      <trkpt lat="45.78552" lon="5.45286">
        <ele>221.8</ele>
        <time>2023-05-28T08:17:56Z</time>
      </trkpt>
      <trkpt lat="45.78545" lon="5.4528">
        <ele>221.8</ele>
        <time>2023-05-28T08:17:57Z</time>
      </trkpt>
      <trkpt lat="45.78537" lon="5.45275">
        <ele>221.6</ele>
        <time>2023-05-28T08:17:58Z</time>
      </trkpt>
      <trkpt lat="45.78529" lon="5.45269">
        <ele>221.4</ele>
        <time>2023-05-28T08:17:59Z</time>
      </trkpt>
      <trkpt lat="45.78522" lon="5.45264">
        <ele>221.4</ele>
        <time>2023-05-28T08:18:00Z</time>
      </trkpt>
      <trkpt lat="45.78515" lon="5.45259">
        <ele>221.2</ele>
        <time>2023-05-28T08:18:01Z</time>
      </trkpt>
      <trkpt lat="45.78507" lon="5.45255">
        <ele>221</ele>
        <time>2023-05-28T08:18:02Z</time>
      </trkpt>
      <trkpt lat="45.78501" lon="5.45251">
        <ele>220.8</ele>
        <time>2023-05-28T08:18:03Z</time>
      </trkpt>
      <trkpt lat="45.78495" lon="5.45247">
        <ele>220.8</ele>
        <time>2023-05-28T08:18:04Z</time>
      </trkpt>
      <trkpt lat="45.78488" lon="5.45242">
        <ele>220.6</ele>
        <time>2023-05-28T08:18:05Z</time>
      </trkpt>
      <trkpt lat="45.78482" lon="5.45238">
        <ele>220.6</ele>
        <time>2023-05-28T08:18:06Z</time>
      </trkpt>
      <trkpt lat="45.78477" lon="5.45234">
        <ele>220.6</ele>
        <time>2023-05-28T08:18:07Z</time>
      </trkpt>
      <trkpt lat="45.78471" lon="5.4523">
        <ele>220.4</ele>
        <time>2023-05-28T08:18:08Z</time>
      </trkpt>
      <trkpt lat="45.78466" lon="5.45227">
        <ele>220.4</ele>
        <time>2023-05-28T08:18:09Z</time>
      </trkpt>
      <trkpt lat="45.7846" lon="5.45223">
        <ele>220.6</ele>
        <time>2023-05-28T08:18:10Z</time>
      </trkpt>
      <trkpt lat="45.78455" lon="5.45219">
        <ele>220.6</ele>
        <time>2023-05-28T08:18:11Z</time>
      </trkpt>
      <trkpt lat="45.7845" lon="5.45216">
        <ele>220.6</ele>
        <time>2023-05-28T08:18:12Z</time>
      </trkpt>
      <trkpt lat="45.78446" lon="5.45212">
        <ele>220.6</ele>
        <time>2023-05-28T08:18:13Z</time>
      </trkpt>
      <trkpt lat="45.78441" lon="5.45209">
        <ele>220.8</ele>
        <time>2023-05-28T08:18:14Z</time>
      </trkpt>
      <trkpt lat="45.78436" lon="5.45206">
        <ele>221</ele>
        <time>2023-05-28T08:18:15Z</time>
      </trkpt>
      <trkpt lat="45.78431" lon="5.45202">
        <ele>221</ele>
        <time>2023-05-28T08:18:16Z</time>
      </trkpt>
      <trkpt lat="45.78426" lon="5.45199">
        <ele>221.2</ele>
        <time>2023-05-28T08:18:17Z</time>
      </trkpt>
      <trkpt lat="45.78422" lon="5.45196">
        <ele>221.4</ele>
        <time>2023-05-28T08:18:18Z</time>
      </trkpt>
      <trkpt lat="45.78417" lon="5.45192">
        <ele>221.6</ele>
        <time>2023-05-28T08:18:19Z</time>
      </trkpt>
      <trkpt lat="45.78412" lon="5.45189">
        <ele>221.6</ele>
        <time>2023-05-28T08:18:20Z</time>
      </trkpt>
      <trkpt lat="45.78408" lon="5.45186">
        <ele>222</ele>
        <time>2023-05-28T08:18:21Z</time>
      </trkpt>
      <trkpt lat="45.78403" lon="5.45183">
        <ele>222.2</ele>
        <time>2023-05-28T08:18:22Z</time>
      </trkpt>
      <trkpt lat="45.78399" lon="5.4518">
        <ele>222.2</ele>
        <time>2023-05-28T08:18:23Z</time>
      </trkpt>
      <trkpt lat="45.78394" lon="5.45177">
        <ele>222.6</ele>
        <time>2023-05-28T08:18:24Z</time>
      </trkpt>
      <trkpt lat="45.78389" lon="5.45174">
        <ele>222.8</ele>
        <time>2023-05-28T08:18:25Z</time>
      </trkpt>
      <trkpt lat="45.78384" lon="5.4517">
        <ele>222.8</ele>
        <time>2023-05-28T08:18:26Z</time>
      </trkpt>
      <trkpt lat="45.78379" lon="5.45167">
        <ele>223</ele>
        <time>2023-05-28T08:18:27Z</time>
      </trkpt>
      <trkpt lat="45.78374" lon="5.45164">
        <ele>223</ele>
        <time>2023-05-28T08:18:28Z</time>
      </trkpt>
      <trkpt lat="45.78369" lon="5.45161">
        <ele>223.2</ele>
        <time>2023-05-28T08:18:29Z</time>
      </trkpt>
      <trkpt lat="45.78364" lon="5.45157">
        <ele>223.2</ele>
        <time>2023-05-28T08:18:30Z</time>
      </trkpt>
      <trkpt lat="45.78359" lon="5.45154">
        <ele>223.4</ele>
        <time>2023-05-28T08:18:31Z</time>
      </trkpt>
      <trkpt lat="45.78353" lon="5.4515">
        <ele>223.4</ele>
        <time>2023-05-28T08:18:32Z</time>
      </trkpt>
      <trkpt lat="45.78347" lon="5.45146">
        <ele>223.6</ele>
        <time>2023-05-28T08:18:33Z</time>
      </trkpt>
      <trkpt lat="45.78341" lon="5.45142">
        <ele>223.6</ele>
        <time>2023-05-28T08:18:34Z</time>
      </trkpt>
      <trkpt lat="45.78335" lon="5.45138">
        <ele>223.8</ele>
        <time>2023-05-28T08:18:35Z</time>
      </trkpt>
      <trkpt lat="45.78329" lon="5.45134">
        <ele>223.8</ele>
        <time>2023-05-28T08:18:36Z</time>
      </trkpt>
      <trkpt lat="45.78323" lon="5.45129">
        <ele>224</ele>
        <time>2023-05-28T08:18:37Z</time>
      </trkpt>
      <trkpt lat="45.78316" lon="5.45125">
        <ele>224</ele>
        <time>2023-05-28T08:18:38Z</time>
      </trkpt>
      <trkpt lat="45.7831" lon="5.4512">
        <ele>224</ele>
        <time>2023-05-28T08:18:39Z</time>
      </trkpt>
      <trkpt lat="45.78303" lon="5.45115">
        <ele>224</ele>
        <time>2023-05-28T08:18:40Z</time>
      </trkpt>
      <trkpt lat="45.78296" lon="5.4511">
        <ele>224.2</ele>
        <time>2023-05-28T08:18:41Z</time>
      </trkpt>
      <trkpt lat="45.78289" lon="5.45105">
        <ele>224.2</ele>
        <time>2023-05-28T08:18:42Z</time>
      </trkpt>
      <trkpt lat="45.78282" lon="5.451">
        <ele>224.2</ele>
        <time>2023-05-28T08:18:43Z</time>
      </trkpt>
      <trkpt lat="45.78275" lon="5.45095">
        <ele>224.2</ele>
        <time>2023-05-28T08:18:44Z</time>
      </trkpt>
      <trkpt lat="45.78267" lon="5.45089">
        <ele>224.4</ele>
        <time>2023-05-28T08:18:45Z</time>
      </trkpt>
      <trkpt lat="45.7826" lon="5.45084">
        <ele>224.4</ele>
        <time>2023-05-28T08:18:46Z</time>
      </trkpt>
      <trkpt lat="45.78253" lon="5.45078">
        <ele>224.6</ele>
        <time>2023-05-28T08:18:47Z</time>
      </trkpt>
      <trkpt lat="45.78246" lon="5.45073">
        <ele>224.8</ele>
        <time>2023-05-28T08:18:48Z</time>
      </trkpt>
      <trkpt lat="45.78239" lon="5.45068">
        <ele>225</ele>
        <time>2023-05-28T08:18:49Z</time>
      </trkpt>
      <trkpt lat="45.78231" lon="5.45062">
        <ele>225</ele>
        <time>2023-05-28T08:18:50Z</time>
      </trkpt>
      <trkpt lat="45.78223" lon="5.45057">
        <ele>225.2</ele>
        <time>2023-05-28T08:18:51Z</time>
      </trkpt>
      <trkpt lat="45.78217" lon="5.45052">
        <ele>225.4</ele>
        <time>2023-05-28T08:18:52Z</time>
      </trkpt>
      <trkpt lat="45.7821" lon="5.45046">
        <ele>225.4</ele>
        <time>2023-05-28T08:18:53Z</time>
      </trkpt>
      <trkpt lat="45.78203" lon="5.45041">
        <ele>225.6</ele>
        <time>2023-05-28T08:18:54Z</time>
      </trkpt>
      <trkpt lat="45.78196" lon="5.45036">
        <ele>225.6</ele>
        <time>2023-05-28T08:18:55Z</time>
      </trkpt>
      <trkpt lat="45.7819" lon="5.4503">
        <ele>225.8</ele>
        <time>2023-05-28T08:18:56Z</time>
      </trkpt>
      <trkpt lat="45.78183" lon="5.45024">
        <ele>225.8</ele>
        <time>2023-05-28T08:18:57Z</time>
      </trkpt>
      <trkpt lat="45.78178" lon="5.45018">
        <ele>226</ele>
        <time>2023-05-28T08:18:58Z</time>
      </trkpt>
      <trkpt lat="45.78172" lon="5.45012">
        <ele>226.2</ele>
        <time>2023-05-28T08:18:59Z</time>
      </trkpt>
      <trkpt lat="45.78161" lon="5.45">
        <ele>226.6</ele>
        <time>2023-05-28T08:19:01Z</time>
      </trkpt>
      <trkpt lat="45.78156" lon="5.44994">
        <ele>226.6</ele>
        <time>2023-05-28T08:19:02Z</time>
      </trkpt>
      <trkpt lat="45.78151" lon="5.44987">
        <ele>226.8</ele>
        <time>2023-05-28T08:19:03Z</time>
      </trkpt>
      <trkpt lat="45.78147" lon="5.44981">
        <ele>226.8</ele>
        <time>2023-05-28T08:19:04Z</time>
      </trkpt>
      <trkpt lat="45.78142" lon="5.44975">
        <ele>227</ele>
        <time>2023-05-28T08:19:05Z</time>
      </trkpt>
      <trkpt lat="45.78137" lon="5.44969">
        <ele>227</ele>
        <time>2023-05-28T08:19:06Z</time>
      </trkpt>
      <trkpt lat="45.78133" lon="5.44962">
        <ele>227.2</ele>
        <time>2023-05-28T08:19:07Z</time>
      </trkpt>
      <trkpt lat="45.78128" lon="5.44955">
        <ele>227.2</ele>
        <time>2023-05-28T08:19:08Z</time>
      </trkpt>
      <trkpt lat="45.78123" lon="5.44949">
        <ele>227.4</ele>
        <time>2023-05-28T08:19:09Z</time>
      </trkpt>
      <trkpt lat="45.78119" lon="5.44942">
        <ele>227.6</ele>
        <time>2023-05-28T08:19:10Z</time>
      </trkpt>
      <trkpt lat="45.78115" lon="5.44935">
        <ele>227.6</ele>
        <time>2023-05-28T08:19:11Z</time>
      </trkpt>
      <trkpt lat="45.78107" lon="5.44922">
        <ele>227.8</ele>
        <time>2023-05-28T08:19:13Z</time>
      </trkpt>
      <trkpt lat="45.78103" lon="5.44915">
        <ele>228.2</ele>
        <time>2023-05-28T08:19:14Z</time>
      </trkpt>
      <trkpt lat="45.78099" lon="5.44908">
        <ele>228.2</ele>
        <time>2023-05-28T08:19:15Z</time>
      </trkpt>
      <trkpt lat="45.78095" lon="5.44901">
        <ele>228.4</ele>
        <time>2023-05-28T08:19:16Z</time>
      </trkpt>
      <trkpt lat="45.78092" lon="5.44894">
        <ele>228.6</ele>
        <time>2023-05-28T08:19:17Z</time>
      </trkpt>
      <trkpt lat="45.78089" lon="5.44886">
        <ele>228.8</ele>
        <time>2023-05-28T08:19:18Z</time>
      </trkpt>
      <trkpt lat="45.78085" lon="5.44879">
        <ele>229</ele>
        <time>2023-05-28T08:19:19Z</time>
      </trkpt>
      <trkpt lat="45.78082" lon="5.44872">
        <ele>229.2</ele>
        <time>2023-05-28T08:19:20Z</time>
      </trkpt>
      <trkpt lat="45.78079" lon="5.44864">
        <ele>229.4</ele>
        <time>2023-05-28T08:19:21Z</time>
      </trkpt>
      <trkpt lat="45.78076" lon="5.44857">
        <ele>229.4</ele>
        <time>2023-05-28T08:19:22Z</time>
      </trkpt>
      <trkpt lat="45.7807" lon="5.44841">
        <ele>230</ele>
        <time>2023-05-28T08:19:24Z</time>
      </trkpt>
      <trkpt lat="45.78067" lon="5.44833">
        <ele>230</ele>
        <time>2023-05-28T08:19:25Z</time>
      </trkpt>
      <trkpt lat="45.78064" lon="5.44825">
        <ele>230.2</ele>
        <time>2023-05-28T08:19:26Z</time>
      </trkpt>
      <trkpt lat="45.78061" lon="5.44817">
        <ele>230.4</ele>
        <time>2023-05-28T08:19:27Z</time>
      </trkpt>
      <trkpt lat="45.78058" lon="5.44809">
        <ele>230.4</ele>
        <time>2023-05-28T08:19:28Z</time>
      </trkpt>
      <trkpt lat="45.78054" lon="5.448">
        <ele>230.6</ele>
        <time>2023-05-28T08:19:29Z</time>
      </trkpt>
      <trkpt lat="45.78051" lon="5.44792">
        <ele>230.8</ele>
        <time>2023-05-28T08:19:30Z</time>
      </trkpt>
      <trkpt lat="45.78048" lon="5.44783">
        <ele>230.8</ele>
        <time>2023-05-28T08:19:31Z</time>
      </trkpt>
      <trkpt lat="45.78045" lon="5.44775">
        <ele>231</ele>
        <time>2023-05-28T08:19:32Z</time>
      </trkpt>
      <trkpt lat="45.78042" lon="5.44767">
        <ele>231.2</ele>
        <time>2023-05-28T08:19:33Z</time>
      </trkpt>
      <trkpt lat="45.78038" lon="5.44758">
        <ele>231.2</ele>
        <time>2023-05-28T08:19:34Z</time>
      </trkpt>
      <trkpt lat="45.78035" lon="5.4475">
        <ele>231.2</ele>
        <time>2023-05-28T08:19:35Z</time>
      </trkpt>
      <trkpt lat="45.78031" lon="5.44742">
        <ele>231.4</ele>
        <time>2023-05-28T08:19:36Z</time>
      </trkpt>
      <trkpt lat="45.78028" lon="5.44733">
        <ele>231.4</ele>
        <time>2023-05-28T08:19:37Z</time>
      </trkpt>
      <trkpt lat="45.78024" lon="5.44725">
        <ele>231.4</ele>
        <time>2023-05-28T08:19:38Z</time>
      </trkpt>
      <trkpt lat="45.78021" lon="5.44716">
        <ele>231.8</ele>
        <time>2023-05-28T08:19:39Z</time>
      </trkpt>
      <trkpt lat="45.78017" lon="5.44708">
        <ele>231.8</ele>
        <time>2023-05-28T08:19:40Z</time>
      </trkpt>
      <trkpt lat="45.78013" lon="5.44699">
        <ele>232</ele>
        <time>2023-05-28T08:19:41Z</time>
      </trkpt>
      <trkpt lat="45.7801" lon="5.4469">
        <ele>232.2</ele>
        <time>2023-05-28T08:19:42Z</time>
      </trkpt>
      <trkpt lat="45.78006" lon="5.44681">
        <ele>232.2</ele>
        <time>2023-05-28T08:19:43Z</time>
      </trkpt>
      <trkpt lat="45.78003" lon="5.44671">
        <ele>232.2</ele>
        <time>2023-05-28T08:19:44Z</time>
      </trkpt>
      <trkpt lat="45.78" lon="5.44662">
        <ele>232.4</ele>
        <time>2023-05-28T08:19:45Z</time>
      </trkpt>
      <trkpt lat="45.77996" lon="5.44652">
        <ele>232.4</ele>
        <time>2023-05-28T08:19:46Z</time>
      </trkpt>
      <trkpt lat="45.77994" lon="5.44643">
        <ele>232.4</ele>
        <time>2023-05-28T08:19:47Z</time>
      </trkpt>
      <trkpt lat="45.77991" lon="5.44633">
        <ele>232.6</ele>
        <time>2023-05-28T08:19:48Z</time>
      </trkpt>
      <trkpt lat="45.77989" lon="5.44625">
        <ele>232.6</ele>
        <time>2023-05-28T08:19:49Z</time>
      </trkpt>
      <trkpt lat="45.77987" lon="5.44615">
        <ele>232.6</ele>
        <time>2023-05-28T08:19:50Z</time>
      </trkpt>
      <trkpt lat="45.77985" lon="5.44606">
        <ele>232.8</ele>
        <time>2023-05-28T08:19:51Z</time>
      </trkpt>
      <trkpt lat="45.77984" lon="5.44594">
        <ele>233</ele>
        <time>2023-05-28T08:19:52Z</time>
      </trkpt>
      <trkpt lat="45.77983" lon="5.44584">
        <ele>233</ele>
        <time>2023-05-28T08:19:53Z</time>
      </trkpt>
      <trkpt lat="45.77982" lon="5.44573">
        <ele>233</ele>
        <time>2023-05-28T08:19:54Z</time>
      </trkpt>
      <trkpt lat="45.77982" lon="5.44563">
        <ele>233.2</ele>
        <time>2023-05-28T08:19:55Z</time>
      </trkpt>
      <trkpt lat="45.77982" lon="5.44553">
        <ele>233.6</ele>
        <time>2023-05-28T08:19:56Z</time>
      </trkpt>
      <trkpt lat="45.77983" lon="5.44543">
        <ele>234</ele>
        <time>2023-05-28T08:19:57Z</time>
      </trkpt>
      <trkpt lat="45.77985" lon="5.44533">
        <ele>234.4</ele>
        <time>2023-05-28T08:19:58Z</time>
      </trkpt>
      <trkpt lat="45.77986" lon="5.44523">
        <ele>234.6</ele>
        <time>2023-05-28T08:19:59Z</time>
      </trkpt>
      <trkpt lat="45.77988" lon="5.44513">
        <ele>235</ele>
        <time>2023-05-28T08:20:00Z</time>
      </trkpt>
      <trkpt lat="45.7799" lon="5.44503">
        <ele>235.2</ele>
        <time>2023-05-28T08:20:01Z</time>
      </trkpt>
      <trkpt lat="45.77992" lon="5.44493">
        <ele>235.8</ele>
        <time>2023-05-28T08:20:02Z</time>
      </trkpt>
      <trkpt lat="45.77994" lon="5.44483">
        <ele>236</ele>
        <time>2023-05-28T08:20:03Z</time>
      </trkpt>
      <trkpt lat="45.77997" lon="5.44474">
        <ele>236.2</ele>
        <time>2023-05-28T08:20:04Z</time>
      </trkpt>
      <trkpt lat="45.77999" lon="5.44464">
        <ele>236.6</ele>
        <time>2023-05-28T08:20:05Z</time>
      </trkpt>
      <trkpt lat="45.78001" lon="5.44454">
        <ele>236.8</ele>
        <time>2023-05-28T08:20:06Z</time>
      </trkpt>
      <trkpt lat="45.78004" lon="5.44444">
        <ele>237.2</ele>
        <time>2023-05-28T08:20:07Z</time>
      </trkpt>
      <trkpt lat="45.78006" lon="5.44433">
        <ele>237.4</ele>
        <time>2023-05-28T08:20:08Z</time>
      </trkpt>
      <trkpt lat="45.78008" lon="5.44423">
        <ele>237.8</ele>
        <time>2023-05-28T08:20:09Z</time>
      </trkpt>
      <trkpt lat="45.78011" lon="5.44413">
        <ele>238</ele>
        <time>2023-05-28T08:20:10Z</time>
      </trkpt>
      <trkpt lat="45.78013" lon="5.44403">
        <ele>238.4</ele>
        <time>2023-05-28T08:20:11Z</time>
      </trkpt>
      <trkpt lat="45.78015" lon="5.44393">
        <ele>239</ele>
        <time>2023-05-28T08:20:12Z</time>
      </trkpt>
      <trkpt lat="45.78018" lon="5.44383">
        <ele>239.2</ele>
        <time>2023-05-28T08:20:13Z</time>
      </trkpt>
      <trkpt lat="45.7802" lon="5.44372">
        <ele>239.6</ele>
        <time>2023-05-28T08:20:14Z</time>
      </trkpt>
      <trkpt lat="45.78022" lon="5.44362">
        <ele>239.6</ele>
        <time>2023-05-28T08:20:15Z</time>
      </trkpt>
      <trkpt lat="45.78024" lon="5.44352">
        <ele>240</ele>
        <time>2023-05-28T08:20:16Z</time>
      </trkpt>
      <trkpt lat="45.78027" lon="5.44341">
        <ele>240.2</ele>
        <time>2023-05-28T08:20:17Z</time>
      </trkpt>
      <trkpt lat="45.78031" lon="5.44321">
        <ele>240.6</ele>
        <time>2023-05-28T08:20:19Z</time>
      </trkpt>
      <trkpt lat="45.78034" lon="5.4431">
        <ele>240.8</ele>
        <time>2023-05-28T08:20:20Z</time>
      </trkpt>
      <trkpt lat="45.78036" lon="5.44299">
        <ele>240.8</ele>
        <time>2023-05-28T08:20:21Z</time>
      </trkpt>
      <trkpt lat="45.78038" lon="5.44289">
        <ele>241</ele>
        <time>2023-05-28T08:20:22Z</time>
      </trkpt>
      <trkpt lat="45.78041" lon="5.44278">
        <ele>241</ele>
        <time>2023-05-28T08:20:23Z</time>
      </trkpt>
      <trkpt lat="45.78043" lon="5.44267">
        <ele>241.2</ele>
        <time>2023-05-28T08:20:24Z</time>
      </trkpt>
      <trkpt lat="45.78045" lon="5.44257">
        <ele>241.2</ele>
        <time>2023-05-28T08:20:25Z</time>
      </trkpt>
      <trkpt lat="45.78047" lon="5.44246">
        <ele>241.2</ele>
        <time>2023-05-28T08:20:26Z</time>
      </trkpt>
      <trkpt lat="45.78049" lon="5.44236">
        <ele>241.2</ele>
        <time>2023-05-28T08:20:27Z</time>
      </trkpt>
      <trkpt lat="45.78051" lon="5.44226">
        <ele>241.4</ele>
        <time>2023-05-28T08:20:28Z</time>
      </trkpt>
      <trkpt lat="45.78054" lon="5.44215">
        <ele>241.4</ele>
        <time>2023-05-28T08:20:29Z</time>
      </trkpt>
      <trkpt lat="45.78056" lon="5.44206">
        <ele>241.6</ele>
        <time>2023-05-28T08:20:30Z</time>
      </trkpt>
      <trkpt lat="45.78058" lon="5.44196">
        <ele>241.6</ele>
        <time>2023-05-28T08:20:31Z</time>
      </trkpt>
      <trkpt lat="45.78061" lon="5.44187">
        <ele>241.6</ele>
        <time>2023-05-28T08:20:32Z</time>
      </trkpt>
      <trkpt lat="45.78063" lon="5.44178">
        <ele>241.8</ele>
        <time>2023-05-28T08:20:33Z</time>
      </trkpt>
      <trkpt lat="45.78066" lon="5.44169">
        <ele>241.8</ele>
        <time>2023-05-28T08:20:34Z</time>
      </trkpt>
      <trkpt lat="45.78069" lon="5.4416">
        <ele>242.2</ele>
        <time>2023-05-28T08:20:35Z</time>
      </trkpt>
      <trkpt lat="45.78072" lon="5.44152">
        <ele>242.2</ele>
        <time>2023-05-28T08:20:36Z</time>
      </trkpt>
      <trkpt lat="45.78076" lon="5.44144">
        <ele>242.4</ele>
        <time>2023-05-28T08:20:37Z</time>
      </trkpt>
      <trkpt lat="45.7808" lon="5.44137">
        <ele>242.4</ele>
        <time>2023-05-28T08:20:38Z</time>
      </trkpt>
      <trkpt lat="45.78084" lon="5.4413">
        <ele>242.6</ele>
        <time>2023-05-28T08:20:39Z</time>
      </trkpt>
      <trkpt lat="45.78088" lon="5.44123">
        <ele>242.6</ele>
        <time>2023-05-28T08:20:40Z</time>
      </trkpt>
      <trkpt lat="45.78092" lon="5.44118">
        <ele>242.6</ele>
        <time>2023-05-28T08:20:41Z</time>
      </trkpt>
      <trkpt lat="45.78096" lon="5.44112">
        <ele>242.8</ele>
        <time>2023-05-28T08:20:42Z</time>
      </trkpt>
      <trkpt lat="45.781" lon="5.44107">
        <ele>243</ele>
        <time>2023-05-28T08:20:43Z</time>
      </trkpt>
      <trkpt lat="45.78104" lon="5.44102">
        <ele>243.2</ele>
        <time>2023-05-28T08:20:44Z</time>
      </trkpt>
      <trkpt lat="45.78112" lon="5.44092">
        <ele>243.6</ele>
        <time>2023-05-28T08:20:46Z</time>
      </trkpt>
      <trkpt lat="45.78116" lon="5.44087">
        <ele>243.8</ele>
        <time>2023-05-28T08:20:47Z</time>
      </trkpt>
      <trkpt lat="45.7812" lon="5.44082">
        <ele>243.8</ele>
        <time>2023-05-28T08:20:48Z</time>
      </trkpt>
      <trkpt lat="45.78124" lon="5.44077">
        <ele>244</ele>
        <time>2023-05-28T08:20:49Z</time>
      </trkpt>
      <trkpt lat="45.78128" lon="5.44072">
        <ele>244.2</ele>
        <time>2023-05-28T08:20:50Z</time>
      </trkpt>
      <trkpt lat="45.78132" lon="5.44067">
        <ele>244.6</ele>
        <time>2023-05-28T08:20:51Z</time>
      </trkpt>
      <trkpt lat="45.78136" lon="5.44062">
        <ele>244.8</ele>
        <time>2023-05-28T08:20:52Z</time>
      </trkpt>
      <trkpt lat="45.7814" lon="5.44058">
        <ele>245.2</ele>
        <time>2023-05-28T08:20:53Z</time>
      </trkpt>
      <trkpt lat="45.78144" lon="5.44053">
        <ele>245.4</ele>
        <time>2023-05-28T08:20:54Z</time>
      </trkpt>
      <trkpt lat="45.78148" lon="5.44048">
        <ele>245.6</ele>
        <time>2023-05-28T08:20:55Z</time>
      </trkpt>
      <trkpt lat="45.78152" lon="5.44043">
        <ele>245.8</ele>
        <time>2023-05-28T08:20:56Z</time>
      </trkpt>
      <trkpt lat="45.78156" lon="5.44038">
        <ele>245.8</ele>
        <time>2023-05-28T08:20:57Z</time>
      </trkpt>
      <trkpt lat="45.7816" lon="5.44033">
        <ele>246.2</ele>
        <time>2023-05-28T08:20:58Z</time>
      </trkpt>
      <trkpt lat="45.78165" lon="5.44028">
        <ele>246.2</ele>
        <time>2023-05-28T08:20:59Z</time>
      </trkpt>
      <trkpt lat="45.78169" lon="5.44022">
        <ele>246.2</ele>
        <time>2023-05-28T08:21:00Z</time>
      </trkpt>
      <trkpt lat="45.78173" lon="5.44017">
        <ele>246.4</ele>
        <time>2023-05-28T08:21:01Z</time>
      </trkpt>
      <trkpt lat="45.78178" lon="5.44012">
        <ele>246.6</ele>
        <time>2023-05-28T08:21:02Z</time>
      </trkpt>
      <trkpt lat="45.78182" lon="5.44007">
        <ele>246.6</ele>
        <time>2023-05-28T08:21:03Z</time>
      </trkpt>
      <trkpt lat="45.78187" lon="5.44002">
        <ele>246.6</ele>
        <time>2023-05-28T08:21:04Z</time>
      </trkpt>
      <trkpt lat="45.78191" lon="5.43997">
        <ele>246.8</ele>
        <time>2023-05-28T08:21:05Z</time>
      </trkpt>
      <trkpt lat="45.78195" lon="5.43992">
        <ele>246.8</ele>
        <time>2023-05-28T08:21:06Z</time>
      </trkpt>
      <trkpt lat="45.78199" lon="5.43986">
        <ele>246.8</ele>
        <time>2023-05-28T08:21:07Z</time>
      </trkpt>
      <trkpt lat="45.78205" lon="5.43982">
        <ele>246.8</ele>
        <time>2023-05-28T08:21:08Z</time>
      </trkpt>
      <trkpt lat="45.7821" lon="5.4398">
        <ele>247</ele>
        <time>2023-05-28T08:21:09Z</time>
      </trkpt>
      <trkpt lat="45.78216" lon="5.4398">
        <ele>247</ele>
        <time>2023-05-28T08:21:10Z</time>
      </trkpt>
      <trkpt lat="45.78221" lon="5.43979">
        <ele>247</ele>
        <time>2023-05-28T08:21:11Z</time>
      </trkpt>
      <trkpt lat="45.78226" lon="5.43979">
        <ele>247</ele>
        <time>2023-05-28T08:21:12Z</time>
      </trkpt>
      <trkpt lat="45.7823" lon="5.43978">
        <ele>247</ele>
        <time>2023-05-28T08:21:13Z</time>
      </trkpt>
      <trkpt lat="45.78235" lon="5.43976">
        <ele>247</ele>
        <time>2023-05-28T08:21:14Z</time>
      </trkpt>
      <trkpt lat="45.78239" lon="5.43975">
        <ele>247</ele>
        <time>2023-05-28T08:21:15Z</time>
      </trkpt>
      <trkpt lat="45.78244" lon="5.43974">
        <ele>247</ele>
        <time>2023-05-28T08:21:16Z</time>
      </trkpt>
      <trkpt lat="45.78249" lon="5.43974">
        <ele>247</ele>
        <time>2023-05-28T08:21:17Z</time>
      </trkpt>
      <trkpt lat="45.78253" lon="5.43973">
        <ele>247</ele>
        <time>2023-05-28T08:21:18Z</time>
      </trkpt>
      <trkpt lat="45.78258" lon="5.43972">
        <ele>247.2</ele>
        <time>2023-05-28T08:21:19Z</time>
      </trkpt>
      <trkpt lat="45.78263" lon="5.43971">
        <ele>247.2</ele>
        <time>2023-05-28T08:21:20Z</time>
      </trkpt>
      <trkpt lat="45.78268" lon="5.43971">
        <ele>247.2</ele>
        <time>2023-05-28T08:21:21Z</time>
      </trkpt>
      <trkpt lat="45.78273" lon="5.4397">
        <ele>247.2</ele>
        <time>2023-05-28T08:21:22Z</time>
      </trkpt>
      <trkpt lat="45.78278" lon="5.43969">
        <ele>247.4</ele>
        <time>2023-05-28T08:21:23Z</time>
      </trkpt>
      <trkpt lat="45.78282" lon="5.43968">
        <ele>247.4</ele>
        <time>2023-05-28T08:21:24Z</time>
      </trkpt>
      <trkpt lat="45.78287" lon="5.43967">
        <ele>247.6</ele>
        <time>2023-05-28T08:21:25Z</time>
      </trkpt>
      <trkpt lat="45.78292" lon="5.43966">
        <ele>247.6</ele>
        <time>2023-05-28T08:21:26Z</time>
      </trkpt>
      <trkpt lat="45.78296" lon="5.43966">
        <ele>247.6</ele>
        <time>2023-05-28T08:21:27Z</time>
      </trkpt>
      <trkpt lat="45.78301" lon="5.43966">
        <ele>247.6</ele>
        <time>2023-05-28T08:21:28Z</time>
      </trkpt>
      <trkpt lat="45.78306" lon="5.43965">
        <ele>247.8</ele>
        <time>2023-05-28T08:21:29Z</time>
      </trkpt>
      <trkpt lat="45.7831" lon="5.43965">
        <ele>247.8</ele>
        <time>2023-05-28T08:21:30Z</time>
      </trkpt>
      <trkpt lat="45.78315" lon="5.43964">
        <ele>247.8</ele>
        <time>2023-05-28T08:21:31Z</time>
      </trkpt>
      <trkpt lat="45.78319" lon="5.43964">
        <ele>247.8</ele>
        <time>2023-05-28T08:21:32Z</time>
      </trkpt>
      <trkpt lat="45.78324" lon="5.43963">
        <ele>247.8</ele>
        <time>2023-05-28T08:21:33Z</time>
      </trkpt>
      <trkpt lat="45.78328" lon="5.43962">
        <ele>247.6</ele>
        <time>2023-05-28T08:21:34Z</time>
      </trkpt>
      <trkpt lat="45.78332" lon="5.43961">
        <ele>247.6</ele>
        <time>2023-05-28T08:21:35Z</time>
      </trkpt>
      <trkpt lat="45.78336" lon="5.4396">
        <ele>247.6</ele>
        <time>2023-05-28T08:21:36Z</time>
      </trkpt>
      <trkpt lat="45.7834" lon="5.43959">
        <ele>247.6</ele>
        <time>2023-05-28T08:21:37Z</time>
      </trkpt>
      <trkpt lat="45.78344" lon="5.43959">
        <ele>247.8</ele>
        <time>2023-05-28T08:21:38Z</time>
      </trkpt>
      <trkpt lat="45.78347" lon="5.43958">
        <ele>247.8</ele>
        <time>2023-05-28T08:21:39Z</time>
      </trkpt>
      <trkpt lat="45.7835" lon="5.43958">
        <ele>247.8</ele>
        <time>2023-05-28T08:21:40Z</time>
      </trkpt>
      <trkpt lat="45.78353" lon="5.43957">
        <ele>247.8</ele>
        <time>2023-05-28T08:21:41Z</time>
      </trkpt>
      <trkpt lat="45.78357" lon="5.43956">
        <ele>247.8</ele>
        <time>2023-05-28T08:21:42Z</time>
      </trkpt>
      <trkpt lat="45.78361" lon="5.43955">
        <ele>247.8</ele>
        <time>2023-05-28T08:21:43Z</time>
      </trkpt>
      <trkpt lat="45.78364" lon="5.43954">
        <ele>248</ele>
        <time>2023-05-28T08:21:44Z</time>
      </trkpt>
      <trkpt lat="45.78367" lon="5.43953">
        <ele>248</ele>
        <time>2023-05-28T08:21:45Z</time>
      </trkpt>
      <trkpt lat="45.7837" lon="5.43951">
        <ele>248.2</ele>
        <time>2023-05-28T08:21:46Z</time>
      </trkpt>
      <trkpt lat="45.78378" lon="5.43948">
        <ele>248.6</ele>
        <time>2023-05-28T08:21:48Z</time>
      </trkpt>
      <trkpt lat="45.78381" lon="5.43946">
        <ele>248.6</ele>
        <time>2023-05-28T08:21:49Z</time>
      </trkpt>
      <trkpt lat="45.78384" lon="5.43944">
        <ele>248.8</ele>
        <time>2023-05-28T08:21:50Z</time>
      </trkpt>
      <trkpt lat="45.78388" lon="5.43941">
        <ele>248.8</ele>
        <time>2023-05-28T08:21:51Z</time>
      </trkpt>
      <trkpt lat="45.78391" lon="5.43939">
        <ele>249</ele>
        <time>2023-05-28T08:21:52Z</time>
      </trkpt>
      <trkpt lat="45.78394" lon="5.43936">
        <ele>249.2</ele>
        <time>2023-05-28T08:21:53Z</time>
      </trkpt>
      <trkpt lat="45.78398" lon="5.43934">
        <ele>249.4</ele>
        <time>2023-05-28T08:21:54Z</time>
      </trkpt>
      <trkpt lat="45.78401" lon="5.43932">
        <ele>249.8</ele>
        <time>2023-05-28T08:21:55Z</time>
      </trkpt>
      <trkpt lat="45.78405" lon="5.4393">
        <ele>250</ele>
        <time>2023-05-28T08:21:56Z</time>
      </trkpt>
      <trkpt lat="45.78408" lon="5.43929">
        <ele>250.4</ele>
        <time>2023-05-28T08:21:57Z</time>
      </trkpt>
      <trkpt lat="45.78412" lon="5.43927">
        <ele>250.6</ele>
        <time>2023-05-28T08:21:58Z</time>
      </trkpt>
      <trkpt lat="45.78415" lon="5.43926">
        <ele>250.8</ele>
        <time>2023-05-28T08:21:59Z</time>
      </trkpt>
      <trkpt lat="45.78418" lon="5.43924">
        <ele>251</ele>
        <time>2023-05-28T08:22:00Z</time>
      </trkpt>
      <trkpt lat="45.78421" lon="5.43922">
        <ele>251.2</ele>
        <time>2023-05-28T08:22:01Z</time>
      </trkpt>
      <trkpt lat="45.78424" lon="5.43921">
        <ele>251.4</ele>
        <time>2023-05-28T08:22:02Z</time>
      </trkpt>
      <trkpt lat="45.78428" lon="5.4392">
        <ele>251.6</ele>
        <time>2023-05-28T08:22:03Z</time>
      </trkpt>
      <trkpt lat="45.78431" lon="5.43918">
        <ele>252</ele>
        <time>2023-05-28T08:22:04Z</time>
      </trkpt>
      <trkpt lat="45.78434" lon="5.43917">
        <ele>252.4</ele>
        <time>2023-05-28T08:22:05Z</time>
      </trkpt>
      <trkpt lat="45.78438" lon="5.43917">
        <ele>252.6</ele>
        <time>2023-05-28T08:22:06Z</time>
      </trkpt>
      <trkpt lat="45.78441" lon="5.43915">
        <ele>253</ele>
        <time>2023-05-28T08:22:07Z</time>
      </trkpt>
      <trkpt lat="45.78444" lon="5.43914">
        <ele>253.4</ele>
        <time>2023-05-28T08:22:08Z</time>
      </trkpt>
      <trkpt lat="45.78448" lon="5.43913">
        <ele>254</ele>
        <time>2023-05-28T08:22:09Z</time>
      </trkpt>
      <trkpt lat="45.78451" lon="5.43912">
        <ele>254</ele>
        <time>2023-05-28T08:22:10Z</time>
      </trkpt>
      <trkpt lat="45.78455" lon="5.43911">
        <ele>254.6</ele>
        <time>2023-05-28T08:22:11Z</time>
      </trkpt>
      <trkpt lat="45.78458" lon="5.4391">
        <ele>254.8</ele>
        <time>2023-05-28T08:22:12Z</time>
      </trkpt>
      <trkpt lat="45.78461" lon="5.43909">
        <ele>255</ele>
        <time>2023-05-28T08:22:13Z</time>
      </trkpt>
      <trkpt lat="45.78464" lon="5.43907">
        <ele>255.2</ele>
        <time>2023-05-28T08:22:14Z</time>
      </trkpt>
      <trkpt lat="45.78467" lon="5.43906">
        <ele>255.2</ele>
        <time>2023-05-28T08:22:15Z</time>
      </trkpt>
      <trkpt lat="45.7847" lon="5.43906">
        <ele>255.4</ele>
        <time>2023-05-28T08:22:16Z</time>
      </trkpt>
      <trkpt lat="45.78477" lon="5.43904">
        <ele>255.6</ele>
        <time>2023-05-28T08:22:18Z</time>
      </trkpt>
      <trkpt lat="45.7848" lon="5.43903">
        <ele>255.6</ele>
        <time>2023-05-28T08:22:19Z</time>
      </trkpt>
      <trkpt lat="45.78483" lon="5.43902">
        <ele>255.6</ele>
        <time>2023-05-28T08:22:20Z</time>
      </trkpt>
      <trkpt lat="45.78486" lon="5.43901">
        <ele>255.8</ele>
        <time>2023-05-28T08:22:21Z</time>
      </trkpt>
      <trkpt lat="45.78489" lon="5.43901">
        <ele>255.8</ele>
        <time>2023-05-28T08:22:22Z</time>
      </trkpt>
      <trkpt lat="45.78492" lon="5.439">
        <ele>256</ele>
        <time>2023-05-28T08:22:23Z</time>
      </trkpt>
      <trkpt lat="45.78495" lon="5.43899">
        <ele>256.2</ele>
        <time>2023-05-28T08:22:24Z</time>
      </trkpt>
      <trkpt lat="45.78498" lon="5.43898">
        <ele>256.4</ele>
        <time>2023-05-28T08:22:25Z</time>
      </trkpt>
      <trkpt lat="45.785" lon="5.43898">
        <ele>256.4</ele>
        <time>2023-05-28T08:22:26Z</time>
      </trkpt>
      <trkpt lat="45.78503" lon="5.43897">
        <ele>256.4</ele>
        <time>2023-05-28T08:22:27Z</time>
      </trkpt>
      <trkpt lat="45.78509" lon="5.43896">
        <ele>256.6</ele>
        <time>2023-05-28T08:22:29Z</time>
      </trkpt>
      <trkpt lat="45.78512" lon="5.43895">
        <ele>256.8</ele>
        <time>2023-05-28T08:22:30Z</time>
      </trkpt>
      <trkpt lat="45.78515" lon="5.43894">
        <ele>257.2</ele>
        <time>2023-05-28T08:22:31Z</time>
      </trkpt>
      <trkpt lat="45.78518" lon="5.43893">
        <ele>257.8</ele>
        <time>2023-05-28T08:22:32Z</time>
      </trkpt>
      <trkpt lat="45.78521" lon="5.43892">
        <ele>258.2</ele>
        <time>2023-05-28T08:22:33Z</time>
      </trkpt>
      <trkpt lat="45.78524" lon="5.43891">
        <ele>258.8</ele>
        <time>2023-05-28T08:22:34Z</time>
      </trkpt>
      <trkpt lat="45.78527" lon="5.4389">
        <ele>259</ele>
        <time>2023-05-28T08:22:35Z</time>
      </trkpt>
      <trkpt lat="45.7853" lon="5.43889">
        <ele>259.4</ele>
        <time>2023-05-28T08:22:36Z</time>
      </trkpt>
      <trkpt lat="45.78533" lon="5.43887">
        <ele>259.4</ele>
        <time>2023-05-28T08:22:37Z</time>
      </trkpt>
      <trkpt lat="45.78536" lon="5.43885">
        <ele>259.6</ele>
        <time>2023-05-28T08:22:38Z</time>
      </trkpt>
      <trkpt lat="45.7854" lon="5.43884">
        <ele>259.8</ele>
        <time>2023-05-28T08:22:39Z</time>
      </trkpt>
      <trkpt lat="45.78543" lon="5.43882">
        <ele>260.2</ele>
        <time>2023-05-28T08:22:40Z</time>
      </trkpt>
      <trkpt lat="45.78546" lon="5.43881">
        <ele>260.4</ele>
        <time>2023-05-28T08:22:41Z</time>
      </trkpt>
      <trkpt lat="45.78549" lon="5.43879">
        <ele>260.4</ele>
        <time>2023-05-28T08:22:42Z</time>
      </trkpt>
      <trkpt lat="45.78551" lon="5.43877">
        <ele>260.8</ele>
        <time>2023-05-28T08:22:43Z</time>
      </trkpt>
      <trkpt lat="45.78554" lon="5.43874">
        <ele>260.8</ele>
        <time>2023-05-28T08:22:44Z</time>
      </trkpt>
      <trkpt lat="45.78557" lon="5.43872">
        <ele>261.2</ele>
        <time>2023-05-28T08:22:45Z</time>
      </trkpt>
      <trkpt lat="45.78561" lon="5.4387">
        <ele>261.2</ele>
        <time>2023-05-28T08:22:46Z</time>
      </trkpt>
      <trkpt lat="45.78564" lon="5.43869">
        <ele>261.6</ele>
        <time>2023-05-28T08:22:47Z</time>
      </trkpt>
      <trkpt lat="45.78567" lon="5.43867">
        <ele>261.8</ele>
        <time>2023-05-28T08:22:48Z</time>
      </trkpt>
      <trkpt lat="45.7857" lon="5.43865">
        <ele>262.2</ele>
        <time>2023-05-28T08:22:49Z</time>
      </trkpt>
      <trkpt lat="45.78573" lon="5.43863">
        <ele>262.6</ele>
        <time>2023-05-28T08:22:50Z</time>
      </trkpt>
      <trkpt lat="45.78576" lon="5.43861">
        <ele>262.6</ele>
        <time>2023-05-28T08:22:51Z</time>
      </trkpt>
      <trkpt lat="45.78579" lon="5.43859">
        <ele>262.8</ele>
        <time>2023-05-28T08:22:52Z</time>
      </trkpt>
      <trkpt lat="45.78585" lon="5.43856">
        <ele>263</ele>
        <time>2023-05-28T08:22:54Z</time>
      </trkpt>
      <trkpt lat="45.78588" lon="5.43854">
        <ele>263.2</ele>
        <time>2023-05-28T08:22:55Z</time>
      </trkpt>
      <trkpt lat="45.78591" lon="5.43853">
        <ele>263.2</ele>
        <time>2023-05-28T08:22:56Z</time>
      </trkpt>
      <trkpt lat="45.78593" lon="5.43852">
        <ele>263.6</ele>
        <time>2023-05-28T08:22:57Z</time>
      </trkpt>
      <trkpt lat="45.78596" lon="5.4385">
        <ele>263.8</ele>
        <time>2023-05-28T08:22:58Z</time>
      </trkpt>
      <trkpt lat="45.78599" lon="5.43848">
        <ele>264</ele>
        <time>2023-05-28T08:22:59Z</time>
      </trkpt>
      <trkpt lat="45.78602" lon="5.43847">
        <ele>264.2</ele>
        <time>2023-05-28T08:23:00Z</time>
      </trkpt>
      <trkpt lat="45.78604" lon="5.43846">
        <ele>264.4</ele>
        <time>2023-05-28T08:23:01Z</time>
      </trkpt>
      <trkpt lat="45.78607" lon="5.43844">
        <ele>264.6</ele>
        <time>2023-05-28T08:23:02Z</time>
      </trkpt>
      <trkpt lat="45.7861" lon="5.43842">
        <ele>264.8</ele>
        <time>2023-05-28T08:23:03Z</time>
      </trkpt>
      <trkpt lat="45.78613" lon="5.4384">
        <ele>265</ele>
        <time>2023-05-28T08:23:04Z</time>
      </trkpt>
      <trkpt lat="45.78616" lon="5.43839">
        <ele>265</ele>
        <time>2023-05-28T08:23:05Z</time>
      </trkpt>
      <trkpt lat="45.78619" lon="5.43838">
        <ele>265.2</ele>
        <time>2023-05-28T08:23:06Z</time>
      </trkpt>
      <trkpt lat="45.78623" lon="5.43837">
        <ele>265.4</ele>
        <time>2023-05-28T08:23:07Z</time>
      </trkpt>
      <trkpt lat="45.78627" lon="5.43836">
        <ele>265.6</ele>
        <time>2023-05-28T08:23:08Z</time>
      </trkpt>
      <trkpt lat="45.7863" lon="5.43835">
        <ele>265.6</ele>
        <time>2023-05-28T08:23:09Z</time>
      </trkpt>
      <trkpt lat="45.78634" lon="5.43834">
        <ele>266</ele>
        <time>2023-05-28T08:23:10Z</time>
      </trkpt>
      <trkpt lat="45.78637" lon="5.43834">
        <ele>266.4</ele>
        <time>2023-05-28T08:23:11Z</time>
      </trkpt>
      <trkpt lat="45.78641" lon="5.43834">
        <ele>266.6</ele>
        <time>2023-05-28T08:23:12Z</time>
      </trkpt>
      <trkpt lat="45.78644" lon="5.43833">
        <ele>266.8</ele>
        <time>2023-05-28T08:23:13Z</time>
      </trkpt>
      <trkpt lat="45.78648" lon="5.43833">
        <ele>267</ele>
        <time>2023-05-28T08:23:14Z</time>
      </trkpt>
      <trkpt lat="45.78652" lon="5.43832">
        <ele>267.2</ele>
        <time>2023-05-28T08:23:15Z</time>
      </trkpt>
      <trkpt lat="45.78655" lon="5.43832">
        <ele>267.4</ele>
        <time>2023-05-28T08:23:16Z</time>
      </trkpt>
      <trkpt lat="45.78659" lon="5.43832">
        <ele>267.6</ele>
        <time>2023-05-28T08:23:17Z</time>
      </trkpt>
      <trkpt lat="45.78662" lon="5.43831">
        <ele>267.8</ele>
        <time>2023-05-28T08:23:18Z</time>
      </trkpt>
      <trkpt lat="45.78666" lon="5.43831">
        <ele>268</ele>
        <time>2023-05-28T08:23:19Z</time>
      </trkpt>
      <trkpt lat="45.7867" lon="5.4383">
        <ele>268.4</ele>
        <time>2023-05-28T08:23:20Z</time>
      </trkpt>
      <trkpt lat="45.78674" lon="5.43829">
        <ele>268.6</ele>
        <time>2023-05-28T08:23:21Z</time>
      </trkpt>
      <trkpt lat="45.78678" lon="5.43829">
        <ele>268.6</ele>
        <time>2023-05-28T08:23:22Z</time>
      </trkpt>
      <trkpt lat="45.78681" lon="5.43828">
        <ele>268.6</ele>
        <time>2023-05-28T08:23:23Z</time>
      </trkpt>
      <trkpt lat="45.78685" lon="5.43828">
        <ele>268.8</ele>
        <time>2023-05-28T08:23:24Z</time>
      </trkpt>
      <trkpt lat="45.78689" lon="5.43827">
        <ele>269</ele>
        <time>2023-05-28T08:23:25Z</time>
      </trkpt>
      <trkpt lat="45.78693" lon="5.43826">
        <ele>269.2</ele>
        <time>2023-05-28T08:23:26Z</time>
      </trkpt>
      <trkpt lat="45.78696" lon="5.43825">
        <ele>269.6</ele>
        <time>2023-05-28T08:23:27Z</time>
      </trkpt>
      <trkpt lat="45.787" lon="5.43823">
        <ele>269.8</ele>
        <time>2023-05-28T08:23:28Z</time>
      </trkpt>
      <trkpt lat="45.78703" lon="5.43821">
        <ele>270</ele>
        <time>2023-05-28T08:23:29Z</time>
      </trkpt>
      <trkpt lat="45.78707" lon="5.43819">
        <ele>270.2</ele>
        <time>2023-05-28T08:23:30Z</time>
      </trkpt>
      <trkpt lat="45.78711" lon="5.43816">
        <ele>270.6</ele>
        <time>2023-05-28T08:23:31Z</time>
      </trkpt>
      <trkpt lat="45.78714" lon="5.43813">
        <ele>270.6</ele>
        <time>2023-05-28T08:23:32Z</time>
      </trkpt>
      <trkpt lat="45.78718" lon="5.4381">
        <ele>271</ele>
        <time>2023-05-28T08:23:33Z</time>
      </trkpt>
      <trkpt lat="45.78722" lon="5.43806">
        <ele>271.2</ele>
        <time>2023-05-28T08:23:34Z</time>
      </trkpt>
      <trkpt lat="45.78726" lon="5.43802">
        <ele>271.4</ele>
        <time>2023-05-28T08:23:35Z</time>
      </trkpt>
      <trkpt lat="45.7873" lon="5.43799">
        <ele>271.8</ele>
        <time>2023-05-28T08:23:36Z</time>
      </trkpt>
      <trkpt lat="45.78734" lon="5.43795">
        <ele>271.8</ele>
        <time>2023-05-28T08:23:37Z</time>
      </trkpt>
      <trkpt lat="45.78739" lon="5.43792">
        <ele>272.2</ele>
        <time>2023-05-28T08:23:38Z</time>
      </trkpt>
      <trkpt lat="45.78744" lon="5.43789">
        <ele>272.4</ele>
        <time>2023-05-28T08:23:39Z</time>
      </trkpt>
      <trkpt lat="45.78749" lon="5.43786">
        <ele>272.6</ele>
        <time>2023-05-28T08:23:40Z</time>
      </trkpt>
      <trkpt lat="45.78755" lon="5.43783">
        <ele>272.6</ele>
        <time>2023-05-28T08:23:41Z</time>
      </trkpt>
      <trkpt lat="45.78761" lon="5.43781">
        <ele>273</ele>
        <time>2023-05-28T08:23:42Z</time>
      </trkpt>
      <trkpt lat="45.78767" lon="5.43778">
        <ele>273.2</ele>
        <time>2023-05-28T08:23:43Z</time>
      </trkpt>
      <trkpt lat="45.78773" lon="5.43775">
        <ele>273.4</ele>
        <time>2023-05-28T08:23:44Z</time>
      </trkpt>
      <trkpt lat="45.78779" lon="5.43771">
        <ele>273.8</ele>
        <time>2023-05-28T08:23:45Z</time>
      </trkpt>
      <trkpt lat="45.78785" lon="5.43766">
        <ele>274</ele>
        <time>2023-05-28T08:23:46Z</time>
      </trkpt>
      <trkpt lat="45.7879" lon="5.43759">
        <ele>274</ele>
        <time>2023-05-28T08:23:47Z</time>
      </trkpt>
      <trkpt lat="45.78796" lon="5.43752">
        <ele>274</ele>
        <time>2023-05-28T08:23:48Z</time>
      </trkpt>
      <trkpt lat="45.78802" lon="5.43745">
        <ele>274</ele>
        <time>2023-05-28T08:23:49Z</time>
      </trkpt>
      <trkpt lat="45.78807" lon="5.43739">
        <ele>274</ele>
        <time>2023-05-28T08:23:50Z</time>
      </trkpt>
      <trkpt lat="45.78813" lon="5.43731">
        <ele>274.2</ele>
        <time>2023-05-28T08:23:51Z</time>
      </trkpt>
      <trkpt lat="45.78821" lon="5.43723">
        <ele>274.2</ele>
        <time>2023-05-28T08:23:52Z</time>
      </trkpt>
      <trkpt lat="45.78828" lon="5.43715">
        <ele>274.2</ele>
        <time>2023-05-28T08:23:53Z</time>
      </trkpt>
      <trkpt lat="45.78834" lon="5.43709">
        <ele>274.2</ele>
        <time>2023-05-28T08:23:54Z</time>
      </trkpt>
      <trkpt lat="45.78841" lon="5.43702">
        <ele>274.2</ele>
        <time>2023-05-28T08:23:55Z</time>
      </trkpt>
      <trkpt lat="45.78849" lon="5.43694">
        <ele>274.2</ele>
        <time>2023-05-28T08:23:56Z</time>
      </trkpt>
      <trkpt lat="45.78854" lon="5.43688">
        <ele>274</ele>
        <time>2023-05-28T08:23:57Z</time>
      </trkpt>
      <trkpt lat="45.78861" lon="5.43682">
        <ele>274</ele>
        <time>2023-05-28T08:23:58Z</time>
      </trkpt>
      <trkpt lat="45.78869" lon="5.43675">
        <ele>273.8</ele>
        <time>2023-05-28T08:23:59Z</time>
      </trkpt>
      <trkpt lat="45.78878" lon="5.43667">
        <ele>273.6</ele>
        <time>2023-05-28T08:24:00Z</time>
      </trkpt>
      <trkpt lat="45.78886" lon="5.4366">
        <ele>273.2</ele>
        <time>2023-05-28T08:24:01Z</time>
      </trkpt>
      <trkpt lat="45.78894" lon="5.43653">
        <ele>273</ele>
        <time>2023-05-28T08:24:02Z</time>
      </trkpt>
      <trkpt lat="45.78894" lon="5.43653">
        <ele>272.6</ele>
        <time>2023-05-28T08:24:03Z</time>
      </trkpt>
      <trkpt lat="45.78906" lon="5.43635">
        <ele>272.6</ele>
        <time>2023-05-28T08:24:04Z</time>
      </trkpt>
      <trkpt lat="45.78912" lon="5.43623">
        <ele>272.2</ele>
        <time>2023-05-28T08:24:05Z</time>
      </trkpt>
      <trkpt lat="45.78919" lon="5.43608">
        <ele>272</ele>
        <time>2023-05-28T08:24:06Z</time>
      </trkpt>
      <trkpt lat="45.78924" lon="5.43597">
        <ele>271.8</ele>
        <time>2023-05-28T08:24:07Z</time>
      </trkpt>
      <trkpt lat="45.78931" lon="5.43585">
        <ele>270.6</ele>
        <time>2023-05-28T08:24:08Z</time>
      </trkpt>
      <trkpt lat="45.78937" lon="5.43573">
        <ele>270</ele>
        <time>2023-05-28T08:24:09Z</time>
      </trkpt>
      <trkpt lat="45.78945" lon="5.43559">
        <ele>268.8</ele>
        <time>2023-05-28T08:24:10Z</time>
      </trkpt>
      <trkpt lat="45.78951" lon="5.43546">
        <ele>268.4</ele>
        <time>2023-05-28T08:24:11Z</time>
      </trkpt>
      <trkpt lat="45.78957" lon="5.43533">
        <ele>267.6</ele>
        <time>2023-05-28T08:24:12Z</time>
      </trkpt>
      <trkpt lat="45.7896" lon="5.43521">
        <ele>267.4</ele>
        <time>2023-05-28T08:24:13Z</time>
      </trkpt>
      <trkpt lat="45.78964" lon="5.43503">
        <ele>266.4</ele>
        <time>2023-05-28T08:24:14Z</time>
      </trkpt>
      <trkpt lat="45.78965" lon="5.43487">
        <ele>265.6</ele>
        <time>2023-05-28T08:24:15Z</time>
      </trkpt>
      <trkpt lat="45.78964" lon="5.43471">
        <ele>265</ele>
        <time>2023-05-28T08:24:16Z</time>
      </trkpt>
      <trkpt lat="45.78963" lon="5.43455">
        <ele>263.6</ele>
        <time>2023-05-28T08:24:17Z</time>
      </trkpt>
      <trkpt lat="45.78961" lon="5.43442">
        <ele>263.2</ele>
        <time>2023-05-28T08:24:18Z</time>
      </trkpt>
      <trkpt lat="45.78958" lon="5.43426">
        <ele>262.4</ele>
        <time>2023-05-28T08:24:19Z</time>
      </trkpt>
      <trkpt lat="45.78955" lon="5.4341">
        <ele>262.2</ele>
        <time>2023-05-28T08:24:20Z</time>
      </trkpt>
      <trkpt lat="45.78952" lon="5.43391">
        <ele>261.4</ele>
        <time>2023-05-28T08:24:21Z</time>
      </trkpt>
      <trkpt lat="45.78949" lon="5.43374">
        <ele>259.6</ele>
        <time>2023-05-28T08:24:22Z</time>
      </trkpt>
      <trkpt lat="45.78946" lon="5.43361">
        <ele>258.6</ele>
        <time>2023-05-28T08:24:23Z</time>
      </trkpt>
      <trkpt lat="45.78944" lon="5.43344">
        <ele>257.6</ele>
        <time>2023-05-28T08:24:24Z</time>
      </trkpt>
      <trkpt lat="45.7894" lon="5.43325">
        <ele>257.4</ele>
        <time>2023-05-28T08:24:25Z</time>
      </trkpt>
      <trkpt lat="45.78938" lon="5.43309">
        <ele>257</ele>
        <time>2023-05-28T08:24:26Z</time>
      </trkpt>
      <trkpt lat="45.78935" lon="5.43292">
        <ele>256.8</ele>
        <time>2023-05-28T08:24:27Z</time>
      </trkpt>
      <trkpt lat="45.78933" lon="5.43279">
        <ele>256.4</ele>
        <time>2023-05-28T08:24:28Z</time>
      </trkpt>
      <trkpt lat="45.7893" lon="5.43263">
        <ele>256</ele>
        <time>2023-05-28T08:24:29Z</time>
      </trkpt>
      <trkpt lat="45.78927" lon="5.43244">
        <ele>255.6</ele>
        <time>2023-05-28T08:24:30Z</time>
      </trkpt>
      <trkpt lat="45.78924" lon="5.43228">
        <ele>254.8</ele>
        <time>2023-05-28T08:24:31Z</time>
      </trkpt>
      <trkpt lat="45.78921" lon="5.43213">
        <ele>254</ele>
        <time>2023-05-28T08:24:32Z</time>
      </trkpt>
      <trkpt lat="45.78919" lon="5.432">
        <ele>253.4</ele>
        <time>2023-05-28T08:24:33Z</time>
      </trkpt>
      <trkpt lat="45.78917" lon="5.43186">
        <ele>253</ele>
        <time>2023-05-28T08:24:34Z</time>
      </trkpt>
      <trkpt lat="45.78914" lon="5.43169">
        <ele>252.4</ele>
        <time>2023-05-28T08:24:35Z</time>
      </trkpt>
      <trkpt lat="45.78911" lon="5.43156">
        <ele>252.2</ele>
        <time>2023-05-28T08:24:36Z</time>
      </trkpt>
      <trkpt lat="45.78908" lon="5.43143">
        <ele>251.4</ele>
        <time>2023-05-28T08:24:37Z</time>
      </trkpt>
      <trkpt lat="45.78905" lon="5.4313">
        <ele>250.6</ele>
        <time>2023-05-28T08:24:38Z</time>
      </trkpt>
      <trkpt lat="45.78902" lon="5.43118">
        <ele>250</ele>
        <time>2023-05-28T08:24:39Z</time>
      </trkpt>
      <trkpt lat="45.78898" lon="5.43106">
        <ele>249</ele>
        <time>2023-05-28T08:24:40Z</time>
      </trkpt>
      <trkpt lat="45.78893" lon="5.43095">
        <ele>248.4</ele>
        <time>2023-05-28T08:24:41Z</time>
      </trkpt>
      <trkpt lat="45.78888" lon="5.43084">
        <ele>247.4</ele>
        <time>2023-05-28T08:24:42Z</time>
      </trkpt>
      <trkpt lat="45.78883" lon="5.43075">
        <ele>247</ele>
        <time>2023-05-28T08:24:43Z</time>
      </trkpt>
      <trkpt lat="45.78878" lon="5.43065">
        <ele>246</ele>
        <time>2023-05-28T08:24:44Z</time>
      </trkpt>
      <trkpt lat="45.78874" lon="5.43056">
        <ele>245.6</ele>
        <time>2023-05-28T08:24:45Z</time>
      </trkpt>
      <trkpt lat="45.78869" lon="5.43047">
        <ele>245.6</ele>
        <time>2023-05-28T08:24:46Z</time>
      </trkpt>
      <trkpt lat="45.78864" lon="5.43038">
        <ele>245.2</ele>
        <time>2023-05-28T08:24:47Z</time>
      </trkpt>
      <trkpt lat="45.7886" lon="5.43029">
        <ele>244.8</ele>
        <time>2023-05-28T08:24:48Z</time>
      </trkpt>
      <trkpt lat="45.78855" lon="5.4302">
        <ele>244.6</ele>
        <time>2023-05-28T08:24:49Z</time>
      </trkpt>
      <trkpt lat="45.78851" lon="5.43011">
        <ele>244.6</ele>
        <time>2023-05-28T08:24:50Z</time>
      </trkpt>
      <trkpt lat="45.78848" lon="5.43002">
        <ele>244.2</ele>
        <time>2023-05-28T08:24:51Z</time>
      </trkpt>
      <trkpt lat="45.78844" lon="5.42994">
        <ele>244</ele>
        <time>2023-05-28T08:24:52Z</time>
      </trkpt>
      <trkpt lat="45.78841" lon="5.42985">
        <ele>243.4</ele>
        <time>2023-05-28T08:24:53Z</time>
      </trkpt>
      <trkpt lat="45.78839" lon="5.42977">
        <ele>242.6</ele>
        <time>2023-05-28T08:24:54Z</time>
      </trkpt>
      <trkpt lat="45.78838" lon="5.4297">
        <ele>242.4</ele>
        <time>2023-05-28T08:24:55Z</time>
      </trkpt>
      <trkpt lat="45.7884" lon="5.42964">
        <ele>241.6</ele>
        <time>2023-05-28T08:24:56Z</time>
      </trkpt>
      <trkpt lat="45.78843" lon="5.42958">
        <ele>241.2</ele>
        <time>2023-05-28T08:24:57Z</time>
      </trkpt>
      <trkpt lat="45.78847" lon="5.42954">
        <ele>241</ele>
        <time>2023-05-28T08:24:58Z</time>
      </trkpt>
      <trkpt lat="45.78851" lon="5.4295">
        <ele>241</ele>
        <time>2023-05-28T08:24:59Z</time>
      </trkpt>
      <trkpt lat="45.7886" lon="5.42942">
        <ele>240.6</ele>
        <time>2023-05-28T08:25:01Z</time>
      </trkpt>
      <trkpt lat="45.78865" lon="5.42937">
        <ele>240.6</ele>
        <time>2023-05-28T08:25:02Z</time>
      </trkpt>
      <trkpt lat="45.78869" lon="5.42932">
        <ele>240.4</ele>
        <time>2023-05-28T08:25:03Z</time>
      </trkpt>
      <trkpt lat="45.78874" lon="5.42928">
        <ele>240.4</ele>
        <time>2023-05-28T08:25:04Z</time>
      </trkpt>
      <trkpt lat="45.78879" lon="5.42922">
        <ele>240.4</ele>
        <time>2023-05-28T08:25:05Z</time>
      </trkpt>
      <trkpt lat="45.78884" lon="5.42917">
        <ele>240.4</ele>
        <time>2023-05-28T08:25:06Z</time>
      </trkpt>
      <trkpt lat="45.78889" lon="5.42912">
        <ele>240.2</ele>
        <time>2023-05-28T08:25:07Z</time>
      </trkpt>
      <trkpt lat="45.78894" lon="5.42907">
        <ele>239.8</ele>
        <time>2023-05-28T08:25:08Z</time>
      </trkpt>
      <trkpt lat="45.78899" lon="5.42901">
        <ele>239.6</ele>
        <time>2023-05-28T08:25:09Z</time>
      </trkpt>
      <trkpt lat="45.78904" lon="5.42897">
        <ele>239.4</ele>
        <time>2023-05-28T08:25:10Z</time>
      </trkpt>
      <trkpt lat="45.7891" lon="5.42891">
        <ele>239.4</ele>
        <time>2023-05-28T08:25:11Z</time>
      </trkpt>
      <trkpt lat="45.78915" lon="5.42886">
        <ele>239.2</ele>
        <time>2023-05-28T08:25:12Z</time>
      </trkpt>
      <trkpt lat="45.7892" lon="5.42881">
        <ele>239.2</ele>
        <time>2023-05-28T08:25:13Z</time>
      </trkpt>
      <trkpt lat="45.78925" lon="5.42876">
        <ele>239.2</ele>
        <time>2023-05-28T08:25:14Z</time>
      </trkpt>
      <trkpt lat="45.78931" lon="5.42871">
        <ele>239</ele>
        <time>2023-05-28T08:25:15Z</time>
      </trkpt>
      <trkpt lat="45.78936" lon="5.42866">
        <ele>239</ele>
        <time>2023-05-28T08:25:16Z</time>
      </trkpt>
      <trkpt lat="45.78941" lon="5.42861">
        <ele>238.8</ele>
        <time>2023-05-28T08:25:17Z</time>
      </trkpt>
      <trkpt lat="45.78946" lon="5.42856">
        <ele>238.8</ele>
        <time>2023-05-28T08:25:18Z</time>
      </trkpt>
      <trkpt lat="45.78951" lon="5.42851">
        <ele>238.8</ele>
        <time>2023-05-28T08:25:19Z</time>
      </trkpt>
      <trkpt lat="45.78955" lon="5.42846">
        <ele>238.8</ele>
        <time>2023-05-28T08:25:20Z</time>
      </trkpt>
      <trkpt lat="45.7896" lon="5.42841">
        <ele>239</ele>
        <time>2023-05-28T08:25:21Z</time>
      </trkpt>
      <trkpt lat="45.78965" lon="5.42836">
        <ele>239</ele>
        <time>2023-05-28T08:25:22Z</time>
      </trkpt>
      <trkpt lat="45.7897" lon="5.4283">
        <ele>239</ele>
        <time>2023-05-28T08:25:23Z</time>
      </trkpt>
      <trkpt lat="45.78975" lon="5.42825">
        <ele>239</ele>
        <time>2023-05-28T08:25:24Z</time>
      </trkpt>
      <trkpt lat="45.7898" lon="5.42819">
        <ele>239</ele>
        <time>2023-05-28T08:25:25Z</time>
      </trkpt>
      <trkpt lat="45.78986" lon="5.42814">
        <ele>239</ele>
        <time>2023-05-28T08:25:26Z</time>
      </trkpt>
      <trkpt lat="45.78991" lon="5.42809">
        <ele>239</ele>
        <time>2023-05-28T08:25:27Z</time>
      </trkpt>
      <trkpt lat="45.78996" lon="5.42803">
        <ele>239.2</ele>
        <time>2023-05-28T08:25:28Z</time>
      </trkpt>
      <trkpt lat="45.79001" lon="5.42797">
        <ele>239.2</ele>
        <time>2023-05-28T08:25:29Z</time>
      </trkpt>
      <trkpt lat="45.79006" lon="5.42792">
        <ele>239.2</ele>
        <time>2023-05-28T08:25:30Z</time>
      </trkpt>
      <trkpt lat="45.79012" lon="5.42786">
        <ele>239.4</ele>
        <time>2023-05-28T08:25:31Z</time>
      </trkpt>
      <trkpt lat="45.79017" lon="5.4278">
        <ele>239.4</ele>
        <time>2023-05-28T08:25:32Z</time>
      </trkpt>
      <trkpt lat="45.79022" lon="5.42774">
        <ele>239.4</ele>
        <time>2023-05-28T08:25:33Z</time>
      </trkpt>
      <trkpt lat="45.79028" lon="5.42768">
        <ele>239.6</ele>
        <time>2023-05-28T08:25:34Z</time>
      </trkpt>
      <trkpt lat="45.79033" lon="5.42762">
        <ele>239.8</ele>
        <time>2023-05-28T08:25:35Z</time>
      </trkpt>
      <trkpt lat="45.79038" lon="5.42756">
        <ele>240</ele>
        <time>2023-05-28T08:25:36Z</time>
      </trkpt>
      <trkpt lat="45.79043" lon="5.4275">
        <ele>240.2</ele>
        <time>2023-05-28T08:25:37Z</time>
      </trkpt>
      <trkpt lat="45.79048" lon="5.42744">
        <ele>240.2</ele>
        <time>2023-05-28T08:25:38Z</time>
      </trkpt>
      <trkpt lat="45.79053" lon="5.42738">
        <ele>240.4</ele>
        <time>2023-05-28T08:25:39Z</time>
      </trkpt>
      <trkpt lat="45.79058" lon="5.42731">
        <ele>240.4</ele>
        <time>2023-05-28T08:25:40Z</time>
      </trkpt>
      <trkpt lat="45.79063" lon="5.42725">
        <ele>240.4</ele>
        <time>2023-05-28T08:25:41Z</time>
      </trkpt>
      <trkpt lat="45.79068" lon="5.42718">
        <ele>240.6</ele>
        <time>2023-05-28T08:25:42Z</time>
      </trkpt>
      <trkpt lat="45.79073" lon="5.42712">
        <ele>240.6</ele>
        <time>2023-05-28T08:25:43Z</time>
      </trkpt>
      <trkpt lat="45.79078" lon="5.42705">
        <ele>240.8</ele>
        <time>2023-05-28T08:25:44Z</time>
      </trkpt>
      <trkpt lat="45.79082" lon="5.42698">
        <ele>241</ele>
        <time>2023-05-28T08:25:45Z</time>
      </trkpt>
      <trkpt lat="45.79087" lon="5.42691">
        <ele>241.2</ele>
        <time>2023-05-28T08:25:46Z</time>
      </trkpt>
      <trkpt lat="45.79091" lon="5.42683">
        <ele>241.4</ele>
        <time>2023-05-28T08:25:47Z</time>
      </trkpt>
      <trkpt lat="45.79095" lon="5.42675">
        <ele>241.4</ele>
        <time>2023-05-28T08:25:48Z</time>
      </trkpt>
      <trkpt lat="45.79099" lon="5.42668">
        <ele>241.6</ele>
        <time>2023-05-28T08:25:49Z</time>
      </trkpt>
      <trkpt lat="45.79103" lon="5.42659">
        <ele>241.6</ele>
        <time>2023-05-28T08:25:50Z</time>
      </trkpt>
      <trkpt lat="45.79107" lon="5.42651">
        <ele>241.8</ele>
        <time>2023-05-28T08:25:51Z</time>
      </trkpt>
      <trkpt lat="45.7911" lon="5.42643">
        <ele>241.8</ele>
        <time>2023-05-28T08:25:52Z</time>
      </trkpt>
      <trkpt lat="45.79113" lon="5.42633">
        <ele>242</ele>
        <time>2023-05-28T08:25:53Z</time>
      </trkpt>
      <trkpt lat="45.79117" lon="5.42624">
        <ele>242</ele>
        <time>2023-05-28T08:25:54Z</time>
      </trkpt>
      <trkpt lat="45.79119" lon="5.42615">
        <ele>242.2</ele>
        <time>2023-05-28T08:25:55Z</time>
      </trkpt>
      <trkpt lat="45.79122" lon="5.42606">
        <ele>242.2</ele>
        <time>2023-05-28T08:25:56Z</time>
      </trkpt>
      <trkpt lat="45.79125" lon="5.42597">
        <ele>242.4</ele>
        <time>2023-05-28T08:25:57Z</time>
      </trkpt>
      <trkpt lat="45.79128" lon="5.42588">
        <ele>242.4</ele>
        <time>2023-05-28T08:25:58Z</time>
      </trkpt>
      <trkpt lat="45.79132" lon="5.42579">
        <ele>242.4</ele>
        <time>2023-05-28T08:25:59Z</time>
      </trkpt>
      <trkpt lat="45.79135" lon="5.4257">
        <ele>242.8</ele>
        <time>2023-05-28T08:26:00Z</time>
      </trkpt>
      <trkpt lat="45.79141" lon="5.42552">
        <ele>243</ele>
        <time>2023-05-28T08:26:02Z</time>
      </trkpt>
      <trkpt lat="45.79145" lon="5.42543">
        <ele>243</ele>
        <time>2023-05-28T08:26:03Z</time>
      </trkpt>
      <trkpt lat="45.79148" lon="5.42535">
        <ele>243</ele>
        <time>2023-05-28T08:26:04Z</time>
      </trkpt>
      <trkpt lat="45.79152" lon="5.42527">
        <ele>243</ele>
        <time>2023-05-28T08:26:05Z</time>
      </trkpt>
      <trkpt lat="45.79155" lon="5.42519">
        <ele>243</ele>
        <time>2023-05-28T08:26:06Z</time>
      </trkpt>
      <trkpt lat="45.79159" lon="5.4251">
        <ele>243</ele>
        <time>2023-05-28T08:26:07Z</time>
      </trkpt>
      <trkpt lat="45.79162" lon="5.42502">
        <ele>243</ele>
        <time>2023-05-28T08:26:08Z</time>
      </trkpt>
      <trkpt lat="45.79166" lon="5.42494">
        <ele>243.2</ele>
        <time>2023-05-28T08:26:09Z</time>
      </trkpt>
      <trkpt lat="45.79169" lon="5.42486">
        <ele>243.2</ele>
        <time>2023-05-28T08:26:10Z</time>
      </trkpt>
      <trkpt lat="45.79172" lon="5.42478">
        <ele>243.2</ele>
        <time>2023-05-28T08:26:11Z</time>
      </trkpt>
      <trkpt lat="45.79178" lon="5.42463">
        <ele>243</ele>
        <time>2023-05-28T08:26:13Z</time>
      </trkpt>
      <trkpt lat="45.79181" lon="5.42455">
        <ele>243</ele>
        <time>2023-05-28T08:26:14Z</time>
      </trkpt>
      <trkpt lat="45.79184" lon="5.42448">
        <ele>243</ele>
        <time>2023-05-28T08:26:15Z</time>
      </trkpt>
      <trkpt lat="45.79186" lon="5.4244">
        <ele>243</ele>
        <time>2023-05-28T08:26:16Z</time>
      </trkpt>
      <trkpt lat="45.79187" lon="5.42432">
        <ele>243</ele>
        <time>2023-05-28T08:26:17Z</time>
      </trkpt>
      <trkpt lat="45.79186" lon="5.42424">
        <ele>243</ele>
        <time>2023-05-28T08:26:18Z</time>
      </trkpt>
      <trkpt lat="45.79185" lon="5.42416">
        <ele>243</ele>
        <time>2023-05-28T08:26:19Z</time>
      </trkpt>
      <trkpt lat="45.79182" lon="5.42408">
        <ele>243</ele>
        <time>2023-05-28T08:26:20Z</time>
      </trkpt>
      <trkpt lat="45.7918" lon="5.424">
        <ele>243</ele>
        <time>2023-05-28T08:26:21Z</time>
      </trkpt>
      <trkpt lat="45.79177" lon="5.42392">
        <ele>243</ele>
        <time>2023-05-28T08:26:22Z</time>
      </trkpt>
      <trkpt lat="45.79174" lon="5.42384">
        <ele>242.8</ele>
        <time>2023-05-28T08:26:23Z</time>
      </trkpt>
      <trkpt lat="45.7917" lon="5.42375">
        <ele>242.8</ele>
        <time>2023-05-28T08:26:24Z</time>
      </trkpt>
      <trkpt lat="45.79167" lon="5.42367">
        <ele>242.6</ele>
        <time>2023-05-28T08:26:25Z</time>
      </trkpt>
      <trkpt lat="45.79163" lon="5.42359">
        <ele>242.4</ele>
        <time>2023-05-28T08:26:26Z</time>
      </trkpt>
      <trkpt lat="45.79159" lon="5.42351">
        <ele>242.4</ele>
        <time>2023-05-28T08:26:27Z</time>
      </trkpt>
      <trkpt lat="45.79156" lon="5.42343">
        <ele>242.2</ele>
        <time>2023-05-28T08:26:28Z</time>
      </trkpt>
      <trkpt lat="45.79152" lon="5.42335">
        <ele>242</ele>
        <time>2023-05-28T08:26:29Z</time>
      </trkpt>
      <trkpt lat="45.79148" lon="5.42327">
        <ele>241.8</ele>
        <time>2023-05-28T08:26:30Z</time>
      </trkpt>
      <trkpt lat="45.79145" lon="5.42319">
        <ele>241.8</ele>
        <time>2023-05-28T08:26:31Z</time>
      </trkpt>
      <trkpt lat="45.79141" lon="5.42311">
        <ele>241.2</ele>
        <time>2023-05-28T08:26:32Z</time>
      </trkpt>
      <trkpt lat="45.79138" lon="5.42303">
        <ele>241</ele>
        <time>2023-05-28T08:26:33Z</time>
      </trkpt>
      <trkpt lat="45.79134" lon="5.42295">
        <ele>240.8</ele>
        <time>2023-05-28T08:26:34Z</time>
      </trkpt>
      <trkpt lat="45.7913" lon="5.42287">
        <ele>240.6</ele>
        <time>2023-05-28T08:26:35Z</time>
      </trkpt>
      <trkpt lat="45.79127" lon="5.4228">
        <ele>240.6</ele>
        <time>2023-05-28T08:26:36Z</time>
      </trkpt>
      <trkpt lat="45.79123" lon="5.42272">
        <ele>240.4</ele>
        <time>2023-05-28T08:26:37Z</time>
      </trkpt>
      <trkpt lat="45.7912" lon="5.42265">
        <ele>240.2</ele>
        <time>2023-05-28T08:26:38Z</time>
      </trkpt>
      <trkpt lat="45.79117" lon="5.42258">
        <ele>240.2</ele>
        <time>2023-05-28T08:26:39Z</time>
      </trkpt>
      <trkpt lat="45.79114" lon="5.42251">
        <ele>240.2</ele>
        <time>2023-05-28T08:26:40Z</time>
      </trkpt>
      <trkpt lat="45.79111" lon="5.42244">
        <ele>240.2</ele>
        <time>2023-05-28T08:26:41Z</time>
      </trkpt>
      <trkpt lat="45.79109" lon="5.42237">
        <ele>240.2</ele>
        <time>2023-05-28T08:26:42Z</time>
      </trkpt>
      <trkpt lat="45.79106" lon="5.4223">
        <ele>240.2</ele>
        <time>2023-05-28T08:26:43Z</time>
      </trkpt>
      <trkpt lat="45.79104" lon="5.42223">
        <ele>240.2</ele>
        <time>2023-05-28T08:26:44Z</time>
      </trkpt>
      <trkpt lat="45.79102" lon="5.42217">
        <ele>240.2</ele>
        <time>2023-05-28T08:26:45Z</time>
      </trkpt>
      <trkpt lat="45.79099" lon="5.42206">
        <ele>240.2</ele>
        <time>2023-05-28T08:26:47Z</time>
      </trkpt>
      <trkpt lat="45.79097" lon="5.422">
        <ele>240.4</ele>
        <time>2023-05-28T08:26:48Z</time>
      </trkpt>
      <trkpt lat="45.79095" lon="5.42194">
        <ele>240.6</ele>
        <time>2023-05-28T08:26:49Z</time>
      </trkpt>
      <trkpt lat="45.79093" lon="5.42189">
        <ele>240.6</ele>
        <time>2023-05-28T08:26:50Z</time>
      </trkpt>
      <trkpt lat="45.79091" lon="5.42183">
        <ele>240.8</ele>
        <time>2023-05-28T08:26:51Z</time>
      </trkpt>
      <trkpt lat="45.7909" lon="5.42177">
        <ele>240.8</ele>
        <time>2023-05-28T08:26:52Z</time>
      </trkpt>
      <trkpt lat="45.79089" lon="5.42171">
        <ele>241</ele>
        <time>2023-05-28T08:26:53Z</time>
      </trkpt>
      <trkpt lat="45.79087" lon="5.42166">
        <ele>241.2</ele>
        <time>2023-05-28T08:26:54Z</time>
      </trkpt>
      <trkpt lat="45.79086" lon="5.4216">
        <ele>241.4</ele>
        <time>2023-05-28T08:26:55Z</time>
      </trkpt>
      <trkpt lat="45.79084" lon="5.42155">
        <ele>241.6</ele>
        <time>2023-05-28T08:26:56Z</time>
      </trkpt>
      <trkpt lat="45.79083" lon="5.42149">
        <ele>241.8</ele>
        <time>2023-05-28T08:26:57Z</time>
      </trkpt>
      <trkpt lat="45.79082" lon="5.42143">
        <ele>242.2</ele>
        <time>2023-05-28T08:26:58Z</time>
      </trkpt>
      <trkpt lat="45.7908" lon="5.42138">
        <ele>242.4</ele>
        <time>2023-05-28T08:26:59Z</time>
      </trkpt>
      <trkpt lat="45.79079" lon="5.42132">
        <ele>242.8</ele>
        <time>2023-05-28T08:27:00Z</time>
      </trkpt>
      <trkpt lat="45.79078" lon="5.42126">
        <ele>243.2</ele>
        <time>2023-05-28T08:27:01Z</time>
      </trkpt>
      <trkpt lat="45.79076" lon="5.4212">
        <ele>243.6</ele>
        <time>2023-05-28T08:27:02Z</time>
      </trkpt>
      <trkpt lat="45.79073" lon="5.42109">
        <ele>244</ele>
        <time>2023-05-28T08:27:04Z</time>
      </trkpt>
      <trkpt lat="45.79072" lon="5.42103">
        <ele>244.2</ele>
        <time>2023-05-28T08:27:05Z</time>
      </trkpt>
      <trkpt lat="45.7907" lon="5.42097">
        <ele>244.2</ele>
        <time>2023-05-28T08:27:06Z</time>
      </trkpt>
      <trkpt lat="45.79069" lon="5.42091">
        <ele>244.4</ele>
        <time>2023-05-28T08:27:07Z</time>
      </trkpt>
      <trkpt lat="45.79068" lon="5.42086">
        <ele>244.4</ele>
        <time>2023-05-28T08:27:08Z</time>
      </trkpt>
      <trkpt lat="45.79067" lon="5.4208">
        <ele>244.6</ele>
        <time>2023-05-28T08:27:09Z</time>
      </trkpt>
      <trkpt lat="45.79066" lon="5.42074">
        <ele>244.8</ele>
        <time>2023-05-28T08:27:10Z</time>
      </trkpt>
      <trkpt lat="45.79066" lon="5.42068">
        <ele>245.2</ele>
        <time>2023-05-28T08:27:11Z</time>
      </trkpt>
      <trkpt lat="45.79065" lon="5.42062">
        <ele>245.4</ele>
        <time>2023-05-28T08:27:12Z</time>
      </trkpt>
      <trkpt lat="45.79063" lon="5.4205">
        <ele>246.2</ele>
        <time>2023-05-28T08:27:14Z</time>
      </trkpt>
      <trkpt lat="45.79062" lon="5.42045">
        <ele>246.4</ele>
        <time>2023-05-28T08:27:15Z</time>
      </trkpt>
      <trkpt lat="45.79061" lon="5.4204">
        <ele>246.6</ele>
        <time>2023-05-28T08:27:16Z</time>
      </trkpt>
      <trkpt lat="45.79059" lon="5.42034">
        <ele>246.8</ele>
        <time>2023-05-28T08:27:17Z</time>
      </trkpt>
      <trkpt lat="45.79058" lon="5.42029">
        <ele>247.2</ele>
        <time>2023-05-28T08:27:18Z</time>
      </trkpt>
      <trkpt lat="45.79056" lon="5.42024">
        <ele>247.4</ele>
        <time>2023-05-28T08:27:19Z</time>
      </trkpt>
      <trkpt lat="45.79054" lon="5.4202">
        <ele>247.6</ele>
        <time>2023-05-28T08:27:20Z</time>
      </trkpt>
      <trkpt lat="45.79048" lon="5.42011">
        <ele>247.8</ele>
        <time>2023-05-28T08:27:22Z</time>
      </trkpt>
      <trkpt lat="45.79045" lon="5.42007">
        <ele>248.2</ele>
        <time>2023-05-28T08:27:23Z</time>
      </trkpt>
      <trkpt lat="45.79042" lon="5.42003">
        <ele>248.2</ele>
        <time>2023-05-28T08:27:24Z</time>
      </trkpt>
      <trkpt lat="45.79038" lon="5.42">
        <ele>248.4</ele>
        <time>2023-05-28T08:27:25Z</time>
      </trkpt>
      <trkpt lat="45.79035" lon="5.41996">
        <ele>248.4</ele>
        <time>2023-05-28T08:27:26Z</time>
      </trkpt>
      <trkpt lat="45.79029" lon="5.41987">
        <ele>248.8</ele>
        <time>2023-05-28T08:27:28Z</time>
      </trkpt>
      <trkpt lat="45.79025" lon="5.41983">
        <ele>248.8</ele>
        <time>2023-05-28T08:27:29Z</time>
      </trkpt>
      <trkpt lat="45.79023" lon="5.41977">
        <ele>249</ele>
        <time>2023-05-28T08:27:30Z</time>
      </trkpt>
      <trkpt lat="45.7902" lon="5.41972">
        <ele>249</ele>
        <time>2023-05-28T08:27:31Z</time>
      </trkpt>
      <trkpt lat="45.79018" lon="5.41966">
        <ele>249</ele>
        <time>2023-05-28T08:27:32Z</time>
      </trkpt>
      <trkpt lat="45.79016" lon="5.4196">
        <ele>249</ele>
        <time>2023-05-28T08:27:33Z</time>
      </trkpt>
      <trkpt lat="45.79014" lon="5.41955">
        <ele>249.2</ele>
        <time>2023-05-28T08:27:34Z</time>
      </trkpt>
      <trkpt lat="45.79012" lon="5.41949">
        <ele>249.2</ele>
        <time>2023-05-28T08:27:35Z</time>
      </trkpt>
      <trkpt lat="45.7901" lon="5.41942">
        <ele>249.2</ele>
        <time>2023-05-28T08:27:36Z</time>
      </trkpt>
      <trkpt lat="45.79009" lon="5.41935">
        <ele>249.4</ele>
        <time>2023-05-28T08:27:37Z</time>
      </trkpt>
      <trkpt lat="45.79006" lon="5.41921">
        <ele>249.6</ele>
        <time>2023-05-28T08:27:39Z</time>
      </trkpt>
      <trkpt lat="45.79006" lon="5.41914">
        <ele>249.8</ele>
        <time>2023-05-28T08:27:40Z</time>
      </trkpt>
      <trkpt lat="45.79006" lon="5.41907">
        <ele>249.8</ele>
        <time>2023-05-28T08:27:41Z</time>
      </trkpt>
      <trkpt lat="45.79007" lon="5.41899">
        <ele>250</ele>
        <time>2023-05-28T08:27:42Z</time>
      </trkpt>
      <trkpt lat="45.79009" lon="5.41885">
        <ele>250.4</ele>
        <time>2023-05-28T08:27:44Z</time>
      </trkpt>
      <trkpt lat="45.79011" lon="5.41878">
        <ele>250.6</ele>
        <time>2023-05-28T08:27:45Z</time>
      </trkpt>
      <trkpt lat="45.79013" lon="5.41871">
        <ele>251</ele>
        <time>2023-05-28T08:27:46Z</time>
      </trkpt>
      <trkpt lat="45.79014" lon="5.41864">
        <ele>251.2</ele>
        <time>2023-05-28T08:27:47Z</time>
      </trkpt>
      <trkpt lat="45.79015" lon="5.41858">
        <ele>251.4</ele>
        <time>2023-05-28T08:27:48Z</time>
      </trkpt>
      <trkpt lat="45.79016" lon="5.41851">
        <ele>251.6</ele>
        <time>2023-05-28T08:27:49Z</time>
      </trkpt>
      <trkpt lat="45.79016" lon="5.41844">
        <ele>251.8</ele>
        <time>2023-05-28T08:27:50Z</time>
      </trkpt>
      <trkpt lat="45.79017" lon="5.41838">
        <ele>252.2</ele>
        <time>2023-05-28T08:27:51Z</time>
      </trkpt>
      <trkpt lat="45.79016" lon="5.41831">
        <ele>252.4</ele>
        <time>2023-05-28T08:27:52Z</time>
      </trkpt>
      <trkpt lat="45.79017" lon="5.41825">
        <ele>252.6</ele>
        <time>2023-05-28T08:27:53Z</time>
      </trkpt>
      <trkpt lat="45.79017" lon="5.41819">
        <ele>252.8</ele>
        <time>2023-05-28T08:27:54Z</time>
      </trkpt>
      <trkpt lat="45.79017" lon="5.41813">
        <ele>253</ele>
        <time>2023-05-28T08:27:55Z</time>
      </trkpt>
      <trkpt lat="45.79018" lon="5.41807">
        <ele>253.2</ele>
        <time>2023-05-28T08:27:56Z</time>
      </trkpt>
      <trkpt lat="45.7902" lon="5.41802">
        <ele>253.6</ele>
        <time>2023-05-28T08:27:57Z</time>
      </trkpt>
      <trkpt lat="45.79022" lon="5.41798">
        <ele>253.8</ele>
        <time>2023-05-28T08:27:58Z</time>
      </trkpt>
      <trkpt lat="45.79025" lon="5.41794">
        <ele>253.8</ele>
        <time>2023-05-28T08:27:59Z</time>
      </trkpt>
      <trkpt lat="45.79029" lon="5.41791">
        <ele>254.4</ele>
        <time>2023-05-28T08:28:00Z</time>
      </trkpt>
      <trkpt lat="45.79032" lon="5.41788">
        <ele>254.6</ele>
        <time>2023-05-28T08:28:01Z</time>
      </trkpt>
      <trkpt lat="45.79036" lon="5.41785">
        <ele>254.8</ele>
        <time>2023-05-28T08:28:02Z</time>
      </trkpt>
      <trkpt lat="45.79039" lon="5.41783">
        <ele>255</ele>
        <time>2023-05-28T08:28:03Z</time>
      </trkpt>
      <trkpt lat="45.79043" lon="5.4178">
        <ele>255.6</ele>
        <time>2023-05-28T08:28:04Z</time>
      </trkpt>
      <trkpt lat="45.79048" lon="5.41778">
        <ele>255.6</ele>
        <time>2023-05-28T08:28:05Z</time>
      </trkpt>
      <trkpt lat="45.79052" lon="5.41777">
        <ele>256</ele>
        <time>2023-05-28T08:28:06Z</time>
      </trkpt>
      <trkpt lat="45.79057" lon="5.41775">
        <ele>256.2</ele>
        <time>2023-05-28T08:28:07Z</time>
      </trkpt>
      <trkpt lat="45.79061" lon="5.41773">
        <ele>256.2</ele>
        <time>2023-05-28T08:28:08Z</time>
      </trkpt>
      <trkpt lat="45.79066" lon="5.4177">
        <ele>256.4</ele>
        <time>2023-05-28T08:28:09Z</time>
      </trkpt>
      <trkpt lat="45.79071" lon="5.41768">
        <ele>256.6</ele>
        <time>2023-05-28T08:28:10Z</time>
      </trkpt>
      <trkpt lat="45.79075" lon="5.41766">
        <ele>257</ele>
        <time>2023-05-28T08:28:11Z</time>
      </trkpt>
      <trkpt lat="45.7908" lon="5.41764">
        <ele>257</ele>
        <time>2023-05-28T08:28:12Z</time>
      </trkpt>
      <trkpt lat="45.79084" lon="5.41761">
        <ele>257.2</ele>
        <time>2023-05-28T08:28:13Z</time>
      </trkpt>
      <trkpt lat="45.79089" lon="5.41758">
        <ele>257.4</ele>
        <time>2023-05-28T08:28:14Z</time>
      </trkpt>
      <trkpt lat="45.79094" lon="5.41754">
        <ele>257.4</ele>
        <time>2023-05-28T08:28:15Z</time>
      </trkpt>
      <trkpt lat="45.79098" lon="5.41749">
        <ele>257.6</ele>
        <time>2023-05-28T08:28:16Z</time>
      </trkpt>
      <trkpt lat="45.79102" lon="5.41744">
        <ele>257.6</ele>
        <time>2023-05-28T08:28:17Z</time>
      </trkpt>
      <trkpt lat="45.79106" lon="5.41739">
        <ele>257.8</ele>
        <time>2023-05-28T08:28:18Z</time>
      </trkpt>
      <trkpt lat="45.7911" lon="5.41733">
        <ele>258</ele>
        <time>2023-05-28T08:28:19Z</time>
      </trkpt>
      <trkpt lat="45.79115" lon="5.41728">
        <ele>258.2</ele>
        <time>2023-05-28T08:28:20Z</time>
      </trkpt>
      <trkpt lat="45.79119" lon="5.41723">
        <ele>258.2</ele>
        <time>2023-05-28T08:28:21Z</time>
      </trkpt>
      <trkpt lat="45.79124" lon="5.41718">
        <ele>258.4</ele>
        <time>2023-05-28T08:28:22Z</time>
      </trkpt>
      <trkpt lat="45.79128" lon="5.41714">
        <ele>258.6</ele>
        <time>2023-05-28T08:28:23Z</time>
      </trkpt>
      <trkpt lat="45.79132" lon="5.41709">
        <ele>258.6</ele>
        <time>2023-05-28T08:28:24Z</time>
      </trkpt>
      <trkpt lat="45.79137" lon="5.41706">
        <ele>258.6</ele>
        <time>2023-05-28T08:28:25Z</time>
      </trkpt>
      <trkpt lat="45.79142" lon="5.41704">
        <ele>258.6</ele>
        <time>2023-05-28T08:28:26Z</time>
      </trkpt>
      <trkpt lat="45.79147" lon="5.41702">
        <ele>258.8</ele>
        <time>2023-05-28T08:28:27Z</time>
      </trkpt>
      <trkpt lat="45.79151" lon="5.417">
        <ele>258.8</ele>
        <time>2023-05-28T08:28:28Z</time>
      </trkpt>
      <trkpt lat="45.79156" lon="5.41698">
        <ele>259</ele>
        <time>2023-05-28T08:28:29Z</time>
      </trkpt>
      <trkpt lat="45.79161" lon="5.41696">
        <ele>259.2</ele>
        <time>2023-05-28T08:28:30Z</time>
      </trkpt>
      <trkpt lat="45.79165" lon="5.41694">
        <ele>259.2</ele>
        <time>2023-05-28T08:28:31Z</time>
      </trkpt>
      <trkpt lat="45.7917" lon="5.41692">
        <ele>259.2</ele>
        <time>2023-05-28T08:28:32Z</time>
      </trkpt>
      <trkpt lat="45.79174" lon="5.4169">
        <ele>259.4</ele>
        <time>2023-05-28T08:28:33Z</time>
      </trkpt>
      <trkpt lat="45.79178" lon="5.41688">
        <ele>259.4</ele>
        <time>2023-05-28T08:28:34Z</time>
      </trkpt>
      <trkpt lat="45.79182" lon="5.41686">
        <ele>259.4</ele>
        <time>2023-05-28T08:28:35Z</time>
      </trkpt>
      <trkpt lat="45.79187" lon="5.41684">
        <ele>259.4</ele>
        <time>2023-05-28T08:28:36Z</time>
      </trkpt>
      <trkpt lat="45.79191" lon="5.41681">
        <ele>259.6</ele>
        <time>2023-05-28T08:28:37Z</time>
      </trkpt>
      <trkpt lat="45.79195" lon="5.41679">
        <ele>259.6</ele>
        <time>2023-05-28T08:28:38Z</time>
      </trkpt>
      <trkpt lat="45.79199" lon="5.41676">
        <ele>259.6</ele>
        <time>2023-05-28T08:28:39Z</time>
      </trkpt>
      <trkpt lat="45.79203" lon="5.41673">
        <ele>259.6</ele>
        <time>2023-05-28T08:28:40Z</time>
      </trkpt>
      <trkpt lat="45.79208" lon="5.41671">
        <ele>259.6</ele>
        <time>2023-05-28T08:28:41Z</time>
      </trkpt>
      <trkpt lat="45.79212" lon="5.41668">
        <ele>259.6</ele>
        <time>2023-05-28T08:28:42Z</time>
      </trkpt>
      <trkpt lat="45.79216" lon="5.41666">
        <ele>259.6</ele>
        <time>2023-05-28T08:28:43Z</time>
      </trkpt>
      <trkpt lat="45.79221" lon="5.41663">
        <ele>259.6</ele>
        <time>2023-05-28T08:28:44Z</time>
      </trkpt>
      <trkpt lat="45.79225" lon="5.4166">
        <ele>259.8</ele>
        <time>2023-05-28T08:28:45Z</time>
      </trkpt>
      <trkpt lat="45.79229" lon="5.41657">
        <ele>260</ele>
        <time>2023-05-28T08:28:46Z</time>
      </trkpt>
      <trkpt lat="45.79233" lon="5.41654">
        <ele>260</ele>
        <time>2023-05-28T08:28:47Z</time>
      </trkpt>
      <trkpt lat="45.79237" lon="5.4165">
        <ele>260</ele>
        <time>2023-05-28T08:28:48Z</time>
      </trkpt>
      <trkpt lat="45.79241" lon="5.41647">
        <ele>260</ele>
        <time>2023-05-28T08:28:49Z</time>
      </trkpt>
      <trkpt lat="45.79246" lon="5.41644">
        <ele>260.4</ele>
        <time>2023-05-28T08:28:50Z</time>
      </trkpt>
      <trkpt lat="45.7925" lon="5.41641">
        <ele>260.4</ele>
        <time>2023-05-28T08:28:51Z</time>
      </trkpt>
      <trkpt lat="45.79254" lon="5.41638">
        <ele>260.6</ele>
        <time>2023-05-28T08:28:52Z</time>
      </trkpt>
      <trkpt lat="45.79259" lon="5.41635">
        <ele>260.6</ele>
        <time>2023-05-28T08:28:53Z</time>
      </trkpt>
      <trkpt lat="45.79263" lon="5.41632">
        <ele>260.8</ele>
        <time>2023-05-28T08:28:54Z</time>
      </trkpt>
      <trkpt lat="45.79267" lon="5.41629">
        <ele>261</ele>
        <time>2023-05-28T08:28:55Z</time>
      </trkpt>
      <trkpt lat="45.79272" lon="5.41627">
        <ele>261</ele>
        <time>2023-05-28T08:28:56Z</time>
      </trkpt>
      <trkpt lat="45.79277" lon="5.41624">
        <ele>261.2</ele>
        <time>2023-05-28T08:28:57Z</time>
      </trkpt>
      <trkpt lat="45.79282" lon="5.41621">
        <ele>261.2</ele>
        <time>2023-05-28T08:28:58Z</time>
      </trkpt>
      <trkpt lat="45.79288" lon="5.41618">
        <ele>261.4</ele>
        <time>2023-05-28T08:28:59Z</time>
      </trkpt>
      <trkpt lat="45.79294" lon="5.41614">
        <ele>261.4</ele>
        <time>2023-05-28T08:29:00Z</time>
      </trkpt>
      <trkpt lat="45.793" lon="5.41611">
        <ele>261.6</ele>
        <time>2023-05-28T08:29:01Z</time>
      </trkpt>
      <trkpt lat="45.79307" lon="5.41608">
        <ele>261.6</ele>
        <time>2023-05-28T08:29:02Z</time>
      </trkpt>
      <trkpt lat="45.79314" lon="5.41605">
        <ele>261.6</ele>
        <time>2023-05-28T08:29:03Z</time>
      </trkpt>
      <trkpt lat="45.79322" lon="5.41602">
        <ele>261.6</ele>
        <time>2023-05-28T08:29:04Z</time>
      </trkpt>
      <trkpt lat="45.7933" lon="5.41598">
        <ele>261.8</ele>
        <time>2023-05-28T08:29:05Z</time>
      </trkpt>
      <trkpt lat="45.79338" lon="5.41594">
        <ele>261.8</ele>
        <time>2023-05-28T08:29:06Z</time>
      </trkpt>
      <trkpt lat="45.79346" lon="5.41589">
        <ele>261.8</ele>
        <time>2023-05-28T08:29:07Z</time>
      </trkpt>
      <trkpt lat="45.79355" lon="5.41585">
        <ele>261.8</ele>
        <time>2023-05-28T08:29:08Z</time>
      </trkpt>
      <trkpt lat="45.79364" lon="5.4158">
        <ele>261.8</ele>
        <time>2023-05-28T08:29:09Z</time>
      </trkpt>
      <trkpt lat="45.79373" lon="5.41575">
        <ele>261.6</ele>
        <time>2023-05-28T08:29:10Z</time>
      </trkpt>
      <trkpt lat="45.79382" lon="5.4157">
        <ele>261.6</ele>
        <time>2023-05-28T08:29:11Z</time>
      </trkpt>
      <trkpt lat="45.79392" lon="5.41565">
        <ele>261.6</ele>
        <time>2023-05-28T08:29:12Z</time>
      </trkpt>
      <trkpt lat="45.79401" lon="5.41561">
        <ele>261.4</ele>
        <time>2023-05-28T08:29:13Z</time>
      </trkpt>
      <trkpt lat="45.79411" lon="5.41558">
        <ele>261.4</ele>
        <time>2023-05-28T08:29:14Z</time>
      </trkpt>
      <trkpt lat="45.7942" lon="5.41557">
        <ele>261.2</ele>
        <time>2023-05-28T08:29:15Z</time>
      </trkpt>
      <trkpt lat="45.79438" lon="5.41555">
        <ele>260.6</ele>
        <time>2023-05-28T08:29:17Z</time>
      </trkpt>
      <trkpt lat="45.79447" lon="5.41554">
        <ele>260.2</ele>
        <time>2023-05-28T08:29:18Z</time>
      </trkpt>
      <trkpt lat="45.79455" lon="5.41554">
        <ele>260.2</ele>
        <time>2023-05-28T08:29:19Z</time>
      </trkpt>
      <trkpt lat="45.79463" lon="5.41554">
        <ele>260</ele>
        <time>2023-05-28T08:29:20Z</time>
      </trkpt>
      <trkpt lat="45.79472" lon="5.41554">
        <ele>259.8</ele>
        <time>2023-05-28T08:29:21Z</time>
      </trkpt>
      <trkpt lat="45.7948" lon="5.41553">
        <ele>259.6</ele>
        <time>2023-05-28T08:29:22Z</time>
      </trkpt>
      <trkpt lat="45.79488" lon="5.41552">
        <ele>259.4</ele>
        <time>2023-05-28T08:29:23Z</time>
      </trkpt>
      <trkpt lat="45.79495" lon="5.41548">
        <ele>259</ele>
        <time>2023-05-28T08:29:24Z</time>
      </trkpt>
      <trkpt lat="45.79501" lon="5.41544">
        <ele>258.8</ele>
        <time>2023-05-28T08:29:25Z</time>
      </trkpt>
      <trkpt lat="45.79508" lon="5.41538">
        <ele>258.6</ele>
        <time>2023-05-28T08:29:26Z</time>
      </trkpt>
      <trkpt lat="45.79514" lon="5.41532">
        <ele>258.6</ele>
        <time>2023-05-28T08:29:27Z</time>
      </trkpt>
      <trkpt lat="45.79521" lon="5.41525">
        <ele>258.4</ele>
        <time>2023-05-28T08:29:28Z</time>
      </trkpt>
      <trkpt lat="45.79525" lon="5.41519">
        <ele>258.4</ele>
        <time>2023-05-28T08:29:29Z</time>
      </trkpt>
      <trkpt lat="45.79531" lon="5.41514">
        <ele>258.4</ele>
        <time>2023-05-28T08:29:30Z</time>
      </trkpt>
      <trkpt lat="45.79535" lon="5.41511">
        <ele>258.2</ele>
        <time>2023-05-28T08:29:31Z</time>
      </trkpt>
      <trkpt lat="45.79539" lon="5.41509">
        <ele>258.2</ele>
        <time>2023-05-28T08:29:32Z</time>
      </trkpt>
      <trkpt lat="45.79542" lon="5.41507">
        <ele>258.2</ele>
        <time>2023-05-28T08:29:33Z</time>
      </trkpt>
      <trkpt lat="45.79544" lon="5.41506">
        <ele>258</ele>
        <time>2023-05-28T08:29:34Z</time>
      </trkpt>
      <trkpt lat="45.79545" lon="5.41504">
        <ele>258</ele>
        <time>2023-05-28T08:29:35Z</time>
      </trkpt>
      <trkpt lat="45.79545" lon="5.415">
        <ele>257.8</ele>
        <time>2023-05-28T08:29:36Z</time>
      </trkpt>
      <trkpt lat="45.79545" lon="5.41497">
        <ele>257.6</ele>
        <time>2023-05-28T08:29:37Z</time>
      </trkpt>
      <trkpt lat="45.79542" lon="5.41486">
        <ele>257.4</ele>
        <time>2023-05-28T08:29:39Z</time>
      </trkpt>
      <trkpt lat="45.79541" lon="5.41481">
        <ele>257.4</ele>
        <time>2023-05-28T08:29:40Z</time>
      </trkpt>
      <trkpt lat="45.79539" lon="5.41475">
        <ele>257.4</ele>
        <time>2023-05-28T08:29:41Z</time>
      </trkpt>
      <trkpt lat="45.79537" lon="5.4147">
        <ele>257.4</ele>
        <time>2023-05-28T08:29:42Z</time>
      </trkpt>
      <trkpt lat="45.79535" lon="5.41465">
        <ele>257.2</ele>
        <time>2023-05-28T08:29:43Z</time>
      </trkpt>
      <trkpt lat="45.79533" lon="5.41459">
        <ele>257.2</ele>
        <time>2023-05-28T08:29:44Z</time>
      </trkpt>
      <trkpt lat="45.7953" lon="5.41453">
        <ele>256.8</ele>
        <time>2023-05-28T08:29:45Z</time>
      </trkpt>
      <trkpt lat="45.79528" lon="5.41447">
        <ele>256.6</ele>
        <time>2023-05-28T08:29:46Z</time>
      </trkpt>
      <trkpt lat="45.79526" lon="5.41441">
        <ele>256.4</ele>
        <time>2023-05-28T08:29:47Z</time>
      </trkpt>
      <trkpt lat="45.79524" lon="5.41435">
        <ele>256.2</ele>
        <time>2023-05-28T08:29:48Z</time>
      </trkpt>
      <trkpt lat="45.79522" lon="5.41428">
        <ele>256</ele>
        <time>2023-05-28T08:29:49Z</time>
      </trkpt>
      <trkpt lat="45.7952" lon="5.41422">
        <ele>255.6</ele>
        <time>2023-05-28T08:29:50Z</time>
      </trkpt>
      <trkpt lat="45.79518" lon="5.41415">
        <ele>255.6</ele>
        <time>2023-05-28T08:29:51Z</time>
      </trkpt>
      <trkpt lat="45.79515" lon="5.41408">
        <ele>255.4</ele>
        <time>2023-05-28T08:29:52Z</time>
      </trkpt>
      <trkpt lat="45.79513" lon="5.41402">
        <ele>255.2</ele>
        <time>2023-05-28T08:29:53Z</time>
      </trkpt>
      <trkpt lat="45.79511" lon="5.41395">
        <ele>255</ele>
        <time>2023-05-28T08:29:54Z</time>
      </trkpt>
      <trkpt lat="45.79508" lon="5.4139">
        <ele>255</ele>
        <time>2023-05-28T08:29:55Z</time>
      </trkpt>
      <trkpt lat="45.79505" lon="5.41384">
        <ele>254.8</ele>
        <time>2023-05-28T08:29:56Z</time>
      </trkpt>
      <trkpt lat="45.79502" lon="5.41378">
        <ele>254.8</ele>
        <time>2023-05-28T08:29:57Z</time>
      </trkpt>
      <trkpt lat="45.79498" lon="5.41373">
        <ele>254.8</ele>
        <time>2023-05-28T08:29:58Z</time>
      </trkpt>
      <trkpt lat="45.79494" lon="5.41369">
        <ele>254.8</ele>
        <time>2023-05-28T08:29:59Z</time>
      </trkpt>
      <trkpt lat="45.7949" lon="5.41364">
        <ele>254.8</ele>
        <time>2023-05-28T08:30:00Z</time>
      </trkpt>
      <trkpt lat="45.79486" lon="5.4136">
        <ele>254.8</ele>
        <time>2023-05-28T08:30:01Z</time>
      </trkpt>
      <trkpt lat="45.79483" lon="5.41357">
        <ele>254.8</ele>
        <time>2023-05-28T08:30:02Z</time>
      </trkpt>
      <trkpt lat="45.79479" lon="5.41353">
        <ele>254.8</ele>
        <time>2023-05-28T08:30:03Z</time>
      </trkpt>
      <trkpt lat="45.79475" lon="5.41349">
        <ele>254.8</ele>
        <time>2023-05-28T08:30:04Z</time>
      </trkpt>
      <trkpt lat="45.79471" lon="5.41345">
        <ele>254.8</ele>
        <time>2023-05-28T08:30:05Z</time>
      </trkpt>
      <trkpt lat="45.79467" lon="5.41341">
        <ele>254.8</ele>
        <time>2023-05-28T08:30:06Z</time>
      </trkpt>
      <trkpt lat="45.79463" lon="5.41337">
        <ele>254.8</ele>
        <time>2023-05-28T08:30:07Z</time>
      </trkpt>
      <trkpt lat="45.79458" lon="5.41332">
        <ele>254.8</ele>
        <time>2023-05-28T08:30:08Z</time>
      </trkpt>
      <trkpt lat="45.79455" lon="5.41329">
        <ele>254.8</ele>
        <time>2023-05-28T08:30:09Z</time>
      </trkpt>
      <trkpt lat="45.79451" lon="5.41325">
        <ele>255</ele>
        <time>2023-05-28T08:30:10Z</time>
      </trkpt>
      <trkpt lat="45.79447" lon="5.41321">
        <ele>255</ele>
        <time>2023-05-28T08:30:11Z</time>
      </trkpt>
      <trkpt lat="45.79443" lon="5.41317">
        <ele>255</ele>
        <time>2023-05-28T08:30:12Z</time>
      </trkpt>
      <trkpt lat="45.79439" lon="5.41313">
        <ele>255</ele>
        <time>2023-05-28T08:30:13Z</time>
      </trkpt>
      <trkpt lat="45.79434" lon="5.41309">
        <ele>255</ele>
        <time>2023-05-28T08:30:14Z</time>
      </trkpt>
      <trkpt lat="45.7943" lon="5.41305">
        <ele>255</ele>
        <time>2023-05-28T08:30:15Z</time>
      </trkpt>
      <trkpt lat="45.79426" lon="5.41301">
        <ele>255</ele>
        <time>2023-05-28T08:30:16Z</time>
      </trkpt>
      <trkpt lat="45.79423" lon="5.41297">
        <ele>255</ele>
        <time>2023-05-28T08:30:17Z</time>
      </trkpt>
      <trkpt lat="45.79419" lon="5.41294">
        <ele>255</ele>
        <time>2023-05-28T08:30:18Z</time>
      </trkpt>
      <trkpt lat="45.79415" lon="5.4129">
        <ele>255.2</ele>
        <time>2023-05-28T08:30:19Z</time>
      </trkpt>
      <trkpt lat="45.79412" lon="5.41286">
        <ele>255.2</ele>
        <time>2023-05-28T08:30:20Z</time>
      </trkpt>
      <trkpt lat="45.79408" lon="5.41282">
        <ele>255.2</ele>
        <time>2023-05-28T08:30:21Z</time>
      </trkpt>
      <trkpt lat="45.79401" lon="5.41275">
        <ele>255.2</ele>
        <time>2023-05-28T08:30:23Z</time>
      </trkpt>
      <trkpt lat="45.79398" lon="5.41272">
        <ele>255.4</ele>
        <time>2023-05-28T08:30:24Z</time>
      </trkpt>
      <trkpt lat="45.79395" lon="5.41268">
        <ele>255.6</ele>
        <time>2023-05-28T08:30:25Z</time>
      </trkpt>
      <trkpt lat="45.79391" lon="5.41264">
        <ele>255.8</ele>
        <time>2023-05-28T08:30:26Z</time>
      </trkpt>
      <trkpt lat="45.79388" lon="5.41261">
        <ele>256</ele>
        <time>2023-05-28T08:30:27Z</time>
      </trkpt>
      <trkpt lat="45.79385" lon="5.41257">
        <ele>256</ele>
        <time>2023-05-28T08:30:28Z</time>
      </trkpt>
      <trkpt lat="45.79382" lon="5.41254">
        <ele>256</ele>
        <time>2023-05-28T08:30:29Z</time>
      </trkpt>
      <trkpt lat="45.79378" lon="5.4125">
        <ele>256.2</ele>
        <time>2023-05-28T08:30:30Z</time>
      </trkpt>
      <trkpt lat="45.79375" lon="5.41246">
        <ele>256.4</ele>
        <time>2023-05-28T08:30:31Z</time>
      </trkpt>
      <trkpt lat="45.79372" lon="5.41242">
        <ele>256.4</ele>
        <time>2023-05-28T08:30:32Z</time>
      </trkpt>
      <trkpt lat="45.79369" lon="5.41239">
        <ele>256.6</ele>
        <time>2023-05-28T08:30:33Z</time>
      </trkpt>
      <trkpt lat="45.79366" lon="5.41235">
        <ele>256.6</ele>
        <time>2023-05-28T08:30:34Z</time>
      </trkpt>
      <trkpt lat="45.79363" lon="5.4123">
        <ele>256.8</ele>
        <time>2023-05-28T08:30:35Z</time>
      </trkpt>
      <trkpt lat="45.79361" lon="5.41226">
        <ele>256.8</ele>
        <time>2023-05-28T08:30:36Z</time>
      </trkpt>
      <trkpt lat="45.79358" lon="5.41221">
        <ele>256.8</ele>
        <time>2023-05-28T08:30:37Z</time>
      </trkpt>
      <trkpt lat="45.79357" lon="5.41216">
        <ele>257</ele>
        <time>2023-05-28T08:30:38Z</time>
      </trkpt>
      <trkpt lat="45.79356" lon="5.41211">
        <ele>257</ele>
        <time>2023-05-28T08:30:39Z</time>
      </trkpt>
      <trkpt lat="45.79355" lon="5.41205">
        <ele>257.2</ele>
        <time>2023-05-28T08:30:40Z</time>
      </trkpt>
      <trkpt lat="45.79354" lon="5.41199">
        <ele>257.4</ele>
        <time>2023-05-28T08:30:41Z</time>
      </trkpt>
      <trkpt lat="45.79354" lon="5.41194">
        <ele>257.6</ele>
        <time>2023-05-28T08:30:42Z</time>
      </trkpt>
      <trkpt lat="45.79354" lon="5.41188">
        <ele>258</ele>
        <time>2023-05-28T08:30:43Z</time>
      </trkpt>
      <trkpt lat="45.79353" lon="5.41183">
        <ele>258.2</ele>
        <time>2023-05-28T08:30:44Z</time>
      </trkpt>
      <trkpt lat="45.79354" lon="5.41177">
        <ele>258.4</ele>
        <time>2023-05-28T08:30:45Z</time>
      </trkpt>
      <trkpt lat="45.79356" lon="5.41171">
        <ele>258.4</ele>
        <time>2023-05-28T08:30:46Z</time>
      </trkpt>
      <trkpt lat="45.79357" lon="5.41165">
        <ele>258.6</ele>
        <time>2023-05-28T08:30:47Z</time>
      </trkpt>
      <trkpt lat="45.79359" lon="5.41159">
        <ele>258.6</ele>
        <time>2023-05-28T08:30:48Z</time>
      </trkpt>
      <trkpt lat="45.7936" lon="5.41154">
        <ele>259</ele>
        <time>2023-05-28T08:30:49Z</time>
      </trkpt>
      <trkpt lat="45.79361" lon="5.41148">
        <ele>259.6</ele>
        <time>2023-05-28T08:30:50Z</time>
      </trkpt>
      <trkpt lat="45.79362" lon="5.41142">
        <ele>260</ele>
        <time>2023-05-28T08:30:51Z</time>
      </trkpt>
      <trkpt lat="45.79363" lon="5.41136">
        <ele>260.4</ele>
        <time>2023-05-28T08:30:52Z</time>
      </trkpt>
      <trkpt lat="45.79366" lon="5.41125">
        <ele>260.8</ele>
        <time>2023-05-28T08:30:54Z</time>
      </trkpt>
      <trkpt lat="45.79368" lon="5.41119">
        <ele>261.2</ele>
        <time>2023-05-28T08:30:55Z</time>
      </trkpt>
      <trkpt lat="45.79369" lon="5.41113">
        <ele>261.6</ele>
        <time>2023-05-28T08:30:56Z</time>
      </trkpt>
      <trkpt lat="45.79371" lon="5.41107">
        <ele>262.2</ele>
        <time>2023-05-28T08:30:57Z</time>
      </trkpt>
      <trkpt lat="45.79372" lon="5.41101">
        <ele>262.4</ele>
        <time>2023-05-28T08:30:58Z</time>
      </trkpt>
      <trkpt lat="45.79374" lon="5.41095">
        <ele>263</ele>
        <time>2023-05-28T08:30:59Z</time>
      </trkpt>
      <trkpt lat="45.79376" lon="5.41089">
        <ele>263.2</ele>
        <time>2023-05-28T08:31:00Z</time>
      </trkpt>
      <trkpt lat="45.79377" lon="5.41083">
        <ele>263.6</ele>
        <time>2023-05-28T08:31:01Z</time>
      </trkpt>
      <trkpt lat="45.7938" lon="5.41072">
        <ele>264.6</ele>
        <time>2023-05-28T08:31:03Z</time>
      </trkpt>
      <trkpt lat="45.79381" lon="5.41066">
        <ele>265</ele>
        <time>2023-05-28T08:31:04Z</time>
      </trkpt>
      <trkpt lat="45.79382" lon="5.41061">
        <ele>265.6</ele>
        <time>2023-05-28T08:31:05Z</time>
      </trkpt>
      <trkpt lat="45.79383" lon="5.41055">
        <ele>266</ele>
        <time>2023-05-28T08:31:06Z</time>
      </trkpt>
      <trkpt lat="45.79385" lon="5.4105">
        <ele>266.2</ele>
        <time>2023-05-28T08:31:07Z</time>
      </trkpt>
      <trkpt lat="45.79386" lon="5.41044">
        <ele>266.6</ele>
        <time>2023-05-28T08:31:08Z</time>
      </trkpt>
      <trkpt lat="45.79388" lon="5.41038">
        <ele>266.8</ele>
        <time>2023-05-28T08:31:09Z</time>
      </trkpt>
      <trkpt lat="45.79389" lon="5.41032">
        <ele>267.4</ele>
        <time>2023-05-28T08:31:10Z</time>
      </trkpt>
      <trkpt lat="45.79391" lon="5.41027">
        <ele>267.6</ele>
        <time>2023-05-28T08:31:11Z</time>
      </trkpt>
      <trkpt lat="45.79392" lon="5.41021">
        <ele>268.4</ele>
        <time>2023-05-28T08:31:12Z</time>
      </trkpt>
      <trkpt lat="45.79395" lon="5.41011">
        <ele>269.2</ele>
        <time>2023-05-28T08:31:14Z</time>
      </trkpt>
      <trkpt lat="45.79397" lon="5.41005">
        <ele>269.6</ele>
        <time>2023-05-28T08:31:15Z</time>
      </trkpt>
      <trkpt lat="45.79397" lon="5.40999">
        <ele>269.8</ele>
        <time>2023-05-28T08:31:16Z</time>
      </trkpt>
      <trkpt lat="45.79397" lon="5.40994">
        <ele>270.4</ele>
        <time>2023-05-28T08:31:17Z</time>
      </trkpt>
      <trkpt lat="45.79396" lon="5.40988">
        <ele>270.8</ele>
        <time>2023-05-28T08:31:18Z</time>
      </trkpt>
      <trkpt lat="45.79394" lon="5.40983">
        <ele>271</ele>
        <time>2023-05-28T08:31:19Z</time>
      </trkpt>
      <trkpt lat="45.7939" lon="5.4098">
        <ele>271.2</ele>
        <time>2023-05-28T08:31:20Z</time>
      </trkpt>
      <trkpt lat="45.79386" lon="5.40978">
        <ele>271.4</ele>
        <time>2023-05-28T08:31:21Z</time>
      </trkpt>
      <trkpt lat="45.79377" lon="5.40971">
        <ele>271.8</ele>
        <time>2023-05-28T08:31:23Z</time>
      </trkpt>
      <trkpt lat="45.79373" lon="5.40968">
        <ele>272.2</ele>
        <time>2023-05-28T08:31:24Z</time>
      </trkpt>
      <trkpt lat="45.79368" lon="5.40963">
        <ele>272.4</ele>
        <time>2023-05-28T08:31:25Z</time>
      </trkpt>
      <trkpt lat="45.79364" lon="5.40959">
        <ele>272.6</ele>
        <time>2023-05-28T08:31:26Z</time>
      </trkpt>
      <trkpt lat="45.7936" lon="5.40955">
        <ele>272.8</ele>
        <time>2023-05-28T08:31:27Z</time>
      </trkpt>
      <trkpt lat="45.79356" lon="5.40951">
        <ele>273</ele>
        <time>2023-05-28T08:31:28Z</time>
      </trkpt>
      <trkpt lat="45.79351" lon="5.40947">
        <ele>273.2</ele>
        <time>2023-05-28T08:31:29Z</time>
      </trkpt>
      <trkpt lat="45.79343" lon="5.40938">
        <ele>273.2</ele>
        <time>2023-05-28T08:31:31Z</time>
      </trkpt>
      <trkpt lat="45.7934" lon="5.40935">
        <ele>273.2</ele>
        <time>2023-05-28T08:31:32Z</time>
      </trkpt>
      <trkpt lat="45.79335" lon="5.4093">
        <ele>273.2</ele>
        <time>2023-05-28T08:31:33Z</time>
      </trkpt>
      <trkpt lat="45.79331" lon="5.40925">
        <ele>273.2</ele>
        <time>2023-05-28T08:31:34Z</time>
      </trkpt>
      <trkpt lat="45.79327" lon="5.40921">
        <ele>273.2</ele>
        <time>2023-05-28T08:31:35Z</time>
      </trkpt>
      <trkpt lat="45.79319" lon="5.40911">
        <ele>273</ele>
        <time>2023-05-28T08:31:37Z</time>
      </trkpt>
      <trkpt lat="45.79315" lon="5.40905">
        <ele>273</ele>
        <time>2023-05-28T08:31:38Z</time>
      </trkpt>
      <trkpt lat="45.79311" lon="5.40901">
        <ele>273</ele>
        <time>2023-05-28T08:31:39Z</time>
      </trkpt>
      <trkpt lat="45.79307" lon="5.40896">
        <ele>273</ele>
        <time>2023-05-28T08:31:40Z</time>
      </trkpt>
      <trkpt lat="45.79304" lon="5.40891">
        <ele>272.8</ele>
        <time>2023-05-28T08:31:41Z</time>
      </trkpt>
      <trkpt lat="45.793" lon="5.40886">
        <ele>272.8</ele>
        <time>2023-05-28T08:31:42Z</time>
      </trkpt>
      <trkpt lat="45.79296" lon="5.40881">
        <ele>272.8</ele>
        <time>2023-05-28T08:31:43Z</time>
      </trkpt>
      <trkpt lat="45.79293" lon="5.40875">
        <ele>272.8</ele>
        <time>2023-05-28T08:31:44Z</time>
      </trkpt>
      <trkpt lat="45.7929" lon="5.40869">
        <ele>272.8</ele>
        <time>2023-05-28T08:31:45Z</time>
      </trkpt>
      <trkpt lat="45.79287" lon="5.40863">
        <ele>272.8</ele>
        <time>2023-05-28T08:31:46Z</time>
      </trkpt>
      <trkpt lat="45.79283" lon="5.40857">
        <ele>272.8</ele>
        <time>2023-05-28T08:31:47Z</time>
      </trkpt>
      <trkpt lat="45.7928" lon="5.40852">
        <ele>272.8</ele>
        <time>2023-05-28T08:31:48Z</time>
      </trkpt>
      <trkpt lat="45.79277" lon="5.40846">
        <ele>272.8</ele>
        <time>2023-05-28T08:31:49Z</time>
      </trkpt>
      <trkpt lat="45.79274" lon="5.40841">
        <ele>272.8</ele>
        <time>2023-05-28T08:31:50Z</time>
      </trkpt>
      <trkpt lat="45.7927" lon="5.40836">
        <ele>272.8</ele>
        <time>2023-05-28T08:31:51Z</time>
      </trkpt>
      <trkpt lat="45.79267" lon="5.40832">
        <ele>272.8</ele>
        <time>2023-05-28T08:31:52Z</time>
      </trkpt>
      <trkpt lat="45.79259" lon="5.40823">
        <ele>272.8</ele>
        <time>2023-05-28T08:31:54Z</time>
      </trkpt>
      <trkpt lat="45.79255" lon="5.40819">
        <ele>272.8</ele>
        <time>2023-05-28T08:31:55Z</time>
      </trkpt>
      <trkpt lat="45.79252" lon="5.40815">
        <ele>273</ele>
        <time>2023-05-28T08:31:56Z</time>
      </trkpt>
      <trkpt lat="45.79248" lon="5.40811">
        <ele>273</ele>
        <time>2023-05-28T08:31:57Z</time>
      </trkpt>
      <trkpt lat="45.79244" lon="5.40807">
        <ele>273.2</ele>
        <time>2023-05-28T08:31:58Z</time>
      </trkpt>
      <trkpt lat="45.7924" lon="5.40803">
        <ele>273.2</ele>
        <time>2023-05-28T08:31:59Z</time>
      </trkpt>
      <trkpt lat="45.79236" lon="5.408">
        <ele>273.4</ele>
        <time>2023-05-28T08:32:00Z</time>
      </trkpt>
      <trkpt lat="45.79232" lon="5.40797">
        <ele>273.4</ele>
        <time>2023-05-28T08:32:01Z</time>
      </trkpt>
      <trkpt lat="45.79228" lon="5.40794">
        <ele>273.4</ele>
        <time>2023-05-28T08:32:02Z</time>
      </trkpt>
      <trkpt lat="45.7922" lon="5.40789">
        <ele>273.8</ele>
        <time>2023-05-28T08:32:04Z</time>
      </trkpt>
      <trkpt lat="45.79215" lon="5.40786">
        <ele>274</ele>
        <time>2023-05-28T08:32:05Z</time>
      </trkpt>
      <trkpt lat="45.7921" lon="5.40784">
        <ele>274</ele>
        <time>2023-05-28T08:32:06Z</time>
      </trkpt>
      <trkpt lat="45.79201" lon="5.40779">
        <ele>274.6</ele>
        <time>2023-05-28T08:32:08Z</time>
      </trkpt>
      <trkpt lat="45.79197" lon="5.40777">
        <ele>274.6</ele>
        <time>2023-05-28T08:32:09Z</time>
      </trkpt>
      <trkpt lat="45.79192" lon="5.40775">
        <ele>274.8</ele>
        <time>2023-05-28T08:32:10Z</time>
      </trkpt>
      <trkpt lat="45.79188" lon="5.40773">
        <ele>275</ele>
        <time>2023-05-28T08:32:11Z</time>
      </trkpt>
      <trkpt lat="45.79184" lon="5.40771">
        <ele>275</ele>
        <time>2023-05-28T08:32:12Z</time>
      </trkpt>
      <trkpt lat="45.79179" lon="5.40769">
        <ele>275</ele>
        <time>2023-05-28T08:32:13Z</time>
      </trkpt>
      <trkpt lat="45.79174" lon="5.40767">
        <ele>275.4</ele>
        <time>2023-05-28T08:32:14Z</time>
      </trkpt>
      <trkpt lat="45.79171" lon="5.40765">
        <ele>275.6</ele>
        <time>2023-05-28T08:32:15Z</time>
      </trkpt>
      <trkpt lat="45.79167" lon="5.40764">
        <ele>275.6</ele>
        <time>2023-05-28T08:32:16Z</time>
      </trkpt>
      <trkpt lat="45.79163" lon="5.40763">
        <ele>275.8</ele>
        <time>2023-05-28T08:32:17Z</time>
      </trkpt>
      <trkpt lat="45.79159" lon="5.40762">
        <ele>275.8</ele>
        <time>2023-05-28T08:32:18Z</time>
      </trkpt>
      <trkpt lat="45.79153" lon="5.4076">
        <ele>276</ele>
        <time>2023-05-28T08:32:19Z</time>
      </trkpt>
      <trkpt lat="45.7915" lon="5.40759">
        <ele>276</ele>
        <time>2023-05-28T08:32:20Z</time>
      </trkpt>
      <trkpt lat="45.79146" lon="5.40758">
        <ele>276</ele>
        <time>2023-05-28T08:32:21Z</time>
      </trkpt>
      <trkpt lat="45.79142" lon="5.40757">
        <ele>276.2</ele>
        <time>2023-05-28T08:32:22Z</time>
      </trkpt>
      <trkpt lat="45.79138" lon="5.40756">
        <ele>276.4</ele>
        <time>2023-05-28T08:32:23Z</time>
      </trkpt>
      <trkpt lat="45.79134" lon="5.40755">
        <ele>276.6</ele>
        <time>2023-05-28T08:32:24Z</time>
      </trkpt>
      <trkpt lat="45.7913" lon="5.40754">
        <ele>276.6</ele>
        <time>2023-05-28T08:32:25Z</time>
      </trkpt>
      <trkpt lat="45.79126" lon="5.40753">
        <ele>276.8</ele>
        <time>2023-05-28T08:32:26Z</time>
      </trkpt>
      <trkpt lat="45.79123" lon="5.40752">
        <ele>277</ele>
        <time>2023-05-28T08:32:27Z</time>
      </trkpt>
      <trkpt lat="45.7912" lon="5.40751">
        <ele>277.2</ele>
        <time>2023-05-28T08:32:28Z</time>
      </trkpt>
      <trkpt lat="45.79116" lon="5.4075">
        <ele>277.4</ele>
        <time>2023-05-28T08:32:29Z</time>
      </trkpt>
      <trkpt lat="45.79113" lon="5.4075">
        <ele>277.8</ele>
        <time>2023-05-28T08:32:30Z</time>
      </trkpt>
      <trkpt lat="45.7911" lon="5.40749">
        <ele>278.2</ele>
        <time>2023-05-28T08:32:31Z</time>
      </trkpt>
      <trkpt lat="45.79107" lon="5.40748">
        <ele>278.4</ele>
        <time>2023-05-28T08:32:32Z</time>
      </trkpt>
      <trkpt lat="45.79104" lon="5.40748">
        <ele>278.8</ele>
        <time>2023-05-28T08:32:33Z</time>
      </trkpt>
      <trkpt lat="45.79097" lon="5.40746">
        <ele>279.2</ele>
        <time>2023-05-28T08:32:35Z</time>
      </trkpt>
      <trkpt lat="45.79094" lon="5.40744">
        <ele>279.6</ele>
        <time>2023-05-28T08:32:36Z</time>
      </trkpt>
      <trkpt lat="45.79091" lon="5.40743">
        <ele>280</ele>
        <time>2023-05-28T08:32:37Z</time>
      </trkpt>
      <trkpt lat="45.79088" lon="5.40742">
        <ele>280.4</ele>
        <time>2023-05-28T08:32:38Z</time>
      </trkpt>
      <trkpt lat="45.79085" lon="5.40741">
        <ele>280.8</ele>
        <time>2023-05-28T08:32:39Z</time>
      </trkpt>
      <trkpt lat="45.79081" lon="5.4074">
        <ele>281.4</ele>
        <time>2023-05-28T08:32:40Z</time>
      </trkpt>
      <trkpt lat="45.79078" lon="5.40739">
        <ele>281.8</ele>
        <time>2023-05-28T08:32:41Z</time>
      </trkpt>
      <trkpt lat="45.79076" lon="5.40738">
        <ele>282.2</ele>
        <time>2023-05-28T08:32:42Z</time>
      </trkpt>
      <trkpt lat="45.79073" lon="5.40738">
        <ele>282.4</ele>
        <time>2023-05-28T08:32:43Z</time>
      </trkpt>
      <trkpt lat="45.7907" lon="5.40737">
        <ele>283</ele>
        <time>2023-05-28T08:32:44Z</time>
      </trkpt>
      <trkpt lat="45.79067" lon="5.40736">
        <ele>283.4</ele>
        <time>2023-05-28T08:32:45Z</time>
      </trkpt>
      <trkpt lat="45.7906" lon="5.40734">
        <ele>284.6</ele>
        <time>2023-05-28T08:32:47Z</time>
      </trkpt>
      <trkpt lat="45.79057" lon="5.40733">
        <ele>285</ele>
        <time>2023-05-28T08:32:48Z</time>
      </trkpt>
      <trkpt lat="45.79054" lon="5.40732">
        <ele>285.4</ele>
        <time>2023-05-28T08:32:49Z</time>
      </trkpt>
      <trkpt lat="45.7905" lon="5.40731">
        <ele>285.4</ele>
        <time>2023-05-28T08:32:50Z</time>
      </trkpt>
      <trkpt lat="45.79047" lon="5.4073">
        <ele>286</ele>
        <time>2023-05-28T08:32:51Z</time>
      </trkpt>
      <trkpt lat="45.79044" lon="5.4073">
        <ele>286.2</ele>
        <time>2023-05-28T08:32:52Z</time>
      </trkpt>
      <trkpt lat="45.7904" lon="5.40729">
        <ele>286.6</ele>
        <time>2023-05-28T08:32:53Z</time>
      </trkpt>
      <trkpt lat="45.79037" lon="5.40728">
        <ele>286.6</ele>
        <time>2023-05-28T08:32:54Z</time>
      </trkpt>
      <trkpt lat="45.79034" lon="5.40728">
        <ele>287</ele>
        <time>2023-05-28T08:32:55Z</time>
      </trkpt>
      <trkpt lat="45.79031" lon="5.40727">
        <ele>287.2</ele>
        <time>2023-05-28T08:32:56Z</time>
      </trkpt>
      <trkpt lat="45.79028" lon="5.40725">
        <ele>287.2</ele>
        <time>2023-05-28T08:32:57Z</time>
      </trkpt>
      <trkpt lat="45.79027" lon="5.40725">
        <ele>287.4</ele>
        <time>2023-05-28T08:32:58Z</time>
      </trkpt>
      <trkpt lat="45.79027" lon="5.40724">
        <ele>287.4</ele>
        <time>2023-05-28T08:32:59Z</time>
      </trkpt>
      <trkpt lat="45.79027" lon="5.40724">
        <ele>287.6</ele>
        <time>2023-05-28T08:33:00Z</time>
      </trkpt>
      <trkpt lat="45.79027" lon="5.40724">
        <ele>287.6</ele>
        <time>2023-05-28T08:33:01Z</time>
      </trkpt>
      <trkpt lat="45.79027" lon="5.40724">
        <ele>287.8</ele>
        <time>2023-05-28T08:33:02Z</time>
      </trkpt>
      <trkpt lat="45.79027" lon="5.40724">
        <ele>287.8</ele>
        <time>2023-05-28T08:33:03Z</time>
      </trkpt>
      <trkpt lat="45.79027" lon="5.40724">
        <ele>287.8</ele>
        <time>2023-05-28T08:33:04Z</time>
      </trkpt>
      <trkpt lat="45.79027" lon="5.40724">
        <ele>288</ele>
        <time>2023-05-28T08:33:05Z</time>
      </trkpt>
      <trkpt lat="45.79027" lon="5.40724">
        <ele>288.2</ele>
        <time>2023-05-28T08:33:07Z</time>
      </trkpt>
      <trkpt lat="45.79027" lon="5.40724">
        <ele>288.2</ele>
        <time>2023-05-28T08:33:08Z</time>
      </trkpt>
      <trkpt lat="45.79027" lon="5.40724">
        <ele>288.2</ele>
        <time>2023-05-28T08:33:09Z</time>
      </trkpt>
      <trkpt lat="45.79027" lon="5.40724">
        <ele>288.2</ele>
        <time>2023-05-28T08:33:10Z</time>
      </trkpt>
      <trkpt lat="45.79027" lon="5.40724">
        <ele>288.2</ele>
        <time>2023-05-28T08:33:11Z</time>
      </trkpt>
      <trkpt lat="45.79027" lon="5.40724">
        <ele>288.2</ele>
        <time>2023-05-28T08:33:12Z</time>
      </trkpt>
      <trkpt lat="45.79027" lon="5.40724">
        <ele>288.2</ele>
        <time>2023-05-28T08:33:13Z</time>
      </trkpt>
      <trkpt lat="45.79027" lon="5.40724">
        <ele>288</ele>
        <time>2023-05-28T08:33:14Z</time>
      </trkpt>
      <trkpt lat="45.79027" lon="5.40724">
        <ele>288</ele>
        <time>2023-05-28T08:33:15Z</time>
      </trkpt>
      <trkpt lat="45.79027" lon="5.40724">
        <ele>288</ele>
        <time>2023-05-28T08:33:16Z</time>
      </trkpt>
      <trkpt lat="45.79027" lon="5.40724">
        <ele>288</ele>
        <time>2023-05-28T08:33:17Z</time>
      </trkpt>
      <trkpt lat="45.79027" lon="5.40724">
        <ele>288</ele>
        <time>2023-05-28T08:33:18Z</time>
      </trkpt>
      <trkpt lat="45.79027" lon="5.40724">
        <ele>288</ele>
        <time>2023-05-28T08:33:19Z</time>
      </trkpt>
      <trkpt lat="45.79027" lon="5.40724">
        <ele>288</ele>
        <time>2023-05-28T08:33:20Z</time>
      </trkpt>
      <trkpt lat="45.79027" lon="5.40724">
        <ele>288</ele>
        <time>2023-05-28T08:33:21Z</time>
      </trkpt>
      <trkpt lat="45.79027" lon="5.40724">
        <ele>288</ele>
        <time>2023-05-28T08:33:22Z</time>
      </trkpt>
      <trkpt lat="45.79027" lon="5.40724">
        <ele>288</ele>
        <time>2023-05-28T08:33:23Z</time>
      </trkpt>
      <trkpt lat="45.79027" lon="5.40724">
        <ele>288</ele>
        <time>2023-05-28T08:33:24Z</time>
      </trkpt>
      <trkpt lat="45.79027" lon="5.40724">
        <ele>288</ele>
        <time>2023-05-28T08:33:25Z</time>
      </trkpt>
      <trkpt lat="45.79027" lon="5.40724">
        <ele>288</ele>
        <time>2023-05-28T08:33:26Z</time>
      </trkpt>
      <trkpt lat="45.79027" lon="5.40724">
        <ele>288</ele>
        <time>2023-05-28T08:33:27Z</time>
      </trkpt>
      <trkpt lat="45.79027" lon="5.40724">
        <ele>288</ele>
        <time>2023-05-28T08:33:28Z</time>
      </trkpt>
      <trkpt lat="45.79027" lon="5.40724">
        <ele>288</ele>
        <time>2023-05-28T08:33:29Z</time>
      </trkpt>
      <trkpt lat="45.79027" lon="5.40724">
        <ele>288</ele>
        <time>2023-05-28T08:33:30Z</time>
      </trkpt>
      <trkpt lat="45.79027" lon="5.40724">
        <ele>288</ele>
        <time>2023-05-28T08:33:31Z</time>
      </trkpt>
      <trkpt lat="45.79027" lon="5.40724">
        <ele>288</ele>
        <time>2023-05-28T08:33:32Z</time>
      </trkpt>
      <trkpt lat="45.79027" lon="5.40724">
        <ele>288</ele>
        <time>2023-05-28T08:33:33Z</time>
      </trkpt>
      <trkpt lat="45.79027" lon="5.40724">
        <ele>288</ele>
        <time>2023-05-28T08:33:34Z</time>
      </trkpt>
      <trkpt lat="45.79027" lon="5.40724">
        <ele>288</ele>
        <time>2023-05-28T08:33:35Z</time>
      </trkpt>
      <trkpt lat="45.79027" lon="5.40724">
        <ele>288</ele>
        <time>2023-05-28T08:33:36Z</time>
      </trkpt>
      <trkpt lat="45.79027" lon="5.40724">
        <ele>288</ele>
        <time>2023-05-28T08:33:37Z</time>
      </trkpt>
      <trkpt lat="45.79027" lon="5.40724">
        <ele>288</ele>
        <time>2023-05-28T08:33:38Z</time>
      </trkpt>
      <trkpt lat="45.79027" lon="5.40724">
        <ele>287.8</ele>
        <time>2023-05-28T08:33:39Z</time>
      </trkpt>
      <trkpt lat="45.79027" lon="5.40724">
        <ele>287.8</ele>
        <time>2023-05-28T08:33:40Z</time>
      </trkpt>
      <trkpt lat="45.79027" lon="5.40724">
        <ele>287.8</ele>
        <time>2023-05-28T08:33:41Z</time>
      </trkpt>
      <trkpt lat="45.79027" lon="5.40724">
        <ele>287.8</ele>
        <time>2023-05-28T08:33:42Z</time>
      </trkpt>
      <trkpt lat="45.79027" lon="5.40724">
        <ele>287.8</ele>
        <time>2023-05-28T08:33:43Z</time>
      </trkpt>
      <trkpt lat="45.79027" lon="5.40724">
        <ele>287.6</ele>
        <time>2023-05-28T08:33:44Z</time>
      </trkpt>
      <trkpt lat="45.79027" lon="5.40724">
        <ele>287.6</ele>
        <time>2023-05-28T08:33:45Z</time>
      </trkpt>
      <trkpt lat="45.79027" lon="5.40724">
        <ele>287.6</ele>
        <time>2023-05-28T08:33:46Z</time>
      </trkpt>
      <trkpt lat="45.79027" lon="5.40724">
        <ele>287.6</ele>
        <time>2023-05-28T08:33:47Z</time>
      </trkpt>
      <trkpt lat="45.79027" lon="5.40724">
        <ele>287.4</ele>
        <time>2023-05-28T08:33:48Z</time>
      </trkpt>
      <trkpt lat="45.79027" lon="5.40724">
        <ele>287.4</ele>
        <time>2023-05-28T08:33:49Z</time>
      </trkpt>
      <trkpt lat="45.79027" lon="5.40724">
        <ele>287.2</ele>
        <time>2023-05-28T08:33:50Z</time>
      </trkpt>
      <trkpt lat="45.79027" lon="5.40724">
        <ele>287.2</ele>
        <time>2023-05-28T08:33:51Z</time>
      </trkpt>
      <trkpt lat="45.79027" lon="5.40724">
        <ele>287.2</ele>
        <time>2023-05-28T08:33:52Z</time>
      </trkpt>
      <trkpt lat="45.79027" lon="5.40724">
        <ele>287.2</ele>
        <time>2023-05-28T08:33:53Z</time>
      </trkpt>
      <trkpt lat="45.79027" lon="5.40724">
        <ele>287</ele>
        <time>2023-05-28T08:33:54Z</time>
      </trkpt>
      <trkpt lat="45.79027" lon="5.40724">
        <ele>286.8</ele>
        <time>2023-05-28T08:33:55Z</time>
      </trkpt>
      <trkpt lat="45.79027" lon="5.40724">
        <ele>286.8</ele>
        <time>2023-05-28T08:33:56Z</time>
      </trkpt>
      <trkpt lat="45.79027" lon="5.40724">
        <ele>286.6</ele>
        <time>2023-05-28T08:33:57Z</time>
      </trkpt>
      <trkpt lat="45.79027" lon="5.40724">
        <ele>286.4</ele>
        <time>2023-05-28T08:33:58Z</time>
      </trkpt>
      <trkpt lat="45.79027" lon="5.40724">
        <ele>286.4</ele>
        <time>2023-05-28T08:33:59Z</time>
      </trkpt>
      <trkpt lat="45.79027" lon="5.40724">
        <ele>286.4</ele>
        <time>2023-05-28T08:34:00Z</time>
      </trkpt>
      <trkpt lat="45.79027" lon="5.40724">
        <ele>286.4</ele>
        <time>2023-05-28T08:34:01Z</time>
      </trkpt>
      <trkpt lat="45.79027" lon="5.40724">
        <ele>286.2</ele>
        <time>2023-05-28T08:34:02Z</time>
      </trkpt>
      <trkpt lat="45.79027" lon="5.40724">
        <ele>286.2</ele>
        <time>2023-05-28T08:34:03Z</time>
      </trkpt>
      <trkpt lat="45.79027" lon="5.40724">
        <ele>286</ele>
        <time>2023-05-28T08:34:04Z</time>
      </trkpt>
      <trkpt lat="45.79027" lon="5.40724">
        <ele>286</ele>
        <time>2023-05-28T08:34:05Z</time>
      </trkpt>
      <trkpt lat="45.79027" lon="5.40724">
        <ele>286</ele>
        <time>2023-05-28T08:34:06Z</time>
      </trkpt>
      <trkpt lat="45.79027" lon="5.40724">
        <ele>286</ele>
        <time>2023-05-28T08:34:07Z</time>
      </trkpt>
      <trkpt lat="45.79027" lon="5.40724">
        <ele>285.8</ele>
        <time>2023-05-28T08:34:08Z</time>
      </trkpt>
      <trkpt lat="45.79027" lon="5.40724">
        <ele>285.8</ele>
        <time>2023-05-28T08:34:09Z</time>
      </trkpt>
      <trkpt lat="45.79027" lon="5.40724">
        <ele>285.8</ele>
        <time>2023-05-28T08:34:10Z</time>
      </trkpt>
      <trkpt lat="45.79027" lon="5.40724">
        <ele>285.8</ele>
        <time>2023-05-28T08:34:11Z</time>
      </trkpt>
      <trkpt lat="45.79027" lon="5.40724">
        <ele>285.6</ele>
        <time>2023-05-28T08:34:12Z</time>
      </trkpt>
      <trkpt lat="45.79027" lon="5.40724">
        <ele>285.6</ele>
        <time>2023-05-28T08:34:13Z</time>
      </trkpt>
      <trkpt lat="45.79027" lon="5.40724">
        <ele>285.4</ele>
        <time>2023-05-28T08:34:14Z</time>
      </trkpt>
      <trkpt lat="45.79027" lon="5.40724">
        <ele>285.4</ele>
        <time>2023-05-28T08:34:15Z</time>
      </trkpt>
      <trkpt lat="45.79027" lon="5.40724">
        <ele>285.4</ele>
        <time>2023-05-28T08:34:16Z</time>
      </trkpt>
      <trkpt lat="45.79027" lon="5.40724">
        <ele>285.4</ele>
        <time>2023-05-28T08:34:17Z</time>
      </trkpt>
      <trkpt lat="45.79027" lon="5.40724">
        <ele>285.4</ele>
        <time>2023-05-28T08:34:18Z</time>
      </trkpt>
      <trkpt lat="45.79027" lon="5.40724">
        <ele>285.4</ele>
        <time>2023-05-28T08:34:19Z</time>
      </trkpt>
      <trkpt lat="45.79027" lon="5.40724">
        <ele>285.4</ele>
        <time>2023-05-28T08:34:20Z</time>
      </trkpt>
      <trkpt lat="45.79027" lon="5.40724">
        <ele>285.4</ele>
        <time>2023-05-28T08:34:21Z</time>
      </trkpt>
      <trkpt lat="45.79027" lon="5.40724">
        <ele>285.4</ele>
        <time>2023-05-28T08:34:22Z</time>
      </trkpt>
      <trkpt lat="45.79027" lon="5.40724">
        <ele>285.4</ele>
        <time>2023-05-28T08:34:23Z</time>
      </trkpt>
      <trkpt lat="45.79027" lon="5.40724">
        <ele>285.4</ele>
        <time>2023-05-28T08:34:24Z</time>
      </trkpt>
      <trkpt lat="45.79027" lon="5.40724">
        <ele>285.4</ele>
        <time>2023-05-28T08:34:25Z</time>
      </trkpt>
      <trkpt lat="45.79027" lon="5.40724">
        <ele>285.4</ele>
        <time>2023-05-28T08:34:26Z</time>
      </trkpt>
      <trkpt lat="45.79027" lon="5.40724">
        <ele>285.4</ele>
        <time>2023-05-28T08:34:27Z</time>
      </trkpt>
      <trkpt lat="45.79027" lon="5.40724">
        <ele>285.4</ele>
        <time>2023-05-28T08:34:28Z</time>
      </trkpt>
      <trkpt lat="45.79027" lon="5.40724">
        <ele>285.4</ele>
        <time>2023-05-28T08:34:29Z</time>
      </trkpt>
      <trkpt lat="45.79027" lon="5.40724">
        <ele>285.4</ele>
        <time>2023-05-28T08:34:30Z</time>
      </trkpt>
      <trkpt lat="45.79027" lon="5.40724">
        <ele>285.4</ele>
        <time>2023-05-28T08:34:31Z</time>
      </trkpt>
      <trkpt lat="45.79027" lon="5.40724">
        <ele>285.4</ele>
        <time>2023-05-28T08:34:32Z</time>
      </trkpt>
      <trkpt lat="45.79027" lon="5.40724">
        <ele>285.4</ele>
        <time>2023-05-28T08:34:33Z</time>
      </trkpt>
      <trkpt lat="45.79027" lon="5.40724">
        <ele>285.4</ele>
        <time>2023-05-28T08:34:34Z</time>
      </trkpt>
      <trkpt lat="45.79027" lon="5.40724">
        <ele>285.4</ele>
        <time>2023-05-28T08:34:35Z</time>
      </trkpt>
      <trkpt lat="45.79027" lon="5.40724">
        <ele>285.4</ele>
        <time>2023-05-28T08:34:36Z</time>
      </trkpt>
      <trkpt lat="45.79027" lon="5.40724">
        <ele>285.4</ele>
        <time>2023-05-28T08:34:37Z</time>
      </trkpt>
      <trkpt lat="45.79027" lon="5.40724">
        <ele>285.4</ele>
        <time>2023-05-28T08:34:38Z</time>
      </trkpt>
      <trkpt lat="45.79027" lon="5.40724">
        <ele>285.4</ele>
        <time>2023-05-28T08:34:39Z</time>
      </trkpt>
      <trkpt lat="45.79027" lon="5.40724">
        <ele>285.4</ele>
        <time>2023-05-28T08:34:40Z</time>
      </trkpt>
      <trkpt lat="45.79027" lon="5.40724">
        <ele>285.4</ele>
        <time>2023-05-28T08:34:41Z</time>
      </trkpt>
      <trkpt lat="45.79027" lon="5.40724">
        <ele>285.4</ele>
        <time>2023-05-28T08:34:42Z</time>
      </trkpt>
      <trkpt lat="45.79027" lon="5.40724">
        <ele>285.4</ele>
        <time>2023-05-28T08:34:43Z</time>
      </trkpt>
      <trkpt lat="45.79027" lon="5.40724">
        <ele>285.2</ele>
        <time>2023-05-28T08:34:44Z</time>
      </trkpt>
      <trkpt lat="45.79027" lon="5.40724">
        <ele>285.2</ele>
        <time>2023-05-28T08:34:45Z</time>
      </trkpt>
      <trkpt lat="45.79027" lon="5.40724">
        <ele>285</ele>
        <time>2023-05-28T08:34:46Z</time>
      </trkpt>
      <trkpt lat="45.79027" lon="5.40724">
        <ele>285</ele>
        <time>2023-05-28T08:34:47Z</time>
      </trkpt>
      <trkpt lat="45.79027" lon="5.40724">
        <ele>285</ele>
        <time>2023-05-28T08:34:48Z</time>
      </trkpt>
      <trkpt lat="45.79027" lon="5.40724">
        <ele>285</ele>
        <time>2023-05-28T08:34:49Z</time>
      </trkpt>
      <trkpt lat="45.79027" lon="5.40724">
        <ele>285</ele>
        <time>2023-05-28T08:34:50Z</time>
      </trkpt>
      <trkpt lat="45.79027" lon="5.40724">
        <ele>285</ele>
        <time>2023-05-28T08:34:51Z</time>
      </trkpt>
      <trkpt lat="45.79027" lon="5.40724">
        <ele>284.8</ele>
        <time>2023-05-28T08:34:52Z</time>
      </trkpt>
      <trkpt lat="45.79027" lon="5.40724">
        <ele>284.8</ele>
        <time>2023-05-28T08:34:53Z</time>
      </trkpt>
      <trkpt lat="45.79027" lon="5.40724">
        <ele>284.8</ele>
        <time>2023-05-28T08:34:55Z</time>
      </trkpt>
      <trkpt lat="45.79027" lon="5.40724">
        <ele>284.8</ele>
        <time>2023-05-28T08:34:57Z</time>
      </trkpt>
      <trkpt lat="45.79027" lon="5.40724">
        <ele>284.6</ele>
        <time>2023-05-28T08:34:58Z</time>
      </trkpt>
      <trkpt lat="45.79027" lon="5.40724">
        <ele>284.6</ele>
        <time>2023-05-28T08:34:59Z</time>
      </trkpt>
      <trkpt lat="45.79027" lon="5.40724">
        <ele>284.6</ele>
        <time>2023-05-28T08:35:00Z</time>
      </trkpt>
      <trkpt lat="45.79027" lon="5.40724">
        <ele>284.4</ele>
        <time>2023-05-28T08:35:01Z</time>
      </trkpt>
      <trkpt lat="45.79027" lon="5.40724">
        <ele>284.4</ele>
        <time>2023-05-28T08:35:02Z</time>
      </trkpt>
      <trkpt lat="45.79027" lon="5.40724">
        <ele>284.4</ele>
        <time>2023-05-28T08:35:03Z</time>
      </trkpt>
      <trkpt lat="45.79027" lon="5.40724">
        <ele>284.4</ele>
        <time>2023-05-28T08:35:04Z</time>
      </trkpt>
      <trkpt lat="45.79027" lon="5.40724">
        <ele>284.4</ele>
        <time>2023-05-28T08:35:05Z</time>
      </trkpt>
      <trkpt lat="45.79027" lon="5.40724">
        <ele>284.4</ele>
        <time>2023-05-28T08:35:06Z</time>
      </trkpt>
      <trkpt lat="45.79027" lon="5.40724">
        <ele>284.4</ele>
        <time>2023-05-28T08:35:07Z</time>
      </trkpt>
      <trkpt lat="45.79027" lon="5.40724">
        <ele>284.6</ele>
        <time>2023-05-28T08:35:08Z</time>
      </trkpt>
      <trkpt lat="45.79027" lon="5.40724">
        <ele>284.6</ele>
        <time>2023-05-28T08:35:09Z</time>
      </trkpt>
      <trkpt lat="45.79027" lon="5.40724">
        <ele>284.6</ele>
        <time>2023-05-28T08:35:10Z</time>
      </trkpt>
      <trkpt lat="45.79026" lon="5.40724">
        <ele>284.8</ele>
        <time>2023-05-28T08:35:11Z</time>
      </trkpt>
      <trkpt lat="45.79025" lon="5.40724">
        <ele>284.8</ele>
        <time>2023-05-28T08:35:12Z</time>
      </trkpt>
      <trkpt lat="45.79024" lon="5.40725">
        <ele>284.8</ele>
        <time>2023-05-28T08:35:13Z</time>
      </trkpt>
      <trkpt lat="45.79022" lon="5.40725">
        <ele>284.8</ele>
        <time>2023-05-28T08:35:14Z</time>
      </trkpt>
      <trkpt lat="45.7902" lon="5.40724">
        <ele>284.8</ele>
        <time>2023-05-28T08:35:15Z</time>
      </trkpt>
      <trkpt lat="45.79017" lon="5.40724">
        <ele>284.6</ele>
        <time>2023-05-28T08:35:16Z</time>
      </trkpt>
      <trkpt lat="45.79014" lon="5.40724">
        <ele>284.6</ele>
        <time>2023-05-28T08:35:17Z</time>
      </trkpt>
      <trkpt lat="45.79011" lon="5.40723">
        <ele>284.6</ele>
        <time>2023-05-28T08:35:18Z</time>
      </trkpt>
      <trkpt lat="45.79008" lon="5.40723">
        <ele>284.6</ele>
        <time>2023-05-28T08:35:19Z</time>
      </trkpt>
      <trkpt lat="45.79004" lon="5.40723">
        <ele>284.6</ele>
        <time>2023-05-28T08:35:20Z</time>
      </trkpt>
      <trkpt lat="45.79" lon="5.40723">
        <ele>284.6</ele>
        <time>2023-05-28T08:35:21Z</time>
      </trkpt>
      <trkpt lat="45.78997" lon="5.40724">
        <ele>284.6</ele>
        <time>2023-05-28T08:35:22Z</time>
      </trkpt>
      <trkpt lat="45.78993" lon="5.40724">
        <ele>284.6</ele>
        <time>2023-05-28T08:35:23Z</time>
      </trkpt>
      <trkpt lat="45.7899" lon="5.40725">
        <ele>284.8</ele>
        <time>2023-05-28T08:35:24Z</time>
      </trkpt>
      <trkpt lat="45.78983" lon="5.40727">
        <ele>285.4</ele>
        <time>2023-05-28T08:35:26Z</time>
      </trkpt>
      <trkpt lat="45.7898" lon="5.40729">
        <ele>285.6</ele>
        <time>2023-05-28T08:35:27Z</time>
      </trkpt>
      <trkpt lat="45.78976" lon="5.4073">
        <ele>285.6</ele>
        <time>2023-05-28T08:35:28Z</time>
      </trkpt>
      <trkpt lat="45.78972" lon="5.40731">
        <ele>285.8</ele>
        <time>2023-05-28T08:35:29Z</time>
      </trkpt>
      <trkpt lat="45.78968" lon="5.40732">
        <ele>285.8</ele>
        <time>2023-05-28T08:35:30Z</time>
      </trkpt>
      <trkpt lat="45.78964" lon="5.40733">
        <ele>286</ele>
        <time>2023-05-28T08:35:31Z</time>
      </trkpt>
      <trkpt lat="45.78956" lon="5.40735">
        <ele>286.6</ele>
        <time>2023-05-28T08:35:33Z</time>
      </trkpt>
      <trkpt lat="45.78952" lon="5.40737">
        <ele>287.2</ele>
        <time>2023-05-28T08:35:34Z</time>
      </trkpt>
      <trkpt lat="45.78948" lon="5.40738">
        <ele>287.6</ele>
        <time>2023-05-28T08:35:35Z</time>
      </trkpt>
      <trkpt lat="45.78944" lon="5.40739">
        <ele>288.2</ele>
        <time>2023-05-28T08:35:36Z</time>
      </trkpt>
      <trkpt lat="45.7894" lon="5.4074">
        <ele>288.4</ele>
        <time>2023-05-28T08:35:37Z</time>
      </trkpt>
      <trkpt lat="45.78936" lon="5.40741">
        <ele>289.2</ele>
        <time>2023-05-28T08:35:38Z</time>
      </trkpt>
      <trkpt lat="45.78932" lon="5.40742">
        <ele>289.4</ele>
        <time>2023-05-28T08:35:39Z</time>
      </trkpt>
      <trkpt lat="45.78928" lon="5.40743">
        <ele>289.8</ele>
        <time>2023-05-28T08:35:40Z</time>
      </trkpt>
      <trkpt lat="45.78924" lon="5.40744">
        <ele>290.6</ele>
        <time>2023-05-28T08:35:41Z</time>
      </trkpt>
      <trkpt lat="45.7892" lon="5.40745">
        <ele>291</ele>
        <time>2023-05-28T08:35:42Z</time>
      </trkpt>
      <trkpt lat="45.78916" lon="5.40745">
        <ele>291.6</ele>
        <time>2023-05-28T08:35:43Z</time>
      </trkpt>
      <trkpt lat="45.78912" lon="5.40746">
        <ele>292</ele>
        <time>2023-05-28T08:35:44Z</time>
      </trkpt>
      <trkpt lat="45.78907" lon="5.40746">
        <ele>292.8</ele>
        <time>2023-05-28T08:35:45Z</time>
      </trkpt>
      <trkpt lat="45.78903" lon="5.40746">
        <ele>293.2</ele>
        <time>2023-05-28T08:35:46Z</time>
      </trkpt>
      <trkpt lat="45.78899" lon="5.40745">
        <ele>293.6</ele>
        <time>2023-05-28T08:35:47Z</time>
      </trkpt>
      <trkpt lat="45.78894" lon="5.40745">
        <ele>294</ele>
        <time>2023-05-28T08:35:48Z</time>
      </trkpt>
      <trkpt lat="45.7889" lon="5.40743">
        <ele>294.6</ele>
        <time>2023-05-28T08:35:49Z</time>
      </trkpt>
      <trkpt lat="45.78886" lon="5.40742">
        <ele>294.8</ele>
        <time>2023-05-28T08:35:50Z</time>
      </trkpt>
      <trkpt lat="45.78881" lon="5.4074">
        <ele>295</ele>
        <time>2023-05-28T08:35:51Z</time>
      </trkpt>
      <trkpt lat="45.78877" lon="5.40739">
        <ele>295.4</ele>
        <time>2023-05-28T08:35:52Z</time>
      </trkpt>
      <trkpt lat="45.78872" lon="5.40737">
        <ele>295.4</ele>
        <time>2023-05-28T08:35:53Z</time>
      </trkpt>
      <trkpt lat="45.78868" lon="5.40735">
        <ele>295.6</ele>
        <time>2023-05-28T08:35:54Z</time>
      </trkpt>
      <trkpt lat="45.78863" lon="5.40733">
        <ele>295.8</ele>
        <time>2023-05-28T08:35:55Z</time>
      </trkpt>
      <trkpt lat="45.78859" lon="5.40731">
        <ele>295.8</ele>
        <time>2023-05-28T08:35:56Z</time>
      </trkpt>
      <trkpt lat="45.78854" lon="5.4073">
        <ele>296</ele>
        <time>2023-05-28T08:35:57Z</time>
      </trkpt>
      <trkpt lat="45.7885" lon="5.40728">
        <ele>296</ele>
        <time>2023-05-28T08:35:58Z</time>
      </trkpt>
      <trkpt lat="45.78844" lon="5.40727">
        <ele>296.2</ele>
        <time>2023-05-28T08:35:59Z</time>
      </trkpt>
      <trkpt lat="45.78839" lon="5.40727">
        <ele>296.2</ele>
        <time>2023-05-28T08:36:00Z</time>
      </trkpt>
      <trkpt lat="45.78834" lon="5.40726">
        <ele>296.4</ele>
        <time>2023-05-28T08:36:01Z</time>
      </trkpt>
      <trkpt lat="45.7883" lon="5.40726">
        <ele>296.6</ele>
        <time>2023-05-28T08:36:02Z</time>
      </trkpt>
      <trkpt lat="45.78825" lon="5.40726">
        <ele>296.6</ele>
        <time>2023-05-28T08:36:03Z</time>
      </trkpt>
      <trkpt lat="45.7882" lon="5.40726">
        <ele>296.6</ele>
        <time>2023-05-28T08:36:04Z</time>
      </trkpt>
      <trkpt lat="45.78815" lon="5.40727">
        <ele>297</ele>
        <time>2023-05-28T08:36:05Z</time>
      </trkpt>
      <trkpt lat="45.7881" lon="5.40727">
        <ele>296.8</ele>
        <time>2023-05-28T08:36:06Z</time>
      </trkpt>
      <trkpt lat="45.78806" lon="5.40727">
        <ele>296.8</ele>
        <time>2023-05-28T08:36:07Z</time>
      </trkpt>
      <trkpt lat="45.78801" lon="5.40727">
        <ele>296.8</ele>
        <time>2023-05-28T08:36:08Z</time>
      </trkpt>
      <trkpt lat="45.78796" lon="5.40728">
        <ele>297</ele>
        <time>2023-05-28T08:36:09Z</time>
      </trkpt>
      <trkpt lat="45.78791" lon="5.40728">
        <ele>297</ele>
        <time>2023-05-28T08:36:10Z</time>
      </trkpt>
      <trkpt lat="45.78786" lon="5.40728">
        <ele>296.8</ele>
        <time>2023-05-28T08:36:11Z</time>
      </trkpt>
      <trkpt lat="45.78781" lon="5.40728">
        <ele>297.2</ele>
        <time>2023-05-28T08:36:12Z</time>
      </trkpt>
      <trkpt lat="45.78777" lon="5.40727">
        <ele>297</ele>
        <time>2023-05-28T08:36:13Z</time>
      </trkpt>
      <trkpt lat="45.78772" lon="5.40726">
        <ele>297.4</ele>
        <time>2023-05-28T08:36:14Z</time>
      </trkpt>
      <trkpt lat="45.78763" lon="5.40722">
        <ele>297.6</ele>
        <time>2023-05-28T08:36:16Z</time>
      </trkpt>
      <trkpt lat="45.78758" lon="5.4072">
        <ele>297.8</ele>
        <time>2023-05-28T08:36:17Z</time>
      </trkpt>
      <trkpt lat="45.78754" lon="5.40717">
        <ele>298</ele>
        <time>2023-05-28T08:36:18Z</time>
      </trkpt>
      <trkpt lat="45.7875" lon="5.40714">
        <ele>298.4</ele>
        <time>2023-05-28T08:36:19Z</time>
      </trkpt>
      <trkpt lat="45.78747" lon="5.40712">
        <ele>298.6</ele>
        <time>2023-05-28T08:36:20Z</time>
      </trkpt>
      <trkpt lat="45.78743" lon="5.40709">
        <ele>298.8</ele>
        <time>2023-05-28T08:36:21Z</time>
      </trkpt>
      <trkpt lat="45.78739" lon="5.40706">
        <ele>299</ele>
        <time>2023-05-28T08:36:22Z</time>
      </trkpt>
      <trkpt lat="45.78735" lon="5.40704">
        <ele>299</ele>
        <time>2023-05-28T08:36:23Z</time>
      </trkpt>
      <trkpt lat="45.78732" lon="5.40702">
        <ele>299.2</ele>
        <time>2023-05-28T08:36:24Z</time>
      </trkpt>
      <trkpt lat="45.78728" lon="5.407">
        <ele>299.4</ele>
        <time>2023-05-28T08:36:25Z</time>
      </trkpt>
      <trkpt lat="45.78723" lon="5.40698">
        <ele>299.8</ele>
        <time>2023-05-28T08:36:26Z</time>
      </trkpt>
      <trkpt lat="45.78719" lon="5.40696">
        <ele>299.8</ele>
        <time>2023-05-28T08:36:27Z</time>
      </trkpt>
      <trkpt lat="45.78715" lon="5.40694">
        <ele>300.2</ele>
        <time>2023-05-28T08:36:28Z</time>
      </trkpt>
      <trkpt lat="45.78712" lon="5.40692">
        <ele>300.8</ele>
        <time>2023-05-28T08:36:29Z</time>
      </trkpt>
      <trkpt lat="45.78709" lon="5.40691">
        <ele>301</ele>
        <time>2023-05-28T08:36:30Z</time>
      </trkpt>
      <trkpt lat="45.78705" lon="5.40688">
        <ele>301.6</ele>
        <time>2023-05-28T08:36:31Z</time>
      </trkpt>
      <trkpt lat="45.78701" lon="5.40686">
        <ele>302</ele>
        <time>2023-05-28T08:36:32Z</time>
      </trkpt>
      <trkpt lat="45.78697" lon="5.40684">
        <ele>302.8</ele>
        <time>2023-05-28T08:36:33Z</time>
      </trkpt>
      <trkpt lat="45.78694" lon="5.40683">
        <ele>303.2</ele>
        <time>2023-05-28T08:36:34Z</time>
      </trkpt>
      <trkpt lat="45.78691" lon="5.40681">
        <ele>303.4</ele>
        <time>2023-05-28T08:36:35Z</time>
      </trkpt>
      <trkpt lat="45.78688" lon="5.40678">
        <ele>303.8</ele>
        <time>2023-05-28T08:36:36Z</time>
      </trkpt>
      <trkpt lat="45.78684" lon="5.40676">
        <ele>304.4</ele>
        <time>2023-05-28T08:36:37Z</time>
      </trkpt>
      <trkpt lat="45.7868" lon="5.40673">
        <ele>305</ele>
        <time>2023-05-28T08:36:38Z</time>
      </trkpt>
      <trkpt lat="45.78677" lon="5.4067">
        <ele>305.2</ele>
        <time>2023-05-28T08:36:39Z</time>
      </trkpt>
      <trkpt lat="45.78674" lon="5.40668">
        <ele>305.6</ele>
        <time>2023-05-28T08:36:40Z</time>
      </trkpt>
      <trkpt lat="45.78671" lon="5.40666">
        <ele>305.8</ele>
        <time>2023-05-28T08:36:41Z</time>
      </trkpt>
      <trkpt lat="45.78667" lon="5.40663">
        <ele>306.2</ele>
        <time>2023-05-28T08:36:42Z</time>
      </trkpt>
      <trkpt lat="45.78663" lon="5.4066">
        <ele>306.6</ele>
        <time>2023-05-28T08:36:43Z</time>
      </trkpt>
      <trkpt lat="45.7866" lon="5.40658">
        <ele>307</ele>
        <time>2023-05-28T08:36:44Z</time>
      </trkpt>
      <trkpt lat="45.78657" lon="5.40655">
        <ele>307.6</ele>
        <time>2023-05-28T08:36:45Z</time>
      </trkpt>
      <trkpt lat="45.78654" lon="5.40652">
        <ele>307.8</ele>
        <time>2023-05-28T08:36:46Z</time>
      </trkpt>
      <trkpt lat="45.78652" lon="5.40649">
        <ele>308</ele>
        <time>2023-05-28T08:36:47Z</time>
      </trkpt>
      <trkpt lat="45.78649" lon="5.40646">
        <ele>308.2</ele>
        <time>2023-05-28T08:36:48Z</time>
      </trkpt>
      <trkpt lat="45.78646" lon="5.40644">
        <ele>308.2</ele>
        <time>2023-05-28T08:36:49Z</time>
      </trkpt>
      <trkpt lat="45.78643" lon="5.40642">
        <ele>308.2</ele>
        <time>2023-05-28T08:36:50Z</time>
      </trkpt>
      <trkpt lat="45.78639" lon="5.40636">
        <ele>308.4</ele>
        <time>2023-05-28T08:36:52Z</time>
      </trkpt>
      <trkpt lat="45.78636" lon="5.40633">
        <ele>308.4</ele>
        <time>2023-05-28T08:36:53Z</time>
      </trkpt>
      <trkpt lat="45.78634" lon="5.4063">
        <ele>309</ele>
        <time>2023-05-28T08:36:54Z</time>
      </trkpt>
      <trkpt lat="45.78632" lon="5.40627">
        <ele>309</ele>
        <time>2023-05-28T08:36:55Z</time>
      </trkpt>
      <trkpt lat="45.78629" lon="5.40624">
        <ele>309.2</ele>
        <time>2023-05-28T08:36:56Z</time>
      </trkpt>
      <trkpt lat="45.78625" lon="5.40622">
        <ele>309.4</ele>
        <time>2023-05-28T08:36:57Z</time>
      </trkpt>
      <trkpt lat="45.78622" lon="5.40619">
        <ele>310</ele>
        <time>2023-05-28T08:36:58Z</time>
      </trkpt>
      <trkpt lat="45.78619" lon="5.40618">
        <ele>310.2</ele>
        <time>2023-05-28T08:36:59Z</time>
      </trkpt>
      <trkpt lat="45.78617" lon="5.40615">
        <ele>310.4</ele>
        <time>2023-05-28T08:37:00Z</time>
      </trkpt>
      <trkpt lat="45.78615" lon="5.40613">
        <ele>310.6</ele>
        <time>2023-05-28T08:37:01Z</time>
      </trkpt>
      <trkpt lat="45.78612" lon="5.40611">
        <ele>310.8</ele>
        <time>2023-05-28T08:37:02Z</time>
      </trkpt>
      <trkpt lat="45.7861" lon="5.40609">
        <ele>311</ele>
        <time>2023-05-28T08:37:03Z</time>
      </trkpt>
      <trkpt lat="45.78607" lon="5.40607">
        <ele>311.2</ele>
        <time>2023-05-28T08:37:04Z</time>
      </trkpt>
      <trkpt lat="45.78604" lon="5.40605">
        <ele>311.6</ele>
        <time>2023-05-28T08:37:05Z</time>
      </trkpt>
      <trkpt lat="45.78601" lon="5.40603">
        <ele>311.6</ele>
        <time>2023-05-28T08:37:06Z</time>
      </trkpt>
      <trkpt lat="45.78597" lon="5.40602">
        <ele>311.8</ele>
        <time>2023-05-28T08:37:07Z</time>
      </trkpt>
      <trkpt lat="45.78594" lon="5.40601">
        <ele>312</ele>
        <time>2023-05-28T08:37:08Z</time>
      </trkpt>
      <trkpt lat="45.78591" lon="5.40601">
        <ele>312.4</ele>
        <time>2023-05-28T08:37:09Z</time>
      </trkpt>
      <trkpt lat="45.78588" lon="5.40601">
        <ele>312.8</ele>
        <time>2023-05-28T08:37:10Z</time>
      </trkpt>
      <trkpt lat="45.78584" lon="5.40601">
        <ele>313</ele>
        <time>2023-05-28T08:37:11Z</time>
      </trkpt>
      <trkpt lat="45.78581" lon="5.40601">
        <ele>313.2</ele>
        <time>2023-05-28T08:37:12Z</time>
      </trkpt>
      <trkpt lat="45.78578" lon="5.40601">
        <ele>313.4</ele>
        <time>2023-05-28T08:37:13Z</time>
      </trkpt>
      <trkpt lat="45.78574" lon="5.40601">
        <ele>313.6</ele>
        <time>2023-05-28T08:37:14Z</time>
      </trkpt>
      <trkpt lat="45.78571" lon="5.40601">
        <ele>313.8</ele>
        <time>2023-05-28T08:37:15Z</time>
      </trkpt>
      <trkpt lat="45.78568" lon="5.40602">
        <ele>314</ele>
        <time>2023-05-28T08:37:16Z</time>
      </trkpt>
      <trkpt lat="45.78565" lon="5.40603">
        <ele>314</ele>
        <time>2023-05-28T08:37:17Z</time>
      </trkpt>
      <trkpt lat="45.78562" lon="5.40604">
        <ele>314.2</ele>
        <time>2023-05-28T08:37:18Z</time>
      </trkpt>
      <trkpt lat="45.78558" lon="5.40605">
        <ele>314.4</ele>
        <time>2023-05-28T08:37:19Z</time>
      </trkpt>
      <trkpt lat="45.78554" lon="5.40607">
        <ele>314.4</ele>
        <time>2023-05-28T08:37:20Z</time>
      </trkpt>
      <trkpt lat="45.78551" lon="5.40608">
        <ele>314.8</ele>
        <time>2023-05-28T08:37:21Z</time>
      </trkpt>
      <trkpt lat="45.78549" lon="5.40609">
        <ele>315</ele>
        <time>2023-05-28T08:37:22Z</time>
      </trkpt>
      <trkpt lat="45.78545" lon="5.4061">
        <ele>315.2</ele>
        <time>2023-05-28T08:37:23Z</time>
      </trkpt>
      <trkpt lat="45.78543" lon="5.40611">
        <ele>315.2</ele>
        <time>2023-05-28T08:37:24Z</time>
      </trkpt>
      <trkpt lat="45.78539" lon="5.4061">
        <ele>315.4</ele>
        <time>2023-05-28T08:37:25Z</time>
      </trkpt>
      <trkpt lat="45.78536" lon="5.40606">
        <ele>315.6</ele>
        <time>2023-05-28T08:37:26Z</time>
      </trkpt>
      <trkpt lat="45.78535" lon="5.40602">
        <ele>315.6</ele>
        <time>2023-05-28T08:37:27Z</time>
      </trkpt>
      <trkpt lat="45.78532" lon="5.40597">
        <ele>315.8</ele>
        <time>2023-05-28T08:37:28Z</time>
      </trkpt>
      <trkpt lat="45.78529" lon="5.40593">
        <ele>315.8</ele>
        <time>2023-05-28T08:37:29Z</time>
      </trkpt>
      <trkpt lat="45.78525" lon="5.40587">
        <ele>316</ele>
        <time>2023-05-28T08:37:30Z</time>
      </trkpt>
      <trkpt lat="45.78522" lon="5.40581">
        <ele>316</ele>
        <time>2023-05-28T08:37:31Z</time>
      </trkpt>
      <trkpt lat="45.78519" lon="5.40577">
        <ele>316.2</ele>
        <time>2023-05-28T08:37:32Z</time>
      </trkpt>
      <trkpt lat="45.78516" lon="5.40571">
        <ele>316.2</ele>
        <time>2023-05-28T08:37:33Z</time>
      </trkpt>
      <trkpt lat="45.78513" lon="5.40565">
        <ele>316.4</ele>
        <time>2023-05-28T08:37:34Z</time>
      </trkpt>
      <trkpt lat="45.78509" lon="5.40557">
        <ele>316.4</ele>
        <time>2023-05-28T08:37:35Z</time>
      </trkpt>
      <trkpt lat="45.78505" lon="5.40551">
        <ele>316.4</ele>
        <time>2023-05-28T08:37:36Z</time>
      </trkpt>
      <trkpt lat="45.78503" lon="5.40545">
        <ele>316.6</ele>
        <time>2023-05-28T08:37:37Z</time>
      </trkpt>
      <trkpt lat="45.78499" lon="5.40538">
        <ele>316.6</ele>
        <time>2023-05-28T08:37:38Z</time>
      </trkpt>
      <trkpt lat="45.78496" lon="5.40529">
        <ele>316.6</ele>
        <time>2023-05-28T08:37:39Z</time>
      </trkpt>
      <trkpt lat="45.78494" lon="5.40522">
        <ele>316.6</ele>
        <time>2023-05-28T08:37:40Z</time>
      </trkpt>
      <trkpt lat="45.78492" lon="5.4051">
        <ele>316.6</ele>
        <time>2023-05-28T08:37:41Z</time>
      </trkpt>
      <trkpt lat="45.78492" lon="5.40502">
        <ele>316.6</ele>
        <time>2023-05-28T08:37:42Z</time>
      </trkpt>
      <trkpt lat="45.78493" lon="5.40491">
        <ele>316.6</ele>
        <time>2023-05-28T08:37:43Z</time>
      </trkpt>
      <trkpt lat="45.78496" lon="5.4048">
        <ele>316.4</ele>
        <time>2023-05-28T08:37:44Z</time>
      </trkpt>
      <trkpt lat="45.78499" lon="5.40466">
        <ele>316.4</ele>
        <time>2023-05-28T08:37:45Z</time>
      </trkpt>
      <trkpt lat="45.785" lon="5.40453">
        <ele>316.2</ele>
        <time>2023-05-28T08:37:46Z</time>
      </trkpt>
      <trkpt lat="45.78499" lon="5.40439">
        <ele>316</ele>
        <time>2023-05-28T08:37:47Z</time>
      </trkpt>
      <trkpt lat="45.78497" lon="5.40428">
        <ele>315.8</ele>
        <time>2023-05-28T08:37:48Z</time>
      </trkpt>
      <trkpt lat="45.78495" lon="5.40414">
        <ele>315.8</ele>
        <time>2023-05-28T08:37:49Z</time>
      </trkpt>
      <trkpt lat="45.78492" lon="5.40398">
        <ele>315.6</ele>
        <time>2023-05-28T08:37:50Z</time>
      </trkpt>
      <trkpt lat="45.78489" lon="5.40387">
        <ele>315.4</ele>
        <time>2023-05-28T08:37:51Z</time>
      </trkpt>
      <trkpt lat="45.78485" lon="5.40374">
        <ele>315.4</ele>
        <time>2023-05-28T08:37:52Z</time>
      </trkpt>
      <trkpt lat="45.78482" lon="5.40361">
        <ele>315.2</ele>
        <time>2023-05-28T08:37:53Z</time>
      </trkpt>
      <trkpt lat="45.78479" lon="5.40349">
        <ele>315</ele>
        <time>2023-05-28T08:37:54Z</time>
      </trkpt>
      <trkpt lat="45.78475" lon="5.40337">
        <ele>314.8</ele>
        <time>2023-05-28T08:37:55Z</time>
      </trkpt>
      <trkpt lat="45.78472" lon="5.40324">
        <ele>314.8</ele>
        <time>2023-05-28T08:37:56Z</time>
      </trkpt>
      <trkpt lat="45.78469" lon="5.40315">
        <ele>314.6</ele>
        <time>2023-05-28T08:37:57Z</time>
      </trkpt>
      <trkpt lat="45.78466" lon="5.40304">
        <ele>314.4</ele>
        <time>2023-05-28T08:37:58Z</time>
      </trkpt>
      <trkpt lat="45.78464" lon="5.40295">
        <ele>314.2</ele>
        <time>2023-05-28T08:37:59Z</time>
      </trkpt>
      <trkpt lat="45.78462" lon="5.40286">
        <ele>314.2</ele>
        <time>2023-05-28T08:38:00Z</time>
      </trkpt>
      <trkpt lat="45.7846" lon="5.40278">
        <ele>314</ele>
        <time>2023-05-28T08:38:01Z</time>
      </trkpt>
      <trkpt lat="45.78458" lon="5.40271">
        <ele>314</ele>
        <time>2023-05-28T08:38:02Z</time>
      </trkpt>
      <trkpt lat="45.78457" lon="5.40264">
        <ele>313.8</ele>
        <time>2023-05-28T08:38:03Z</time>
      </trkpt>
      <trkpt lat="45.78455" lon="5.40258">
        <ele>313.8</ele>
        <time>2023-05-28T08:38:04Z</time>
      </trkpt>
      <trkpt lat="45.78453" lon="5.40251">
        <ele>314</ele>
        <time>2023-05-28T08:38:05Z</time>
      </trkpt>
      <trkpt lat="45.78451" lon="5.40245">
        <ele>314</ele>
        <time>2023-05-28T08:38:06Z</time>
      </trkpt>
      <trkpt lat="45.7845" lon="5.40238">
        <ele>314.2</ele>
        <time>2023-05-28T08:38:07Z</time>
      </trkpt>
      <trkpt lat="45.78448" lon="5.40232">
        <ele>314</ele>
        <time>2023-05-28T08:38:08Z</time>
      </trkpt>
      <trkpt lat="45.78446" lon="5.40226">
        <ele>314.4</ele>
        <time>2023-05-28T08:38:09Z</time>
      </trkpt>
      <trkpt lat="45.78445" lon="5.40219">
        <ele>314.4</ele>
        <time>2023-05-28T08:38:10Z</time>
      </trkpt>
      <trkpt lat="45.78442" lon="5.40206">
        <ele>314.4</ele>
        <time>2023-05-28T08:38:12Z</time>
      </trkpt>
      <trkpt lat="45.7844" lon="5.40199">
        <ele>314.4</ele>
        <time>2023-05-28T08:38:13Z</time>
      </trkpt>
      <trkpt lat="45.78439" lon="5.40192">
        <ele>314.4</ele>
        <time>2023-05-28T08:38:14Z</time>
      </trkpt>
      <trkpt lat="45.78437" lon="5.40185">
        <ele>314.2</ele>
        <time>2023-05-28T08:38:15Z</time>
      </trkpt>
      <trkpt lat="45.78436" lon="5.40178">
        <ele>314.2</ele>
        <time>2023-05-28T08:38:16Z</time>
      </trkpt>
      <trkpt lat="45.78434" lon="5.40171">
        <ele>314.2</ele>
        <time>2023-05-28T08:38:17Z</time>
      </trkpt>
      <trkpt lat="45.78432" lon="5.40164">
        <ele>314</ele>
        <time>2023-05-28T08:38:18Z</time>
      </trkpt>
      <trkpt lat="45.78431" lon="5.40157">
        <ele>314</ele>
        <time>2023-05-28T08:38:19Z</time>
      </trkpt>
      <trkpt lat="45.7843" lon="5.4015">
        <ele>313.6</ele>
        <time>2023-05-28T08:38:20Z</time>
      </trkpt>
      <trkpt lat="45.78428" lon="5.40143">
        <ele>313.4</ele>
        <time>2023-05-28T08:38:21Z</time>
      </trkpt>
      <trkpt lat="45.78427" lon="5.40136">
        <ele>313.4</ele>
        <time>2023-05-28T08:38:22Z</time>
      </trkpt>
      <trkpt lat="45.78425" lon="5.4013">
        <ele>313.2</ele>
        <time>2023-05-28T08:38:23Z</time>
      </trkpt>
      <trkpt lat="45.78424" lon="5.40122">
        <ele>313.2</ele>
        <time>2023-05-28T08:38:24Z</time>
      </trkpt>
      <trkpt lat="45.78422" lon="5.40115">
        <ele>313.2</ele>
        <time>2023-05-28T08:38:25Z</time>
      </trkpt>
      <trkpt lat="45.7842" lon="5.40108">
        <ele>313.2</ele>
        <time>2023-05-28T08:38:26Z</time>
      </trkpt>
      <trkpt lat="45.78419" lon="5.401">
        <ele>313.2</ele>
        <time>2023-05-28T08:38:27Z</time>
      </trkpt>
      <trkpt lat="45.78416" lon="5.40087">
        <ele>313.2</ele>
        <time>2023-05-28T08:38:29Z</time>
      </trkpt>
      <trkpt lat="45.78415" lon="5.40082">
        <ele>313.2</ele>
        <time>2023-05-28T08:38:30Z</time>
      </trkpt>
      <trkpt lat="45.78414" lon="5.40077">
        <ele>313.2</ele>
        <time>2023-05-28T08:38:31Z</time>
      </trkpt>
      <trkpt lat="45.78414" lon="5.40074">
        <ele>313.2</ele>
        <time>2023-05-28T08:38:32Z</time>
      </trkpt>
      <trkpt lat="45.78413" lon="5.40073">
        <ele>313.2</ele>
        <time>2023-05-28T08:38:33Z</time>
      </trkpt>
      <trkpt lat="45.78413" lon="5.40073">
        <ele>313.2</ele>
        <time>2023-05-28T08:38:34Z</time>
      </trkpt>
      <trkpt lat="45.78413" lon="5.40073">
        <ele>313.2</ele>
        <time>2023-05-28T08:38:35Z</time>
      </trkpt>
      <trkpt lat="45.78413" lon="5.40073">
        <ele>313.2</ele>
        <time>2023-05-28T08:38:36Z</time>
      </trkpt>
      <trkpt lat="45.78413" lon="5.40073">
        <ele>313.4</ele>
        <time>2023-05-28T08:38:37Z</time>
      </trkpt>
      <trkpt lat="45.78413" lon="5.40073">
        <ele>313.4</ele>
        <time>2023-05-28T08:38:39Z</time>
      </trkpt>
      <trkpt lat="45.78413" lon="5.40072">
        <ele>313.4</ele>
        <time>2023-05-28T08:38:40Z</time>
      </trkpt>
      <trkpt lat="45.78413" lon="5.4007">
        <ele>313.4</ele>
        <time>2023-05-28T08:38:41Z</time>
      </trkpt>
      <trkpt lat="45.78412" lon="5.40067">
        <ele>313.4</ele>
        <time>2023-05-28T08:38:42Z</time>
      </trkpt>
      <trkpt lat="45.78411" lon="5.40064">
        <ele>313.4</ele>
        <time>2023-05-28T08:38:43Z</time>
      </trkpt>
      <trkpt lat="45.7841" lon="5.40059">
        <ele>313.4</ele>
        <time>2023-05-28T08:38:44Z</time>
      </trkpt>
      <trkpt lat="45.78409" lon="5.40054">
        <ele>313.6</ele>
        <time>2023-05-28T08:38:45Z</time>
      </trkpt>
      <trkpt lat="45.78407" lon="5.40048">
        <ele>313.6</ele>
        <time>2023-05-28T08:38:46Z</time>
      </trkpt>
      <trkpt lat="45.78406" lon="5.40042">
        <ele>313.6</ele>
        <time>2023-05-28T08:38:47Z</time>
      </trkpt>
      <trkpt lat="45.78405" lon="5.40035">
        <ele>313.4</ele>
        <time>2023-05-28T08:38:48Z</time>
      </trkpt>
      <trkpt lat="45.78402" lon="5.40023">
        <ele>313.4</ele>
        <time>2023-05-28T08:38:50Z</time>
      </trkpt>
      <trkpt lat="45.78401" lon="5.40016">
        <ele>313.4</ele>
        <time>2023-05-28T08:38:51Z</time>
      </trkpt>
      <trkpt lat="45.78399" lon="5.40009">
        <ele>313.4</ele>
        <time>2023-05-28T08:38:52Z</time>
      </trkpt>
      <trkpt lat="45.78397" lon="5.40002">
        <ele>313.4</ele>
        <time>2023-05-28T08:38:53Z</time>
      </trkpt>
      <trkpt lat="45.78396" lon="5.39994">
        <ele>313.4</ele>
        <time>2023-05-28T08:38:54Z</time>
      </trkpt>
      <trkpt lat="45.78394" lon="5.39987">
        <ele>313.4</ele>
        <time>2023-05-28T08:38:55Z</time>
      </trkpt>
      <trkpt lat="45.78392" lon="5.39979">
        <ele>313.4</ele>
        <time>2023-05-28T08:38:56Z</time>
      </trkpt>
      <trkpt lat="45.7839" lon="5.39971">
        <ele>313.4</ele>
        <time>2023-05-28T08:38:57Z</time>
      </trkpt>
      <trkpt lat="45.78389" lon="5.39962">
        <ele>313.4</ele>
        <time>2023-05-28T08:38:58Z</time>
      </trkpt>
      <trkpt lat="45.78387" lon="5.39952">
        <ele>313.4</ele>
        <time>2023-05-28T08:38:59Z</time>
      </trkpt>
      <trkpt lat="45.78385" lon="5.39946">
        <ele>313.6</ele>
        <time>2023-05-28T08:39:00Z</time>
      </trkpt>
      <trkpt lat="45.78383" lon="5.39938">
        <ele>313.8</ele>
        <time>2023-05-28T08:39:01Z</time>
      </trkpt>
      <trkpt lat="45.78381" lon="5.3993">
        <ele>313.8</ele>
        <time>2023-05-28T08:39:02Z</time>
      </trkpt>
      <trkpt lat="45.78377" lon="5.39923">
        <ele>313.8</ele>
        <time>2023-05-28T08:39:03Z</time>
      </trkpt>
      <trkpt lat="45.78374" lon="5.39916">
        <ele>313.8</ele>
        <time>2023-05-28T08:39:04Z</time>
      </trkpt>
      <trkpt lat="45.78371" lon="5.39909">
        <ele>313.8</ele>
        <time>2023-05-28T08:39:05Z</time>
      </trkpt>
      <trkpt lat="45.78367" lon="5.39903">
        <ele>313.8</ele>
        <time>2023-05-28T08:39:06Z</time>
      </trkpt>
      <trkpt lat="45.78363" lon="5.39897">
        <ele>313.8</ele>
        <time>2023-05-28T08:39:07Z</time>
      </trkpt>
      <trkpt lat="45.78358" lon="5.39892">
        <ele>313.8</ele>
        <time>2023-05-28T08:39:08Z</time>
      </trkpt>
      <trkpt lat="45.78353" lon="5.39888">
        <ele>313.8</ele>
        <time>2023-05-28T08:39:09Z</time>
      </trkpt>
      <trkpt lat="45.78347" lon="5.39885">
        <ele>313.8</ele>
        <time>2023-05-28T08:39:10Z</time>
      </trkpt>
      <trkpt lat="45.78342" lon="5.39881">
        <ele>313.8</ele>
        <time>2023-05-28T08:39:11Z</time>
      </trkpt>
      <trkpt lat="45.78336" lon="5.39876">
        <ele>313.8</ele>
        <time>2023-05-28T08:39:12Z</time>
      </trkpt>
      <trkpt lat="45.78331" lon="5.39871">
        <ele>313.6</ele>
        <time>2023-05-28T08:39:13Z</time>
      </trkpt>
      <trkpt lat="45.78326" lon="5.39863">
        <ele>313.6</ele>
        <time>2023-05-28T08:39:14Z</time>
      </trkpt>
      <trkpt lat="45.78322" lon="5.39858">
        <ele>313.6</ele>
        <time>2023-05-28T08:39:15Z</time>
      </trkpt>
      <trkpt lat="45.78318" lon="5.39852">
        <ele>313.8</ele>
        <time>2023-05-28T08:39:16Z</time>
      </trkpt>
      <trkpt lat="45.78314" lon="5.39845">
        <ele>313.6</ele>
        <time>2023-05-28T08:39:17Z</time>
      </trkpt>
      <trkpt lat="45.78311" lon="5.39838">
        <ele>313.4</ele>
        <time>2023-05-28T08:39:18Z</time>
      </trkpt>
      <trkpt lat="45.78308" lon="5.3983">
        <ele>313.2</ele>
        <time>2023-05-28T08:39:19Z</time>
      </trkpt>
      <trkpt lat="45.78305" lon="5.39822">
        <ele>313.2</ele>
        <time>2023-05-28T08:39:20Z</time>
      </trkpt>
      <trkpt lat="45.78302" lon="5.39814">
        <ele>313.2</ele>
        <time>2023-05-28T08:39:21Z</time>
      </trkpt>
      <trkpt lat="45.783" lon="5.39806">
        <ele>313.2</ele>
        <time>2023-05-28T08:39:22Z</time>
      </trkpt>
      <trkpt lat="45.78297" lon="5.39797">
        <ele>313.2</ele>
        <time>2023-05-28T08:39:23Z</time>
      </trkpt>
      <trkpt lat="45.78295" lon="5.3979">
        <ele>313</ele>
        <time>2023-05-28T08:39:24Z</time>
      </trkpt>
      <trkpt lat="45.78292" lon="5.39783">
        <ele>312.8</ele>
        <time>2023-05-28T08:39:25Z</time>
      </trkpt>
      <trkpt lat="45.78289" lon="5.39775">
        <ele>312.8</ele>
        <time>2023-05-28T08:39:26Z</time>
      </trkpt>
      <trkpt lat="45.78286" lon="5.39768">
        <ele>312.8</ele>
        <time>2023-05-28T08:39:27Z</time>
      </trkpt>
      <trkpt lat="45.78284" lon="5.3976">
        <ele>312.8</ele>
        <time>2023-05-28T08:39:28Z</time>
      </trkpt>
      <trkpt lat="45.78281" lon="5.39752">
        <ele>312.8</ele>
        <time>2023-05-28T08:39:29Z</time>
      </trkpt>
      <trkpt lat="45.78278" lon="5.39745">
        <ele>312.8</ele>
        <time>2023-05-28T08:39:30Z</time>
      </trkpt>
      <trkpt lat="45.78275" lon="5.39737">
        <ele>312.8</ele>
        <time>2023-05-28T08:39:31Z</time>
      </trkpt>
      <trkpt lat="45.78273" lon="5.3973">
        <ele>312.8</ele>
        <time>2023-05-28T08:39:32Z</time>
      </trkpt>
      <trkpt lat="45.7827" lon="5.39722">
        <ele>313</ele>
        <time>2023-05-28T08:39:33Z</time>
      </trkpt>
      <trkpt lat="45.78268" lon="5.39715">
        <ele>313</ele>
        <time>2023-05-28T08:39:34Z</time>
      </trkpt>
      <trkpt lat="45.78265" lon="5.39707">
        <ele>313.2</ele>
        <time>2023-05-28T08:39:35Z</time>
      </trkpt>
      <trkpt lat="45.78262" lon="5.39699">
        <ele>313.2</ele>
        <time>2023-05-28T08:39:36Z</time>
      </trkpt>
      <trkpt lat="45.7826" lon="5.39692">
        <ele>313.2</ele>
        <time>2023-05-28T08:39:37Z</time>
      </trkpt>
      <trkpt lat="45.78257" lon="5.39684">
        <ele>313.4</ele>
        <time>2023-05-28T08:39:38Z</time>
      </trkpt>
      <trkpt lat="45.78254" lon="5.39676">
        <ele>313.4</ele>
        <time>2023-05-28T08:39:39Z</time>
      </trkpt>
      <trkpt lat="45.78251" lon="5.39668">
        <ele>313.6</ele>
        <time>2023-05-28T08:39:40Z</time>
      </trkpt>
      <trkpt lat="45.78249" lon="5.3966">
        <ele>313.6</ele>
        <time>2023-05-28T08:39:41Z</time>
      </trkpt>
      <trkpt lat="45.78246" lon="5.39652">
        <ele>313.6</ele>
        <time>2023-05-28T08:39:42Z</time>
      </trkpt>
      <trkpt lat="45.78243" lon="5.39643">
        <ele>313.8</ele>
        <time>2023-05-28T08:39:43Z</time>
      </trkpt>
      <trkpt lat="45.7824" lon="5.39635">
        <ele>313.8</ele>
        <time>2023-05-28T08:39:44Z</time>
      </trkpt>
      <trkpt lat="45.78237" lon="5.39625">
        <ele>313.8</ele>
        <time>2023-05-28T08:39:45Z</time>
      </trkpt>
      <trkpt lat="45.78234" lon="5.39618">
        <ele>313.8</ele>
        <time>2023-05-28T08:39:46Z</time>
      </trkpt>
      <trkpt lat="45.7823" lon="5.39611">
        <ele>313.8</ele>
        <time>2023-05-28T08:39:47Z</time>
      </trkpt>
      <trkpt lat="45.78226" lon="5.39603">
        <ele>313.8</ele>
        <time>2023-05-28T08:39:48Z</time>
      </trkpt>
      <trkpt lat="45.78222" lon="5.39597">
        <ele>313.8</ele>
        <time>2023-05-28T08:39:49Z</time>
      </trkpt>
      <trkpt lat="45.78217" lon="5.3959">
        <ele>313.8</ele>
        <time>2023-05-28T08:39:50Z</time>
      </trkpt>
      <trkpt lat="45.78211" lon="5.39585">
        <ele>313.8</ele>
        <time>2023-05-28T08:39:51Z</time>
      </trkpt>
      <trkpt lat="45.78206" lon="5.3958">
        <ele>313.8</ele>
        <time>2023-05-28T08:39:52Z</time>
      </trkpt>
      <trkpt lat="45.782" lon="5.39576">
        <ele>314</ele>
        <time>2023-05-28T08:39:53Z</time>
      </trkpt>
      <trkpt lat="45.78194" lon="5.39572">
        <ele>314</ele>
        <time>2023-05-28T08:39:54Z</time>
      </trkpt>
      <trkpt lat="45.78188" lon="5.39568">
        <ele>314</ele>
        <time>2023-05-28T08:39:55Z</time>
      </trkpt>
      <trkpt lat="45.78182" lon="5.39564">
        <ele>314</ele>
        <time>2023-05-28T08:39:56Z</time>
      </trkpt>
      <trkpt lat="45.78176" lon="5.39561">
        <ele>314</ele>
        <time>2023-05-28T08:39:57Z</time>
      </trkpt>
      <trkpt lat="45.7817" lon="5.39559">
        <ele>314</ele>
        <time>2023-05-28T08:39:58Z</time>
      </trkpt>
      <trkpt lat="45.78164" lon="5.39556">
        <ele>314.2</ele>
        <time>2023-05-28T08:39:59Z</time>
      </trkpt>
      <trkpt lat="45.78159" lon="5.39553">
        <ele>314.2</ele>
        <time>2023-05-28T08:40:00Z</time>
      </trkpt>
      <trkpt lat="45.78149" lon="5.39547">
        <ele>314.4</ele>
        <time>2023-05-28T08:40:02Z</time>
      </trkpt>
      <trkpt lat="45.78144" lon="5.39545">
        <ele>314.6</ele>
        <time>2023-05-28T08:40:03Z</time>
      </trkpt>
      <trkpt lat="45.7814" lon="5.39542">
        <ele>314.8</ele>
        <time>2023-05-28T08:40:04Z</time>
      </trkpt>
      <trkpt lat="45.78135" lon="5.3954">
        <ele>314.8</ele>
        <time>2023-05-28T08:40:05Z</time>
      </trkpt>
      <trkpt lat="45.78131" lon="5.39538">
        <ele>315</ele>
        <time>2023-05-28T08:40:06Z</time>
      </trkpt>
      <trkpt lat="45.78127" lon="5.39536">
        <ele>315.4</ele>
        <time>2023-05-28T08:40:07Z</time>
      </trkpt>
      <trkpt lat="45.78123" lon="5.39533">
        <ele>316</ele>
        <time>2023-05-28T08:40:08Z</time>
      </trkpt>
      <trkpt lat="45.78119" lon="5.3953">
        <ele>316.4</ele>
        <time>2023-05-28T08:40:09Z</time>
      </trkpt>
      <trkpt lat="45.78116" lon="5.39528">
        <ele>317</ele>
        <time>2023-05-28T08:40:10Z</time>
      </trkpt>
      <trkpt lat="45.78113" lon="5.39525">
        <ele>317.6</ele>
        <time>2023-05-28T08:40:11Z</time>
      </trkpt>
      <trkpt lat="45.7811" lon="5.39523">
        <ele>317.8</ele>
        <time>2023-05-28T08:40:12Z</time>
      </trkpt>
      <trkpt lat="45.78107" lon="5.3952">
        <ele>318.2</ele>
        <time>2023-05-28T08:40:13Z</time>
      </trkpt>
      <trkpt lat="45.78104" lon="5.39517">
        <ele>318.4</ele>
        <time>2023-05-28T08:40:14Z</time>
      </trkpt>
      <trkpt lat="45.78101" lon="5.39514">
        <ele>318.8</ele>
        <time>2023-05-28T08:40:15Z</time>
      </trkpt>
      <trkpt lat="45.78098" lon="5.39511">
        <ele>319.2</ele>
        <time>2023-05-28T08:40:16Z</time>
      </trkpt>
      <trkpt lat="45.78095" lon="5.39508">
        <ele>319.6</ele>
        <time>2023-05-28T08:40:17Z</time>
      </trkpt>
      <trkpt lat="45.78093" lon="5.39505">
        <ele>319.6</ele>
        <time>2023-05-28T08:40:18Z</time>
      </trkpt>
      <trkpt lat="45.7809" lon="5.39502">
        <ele>319.8</ele>
        <time>2023-05-28T08:40:19Z</time>
      </trkpt>
      <trkpt lat="45.78085" lon="5.39496">
        <ele>320</ele>
        <time>2023-05-28T08:40:21Z</time>
      </trkpt>
      <trkpt lat="45.78082" lon="5.39492">
        <ele>320.2</ele>
        <time>2023-05-28T08:40:22Z</time>
      </trkpt>
      <trkpt lat="45.78079" lon="5.39489">
        <ele>320.4</ele>
        <time>2023-05-28T08:40:23Z</time>
      </trkpt>
      <trkpt lat="45.78077" lon="5.39485">
        <ele>320.6</ele>
        <time>2023-05-28T08:40:24Z</time>
      </trkpt>
      <trkpt lat="45.78074" lon="5.39482">
        <ele>320.6</ele>
        <time>2023-05-28T08:40:25Z</time>
      </trkpt>
      <trkpt lat="45.78071" lon="5.39478">
        <ele>320.8</ele>
        <time>2023-05-28T08:40:26Z</time>
      </trkpt>
      <trkpt lat="45.78068" lon="5.39474">
        <ele>320.8</ele>
        <time>2023-05-28T08:40:27Z</time>
      </trkpt>
      <trkpt lat="45.78065" lon="5.3947">
        <ele>320.8</ele>
        <time>2023-05-28T08:40:28Z</time>
      </trkpt>
      <trkpt lat="45.78062" lon="5.39467">
        <ele>321</ele>
        <time>2023-05-28T08:40:29Z</time>
      </trkpt>
      <trkpt lat="45.78059" lon="5.39463">
        <ele>321</ele>
        <time>2023-05-28T08:40:30Z</time>
      </trkpt>
      <trkpt lat="45.78056" lon="5.39459">
        <ele>321</ele>
        <time>2023-05-28T08:40:31Z</time>
      </trkpt>
      <trkpt lat="45.78052" lon="5.39455">
        <ele>321</ele>
        <time>2023-05-28T08:40:32Z</time>
      </trkpt>
      <trkpt lat="45.78049" lon="5.39452">
        <ele>321</ele>
        <time>2023-05-28T08:40:33Z</time>
      </trkpt>
      <trkpt lat="45.78046" lon="5.39448">
        <ele>321</ele>
        <time>2023-05-28T08:40:34Z</time>
      </trkpt>
      <trkpt lat="45.78043" lon="5.39444">
        <ele>321</ele>
        <time>2023-05-28T08:40:35Z</time>
      </trkpt>
      <trkpt lat="45.7804" lon="5.39441">
        <ele>321.4</ele>
        <time>2023-05-28T08:40:36Z</time>
      </trkpt>
      <trkpt lat="45.78037" lon="5.39437">
        <ele>321.4</ele>
        <time>2023-05-28T08:40:37Z</time>
      </trkpt>
      <trkpt lat="45.78034" lon="5.39434">
        <ele>321.8</ele>
        <time>2023-05-28T08:40:38Z</time>
      </trkpt>
      <trkpt lat="45.7803" lon="5.3943">
        <ele>321.8</ele>
        <time>2023-05-28T08:40:39Z</time>
      </trkpt>
      <trkpt lat="45.78027" lon="5.39426">
        <ele>321.8</ele>
        <time>2023-05-28T08:40:40Z</time>
      </trkpt>
      <trkpt lat="45.78024" lon="5.39423">
        <ele>321.8</ele>
        <time>2023-05-28T08:40:41Z</time>
      </trkpt>
      <trkpt lat="45.78021" lon="5.3942">
        <ele>322</ele>
        <time>2023-05-28T08:40:42Z</time>
      </trkpt>
      <trkpt lat="45.78018" lon="5.39416">
        <ele>322</ele>
        <time>2023-05-28T08:40:43Z</time>
      </trkpt>
      <trkpt lat="45.78015" lon="5.39413">
        <ele>322</ele>
        <time>2023-05-28T08:40:44Z</time>
      </trkpt>
      <trkpt lat="45.78012" lon="5.3941">
        <ele>322</ele>
        <time>2023-05-28T08:40:45Z</time>
      </trkpt>
      <trkpt lat="45.78009" lon="5.39407">
        <ele>322</ele>
        <time>2023-05-28T08:40:46Z</time>
      </trkpt>
      <trkpt lat="45.78002" lon="5.39403">
        <ele>322.2</ele>
        <time>2023-05-28T08:40:48Z</time>
      </trkpt>
      <trkpt lat="45.77999" lon="5.39401">
        <ele>322.2</ele>
        <time>2023-05-28T08:40:49Z</time>
      </trkpt>
      <trkpt lat="45.77996" lon="5.39398">
        <ele>322.2</ele>
        <time>2023-05-28T08:40:50Z</time>
      </trkpt>
      <trkpt lat="45.77991" lon="5.39396">
        <ele>322.2</ele>
        <time>2023-05-28T08:40:51Z</time>
      </trkpt>
      <trkpt lat="45.77987" lon="5.39393">
        <ele>322.2</ele>
        <time>2023-05-28T08:40:52Z</time>
      </trkpt>
      <trkpt lat="45.77984" lon="5.39391">
        <ele>322.2</ele>
        <time>2023-05-28T08:40:53Z</time>
      </trkpt>
      <trkpt lat="45.7798" lon="5.3939">
        <ele>322.2</ele>
        <time>2023-05-28T08:40:54Z</time>
      </trkpt>
      <trkpt lat="45.77976" lon="5.39388">
        <ele>322.2</ele>
        <time>2023-05-28T08:40:55Z</time>
      </trkpt>
      <trkpt lat="45.77972" lon="5.39386">
        <ele>322.4</ele>
        <time>2023-05-28T08:40:56Z</time>
      </trkpt>
      <trkpt lat="45.77968" lon="5.39385">
        <ele>322.4</ele>
        <time>2023-05-28T08:40:57Z</time>
      </trkpt>
      <trkpt lat="45.77964" lon="5.39383">
        <ele>322.6</ele>
        <time>2023-05-28T08:40:58Z</time>
      </trkpt>
      <trkpt lat="45.77959" lon="5.39381">
        <ele>322.6</ele>
        <time>2023-05-28T08:40:59Z</time>
      </trkpt>
      <trkpt lat="45.77955" lon="5.3938">
        <ele>322.6</ele>
        <time>2023-05-28T08:41:00Z</time>
      </trkpt>
      <trkpt lat="45.77951" lon="5.39378">
        <ele>322.8</ele>
        <time>2023-05-28T08:41:01Z</time>
      </trkpt>
      <trkpt lat="45.77946" lon="5.39376">
        <ele>322.8</ele>
        <time>2023-05-28T08:41:02Z</time>
      </trkpt>
      <trkpt lat="45.77942" lon="5.39374">
        <ele>323</ele>
        <time>2023-05-28T08:41:03Z</time>
      </trkpt>
      <trkpt lat="45.77938" lon="5.39371">
        <ele>323</ele>
        <time>2023-05-28T08:41:04Z</time>
      </trkpt>
      <trkpt lat="45.77935" lon="5.39369">
        <ele>323.4</ele>
        <time>2023-05-28T08:41:05Z</time>
      </trkpt>
      <trkpt lat="45.77932" lon="5.39366">
        <ele>323.6</ele>
        <time>2023-05-28T08:41:06Z</time>
      </trkpt>
      <trkpt lat="45.77927" lon="5.39363">
        <ele>323.6</ele>
        <time>2023-05-28T08:41:07Z</time>
      </trkpt>
      <trkpt lat="45.77925" lon="5.3936">
        <ele>323.8</ele>
        <time>2023-05-28T08:41:08Z</time>
      </trkpt>
      <trkpt lat="45.77921" lon="5.39356">
        <ele>324</ele>
        <time>2023-05-28T08:41:09Z</time>
      </trkpt>
      <trkpt lat="45.77919" lon="5.39353">
        <ele>324.2</ele>
        <time>2023-05-28T08:41:10Z</time>
      </trkpt>
      <trkpt lat="45.77917" lon="5.39349">
        <ele>324.2</ele>
        <time>2023-05-28T08:41:11Z</time>
      </trkpt>
      <trkpt lat="45.77915" lon="5.39345">
        <ele>324.4</ele>
        <time>2023-05-28T08:41:12Z</time>
      </trkpt>
      <trkpt lat="45.77912" lon="5.39341">
        <ele>324.6</ele>
        <time>2023-05-28T08:41:13Z</time>
      </trkpt>
      <trkpt lat="45.7791" lon="5.39335">
        <ele>324.6</ele>
        <time>2023-05-28T08:41:14Z</time>
      </trkpt>
      <trkpt lat="45.77908" lon="5.39331">
        <ele>325</ele>
        <time>2023-05-28T08:41:15Z</time>
      </trkpt>
      <trkpt lat="45.77907" lon="5.39326">
        <ele>325.2</ele>
        <time>2023-05-28T08:41:16Z</time>
      </trkpt>
      <trkpt lat="45.77906" lon="5.39322">
        <ele>325.4</ele>
        <time>2023-05-28T08:41:17Z</time>
      </trkpt>
      <trkpt lat="45.77905" lon="5.39316">
        <ele>325.4</ele>
        <time>2023-05-28T08:41:18Z</time>
      </trkpt>
      <trkpt lat="45.77904" lon="5.39311">
        <ele>325.6</ele>
        <time>2023-05-28T08:41:19Z</time>
      </trkpt>
      <trkpt lat="45.77903" lon="5.39306">
        <ele>325.6</ele>
        <time>2023-05-28T08:41:20Z</time>
      </trkpt>
      <trkpt lat="45.77902" lon="5.39301">
        <ele>325.8</ele>
        <time>2023-05-28T08:41:21Z</time>
      </trkpt>
      <trkpt lat="45.77901" lon="5.39295">
        <ele>326.2</ele>
        <time>2023-05-28T08:41:22Z</time>
      </trkpt>
      <trkpt lat="45.77901" lon="5.3929">
        <ele>326.2</ele>
        <time>2023-05-28T08:41:23Z</time>
      </trkpt>
      <trkpt lat="45.779" lon="5.39282">
        <ele>326.6</ele>
        <time>2023-05-28T08:41:24Z</time>
      </trkpt>
      <trkpt lat="45.77899" lon="5.39276">
        <ele>326.8</ele>
        <time>2023-05-28T08:41:25Z</time>
      </trkpt>
      <trkpt lat="45.77899" lon="5.39276">
        <ele>327</ele>
        <time>2023-05-28T08:41:26Z</time>
      </trkpt>
      <trkpt lat="45.77895" lon="5.39264">
        <ele>327</ele>
        <time>2023-05-28T08:41:27Z</time>
      </trkpt>
      <trkpt lat="45.77893" lon="5.39256">
        <ele>327.2</ele>
        <time>2023-05-28T08:41:28Z</time>
      </trkpt>
      <trkpt lat="45.77888" lon="5.39241">
        <ele>327.8</ele>
        <time>2023-05-28T08:41:30Z</time>
      </trkpt>
      <trkpt lat="45.77886" lon="5.39234">
        <ele>328</ele>
        <time>2023-05-28T08:41:31Z</time>
      </trkpt>
      <trkpt lat="45.77883" lon="5.39227">
        <ele>328</ele>
        <time>2023-05-28T08:41:32Z</time>
      </trkpt>
      <trkpt lat="45.77879" lon="5.39219">
        <ele>328.4</ele>
        <time>2023-05-28T08:41:33Z</time>
      </trkpt>
      <trkpt lat="45.77877" lon="5.39213">
        <ele>328.4</ele>
        <time>2023-05-28T08:41:34Z</time>
      </trkpt>
      <trkpt lat="45.77872" lon="5.39205">
        <ele>328.6</ele>
        <time>2023-05-28T08:41:35Z</time>
      </trkpt>
      <trkpt lat="45.77869" lon="5.39199">
        <ele>328.8</ele>
        <time>2023-05-28T08:41:36Z</time>
      </trkpt>
      <trkpt lat="45.77865" lon="5.39193">
        <ele>328.8</ele>
        <time>2023-05-28T08:41:37Z</time>
      </trkpt>
      <trkpt lat="45.7786" lon="5.39186">
        <ele>329</ele>
        <time>2023-05-28T08:41:38Z</time>
      </trkpt>
      <trkpt lat="45.77855" lon="5.3918">
        <ele>329</ele>
        <time>2023-05-28T08:41:39Z</time>
      </trkpt>
      <trkpt lat="45.77851" lon="5.39176">
        <ele>329</ele>
        <time>2023-05-28T08:41:40Z</time>
      </trkpt>
      <trkpt lat="45.77847" lon="5.39172">
        <ele>329</ele>
        <time>2023-05-28T08:41:41Z</time>
      </trkpt>
      <trkpt lat="45.77842" lon="5.39168">
        <ele>329</ele>
        <time>2023-05-28T08:41:42Z</time>
      </trkpt>
      <trkpt lat="45.77838" lon="5.39164">
        <ele>329.2</ele>
        <time>2023-05-28T08:41:43Z</time>
      </trkpt>
      <trkpt lat="45.77832" lon="5.3916">
        <ele>329.2</ele>
        <time>2023-05-28T08:41:44Z</time>
      </trkpt>
      <trkpt lat="45.77828" lon="5.39156">
        <ele>329.4</ele>
        <time>2023-05-28T08:41:45Z</time>
      </trkpt>
      <trkpt lat="45.77825" lon="5.39154">
        <ele>329.4</ele>
        <time>2023-05-28T08:41:46Z</time>
      </trkpt>
      <trkpt lat="45.7782" lon="5.3915">
        <ele>329.4</ele>
        <time>2023-05-28T08:41:47Z</time>
      </trkpt>
      <trkpt lat="45.77811" lon="5.39143">
        <ele>329.6</ele>
        <time>2023-05-28T08:41:49Z</time>
      </trkpt>
      <trkpt lat="45.77807" lon="5.39139">
        <ele>329.6</ele>
        <time>2023-05-28T08:41:50Z</time>
      </trkpt>
      <trkpt lat="45.77802" lon="5.39136">
        <ele>329.8</ele>
        <time>2023-05-28T08:41:51Z</time>
      </trkpt>
      <trkpt lat="45.77799" lon="5.39133">
        <ele>329.8</ele>
        <time>2023-05-28T08:41:52Z</time>
      </trkpt>
      <trkpt lat="45.77795" lon="5.39129">
        <ele>329.8</ele>
        <time>2023-05-28T08:41:53Z</time>
      </trkpt>
      <trkpt lat="45.77791" lon="5.39126">
        <ele>330</ele>
        <time>2023-05-28T08:41:54Z</time>
      </trkpt>
      <trkpt lat="45.77785" lon="5.39121">
        <ele>330</ele>
        <time>2023-05-28T08:41:55Z</time>
      </trkpt>
      <trkpt lat="45.7778" lon="5.39118">
        <ele>330.2</ele>
        <time>2023-05-28T08:41:56Z</time>
      </trkpt>
      <trkpt lat="45.77777" lon="5.39115">
        <ele>330.2</ele>
        <time>2023-05-28T08:41:57Z</time>
      </trkpt>
      <trkpt lat="45.77772" lon="5.39111">
        <ele>330.8</ele>
        <time>2023-05-28T08:41:58Z</time>
      </trkpt>
      <trkpt lat="45.77768" lon="5.39107">
        <ele>331</ele>
        <time>2023-05-28T08:41:59Z</time>
      </trkpt>
      <trkpt lat="45.77764" lon="5.39103">
        <ele>331.2</ele>
        <time>2023-05-28T08:42:00Z</time>
      </trkpt>
      <trkpt lat="45.7776" lon="5.39098">
        <ele>331.4</ele>
        <time>2023-05-28T08:42:01Z</time>
      </trkpt>
      <trkpt lat="45.77756" lon="5.39093">
        <ele>331.6</ele>
        <time>2023-05-28T08:42:02Z</time>
      </trkpt>
      <trkpt lat="45.77752" lon="5.39088">
        <ele>331.6</ele>
        <time>2023-05-28T08:42:03Z</time>
      </trkpt>
      <trkpt lat="45.77747" lon="5.39082">
        <ele>331.8</ele>
        <time>2023-05-28T08:42:04Z</time>
      </trkpt>
      <trkpt lat="45.77744" lon="5.39077">
        <ele>331.8</ele>
        <time>2023-05-28T08:42:05Z</time>
      </trkpt>
      <trkpt lat="45.7774" lon="5.39072">
        <ele>331.8</ele>
        <time>2023-05-28T08:42:06Z</time>
      </trkpt>
      <trkpt lat="45.77737" lon="5.39067">
        <ele>332</ele>
        <time>2023-05-28T08:42:07Z</time>
      </trkpt>
      <trkpt lat="45.77734" lon="5.39061">
        <ele>332.2</ele>
        <time>2023-05-28T08:42:08Z</time>
      </trkpt>
      <trkpt lat="45.7773" lon="5.39054">
        <ele>332.4</ele>
        <time>2023-05-28T08:42:09Z</time>
      </trkpt>
      <trkpt lat="45.77726" lon="5.39048">
        <ele>332.4</ele>
        <time>2023-05-28T08:42:10Z</time>
      </trkpt>
      <trkpt lat="45.7772" lon="5.39036">
        <ele>332.6</ele>
        <time>2023-05-28T08:42:12Z</time>
      </trkpt>
      <trkpt lat="45.77717" lon="5.3903">
        <ele>332.8</ele>
        <time>2023-05-28T08:42:13Z</time>
      </trkpt>
      <trkpt lat="45.77712" lon="5.39021">
        <ele>332.8</ele>
        <time>2023-05-28T08:42:14Z</time>
      </trkpt>
      <trkpt lat="45.77709" lon="5.39016">
        <ele>332.8</ele>
        <time>2023-05-28T08:42:15Z</time>
      </trkpt>
      <trkpt lat="45.77705" lon="5.39009">
        <ele>332.8</ele>
        <time>2023-05-28T08:42:16Z</time>
      </trkpt>
      <trkpt lat="45.77701" lon="5.39001">
        <ele>333.2</ele>
        <time>2023-05-28T08:42:17Z</time>
      </trkpt>
      <trkpt lat="45.77697" lon="5.38993">
        <ele>333.2</ele>
        <time>2023-05-28T08:42:18Z</time>
      </trkpt>
      <trkpt lat="45.77693" lon="5.38986">
        <ele>333.6</ele>
        <time>2023-05-28T08:42:19Z</time>
      </trkpt>
      <trkpt lat="45.77688" lon="5.38977">
        <ele>333.6</ele>
        <time>2023-05-28T08:42:20Z</time>
      </trkpt>
      <trkpt lat="45.77684" lon="5.3897">
        <ele>333.6</ele>
        <time>2023-05-28T08:42:21Z</time>
      </trkpt>
      <trkpt lat="45.7768" lon="5.38962">
        <ele>333.8</ele>
        <time>2023-05-28T08:42:22Z</time>
      </trkpt>
      <trkpt lat="45.77677" lon="5.38956">
        <ele>333.8</ele>
        <time>2023-05-28T08:42:23Z</time>
      </trkpt>
      <trkpt lat="45.77673" lon="5.38948">
        <ele>334</ele>
        <time>2023-05-28T08:42:24Z</time>
      </trkpt>
      <trkpt lat="45.77668" lon="5.38939">
        <ele>334</ele>
        <time>2023-05-28T08:42:25Z</time>
      </trkpt>
      <trkpt lat="45.77663" lon="5.38931">
        <ele>334.2</ele>
        <time>2023-05-28T08:42:26Z</time>
      </trkpt>
      <trkpt lat="45.77659" lon="5.38923">
        <ele>334.2</ele>
        <time>2023-05-28T08:42:27Z</time>
      </trkpt>
      <trkpt lat="45.77655" lon="5.38915">
        <ele>334.4</ele>
        <time>2023-05-28T08:42:28Z</time>
      </trkpt>
      <trkpt lat="45.77652" lon="5.38909">
        <ele>334.4</ele>
        <time>2023-05-28T08:42:29Z</time>
      </trkpt>
      <trkpt lat="45.77647" lon="5.38899">
        <ele>334.6</ele>
        <time>2023-05-28T08:42:30Z</time>
      </trkpt>
      <trkpt lat="45.77642" lon="5.38891">
        <ele>334.6</ele>
        <time>2023-05-28T08:42:31Z</time>
      </trkpt>
      <trkpt lat="45.77639" lon="5.38885">
        <ele>335</ele>
        <time>2023-05-28T08:42:32Z</time>
      </trkpt>
      <trkpt lat="45.77635" lon="5.38876">
        <ele>335.4</ele>
        <time>2023-05-28T08:42:33Z</time>
      </trkpt>
      <trkpt lat="45.77631" lon="5.38867">
        <ele>335.4</ele>
        <time>2023-05-28T08:42:34Z</time>
      </trkpt>
      <trkpt lat="45.77627" lon="5.38858">
        <ele>336</ele>
        <time>2023-05-28T08:42:35Z</time>
      </trkpt>
      <trkpt lat="45.77623" lon="5.38846">
        <ele>336.2</ele>
        <time>2023-05-28T08:42:36Z</time>
      </trkpt>
      <trkpt lat="45.77621" lon="5.38838">
        <ele>336.4</ele>
        <time>2023-05-28T08:42:37Z</time>
      </trkpt>
      <trkpt lat="45.77621" lon="5.38827">
        <ele>336.4</ele>
        <time>2023-05-28T08:42:38Z</time>
      </trkpt>
      <trkpt lat="45.77621" lon="5.38816">
        <ele>336.6</ele>
        <time>2023-05-28T08:42:39Z</time>
      </trkpt>
      <trkpt lat="45.77624" lon="5.38803">
        <ele>336.8</ele>
        <time>2023-05-28T08:42:40Z</time>
      </trkpt>
      <trkpt lat="45.77627" lon="5.38792">
        <ele>337</ele>
        <time>2023-05-28T08:42:41Z</time>
      </trkpt>
      <trkpt lat="45.7763" lon="5.38781">
        <ele>337</ele>
        <time>2023-05-28T08:42:42Z</time>
      </trkpt>
      <trkpt lat="45.77634" lon="5.3877">
        <ele>337.2</ele>
        <time>2023-05-28T08:42:43Z</time>
      </trkpt>
      <trkpt lat="45.77638" lon="5.38759">
        <ele>337.4</ele>
        <time>2023-05-28T08:42:44Z</time>
      </trkpt>
      <trkpt lat="45.77642" lon="5.38748">
        <ele>337.6</ele>
        <time>2023-05-28T08:42:45Z</time>
      </trkpt>
      <trkpt lat="45.77646" lon="5.38737">
        <ele>337.6</ele>
        <time>2023-05-28T08:42:46Z</time>
      </trkpt>
      <trkpt lat="45.77649" lon="5.38726">
        <ele>337.6</ele>
        <time>2023-05-28T08:42:47Z</time>
      </trkpt>
      <trkpt lat="45.77652" lon="5.38715">
        <ele>337.8</ele>
        <time>2023-05-28T08:42:48Z</time>
      </trkpt>
      <trkpt lat="45.77656" lon="5.38703">
        <ele>338</ele>
        <time>2023-05-28T08:42:49Z</time>
      </trkpt>
      <trkpt lat="45.77659" lon="5.38692">
        <ele>338.2</ele>
        <time>2023-05-28T08:42:50Z</time>
      </trkpt>
      <trkpt lat="45.77662" lon="5.38683">
        <ele>338.2</ele>
        <time>2023-05-28T08:42:51Z</time>
      </trkpt>
      <trkpt lat="45.77665" lon="5.38668">
        <ele>338.4</ele>
        <time>2023-05-28T08:42:52Z</time>
      </trkpt>
      <trkpt lat="45.77668" lon="5.38658">
        <ele>338.4</ele>
        <time>2023-05-28T08:42:53Z</time>
      </trkpt>
      <trkpt lat="45.7767" lon="5.38646">
        <ele>338.4</ele>
        <time>2023-05-28T08:42:54Z</time>
      </trkpt>
      <trkpt lat="45.77673" lon="5.38634">
        <ele>338.4</ele>
        <time>2023-05-28T08:42:55Z</time>
      </trkpt>
      <trkpt lat="45.77676" lon="5.38621">
        <ele>338.4</ele>
        <time>2023-05-28T08:42:56Z</time>
      </trkpt>
      <trkpt lat="45.77678" lon="5.38609">
        <ele>338.4</ele>
        <time>2023-05-28T08:42:57Z</time>
      </trkpt>
      <trkpt lat="45.77681" lon="5.38596">
        <ele>338.4</ele>
        <time>2023-05-28T08:42:58Z</time>
      </trkpt>
      <trkpt lat="45.77684" lon="5.38583">
        <ele>338.4</ele>
        <time>2023-05-28T08:42:59Z</time>
      </trkpt>
      <trkpt lat="45.77689" lon="5.38567">
        <ele>338.4</ele>
        <time>2023-05-28T08:43:00Z</time>
      </trkpt>
      <trkpt lat="45.77693" lon="5.38554">
        <ele>338.4</ele>
        <time>2023-05-28T08:43:01Z</time>
      </trkpt>
      <trkpt lat="45.77697" lon="5.38541">
        <ele>338.4</ele>
        <time>2023-05-28T08:43:02Z</time>
      </trkpt>
      <trkpt lat="45.77701" lon="5.38531">
        <ele>338.2</ele>
        <time>2023-05-28T08:43:03Z</time>
      </trkpt>
      <trkpt lat="45.77707" lon="5.38518">
        <ele>338</ele>
        <time>2023-05-28T08:43:04Z</time>
      </trkpt>
      <trkpt lat="45.77714" lon="5.38506">
        <ele>337.8</ele>
        <time>2023-05-28T08:43:05Z</time>
      </trkpt>
      <trkpt lat="45.77723" lon="5.38493">
        <ele>337.6</ele>
        <time>2023-05-28T08:43:06Z</time>
      </trkpt>
      <trkpt lat="45.7773" lon="5.38483">
        <ele>337.4</ele>
        <time>2023-05-28T08:43:07Z</time>
      </trkpt>
      <trkpt lat="45.77736" lon="5.38473">
        <ele>337.4</ele>
        <time>2023-05-28T08:43:08Z</time>
      </trkpt>
      <trkpt lat="45.77742" lon="5.38461">
        <ele>337.2</ele>
        <time>2023-05-28T08:43:09Z</time>
      </trkpt>
      <trkpt lat="45.77747" lon="5.38444">
        <ele>337.2</ele>
        <time>2023-05-28T08:43:10Z</time>
      </trkpt>
      <trkpt lat="45.77749" lon="5.38429">
        <ele>337</ele>
        <time>2023-05-28T08:43:11Z</time>
      </trkpt>
      <trkpt lat="45.77749" lon="5.38414">
        <ele>336.8</ele>
        <time>2023-05-28T08:43:12Z</time>
      </trkpt>
      <trkpt lat="45.77747" lon="5.38403">
        <ele>336.6</ele>
        <time>2023-05-28T08:43:13Z</time>
      </trkpt>
      <trkpt lat="45.77744" lon="5.3839">
        <ele>336.2</ele>
        <time>2023-05-28T08:43:14Z</time>
      </trkpt>
      <trkpt lat="45.7774" lon="5.38378">
        <ele>336</ele>
        <time>2023-05-28T08:43:15Z</time>
      </trkpt>
      <trkpt lat="45.77735" lon="5.38363">
        <ele>335.6</ele>
        <time>2023-05-28T08:43:16Z</time>
      </trkpt>
      <trkpt lat="45.77731" lon="5.38354">
        <ele>335.4</ele>
        <time>2023-05-28T08:43:17Z</time>
      </trkpt>
      <trkpt lat="45.77727" lon="5.38342">
        <ele>335</ele>
        <time>2023-05-28T08:43:18Z</time>
      </trkpt>
      <trkpt lat="45.77723" lon="5.3833">
        <ele>334.6</ele>
        <time>2023-05-28T08:43:19Z</time>
      </trkpt>
      <trkpt lat="45.77719" lon="5.38318">
        <ele>334.2</ele>
        <time>2023-05-28T08:43:20Z</time>
      </trkpt>
      <trkpt lat="45.77716" lon="5.38307">
        <ele>333.8</ele>
        <time>2023-05-28T08:43:21Z</time>
      </trkpt>
      <trkpt lat="45.77712" lon="5.38295">
        <ele>333.8</ele>
        <time>2023-05-28T08:43:22Z</time>
      </trkpt>
      <trkpt lat="45.77708" lon="5.3828">
        <ele>333.4</ele>
        <time>2023-05-28T08:43:23Z</time>
      </trkpt>
      <trkpt lat="45.77705" lon="5.38271">
        <ele>333.4</ele>
        <time>2023-05-28T08:43:24Z</time>
      </trkpt>
      <trkpt lat="45.777" lon="5.38259">
        <ele>333</ele>
        <time>2023-05-28T08:43:25Z</time>
      </trkpt>
      <trkpt lat="45.77694" lon="5.38245">
        <ele>333</ele>
        <time>2023-05-28T08:43:26Z</time>
      </trkpt>
      <trkpt lat="45.77689" lon="5.38234">
        <ele>332.8</ele>
        <time>2023-05-28T08:43:27Z</time>
      </trkpt>
      <trkpt lat="45.77683" lon="5.38223">
        <ele>332.4</ele>
        <time>2023-05-28T08:43:28Z</time>
      </trkpt>
      <trkpt lat="45.77678" lon="5.38215">
        <ele>332.2</ele>
        <time>2023-05-28T08:43:29Z</time>
      </trkpt>
      <trkpt lat="45.77671" lon="5.38204">
        <ele>332</ele>
        <time>2023-05-28T08:43:30Z</time>
      </trkpt>
      <trkpt lat="45.77662" lon="5.38192">
        <ele>331.8</ele>
        <time>2023-05-28T08:43:31Z</time>
      </trkpt>
      <trkpt lat="45.77654" lon="5.38182">
        <ele>331.4</ele>
        <time>2023-05-28T08:43:32Z</time>
      </trkpt>
      <trkpt lat="45.77646" lon="5.38172">
        <ele>331.2</ele>
        <time>2023-05-28T08:43:33Z</time>
      </trkpt>
      <trkpt lat="45.77639" lon="5.38166">
        <ele>330.8</ele>
        <time>2023-05-28T08:43:34Z</time>
      </trkpt>
      <trkpt lat="45.7763" lon="5.38157">
        <ele>330.4</ele>
        <time>2023-05-28T08:43:35Z</time>
      </trkpt>
      <trkpt lat="45.77619" lon="5.38148">
        <ele>330.4</ele>
        <time>2023-05-28T08:43:36Z</time>
      </trkpt>
      <trkpt lat="45.7761" lon="5.38141">
        <ele>329.8</ele>
        <time>2023-05-28T08:43:37Z</time>
      </trkpt>
      <trkpt lat="45.776" lon="5.38134">
        <ele>329.4</ele>
        <time>2023-05-28T08:43:38Z</time>
      </trkpt>
      <trkpt lat="45.77591" lon="5.38128">
        <ele>329</ele>
        <time>2023-05-28T08:43:39Z</time>
      </trkpt>
      <trkpt lat="45.77581" lon="5.38122">
        <ele>328.6</ele>
        <time>2023-05-28T08:43:40Z</time>
      </trkpt>
      <trkpt lat="45.77571" lon="5.38116">
        <ele>327.8</ele>
        <time>2023-05-28T08:43:41Z</time>
      </trkpt>
      <trkpt lat="45.77562" lon="5.3811">
        <ele>327</ele>
        <time>2023-05-28T08:43:42Z</time>
      </trkpt>
      <trkpt lat="45.77553" lon="5.38104">
        <ele>326.8</ele>
        <time>2023-05-28T08:43:43Z</time>
      </trkpt>
      <trkpt lat="45.77546" lon="5.38101">
        <ele>326</ele>
        <time>2023-05-28T08:43:44Z</time>
      </trkpt>
      <trkpt lat="45.77535" lon="5.38097">
        <ele>325.8</ele>
        <time>2023-05-28T08:43:45Z</time>
      </trkpt>
      <trkpt lat="45.77527" lon="5.38096">
        <ele>325.2</ele>
        <time>2023-05-28T08:43:46Z</time>
      </trkpt>
      <trkpt lat="45.77518" lon="5.38097">
        <ele>324.8</ele>
        <time>2023-05-28T08:43:47Z</time>
      </trkpt>
      <trkpt lat="45.77509" lon="5.38101">
        <ele>323.8</ele>
        <time>2023-05-28T08:43:48Z</time>
      </trkpt>
      <trkpt lat="45.775" lon="5.38107">
        <ele>323.4</ele>
        <time>2023-05-28T08:43:49Z</time>
      </trkpt>
      <trkpt lat="45.77494" lon="5.38113">
        <ele>322.8</ele>
        <time>2023-05-28T08:43:50Z</time>
      </trkpt>
      <trkpt lat="45.77485" lon="5.38122">
        <ele>322.6</ele>
        <time>2023-05-28T08:43:51Z</time>
      </trkpt>
      <trkpt lat="45.77477" lon="5.3813">
        <ele>322.4</ele>
        <time>2023-05-28T08:43:52Z</time>
      </trkpt>
      <trkpt lat="45.7747" lon="5.38137">
        <ele>321.4</ele>
        <time>2023-05-28T08:43:53Z</time>
      </trkpt>
      <trkpt lat="45.77462" lon="5.38143">
        <ele>321.2</ele>
        <time>2023-05-28T08:43:54Z</time>
      </trkpt>
      <trkpt lat="45.77456" lon="5.38147">
        <ele>320.4</ele>
        <time>2023-05-28T08:43:55Z</time>
      </trkpt>
      <trkpt lat="45.7745" lon="5.38147">
        <ele>320</ele>
        <time>2023-05-28T08:43:56Z</time>
      </trkpt>
      <trkpt lat="45.77444" lon="5.38146">
        <ele>319.4</ele>
        <time>2023-05-28T08:43:57Z</time>
      </trkpt>
      <trkpt lat="45.7744" lon="5.38142">
        <ele>318.2</ele>
        <time>2023-05-28T08:43:58Z</time>
      </trkpt>
      <trkpt lat="45.77438" lon="5.38135">
        <ele>317.8</ele>
        <time>2023-05-28T08:43:59Z</time>
      </trkpt>
      <trkpt lat="45.77437" lon="5.38129">
        <ele>316.8</ele>
        <time>2023-05-28T08:44:00Z</time>
      </trkpt>
      <trkpt lat="45.77436" lon="5.38119">
        <ele>316</ele>
        <time>2023-05-28T08:44:01Z</time>
      </trkpt>
      <trkpt lat="45.77437" lon="5.3811">
        <ele>315</ele>
        <time>2023-05-28T08:44:02Z</time>
      </trkpt>
      <trkpt lat="45.77437" lon="5.38099">
        <ele>314.4</ele>
        <time>2023-05-28T08:44:03Z</time>
      </trkpt>
      <trkpt lat="45.77437" lon="5.38089">
        <ele>313.6</ele>
        <time>2023-05-28T08:44:04Z</time>
      </trkpt>
      <trkpt lat="45.77436" lon="5.38077">
        <ele>313</ele>
        <time>2023-05-28T08:44:05Z</time>
      </trkpt>
      <trkpt lat="45.77436" lon="5.38066">
        <ele>312.4</ele>
        <time>2023-05-28T08:44:06Z</time>
      </trkpt>
      <trkpt lat="45.77435" lon="5.38055">
        <ele>312.2</ele>
        <time>2023-05-28T08:44:07Z</time>
      </trkpt>
      <trkpt lat="45.77434" lon="5.38043">
        <ele>311.8</ele>
        <time>2023-05-28T08:44:08Z</time>
      </trkpt>
      <trkpt lat="45.77432" lon="5.38032">
        <ele>311.4</ele>
        <time>2023-05-28T08:44:09Z</time>
      </trkpt>
      <trkpt lat="45.77431" lon="5.38022">
        <ele>311</ele>
        <time>2023-05-28T08:44:10Z</time>
      </trkpt>
      <trkpt lat="45.77428" lon="5.38014">
        <ele>310.2</ele>
        <time>2023-05-28T08:44:11Z</time>
      </trkpt>
      <trkpt lat="45.77423" lon="5.38003">
        <ele>309.6</ele>
        <time>2023-05-28T08:44:12Z</time>
      </trkpt>
      <trkpt lat="45.77419" lon="5.37994">
        <ele>308.6</ele>
        <time>2023-05-28T08:44:13Z</time>
      </trkpt>
      <trkpt lat="45.77409" lon="5.3798">
        <ele>307.4</ele>
        <time>2023-05-28T08:44:15Z</time>
      </trkpt>
      <trkpt lat="45.77405" lon="5.37973">
        <ele>306.6</ele>
        <time>2023-05-28T08:44:16Z</time>
      </trkpt>
      <trkpt lat="45.77401" lon="5.37966">
        <ele>306.4</ele>
        <time>2023-05-28T08:44:17Z</time>
      </trkpt>
      <trkpt lat="45.77397" lon="5.37957">
        <ele>305.6</ele>
        <time>2023-05-28T08:44:18Z</time>
      </trkpt>
      <trkpt lat="45.77394" lon="5.37949">
        <ele>305.2</ele>
        <time>2023-05-28T08:44:19Z</time>
      </trkpt>
      <trkpt lat="45.7739" lon="5.37941">
        <ele>304.6</ele>
        <time>2023-05-28T08:44:20Z</time>
      </trkpt>
      <trkpt lat="45.77386" lon="5.37932">
        <ele>304.2</ele>
        <time>2023-05-28T08:44:21Z</time>
      </trkpt>
      <trkpt lat="45.77381" lon="5.37923">
        <ele>304</ele>
        <time>2023-05-28T08:44:22Z</time>
      </trkpt>
      <trkpt lat="45.77376" lon="5.37915">
        <ele>303.6</ele>
        <time>2023-05-28T08:44:23Z</time>
      </trkpt>
      <trkpt lat="45.77371" lon="5.37906">
        <ele>303.4</ele>
        <time>2023-05-28T08:44:24Z</time>
      </trkpt>
      <trkpt lat="45.77366" lon="5.37898">
        <ele>303</ele>
        <time>2023-05-28T08:44:25Z</time>
      </trkpt>
      <trkpt lat="45.7736" lon="5.3789">
        <ele>303</ele>
        <time>2023-05-28T08:44:26Z</time>
      </trkpt>
      <trkpt lat="45.77353" lon="5.37883">
        <ele>302.2</ele>
        <time>2023-05-28T08:44:27Z</time>
      </trkpt>
      <trkpt lat="45.77346" lon="5.37875">
        <ele>301.4</ele>
        <time>2023-05-28T08:44:28Z</time>
      </trkpt>
      <trkpt lat="45.77338" lon="5.37867">
        <ele>301.2</ele>
        <time>2023-05-28T08:44:29Z</time>
      </trkpt>
      <trkpt lat="45.77331" lon="5.37859">
        <ele>300.8</ele>
        <time>2023-05-28T08:44:30Z</time>
      </trkpt>
      <trkpt lat="45.77323" lon="5.37851">
        <ele>300.8</ele>
        <time>2023-05-28T08:44:31Z</time>
      </trkpt>
      <trkpt lat="45.77317" lon="5.37845">
        <ele>300.4</ele>
        <time>2023-05-28T08:44:32Z</time>
      </trkpt>
      <trkpt lat="45.77308" lon="5.37835">
        <ele>299.8</ele>
        <time>2023-05-28T08:44:33Z</time>
      </trkpt>
      <trkpt lat="45.77295" lon="5.3782">
        <ele>298.8</ele>
        <time>2023-05-28T08:44:35Z</time>
      </trkpt>
      <trkpt lat="45.77288" lon="5.3781">
        <ele>297.8</ele>
        <time>2023-05-28T08:44:36Z</time>
      </trkpt>
      <trkpt lat="45.77281" lon="5.37799">
        <ele>297.2</ele>
        <time>2023-05-28T08:44:37Z</time>
      </trkpt>
      <trkpt lat="45.77274" lon="5.37788">
        <ele>297</ele>
        <time>2023-05-28T08:44:38Z</time>
      </trkpt>
      <trkpt lat="45.77267" lon="5.37777">
        <ele>296.6</ele>
        <time>2023-05-28T08:44:39Z</time>
      </trkpt>
      <trkpt lat="45.77259" lon="5.37766">
        <ele>296.6</ele>
        <time>2023-05-28T08:44:40Z</time>
      </trkpt>
      <trkpt lat="45.7725" lon="5.37756">
        <ele>296.2</ele>
        <time>2023-05-28T08:44:41Z</time>
      </trkpt>
      <trkpt lat="45.7724" lon="5.37747">
        <ele>296</ele>
        <time>2023-05-28T08:44:42Z</time>
      </trkpt>
      <trkpt lat="45.77231" lon="5.37737">
        <ele>295.6</ele>
        <time>2023-05-28T08:44:43Z</time>
      </trkpt>
      <trkpt lat="45.7722" lon="5.37729">
        <ele>295.2</ele>
        <time>2023-05-28T08:44:44Z</time>
      </trkpt>
      <trkpt lat="45.77211" lon="5.37719">
        <ele>294.8</ele>
        <time>2023-05-28T08:44:45Z</time>
      </trkpt>
      <trkpt lat="45.77202" lon="5.37709">
        <ele>294.4</ele>
        <time>2023-05-28T08:44:46Z</time>
      </trkpt>
      <trkpt lat="45.77193" lon="5.37698">
        <ele>293.8</ele>
        <time>2023-05-28T08:44:47Z</time>
      </trkpt>
      <trkpt lat="45.77186" lon="5.37688">
        <ele>292.8</ele>
        <time>2023-05-28T08:44:48Z</time>
      </trkpt>
      <trkpt lat="45.77178" lon="5.37677">
        <ele>292.4</ele>
        <time>2023-05-28T08:44:49Z</time>
      </trkpt>
      <trkpt lat="45.77172" lon="5.37667">
        <ele>291.8</ele>
        <time>2023-05-28T08:44:50Z</time>
      </trkpt>
      <trkpt lat="45.77165" lon="5.37657">
        <ele>291.2</ele>
        <time>2023-05-28T08:44:51Z</time>
      </trkpt>
      <trkpt lat="45.77153" lon="5.37638">
        <ele>290.8</ele>
        <time>2023-05-28T08:44:53Z</time>
      </trkpt>
      <trkpt lat="45.77149" lon="5.37628">
        <ele>290.6</ele>
        <time>2023-05-28T08:44:54Z</time>
      </trkpt>
      <trkpt lat="45.77148" lon="5.37617">
        <ele>290.4</ele>
        <time>2023-05-28T08:44:55Z</time>
      </trkpt>
      <trkpt lat="45.7715" lon="5.37607">
        <ele>290.2</ele>
        <time>2023-05-28T08:44:56Z</time>
      </trkpt>
      <trkpt lat="45.77153" lon="5.37599">
        <ele>290</ele>
        <time>2023-05-28T08:44:57Z</time>
      </trkpt>
      <trkpt lat="45.77158" lon="5.37593">
        <ele>289.8</ele>
        <time>2023-05-28T08:44:58Z</time>
      </trkpt>
      <trkpt lat="45.77163" lon="5.37587">
        <ele>289.6</ele>
        <time>2023-05-28T08:44:59Z</time>
      </trkpt>
      <trkpt lat="45.77169" lon="5.37582">
        <ele>289.4</ele>
        <time>2023-05-28T08:45:00Z</time>
      </trkpt>
      <trkpt lat="45.77175" lon="5.37578">
        <ele>289.4</ele>
        <time>2023-05-28T08:45:01Z</time>
      </trkpt>
      <trkpt lat="45.77181" lon="5.37573">
        <ele>289</ele>
        <time>2023-05-28T08:45:02Z</time>
      </trkpt>
      <trkpt lat="45.77189" lon="5.37568">
        <ele>289</ele>
        <time>2023-05-28T08:45:03Z</time>
      </trkpt>
      <trkpt lat="45.77195" lon="5.37563">
        <ele>288.8</ele>
        <time>2023-05-28T08:45:04Z</time>
      </trkpt>
      <trkpt lat="45.77201" lon="5.37559">
        <ele>288.8</ele>
        <time>2023-05-28T08:45:05Z</time>
      </trkpt>
      <trkpt lat="45.77206" lon="5.37554">
        <ele>288.4</ele>
        <time>2023-05-28T08:45:06Z</time>
      </trkpt>
      <trkpt lat="45.77212" lon="5.37549">
        <ele>288.2</ele>
        <time>2023-05-28T08:45:07Z</time>
      </trkpt>
      <trkpt lat="45.77218" lon="5.37545">
        <ele>288</ele>
        <time>2023-05-28T08:45:08Z</time>
      </trkpt>
      <trkpt lat="45.77224" lon="5.3754">
        <ele>287.6</ele>
        <time>2023-05-28T08:45:09Z</time>
      </trkpt>
      <trkpt lat="45.77229" lon="5.37535">
        <ele>287.4</ele>
        <time>2023-05-28T08:45:10Z</time>
      </trkpt>
      <trkpt lat="45.77234" lon="5.37531">
        <ele>287</ele>
        <time>2023-05-28T08:45:11Z</time>
      </trkpt>
      <trkpt lat="45.7724" lon="5.37526">
        <ele>287</ele>
        <time>2023-05-28T08:45:12Z</time>
      </trkpt>
      <trkpt lat="45.77251" lon="5.37516">
        <ele>286.8</ele>
        <time>2023-05-28T08:45:14Z</time>
      </trkpt>
      <trkpt lat="45.77256" lon="5.37511">
        <ele>286.8</ele>
        <time>2023-05-28T08:45:15Z</time>
      </trkpt>
      <trkpt lat="45.77262" lon="5.37506">
        <ele>286.6</ele>
        <time>2023-05-28T08:45:16Z</time>
      </trkpt>
      <trkpt lat="45.77268" lon="5.37501">
        <ele>286.6</ele>
        <time>2023-05-28T08:45:17Z</time>
      </trkpt>
      <trkpt lat="45.77279" lon="5.37491">
        <ele>286.6</ele>
        <time>2023-05-28T08:45:19Z</time>
      </trkpt>
      <trkpt lat="45.77285" lon="5.37487">
        <ele>286.6</ele>
        <time>2023-05-28T08:45:20Z</time>
      </trkpt>
      <trkpt lat="45.77291" lon="5.37483">
        <ele>286.6</ele>
        <time>2023-05-28T08:45:21Z</time>
      </trkpt>
      <trkpt lat="45.77297" lon="5.37478">
        <ele>286.6</ele>
        <time>2023-05-28T08:45:22Z</time>
      </trkpt>
      <trkpt lat="45.77302" lon="5.37474">
        <ele>286.4</ele>
        <time>2023-05-28T08:45:23Z</time>
      </trkpt>
      <trkpt lat="45.77312" lon="5.37466">
        <ele>286.4</ele>
        <time>2023-05-28T08:45:25Z</time>
      </trkpt>
      <trkpt lat="45.77317" lon="5.37463">
        <ele>286.4</ele>
        <time>2023-05-28T08:45:26Z</time>
      </trkpt>
      <trkpt lat="45.77322" lon="5.37459">
        <ele>286.4</ele>
        <time>2023-05-28T08:45:27Z</time>
      </trkpt>
      <trkpt lat="45.77328" lon="5.37455">
        <ele>286.4</ele>
        <time>2023-05-28T08:45:28Z</time>
      </trkpt>
      <trkpt lat="45.77332" lon="5.37451">
        <ele>286.4</ele>
        <time>2023-05-28T08:45:29Z</time>
      </trkpt>
      <trkpt lat="45.77342" lon="5.37444">
        <ele>286.4</ele>
        <time>2023-05-28T08:45:31Z</time>
      </trkpt>
      <trkpt lat="45.77346" lon="5.3744">
        <ele>286.4</ele>
        <time>2023-05-28T08:45:32Z</time>
      </trkpt>
      <trkpt lat="45.77351" lon="5.37436">
        <ele>286.6</ele>
        <time>2023-05-28T08:45:33Z</time>
      </trkpt>
      <trkpt lat="45.77355" lon="5.37431">
        <ele>286.6</ele>
        <time>2023-05-28T08:45:34Z</time>
      </trkpt>
      <trkpt lat="45.77359" lon="5.37427">
        <ele>286.6</ele>
        <time>2023-05-28T08:45:35Z</time>
      </trkpt>
      <trkpt lat="45.77368" lon="5.37418">
        <ele>287</ele>
        <time>2023-05-28T08:45:37Z</time>
      </trkpt>
      <trkpt lat="45.77373" lon="5.37412">
        <ele>287</ele>
        <time>2023-05-28T08:45:38Z</time>
      </trkpt>
      <trkpt lat="45.77378" lon="5.37407">
        <ele>287</ele>
        <time>2023-05-28T08:45:39Z</time>
      </trkpt>
      <trkpt lat="45.77384" lon="5.37402">
        <ele>287</ele>
        <time>2023-05-28T08:45:40Z</time>
      </trkpt>
      <trkpt lat="45.77389" lon="5.37397">
        <ele>287</ele>
        <time>2023-05-28T08:45:41Z</time>
      </trkpt>
      <trkpt lat="45.774" lon="5.37387">
        <ele>287</ele>
        <time>2023-05-28T08:45:43Z</time>
      </trkpt>
      <trkpt lat="45.77405" lon="5.37382">
        <ele>287</ele>
        <time>2023-05-28T08:45:44Z</time>
      </trkpt>
      <trkpt lat="45.7741" lon="5.37377">
        <ele>287</ele>
        <time>2023-05-28T08:45:45Z</time>
      </trkpt>
      <trkpt lat="45.77415" lon="5.37371">
        <ele>287</ele>
        <time>2023-05-28T08:45:46Z</time>
      </trkpt>
      <trkpt lat="45.77419" lon="5.37365">
        <ele>287.2</ele>
        <time>2023-05-28T08:45:47Z</time>
      </trkpt>
      <trkpt lat="45.77426" lon="5.37351">
        <ele>287.2</ele>
        <time>2023-05-28T08:45:49Z</time>
      </trkpt>
      <trkpt lat="45.77429" lon="5.37344">
        <ele>287.2</ele>
        <time>2023-05-28T08:45:50Z</time>
      </trkpt>
      <trkpt lat="45.77432" lon="5.37336">
        <ele>287.4</ele>
        <time>2023-05-28T08:45:51Z</time>
      </trkpt>
      <trkpt lat="45.77435" lon="5.37328">
        <ele>287.4</ele>
        <time>2023-05-28T08:45:52Z</time>
      </trkpt>
      <trkpt lat="45.77438" lon="5.3732">
        <ele>287.8</ele>
        <time>2023-05-28T08:45:53Z</time>
      </trkpt>
      <trkpt lat="45.77444" lon="5.37304">
        <ele>288.2</ele>
        <time>2023-05-28T08:45:55Z</time>
      </trkpt>
      <trkpt lat="45.77447" lon="5.37296">
        <ele>288.2</ele>
        <time>2023-05-28T08:45:56Z</time>
      </trkpt>
      <trkpt lat="45.7745" lon="5.37288">
        <ele>288.4</ele>
        <time>2023-05-28T08:45:57Z</time>
      </trkpt>
      <trkpt lat="45.77453" lon="5.3728">
        <ele>288.4</ele>
        <time>2023-05-28T08:45:58Z</time>
      </trkpt>
      <trkpt lat="45.77456" lon="5.37272">
        <ele>288.8</ele>
        <time>2023-05-28T08:45:59Z</time>
      </trkpt>
      <trkpt lat="45.77459" lon="5.37263">
        <ele>288.8</ele>
        <time>2023-05-28T08:46:00Z</time>
      </trkpt>
      <trkpt lat="45.77462" lon="5.37255">
        <ele>288.8</ele>
        <time>2023-05-28T08:46:01Z</time>
      </trkpt>
      <trkpt lat="45.77465" lon="5.37247">
        <ele>289.2</ele>
        <time>2023-05-28T08:46:02Z</time>
      </trkpt>
      <trkpt lat="45.77468" lon="5.37238">
        <ele>289.4</ele>
        <time>2023-05-28T08:46:03Z</time>
      </trkpt>
      <trkpt lat="45.77471" lon="5.3723">
        <ele>289.4</ele>
        <time>2023-05-28T08:46:04Z</time>
      </trkpt>
      <trkpt lat="45.77474" lon="5.37221">
        <ele>289.6</ele>
        <time>2023-05-28T08:46:05Z</time>
      </trkpt>
      <trkpt lat="45.7748" lon="5.37203">
        <ele>289.6</ele>
        <time>2023-05-28T08:46:07Z</time>
      </trkpt>
      <trkpt lat="45.77483" lon="5.37194">
        <ele>289.8</ele>
        <time>2023-05-28T08:46:08Z</time>
      </trkpt>
      <trkpt lat="45.77486" lon="5.37186">
        <ele>289.8</ele>
        <time>2023-05-28T08:46:09Z</time>
      </trkpt>
      <trkpt lat="45.77489" lon="5.37177">
        <ele>289.8</ele>
        <time>2023-05-28T08:46:10Z</time>
      </trkpt>
      <trkpt lat="45.77493" lon="5.37168">
        <ele>290</ele>
        <time>2023-05-28T08:46:11Z</time>
      </trkpt>
      <trkpt lat="45.77501" lon="5.37153">
        <ele>290.2</ele>
        <time>2023-05-28T08:46:13Z</time>
      </trkpt>
      <trkpt lat="45.77506" lon="5.37145">
        <ele>290.2</ele>
        <time>2023-05-28T08:46:14Z</time>
      </trkpt>
      <trkpt lat="45.7751" lon="5.37138">
        <ele>290.2</ele>
        <time>2023-05-28T08:46:15Z</time>
      </trkpt>
      <trkpt lat="45.77514" lon="5.3713">
        <ele>290.4</ele>
        <time>2023-05-28T08:46:16Z</time>
      </trkpt>
      <trkpt lat="45.77518" lon="5.37122">
        <ele>290.6</ele>
        <time>2023-05-28T08:46:17Z</time>
      </trkpt>
      <trkpt lat="45.77525" lon="5.37106">
        <ele>290.8</ele>
        <time>2023-05-28T08:46:19Z</time>
      </trkpt>
      <trkpt lat="45.77528" lon="5.37098">
        <ele>290.8</ele>
        <time>2023-05-28T08:46:20Z</time>
      </trkpt>
      <trkpt lat="45.77532" lon="5.37089">
        <ele>290.8</ele>
        <time>2023-05-28T08:46:21Z</time>
      </trkpt>
      <trkpt lat="45.77538" lon="5.37071">
        <ele>290.8</ele>
        <time>2023-05-28T08:46:23Z</time>
      </trkpt>
      <trkpt lat="45.77544" lon="5.37053">
        <ele>290.8</ele>
        <time>2023-05-28T08:46:25Z</time>
      </trkpt>
      <trkpt lat="45.77548" lon="5.37044">
        <ele>290.8</ele>
        <time>2023-05-28T08:46:26Z</time>
      </trkpt>
      <trkpt lat="45.77551" lon="5.37035">
        <ele>290.8</ele>
        <time>2023-05-28T08:46:27Z</time>
      </trkpt>
      <trkpt lat="45.77555" lon="5.37025">
        <ele>290.6</ele>
        <time>2023-05-28T08:46:28Z</time>
      </trkpt>
      <trkpt lat="45.77559" lon="5.37017">
        <ele>290.4</ele>
        <time>2023-05-28T08:46:29Z</time>
      </trkpt>
      <trkpt lat="45.77562" lon="5.37008">
        <ele>290.4</ele>
        <time>2023-05-28T08:46:30Z</time>
      </trkpt>
      <trkpt lat="45.77566" lon="5.36999">
        <ele>290.4</ele>
        <time>2023-05-28T08:46:31Z</time>
      </trkpt>
      <trkpt lat="45.7757" lon="5.36989">
        <ele>290.2</ele>
        <time>2023-05-28T08:46:32Z</time>
      </trkpt>
      <trkpt lat="45.77574" lon="5.3698">
        <ele>290.2</ele>
        <time>2023-05-28T08:46:33Z</time>
      </trkpt>
      <trkpt lat="45.77579" lon="5.36971">
        <ele>290.2</ele>
        <time>2023-05-28T08:46:34Z</time>
      </trkpt>
      <trkpt lat="45.77583" lon="5.36963">
        <ele>290.2</ele>
        <time>2023-05-28T08:46:35Z</time>
      </trkpt>
      <trkpt lat="45.7759" lon="5.36943">
        <ele>290</ele>
        <time>2023-05-28T08:46:37Z</time>
      </trkpt>
      <trkpt lat="45.77592" lon="5.36932">
        <ele>290</ele>
        <time>2023-05-28T08:46:38Z</time>
      </trkpt>
      <trkpt lat="45.77593" lon="5.3692">
        <ele>290</ele>
        <time>2023-05-28T08:46:39Z</time>
      </trkpt>
      <trkpt lat="45.77592" lon="5.3691">
        <ele>289.8</ele>
        <time>2023-05-28T08:46:40Z</time>
      </trkpt>
      <trkpt lat="45.77591" lon="5.36901">
        <ele>290</ele>
        <time>2023-05-28T08:46:41Z</time>
      </trkpt>
      <trkpt lat="45.77589" lon="5.36891">
        <ele>289.8</ele>
        <time>2023-05-28T08:46:42Z</time>
      </trkpt>
      <trkpt lat="45.77586" lon="5.36881">
        <ele>289.6</ele>
        <time>2023-05-28T08:46:43Z</time>
      </trkpt>
      <trkpt lat="45.77584" lon="5.36871">
        <ele>289.6</ele>
        <time>2023-05-28T08:46:44Z</time>
      </trkpt>
      <trkpt lat="45.77582" lon="5.36862">
        <ele>289.8</ele>
        <time>2023-05-28T08:46:45Z</time>
      </trkpt>
      <trkpt lat="45.77581" lon="5.36852">
        <ele>289.8</ele>
        <time>2023-05-28T08:46:46Z</time>
      </trkpt>
      <trkpt lat="45.7758" lon="5.36843">
        <ele>289.6</ele>
        <time>2023-05-28T08:46:47Z</time>
      </trkpt>
      <trkpt lat="45.77579" lon="5.36835">
        <ele>289.6</ele>
        <time>2023-05-28T08:46:48Z</time>
      </trkpt>
      <trkpt lat="45.77579" lon="5.36828">
        <ele>289.4</ele>
        <time>2023-05-28T08:46:49Z</time>
      </trkpt>
      <trkpt lat="45.77581" lon="5.36821">
        <ele>289.4</ele>
        <time>2023-05-28T08:46:50Z</time>
      </trkpt>
      <trkpt lat="45.77583" lon="5.36814">
        <ele>289.4</ele>
        <time>2023-05-28T08:46:51Z</time>
      </trkpt>
      <trkpt lat="45.77585" lon="5.36808">
        <ele>289.4</ele>
        <time>2023-05-28T08:46:52Z</time>
      </trkpt>
      <trkpt lat="45.77587" lon="5.36802">
        <ele>289.4</ele>
        <time>2023-05-28T08:46:53Z</time>
      </trkpt>
      <trkpt lat="45.77589" lon="5.36796">
        <ele>289.6</ele>
        <time>2023-05-28T08:46:54Z</time>
      </trkpt>
      <trkpt lat="45.77591" lon="5.36791">
        <ele>289.6</ele>
        <time>2023-05-28T08:46:55Z</time>
      </trkpt>
      <trkpt lat="45.77593" lon="5.36787">
        <ele>289.6</ele>
        <time>2023-05-28T08:46:56Z</time>
      </trkpt>
      <trkpt lat="45.77595" lon="5.36782">
        <ele>289.6</ele>
        <time>2023-05-28T08:46:57Z</time>
      </trkpt>
      <trkpt lat="45.77597" lon="5.36777">
        <ele>289.6</ele>
        <time>2023-05-28T08:46:58Z</time>
      </trkpt>
      <trkpt lat="45.77599" lon="5.36771">
        <ele>289.8</ele>
        <time>2023-05-28T08:46:59Z</time>
      </trkpt>
      <trkpt lat="45.77601" lon="5.36766">
        <ele>290</ele>
        <time>2023-05-28T08:47:00Z</time>
      </trkpt>
      <trkpt lat="45.77603" lon="5.3676">
        <ele>290</ele>
        <time>2023-05-28T08:47:01Z</time>
      </trkpt>
      <trkpt lat="45.77604" lon="5.36755">
        <ele>290.2</ele>
        <time>2023-05-28T08:47:02Z</time>
      </trkpt>
      <trkpt lat="45.77606" lon="5.3675">
        <ele>290.2</ele>
        <time>2023-05-28T08:47:03Z</time>
      </trkpt>
      <trkpt lat="45.77608" lon="5.36745">
        <ele>290.2</ele>
        <time>2023-05-28T08:47:04Z</time>
      </trkpt>
      <trkpt lat="45.77609" lon="5.3674">
        <ele>290.2</ele>
        <time>2023-05-28T08:47:05Z</time>
      </trkpt>
      <trkpt lat="45.77611" lon="5.36735">
        <ele>290.4</ele>
        <time>2023-05-28T08:47:06Z</time>
      </trkpt>
      <trkpt lat="45.77613" lon="5.3673">
        <ele>290.4</ele>
        <time>2023-05-28T08:47:07Z</time>
      </trkpt>
      <trkpt lat="45.77614" lon="5.36725">
        <ele>291</ele>
        <time>2023-05-28T08:47:08Z</time>
      </trkpt>
      <trkpt lat="45.77616" lon="5.3672">
        <ele>291</ele>
        <time>2023-05-28T08:47:09Z</time>
      </trkpt>
      <trkpt lat="45.77618" lon="5.36715">
        <ele>291.2</ele>
        <time>2023-05-28T08:47:10Z</time>
      </trkpt>
      <trkpt lat="45.7762" lon="5.36711">
        <ele>291.2</ele>
        <time>2023-05-28T08:47:11Z</time>
      </trkpt>
      <trkpt lat="45.77622" lon="5.36706">
        <ele>291.2</ele>
        <time>2023-05-28T08:47:12Z</time>
      </trkpt>
      <trkpt lat="45.77624" lon="5.36702">
        <ele>291.6</ele>
        <time>2023-05-28T08:47:13Z</time>
      </trkpt>
      <trkpt lat="45.77626" lon="5.36698">
        <ele>291.6</ele>
        <time>2023-05-28T08:47:14Z</time>
      </trkpt>
      <trkpt lat="45.77629" lon="5.36694">
        <ele>291.8</ele>
        <time>2023-05-28T08:47:15Z</time>
      </trkpt>
      <trkpt lat="45.77631" lon="5.3669">
        <ele>292.2</ele>
        <time>2023-05-28T08:47:16Z</time>
      </trkpt>
      <trkpt lat="45.77634" lon="5.36686">
        <ele>292.2</ele>
        <time>2023-05-28T08:47:17Z</time>
      </trkpt>
      <trkpt lat="45.77637" lon="5.36683">
        <ele>292.4</ele>
        <time>2023-05-28T08:47:18Z</time>
      </trkpt>
      <trkpt lat="45.77639" lon="5.3668">
        <ele>292.4</ele>
        <time>2023-05-28T08:47:19Z</time>
      </trkpt>
      <trkpt lat="45.77642" lon="5.36677">
        <ele>292.6</ele>
        <time>2023-05-28T08:47:20Z</time>
      </trkpt>
      <trkpt lat="45.77645" lon="5.36675">
        <ele>292.8</ele>
        <time>2023-05-28T08:47:21Z</time>
      </trkpt>
      <trkpt lat="45.77648" lon="5.36673">
        <ele>293.2</ele>
        <time>2023-05-28T08:47:22Z</time>
      </trkpt>
      <trkpt lat="45.77651" lon="5.3667">
        <ele>293.2</ele>
        <time>2023-05-28T08:47:23Z</time>
      </trkpt>
      <trkpt lat="45.77655" lon="5.36668">
        <ele>293.4</ele>
        <time>2023-05-28T08:47:24Z</time>
      </trkpt>
      <trkpt lat="45.77658" lon="5.36666">
        <ele>293.4</ele>
        <time>2023-05-28T08:47:25Z</time>
      </trkpt>
      <trkpt lat="45.7766" lon="5.36664">
        <ele>293.4</ele>
        <time>2023-05-28T08:47:26Z</time>
      </trkpt>
      <trkpt lat="45.77663" lon="5.36662">
        <ele>293.4</ele>
        <time>2023-05-28T08:47:27Z</time>
      </trkpt>
      <trkpt lat="45.77666" lon="5.3666">
        <ele>293.6</ele>
        <time>2023-05-28T08:47:28Z</time>
      </trkpt>
      <trkpt lat="45.77669" lon="5.36658">
        <ele>293.6</ele>
        <time>2023-05-28T08:47:29Z</time>
      </trkpt>
      <trkpt lat="45.77672" lon="5.36656">
        <ele>293.6</ele>
        <time>2023-05-28T08:47:30Z</time>
      </trkpt>
      <trkpt lat="45.77675" lon="5.36653">
        <ele>293.8</ele>
        <time>2023-05-28T08:47:31Z</time>
      </trkpt>
      <trkpt lat="45.77678" lon="5.36651">
        <ele>293.8</ele>
        <time>2023-05-28T08:47:32Z</time>
      </trkpt>
      <trkpt lat="45.7768" lon="5.36649">
        <ele>293.8</ele>
        <time>2023-05-28T08:47:33Z</time>
      </trkpt>
      <trkpt lat="45.77683" lon="5.36647">
        <ele>293.8</ele>
        <time>2023-05-28T08:47:34Z</time>
      </trkpt>
      <trkpt lat="45.77686" lon="5.36644">
        <ele>293.8</ele>
        <time>2023-05-28T08:47:35Z</time>
      </trkpt>
      <trkpt lat="45.77689" lon="5.36641">
        <ele>294</ele>
        <time>2023-05-28T08:47:36Z</time>
      </trkpt>
      <trkpt lat="45.77692" lon="5.36639">
        <ele>294</ele>
        <time>2023-05-28T08:47:37Z</time>
      </trkpt>
      <trkpt lat="45.77694" lon="5.36636">
        <ele>294</ele>
        <time>2023-05-28T08:47:38Z</time>
      </trkpt>
      <trkpt lat="45.77697" lon="5.36632">
        <ele>294.2</ele>
        <time>2023-05-28T08:47:39Z</time>
      </trkpt>
      <trkpt lat="45.777" lon="5.36629">
        <ele>294.4</ele>
        <time>2023-05-28T08:47:40Z</time>
      </trkpt>
      <trkpt lat="45.77702" lon="5.36625">
        <ele>294.6</ele>
        <time>2023-05-28T08:47:41Z</time>
      </trkpt>
      <trkpt lat="45.77704" lon="5.36621">
        <ele>294.6</ele>
        <time>2023-05-28T08:47:42Z</time>
      </trkpt>
      <trkpt lat="45.77706" lon="5.36617">
        <ele>294.8</ele>
        <time>2023-05-28T08:47:43Z</time>
      </trkpt>
      <trkpt lat="45.77708" lon="5.36614">
        <ele>295</ele>
        <time>2023-05-28T08:47:44Z</time>
      </trkpt>
      <trkpt lat="45.7771" lon="5.36611">
        <ele>295.2</ele>
        <time>2023-05-28T08:47:45Z</time>
      </trkpt>
      <trkpt lat="45.77712" lon="5.36607">
        <ele>295.2</ele>
        <time>2023-05-28T08:47:46Z</time>
      </trkpt>
      <trkpt lat="45.77714" lon="5.36603">
        <ele>295.4</ele>
        <time>2023-05-28T08:47:47Z</time>
      </trkpt>
      <trkpt lat="45.77716" lon="5.36599">
        <ele>296.2</ele>
        <time>2023-05-28T08:47:48Z</time>
      </trkpt>
      <trkpt lat="45.77718" lon="5.36595">
        <ele>296.4</ele>
        <time>2023-05-28T08:47:49Z</time>
      </trkpt>
      <trkpt lat="45.7772" lon="5.36592">
        <ele>296.8</ele>
        <time>2023-05-28T08:47:50Z</time>
      </trkpt>
      <trkpt lat="45.77723" lon="5.36588">
        <ele>297</ele>
        <time>2023-05-28T08:47:51Z</time>
      </trkpt>
      <trkpt lat="45.77726" lon="5.36585">
        <ele>297.2</ele>
        <time>2023-05-28T08:47:52Z</time>
      </trkpt>
      <trkpt lat="45.77728" lon="5.36582">
        <ele>297.4</ele>
        <time>2023-05-28T08:47:53Z</time>
      </trkpt>
      <trkpt lat="45.77731" lon="5.36579">
        <ele>297.6</ele>
        <time>2023-05-28T08:47:54Z</time>
      </trkpt>
      <trkpt lat="45.77733" lon="5.36576">
        <ele>297.8</ele>
        <time>2023-05-28T08:47:55Z</time>
      </trkpt>
      <trkpt lat="45.77736" lon="5.36574">
        <ele>298</ele>
        <time>2023-05-28T08:47:56Z</time>
      </trkpt>
      <trkpt lat="45.77739" lon="5.36572">
        <ele>298</ele>
        <time>2023-05-28T08:47:57Z</time>
      </trkpt>
      <trkpt lat="45.77742" lon="5.3657">
        <ele>298.2</ele>
        <time>2023-05-28T08:47:58Z</time>
      </trkpt>
      <trkpt lat="45.77744" lon="5.36567">
        <ele>298.4</ele>
        <time>2023-05-28T08:47:59Z</time>
      </trkpt>
      <trkpt lat="45.77747" lon="5.36565">
        <ele>298.4</ele>
        <time>2023-05-28T08:48:00Z</time>
      </trkpt>
      <trkpt lat="45.77749" lon="5.36562">
        <ele>298.8</ele>
        <time>2023-05-28T08:48:01Z</time>
      </trkpt>
      <trkpt lat="45.77752" lon="5.36559">
        <ele>299.6</ele>
        <time>2023-05-28T08:48:02Z</time>
      </trkpt>
      <trkpt lat="45.77755" lon="5.36557">
        <ele>299.8</ele>
        <time>2023-05-28T08:48:03Z</time>
      </trkpt>
      <trkpt lat="45.77758" lon="5.36554">
        <ele>300.2</ele>
        <time>2023-05-28T08:48:04Z</time>
      </trkpt>
      <trkpt lat="45.77761" lon="5.36551">
        <ele>300.4</ele>
        <time>2023-05-28T08:48:05Z</time>
      </trkpt>
      <trkpt lat="45.77764" lon="5.36548">
        <ele>300.6</ele>
        <time>2023-05-28T08:48:06Z</time>
      </trkpt>
      <trkpt lat="45.77767" lon="5.36545">
        <ele>300.8</ele>
        <time>2023-05-28T08:48:07Z</time>
      </trkpt>
      <trkpt lat="45.7777" lon="5.36543">
        <ele>300.8</ele>
        <time>2023-05-28T08:48:08Z</time>
      </trkpt>
      <trkpt lat="45.77773" lon="5.36541">
        <ele>300.8</ele>
        <time>2023-05-28T08:48:09Z</time>
      </trkpt>
      <trkpt lat="45.77776" lon="5.36539">
        <ele>300.8</ele>
        <time>2023-05-28T08:48:10Z</time>
      </trkpt>
      <trkpt lat="45.77779" lon="5.36537">
        <ele>301.2</ele>
        <time>2023-05-28T08:48:11Z</time>
      </trkpt>
      <trkpt lat="45.77782" lon="5.36535">
        <ele>301.4</ele>
        <time>2023-05-28T08:48:12Z</time>
      </trkpt>
      <trkpt lat="45.77785" lon="5.36532">
        <ele>301.6</ele>
        <time>2023-05-28T08:48:13Z</time>
      </trkpt>
      <trkpt lat="45.77787" lon="5.36531">
        <ele>301.6</ele>
        <time>2023-05-28T08:48:14Z</time>
      </trkpt>
      <trkpt lat="45.7779" lon="5.36529">
        <ele>302</ele>
        <time>2023-05-28T08:48:15Z</time>
      </trkpt>
      <trkpt lat="45.77793" lon="5.36526">
        <ele>302.2</ele>
        <time>2023-05-28T08:48:16Z</time>
      </trkpt>
      <trkpt lat="45.77795" lon="5.36524">
        <ele>302.6</ele>
        <time>2023-05-28T08:48:17Z</time>
      </trkpt>
      <trkpt lat="45.77799" lon="5.36522">
        <ele>302.8</ele>
        <time>2023-05-28T08:48:18Z</time>
      </trkpt>
      <trkpt lat="45.77802" lon="5.36519">
        <ele>303</ele>
        <time>2023-05-28T08:48:19Z</time>
      </trkpt>
      <trkpt lat="45.77804" lon="5.36516">
        <ele>303.2</ele>
        <time>2023-05-28T08:48:20Z</time>
      </trkpt>
      <trkpt lat="45.77807" lon="5.36513">
        <ele>303.4</ele>
        <time>2023-05-28T08:48:21Z</time>
      </trkpt>
      <trkpt lat="45.7781" lon="5.3651">
        <ele>303.4</ele>
        <time>2023-05-28T08:48:22Z</time>
      </trkpt>
      <trkpt lat="45.77812" lon="5.36506">
        <ele>303.8</ele>
        <time>2023-05-28T08:48:23Z</time>
      </trkpt>
      <trkpt lat="45.77815" lon="5.36502">
        <ele>304.6</ele>
        <time>2023-05-28T08:48:24Z</time>
      </trkpt>
      <trkpt lat="45.77817" lon="5.36498">
        <ele>305.4</ele>
        <time>2023-05-28T08:48:25Z</time>
      </trkpt>
      <trkpt lat="45.7782" lon="5.36494">
        <ele>305.6</ele>
        <time>2023-05-28T08:48:26Z</time>
      </trkpt>
      <trkpt lat="45.77822" lon="5.36489">
        <ele>306</ele>
        <time>2023-05-28T08:48:27Z</time>
      </trkpt>
      <trkpt lat="45.77825" lon="5.36485">
        <ele>306.2</ele>
        <time>2023-05-28T08:48:28Z</time>
      </trkpt>
      <trkpt lat="45.77827" lon="5.36481">
        <ele>306.6</ele>
        <time>2023-05-28T08:48:29Z</time>
      </trkpt>
      <trkpt lat="45.77829" lon="5.36477">
        <ele>306.6</ele>
        <time>2023-05-28T08:48:30Z</time>
      </trkpt>
      <trkpt lat="45.77832" lon="5.36472">
        <ele>306.8</ele>
        <time>2023-05-28T08:48:31Z</time>
      </trkpt>
      <trkpt lat="45.77834" lon="5.36468">
        <ele>307</ele>
        <time>2023-05-28T08:48:32Z</time>
      </trkpt>
      <trkpt lat="45.77836" lon="5.36463">
        <ele>307.2</ele>
        <time>2023-05-28T08:48:33Z</time>
      </trkpt>
      <trkpt lat="45.77838" lon="5.36459">
        <ele>307.6</ele>
        <time>2023-05-28T08:48:34Z</time>
      </trkpt>
      <trkpt lat="45.7784" lon="5.36454">
        <ele>307.8</ele>
        <time>2023-05-28T08:48:35Z</time>
      </trkpt>
      <trkpt lat="45.77843" lon="5.3645">
        <ele>308</ele>
        <time>2023-05-28T08:48:36Z</time>
      </trkpt>
      <trkpt lat="45.77845" lon="5.36445">
        <ele>308.2</ele>
        <time>2023-05-28T08:48:37Z</time>
      </trkpt>
      <trkpt lat="45.77847" lon="5.36441">
        <ele>308.4</ele>
        <time>2023-05-28T08:48:38Z</time>
      </trkpt>
      <trkpt lat="45.77849" lon="5.36437">
        <ele>308.8</ele>
        <time>2023-05-28T08:48:39Z</time>
      </trkpt>
      <trkpt lat="45.77851" lon="5.36433">
        <ele>308.8</ele>
        <time>2023-05-28T08:48:40Z</time>
      </trkpt>
      <trkpt lat="45.77853" lon="5.36428">
        <ele>309</ele>
        <time>2023-05-28T08:48:41Z</time>
      </trkpt>
      <trkpt lat="45.77855" lon="5.36424">
        <ele>309</ele>
        <time>2023-05-28T08:48:42Z</time>
      </trkpt>
      <trkpt lat="45.77857" lon="5.3642">
        <ele>309.2</ele>
        <time>2023-05-28T08:48:43Z</time>
      </trkpt>
      <trkpt lat="45.7786" lon="5.36416">
        <ele>309.2</ele>
        <time>2023-05-28T08:48:44Z</time>
      </trkpt>
      <trkpt lat="45.77862" lon="5.36412">
        <ele>309.2</ele>
        <time>2023-05-28T08:48:45Z</time>
      </trkpt>
      <trkpt lat="45.77864" lon="5.36407">
        <ele>309.2</ele>
        <time>2023-05-28T08:48:46Z</time>
      </trkpt>
      <trkpt lat="45.77866" lon="5.36403">
        <ele>309.4</ele>
        <time>2023-05-28T08:48:47Z</time>
      </trkpt>
      <trkpt lat="45.77867" lon="5.36399">
        <ele>309.4</ele>
        <time>2023-05-28T08:48:48Z</time>
      </trkpt>
      <trkpt lat="45.7787" lon="5.36394">
        <ele>309.6</ele>
        <time>2023-05-28T08:48:49Z</time>
      </trkpt>
      <trkpt lat="45.77872" lon="5.3639">
        <ele>309.6</ele>
        <time>2023-05-28T08:48:50Z</time>
      </trkpt>
      <trkpt lat="45.77874" lon="5.36385">
        <ele>309.6</ele>
        <time>2023-05-28T08:48:51Z</time>
      </trkpt>
      <trkpt lat="45.77876" lon="5.36381">
        <ele>309.8</ele>
        <time>2023-05-28T08:48:52Z</time>
      </trkpt>
      <trkpt lat="45.77878" lon="5.36376">
        <ele>310</ele>
        <time>2023-05-28T08:48:53Z</time>
      </trkpt>
      <trkpt lat="45.77881" lon="5.36371">
        <ele>310</ele>
        <time>2023-05-28T08:48:54Z</time>
      </trkpt>
      <trkpt lat="45.77885" lon="5.36362">
        <ele>310.2</ele>
        <time>2023-05-28T08:48:56Z</time>
      </trkpt>
      <trkpt lat="45.77888" lon="5.36357">
        <ele>310.4</ele>
        <time>2023-05-28T08:48:57Z</time>
      </trkpt>
      <trkpt lat="45.7789" lon="5.36353">
        <ele>310.6</ele>
        <time>2023-05-28T08:48:58Z</time>
      </trkpt>
      <trkpt lat="45.77892" lon="5.36349">
        <ele>310.8</ele>
        <time>2023-05-28T08:48:59Z</time>
      </trkpt>
      <trkpt lat="45.77894" lon="5.36343">
        <ele>311</ele>
        <time>2023-05-28T08:49:00Z</time>
      </trkpt>
      <trkpt lat="45.77896" lon="5.36338">
        <ele>311.4</ele>
        <time>2023-05-28T08:49:01Z</time>
      </trkpt>
      <trkpt lat="45.77898" lon="5.36334">
        <ele>311.6</ele>
        <time>2023-05-28T08:49:02Z</time>
      </trkpt>
      <trkpt lat="45.77901" lon="5.36329">
        <ele>311.8</ele>
        <time>2023-05-28T08:49:03Z</time>
      </trkpt>
      <trkpt lat="45.77903" lon="5.36324">
        <ele>312</ele>
        <time>2023-05-28T08:49:04Z</time>
      </trkpt>
      <trkpt lat="45.77906" lon="5.36319">
        <ele>312.2</ele>
        <time>2023-05-28T08:49:05Z</time>
      </trkpt>
      <trkpt lat="45.77909" lon="5.36314">
        <ele>312.6</ele>
        <time>2023-05-28T08:49:06Z</time>
      </trkpt>
      <trkpt lat="45.77912" lon="5.3631">
        <ele>312.8</ele>
        <time>2023-05-28T08:49:07Z</time>
      </trkpt>
      <trkpt lat="45.77915" lon="5.36305">
        <ele>312.8</ele>
        <time>2023-05-28T08:49:08Z</time>
      </trkpt>
      <trkpt lat="45.77918" lon="5.36301">
        <ele>312.8</ele>
        <time>2023-05-28T08:49:09Z</time>
      </trkpt>
      <trkpt lat="45.77921" lon="5.36296">
        <ele>313</ele>
        <time>2023-05-28T08:49:10Z</time>
      </trkpt>
      <trkpt lat="45.77924" lon="5.36292">
        <ele>313.2</ele>
        <time>2023-05-28T08:49:11Z</time>
      </trkpt>
      <trkpt lat="45.77931" lon="5.36284">
        <ele>313.2</ele>
        <time>2023-05-28T08:49:13Z</time>
      </trkpt>
      <trkpt lat="45.77934" lon="5.36279">
        <ele>313.2</ele>
        <time>2023-05-28T08:49:14Z</time>
      </trkpt>
      <trkpt lat="45.77937" lon="5.36275">
        <ele>313.6</ele>
        <time>2023-05-28T08:49:15Z</time>
      </trkpt>
      <trkpt lat="45.77941" lon="5.3627">
        <ele>313.8</ele>
        <time>2023-05-28T08:49:16Z</time>
      </trkpt>
      <trkpt lat="45.77944" lon="5.36265">
        <ele>314</ele>
        <time>2023-05-28T08:49:17Z</time>
      </trkpt>
      <trkpt lat="45.77947" lon="5.3626">
        <ele>314.2</ele>
        <time>2023-05-28T08:49:18Z</time>
      </trkpt>
      <trkpt lat="45.7795" lon="5.36254">
        <ele>314.4</ele>
        <time>2023-05-28T08:49:19Z</time>
      </trkpt>
      <trkpt lat="45.77953" lon="5.36249">
        <ele>314.6</ele>
        <time>2023-05-28T08:49:20Z</time>
      </trkpt>
      <trkpt lat="45.77956" lon="5.36242">
        <ele>314.6</ele>
        <time>2023-05-28T08:49:21Z</time>
      </trkpt>
      <trkpt lat="45.77959" lon="5.36236">
        <ele>314.8</ele>
        <time>2023-05-28T08:49:22Z</time>
      </trkpt>
      <trkpt lat="45.77962" lon="5.36229">
        <ele>314.8</ele>
        <time>2023-05-28T08:49:23Z</time>
      </trkpt>
      <trkpt lat="45.77964" lon="5.36221">
        <ele>315</ele>
        <time>2023-05-28T08:49:24Z</time>
      </trkpt>
      <trkpt lat="45.77966" lon="5.36213">
        <ele>315.2</ele>
        <time>2023-05-28T08:49:25Z</time>
      </trkpt>
      <trkpt lat="45.77967" lon="5.36205">
        <ele>315.2</ele>
        <time>2023-05-28T08:49:26Z</time>
      </trkpt>
      <trkpt lat="45.77967" lon="5.36199">
        <ele>315.2</ele>
        <time>2023-05-28T08:49:27Z</time>
      </trkpt>
      <trkpt lat="45.77965" lon="5.36189">
        <ele>315.2</ele>
        <time>2023-05-28T08:49:28Z</time>
      </trkpt>
      <trkpt lat="45.77963" lon="5.36181">
        <ele>315.2</ele>
        <time>2023-05-28T08:49:29Z</time>
      </trkpt>
      <trkpt lat="45.7796" lon="5.36174">
        <ele>315.2</ele>
        <time>2023-05-28T08:49:30Z</time>
      </trkpt>
      <trkpt lat="45.77956" lon="5.36167">
        <ele>315</ele>
        <time>2023-05-28T08:49:31Z</time>
      </trkpt>
      <trkpt lat="45.77952" lon="5.36159">
        <ele>315.2</ele>
        <time>2023-05-28T08:49:32Z</time>
      </trkpt>
      <trkpt lat="45.77948" lon="5.36152">
        <ele>315.2</ele>
        <time>2023-05-28T08:49:33Z</time>
      </trkpt>
      <trkpt lat="45.77945" lon="5.36145">
        <ele>315</ele>
        <time>2023-05-28T08:49:34Z</time>
      </trkpt>
      <trkpt lat="45.77941" lon="5.36138">
        <ele>315</ele>
        <time>2023-05-28T08:49:35Z</time>
      </trkpt>
      <trkpt lat="45.77938" lon="5.3613">
        <ele>315</ele>
        <time>2023-05-28T08:49:36Z</time>
      </trkpt>
      <trkpt lat="45.77935" lon="5.36123">
        <ele>315</ele>
        <time>2023-05-28T08:49:37Z</time>
      </trkpt>
      <trkpt lat="45.7793" lon="5.36113">
        <ele>314.8</ele>
        <time>2023-05-28T08:49:38Z</time>
      </trkpt>
      <trkpt lat="45.77926" lon="5.36104">
        <ele>314.8</ele>
        <time>2023-05-28T08:49:39Z</time>
      </trkpt>
      <trkpt lat="45.77922" lon="5.36095">
        <ele>314.6</ele>
        <time>2023-05-28T08:49:40Z</time>
      </trkpt>
      <trkpt lat="45.7792" lon="5.36088">
        <ele>314.2</ele>
        <time>2023-05-28T08:49:41Z</time>
      </trkpt>
      <trkpt lat="45.77916" lon="5.36076">
        <ele>314.2</ele>
        <time>2023-05-28T08:49:42Z</time>
      </trkpt>
      <trkpt lat="45.77912" lon="5.36067">
        <ele>314</ele>
        <time>2023-05-28T08:49:43Z</time>
      </trkpt>
      <trkpt lat="45.77909" lon="5.36057">
        <ele>313.8</ele>
        <time>2023-05-28T08:49:44Z</time>
      </trkpt>
      <trkpt lat="45.77906" lon="5.36047">
        <ele>313.8</ele>
        <time>2023-05-28T08:49:45Z</time>
      </trkpt>
      <trkpt lat="45.77904" lon="5.36037">
        <ele>313.6</ele>
        <time>2023-05-28T08:49:46Z</time>
      </trkpt>
      <trkpt lat="45.77903" lon="5.36029">
        <ele>313.6</ele>
        <time>2023-05-28T08:49:47Z</time>
      </trkpt>
      <trkpt lat="45.77901" lon="5.36018">
        <ele>313.4</ele>
        <time>2023-05-28T08:49:48Z</time>
      </trkpt>
      <trkpt lat="45.779" lon="5.36009">
        <ele>313.4</ele>
        <time>2023-05-28T08:49:49Z</time>
      </trkpt>
      <trkpt lat="45.77899" lon="5.36">
        <ele>313.4</ele>
        <time>2023-05-28T08:49:50Z</time>
      </trkpt>
      <trkpt lat="45.77898" lon="5.35992">
        <ele>313.6</ele>
        <time>2023-05-28T08:49:51Z</time>
      </trkpt>
      <trkpt lat="45.77897" lon="5.35985">
        <ele>313.4</ele>
        <time>2023-05-28T08:49:52Z</time>
      </trkpt>
      <trkpt lat="45.77896" lon="5.35978">
        <ele>313.4</ele>
        <time>2023-05-28T08:49:53Z</time>
      </trkpt>
      <trkpt lat="45.77894" lon="5.3597">
        <ele>313.6</ele>
        <time>2023-05-28T08:49:54Z</time>
      </trkpt>
      <trkpt lat="45.77893" lon="5.35963">
        <ele>314</ele>
        <time>2023-05-28T08:49:55Z</time>
      </trkpt>
      <trkpt lat="45.77891" lon="5.35956">
        <ele>314.2</ele>
        <time>2023-05-28T08:49:56Z</time>
      </trkpt>
      <trkpt lat="45.77889" lon="5.35948">
        <ele>314.6</ele>
        <time>2023-05-28T08:49:57Z</time>
      </trkpt>
      <trkpt lat="45.77887" lon="5.3594">
        <ele>314.6</ele>
        <time>2023-05-28T08:49:58Z</time>
      </trkpt>
      <trkpt lat="45.77885" lon="5.35933">
        <ele>314.6</ele>
        <time>2023-05-28T08:49:59Z</time>
      </trkpt>
      <trkpt lat="45.77883" lon="5.35925">
        <ele>314.6</ele>
        <time>2023-05-28T08:50:00Z</time>
      </trkpt>
      <trkpt lat="45.77881" lon="5.35917">
        <ele>314.6</ele>
        <time>2023-05-28T08:50:01Z</time>
      </trkpt>
      <trkpt lat="45.7788" lon="5.3591">
        <ele>314.6</ele>
        <time>2023-05-28T08:50:02Z</time>
      </trkpt>
      <trkpt lat="45.77879" lon="5.35899">
        <ele>314.6</ele>
        <time>2023-05-28T08:50:03Z</time>
      </trkpt>
      <trkpt lat="45.77877" lon="5.35889">
        <ele>314.6</ele>
        <time>2023-05-28T08:50:04Z</time>
      </trkpt>
      <trkpt lat="45.77877" lon="5.3588">
        <ele>314.8</ele>
        <time>2023-05-28T08:50:05Z</time>
      </trkpt>
      <trkpt lat="45.77877" lon="5.35872">
        <ele>314.6</ele>
        <time>2023-05-28T08:50:06Z</time>
      </trkpt>
      <trkpt lat="45.77877" lon="5.35861">
        <ele>314.6</ele>
        <time>2023-05-28T08:50:07Z</time>
      </trkpt>
      <trkpt lat="45.77878" lon="5.35852">
        <ele>314.6</ele>
        <time>2023-05-28T08:50:08Z</time>
      </trkpt>
      <trkpt lat="45.77878" lon="5.35843">
        <ele>314.8</ele>
        <time>2023-05-28T08:50:09Z</time>
      </trkpt>
      <trkpt lat="45.77878" lon="5.35836">
        <ele>314.8</ele>
        <time>2023-05-28T08:50:10Z</time>
      </trkpt>
      <trkpt lat="45.77879" lon="5.35827">
        <ele>314.8</ele>
        <time>2023-05-28T08:50:11Z</time>
      </trkpt>
      <trkpt lat="45.77879" lon="5.35816">
        <ele>314.8</ele>
        <time>2023-05-28T08:50:12Z</time>
      </trkpt>
      <trkpt lat="45.7788" lon="5.35808">
        <ele>314.8</ele>
        <time>2023-05-28T08:50:13Z</time>
      </trkpt>
      <trkpt lat="45.77881" lon="5.358">
        <ele>314.8</ele>
        <time>2023-05-28T08:50:14Z</time>
      </trkpt>
      <trkpt lat="45.77881" lon="5.35793">
        <ele>315</ele>
        <time>2023-05-28T08:50:15Z</time>
      </trkpt>
      <trkpt lat="45.77882" lon="5.35784">
        <ele>315</ele>
        <time>2023-05-28T08:50:16Z</time>
      </trkpt>
      <trkpt lat="45.77883" lon="5.35777">
        <ele>315</ele>
        <time>2023-05-28T08:50:17Z</time>
      </trkpt>
      <trkpt lat="45.77884" lon="5.35769">
        <ele>315.2</ele>
        <time>2023-05-28T08:50:18Z</time>
      </trkpt>
      <trkpt lat="45.77886" lon="5.35762">
        <ele>315.2</ele>
        <time>2023-05-28T08:50:19Z</time>
      </trkpt>
      <trkpt lat="45.77887" lon="5.35754">
        <ele>315.2</ele>
        <time>2023-05-28T08:50:20Z</time>
      </trkpt>
      <trkpt lat="45.77889" lon="5.35747">
        <ele>315.4</ele>
        <time>2023-05-28T08:50:21Z</time>
      </trkpt>
      <trkpt lat="45.77891" lon="5.35739">
        <ele>315.4</ele>
        <time>2023-05-28T08:50:22Z</time>
      </trkpt>
      <trkpt lat="45.77894" lon="5.35732">
        <ele>315.4</ele>
        <time>2023-05-28T08:50:23Z</time>
      </trkpt>
      <trkpt lat="45.77896" lon="5.35724">
        <ele>315.4</ele>
        <time>2023-05-28T08:50:24Z</time>
      </trkpt>
      <trkpt lat="45.77899" lon="5.35717">
        <ele>315.6</ele>
        <time>2023-05-28T08:50:25Z</time>
      </trkpt>
      <trkpt lat="45.77902" lon="5.3571">
        <ele>315.6</ele>
        <time>2023-05-28T08:50:26Z</time>
      </trkpt>
      <trkpt lat="45.77905" lon="5.35703">
        <ele>315.6</ele>
        <time>2023-05-28T08:50:27Z</time>
      </trkpt>
      <trkpt lat="45.77908" lon="5.35697">
        <ele>315.4</ele>
        <time>2023-05-28T08:50:28Z</time>
      </trkpt>
      <trkpt lat="45.77912" lon="5.3569">
        <ele>315.2</ele>
        <time>2023-05-28T08:50:29Z</time>
      </trkpt>
      <trkpt lat="45.77915" lon="5.35684">
        <ele>315.2</ele>
        <time>2023-05-28T08:50:30Z</time>
      </trkpt>
      <trkpt lat="45.77918" lon="5.35677">
        <ele>315.2</ele>
        <time>2023-05-28T08:50:31Z</time>
      </trkpt>
      <trkpt lat="45.77921" lon="5.35671">
        <ele>315.2</ele>
        <time>2023-05-28T08:50:32Z</time>
      </trkpt>
      <trkpt lat="45.77924" lon="5.35665">
        <ele>315.2</ele>
        <time>2023-05-28T08:50:33Z</time>
      </trkpt>
      <trkpt lat="45.77927" lon="5.35658">
        <ele>315.2</ele>
        <time>2023-05-28T08:50:34Z</time>
      </trkpt>
      <trkpt lat="45.7793" lon="5.35652">
        <ele>315.2</ele>
        <time>2023-05-28T08:50:35Z</time>
      </trkpt>
      <trkpt lat="45.77933" lon="5.35645">
        <ele>315.6</ele>
        <time>2023-05-28T08:50:36Z</time>
      </trkpt>
      <trkpt lat="45.77936" lon="5.35639">
        <ele>315.6</ele>
        <time>2023-05-28T08:50:37Z</time>
      </trkpt>
      <trkpt lat="45.77939" lon="5.35632">
        <ele>315.8</ele>
        <time>2023-05-28T08:50:38Z</time>
      </trkpt>
      <trkpt lat="45.77942" lon="5.35626">
        <ele>315.8</ele>
        <time>2023-05-28T08:50:39Z</time>
      </trkpt>
      <trkpt lat="45.77945" lon="5.35621">
        <ele>316</ele>
        <time>2023-05-28T08:50:40Z</time>
      </trkpt>
      <trkpt lat="45.77948" lon="5.35614">
        <ele>316.2</ele>
        <time>2023-05-28T08:50:41Z</time>
      </trkpt>
      <trkpt lat="45.77951" lon="5.35608">
        <ele>316.2</ele>
        <time>2023-05-28T08:50:42Z</time>
      </trkpt>
      <trkpt lat="45.77954" lon="5.35601">
        <ele>316.2</ele>
        <time>2023-05-28T08:50:43Z</time>
      </trkpt>
      <trkpt lat="45.77956" lon="5.35595">
        <ele>316.4</ele>
        <time>2023-05-28T08:50:44Z</time>
      </trkpt>
      <trkpt lat="45.77959" lon="5.35589">
        <ele>316.4</ele>
        <time>2023-05-28T08:50:45Z</time>
      </trkpt>
      <trkpt lat="45.77961" lon="5.35582">
        <ele>316.4</ele>
        <time>2023-05-28T08:50:46Z</time>
      </trkpt>
      <trkpt lat="45.77963" lon="5.35575">
        <ele>316.4</ele>
        <time>2023-05-28T08:50:47Z</time>
      </trkpt>
      <trkpt lat="45.77966" lon="5.35568">
        <ele>316.6</ele>
        <time>2023-05-28T08:50:48Z</time>
      </trkpt>
      <trkpt lat="45.77968" lon="5.35561">
        <ele>316.8</ele>
        <time>2023-05-28T08:50:49Z</time>
      </trkpt>
      <trkpt lat="45.7797" lon="5.35554">
        <ele>316.8</ele>
        <time>2023-05-28T08:50:50Z</time>
      </trkpt>
      <trkpt lat="45.77973" lon="5.35547">
        <ele>317</ele>
        <time>2023-05-28T08:50:51Z</time>
      </trkpt>
      <trkpt lat="45.77975" lon="5.3554">
        <ele>317.4</ele>
        <time>2023-05-28T08:50:52Z</time>
      </trkpt>
      <trkpt lat="45.77977" lon="5.35533">
        <ele>317.6</ele>
        <time>2023-05-28T08:50:53Z</time>
      </trkpt>
      <trkpt lat="45.77978" lon="5.35526">
        <ele>317.6</ele>
        <time>2023-05-28T08:50:54Z</time>
      </trkpt>
      <trkpt lat="45.7798" lon="5.35519">
        <ele>317.8</ele>
        <time>2023-05-28T08:50:55Z</time>
      </trkpt>
      <trkpt lat="45.77982" lon="5.35511">
        <ele>318</ele>
        <time>2023-05-28T08:50:56Z</time>
      </trkpt>
      <trkpt lat="45.77982" lon="5.35504">
        <ele>318.2</ele>
        <time>2023-05-28T08:50:57Z</time>
      </trkpt>
      <trkpt lat="45.77983" lon="5.35496">
        <ele>318.2</ele>
        <time>2023-05-28T08:50:58Z</time>
      </trkpt>
      <trkpt lat="45.77983" lon="5.35488">
        <ele>318.2</ele>
        <time>2023-05-28T08:50:59Z</time>
      </trkpt>
      <trkpt lat="45.77983" lon="5.35482">
        <ele>318.2</ele>
        <time>2023-05-28T08:51:00Z</time>
      </trkpt>
      <trkpt lat="45.77983" lon="5.35473">
        <ele>318.2</ele>
        <time>2023-05-28T08:51:01Z</time>
      </trkpt>
      <trkpt lat="45.77983" lon="5.35466">
        <ele>318.2</ele>
        <time>2023-05-28T08:51:02Z</time>
      </trkpt>
      <trkpt lat="45.77984" lon="5.35459">
        <ele>318.2</ele>
        <time>2023-05-28T08:51:03Z</time>
      </trkpt>
      <trkpt lat="45.77985" lon="5.35452">
        <ele>318.4</ele>
        <time>2023-05-28T08:51:04Z</time>
      </trkpt>
      <trkpt lat="45.77986" lon="5.35446">
        <ele>318.4</ele>
        <time>2023-05-28T08:51:05Z</time>
      </trkpt>
      <trkpt lat="45.77987" lon="5.35439">
        <ele>318.6</ele>
        <time>2023-05-28T08:51:06Z</time>
      </trkpt>
      <trkpt lat="45.77989" lon="5.35433">
        <ele>318.8</ele>
        <time>2023-05-28T08:51:07Z</time>
      </trkpt>
      <trkpt lat="45.77991" lon="5.35427">
        <ele>319.2</ele>
        <time>2023-05-28T08:51:08Z</time>
      </trkpt>
      <trkpt lat="45.77994" lon="5.35421">
        <ele>319.4</ele>
        <time>2023-05-28T08:51:09Z</time>
      </trkpt>
      <trkpt lat="45.77997" lon="5.35416">
        <ele>319.6</ele>
        <time>2023-05-28T08:51:10Z</time>
      </trkpt>
      <trkpt lat="45.78" lon="5.35411">
        <ele>319.8</ele>
        <time>2023-05-28T08:51:11Z</time>
      </trkpt>
      <trkpt lat="45.78003" lon="5.35407">
        <ele>319.8</ele>
        <time>2023-05-28T08:51:12Z</time>
      </trkpt>
      <trkpt lat="45.78006" lon="5.35403">
        <ele>320</ele>
        <time>2023-05-28T08:51:13Z</time>
      </trkpt>
      <trkpt lat="45.7801" lon="5.35399">
        <ele>320.2</ele>
        <time>2023-05-28T08:51:14Z</time>
      </trkpt>
      <trkpt lat="45.78014" lon="5.35395">
        <ele>320.2</ele>
        <time>2023-05-28T08:51:15Z</time>
      </trkpt>
      <trkpt lat="45.78018" lon="5.35391">
        <ele>320.2</ele>
        <time>2023-05-28T08:51:16Z</time>
      </trkpt>
      <trkpt lat="45.78022" lon="5.35388">
        <ele>320.4</ele>
        <time>2023-05-28T08:51:17Z</time>
      </trkpt>
      <trkpt lat="45.78025" lon="5.35385">
        <ele>320.4</ele>
        <time>2023-05-28T08:51:18Z</time>
      </trkpt>
      <trkpt lat="45.78029" lon="5.35381">
        <ele>320.4</ele>
        <time>2023-05-28T08:51:19Z</time>
      </trkpt>
      <trkpt lat="45.78032" lon="5.35377">
        <ele>320.6</ele>
        <time>2023-05-28T08:51:20Z</time>
      </trkpt>
      <trkpt lat="45.78036" lon="5.35374">
        <ele>320.6</ele>
        <time>2023-05-28T08:51:21Z</time>
      </trkpt>
      <trkpt lat="45.78039" lon="5.35371">
        <ele>321.2</ele>
        <time>2023-05-28T08:51:22Z</time>
      </trkpt>
      <trkpt lat="45.78043" lon="5.35367">
        <ele>321.4</ele>
        <time>2023-05-28T08:51:23Z</time>
      </trkpt>
      <trkpt lat="45.78046" lon="5.35363">
        <ele>321.6</ele>
        <time>2023-05-28T08:51:24Z</time>
      </trkpt>
      <trkpt lat="45.78049" lon="5.35359">
        <ele>321.8</ele>
        <time>2023-05-28T08:51:25Z</time>
      </trkpt>
      <trkpt lat="45.78052" lon="5.35355">
        <ele>321.8</ele>
        <time>2023-05-28T08:51:26Z</time>
      </trkpt>
      <trkpt lat="45.78055" lon="5.3535">
        <ele>322.2</ele>
        <time>2023-05-28T08:51:27Z</time>
      </trkpt>
      <trkpt lat="45.78058" lon="5.35345">
        <ele>322.4</ele>
        <time>2023-05-28T08:51:28Z</time>
      </trkpt>
      <trkpt lat="45.78061" lon="5.3534">
        <ele>322.6</ele>
        <time>2023-05-28T08:51:29Z</time>
      </trkpt>
      <trkpt lat="45.78064" lon="5.35335">
        <ele>322.6</ele>
        <time>2023-05-28T08:51:30Z</time>
      </trkpt>
      <trkpt lat="45.78067" lon="5.3533">
        <ele>322.6</ele>
        <time>2023-05-28T08:51:31Z</time>
      </trkpt>
      <trkpt lat="45.7807" lon="5.35324">
        <ele>322.8</ele>
        <time>2023-05-28T08:51:32Z</time>
      </trkpt>
      <trkpt lat="45.78073" lon="5.35319">
        <ele>322.8</ele>
        <time>2023-05-28T08:51:33Z</time>
      </trkpt>
      <trkpt lat="45.78075" lon="5.35313">
        <ele>322.8</ele>
        <time>2023-05-28T08:51:34Z</time>
      </trkpt>
      <trkpt lat="45.78078" lon="5.35307">
        <ele>322.8</ele>
        <time>2023-05-28T08:51:35Z</time>
      </trkpt>
      <trkpt lat="45.78081" lon="5.35302">
        <ele>322.8</ele>
        <time>2023-05-28T08:51:36Z</time>
      </trkpt>
      <trkpt lat="45.78083" lon="5.35296">
        <ele>322.8</ele>
        <time>2023-05-28T08:51:37Z</time>
      </trkpt>
      <trkpt lat="45.78085" lon="5.35289">
        <ele>323</ele>
        <time>2023-05-28T08:51:38Z</time>
      </trkpt>
      <trkpt lat="45.78087" lon="5.35284">
        <ele>323</ele>
        <time>2023-05-28T08:51:39Z</time>
      </trkpt>
      <trkpt lat="45.78089" lon="5.35277">
        <ele>323.2</ele>
        <time>2023-05-28T08:51:40Z</time>
      </trkpt>
      <trkpt lat="45.78091" lon="5.3527">
        <ele>323.2</ele>
        <time>2023-05-28T08:51:41Z</time>
      </trkpt>
      <trkpt lat="45.78093" lon="5.35263">
        <ele>323.4</ele>
        <time>2023-05-28T08:51:42Z</time>
      </trkpt>
      <trkpt lat="45.78096" lon="5.35257">
        <ele>323.6</ele>
        <time>2023-05-28T08:51:43Z</time>
      </trkpt>
      <trkpt lat="45.78098" lon="5.3525">
        <ele>323.6</ele>
        <time>2023-05-28T08:51:44Z</time>
      </trkpt>
      <trkpt lat="45.781" lon="5.35243">
        <ele>323.6</ele>
        <time>2023-05-28T08:51:45Z</time>
      </trkpt>
      <trkpt lat="45.78102" lon="5.35236">
        <ele>323.8</ele>
        <time>2023-05-28T08:51:46Z</time>
      </trkpt>
      <trkpt lat="45.78103" lon="5.3523">
        <ele>324</ele>
        <time>2023-05-28T08:51:47Z</time>
      </trkpt>
      <trkpt lat="45.78105" lon="5.35223">
        <ele>324</ele>
        <time>2023-05-28T08:51:48Z</time>
      </trkpt>
      <trkpt lat="45.78107" lon="5.35216">
        <ele>324.2</ele>
        <time>2023-05-28T08:51:49Z</time>
      </trkpt>
      <trkpt lat="45.78111" lon="5.35204">
        <ele>324.6</ele>
        <time>2023-05-28T08:51:51Z</time>
      </trkpt>
      <trkpt lat="45.78113" lon="5.35197">
        <ele>324.6</ele>
        <time>2023-05-28T08:51:52Z</time>
      </trkpt>
      <trkpt lat="45.78114" lon="5.35192">
        <ele>324.8</ele>
        <time>2023-05-28T08:51:53Z</time>
      </trkpt>
      <trkpt lat="45.78116" lon="5.35187">
        <ele>325.6</ele>
        <time>2023-05-28T08:51:54Z</time>
      </trkpt>
      <trkpt lat="45.78118" lon="5.35182">
        <ele>325.8</ele>
        <time>2023-05-28T08:51:55Z</time>
      </trkpt>
      <trkpt lat="45.78119" lon="5.35178">
        <ele>326</ele>
        <time>2023-05-28T08:51:56Z</time>
      </trkpt>
      <trkpt lat="45.7812" lon="5.35174">
        <ele>326.2</ele>
        <time>2023-05-28T08:51:57Z</time>
      </trkpt>
      <trkpt lat="45.7812" lon="5.3517">
        <ele>326.2</ele>
        <time>2023-05-28T08:51:58Z</time>
      </trkpt>
      <trkpt lat="45.7812" lon="5.35164">
        <ele>326.2</ele>
        <time>2023-05-28T08:51:59Z</time>
      </trkpt>
      <trkpt lat="45.78118" lon="5.35159">
        <ele>326.2</ele>
        <time>2023-05-28T08:52:00Z</time>
      </trkpt>
      <trkpt lat="45.78116" lon="5.35154">
        <ele>326.4</ele>
        <time>2023-05-28T08:52:01Z</time>
      </trkpt>
      <trkpt lat="45.78113" lon="5.35148">
        <ele>326.4</ele>
        <time>2023-05-28T08:52:02Z</time>
      </trkpt>
      <trkpt lat="45.78111" lon="5.35143">
        <ele>326.4</ele>
        <time>2023-05-28T08:52:03Z</time>
      </trkpt>
      <trkpt lat="45.78108" lon="5.35138">
        <ele>326.4</ele>
        <time>2023-05-28T08:52:04Z</time>
      </trkpt>
      <trkpt lat="45.78105" lon="5.35132">
        <ele>326.4</ele>
        <time>2023-05-28T08:52:05Z</time>
      </trkpt>
      <trkpt lat="45.78102" lon="5.35128">
        <ele>326.4</ele>
        <time>2023-05-28T08:52:06Z</time>
      </trkpt>
      <trkpt lat="45.781" lon="5.35123">
        <ele>326.4</ele>
        <time>2023-05-28T08:52:07Z</time>
      </trkpt>
      <trkpt lat="45.78097" lon="5.35118">
        <ele>326.4</ele>
        <time>2023-05-28T08:52:08Z</time>
      </trkpt>
      <trkpt lat="45.78094" lon="5.35114">
        <ele>326.2</ele>
        <time>2023-05-28T08:52:09Z</time>
      </trkpt>
      <trkpt lat="45.78092" lon="5.35109">
        <ele>326</ele>
        <time>2023-05-28T08:52:10Z</time>
      </trkpt>
      <trkpt lat="45.78091" lon="5.35103">
        <ele>326</ele>
        <time>2023-05-28T08:52:11Z</time>
      </trkpt>
      <trkpt lat="45.78091" lon="5.35097">
        <ele>325.8</ele>
        <time>2023-05-28T08:52:12Z</time>
      </trkpt>
      <trkpt lat="45.78092" lon="5.35092">
        <ele>325.8</ele>
        <time>2023-05-28T08:52:13Z</time>
      </trkpt>
      <trkpt lat="45.78094" lon="5.35088">
        <ele>325.8</ele>
        <time>2023-05-28T08:52:14Z</time>
      </trkpt>
      <trkpt lat="45.78098" lon="5.35082">
        <ele>325.8</ele>
        <time>2023-05-28T08:52:15Z</time>
      </trkpt>
      <trkpt lat="45.78101" lon="5.35077">
        <ele>325.8</ele>
        <time>2023-05-28T08:52:16Z</time>
      </trkpt>
      <trkpt lat="45.78104" lon="5.35072">
        <ele>325.8</ele>
        <time>2023-05-28T08:52:17Z</time>
      </trkpt>
      <trkpt lat="45.78107" lon="5.35067">
        <ele>325.8</ele>
        <time>2023-05-28T08:52:18Z</time>
      </trkpt>
      <trkpt lat="45.7811" lon="5.35063">
        <ele>326</ele>
        <time>2023-05-28T08:52:19Z</time>
      </trkpt>
      <trkpt lat="45.78113" lon="5.35058">
        <ele>326.4</ele>
        <time>2023-05-28T08:52:20Z</time>
      </trkpt>
      <trkpt lat="45.78116" lon="5.35053">
        <ele>326.4</ele>
        <time>2023-05-28T08:52:21Z</time>
      </trkpt>
      <trkpt lat="45.78119" lon="5.35049">
        <ele>327.8</ele>
        <time>2023-05-28T08:52:22Z</time>
      </trkpt>
      <trkpt lat="45.78121" lon="5.35044">
        <ele>328.4</ele>
        <time>2023-05-28T08:52:23Z</time>
      </trkpt>
      <trkpt lat="45.78124" lon="5.35039">
        <ele>329</ele>
        <time>2023-05-28T08:52:24Z</time>
      </trkpt>
      <trkpt lat="45.78127" lon="5.35035">
        <ele>329.2</ele>
        <time>2023-05-28T08:52:25Z</time>
      </trkpt>
      <trkpt lat="45.7813" lon="5.3503">
        <ele>329.4</ele>
        <time>2023-05-28T08:52:26Z</time>
      </trkpt>
      <trkpt lat="45.78132" lon="5.35026">
        <ele>329.4</ele>
        <time>2023-05-28T08:52:27Z</time>
      </trkpt>
      <trkpt lat="45.78135" lon="5.35021">
        <ele>329.6</ele>
        <time>2023-05-28T08:52:28Z</time>
      </trkpt>
      <trkpt lat="45.78138" lon="5.35017">
        <ele>329.8</ele>
        <time>2023-05-28T08:52:29Z</time>
      </trkpt>
      <trkpt lat="45.78141" lon="5.35013">
        <ele>330</ele>
        <time>2023-05-28T08:52:30Z</time>
      </trkpt>
      <trkpt lat="45.78144" lon="5.35008">
        <ele>330.2</ele>
        <time>2023-05-28T08:52:31Z</time>
      </trkpt>
      <trkpt lat="45.78147" lon="5.35004">
        <ele>330.2</ele>
        <time>2023-05-28T08:52:32Z</time>
      </trkpt>
      <trkpt lat="45.7815" lon="5.35">
        <ele>330.4</ele>
        <time>2023-05-28T08:52:33Z</time>
      </trkpt>
      <trkpt lat="45.78153" lon="5.34996">
        <ele>330.6</ele>
        <time>2023-05-28T08:52:34Z</time>
      </trkpt>
      <trkpt lat="45.78156" lon="5.34992">
        <ele>330.8</ele>
        <time>2023-05-28T08:52:35Z</time>
      </trkpt>
      <trkpt lat="45.78159" lon="5.34988">
        <ele>331</ele>
        <time>2023-05-28T08:52:36Z</time>
      </trkpt>
      <trkpt lat="45.78162" lon="5.34984">
        <ele>331.2</ele>
        <time>2023-05-28T08:52:37Z</time>
      </trkpt>
      <trkpt lat="45.78165" lon="5.3498">
        <ele>331.6</ele>
        <time>2023-05-28T08:52:38Z</time>
      </trkpt>
      <trkpt lat="45.78168" lon="5.34976">
        <ele>331.6</ele>
        <time>2023-05-28T08:52:39Z</time>
      </trkpt>
      <trkpt lat="45.78171" lon="5.34972">
        <ele>332</ele>
        <time>2023-05-28T08:52:40Z</time>
      </trkpt>
      <trkpt lat="45.78174" lon="5.34967">
        <ele>332.2</ele>
        <time>2023-05-28T08:52:41Z</time>
      </trkpt>
      <trkpt lat="45.78177" lon="5.34964">
        <ele>332.2</ele>
        <time>2023-05-28T08:52:42Z</time>
      </trkpt>
      <trkpt lat="45.7818" lon="5.3496">
        <ele>332.4</ele>
        <time>2023-05-28T08:52:43Z</time>
      </trkpt>
      <trkpt lat="45.78183" lon="5.34957">
        <ele>332.6</ele>
        <time>2023-05-28T08:52:44Z</time>
      </trkpt>
      <trkpt lat="45.78185" lon="5.34953">
        <ele>333.2</ele>
        <time>2023-05-28T08:52:45Z</time>
      </trkpt>
      <trkpt lat="45.78187" lon="5.3495">
        <ele>333.2</ele>
        <time>2023-05-28T08:52:46Z</time>
      </trkpt>
      <trkpt lat="45.78191" lon="5.34946">
        <ele>333.6</ele>
        <time>2023-05-28T08:52:47Z</time>
      </trkpt>
      <trkpt lat="45.78194" lon="5.34943">
        <ele>333.6</ele>
        <time>2023-05-28T08:52:48Z</time>
      </trkpt>
      <trkpt lat="45.78196" lon="5.34939">
        <ele>334</ele>
        <time>2023-05-28T08:52:49Z</time>
      </trkpt>
      <trkpt lat="45.78199" lon="5.34936">
        <ele>334.4</ele>
        <time>2023-05-28T08:52:50Z</time>
      </trkpt>
      <trkpt lat="45.78202" lon="5.34932">
        <ele>334.6</ele>
        <time>2023-05-28T08:52:51Z</time>
      </trkpt>
      <trkpt lat="45.78204" lon="5.34928">
        <ele>334.8</ele>
        <time>2023-05-28T08:52:52Z</time>
      </trkpt>
      <trkpt lat="45.78207" lon="5.34925">
        <ele>335</ele>
        <time>2023-05-28T08:52:53Z</time>
      </trkpt>
      <trkpt lat="45.78209" lon="5.34921">
        <ele>335.4</ele>
        <time>2023-05-28T08:52:54Z</time>
      </trkpt>
      <trkpt lat="45.78212" lon="5.34917">
        <ele>335.8</ele>
        <time>2023-05-28T08:52:55Z</time>
      </trkpt>
      <trkpt lat="45.78215" lon="5.34913">
        <ele>336.2</ele>
        <time>2023-05-28T08:52:56Z</time>
      </trkpt>
      <trkpt lat="45.7822" lon="5.34906">
        <ele>336.4</ele>
        <time>2023-05-28T08:52:58Z</time>
      </trkpt>
      <trkpt lat="45.78223" lon="5.34902">
        <ele>336.8</ele>
        <time>2023-05-28T08:52:59Z</time>
      </trkpt>
      <trkpt lat="45.78226" lon="5.34898">
        <ele>336.8</ele>
        <time>2023-05-28T08:53:00Z</time>
      </trkpt>
      <trkpt lat="45.78229" lon="5.34895">
        <ele>337</ele>
        <time>2023-05-28T08:53:01Z</time>
      </trkpt>
      <trkpt lat="45.78232" lon="5.34891">
        <ele>337.2</ele>
        <time>2023-05-28T08:53:02Z</time>
      </trkpt>
      <trkpt lat="45.78234" lon="5.34886">
        <ele>337.4</ele>
        <time>2023-05-28T08:53:03Z</time>
      </trkpt>
      <trkpt lat="45.78238" lon="5.34882">
        <ele>337.6</ele>
        <time>2023-05-28T08:53:04Z</time>
      </trkpt>
      <trkpt lat="45.7824" lon="5.34879">
        <ele>337.8</ele>
        <time>2023-05-28T08:53:05Z</time>
      </trkpt>
      <trkpt lat="45.78244" lon="5.34874">
        <ele>338.2</ele>
        <time>2023-05-28T08:53:06Z</time>
      </trkpt>
      <trkpt lat="45.78246" lon="5.3487">
        <ele>338.4</ele>
        <time>2023-05-28T08:53:07Z</time>
      </trkpt>
      <trkpt lat="45.78254" lon="5.3486">
        <ele>338.8</ele>
        <time>2023-05-28T08:53:09Z</time>
      </trkpt>
      <trkpt lat="45.78257" lon="5.34856">
        <ele>339</ele>
        <time>2023-05-28T08:53:10Z</time>
      </trkpt>
      <trkpt lat="45.78259" lon="5.34852">
        <ele>339</ele>
        <time>2023-05-28T08:53:11Z</time>
      </trkpt>
      <trkpt lat="45.78263" lon="5.34846">
        <ele>339.4</ele>
        <time>2023-05-28T08:53:12Z</time>
      </trkpt>
      <trkpt lat="45.78267" lon="5.34841">
        <ele>339.8</ele>
        <time>2023-05-28T08:53:13Z</time>
      </trkpt>
      <trkpt lat="45.7827" lon="5.34836">
        <ele>339.8</ele>
        <time>2023-05-28T08:53:14Z</time>
      </trkpt>
      <trkpt lat="45.78274" lon="5.34831">
        <ele>340.2</ele>
        <time>2023-05-28T08:53:15Z</time>
      </trkpt>
      <trkpt lat="45.78277" lon="5.34826">
        <ele>340.2</ele>
        <time>2023-05-28T08:53:16Z</time>
      </trkpt>
      <trkpt lat="45.7828" lon="5.34822">
        <ele>340.4</ele>
        <time>2023-05-28T08:53:17Z</time>
      </trkpt>
      <trkpt lat="45.78284" lon="5.34816">
        <ele>340.4</ele>
        <time>2023-05-28T08:53:18Z</time>
      </trkpt>
      <trkpt lat="45.78288" lon="5.34811">
        <ele>340.4</ele>
        <time>2023-05-28T08:53:19Z</time>
      </trkpt>
      <trkpt lat="45.78291" lon="5.34806">
        <ele>340.6</ele>
        <time>2023-05-28T08:53:20Z</time>
      </trkpt>
      <trkpt lat="45.78294" lon="5.34802">
        <ele>340.6</ele>
        <time>2023-05-28T08:53:21Z</time>
      </trkpt>
      <trkpt lat="45.78297" lon="5.34798">
        <ele>340.6</ele>
        <time>2023-05-28T08:53:22Z</time>
      </trkpt>
      <trkpt lat="45.78301" lon="5.34792">
        <ele>340.8</ele>
        <time>2023-05-28T08:53:23Z</time>
      </trkpt>
      <trkpt lat="45.78305" lon="5.34787">
        <ele>340.8</ele>
        <time>2023-05-28T08:53:24Z</time>
      </trkpt>
      <trkpt lat="45.78308" lon="5.34783">
        <ele>341</ele>
        <time>2023-05-28T08:53:25Z</time>
      </trkpt>
      <trkpt lat="45.78311" lon="5.34779">
        <ele>341</ele>
        <time>2023-05-28T08:53:26Z</time>
      </trkpt>
      <trkpt lat="45.78315" lon="5.34774">
        <ele>341.2</ele>
        <time>2023-05-28T08:53:27Z</time>
      </trkpt>
      <trkpt lat="45.78319" lon="5.34767">
        <ele>341.4</ele>
        <time>2023-05-28T08:53:28Z</time>
      </trkpt>
      <trkpt lat="45.78323" lon="5.34762">
        <ele>341.4</ele>
        <time>2023-05-28T08:53:29Z</time>
      </trkpt>
      <trkpt lat="45.78329" lon="5.34753">
        <ele>341.6</ele>
        <time>2023-05-28T08:53:31Z</time>
      </trkpt>
      <trkpt lat="45.78333" lon="5.34747">
        <ele>341.6</ele>
        <time>2023-05-28T08:53:32Z</time>
      </trkpt>
      <trkpt lat="45.78338" lon="5.34741">
        <ele>341.8</ele>
        <time>2023-05-28T08:53:33Z</time>
      </trkpt>
      <trkpt lat="45.78341" lon="5.34735">
        <ele>341.8</ele>
        <time>2023-05-28T08:53:34Z</time>
      </trkpt>
      <trkpt lat="45.78345" lon="5.34729">
        <ele>341.8</ele>
        <time>2023-05-28T08:53:35Z</time>
      </trkpt>
      <trkpt lat="45.78348" lon="5.34724">
        <ele>342</ele>
        <time>2023-05-28T08:53:36Z</time>
      </trkpt>
      <trkpt lat="45.78352" lon="5.34717">
        <ele>342</ele>
        <time>2023-05-28T08:53:37Z</time>
      </trkpt>
      <trkpt lat="45.78356" lon="5.34711">
        <ele>342</ele>
        <time>2023-05-28T08:53:38Z</time>
      </trkpt>
      <trkpt lat="45.78359" lon="5.34705">
        <ele>342</ele>
        <time>2023-05-28T08:53:39Z</time>
      </trkpt>
      <trkpt lat="45.78361" lon="5.347">
        <ele>342.2</ele>
        <time>2023-05-28T08:53:40Z</time>
      </trkpt>
      <trkpt lat="45.78363" lon="5.34694">
        <ele>342.2</ele>
        <time>2023-05-28T08:53:41Z</time>
      </trkpt>
      <trkpt lat="45.78367" lon="5.34686">
        <ele>342.4</ele>
        <time>2023-05-28T08:53:42Z</time>
      </trkpt>
      <trkpt lat="45.7837" lon="5.34679">
        <ele>342.6</ele>
        <time>2023-05-28T08:53:43Z</time>
      </trkpt>
      <trkpt lat="45.78373" lon="5.34673">
        <ele>342.6</ele>
        <time>2023-05-28T08:53:44Z</time>
      </trkpt>
      <trkpt lat="45.78375" lon="5.34668">
        <ele>342.8</ele>
        <time>2023-05-28T08:53:45Z</time>
      </trkpt>
      <trkpt lat="45.78378" lon="5.34661">
        <ele>342.8</ele>
        <time>2023-05-28T08:53:46Z</time>
      </trkpt>
      <trkpt lat="45.78381" lon="5.34653">
        <ele>342.8</ele>
        <time>2023-05-28T08:53:47Z</time>
      </trkpt>
      <trkpt lat="45.78385" lon="5.34647">
        <ele>343</ele>
        <time>2023-05-28T08:53:48Z</time>
      </trkpt>
      <trkpt lat="45.78388" lon="5.34641">
        <ele>343</ele>
        <time>2023-05-28T08:53:49Z</time>
      </trkpt>
      <trkpt lat="45.78391" lon="5.34636">
        <ele>343.2</ele>
        <time>2023-05-28T08:53:50Z</time>
      </trkpt>
      <trkpt lat="45.78394" lon="5.3463">
        <ele>343.2</ele>
        <time>2023-05-28T08:53:51Z</time>
      </trkpt>
      <trkpt lat="45.78399" lon="5.34623">
        <ele>343.4</ele>
        <time>2023-05-28T08:53:52Z</time>
      </trkpt>
      <trkpt lat="45.78402" lon="5.34617">
        <ele>343.6</ele>
        <time>2023-05-28T08:53:53Z</time>
      </trkpt>
      <trkpt lat="45.78406" lon="5.34612">
        <ele>343.8</ele>
        <time>2023-05-28T08:53:54Z</time>
      </trkpt>
      <trkpt lat="45.78408" lon="5.34608">
        <ele>344</ele>
        <time>2023-05-28T08:53:55Z</time>
      </trkpt>
      <trkpt lat="45.78412" lon="5.34603">
        <ele>344.2</ele>
        <time>2023-05-28T08:53:56Z</time>
      </trkpt>
      <trkpt lat="45.78416" lon="5.34598">
        <ele>344.4</ele>
        <time>2023-05-28T08:53:57Z</time>
      </trkpt>
      <trkpt lat="45.78419" lon="5.34594">
        <ele>344.4</ele>
        <time>2023-05-28T08:53:58Z</time>
      </trkpt>
      <trkpt lat="45.78423" lon="5.34589">
        <ele>344.6</ele>
        <time>2023-05-28T08:53:59Z</time>
      </trkpt>
      <trkpt lat="45.78426" lon="5.34585">
        <ele>344.6</ele>
        <time>2023-05-28T08:54:00Z</time>
      </trkpt>
      <trkpt lat="45.78429" lon="5.34581">
        <ele>344.8</ele>
        <time>2023-05-28T08:54:01Z</time>
      </trkpt>
      <trkpt lat="45.78433" lon="5.34576">
        <ele>345</ele>
        <time>2023-05-28T08:54:02Z</time>
      </trkpt>
      <trkpt lat="45.78437" lon="5.34571">
        <ele>345</ele>
        <time>2023-05-28T08:54:03Z</time>
      </trkpt>
      <trkpt lat="45.78441" lon="5.34566">
        <ele>345.2</ele>
        <time>2023-05-28T08:54:04Z</time>
      </trkpt>
      <trkpt lat="45.78444" lon="5.34563">
        <ele>345.2</ele>
        <time>2023-05-28T08:54:05Z</time>
      </trkpt>
      <trkpt lat="45.78447" lon="5.34558">
        <ele>345.4</ele>
        <time>2023-05-28T08:54:06Z</time>
      </trkpt>
      <trkpt lat="45.78451" lon="5.34552">
        <ele>345.4</ele>
        <time>2023-05-28T08:54:07Z</time>
      </trkpt>
      <trkpt lat="45.78455" lon="5.34548">
        <ele>345.6</ele>
        <time>2023-05-28T08:54:08Z</time>
      </trkpt>
      <trkpt lat="45.78459" lon="5.34543">
        <ele>345.6</ele>
        <time>2023-05-28T08:54:09Z</time>
      </trkpt>
      <trkpt lat="45.78462" lon="5.34539">
        <ele>345.6</ele>
        <time>2023-05-28T08:54:10Z</time>
      </trkpt>
      <trkpt lat="45.78466" lon="5.34535">
        <ele>345.8</ele>
        <time>2023-05-28T08:54:11Z</time>
      </trkpt>
      <trkpt lat="45.78471" lon="5.3453">
        <ele>345.8</ele>
        <time>2023-05-28T08:54:12Z</time>
      </trkpt>
      <trkpt lat="45.78475" lon="5.34526">
        <ele>346</ele>
        <time>2023-05-28T08:54:13Z</time>
      </trkpt>
      <trkpt lat="45.78479" lon="5.34523">
        <ele>346</ele>
        <time>2023-05-28T08:54:14Z</time>
      </trkpt>
      <trkpt lat="45.78483" lon="5.34519">
        <ele>346.2</ele>
        <time>2023-05-28T08:54:15Z</time>
      </trkpt>
      <trkpt lat="45.78487" lon="5.34516">
        <ele>346.2</ele>
        <time>2023-05-28T08:54:16Z</time>
      </trkpt>
      <trkpt lat="45.78492" lon="5.34512">
        <ele>346.2</ele>
        <time>2023-05-28T08:54:17Z</time>
      </trkpt>
      <trkpt lat="45.78496" lon="5.34509">
        <ele>346.2</ele>
        <time>2023-05-28T08:54:18Z</time>
      </trkpt>
      <trkpt lat="45.785" lon="5.34506">
        <ele>346.4</ele>
        <time>2023-05-28T08:54:19Z</time>
      </trkpt>
      <trkpt lat="45.78504" lon="5.34504">
        <ele>346.4</ele>
        <time>2023-05-28T08:54:20Z</time>
      </trkpt>
      <trkpt lat="45.78508" lon="5.34501">
        <ele>346.6</ele>
        <time>2023-05-28T08:54:21Z</time>
      </trkpt>
      <trkpt lat="45.78513" lon="5.34497">
        <ele>346.6</ele>
        <time>2023-05-28T08:54:22Z</time>
      </trkpt>
      <trkpt lat="45.78518" lon="5.34493">
        <ele>346.6</ele>
        <time>2023-05-28T08:54:23Z</time>
      </trkpt>
      <trkpt lat="45.78522" lon="5.3449">
        <ele>346.6</ele>
        <time>2023-05-28T08:54:24Z</time>
      </trkpt>
      <trkpt lat="45.78526" lon="5.34486">
        <ele>346.6</ele>
        <time>2023-05-28T08:54:25Z</time>
      </trkpt>
      <trkpt lat="45.78529" lon="5.34484">
        <ele>346.8</ele>
        <time>2023-05-28T08:54:26Z</time>
      </trkpt>
      <trkpt lat="45.78534" lon="5.34479">
        <ele>346.8</ele>
        <time>2023-05-28T08:54:27Z</time>
      </trkpt>
      <trkpt lat="45.78538" lon="5.34475">
        <ele>346.8</ele>
        <time>2023-05-28T08:54:28Z</time>
      </trkpt>
      <trkpt lat="45.78542" lon="5.34471">
        <ele>347.2</ele>
        <time>2023-05-28T08:54:29Z</time>
      </trkpt>
      <trkpt lat="45.78546" lon="5.34467">
        <ele>347.2</ele>
        <time>2023-05-28T08:54:30Z</time>
      </trkpt>
      <trkpt lat="45.7855" lon="5.34463">
        <ele>347.2</ele>
        <time>2023-05-28T08:54:31Z</time>
      </trkpt>
      <trkpt lat="45.78554" lon="5.34458">
        <ele>347.4</ele>
        <time>2023-05-28T08:54:32Z</time>
      </trkpt>
      <trkpt lat="45.78558" lon="5.34454">
        <ele>347.4</ele>
        <time>2023-05-28T08:54:33Z</time>
      </trkpt>
      <trkpt lat="45.78565" lon="5.34445">
        <ele>347.6</ele>
        <time>2023-05-28T08:54:35Z</time>
      </trkpt>
      <trkpt lat="45.78569" lon="5.3444">
        <ele>347.8</ele>
        <time>2023-05-28T08:54:36Z</time>
      </trkpt>
      <trkpt lat="45.78573" lon="5.34436">
        <ele>347.8</ele>
        <time>2023-05-28T08:54:37Z</time>
      </trkpt>
      <trkpt lat="45.78576" lon="5.34431">
        <ele>347.8</ele>
        <time>2023-05-28T08:54:38Z</time>
      </trkpt>
      <trkpt lat="45.7858" lon="5.34428">
        <ele>348</ele>
        <time>2023-05-28T08:54:39Z</time>
      </trkpt>
      <trkpt lat="45.78583" lon="5.34424">
        <ele>348.2</ele>
        <time>2023-05-28T08:54:40Z</time>
      </trkpt>
      <trkpt lat="45.78588" lon="5.34419">
        <ele>348.2</ele>
        <time>2023-05-28T08:54:41Z</time>
      </trkpt>
      <trkpt lat="45.78592" lon="5.34415">
        <ele>348.6</ele>
        <time>2023-05-28T08:54:42Z</time>
      </trkpt>
      <trkpt lat="45.78595" lon="5.34411">
        <ele>348.8</ele>
        <time>2023-05-28T08:54:43Z</time>
      </trkpt>
      <trkpt lat="45.78598" lon="5.34408">
        <ele>348.8</ele>
        <time>2023-05-28T08:54:44Z</time>
      </trkpt>
      <trkpt lat="45.78602" lon="5.34404">
        <ele>349.2</ele>
        <time>2023-05-28T08:54:45Z</time>
      </trkpt>
      <trkpt lat="45.78606" lon="5.34399">
        <ele>349.4</ele>
        <time>2023-05-28T08:54:46Z</time>
      </trkpt>
      <trkpt lat="45.78609" lon="5.34395">
        <ele>349.6</ele>
        <time>2023-05-28T08:54:47Z</time>
      </trkpt>
      <trkpt lat="45.78612" lon="5.34392">
        <ele>349.8</ele>
        <time>2023-05-28T08:54:48Z</time>
      </trkpt>
      <trkpt lat="45.78616" lon="5.34388">
        <ele>350</ele>
        <time>2023-05-28T08:54:49Z</time>
      </trkpt>
      <trkpt lat="45.78619" lon="5.34384">
        <ele>350.2</ele>
        <time>2023-05-28T08:54:50Z</time>
      </trkpt>
      <trkpt lat="45.78623" lon="5.3438">
        <ele>350.2</ele>
        <time>2023-05-28T08:54:51Z</time>
      </trkpt>
      <trkpt lat="45.78627" lon="5.34376">
        <ele>350.4</ele>
        <time>2023-05-28T08:54:52Z</time>
      </trkpt>
      <trkpt lat="45.7863" lon="5.34372">
        <ele>350.6</ele>
        <time>2023-05-28T08:54:53Z</time>
      </trkpt>
      <trkpt lat="45.78634" lon="5.34368">
        <ele>351</ele>
        <time>2023-05-28T08:54:54Z</time>
      </trkpt>
      <trkpt lat="45.78637" lon="5.34365">
        <ele>351.2</ele>
        <time>2023-05-28T08:54:55Z</time>
      </trkpt>
      <trkpt lat="45.78641" lon="5.34361">
        <ele>351.6</ele>
        <time>2023-05-28T08:54:56Z</time>
      </trkpt>
      <trkpt lat="45.78644" lon="5.34357">
        <ele>351.8</ele>
        <time>2023-05-28T08:54:57Z</time>
      </trkpt>
      <trkpt lat="45.78647" lon="5.34354">
        <ele>352</ele>
        <time>2023-05-28T08:54:58Z</time>
      </trkpt>
      <trkpt lat="45.78651" lon="5.3435">
        <ele>352.6</ele>
        <time>2023-05-28T08:54:59Z</time>
      </trkpt>
      <trkpt lat="45.78654" lon="5.34346">
        <ele>353</ele>
        <time>2023-05-28T08:55:00Z</time>
      </trkpt>
      <trkpt lat="45.78657" lon="5.34342">
        <ele>353.2</ele>
        <time>2023-05-28T08:55:01Z</time>
      </trkpt>
      <trkpt lat="45.78661" lon="5.34338">
        <ele>353.4</ele>
        <time>2023-05-28T08:55:02Z</time>
      </trkpt>
      <trkpt lat="45.78664" lon="5.34334">
        <ele>353.6</ele>
        <time>2023-05-28T08:55:03Z</time>
      </trkpt>
      <trkpt lat="45.78667" lon="5.34331">
        <ele>353.6</ele>
        <time>2023-05-28T08:55:04Z</time>
      </trkpt>
      <trkpt lat="45.7867" lon="5.34327">
        <ele>353.8</ele>
        <time>2023-05-28T08:55:05Z</time>
      </trkpt>
      <trkpt lat="45.78674" lon="5.34323">
        <ele>354</ele>
        <time>2023-05-28T08:55:06Z</time>
      </trkpt>
      <trkpt lat="45.78677" lon="5.3432">
        <ele>354</ele>
        <time>2023-05-28T08:55:07Z</time>
      </trkpt>
      <trkpt lat="45.78681" lon="5.34316">
        <ele>354.2</ele>
        <time>2023-05-28T08:55:08Z</time>
      </trkpt>
      <trkpt lat="45.78684" lon="5.34312">
        <ele>354.2</ele>
        <time>2023-05-28T08:55:09Z</time>
      </trkpt>
      <trkpt lat="45.78687" lon="5.34308">
        <ele>354.4</ele>
        <time>2023-05-28T08:55:10Z</time>
      </trkpt>
      <trkpt lat="45.78691" lon="5.34303">
        <ele>354.4</ele>
        <time>2023-05-28T08:55:11Z</time>
      </trkpt>
      <trkpt lat="45.78694" lon="5.343">
        <ele>354.4</ele>
        <time>2023-05-28T08:55:12Z</time>
      </trkpt>
      <trkpt lat="45.78697" lon="5.34296">
        <ele>354.6</ele>
        <time>2023-05-28T08:55:13Z</time>
      </trkpt>
      <trkpt lat="45.787" lon="5.34292">
        <ele>354.6</ele>
        <time>2023-05-28T08:55:14Z</time>
      </trkpt>
      <trkpt lat="45.78704" lon="5.34288">
        <ele>355</ele>
        <time>2023-05-28T08:55:15Z</time>
      </trkpt>
      <trkpt lat="45.78707" lon="5.34284">
        <ele>355</ele>
        <time>2023-05-28T08:55:16Z</time>
      </trkpt>
      <trkpt lat="45.7871" lon="5.3428">
        <ele>355</ele>
        <time>2023-05-28T08:55:17Z</time>
      </trkpt>
      <trkpt lat="45.78713" lon="5.34276">
        <ele>355</ele>
        <time>2023-05-28T08:55:18Z</time>
      </trkpt>
      <trkpt lat="45.78716" lon="5.34272">
        <ele>355.2</ele>
        <time>2023-05-28T08:55:19Z</time>
      </trkpt>
      <trkpt lat="45.78719" lon="5.34268">
        <ele>355.4</ele>
        <time>2023-05-28T08:55:20Z</time>
      </trkpt>
      <trkpt lat="45.78722" lon="5.34265">
        <ele>355.6</ele>
        <time>2023-05-28T08:55:21Z</time>
      </trkpt>
      <trkpt lat="45.78725" lon="5.34261">
        <ele>355.8</ele>
        <time>2023-05-28T08:55:22Z</time>
      </trkpt>
      <trkpt lat="45.78728" lon="5.34258">
        <ele>355.8</ele>
        <time>2023-05-28T08:55:23Z</time>
      </trkpt>
      <trkpt lat="45.78731" lon="5.34254">
        <ele>356</ele>
        <time>2023-05-28T08:55:24Z</time>
      </trkpt>
      <trkpt lat="45.78734" lon="5.34251">
        <ele>356</ele>
        <time>2023-05-28T08:55:25Z</time>
      </trkpt>
      <trkpt lat="45.78738" lon="5.34248">
        <ele>356.2</ele>
        <time>2023-05-28T08:55:26Z</time>
      </trkpt>
      <trkpt lat="45.7874" lon="5.34244">
        <ele>356.2</ele>
        <time>2023-05-28T08:55:27Z</time>
      </trkpt>
      <trkpt lat="45.78743" lon="5.3424">
        <ele>356.2</ele>
        <time>2023-05-28T08:55:28Z</time>
      </trkpt>
      <trkpt lat="45.78745" lon="5.34237">
        <ele>356.6</ele>
        <time>2023-05-28T08:55:29Z</time>
      </trkpt>
      <trkpt lat="45.78749" lon="5.34233">
        <ele>356.8</ele>
        <time>2023-05-28T08:55:30Z</time>
      </trkpt>
      <trkpt lat="45.78752" lon="5.34229">
        <ele>357.2</ele>
        <time>2023-05-28T08:55:31Z</time>
      </trkpt>
      <trkpt lat="45.78755" lon="5.34225">
        <ele>357.2</ele>
        <time>2023-05-28T08:55:32Z</time>
      </trkpt>
      <trkpt lat="45.78758" lon="5.34221">
        <ele>357.4</ele>
        <time>2023-05-28T08:55:33Z</time>
      </trkpt>
      <trkpt lat="45.78761" lon="5.34216">
        <ele>357.4</ele>
        <time>2023-05-28T08:55:34Z</time>
      </trkpt>
      <trkpt lat="45.78764" lon="5.34212">
        <ele>357.4</ele>
        <time>2023-05-28T08:55:35Z</time>
      </trkpt>
      <trkpt lat="45.78767" lon="5.34207">
        <ele>357.8</ele>
        <time>2023-05-28T08:55:36Z</time>
      </trkpt>
      <trkpt lat="45.7877" lon="5.34203">
        <ele>358</ele>
        <time>2023-05-28T08:55:37Z</time>
      </trkpt>
      <trkpt lat="45.78772" lon="5.34198">
        <ele>358.2</ele>
        <time>2023-05-28T08:55:38Z</time>
      </trkpt>
      <trkpt lat="45.78774" lon="5.34192">
        <ele>358.2</ele>
        <time>2023-05-28T08:55:39Z</time>
      </trkpt>
      <trkpt lat="45.78777" lon="5.34188">
        <ele>358.8</ele>
        <time>2023-05-28T08:55:40Z</time>
      </trkpt>
      <trkpt lat="45.78779" lon="5.34182">
        <ele>358.8</ele>
        <time>2023-05-28T08:55:41Z</time>
      </trkpt>
      <trkpt lat="45.78782" lon="5.34177">
        <ele>359.2</ele>
        <time>2023-05-28T08:55:42Z</time>
      </trkpt>
      <trkpt lat="45.78784" lon="5.34171">
        <ele>359.4</ele>
        <time>2023-05-28T08:55:43Z</time>
      </trkpt>
      <trkpt lat="45.78785" lon="5.34167">
        <ele>359.6</ele>
        <time>2023-05-28T08:55:44Z</time>
      </trkpt>
      <trkpt lat="45.78788" lon="5.3416">
        <ele>359.8</ele>
        <time>2023-05-28T08:55:45Z</time>
      </trkpt>
      <trkpt lat="45.78789" lon="5.34154">
        <ele>360</ele>
        <time>2023-05-28T08:55:46Z</time>
      </trkpt>
      <trkpt lat="45.78791" lon="5.34149">
        <ele>360.2</ele>
        <time>2023-05-28T08:55:47Z</time>
      </trkpt>
      <trkpt lat="45.78792" lon="5.34143">
        <ele>360.2</ele>
        <time>2023-05-28T08:55:48Z</time>
      </trkpt>
      <trkpt lat="45.78794" lon="5.34137">
        <ele>360.4</ele>
        <time>2023-05-28T08:55:49Z</time>
      </trkpt>
      <trkpt lat="45.78796" lon="5.3413">
        <ele>360.8</ele>
        <time>2023-05-28T08:55:50Z</time>
      </trkpt>
      <trkpt lat="45.78797" lon="5.34124">
        <ele>361.4</ele>
        <time>2023-05-28T08:55:51Z</time>
      </trkpt>
      <trkpt lat="45.78799" lon="5.34118">
        <ele>361.8</ele>
        <time>2023-05-28T08:55:52Z</time>
      </trkpt>
      <trkpt lat="45.78801" lon="5.34112">
        <ele>362</ele>
        <time>2023-05-28T08:55:53Z</time>
      </trkpt>
      <trkpt lat="45.78803" lon="5.34107">
        <ele>362.2</ele>
        <time>2023-05-28T08:55:54Z</time>
      </trkpt>
      <trkpt lat="45.78805" lon="5.341">
        <ele>362.2</ele>
        <time>2023-05-28T08:55:55Z</time>
      </trkpt>
      <trkpt lat="45.78806" lon="5.34093">
        <ele>362.4</ele>
        <time>2023-05-28T08:55:56Z</time>
      </trkpt>
      <trkpt lat="45.78808" lon="5.34087">
        <ele>362.6</ele>
        <time>2023-05-28T08:55:57Z</time>
      </trkpt>
      <trkpt lat="45.7881" lon="5.34082">
        <ele>362.8</ele>
        <time>2023-05-28T08:55:58Z</time>
      </trkpt>
      <trkpt lat="45.78812" lon="5.34074">
        <ele>363</ele>
        <time>2023-05-28T08:55:59Z</time>
      </trkpt>
      <trkpt lat="45.78814" lon="5.34068">
        <ele>363.2</ele>
        <time>2023-05-28T08:56:00Z</time>
      </trkpt>
      <trkpt lat="45.78816" lon="5.34061">
        <ele>363.2</ele>
        <time>2023-05-28T08:56:01Z</time>
      </trkpt>
      <trkpt lat="45.78818" lon="5.34055">
        <ele>363.4</ele>
        <time>2023-05-28T08:56:02Z</time>
      </trkpt>
      <trkpt lat="45.78821" lon="5.34048">
        <ele>363.6</ele>
        <time>2023-05-28T08:56:03Z</time>
      </trkpt>
      <trkpt lat="45.78823" lon="5.34042">
        <ele>363.6</ele>
        <time>2023-05-28T08:56:04Z</time>
      </trkpt>
      <trkpt lat="45.78825" lon="5.34035">
        <ele>363.6</ele>
        <time>2023-05-28T08:56:05Z</time>
      </trkpt>
      <trkpt lat="45.78827" lon="5.34028">
        <ele>363.6</ele>
        <time>2023-05-28T08:56:06Z</time>
      </trkpt>
      <trkpt lat="45.78828" lon="5.34023">
        <ele>363.6</ele>
        <time>2023-05-28T08:56:07Z</time>
      </trkpt>
      <trkpt lat="45.78831" lon="5.34015">
        <ele>363.8</ele>
        <time>2023-05-28T08:56:08Z</time>
      </trkpt>
      <trkpt lat="45.78832" lon="5.34009">
        <ele>363.8</ele>
        <time>2023-05-28T08:56:09Z</time>
      </trkpt>
      <trkpt lat="45.78834" lon="5.34003">
        <ele>363.8</ele>
        <time>2023-05-28T08:56:10Z</time>
      </trkpt>
      <trkpt lat="45.78836" lon="5.33997">
        <ele>364</ele>
        <time>2023-05-28T08:56:11Z</time>
      </trkpt>
      <trkpt lat="45.78838" lon="5.33991">
        <ele>364</ele>
        <time>2023-05-28T08:56:12Z</time>
      </trkpt>
      <trkpt lat="45.78839" lon="5.33986">
        <ele>364.2</ele>
        <time>2023-05-28T08:56:13Z</time>
      </trkpt>
      <trkpt lat="45.78841" lon="5.33979">
        <ele>364.2</ele>
        <time>2023-05-28T08:56:14Z</time>
      </trkpt>
      <trkpt lat="45.78843" lon="5.33973">
        <ele>364.2</ele>
        <time>2023-05-28T08:56:15Z</time>
      </trkpt>
      <trkpt lat="45.78845" lon="5.33967">
        <ele>364.2</ele>
        <time>2023-05-28T08:56:16Z</time>
      </trkpt>
      <trkpt lat="45.78847" lon="5.33962">
        <ele>364.6</ele>
        <time>2023-05-28T08:56:17Z</time>
      </trkpt>
      <trkpt lat="45.78848" lon="5.33956">
        <ele>364.8</ele>
        <time>2023-05-28T08:56:18Z</time>
      </trkpt>
      <trkpt lat="45.7885" lon="5.3395">
        <ele>365</ele>
        <time>2023-05-28T08:56:19Z</time>
      </trkpt>
      <trkpt lat="45.78852" lon="5.33944">
        <ele>365</ele>
        <time>2023-05-28T08:56:20Z</time>
      </trkpt>
      <trkpt lat="45.78854" lon="5.33939">
        <ele>365.2</ele>
        <time>2023-05-28T08:56:21Z</time>
      </trkpt>
      <trkpt lat="45.78855" lon="5.33934">
        <ele>365.4</ele>
        <time>2023-05-28T08:56:22Z</time>
      </trkpt>
      <trkpt lat="45.78857" lon="5.33928">
        <ele>365.2</ele>
        <time>2023-05-28T08:56:23Z</time>
      </trkpt>
      <trkpt lat="45.78859" lon="5.33923">
        <ele>365.4</ele>
        <time>2023-05-28T08:56:24Z</time>
      </trkpt>
      <trkpt lat="45.78862" lon="5.33919">
        <ele>365.6</ele>
        <time>2023-05-28T08:56:25Z</time>
      </trkpt>
      <trkpt lat="45.78865" lon="5.33915">
        <ele>366</ele>
        <time>2023-05-28T08:56:26Z</time>
      </trkpt>
      <trkpt lat="45.78869" lon="5.33913">
        <ele>366</ele>
        <time>2023-05-28T08:56:27Z</time>
      </trkpt>
      <trkpt lat="45.78872" lon="5.33911">
        <ele>366.4</ele>
        <time>2023-05-28T08:56:28Z</time>
      </trkpt>
      <trkpt lat="45.78877" lon="5.33908">
        <ele>366.6</ele>
        <time>2023-05-28T08:56:29Z</time>
      </trkpt>
      <trkpt lat="45.78881" lon="5.33906">
        <ele>366.8</ele>
        <time>2023-05-28T08:56:30Z</time>
      </trkpt>
      <trkpt lat="45.78885" lon="5.33905">
        <ele>367.2</ele>
        <time>2023-05-28T08:56:31Z</time>
      </trkpt>
      <trkpt lat="45.78889" lon="5.33903">
        <ele>367.2</ele>
        <time>2023-05-28T08:56:32Z</time>
      </trkpt>
      <trkpt lat="45.78893" lon="5.33901">
        <ele>367.8</ele>
        <time>2023-05-28T08:56:33Z</time>
      </trkpt>
      <trkpt lat="45.78897" lon="5.33899">
        <ele>368</ele>
        <time>2023-05-28T08:56:34Z</time>
      </trkpt>
      <trkpt lat="45.78901" lon="5.33898">
        <ele>368.2</ele>
        <time>2023-05-28T08:56:35Z</time>
      </trkpt>
      <trkpt lat="45.78905" lon="5.33896">
        <ele>368.4</ele>
        <time>2023-05-28T08:56:36Z</time>
      </trkpt>
      <trkpt lat="45.78909" lon="5.33895">
        <ele>368.4</ele>
        <time>2023-05-28T08:56:37Z</time>
      </trkpt>
      <trkpt lat="45.78917" lon="5.33892">
        <ele>368.8</ele>
        <time>2023-05-28T08:56:39Z</time>
      </trkpt>
      <trkpt lat="45.78925" lon="5.33889">
        <ele>369.2</ele>
        <time>2023-05-28T08:56:41Z</time>
      </trkpt>
      <trkpt lat="45.78929" lon="5.33887">
        <ele>369.4</ele>
        <time>2023-05-28T08:56:42Z</time>
      </trkpt>
      <trkpt lat="45.78934" lon="5.33886">
        <ele>369.4</ele>
        <time>2023-05-28T08:56:43Z</time>
      </trkpt>
      <trkpt lat="45.78938" lon="5.33884">
        <ele>369.6</ele>
        <time>2023-05-28T08:56:44Z</time>
      </trkpt>
      <trkpt lat="45.78942" lon="5.33883">
        <ele>369.8</ele>
        <time>2023-05-28T08:56:45Z</time>
      </trkpt>
      <trkpt lat="45.78946" lon="5.33881">
        <ele>370</ele>
        <time>2023-05-28T08:56:46Z</time>
      </trkpt>
      <trkpt lat="45.78949" lon="5.33879">
        <ele>370.2</ele>
        <time>2023-05-28T08:56:47Z</time>
      </trkpt>
      <trkpt lat="45.78953" lon="5.33877">
        <ele>370.4</ele>
        <time>2023-05-28T08:56:48Z</time>
      </trkpt>
      <trkpt lat="45.78957" lon="5.33875">
        <ele>370.6</ele>
        <time>2023-05-28T08:56:49Z</time>
      </trkpt>
      <trkpt lat="45.78961" lon="5.33873">
        <ele>370.6</ele>
        <time>2023-05-28T08:56:50Z</time>
      </trkpt>
      <trkpt lat="45.78964" lon="5.3387">
        <ele>370.8</ele>
        <time>2023-05-28T08:56:51Z</time>
      </trkpt>
      <trkpt lat="45.78968" lon="5.33867">
        <ele>371</ele>
        <time>2023-05-28T08:56:52Z</time>
      </trkpt>
      <trkpt lat="45.78972" lon="5.33863">
        <ele>371.2</ele>
        <time>2023-05-28T08:56:53Z</time>
      </trkpt>
      <trkpt lat="45.78975" lon="5.3386">
        <ele>371.2</ele>
        <time>2023-05-28T08:56:54Z</time>
      </trkpt>
      <trkpt lat="45.78979" lon="5.33856">
        <ele>371.2</ele>
        <time>2023-05-28T08:56:55Z</time>
      </trkpt>
      <trkpt lat="45.78982" lon="5.33852">
        <ele>371.6</ele>
        <time>2023-05-28T08:56:56Z</time>
      </trkpt>
      <trkpt lat="45.78985" lon="5.33848">
        <ele>371.6</ele>
        <time>2023-05-28T08:56:57Z</time>
      </trkpt>
      <trkpt lat="45.78991" lon="5.3384">
        <ele>372.2</ele>
        <time>2023-05-28T08:56:59Z</time>
      </trkpt>
      <trkpt lat="45.78994" lon="5.33835">
        <ele>372.4</ele>
        <time>2023-05-28T08:57:00Z</time>
      </trkpt>
      <trkpt lat="45.78997" lon="5.3383">
        <ele>373</ele>
        <time>2023-05-28T08:57:01Z</time>
      </trkpt>
      <trkpt lat="45.78999" lon="5.33824">
        <ele>373.2</ele>
        <time>2023-05-28T08:57:02Z</time>
      </trkpt>
      <trkpt lat="45.79001" lon="5.33819">
        <ele>373.6</ele>
        <time>2023-05-28T08:57:03Z</time>
      </trkpt>
      <trkpt lat="45.79003" lon="5.33807">
        <ele>374</ele>
        <time>2023-05-28T08:57:05Z</time>
      </trkpt>
      <trkpt lat="45.79003" lon="5.33801">
        <ele>374</ele>
        <time>2023-05-28T08:57:06Z</time>
      </trkpt>
      <trkpt lat="45.79002" lon="5.33795">
        <ele>374.2</ele>
        <time>2023-05-28T08:57:07Z</time>
      </trkpt>
      <trkpt lat="45.79002" lon="5.33789">
        <ele>374.2</ele>
        <time>2023-05-28T08:57:08Z</time>
      </trkpt>
      <trkpt lat="45.79001" lon="5.33784">
        <ele>374.4</ele>
        <time>2023-05-28T08:57:09Z</time>
      </trkpt>
      <trkpt lat="45.79" lon="5.33779">
        <ele>374.8</ele>
        <time>2023-05-28T08:57:10Z</time>
      </trkpt>
      <trkpt lat="45.78999" lon="5.33773">
        <ele>375</ele>
        <time>2023-05-28T08:57:11Z</time>
      </trkpt>
      <trkpt lat="45.78999" lon="5.33764">
        <ele>375.4</ele>
        <time>2023-05-28T08:57:13Z</time>
      </trkpt>
      <trkpt lat="45.78999" lon="5.33759">
        <ele>375.6</ele>
        <time>2023-05-28T08:57:14Z</time>
      </trkpt>
      <trkpt lat="45.78999" lon="5.33754">
        <ele>375.8</ele>
        <time>2023-05-28T08:57:15Z</time>
      </trkpt>
      <trkpt lat="45.78999" lon="5.33748">
        <ele>375.8</ele>
        <time>2023-05-28T08:57:16Z</time>
      </trkpt>
      <trkpt lat="45.79" lon="5.33741">
        <ele>376</ele>
        <time>2023-05-28T08:57:17Z</time>
      </trkpt>
      <trkpt lat="45.79001" lon="5.33735">
        <ele>376</ele>
        <time>2023-05-28T08:57:18Z</time>
      </trkpt>
      <trkpt lat="45.79" lon="5.33729">
        <ele>376.2</ele>
        <time>2023-05-28T08:57:19Z</time>
      </trkpt>
      <trkpt lat="45.79" lon="5.33723">
        <ele>376.4</ele>
        <time>2023-05-28T08:57:20Z</time>
      </trkpt>
      <trkpt lat="45.79001" lon="5.33717">
        <ele>377</ele>
        <time>2023-05-28T08:57:21Z</time>
      </trkpt>
      <trkpt lat="45.79003" lon="5.33704">
        <ele>377.6</ele>
        <time>2023-05-28T08:57:23Z</time>
      </trkpt>
      <trkpt lat="45.79004" lon="5.33698">
        <ele>377.8</ele>
        <time>2023-05-28T08:57:24Z</time>
      </trkpt>
      <trkpt lat="45.79005" lon="5.33692">
        <ele>378</ele>
        <time>2023-05-28T08:57:25Z</time>
      </trkpt>
      <trkpt lat="45.79006" lon="5.33685">
        <ele>378.2</ele>
        <time>2023-05-28T08:57:26Z</time>
      </trkpt>
      <trkpt lat="45.79006" lon="5.33679">
        <ele>378.4</ele>
        <time>2023-05-28T08:57:27Z</time>
      </trkpt>
      <trkpt lat="45.79006" lon="5.33672">
        <ele>378.4</ele>
        <time>2023-05-28T08:57:28Z</time>
      </trkpt>
      <trkpt lat="45.79006" lon="5.33666">
        <ele>378.6</ele>
        <time>2023-05-28T08:57:29Z</time>
      </trkpt>
      <trkpt lat="45.79006" lon="5.33661">
        <ele>378.6</ele>
        <time>2023-05-28T08:57:30Z</time>
      </trkpt>
      <trkpt lat="45.79007" lon="5.33656">
        <ele>378.8</ele>
        <time>2023-05-28T08:57:31Z</time>
      </trkpt>
      <trkpt lat="45.79008" lon="5.33649">
        <ele>379</ele>
        <time>2023-05-28T08:57:32Z</time>
      </trkpt>
      <trkpt lat="45.79008" lon="5.33643">
        <ele>379.2</ele>
        <time>2023-05-28T08:57:33Z</time>
      </trkpt>
      <trkpt lat="45.79007" lon="5.33637">
        <ele>379.2</ele>
        <time>2023-05-28T08:57:34Z</time>
      </trkpt>
      <trkpt lat="45.79004" lon="5.33632">
        <ele>379.6</ele>
        <time>2023-05-28T08:57:35Z</time>
      </trkpt>
      <trkpt lat="45.79" lon="5.33628">
        <ele>379.6</ele>
        <time>2023-05-28T08:57:36Z</time>
      </trkpt>
      <trkpt lat="45.78996" lon="5.33625">
        <ele>379.6</ele>
        <time>2023-05-28T08:57:37Z</time>
      </trkpt>
      <trkpt lat="45.78991" lon="5.33621">
        <ele>379.8</ele>
        <time>2023-05-28T08:57:38Z</time>
      </trkpt>
      <trkpt lat="45.78987" lon="5.33618">
        <ele>379.8</ele>
        <time>2023-05-28T08:57:39Z</time>
      </trkpt>
      <trkpt lat="45.78979" lon="5.33612">
        <ele>379.8</ele>
        <time>2023-05-28T08:57:41Z</time>
      </trkpt>
      <trkpt lat="45.78973" lon="5.33608">
        <ele>379.8</ele>
        <time>2023-05-28T08:57:42Z</time>
      </trkpt>
      <trkpt lat="45.78969" lon="5.33605">
        <ele>379.8</ele>
        <time>2023-05-28T08:57:43Z</time>
      </trkpt>
      <trkpt lat="45.78965" lon="5.33602">
        <ele>379.8</ele>
        <time>2023-05-28T08:57:44Z</time>
      </trkpt>
      <trkpt lat="45.7896" lon="5.33598">
        <ele>379.8</ele>
        <time>2023-05-28T08:57:45Z</time>
      </trkpt>
      <trkpt lat="45.78957" lon="5.33596">
        <ele>379.8</ele>
        <time>2023-05-28T08:57:46Z</time>
      </trkpt>
      <trkpt lat="45.78951" lon="5.33592">
        <ele>379.8</ele>
        <time>2023-05-28T08:57:47Z</time>
      </trkpt>
      <trkpt lat="45.78946" lon="5.33589">
        <ele>379.8</ele>
        <time>2023-05-28T08:57:48Z</time>
      </trkpt>
      <trkpt lat="45.78937" lon="5.33583">
        <ele>379.2</ele>
        <time>2023-05-28T08:57:50Z</time>
      </trkpt>
      <trkpt lat="45.78932" lon="5.3358">
        <ele>379</ele>
        <time>2023-05-28T08:57:51Z</time>
      </trkpt>
      <trkpt lat="45.78927" lon="5.33577">
        <ele>379</ele>
        <time>2023-05-28T08:57:52Z</time>
      </trkpt>
      <trkpt lat="45.78922" lon="5.33573">
        <ele>379</ele>
        <time>2023-05-28T08:57:53Z</time>
      </trkpt>
      <trkpt lat="45.78918" lon="5.3357">
        <ele>378.8</ele>
        <time>2023-05-28T08:57:54Z</time>
      </trkpt>
      <trkpt lat="45.78914" lon="5.33568">
        <ele>378.8</ele>
        <time>2023-05-28T08:57:55Z</time>
      </trkpt>
      <trkpt lat="45.78909" lon="5.33565">
        <ele>378.8</ele>
        <time>2023-05-28T08:57:56Z</time>
      </trkpt>
      <trkpt lat="45.78903" lon="5.3356">
        <ele>378.8</ele>
        <time>2023-05-28T08:57:57Z</time>
      </trkpt>
      <trkpt lat="45.78898" lon="5.33556">
        <ele>378.4</ele>
        <time>2023-05-28T08:57:58Z</time>
      </trkpt>
      <trkpt lat="45.78893" lon="5.33553">
        <ele>378.4</ele>
        <time>2023-05-28T08:57:59Z</time>
      </trkpt>
      <trkpt lat="45.78889" lon="5.3355">
        <ele>378.2</ele>
        <time>2023-05-28T08:58:00Z</time>
      </trkpt>
      <trkpt lat="45.78883" lon="5.33546">
        <ele>378.2</ele>
        <time>2023-05-28T08:58:01Z</time>
      </trkpt>
      <trkpt lat="45.78877" lon="5.33542">
        <ele>378.2</ele>
        <time>2023-05-28T08:58:02Z</time>
      </trkpt>
      <trkpt lat="45.78871" lon="5.33539">
        <ele>378.2</ele>
        <time>2023-05-28T08:58:03Z</time>
      </trkpt>
      <trkpt lat="45.78866" lon="5.33535">
        <ele>378</ele>
        <time>2023-05-28T08:58:04Z</time>
      </trkpt>
      <trkpt lat="45.7886" lon="5.33531">
        <ele>378</ele>
        <time>2023-05-28T08:58:05Z</time>
      </trkpt>
      <trkpt lat="45.78855" lon="5.33527">
        <ele>378</ele>
        <time>2023-05-28T08:58:06Z</time>
      </trkpt>
      <trkpt lat="45.78849" lon="5.33523">
        <ele>378</ele>
        <time>2023-05-28T08:58:07Z</time>
      </trkpt>
      <trkpt lat="45.78843" lon="5.33519">
        <ele>378</ele>
        <time>2023-05-28T08:58:08Z</time>
      </trkpt>
      <trkpt lat="45.78836" lon="5.33515">
        <ele>378</ele>
        <time>2023-05-28T08:58:09Z</time>
      </trkpt>
      <trkpt lat="45.78831" lon="5.33513">
        <ele>378</ele>
        <time>2023-05-28T08:58:10Z</time>
      </trkpt>
      <trkpt lat="45.78824" lon="5.33508">
        <ele>378</ele>
        <time>2023-05-28T08:58:11Z</time>
      </trkpt>
      <trkpt lat="45.78817" lon="5.33505">
        <ele>378.2</ele>
        <time>2023-05-28T08:58:12Z</time>
      </trkpt>
      <trkpt lat="45.7881" lon="5.33501">
        <ele>378</ele>
        <time>2023-05-28T08:58:13Z</time>
      </trkpt>
      <trkpt lat="45.78803" lon="5.33498">
        <ele>378.2</ele>
        <time>2023-05-28T08:58:14Z</time>
      </trkpt>
      <trkpt lat="45.78789" lon="5.33491">
        <ele>378.2</ele>
        <time>2023-05-28T08:58:16Z</time>
      </trkpt>
      <trkpt lat="45.78782" lon="5.33487">
        <ele>378</ele>
        <time>2023-05-28T08:58:17Z</time>
      </trkpt>
      <trkpt lat="45.78775" lon="5.33483">
        <ele>377.8</ele>
        <time>2023-05-28T08:58:18Z</time>
      </trkpt>
      <trkpt lat="45.78769" lon="5.3348">
        <ele>377.6</ele>
        <time>2023-05-28T08:58:19Z</time>
      </trkpt>
      <trkpt lat="45.78761" lon="5.33474">
        <ele>377.6</ele>
        <time>2023-05-28T08:58:20Z</time>
      </trkpt>
      <trkpt lat="45.78754" lon="5.33468">
        <ele>377.6</ele>
        <time>2023-05-28T08:58:21Z</time>
      </trkpt>
      <trkpt lat="45.78748" lon="5.33462">
        <ele>377.6</ele>
        <time>2023-05-28T08:58:22Z</time>
      </trkpt>
      <trkpt lat="45.78742" lon="5.33454">
        <ele>377.4</ele>
        <time>2023-05-28T08:58:23Z</time>
      </trkpt>
      <trkpt lat="45.78733" lon="5.33434">
        <ele>377.2</ele>
        <time>2023-05-28T08:58:25Z</time>
      </trkpt>
      <trkpt lat="45.7873" lon="5.33423">
        <ele>376.8</ele>
        <time>2023-05-28T08:58:26Z</time>
      </trkpt>
      <trkpt lat="45.78727" lon="5.33411">
        <ele>376.8</ele>
        <time>2023-05-28T08:58:27Z</time>
      </trkpt>
      <trkpt lat="45.78722" lon="5.33387">
        <ele>377.2</ele>
        <time>2023-05-28T08:58:29Z</time>
      </trkpt>
      <trkpt lat="45.7872" lon="5.33375">
        <ele>377.4</ele>
        <time>2023-05-28T08:58:30Z</time>
      </trkpt>
      <trkpt lat="45.78716" lon="5.33364">
        <ele>377.4</ele>
        <time>2023-05-28T08:58:31Z</time>
      </trkpt>
      <trkpt lat="45.78711" lon="5.33354">
        <ele>377.4</ele>
        <time>2023-05-28T08:58:32Z</time>
      </trkpt>
      <trkpt lat="45.78704" lon="5.33346">
        <ele>377.4</ele>
        <time>2023-05-28T08:58:33Z</time>
      </trkpt>
      <trkpt lat="45.78697" lon="5.33339">
        <ele>377.2</ele>
        <time>2023-05-28T08:58:34Z</time>
      </trkpt>
      <trkpt lat="45.7869" lon="5.33332">
        <ele>376.8</ele>
        <time>2023-05-28T08:58:35Z</time>
      </trkpt>
      <trkpt lat="45.78683" lon="5.33324">
        <ele>376.8</ele>
        <time>2023-05-28T08:58:36Z</time>
      </trkpt>
      <trkpt lat="45.78676" lon="5.33316">
        <ele>376.6</ele>
        <time>2023-05-28T08:58:37Z</time>
      </trkpt>
      <trkpt lat="45.78669" lon="5.33308">
        <ele>376</ele>
        <time>2023-05-28T08:58:38Z</time>
      </trkpt>
      <trkpt lat="45.78663" lon="5.333">
        <ele>375.8</ele>
        <time>2023-05-28T08:58:39Z</time>
      </trkpt>
      <trkpt lat="45.78658" lon="5.33292">
        <ele>375.2</ele>
        <time>2023-05-28T08:58:40Z</time>
      </trkpt>
      <trkpt lat="45.78652" lon="5.33284">
        <ele>375</ele>
        <time>2023-05-28T08:58:41Z</time>
      </trkpt>
      <trkpt lat="45.78646" lon="5.33277">
        <ele>374.8</ele>
        <time>2023-05-28T08:58:42Z</time>
      </trkpt>
      <trkpt lat="45.7864" lon="5.33269">
        <ele>374.6</ele>
        <time>2023-05-28T08:58:43Z</time>
      </trkpt>
      <trkpt lat="45.78635" lon="5.33263">
        <ele>374.2</ele>
        <time>2023-05-28T08:58:44Z</time>
      </trkpt>
      <trkpt lat="45.78629" lon="5.33257">
        <ele>374</ele>
        <time>2023-05-28T08:58:45Z</time>
      </trkpt>
      <trkpt lat="45.78624" lon="5.3325">
        <ele>374</ele>
        <time>2023-05-28T08:58:46Z</time>
      </trkpt>
      <trkpt lat="45.78619" lon="5.33244">
        <ele>374.4</ele>
        <time>2023-05-28T08:58:47Z</time>
      </trkpt>
      <trkpt lat="45.78613" lon="5.33238">
        <ele>374.4</ele>
        <time>2023-05-28T08:58:48Z</time>
      </trkpt>
      <trkpt lat="45.78607" lon="5.33233">
        <ele>374.4</ele>
        <time>2023-05-28T08:58:49Z</time>
      </trkpt>
      <trkpt lat="45.78602" lon="5.33228">
        <ele>374.4</ele>
        <time>2023-05-28T08:58:50Z</time>
      </trkpt>
      <trkpt lat="45.78597" lon="5.33223">
        <ele>374.4</ele>
        <time>2023-05-28T08:58:51Z</time>
      </trkpt>
      <trkpt lat="45.78592" lon="5.33218">
        <ele>374.4</ele>
        <time>2023-05-28T08:58:52Z</time>
      </trkpt>
      <trkpt lat="45.78586" lon="5.33213">
        <ele>374.2</ele>
        <time>2023-05-28T08:58:53Z</time>
      </trkpt>
      <trkpt lat="45.78581" lon="5.33208">
        <ele>374.2</ele>
        <time>2023-05-28T08:58:54Z</time>
      </trkpt>
      <trkpt lat="45.78576" lon="5.33203">
        <ele>374.4</ele>
        <time>2023-05-28T08:58:55Z</time>
      </trkpt>
      <trkpt lat="45.7857" lon="5.33199">
        <ele>374.4</ele>
        <time>2023-05-28T08:58:56Z</time>
      </trkpt>
      <trkpt lat="45.78565" lon="5.33196">
        <ele>374.4</ele>
        <time>2023-05-28T08:58:57Z</time>
      </trkpt>
      <trkpt lat="45.78559" lon="5.33192">
        <ele>374.4</ele>
        <time>2023-05-28T08:58:58Z</time>
      </trkpt>
      <trkpt lat="45.78554" lon="5.33189">
        <ele>374.4</ele>
        <time>2023-05-28T08:58:59Z</time>
      </trkpt>
      <trkpt lat="45.78549" lon="5.33186">
        <ele>374.2</ele>
        <time>2023-05-28T08:59:00Z</time>
      </trkpt>
      <trkpt lat="45.78543" lon="5.33184">
        <ele>374.2</ele>
        <time>2023-05-28T08:59:01Z</time>
      </trkpt>
      <trkpt lat="45.78538" lon="5.33181">
        <ele>374.2</ele>
        <time>2023-05-28T08:59:02Z</time>
      </trkpt>
      <trkpt lat="45.78533" lon="5.33179">
        <ele>374.4</ele>
        <time>2023-05-28T08:59:03Z</time>
      </trkpt>
      <trkpt lat="45.78528" lon="5.33177">
        <ele>374.4</ele>
        <time>2023-05-28T08:59:04Z</time>
      </trkpt>
      <trkpt lat="45.78523" lon="5.33175">
        <ele>374.4</ele>
        <time>2023-05-28T08:59:05Z</time>
      </trkpt>
      <trkpt lat="45.78519" lon="5.33172">
        <ele>374.4</ele>
        <time>2023-05-28T08:59:06Z</time>
      </trkpt>
      <trkpt lat="45.78514" lon="5.33169">
        <ele>374.4</ele>
        <time>2023-05-28T08:59:07Z</time>
      </trkpt>
      <trkpt lat="45.78511" lon="5.33167">
        <ele>374.6</ele>
        <time>2023-05-28T08:59:08Z</time>
      </trkpt>
      <trkpt lat="45.78506" lon="5.33164">
        <ele>374.6</ele>
        <time>2023-05-28T08:59:09Z</time>
      </trkpt>
      <trkpt lat="45.78502" lon="5.33159">
        <ele>374.8</ele>
        <time>2023-05-28T08:59:10Z</time>
      </trkpt>
      <trkpt lat="45.78498" lon="5.33154">
        <ele>374.8</ele>
        <time>2023-05-28T08:59:11Z</time>
      </trkpt>
      <trkpt lat="45.78495" lon="5.33149">
        <ele>375.2</ele>
        <time>2023-05-28T08:59:12Z</time>
      </trkpt>
      <trkpt lat="45.78493" lon="5.33145">
        <ele>375.4</ele>
        <time>2023-05-28T08:59:13Z</time>
      </trkpt>
      <trkpt lat="45.78491" lon="5.33138">
        <ele>375.8</ele>
        <time>2023-05-28T08:59:14Z</time>
      </trkpt>
      <trkpt lat="45.78489" lon="5.33134">
        <ele>375.8</ele>
        <time>2023-05-28T08:59:15Z</time>
      </trkpt>
      <trkpt lat="45.78488" lon="5.33127">
        <ele>376</ele>
        <time>2023-05-28T08:59:16Z</time>
      </trkpt>
      <trkpt lat="45.78488" lon="5.33121">
        <ele>376.2</ele>
        <time>2023-05-28T08:59:17Z</time>
      </trkpt>
      <trkpt lat="45.78487" lon="5.33115">
        <ele>376.4</ele>
        <time>2023-05-28T08:59:18Z</time>
      </trkpt>
      <trkpt lat="45.78487" lon="5.33109">
        <ele>376.6</ele>
        <time>2023-05-28T08:59:19Z</time>
      </trkpt>
      <trkpt lat="45.78486" lon="5.33102">
        <ele>376.8</ele>
        <time>2023-05-28T08:59:20Z</time>
      </trkpt>
      <trkpt lat="45.78486" lon="5.33095">
        <ele>377</ele>
        <time>2023-05-28T08:59:21Z</time>
      </trkpt>
      <trkpt lat="45.78486" lon="5.33088">
        <ele>377</ele>
        <time>2023-05-28T08:59:22Z</time>
      </trkpt>
      <trkpt lat="45.78485" lon="5.33081">
        <ele>377.4</ele>
        <time>2023-05-28T08:59:23Z</time>
      </trkpt>
      <trkpt lat="45.78484" lon="5.33073">
        <ele>377.6</ele>
        <time>2023-05-28T08:59:24Z</time>
      </trkpt>
      <trkpt lat="45.78483" lon="5.33066">
        <ele>377.8</ele>
        <time>2023-05-28T08:59:25Z</time>
      </trkpt>
      <trkpt lat="45.78482" lon="5.33058">
        <ele>378.2</ele>
        <time>2023-05-28T08:59:26Z</time>
      </trkpt>
      <trkpt lat="45.78481" lon="5.33051">
        <ele>378.2</ele>
        <time>2023-05-28T08:59:27Z</time>
      </trkpt>
      <trkpt lat="45.78479" lon="5.33044">
        <ele>378.6</ele>
        <time>2023-05-28T08:59:28Z</time>
      </trkpt>
      <trkpt lat="45.78477" lon="5.33036">
        <ele>378.6</ele>
        <time>2023-05-28T08:59:29Z</time>
      </trkpt>
      <trkpt lat="45.78475" lon="5.33029">
        <ele>378.8</ele>
        <time>2023-05-28T08:59:30Z</time>
      </trkpt>
      <trkpt lat="45.78473" lon="5.33022">
        <ele>379</ele>
        <time>2023-05-28T08:59:31Z</time>
      </trkpt>
      <trkpt lat="45.78471" lon="5.33015">
        <ele>379</ele>
        <time>2023-05-28T08:59:32Z</time>
      </trkpt>
      <trkpt lat="45.78468" lon="5.33007">
        <ele>379.2</ele>
        <time>2023-05-28T08:59:33Z</time>
      </trkpt>
      <trkpt lat="45.78466" lon="5.33">
        <ele>379</ele>
        <time>2023-05-28T08:59:34Z</time>
      </trkpt>
      <trkpt lat="45.78464" lon="5.32992">
        <ele>379.2</ele>
        <time>2023-05-28T08:59:35Z</time>
      </trkpt>
      <trkpt lat="45.78461" lon="5.32985">
        <ele>379.2</ele>
        <time>2023-05-28T08:59:36Z</time>
      </trkpt>
      <trkpt lat="45.78459" lon="5.32978">
        <ele>379.6</ele>
        <time>2023-05-28T08:59:37Z</time>
      </trkpt>
      <trkpt lat="45.78456" lon="5.32971">
        <ele>379.4</ele>
        <time>2023-05-28T08:59:38Z</time>
      </trkpt>
      <trkpt lat="45.78454" lon="5.32963">
        <ele>379.2</ele>
        <time>2023-05-28T08:59:39Z</time>
      </trkpt>
      <trkpt lat="45.78451" lon="5.32957">
        <ele>379.2</ele>
        <time>2023-05-28T08:59:40Z</time>
      </trkpt>
      <trkpt lat="45.78449" lon="5.32949">
        <ele>379.2</ele>
        <time>2023-05-28T08:59:41Z</time>
      </trkpt>
      <trkpt lat="45.78447" lon="5.32943">
        <ele>379.2</ele>
        <time>2023-05-28T08:59:42Z</time>
      </trkpt>
      <trkpt lat="45.78446" lon="5.32936">
        <ele>379.2</ele>
        <time>2023-05-28T08:59:43Z</time>
      </trkpt>
      <trkpt lat="45.78444" lon="5.32929">
        <ele>379.2</ele>
        <time>2023-05-28T08:59:44Z</time>
      </trkpt>
      <trkpt lat="45.78443" lon="5.32922">
        <ele>379.2</ele>
        <time>2023-05-28T08:59:45Z</time>
      </trkpt>
      <trkpt lat="45.78441" lon="5.32915">
        <ele>379.2</ele>
        <time>2023-05-28T08:59:46Z</time>
      </trkpt>
      <trkpt lat="45.7844" lon="5.32908">
        <ele>379.2</ele>
        <time>2023-05-28T08:59:47Z</time>
      </trkpt>
      <trkpt lat="45.7844" lon="5.32901">
        <ele>379.2</ele>
        <time>2023-05-28T08:59:48Z</time>
      </trkpt>
      <trkpt lat="45.7844" lon="5.32894">
        <ele>379.4</ele>
        <time>2023-05-28T08:59:49Z</time>
      </trkpt>
      <trkpt lat="45.78439" lon="5.32887">
        <ele>379.6</ele>
        <time>2023-05-28T08:59:50Z</time>
      </trkpt>
      <trkpt lat="45.7844" lon="5.3288">
        <ele>380</ele>
        <time>2023-05-28T08:59:51Z</time>
      </trkpt>
      <trkpt lat="45.78439" lon="5.32874">
        <ele>380.2</ele>
        <time>2023-05-28T08:59:52Z</time>
      </trkpt>
      <trkpt lat="45.78439" lon="5.32866">
        <ele>380.6</ele>
        <time>2023-05-28T08:59:53Z</time>
      </trkpt>
      <trkpt lat="45.78439" lon="5.32858">
        <ele>380.8</ele>
        <time>2023-05-28T08:59:54Z</time>
      </trkpt>
      <trkpt lat="45.78439" lon="5.32851">
        <ele>381</ele>
        <time>2023-05-28T08:59:55Z</time>
      </trkpt>
      <trkpt lat="45.78438" lon="5.32843">
        <ele>381.4</ele>
        <time>2023-05-28T08:59:56Z</time>
      </trkpt>
      <trkpt lat="45.78438" lon="5.32836">
        <ele>381.4</ele>
        <time>2023-05-28T08:59:57Z</time>
      </trkpt>
      <trkpt lat="45.78438" lon="5.32829">
        <ele>381.8</ele>
        <time>2023-05-28T08:59:58Z</time>
      </trkpt>
      <trkpt lat="45.78438" lon="5.32821">
        <ele>382</ele>
        <time>2023-05-28T08:59:59Z</time>
      </trkpt>
      <trkpt lat="45.78438" lon="5.32814">
        <ele>382.2</ele>
        <time>2023-05-28T09:00:00Z</time>
      </trkpt>
      <trkpt lat="45.78438" lon="5.32806">
        <ele>382.4</ele>
        <time>2023-05-28T09:00:01Z</time>
      </trkpt>
      <trkpt lat="45.78438" lon="5.32798">
        <ele>382.6</ele>
        <time>2023-05-28T09:00:02Z</time>
      </trkpt>
      <trkpt lat="45.78438" lon="5.32791">
        <ele>383</ele>
        <time>2023-05-28T09:00:03Z</time>
      </trkpt>
      <trkpt lat="45.78437" lon="5.32784">
        <ele>383.2</ele>
        <time>2023-05-28T09:00:04Z</time>
      </trkpt>
      <trkpt lat="45.78437" lon="5.32776">
        <ele>383.6</ele>
        <time>2023-05-28T09:00:05Z</time>
      </trkpt>
      <trkpt lat="45.78437" lon="5.32768">
        <ele>383.6</ele>
        <time>2023-05-28T09:00:06Z</time>
      </trkpt>
      <trkpt lat="45.78436" lon="5.32761">
        <ele>383.8</ele>
        <time>2023-05-28T09:00:07Z</time>
      </trkpt>
      <trkpt lat="45.78436" lon="5.32754">
        <ele>384</ele>
        <time>2023-05-28T09:00:08Z</time>
      </trkpt>
      <trkpt lat="45.78436" lon="5.32747">
        <ele>384.2</ele>
        <time>2023-05-28T09:00:09Z</time>
      </trkpt>
      <trkpt lat="45.78436" lon="5.32739">
        <ele>384.6</ele>
        <time>2023-05-28T09:00:10Z</time>
      </trkpt>
      <trkpt lat="45.78435" lon="5.32732">
        <ele>384.6</ele>
        <time>2023-05-28T09:00:11Z</time>
      </trkpt>
      <trkpt lat="45.78435" lon="5.32724">
        <ele>385</ele>
        <time>2023-05-28T09:00:12Z</time>
      </trkpt>
      <trkpt lat="45.78435" lon="5.32717">
        <ele>385</ele>
        <time>2023-05-28T09:00:13Z</time>
      </trkpt>
      <trkpt lat="45.78435" lon="5.32709">
        <ele>385.2</ele>
        <time>2023-05-28T09:00:14Z</time>
      </trkpt>
      <trkpt lat="45.78435" lon="5.32701">
        <ele>385.6</ele>
        <time>2023-05-28T09:00:15Z</time>
      </trkpt>
      <trkpt lat="45.78434" lon="5.32694">
        <ele>386</ele>
        <time>2023-05-28T09:00:16Z</time>
      </trkpt>
      <trkpt lat="45.78434" lon="5.32686">
        <ele>386.2</ele>
        <time>2023-05-28T09:00:17Z</time>
      </trkpt>
      <trkpt lat="45.78434" lon="5.32678">
        <ele>386.4</ele>
        <time>2023-05-28T09:00:18Z</time>
      </trkpt>
      <trkpt lat="45.78433" lon="5.32672">
        <ele>386.6</ele>
        <time>2023-05-28T09:00:19Z</time>
      </trkpt>
      <trkpt lat="45.78433" lon="5.32664">
        <ele>386.6</ele>
        <time>2023-05-28T09:00:20Z</time>
      </trkpt>
      <trkpt lat="45.78433" lon="5.32655">
        <ele>386.8</ele>
        <time>2023-05-28T09:00:21Z</time>
      </trkpt>
      <trkpt lat="45.78433" lon="5.32648">
        <ele>386.8</ele>
        <time>2023-05-28T09:00:22Z</time>
      </trkpt>
      <trkpt lat="45.78432" lon="5.3264">
        <ele>387</ele>
        <time>2023-05-28T09:00:23Z</time>
      </trkpt>
      <trkpt lat="45.78432" lon="5.32632">
        <ele>387.2</ele>
        <time>2023-05-28T09:00:24Z</time>
      </trkpt>
      <trkpt lat="45.78431" lon="5.32623">
        <ele>387.6</ele>
        <time>2023-05-28T09:00:25Z</time>
      </trkpt>
      <trkpt lat="45.78429" lon="5.32615">
        <ele>388</ele>
        <time>2023-05-28T09:00:26Z</time>
      </trkpt>
      <trkpt lat="45.78428" lon="5.32607">
        <ele>388.2</ele>
        <time>2023-05-28T09:00:27Z</time>
      </trkpt>
      <trkpt lat="45.78426" lon="5.32599">
        <ele>388.2</ele>
        <time>2023-05-28T09:00:28Z</time>
      </trkpt>
      <trkpt lat="45.78424" lon="5.32592">
        <ele>388.2</ele>
        <time>2023-05-28T09:00:29Z</time>
      </trkpt>
      <trkpt lat="45.78422" lon="5.32584">
        <ele>388.4</ele>
        <time>2023-05-28T09:00:30Z</time>
      </trkpt>
      <trkpt lat="45.7842" lon="5.32576">
        <ele>388.4</ele>
        <time>2023-05-28T09:00:31Z</time>
      </trkpt>
      <trkpt lat="45.78417" lon="5.32568">
        <ele>388.4</ele>
        <time>2023-05-28T09:00:32Z</time>
      </trkpt>
      <trkpt lat="45.78415" lon="5.32561">
        <ele>388.4</ele>
        <time>2023-05-28T09:00:33Z</time>
      </trkpt>
      <trkpt lat="45.78413" lon="5.32554">
        <ele>388.6</ele>
        <time>2023-05-28T09:00:34Z</time>
      </trkpt>
      <trkpt lat="45.7841" lon="5.32545">
        <ele>388.6</ele>
        <time>2023-05-28T09:00:35Z</time>
      </trkpt>
      <trkpt lat="45.78407" lon="5.32536">
        <ele>388.6</ele>
        <time>2023-05-28T09:00:36Z</time>
      </trkpt>
      <trkpt lat="45.78405" lon="5.32528">
        <ele>388.6</ele>
        <time>2023-05-28T09:00:37Z</time>
      </trkpt>
      <trkpt lat="45.78402" lon="5.3252">
        <ele>388.6</ele>
        <time>2023-05-28T09:00:38Z</time>
      </trkpt>
      <trkpt lat="45.784" lon="5.32512">
        <ele>388.6</ele>
        <time>2023-05-28T09:00:39Z</time>
      </trkpt>
      <trkpt lat="45.78398" lon="5.32504">
        <ele>388.6</ele>
        <time>2023-05-28T09:00:40Z</time>
      </trkpt>
      <trkpt lat="45.78396" lon="5.32496">
        <ele>388.4</ele>
        <time>2023-05-28T09:00:41Z</time>
      </trkpt>
      <trkpt lat="45.78393" lon="5.32488">
        <ele>388.4</ele>
        <time>2023-05-28T09:00:42Z</time>
      </trkpt>
      <trkpt lat="45.78391" lon="5.3248">
        <ele>388.4</ele>
        <time>2023-05-28T09:00:43Z</time>
      </trkpt>
      <trkpt lat="45.78389" lon="5.32472">
        <ele>388.2</ele>
        <time>2023-05-28T09:00:44Z</time>
      </trkpt>
      <trkpt lat="45.78386" lon="5.32464">
        <ele>388</ele>
        <time>2023-05-28T09:00:45Z</time>
      </trkpt>
      <trkpt lat="45.78383" lon="5.32456">
        <ele>388</ele>
        <time>2023-05-28T09:00:46Z</time>
      </trkpt>
      <trkpt lat="45.78381" lon="5.32448">
        <ele>387.8</ele>
        <time>2023-05-28T09:00:47Z</time>
      </trkpt>
      <trkpt lat="45.78379" lon="5.3244">
        <ele>387.6</ele>
        <time>2023-05-28T09:00:48Z</time>
      </trkpt>
      <trkpt lat="45.78377" lon="5.32432">
        <ele>387.4</ele>
        <time>2023-05-28T09:00:49Z</time>
      </trkpt>
      <trkpt lat="45.78374" lon="5.32424">
        <ele>387.4</ele>
        <time>2023-05-28T09:00:50Z</time>
      </trkpt>
      <trkpt lat="45.78372" lon="5.32416">
        <ele>387.2</ele>
        <time>2023-05-28T09:00:51Z</time>
      </trkpt>
      <trkpt lat="45.78369" lon="5.32407">
        <ele>387.2</ele>
        <time>2023-05-28T09:00:52Z</time>
      </trkpt>
      <trkpt lat="45.78366" lon="5.32399">
        <ele>386.8</ele>
        <time>2023-05-28T09:00:53Z</time>
      </trkpt>
      <trkpt lat="45.78364" lon="5.3239">
        <ele>386.8</ele>
        <time>2023-05-28T09:00:54Z</time>
      </trkpt>
      <trkpt lat="45.78361" lon="5.32382">
        <ele>386.8</ele>
        <time>2023-05-28T09:00:55Z</time>
      </trkpt>
      <trkpt lat="45.78358" lon="5.32373">
        <ele>386.6</ele>
        <time>2023-05-28T09:00:56Z</time>
      </trkpt>
      <trkpt lat="45.78356" lon="5.32365">
        <ele>386.6</ele>
        <time>2023-05-28T09:00:57Z</time>
      </trkpt>
      <trkpt lat="45.78353" lon="5.32355">
        <ele>386.4</ele>
        <time>2023-05-28T09:00:58Z</time>
      </trkpt>
      <trkpt lat="45.78351" lon="5.32347">
        <ele>386.2</ele>
        <time>2023-05-28T09:00:59Z</time>
      </trkpt>
      <trkpt lat="45.78348" lon="5.32338">
        <ele>386.2</ele>
        <time>2023-05-28T09:01:00Z</time>
      </trkpt>
      <trkpt lat="45.78346" lon="5.32329">
        <ele>386.2</ele>
        <time>2023-05-28T09:01:01Z</time>
      </trkpt>
      <trkpt lat="45.78343" lon="5.3232">
        <ele>386</ele>
        <time>2023-05-28T09:01:02Z</time>
      </trkpt>
      <trkpt lat="45.78341" lon="5.32311">
        <ele>386</ele>
        <time>2023-05-28T09:01:03Z</time>
      </trkpt>
      <trkpt lat="45.78338" lon="5.32302">
        <ele>385.8</ele>
        <time>2023-05-28T09:01:04Z</time>
      </trkpt>
      <trkpt lat="45.78335" lon="5.32292">
        <ele>385.8</ele>
        <time>2023-05-28T09:01:05Z</time>
      </trkpt>
      <trkpt lat="45.78333" lon="5.32283">
        <ele>385.8</ele>
        <time>2023-05-28T09:01:06Z</time>
      </trkpt>
      <trkpt lat="45.7833" lon="5.32273">
        <ele>385.8</ele>
        <time>2023-05-28T09:01:07Z</time>
      </trkpt>
      <trkpt lat="45.78327" lon="5.32263">
        <ele>385.8</ele>
        <time>2023-05-28T09:01:08Z</time>
      </trkpt>
      <trkpt lat="45.78325" lon="5.32253">
        <ele>385.6</ele>
        <time>2023-05-28T09:01:09Z</time>
      </trkpt>
      <trkpt lat="45.78323" lon="5.32242">
        <ele>385.6</ele>
        <time>2023-05-28T09:01:10Z</time>
      </trkpt>
      <trkpt lat="45.78321" lon="5.32232">
        <ele>385.6</ele>
        <time>2023-05-28T09:01:11Z</time>
      </trkpt>
      <trkpt lat="45.78319" lon="5.32221">
        <ele>385.4</ele>
        <time>2023-05-28T09:01:12Z</time>
      </trkpt>
      <trkpt lat="45.78317" lon="5.3221">
        <ele>385.4</ele>
        <time>2023-05-28T09:01:13Z</time>
      </trkpt>
      <trkpt lat="45.78316" lon="5.32199">
        <ele>385.2</ele>
        <time>2023-05-28T09:01:14Z</time>
      </trkpt>
      <trkpt lat="45.78314" lon="5.32188">
        <ele>385.2</ele>
        <time>2023-05-28T09:01:15Z</time>
      </trkpt>
      <trkpt lat="45.78312" lon="5.32177">
        <ele>385</ele>
        <time>2023-05-28T09:01:16Z</time>
      </trkpt>
      <trkpt lat="45.78311" lon="5.32167">
        <ele>385</ele>
        <time>2023-05-28T09:01:17Z</time>
      </trkpt>
      <trkpt lat="45.78309" lon="5.32156">
        <ele>385</ele>
        <time>2023-05-28T09:01:18Z</time>
      </trkpt>
      <trkpt lat="45.78308" lon="5.32145">
        <ele>384.8</ele>
        <time>2023-05-28T09:01:19Z</time>
      </trkpt>
      <trkpt lat="45.78306" lon="5.32135">
        <ele>384.8</ele>
        <time>2023-05-28T09:01:20Z</time>
      </trkpt>
      <trkpt lat="45.78304" lon="5.32124">
        <ele>384.6</ele>
        <time>2023-05-28T09:01:21Z</time>
      </trkpt>
      <trkpt lat="45.78302" lon="5.32114">
        <ele>384.6</ele>
        <time>2023-05-28T09:01:22Z</time>
      </trkpt>
      <trkpt lat="45.78299" lon="5.32104">
        <ele>384.4</ele>
        <time>2023-05-28T09:01:23Z</time>
      </trkpt>
      <trkpt lat="45.78296" lon="5.32094">
        <ele>384.4</ele>
        <time>2023-05-28T09:01:24Z</time>
      </trkpt>
      <trkpt lat="45.78294" lon="5.32084">
        <ele>384.2</ele>
        <time>2023-05-28T09:01:25Z</time>
      </trkpt>
      <trkpt lat="45.78291" lon="5.32074">
        <ele>384.2</ele>
        <time>2023-05-28T09:01:26Z</time>
      </trkpt>
      <trkpt lat="45.78288" lon="5.32065">
        <ele>384</ele>
        <time>2023-05-28T09:01:27Z</time>
      </trkpt>
      <trkpt lat="45.78286" lon="5.32055">
        <ele>384</ele>
        <time>2023-05-28T09:01:28Z</time>
      </trkpt>
      <trkpt lat="45.78283" lon="5.32045">
        <ele>383.8</ele>
        <time>2023-05-28T09:01:29Z</time>
      </trkpt>
      <trkpt lat="45.78281" lon="5.32035">
        <ele>383.6</ele>
        <time>2023-05-28T09:01:30Z</time>
      </trkpt>
      <trkpt lat="45.78278" lon="5.32024">
        <ele>383.4</ele>
        <time>2023-05-28T09:01:31Z</time>
      </trkpt>
      <trkpt lat="45.78276" lon="5.32014">
        <ele>383.4</ele>
        <time>2023-05-28T09:01:32Z</time>
      </trkpt>
      <trkpt lat="45.78273" lon="5.32003">
        <ele>383.2</ele>
        <time>2023-05-28T09:01:33Z</time>
      </trkpt>
      <trkpt lat="45.78271" lon="5.31993">
        <ele>382.8</ele>
        <time>2023-05-28T09:01:34Z</time>
      </trkpt>
      <trkpt lat="45.78268" lon="5.31982">
        <ele>382.4</ele>
        <time>2023-05-28T09:01:35Z</time>
      </trkpt>
      <trkpt lat="45.78265" lon="5.31971">
        <ele>382.2</ele>
        <time>2023-05-28T09:01:36Z</time>
      </trkpt>
      <trkpt lat="45.78262" lon="5.31961">
        <ele>382</ele>
        <time>2023-05-28T09:01:37Z</time>
      </trkpt>
      <trkpt lat="45.78259" lon="5.3195">
        <ele>381.8</ele>
        <time>2023-05-28T09:01:38Z</time>
      </trkpt>
      <trkpt lat="45.78256" lon="5.3194">
        <ele>381.8</ele>
        <time>2023-05-28T09:01:39Z</time>
      </trkpt>
      <trkpt lat="45.78253" lon="5.3193">
        <ele>381.8</ele>
        <time>2023-05-28T09:01:40Z</time>
      </trkpt>
      <trkpt lat="45.78249" lon="5.3192">
        <ele>381.8</ele>
        <time>2023-05-28T09:01:41Z</time>
      </trkpt>
      <trkpt lat="45.78246" lon="5.3191">
        <ele>381.6</ele>
        <time>2023-05-28T09:01:42Z</time>
      </trkpt>
      <trkpt lat="45.78242" lon="5.319">
        <ele>381.4</ele>
        <time>2023-05-28T09:01:43Z</time>
      </trkpt>
      <trkpt lat="45.78237" lon="5.3189">
        <ele>381.2</ele>
        <time>2023-05-28T09:01:44Z</time>
      </trkpt>
      <trkpt lat="45.78233" lon="5.3188">
        <ele>381</ele>
        <time>2023-05-28T09:01:45Z</time>
      </trkpt>
      <trkpt lat="45.78229" lon="5.31871">
        <ele>380.4</ele>
        <time>2023-05-28T09:01:46Z</time>
      </trkpt>
      <trkpt lat="45.78225" lon="5.31862">
        <ele>380.2</ele>
        <time>2023-05-28T09:01:47Z</time>
      </trkpt>
      <trkpt lat="45.7822" lon="5.31853">
        <ele>379.8</ele>
        <time>2023-05-28T09:01:48Z</time>
      </trkpt>
      <trkpt lat="45.78214" lon="5.31845">
        <ele>379.4</ele>
        <time>2023-05-28T09:01:49Z</time>
      </trkpt>
      <trkpt lat="45.78207" lon="5.31838">
        <ele>378.8</ele>
        <time>2023-05-28T09:01:50Z</time>
      </trkpt>
      <trkpt lat="45.782" lon="5.31832">
        <ele>378.2</ele>
        <time>2023-05-28T09:01:51Z</time>
      </trkpt>
      <trkpt lat="45.78192" lon="5.31828">
        <ele>378.2</ele>
        <time>2023-05-28T09:01:52Z</time>
      </trkpt>
      <trkpt lat="45.78184" lon="5.31825">
        <ele>377.8</ele>
        <time>2023-05-28T09:01:53Z</time>
      </trkpt>
      <trkpt lat="45.78175" lon="5.31825">
        <ele>377.8</ele>
        <time>2023-05-28T09:01:54Z</time>
      </trkpt>
      <trkpt lat="45.78167" lon="5.31824">
        <ele>377.4</ele>
        <time>2023-05-28T09:01:55Z</time>
      </trkpt>
      <trkpt lat="45.78149" lon="5.31827">
        <ele>377</ele>
        <time>2023-05-28T09:01:57Z</time>
      </trkpt>
      <trkpt lat="45.78141" lon="5.31829">
        <ele>376.6</ele>
        <time>2023-05-28T09:01:58Z</time>
      </trkpt>
      <trkpt lat="45.78133" lon="5.31831">
        <ele>376.4</ele>
        <time>2023-05-28T09:01:59Z</time>
      </trkpt>
      <trkpt lat="45.78125" lon="5.31832">
        <ele>375.6</ele>
        <time>2023-05-28T09:02:00Z</time>
      </trkpt>
      <trkpt lat="45.78117" lon="5.3183">
        <ele>375.4</ele>
        <time>2023-05-28T09:02:01Z</time>
      </trkpt>
      <trkpt lat="45.7811" lon="5.31826">
        <ele>374.8</ele>
        <time>2023-05-28T09:02:02Z</time>
      </trkpt>
      <trkpt lat="45.78104" lon="5.3182">
        <ele>374.4</ele>
        <time>2023-05-28T09:02:03Z</time>
      </trkpt>
      <trkpt lat="45.78101" lon="5.3181">
        <ele>373.6</ele>
        <time>2023-05-28T09:02:04Z</time>
      </trkpt>
      <trkpt lat="45.78099" lon="5.31799">
        <ele>372.8</ele>
        <time>2023-05-28T09:02:05Z</time>
      </trkpt>
      <trkpt lat="45.78101" lon="5.31788">
        <ele>372.6</ele>
        <time>2023-05-28T09:02:06Z</time>
      </trkpt>
      <trkpt lat="45.78108" lon="5.31764">
        <ele>371.8</ele>
        <time>2023-05-28T09:02:08Z</time>
      </trkpt>
      <trkpt lat="45.78114" lon="5.31753">
        <ele>371.6</ele>
        <time>2023-05-28T09:02:09Z</time>
      </trkpt>
      <trkpt lat="45.78125" lon="5.31731">
        <ele>371.2</ele>
        <time>2023-05-28T09:02:11Z</time>
      </trkpt>
      <trkpt lat="45.7813" lon="5.3172">
        <ele>371</ele>
        <time>2023-05-28T09:02:12Z</time>
      </trkpt>
      <trkpt lat="45.78134" lon="5.3171">
        <ele>370.2</ele>
        <time>2023-05-28T09:02:13Z</time>
      </trkpt>
      <trkpt lat="45.78139" lon="5.317">
        <ele>369.6</ele>
        <time>2023-05-28T09:02:14Z</time>
      </trkpt>
      <trkpt lat="45.78144" lon="5.31691">
        <ele>369.6</ele>
        <time>2023-05-28T09:02:15Z</time>
      </trkpt>
      <trkpt lat="45.78148" lon="5.31684">
        <ele>369.2</ele>
        <time>2023-05-28T09:02:16Z</time>
      </trkpt>
      <trkpt lat="45.78152" lon="5.31677">
        <ele>369</ele>
        <time>2023-05-28T09:02:17Z</time>
      </trkpt>
      <trkpt lat="45.78154" lon="5.31671">
        <ele>368.4</ele>
        <time>2023-05-28T09:02:18Z</time>
      </trkpt>
      <trkpt lat="45.78154" lon="5.31666">
        <ele>368.2</ele>
        <time>2023-05-28T09:02:19Z</time>
      </trkpt>
      <trkpt lat="45.78152" lon="5.31661">
        <ele>367.6</ele>
        <time>2023-05-28T09:02:20Z</time>
      </trkpt>
      <trkpt lat="45.78147" lon="5.31657">
        <ele>367.4</ele>
        <time>2023-05-28T09:02:21Z</time>
      </trkpt>
      <trkpt lat="45.78142" lon="5.31655">
        <ele>367</ele>
        <time>2023-05-28T09:02:22Z</time>
      </trkpt>
      <trkpt lat="45.78138" lon="5.31652">
        <ele>366.2</ele>
        <time>2023-05-28T09:02:23Z</time>
      </trkpt>
      <trkpt lat="45.78135" lon="5.3165">
        <ele>365.8</ele>
        <time>2023-05-28T09:02:24Z</time>
      </trkpt>
      <trkpt lat="45.78131" lon="5.31648">
        <ele>365</ele>
        <time>2023-05-28T09:02:25Z</time>
      </trkpt>
      <trkpt lat="45.78128" lon="5.31646">
        <ele>364.6</ele>
        <time>2023-05-28T09:02:26Z</time>
      </trkpt>
      <trkpt lat="45.78125" lon="5.31643">
        <ele>363.6</ele>
        <time>2023-05-28T09:02:27Z</time>
      </trkpt>
      <trkpt lat="45.78122" lon="5.31639">
        <ele>362.8</ele>
        <time>2023-05-28T09:02:28Z</time>
      </trkpt>
      <trkpt lat="45.78119" lon="5.31635">
        <ele>362.6</ele>
        <time>2023-05-28T09:02:29Z</time>
      </trkpt>
      <trkpt lat="45.78116" lon="5.31631">
        <ele>361.8</ele>
        <time>2023-05-28T09:02:30Z</time>
      </trkpt>
      <trkpt lat="45.78113" lon="5.31625">
        <ele>361.6</ele>
        <time>2023-05-28T09:02:31Z</time>
      </trkpt>
      <trkpt lat="45.7811" lon="5.31619">
        <ele>361.2</ele>
        <time>2023-05-28T09:02:32Z</time>
      </trkpt>
      <trkpt lat="45.78107" lon="5.31611">
        <ele>361</ele>
        <time>2023-05-28T09:02:33Z</time>
      </trkpt>
      <trkpt lat="45.78104" lon="5.31602">
        <ele>360.6</ele>
        <time>2023-05-28T09:02:34Z</time>
      </trkpt>
      <trkpt lat="45.78102" lon="5.31593">
        <ele>360.6</ele>
        <time>2023-05-28T09:02:35Z</time>
      </trkpt>
      <trkpt lat="45.78099" lon="5.31583">
        <ele>360</ele>
        <time>2023-05-28T09:02:36Z</time>
      </trkpt>
      <trkpt lat="45.78095" lon="5.31573">
        <ele>359.6</ele>
        <time>2023-05-28T09:02:37Z</time>
      </trkpt>
      <trkpt lat="45.7809" lon="5.31564">
        <ele>359.4</ele>
        <time>2023-05-28T09:02:38Z</time>
      </trkpt>
      <trkpt lat="45.78084" lon="5.31554">
        <ele>359.2</ele>
        <time>2023-05-28T09:02:39Z</time>
      </trkpt>
      <trkpt lat="45.78077" lon="5.31544">
        <ele>359</ele>
        <time>2023-05-28T09:02:40Z</time>
      </trkpt>
      <trkpt lat="45.7807" lon="5.31536">
        <ele>358.4</ele>
        <time>2023-05-28T09:02:41Z</time>
      </trkpt>
      <trkpt lat="45.78062" lon="5.31529">
        <ele>358.2</ele>
        <time>2023-05-28T09:02:42Z</time>
      </trkpt>
      <trkpt lat="45.78053" lon="5.31524">
        <ele>357.8</ele>
        <time>2023-05-28T09:02:43Z</time>
      </trkpt>
      <trkpt lat="45.78043" lon="5.31519">
        <ele>357.2</ele>
        <time>2023-05-28T09:02:44Z</time>
      </trkpt>
      <trkpt lat="45.78033" lon="5.31514">
        <ele>357</ele>
        <time>2023-05-28T09:02:45Z</time>
      </trkpt>
      <trkpt lat="45.78024" lon="5.31509">
        <ele>356.6</ele>
        <time>2023-05-28T09:02:46Z</time>
      </trkpt>
      <trkpt lat="45.78014" lon="5.31504">
        <ele>356.2</ele>
        <time>2023-05-28T09:02:47Z</time>
      </trkpt>
      <trkpt lat="45.78005" lon="5.31497">
        <ele>355</ele>
        <time>2023-05-28T09:02:48Z</time>
      </trkpt>
      <trkpt lat="45.77996" lon="5.31489">
        <ele>354.6</ele>
        <time>2023-05-28T09:02:49Z</time>
      </trkpt>
      <trkpt lat="45.77987" lon="5.31479">
        <ele>354</ele>
        <time>2023-05-28T09:02:50Z</time>
      </trkpt>
      <trkpt lat="45.77978" lon="5.3147">
        <ele>353.6</ele>
        <time>2023-05-28T09:02:51Z</time>
      </trkpt>
      <trkpt lat="45.77968" lon="5.31461">
        <ele>353</ele>
        <time>2023-05-28T09:02:52Z</time>
      </trkpt>
      <trkpt lat="45.77958" lon="5.31454">
        <ele>352.6</ele>
        <time>2023-05-28T09:02:53Z</time>
      </trkpt>
      <trkpt lat="45.77947" lon="5.31447">
        <ele>352.2</ele>
        <time>2023-05-28T09:02:54Z</time>
      </trkpt>
      <trkpt lat="45.77936" lon="5.3144">
        <ele>351.6</ele>
        <time>2023-05-28T09:02:55Z</time>
      </trkpt>
      <trkpt lat="45.77924" lon="5.31433">
        <ele>351.4</ele>
        <time>2023-05-28T09:02:56Z</time>
      </trkpt>
      <trkpt lat="45.77912" lon="5.31428">
        <ele>350.6</ele>
        <time>2023-05-28T09:02:57Z</time>
      </trkpt>
      <trkpt lat="45.77899" lon="5.31421">
        <ele>350.2</ele>
        <time>2023-05-28T09:02:58Z</time>
      </trkpt>
      <trkpt lat="45.77887" lon="5.31414">
        <ele>349.6</ele>
        <time>2023-05-28T09:02:59Z</time>
      </trkpt>
      <trkpt lat="45.77874" lon="5.31406">
        <ele>349</ele>
        <time>2023-05-28T09:03:00Z</time>
      </trkpt>
      <trkpt lat="45.77861" lon="5.31398">
        <ele>348.8</ele>
        <time>2023-05-28T09:03:01Z</time>
      </trkpt>
      <trkpt lat="45.77849" lon="5.31389">
        <ele>348.4</ele>
        <time>2023-05-28T09:03:02Z</time>
      </trkpt>
      <trkpt lat="45.77837" lon="5.31381">
        <ele>348.2</ele>
        <time>2023-05-28T09:03:03Z</time>
      </trkpt>
      <trkpt lat="45.77825" lon="5.31374">
        <ele>347.6</ele>
        <time>2023-05-28T09:03:04Z</time>
      </trkpt>
      <trkpt lat="45.77812" lon="5.3137">
        <ele>347.2</ele>
        <time>2023-05-28T09:03:05Z</time>
      </trkpt>
      <trkpt lat="45.77799" lon="5.31367">
        <ele>346.2</ele>
        <time>2023-05-28T09:03:06Z</time>
      </trkpt>
      <trkpt lat="45.77787" lon="5.31364">
        <ele>345.2</ele>
        <time>2023-05-28T09:03:07Z</time>
      </trkpt>
      <trkpt lat="45.77777" lon="5.31364">
        <ele>344.8</ele>
        <time>2023-05-28T09:03:08Z</time>
      </trkpt>
      <trkpt lat="45.77763" lon="5.31365">
        <ele>344.2</ele>
        <time>2023-05-28T09:03:09Z</time>
      </trkpt>
      <trkpt lat="45.7775" lon="5.31368">
        <ele>343.8</ele>
        <time>2023-05-28T09:03:10Z</time>
      </trkpt>
      <trkpt lat="45.77738" lon="5.31372">
        <ele>343.4</ele>
        <time>2023-05-28T09:03:11Z</time>
      </trkpt>
      <trkpt lat="45.77726" lon="5.31377">
        <ele>341.8</ele>
        <time>2023-05-28T09:03:12Z</time>
      </trkpt>
      <trkpt lat="45.77716" lon="5.31381">
        <ele>340.2</ele>
        <time>2023-05-28T09:03:13Z</time>
      </trkpt>
      <trkpt lat="45.77704" lon="5.31385">
        <ele>339</ele>
        <time>2023-05-28T09:03:14Z</time>
      </trkpt>
      <trkpt lat="45.77692" lon="5.31389">
        <ele>338.4</ele>
        <time>2023-05-28T09:03:15Z</time>
      </trkpt>
      <trkpt lat="45.77676" lon="5.31392">
        <ele>337</ele>
        <time>2023-05-28T09:03:16Z</time>
      </trkpt>
      <trkpt lat="45.77663" lon="5.31394">
        <ele>336.6</ele>
        <time>2023-05-28T09:03:17Z</time>
      </trkpt>
      <trkpt lat="45.77649" lon="5.31394">
        <ele>335.8</ele>
        <time>2023-05-28T09:03:18Z</time>
      </trkpt>
      <trkpt lat="45.77636" lon="5.31394">
        <ele>335.4</ele>
        <time>2023-05-28T09:03:19Z</time>
      </trkpt>
      <trkpt lat="45.77622" lon="5.31393">
        <ele>333.8</ele>
        <time>2023-05-28T09:03:20Z</time>
      </trkpt>
      <trkpt lat="45.77609" lon="5.31392">
        <ele>333.2</ele>
        <time>2023-05-28T09:03:21Z</time>
      </trkpt>
      <trkpt lat="45.77595" lon="5.31391">
        <ele>331.8</ele>
        <time>2023-05-28T09:03:22Z</time>
      </trkpt>
      <trkpt lat="45.77582" lon="5.3139">
        <ele>331</ele>
        <time>2023-05-28T09:03:23Z</time>
      </trkpt>
      <trkpt lat="45.77568" lon="5.31389">
        <ele>329.6</ele>
        <time>2023-05-28T09:03:24Z</time>
      </trkpt>
      <trkpt lat="45.77554" lon="5.31388">
        <ele>328.2</ele>
        <time>2023-05-28T09:03:25Z</time>
      </trkpt>
      <trkpt lat="45.77541" lon="5.31387">
        <ele>327</ele>
        <time>2023-05-28T09:03:26Z</time>
      </trkpt>
      <trkpt lat="45.77529" lon="5.31385">
        <ele>324.6</ele>
        <time>2023-05-28T09:03:27Z</time>
      </trkpt>
      <trkpt lat="45.77518" lon="5.31383">
        <ele>324</ele>
        <time>2023-05-28T09:03:28Z</time>
      </trkpt>
      <trkpt lat="45.77506" lon="5.31383">
        <ele>322.6</ele>
        <time>2023-05-28T09:03:29Z</time>
      </trkpt>
      <trkpt lat="45.77494" lon="5.31384">
        <ele>321.4</ele>
        <time>2023-05-28T09:03:30Z</time>
      </trkpt>
      <trkpt lat="45.77482" lon="5.31387">
        <ele>320.8</ele>
        <time>2023-05-28T09:03:31Z</time>
      </trkpt>
      <trkpt lat="45.77469" lon="5.3139">
        <ele>318.6</ele>
        <time>2023-05-28T09:03:32Z</time>
      </trkpt>
      <trkpt lat="45.77456" lon="5.31393">
        <ele>317.6</ele>
        <time>2023-05-28T09:03:33Z</time>
      </trkpt>
      <trkpt lat="45.77443" lon="5.31396">
        <ele>316.4</ele>
        <time>2023-05-28T09:03:34Z</time>
      </trkpt>
      <trkpt lat="45.7743" lon="5.31397">
        <ele>315.8</ele>
        <time>2023-05-28T09:03:35Z</time>
      </trkpt>
      <trkpt lat="45.77418" lon="5.31397">
        <ele>314</ele>
        <time>2023-05-28T09:03:36Z</time>
      </trkpt>
      <trkpt lat="45.77406" lon="5.31396">
        <ele>312</ele>
        <time>2023-05-28T09:03:37Z</time>
      </trkpt>
      <trkpt lat="45.77395" lon="5.31397">
        <ele>310.6</ele>
        <time>2023-05-28T09:03:38Z</time>
      </trkpt>
      <trkpt lat="45.77384" lon="5.314">
        <ele>308.6</ele>
        <time>2023-05-28T09:03:39Z</time>
      </trkpt>
      <trkpt lat="45.77374" lon="5.31405">
        <ele>307.8</ele>
        <time>2023-05-28T09:03:40Z</time>
      </trkpt>
      <trkpt lat="45.77366" lon="5.31412">
        <ele>305.8</ele>
        <time>2023-05-28T09:03:41Z</time>
      </trkpt>
      <trkpt lat="45.7736" lon="5.31419">
        <ele>305.2</ele>
        <time>2023-05-28T09:03:42Z</time>
      </trkpt>
      <trkpt lat="45.77355" lon="5.31426">
        <ele>303.4</ele>
        <time>2023-05-28T09:03:43Z</time>
      </trkpt>
      <trkpt lat="45.7735" lon="5.31433">
        <ele>302</ele>
        <time>2023-05-28T09:03:44Z</time>
      </trkpt>
      <trkpt lat="45.77347" lon="5.31439">
        <ele>300.8</ele>
        <time>2023-05-28T09:03:45Z</time>
      </trkpt>
      <trkpt lat="45.77344" lon="5.31445">
        <ele>299.4</ele>
        <time>2023-05-28T09:03:46Z</time>
      </trkpt>
      <trkpt lat="45.77341" lon="5.3145">
        <ele>299</ele>
        <time>2023-05-28T09:03:47Z</time>
      </trkpt>
      <trkpt lat="45.77339" lon="5.31454">
        <ele>298</ele>
        <time>2023-05-28T09:03:48Z</time>
      </trkpt>
      <trkpt lat="45.77337" lon="5.31456">
        <ele>297.4</ele>
        <time>2023-05-28T09:03:49Z</time>
      </trkpt>
      <trkpt lat="45.77335" lon="5.31457">
        <ele>296.2</ele>
        <time>2023-05-28T09:03:50Z</time>
      </trkpt>
      <trkpt lat="45.77333" lon="5.31457">
        <ele>295.8</ele>
        <time>2023-05-28T09:03:51Z</time>
      </trkpt>
      <trkpt lat="45.7733" lon="5.31459">
        <ele>294.8</ele>
        <time>2023-05-28T09:03:52Z</time>
      </trkpt>
      <trkpt lat="45.77326" lon="5.31461">
        <ele>293.6</ele>
        <time>2023-05-28T09:03:53Z</time>
      </trkpt>
      <trkpt lat="45.77322" lon="5.31464">
        <ele>292.8</ele>
        <time>2023-05-28T09:03:54Z</time>
      </trkpt>
      <trkpt lat="45.77318" lon="5.31469">
        <ele>291.8</ele>
        <time>2023-05-28T09:03:55Z</time>
      </trkpt>
      <trkpt lat="45.77314" lon="5.31473">
        <ele>291.2</ele>
        <time>2023-05-28T09:03:56Z</time>
      </trkpt>
      <trkpt lat="45.7731" lon="5.31478">
        <ele>290.2</ele>
        <time>2023-05-28T09:03:57Z</time>
      </trkpt>
      <trkpt lat="45.77305" lon="5.31483">
        <ele>289.6</ele>
        <time>2023-05-28T09:03:58Z</time>
      </trkpt>
      <trkpt lat="45.773" lon="5.31488">
        <ele>288.6</ele>
        <time>2023-05-28T09:03:59Z</time>
      </trkpt>
      <trkpt lat="45.77295" lon="5.31492">
        <ele>287.8</ele>
        <time>2023-05-28T09:04:00Z</time>
      </trkpt>
      <trkpt lat="45.7729" lon="5.31497">
        <ele>287.4</ele>
        <time>2023-05-28T09:04:01Z</time>
      </trkpt>
      <trkpt lat="45.77285" lon="5.31503">
        <ele>286.8</ele>
        <time>2023-05-28T09:04:02Z</time>
      </trkpt>
      <trkpt lat="45.7728" lon="5.31508">
        <ele>286.4</ele>
        <time>2023-05-28T09:04:03Z</time>
      </trkpt>
      <trkpt lat="45.77274" lon="5.31512">
        <ele>286</ele>
        <time>2023-05-28T09:04:04Z</time>
      </trkpt>
      <trkpt lat="45.77269" lon="5.31515">
        <ele>285.8</ele>
        <time>2023-05-28T09:04:05Z</time>
      </trkpt>
      <trkpt lat="45.77264" lon="5.31517">
        <ele>285.6</ele>
        <time>2023-05-28T09:04:06Z</time>
      </trkpt>
      <trkpt lat="45.77259" lon="5.31518">
        <ele>285.2</ele>
        <time>2023-05-28T09:04:07Z</time>
      </trkpt>
      <trkpt lat="45.77254" lon="5.31516">
        <ele>285</ele>
        <time>2023-05-28T09:04:08Z</time>
      </trkpt>
      <trkpt lat="45.7725" lon="5.31511">
        <ele>284.6</ele>
        <time>2023-05-28T09:04:09Z</time>
      </trkpt>
      <trkpt lat="45.77247" lon="5.31505">
        <ele>284.6</ele>
        <time>2023-05-28T09:04:10Z</time>
      </trkpt>
      <trkpt lat="45.77245" lon="5.31498">
        <ele>284.4</ele>
        <time>2023-05-28T09:04:11Z</time>
      </trkpt>
      <trkpt lat="45.77243" lon="5.31491">
        <ele>284.4</ele>
        <time>2023-05-28T09:04:12Z</time>
      </trkpt>
      <trkpt lat="45.7724" lon="5.31483">
        <ele>284.4</ele>
        <time>2023-05-28T09:04:13Z</time>
      </trkpt>
      <trkpt lat="45.77239" lon="5.31476">
        <ele>284.2</ele>
        <time>2023-05-28T09:04:14Z</time>
      </trkpt>
      <trkpt lat="45.77237" lon="5.31468">
        <ele>284</ele>
        <time>2023-05-28T09:04:15Z</time>
      </trkpt>
      <trkpt lat="45.77235" lon="5.31461">
        <ele>283.8</ele>
        <time>2023-05-28T09:04:16Z</time>
      </trkpt>
      <trkpt lat="45.77233" lon="5.31454">
        <ele>283.6</ele>
        <time>2023-05-28T09:04:17Z</time>
      </trkpt>
      <trkpt lat="45.77231" lon="5.31447">
        <ele>283.4</ele>
        <time>2023-05-28T09:04:18Z</time>
      </trkpt>
      <trkpt lat="45.7723" lon="5.3144">
        <ele>283.2</ele>
        <time>2023-05-28T09:04:19Z</time>
      </trkpt>
      <trkpt lat="45.77228" lon="5.31434">
        <ele>283.2</ele>
        <time>2023-05-28T09:04:20Z</time>
      </trkpt>
      <trkpt lat="45.77226" lon="5.31428">
        <ele>283.2</ele>
        <time>2023-05-28T09:04:21Z</time>
      </trkpt>
      <trkpt lat="45.77224" lon="5.31422">
        <ele>283.2</ele>
        <time>2023-05-28T09:04:22Z</time>
      </trkpt>
      <trkpt lat="45.77221" lon="5.31417">
        <ele>283.2</ele>
        <time>2023-05-28T09:04:23Z</time>
      </trkpt>
      <trkpt lat="45.77219" lon="5.31412">
        <ele>283.2</ele>
        <time>2023-05-28T09:04:24Z</time>
      </trkpt>
      <trkpt lat="45.77216" lon="5.31408">
        <ele>283.2</ele>
        <time>2023-05-28T09:04:25Z</time>
      </trkpt>
      <trkpt lat="45.77213" lon="5.31404">
        <ele>283.2</ele>
        <time>2023-05-28T09:04:26Z</time>
      </trkpt>
      <trkpt lat="45.7721" lon="5.31401">
        <ele>283.2</ele>
        <time>2023-05-28T09:04:27Z</time>
      </trkpt>
      <trkpt lat="45.77207" lon="5.31397">
        <ele>283.2</ele>
        <time>2023-05-28T09:04:28Z</time>
      </trkpt>
      <trkpt lat="45.77205" lon="5.31395">
        <ele>283</ele>
        <time>2023-05-28T09:04:29Z</time>
      </trkpt>
      <trkpt lat="45.77202" lon="5.31392">
        <ele>282.8</ele>
        <time>2023-05-28T09:04:30Z</time>
      </trkpt>
      <trkpt lat="45.772" lon="5.3139">
        <ele>283</ele>
        <time>2023-05-28T09:04:31Z</time>
      </trkpt>
      <trkpt lat="45.77198" lon="5.31388">
        <ele>282.8</ele>
        <time>2023-05-28T09:04:32Z</time>
      </trkpt>
      <trkpt lat="45.77195" lon="5.31387">
        <ele>282.6</ele>
        <time>2023-05-28T09:04:33Z</time>
      </trkpt>
      <trkpt lat="45.77192" lon="5.31386">
        <ele>282.4</ele>
        <time>2023-05-28T09:04:34Z</time>
      </trkpt>
      <trkpt lat="45.7719" lon="5.31385">
        <ele>282.4</ele>
        <time>2023-05-28T09:04:35Z</time>
      </trkpt>
      <trkpt lat="45.77188" lon="5.31384">
        <ele>282.4</ele>
        <time>2023-05-28T09:04:36Z</time>
      </trkpt>
      <trkpt lat="45.77186" lon="5.31385">
        <ele>282.4</ele>
        <time>2023-05-28T09:04:37Z</time>
      </trkpt>
      <trkpt lat="45.77183" lon="5.31386">
        <ele>282.4</ele>
        <time>2023-05-28T09:04:38Z</time>
      </trkpt>
      <trkpt lat="45.77181" lon="5.31387">
        <ele>282.4</ele>
        <time>2023-05-28T09:04:39Z</time>
      </trkpt>
      <trkpt lat="45.77178" lon="5.31389">
        <ele>282.4</ele>
        <time>2023-05-28T09:04:40Z</time>
      </trkpt>
      <trkpt lat="45.77176" lon="5.3139">
        <ele>282.4</ele>
        <time>2023-05-28T09:04:41Z</time>
      </trkpt>
      <trkpt lat="45.77173" lon="5.31392">
        <ele>282.4</ele>
        <time>2023-05-28T09:04:42Z</time>
      </trkpt>
      <trkpt lat="45.77171" lon="5.31395">
        <ele>282.2</ele>
        <time>2023-05-28T09:04:43Z</time>
      </trkpt>
      <trkpt lat="45.77169" lon="5.31397">
        <ele>282.4</ele>
        <time>2023-05-28T09:04:44Z</time>
      </trkpt>
      <trkpt lat="45.77166" lon="5.31398">
        <ele>282.4</ele>
        <time>2023-05-28T09:04:45Z</time>
      </trkpt>
      <trkpt lat="45.77164" lon="5.31399">
        <ele>282.6</ele>
        <time>2023-05-28T09:04:46Z</time>
      </trkpt>
      <trkpt lat="45.77161" lon="5.31401">
        <ele>282.6</ele>
        <time>2023-05-28T09:04:47Z</time>
      </trkpt>
      <trkpt lat="45.77158" lon="5.31403">
        <ele>282.6</ele>
        <time>2023-05-28T09:04:48Z</time>
      </trkpt>
      <trkpt lat="45.77155" lon="5.31405">
        <ele>282.6</ele>
        <time>2023-05-28T09:04:49Z</time>
      </trkpt>
      <trkpt lat="45.77153" lon="5.31407">
        <ele>282.6</ele>
        <time>2023-05-28T09:04:50Z</time>
      </trkpt>
      <trkpt lat="45.77151" lon="5.31409">
        <ele>282.6</ele>
        <time>2023-05-28T09:04:51Z</time>
      </trkpt>
      <trkpt lat="45.77149" lon="5.31412">
        <ele>283</ele>
        <time>2023-05-28T09:04:52Z</time>
      </trkpt>
      <trkpt lat="45.77147" lon="5.31414">
        <ele>283.2</ele>
        <time>2023-05-28T09:04:53Z</time>
      </trkpt>
      <trkpt lat="45.77145" lon="5.31415">
        <ele>283.2</ele>
        <time>2023-05-28T09:04:54Z</time>
      </trkpt>
      <trkpt lat="45.77143" lon="5.31416">
        <ele>283.4</ele>
        <time>2023-05-28T09:04:55Z</time>
      </trkpt>
      <trkpt lat="45.77141" lon="5.31418">
        <ele>283.6</ele>
        <time>2023-05-28T09:04:56Z</time>
      </trkpt>
      <trkpt lat="45.77139" lon="5.31419">
        <ele>284</ele>
        <time>2023-05-28T09:04:57Z</time>
      </trkpt>
      <trkpt lat="45.77136" lon="5.31421">
        <ele>284</ele>
        <time>2023-05-28T09:04:58Z</time>
      </trkpt>
      <trkpt lat="45.77134" lon="5.31422">
        <ele>284.4</ele>
        <time>2023-05-28T09:04:59Z</time>
      </trkpt>
      <trkpt lat="45.77132" lon="5.31424">
        <ele>284.6</ele>
        <time>2023-05-28T09:05:00Z</time>
      </trkpt>
      <trkpt lat="45.7713" lon="5.31425">
        <ele>284.6</ele>
        <time>2023-05-28T09:05:01Z</time>
      </trkpt>
      <trkpt lat="45.77129" lon="5.31425">
        <ele>285.2</ele>
        <time>2023-05-28T09:05:02Z</time>
      </trkpt>
      <trkpt lat="45.77127" lon="5.31427">
        <ele>285.4</ele>
        <time>2023-05-28T09:05:03Z</time>
      </trkpt>
      <trkpt lat="45.77125" lon="5.31429">
        <ele>286</ele>
        <time>2023-05-28T09:05:04Z</time>
      </trkpt>
      <trkpt lat="45.77122" lon="5.31432">
        <ele>285.8</ele>
        <time>2023-05-28T09:05:05Z</time>
      </trkpt>
      <trkpt lat="45.7712" lon="5.31434">
        <ele>286.4</ele>
        <time>2023-05-28T09:05:06Z</time>
      </trkpt>
      <trkpt lat="45.77117" lon="5.31435">
        <ele>286.8</ele>
        <time>2023-05-28T09:05:07Z</time>
      </trkpt>
      <trkpt lat="45.77116" lon="5.31436">
        <ele>287</ele>
        <time>2023-05-28T09:05:08Z</time>
      </trkpt>
      <trkpt lat="45.77114" lon="5.31437">
        <ele>287.8</ele>
        <time>2023-05-28T09:05:09Z</time>
      </trkpt>
      <trkpt lat="45.77111" lon="5.31439">
        <ele>288</ele>
        <time>2023-05-28T09:05:10Z</time>
      </trkpt>
      <trkpt lat="45.77109" lon="5.3144">
        <ele>288.4</ele>
        <time>2023-05-28T09:05:11Z</time>
      </trkpt>
      <trkpt lat="45.77106" lon="5.31443">
        <ele>288.6</ele>
        <time>2023-05-28T09:05:12Z</time>
      </trkpt>
      <trkpt lat="45.77104" lon="5.31445">
        <ele>289.2</ele>
        <time>2023-05-28T09:05:13Z</time>
      </trkpt>
      <trkpt lat="45.77102" lon="5.31446">
        <ele>289.4</ele>
        <time>2023-05-28T09:05:14Z</time>
      </trkpt>
      <trkpt lat="45.771" lon="5.31447">
        <ele>289.8</ele>
        <time>2023-05-28T09:05:15Z</time>
      </trkpt>
      <trkpt lat="45.77099" lon="5.31448">
        <ele>290.2</ele>
        <time>2023-05-28T09:05:16Z</time>
      </trkpt>
      <trkpt lat="45.77096" lon="5.31451">
        <ele>290.4</ele>
        <time>2023-05-28T09:05:17Z</time>
      </trkpt>
      <trkpt lat="45.77093" lon="5.31452">
        <ele>291.2</ele>
        <time>2023-05-28T09:05:18Z</time>
      </trkpt>
      <trkpt lat="45.7709" lon="5.31453">
        <ele>291.4</ele>
        <time>2023-05-28T09:05:19Z</time>
      </trkpt>
      <trkpt lat="45.77088" lon="5.31454">
        <ele>292</ele>
        <time>2023-05-28T09:05:20Z</time>
      </trkpt>
      <trkpt lat="45.77086" lon="5.31455">
        <ele>292.2</ele>
        <time>2023-05-28T09:05:21Z</time>
      </trkpt>
      <trkpt lat="45.77084" lon="5.31456">
        <ele>292.6</ele>
        <time>2023-05-28T09:05:22Z</time>
      </trkpt>
      <trkpt lat="45.77081" lon="5.31458">
        <ele>293</ele>
        <time>2023-05-28T09:05:23Z</time>
      </trkpt>
      <trkpt lat="45.77079" lon="5.3146">
        <ele>293</ele>
        <time>2023-05-28T09:05:24Z</time>
      </trkpt>
      <trkpt lat="45.77077" lon="5.31462">
        <ele>293.2</ele>
        <time>2023-05-28T09:05:25Z</time>
      </trkpt>
      <trkpt lat="45.77075" lon="5.31463">
        <ele>293.4</ele>
        <time>2023-05-28T09:05:26Z</time>
      </trkpt>
      <trkpt lat="45.77073" lon="5.31464">
        <ele>293.6</ele>
        <time>2023-05-28T09:05:27Z</time>
      </trkpt>
      <trkpt lat="45.7707" lon="5.31466">
        <ele>294</ele>
        <time>2023-05-28T09:05:28Z</time>
      </trkpt>
      <trkpt lat="45.77068" lon="5.31467">
        <ele>294.2</ele>
        <time>2023-05-28T09:05:29Z</time>
      </trkpt>
      <trkpt lat="45.77063" lon="5.31471">
        <ele>294.8</ele>
        <time>2023-05-28T09:05:31Z</time>
      </trkpt>
      <trkpt lat="45.7706" lon="5.31473">
        <ele>295.4</ele>
        <time>2023-05-28T09:05:32Z</time>
      </trkpt>
      <trkpt lat="45.77059" lon="5.31475">
        <ele>295.6</ele>
        <time>2023-05-28T09:05:33Z</time>
      </trkpt>
      <trkpt lat="45.77057" lon="5.31475">
        <ele>296</ele>
        <time>2023-05-28T09:05:34Z</time>
      </trkpt>
      <trkpt lat="45.77054" lon="5.31476">
        <ele>296.4</ele>
        <time>2023-05-28T09:05:35Z</time>
      </trkpt>
      <trkpt lat="45.77052" lon="5.31478">
        <ele>296.6</ele>
        <time>2023-05-28T09:05:36Z</time>
      </trkpt>
      <trkpt lat="45.7705" lon="5.31478">
        <ele>296.8</ele>
        <time>2023-05-28T09:05:37Z</time>
      </trkpt>
      <trkpt lat="45.77047" lon="5.31479">
        <ele>297</ele>
        <time>2023-05-28T09:05:38Z</time>
      </trkpt>
      <trkpt lat="45.77044" lon="5.3148">
        <ele>297.2</ele>
        <time>2023-05-28T09:05:39Z</time>
      </trkpt>
      <trkpt lat="45.77043" lon="5.31481">
        <ele>297.4</ele>
        <time>2023-05-28T09:05:40Z</time>
      </trkpt>
      <trkpt lat="45.77041" lon="5.31481">
        <ele>297.4</ele>
        <time>2023-05-28T09:05:41Z</time>
      </trkpt>
      <trkpt lat="45.77039" lon="5.31482">
        <ele>297.8</ele>
        <time>2023-05-28T09:05:42Z</time>
      </trkpt>
      <trkpt lat="45.77037" lon="5.31482">
        <ele>298</ele>
        <time>2023-05-28T09:05:43Z</time>
      </trkpt>
      <trkpt lat="45.77034" lon="5.31483">
        <ele>298.4</ele>
        <time>2023-05-28T09:05:44Z</time>
      </trkpt>
      <trkpt lat="45.77031" lon="5.31483">
        <ele>298.8</ele>
        <time>2023-05-28T09:05:45Z</time>
      </trkpt>
      <trkpt lat="45.77027" lon="5.31483">
        <ele>299</ele>
        <time>2023-05-28T09:05:46Z</time>
      </trkpt>
      <trkpt lat="45.77024" lon="5.31482">
        <ele>299.2</ele>
        <time>2023-05-28T09:05:47Z</time>
      </trkpt>
      <trkpt lat="45.7702" lon="5.3148">
        <ele>299.8</ele>
        <time>2023-05-28T09:05:48Z</time>
      </trkpt>
      <trkpt lat="45.77017" lon="5.31479">
        <ele>300</ele>
        <time>2023-05-28T09:05:49Z</time>
      </trkpt>
      <trkpt lat="45.77014" lon="5.31477">
        <ele>300.2</ele>
        <time>2023-05-28T09:05:50Z</time>
      </trkpt>
      <trkpt lat="45.77011" lon="5.31476">
        <ele>300.4</ele>
        <time>2023-05-28T09:05:51Z</time>
      </trkpt>
      <trkpt lat="45.77009" lon="5.31474">
        <ele>300.6</ele>
        <time>2023-05-28T09:05:52Z</time>
      </trkpt>
      <trkpt lat="45.77007" lon="5.31472">
        <ele>300.6</ele>
        <time>2023-05-28T09:05:53Z</time>
      </trkpt>
      <trkpt lat="45.77004" lon="5.31471">
        <ele>300.6</ele>
        <time>2023-05-28T09:05:54Z</time>
      </trkpt>
      <trkpt lat="45.77002" lon="5.31468">
        <ele>300.6</ele>
        <time>2023-05-28T09:05:55Z</time>
      </trkpt>
      <trkpt lat="45.77" lon="5.31466">
        <ele>300.6</ele>
        <time>2023-05-28T09:05:56Z</time>
      </trkpt>
      <trkpt lat="45.76997" lon="5.31464">
        <ele>300.6</ele>
        <time>2023-05-28T09:05:57Z</time>
      </trkpt>
      <trkpt lat="45.76995" lon="5.31463">
        <ele>300.6</ele>
        <time>2023-05-28T09:05:58Z</time>
      </trkpt>
      <trkpt lat="45.76993" lon="5.31461">
        <ele>300.6</ele>
        <time>2023-05-28T09:05:59Z</time>
      </trkpt>
      <trkpt lat="45.76992" lon="5.31459">
        <ele>300.6</ele>
        <time>2023-05-28T09:06:00Z</time>
      </trkpt>
      <trkpt lat="45.7699" lon="5.31458">
        <ele>300.4</ele>
        <time>2023-05-28T09:06:01Z</time>
      </trkpt>
      <trkpt lat="45.76989" lon="5.31455">
        <ele>300.4</ele>
        <time>2023-05-28T09:06:02Z</time>
      </trkpt>
      <trkpt lat="45.76987" lon="5.31454">
        <ele>300.4</ele>
        <time>2023-05-28T09:06:03Z</time>
      </trkpt>
      <trkpt lat="45.76985" lon="5.31452">
        <ele>300.6</ele>
        <time>2023-05-28T09:06:04Z</time>
      </trkpt>
      <trkpt lat="45.76983" lon="5.3145">
        <ele>300.6</ele>
        <time>2023-05-28T09:06:05Z</time>
      </trkpt>
      <trkpt lat="45.76981" lon="5.31449">
        <ele>300.6</ele>
        <time>2023-05-28T09:06:06Z</time>
      </trkpt>
      <trkpt lat="45.76979" lon="5.31447">
        <ele>300.6</ele>
        <time>2023-05-28T09:06:07Z</time>
      </trkpt>
      <trkpt lat="45.76977" lon="5.31446">
        <ele>300.8</ele>
        <time>2023-05-28T09:06:08Z</time>
      </trkpt>
      <trkpt lat="45.76975" lon="5.31445">
        <ele>301</ele>
        <time>2023-05-28T09:06:09Z</time>
      </trkpt>
      <trkpt lat="45.76972" lon="5.31444">
        <ele>301</ele>
        <time>2023-05-28T09:06:10Z</time>
      </trkpt>
      <trkpt lat="45.7697" lon="5.31444">
        <ele>301.2</ele>
        <time>2023-05-28T09:06:11Z</time>
      </trkpt>
      <trkpt lat="45.76967" lon="5.31443">
        <ele>301.4</ele>
        <time>2023-05-28T09:06:12Z</time>
      </trkpt>
      <trkpt lat="45.76965" lon="5.31443">
        <ele>301.6</ele>
        <time>2023-05-28T09:06:13Z</time>
      </trkpt>
      <trkpt lat="45.76963" lon="5.31444">
        <ele>301.8</ele>
        <time>2023-05-28T09:06:14Z</time>
      </trkpt>
      <trkpt lat="45.76961" lon="5.31444">
        <ele>302</ele>
        <time>2023-05-28T09:06:15Z</time>
      </trkpt>
      <trkpt lat="45.76959" lon="5.31444">
        <ele>302.4</ele>
        <time>2023-05-28T09:06:16Z</time>
      </trkpt>
      <trkpt lat="45.76957" lon="5.31445">
        <ele>302.6</ele>
        <time>2023-05-28T09:06:17Z</time>
      </trkpt>
      <trkpt lat="45.76955" lon="5.31446">
        <ele>302.8</ele>
        <time>2023-05-28T09:06:18Z</time>
      </trkpt>
      <trkpt lat="45.76952" lon="5.31447">
        <ele>303.2</ele>
        <time>2023-05-28T09:06:19Z</time>
      </trkpt>
      <trkpt lat="45.7695" lon="5.31447">
        <ele>303.6</ele>
        <time>2023-05-28T09:06:20Z</time>
      </trkpt>
      <trkpt lat="45.76947" lon="5.31448">
        <ele>303.8</ele>
        <time>2023-05-28T09:06:21Z</time>
      </trkpt>
      <trkpt lat="45.76945" lon="5.3145">
        <ele>304.4</ele>
        <time>2023-05-28T09:06:22Z</time>
      </trkpt>
      <trkpt lat="45.76942" lon="5.31451">
        <ele>304.8</ele>
        <time>2023-05-28T09:06:23Z</time>
      </trkpt>
      <trkpt lat="45.76941" lon="5.31452">
        <ele>305.2</ele>
        <time>2023-05-28T09:06:24Z</time>
      </trkpt>
      <trkpt lat="45.76939" lon="5.31453">
        <ele>305.6</ele>
        <time>2023-05-28T09:06:25Z</time>
      </trkpt>
      <trkpt lat="45.76936" lon="5.31455">
        <ele>305.8</ele>
        <time>2023-05-28T09:06:26Z</time>
      </trkpt>
      <trkpt lat="45.76933" lon="5.31456">
        <ele>306</ele>
        <time>2023-05-28T09:06:27Z</time>
      </trkpt>
      <trkpt lat="45.76929" lon="5.31457">
        <ele>306.2</ele>
        <time>2023-05-28T09:06:28Z</time>
      </trkpt>
      <trkpt lat="45.76926" lon="5.31458">
        <ele>306.4</ele>
        <time>2023-05-28T09:06:29Z</time>
      </trkpt>
      <trkpt lat="45.76923" lon="5.31459">
        <ele>306.6</ele>
        <time>2023-05-28T09:06:30Z</time>
      </trkpt>
      <trkpt lat="45.76919" lon="5.31461">
        <ele>307</ele>
        <time>2023-05-28T09:06:31Z</time>
      </trkpt>
      <trkpt lat="45.76917" lon="5.31462">
        <ele>307.2</ele>
        <time>2023-05-28T09:06:32Z</time>
      </trkpt>
      <trkpt lat="45.76915" lon="5.31462">
        <ele>307.4</ele>
        <time>2023-05-28T09:06:33Z</time>
      </trkpt>
      <trkpt lat="45.76912" lon="5.31463">
        <ele>307.6</ele>
        <time>2023-05-28T09:06:34Z</time>
      </trkpt>
      <trkpt lat="45.7691" lon="5.31465">
        <ele>308</ele>
        <time>2023-05-28T09:06:35Z</time>
      </trkpt>
      <trkpt lat="45.76906" lon="5.31467">
        <ele>308.4</ele>
        <time>2023-05-28T09:06:36Z</time>
      </trkpt>
      <trkpt lat="45.76903" lon="5.31468">
        <ele>308.8</ele>
        <time>2023-05-28T09:06:37Z</time>
      </trkpt>
      <trkpt lat="45.769" lon="5.31471">
        <ele>309</ele>
        <time>2023-05-28T09:06:38Z</time>
      </trkpt>
      <trkpt lat="45.76896" lon="5.31471">
        <ele>309.8</ele>
        <time>2023-05-28T09:06:39Z</time>
      </trkpt>
      <trkpt lat="45.76893" lon="5.31471">
        <ele>310</ele>
        <time>2023-05-28T09:06:40Z</time>
      </trkpt>
      <trkpt lat="45.7689" lon="5.31471">
        <ele>310.4</ele>
        <time>2023-05-28T09:06:41Z</time>
      </trkpt>
      <trkpt lat="45.76888" lon="5.3147">
        <ele>310.6</ele>
        <time>2023-05-28T09:06:42Z</time>
      </trkpt>
      <trkpt lat="45.76886" lon="5.3147">
        <ele>310.8</ele>
        <time>2023-05-28T09:06:43Z</time>
      </trkpt>
      <trkpt lat="45.76883" lon="5.31473">
        <ele>311.2</ele>
        <time>2023-05-28T09:06:44Z</time>
      </trkpt>
      <trkpt lat="45.7688" lon="5.31475">
        <ele>311.6</ele>
        <time>2023-05-28T09:06:45Z</time>
      </trkpt>
      <trkpt lat="45.76877" lon="5.31476">
        <ele>311.8</ele>
        <time>2023-05-28T09:06:46Z</time>
      </trkpt>
      <trkpt lat="45.76875" lon="5.31476">
        <ele>312</ele>
        <time>2023-05-28T09:06:47Z</time>
      </trkpt>
      <trkpt lat="45.76873" lon="5.31474">
        <ele>312.2</ele>
        <time>2023-05-28T09:06:48Z</time>
      </trkpt>
      <trkpt lat="45.76871" lon="5.31474">
        <ele>312.4</ele>
        <time>2023-05-28T09:06:49Z</time>
      </trkpt>
      <trkpt lat="45.76868" lon="5.31475">
        <ele>312.8</ele>
        <time>2023-05-28T09:06:50Z</time>
      </trkpt>
      <trkpt lat="45.76867" lon="5.31476">
        <ele>313.2</ele>
        <time>2023-05-28T09:06:51Z</time>
      </trkpt>
      <trkpt lat="45.76865" lon="5.31477">
        <ele>313.6</ele>
        <time>2023-05-28T09:06:52Z</time>
      </trkpt>
      <trkpt lat="45.76863" lon="5.31478">
        <ele>313.8</ele>
        <time>2023-05-28T09:06:53Z</time>
      </trkpt>
      <trkpt lat="45.76861" lon="5.31479">
        <ele>314.2</ele>
        <time>2023-05-28T09:06:54Z</time>
      </trkpt>
      <trkpt lat="45.76859" lon="5.3148">
        <ele>314.4</ele>
        <time>2023-05-28T09:06:55Z</time>
      </trkpt>
      <trkpt lat="45.76857" lon="5.3148">
        <ele>314.6</ele>
        <time>2023-05-28T09:06:56Z</time>
      </trkpt>
      <trkpt lat="45.76856" lon="5.31481">
        <ele>315</ele>
        <time>2023-05-28T09:06:57Z</time>
      </trkpt>
      <trkpt lat="45.76854" lon="5.31481">
        <ele>315.2</ele>
        <time>2023-05-28T09:06:58Z</time>
      </trkpt>
      <trkpt lat="45.76852" lon="5.31482">
        <ele>315.4</ele>
        <time>2023-05-28T09:06:59Z</time>
      </trkpt>
      <trkpt lat="45.76849" lon="5.31484">
        <ele>315.4</ele>
        <time>2023-05-28T09:07:00Z</time>
      </trkpt>
      <trkpt lat="45.76847" lon="5.31485">
        <ele>315.8</ele>
        <time>2023-05-28T09:07:01Z</time>
      </trkpt>
      <trkpt lat="45.76845" lon="5.31487">
        <ele>316</ele>
        <time>2023-05-28T09:07:02Z</time>
      </trkpt>
      <trkpt lat="45.76842" lon="5.31488">
        <ele>316.4</ele>
        <time>2023-05-28T09:07:03Z</time>
      </trkpt>
      <trkpt lat="45.76837" lon="5.31491">
        <ele>317</ele>
        <time>2023-05-28T09:07:04Z</time>
      </trkpt>
      <trkpt lat="45.76834" lon="5.31493">
        <ele>317.2</ele>
        <time>2023-05-28T09:07:05Z</time>
      </trkpt>
      <trkpt lat="45.76831" lon="5.31494">
        <ele>317.6</ele>
        <time>2023-05-28T09:07:06Z</time>
      </trkpt>
      <trkpt lat="45.76829" lon="5.31495">
        <ele>317.8</ele>
        <time>2023-05-28T09:07:07Z</time>
      </trkpt>
      <trkpt lat="45.76826" lon="5.31496">
        <ele>318</ele>
        <time>2023-05-28T09:07:08Z</time>
      </trkpt>
      <trkpt lat="45.76824" lon="5.31497">
        <ele>318</ele>
        <time>2023-05-28T09:07:09Z</time>
      </trkpt>
      <trkpt lat="45.76822" lon="5.31498">
        <ele>318.2</ele>
        <time>2023-05-28T09:07:10Z</time>
      </trkpt>
      <trkpt lat="45.7682" lon="5.31498">
        <ele>318.6</ele>
        <time>2023-05-28T09:07:11Z</time>
      </trkpt>
      <trkpt lat="45.76818" lon="5.31499">
        <ele>318.6</ele>
        <time>2023-05-28T09:07:12Z</time>
      </trkpt>
      <trkpt lat="45.76815" lon="5.315">
        <ele>319</ele>
        <time>2023-05-28T09:07:13Z</time>
      </trkpt>
      <trkpt lat="45.76813" lon="5.315">
        <ele>319.2</ele>
        <time>2023-05-28T09:07:14Z</time>
      </trkpt>
      <trkpt lat="45.76811" lon="5.31501">
        <ele>319.8</ele>
        <time>2023-05-28T09:07:15Z</time>
      </trkpt>
      <trkpt lat="45.76807" lon="5.31501">
        <ele>320.2</ele>
        <time>2023-05-28T09:07:16Z</time>
      </trkpt>
      <trkpt lat="45.76802" lon="5.31502">
        <ele>320.4</ele>
        <time>2023-05-28T09:07:17Z</time>
      </trkpt>
      <trkpt lat="45.76799" lon="5.31502">
        <ele>320.8</ele>
        <time>2023-05-28T09:07:18Z</time>
      </trkpt>
      <trkpt lat="45.76795" lon="5.31504">
        <ele>320.8</ele>
        <time>2023-05-28T09:07:19Z</time>
      </trkpt>
      <trkpt lat="45.76793" lon="5.31503">
        <ele>321.2</ele>
        <time>2023-05-28T09:07:20Z</time>
      </trkpt>
      <trkpt lat="45.76792" lon="5.31501">
        <ele>321.4</ele>
        <time>2023-05-28T09:07:21Z</time>
      </trkpt>
      <trkpt lat="45.7679" lon="5.31498">
        <ele>321.6</ele>
        <time>2023-05-28T09:07:22Z</time>
      </trkpt>
      <trkpt lat="45.76789" lon="5.31496">
        <ele>321.8</ele>
        <time>2023-05-28T09:07:23Z</time>
      </trkpt>
      <trkpt lat="45.76788" lon="5.31495">
        <ele>321.8</ele>
        <time>2023-05-28T09:07:24Z</time>
      </trkpt>
      <trkpt lat="45.76789" lon="5.31493">
        <ele>322.2</ele>
        <time>2023-05-28T09:07:25Z</time>
      </trkpt>
      <trkpt lat="45.7679" lon="5.31492">
        <ele>322.2</ele>
        <time>2023-05-28T09:07:26Z</time>
      </trkpt>
      <trkpt lat="45.76792" lon="5.3149">
        <ele>322.4</ele>
        <time>2023-05-28T09:07:27Z</time>
      </trkpt>
      <trkpt lat="45.76794" lon="5.31488">
        <ele>322.6</ele>
        <time>2023-05-28T09:07:28Z</time>
      </trkpt>
      <trkpt lat="45.76797" lon="5.31486">
        <ele>322.6</ele>
        <time>2023-05-28T09:07:29Z</time>
      </trkpt>
      <trkpt lat="45.76799" lon="5.31484">
        <ele>322.8</ele>
        <time>2023-05-28T09:07:30Z</time>
      </trkpt>
      <trkpt lat="45.76801" lon="5.31482">
        <ele>323</ele>
        <time>2023-05-28T09:07:31Z</time>
      </trkpt>
      <trkpt lat="45.76803" lon="5.3148">
        <ele>323</ele>
        <time>2023-05-28T09:07:32Z</time>
      </trkpt>
      <trkpt lat="45.76805" lon="5.31477">
        <ele>323.2</ele>
        <time>2023-05-28T09:07:33Z</time>
      </trkpt>
      <trkpt lat="45.76808" lon="5.31475">
        <ele>323.8</ele>
        <time>2023-05-28T09:07:34Z</time>
      </trkpt>
      <trkpt lat="45.7681" lon="5.31472">
        <ele>324</ele>
        <time>2023-05-28T09:07:35Z</time>
      </trkpt>
      <trkpt lat="45.76812" lon="5.3147">
        <ele>324.2</ele>
        <time>2023-05-28T09:07:36Z</time>
      </trkpt>
      <trkpt lat="45.76815" lon="5.31467">
        <ele>324.4</ele>
        <time>2023-05-28T09:07:37Z</time>
      </trkpt>
      <trkpt lat="45.76817" lon="5.31465">
        <ele>324.8</ele>
        <time>2023-05-28T09:07:38Z</time>
      </trkpt>
      <trkpt lat="45.7682" lon="5.31462">
        <ele>324.8</ele>
        <time>2023-05-28T09:07:39Z</time>
      </trkpt>
      <trkpt lat="45.76822" lon="5.31459">
        <ele>325</ele>
        <time>2023-05-28T09:07:40Z</time>
      </trkpt>
      <trkpt lat="45.76825" lon="5.31457">
        <ele>325.2</ele>
        <time>2023-05-28T09:07:41Z</time>
      </trkpt>
      <trkpt lat="45.76827" lon="5.31454">
        <ele>325.2</ele>
        <time>2023-05-28T09:07:42Z</time>
      </trkpt>
      <trkpt lat="45.7683" lon="5.31451">
        <ele>325.4</ele>
        <time>2023-05-28T09:07:43Z</time>
      </trkpt>
      <trkpt lat="45.76832" lon="5.31448">
        <ele>325.6</ele>
        <time>2023-05-28T09:07:44Z</time>
      </trkpt>
      <trkpt lat="45.76834" lon="5.31444">
        <ele>326.2</ele>
        <time>2023-05-28T09:07:45Z</time>
      </trkpt>
      <trkpt lat="45.76837" lon="5.31441">
        <ele>326.2</ele>
        <time>2023-05-28T09:07:46Z</time>
      </trkpt>
      <trkpt lat="45.76839" lon="5.31437">
        <ele>326.6</ele>
        <time>2023-05-28T09:07:47Z</time>
      </trkpt>
      <trkpt lat="45.76841" lon="5.31433">
        <ele>326.6</ele>
        <time>2023-05-28T09:07:48Z</time>
      </trkpt>
      <trkpt lat="45.76843" lon="5.3143">
        <ele>326.8</ele>
        <time>2023-05-28T09:07:49Z</time>
      </trkpt>
      <trkpt lat="45.76845" lon="5.31427">
        <ele>327.2</ele>
        <time>2023-05-28T09:07:50Z</time>
      </trkpt>
      <trkpt lat="45.76847" lon="5.31423">
        <ele>327.2</ele>
        <time>2023-05-28T09:07:51Z</time>
      </trkpt>
      <trkpt lat="45.76849" lon="5.31419">
        <ele>327.4</ele>
        <time>2023-05-28T09:07:52Z</time>
      </trkpt>
      <trkpt lat="45.76851" lon="5.31416">
        <ele>327.6</ele>
        <time>2023-05-28T09:07:53Z</time>
      </trkpt>
      <trkpt lat="45.76852" lon="5.31412">
        <ele>327.6</ele>
        <time>2023-05-28T09:07:54Z</time>
      </trkpt>
      <trkpt lat="45.76854" lon="5.31409">
        <ele>327.8</ele>
        <time>2023-05-28T09:07:55Z</time>
      </trkpt>
      <trkpt lat="45.76856" lon="5.31404">
        <ele>328</ele>
        <time>2023-05-28T09:07:56Z</time>
      </trkpt>
      <trkpt lat="45.76858" lon="5.31401">
        <ele>328.6</ele>
        <time>2023-05-28T09:07:57Z</time>
      </trkpt>
      <trkpt lat="45.7686" lon="5.31397">
        <ele>328.8</ele>
        <time>2023-05-28T09:07:58Z</time>
      </trkpt>
      <trkpt lat="45.76862" lon="5.31393">
        <ele>329.4</ele>
        <time>2023-05-28T09:07:59Z</time>
      </trkpt>
      <trkpt lat="45.76864" lon="5.3139">
        <ele>329.6</ele>
        <time>2023-05-28T09:08:00Z</time>
      </trkpt>
      <trkpt lat="45.76866" lon="5.31387">
        <ele>330</ele>
        <time>2023-05-28T09:08:01Z</time>
      </trkpt>
      <trkpt lat="45.76868" lon="5.31383">
        <ele>330.2</ele>
        <time>2023-05-28T09:08:02Z</time>
      </trkpt>
      <trkpt lat="45.76871" lon="5.3138">
        <ele>330.4</ele>
        <time>2023-05-28T09:08:03Z</time>
      </trkpt>
      <trkpt lat="45.76873" lon="5.31376">
        <ele>330.8</ele>
        <time>2023-05-28T09:08:04Z</time>
      </trkpt>
      <trkpt lat="45.76876" lon="5.31373">
        <ele>331</ele>
        <time>2023-05-28T09:08:05Z</time>
      </trkpt>
      <trkpt lat="45.76878" lon="5.3137">
        <ele>331.2</ele>
        <time>2023-05-28T09:08:06Z</time>
      </trkpt>
      <trkpt lat="45.76881" lon="5.31366">
        <ele>331.4</ele>
        <time>2023-05-28T09:08:07Z</time>
      </trkpt>
      <trkpt lat="45.76883" lon="5.31363">
        <ele>331.8</ele>
        <time>2023-05-28T09:08:08Z</time>
      </trkpt>
      <trkpt lat="45.76885" lon="5.3136">
        <ele>331.8</ele>
        <time>2023-05-28T09:08:09Z</time>
      </trkpt>
      <trkpt lat="45.76888" lon="5.31357">
        <ele>332.2</ele>
        <time>2023-05-28T09:08:10Z</time>
      </trkpt>
      <trkpt lat="45.76891" lon="5.31354">
        <ele>332.4</ele>
        <time>2023-05-28T09:08:11Z</time>
      </trkpt>
      <trkpt lat="45.76893" lon="5.31351">
        <ele>332.6</ele>
        <time>2023-05-28T09:08:12Z</time>
      </trkpt>
      <trkpt lat="45.76895" lon="5.31348">
        <ele>332.8</ele>
        <time>2023-05-28T09:08:13Z</time>
      </trkpt>
      <trkpt lat="45.76897" lon="5.31345">
        <ele>333</ele>
        <time>2023-05-28T09:08:14Z</time>
      </trkpt>
      <trkpt lat="45.769" lon="5.31341">
        <ele>333.2</ele>
        <time>2023-05-28T09:08:15Z</time>
      </trkpt>
      <trkpt lat="45.76902" lon="5.31338">
        <ele>333.4</ele>
        <time>2023-05-28T09:08:16Z</time>
      </trkpt>
      <trkpt lat="45.76906" lon="5.31331">
        <ele>333.6</ele>
        <time>2023-05-28T09:08:18Z</time>
      </trkpt>
      <trkpt lat="45.76909" lon="5.31328">
        <ele>333.8</ele>
        <time>2023-05-28T09:08:19Z</time>
      </trkpt>
      <trkpt lat="45.76911" lon="5.31325">
        <ele>334.2</ele>
        <time>2023-05-28T09:08:20Z</time>
      </trkpt>
      <trkpt lat="45.76914" lon="5.31322">
        <ele>334.6</ele>
        <time>2023-05-28T09:08:21Z</time>
      </trkpt>
      <trkpt lat="45.76916" lon="5.31319">
        <ele>335</ele>
        <time>2023-05-28T09:08:22Z</time>
      </trkpt>
      <trkpt lat="45.76918" lon="5.31316">
        <ele>335.2</ele>
        <time>2023-05-28T09:08:23Z</time>
      </trkpt>
      <trkpt lat="45.7692" lon="5.31313">
        <ele>335.4</ele>
        <time>2023-05-28T09:08:24Z</time>
      </trkpt>
      <trkpt lat="45.76923" lon="5.3131">
        <ele>335.6</ele>
        <time>2023-05-28T09:08:25Z</time>
      </trkpt>
      <trkpt lat="45.76925" lon="5.31307">
        <ele>335.8</ele>
        <time>2023-05-28T09:08:26Z</time>
      </trkpt>
      <trkpt lat="45.76927" lon="5.31303">
        <ele>336</ele>
        <time>2023-05-28T09:08:27Z</time>
      </trkpt>
      <trkpt lat="45.76932" lon="5.31296">
        <ele>336.6</ele>
        <time>2023-05-28T09:08:29Z</time>
      </trkpt>
      <trkpt lat="45.76935" lon="5.31293">
        <ele>336.8</ele>
        <time>2023-05-28T09:08:30Z</time>
      </trkpt>
      <trkpt lat="45.76938" lon="5.31289">
        <ele>337.2</ele>
        <time>2023-05-28T09:08:31Z</time>
      </trkpt>
      <trkpt lat="45.7694" lon="5.31285">
        <ele>337.4</ele>
        <time>2023-05-28T09:08:32Z</time>
      </trkpt>
      <trkpt lat="45.76943" lon="5.31281">
        <ele>337.6</ele>
        <time>2023-05-28T09:08:33Z</time>
      </trkpt>
      <trkpt lat="45.76945" lon="5.31277">
        <ele>337.8</ele>
        <time>2023-05-28T09:08:34Z</time>
      </trkpt>
      <trkpt lat="45.76948" lon="5.31273">
        <ele>338.4</ele>
        <time>2023-05-28T09:08:35Z</time>
      </trkpt>
      <trkpt lat="45.7695" lon="5.31269">
        <ele>338.6</ele>
        <time>2023-05-28T09:08:36Z</time>
      </trkpt>
      <trkpt lat="45.76952" lon="5.31266">
        <ele>338.8</ele>
        <time>2023-05-28T09:08:37Z</time>
      </trkpt>
      <trkpt lat="45.76955" lon="5.31263">
        <ele>339</ele>
        <time>2023-05-28T09:08:38Z</time>
      </trkpt>
      <trkpt lat="45.76957" lon="5.3126">
        <ele>339.2</ele>
        <time>2023-05-28T09:08:39Z</time>
      </trkpt>
      <trkpt lat="45.7696" lon="5.31257">
        <ele>339.4</ele>
        <time>2023-05-28T09:08:40Z</time>
      </trkpt>
      <trkpt lat="45.76962" lon="5.31254">
        <ele>339.6</ele>
        <time>2023-05-28T09:08:41Z</time>
      </trkpt>
      <trkpt lat="45.76965" lon="5.31251">
        <ele>340</ele>
        <time>2023-05-28T09:08:42Z</time>
      </trkpt>
      <trkpt lat="45.76967" lon="5.31248">
        <ele>340.4</ele>
        <time>2023-05-28T09:08:43Z</time>
      </trkpt>
      <trkpt lat="45.7697" lon="5.31245">
        <ele>340.8</ele>
        <time>2023-05-28T09:08:44Z</time>
      </trkpt>
      <trkpt lat="45.76972" lon="5.31243">
        <ele>341.2</ele>
        <time>2023-05-28T09:08:45Z</time>
      </trkpt>
      <trkpt lat="45.76974" lon="5.31241">
        <ele>341.4</ele>
        <time>2023-05-28T09:08:46Z</time>
      </trkpt>
      <trkpt lat="45.76977" lon="5.31238">
        <ele>341.6</ele>
        <time>2023-05-28T09:08:47Z</time>
      </trkpt>
      <trkpt lat="45.76979" lon="5.31236">
        <ele>341.6</ele>
        <time>2023-05-28T09:08:48Z</time>
      </trkpt>
      <trkpt lat="45.76981" lon="5.31234">
        <ele>342</ele>
        <time>2023-05-28T09:08:49Z</time>
      </trkpt>
      <trkpt lat="45.76984" lon="5.31232">
        <ele>342.6</ele>
        <time>2023-05-28T09:08:50Z</time>
      </trkpt>
      <trkpt lat="45.76988" lon="5.3123">
        <ele>342.8</ele>
        <time>2023-05-28T09:08:51Z</time>
      </trkpt>
      <trkpt lat="45.76991" lon="5.31228">
        <ele>343</ele>
        <time>2023-05-28T09:08:52Z</time>
      </trkpt>
      <trkpt lat="45.76995" lon="5.31227">
        <ele>343</ele>
        <time>2023-05-28T09:08:53Z</time>
      </trkpt>
      <trkpt lat="45.76998" lon="5.31226">
        <ele>343.2</ele>
        <time>2023-05-28T09:08:54Z</time>
      </trkpt>
      <trkpt lat="45.77002" lon="5.31224">
        <ele>343.2</ele>
        <time>2023-05-28T09:08:55Z</time>
      </trkpt>
      <trkpt lat="45.77005" lon="5.31223">
        <ele>343.4</ele>
        <time>2023-05-28T09:08:56Z</time>
      </trkpt>
      <trkpt lat="45.77008" lon="5.31222">
        <ele>343.4</ele>
        <time>2023-05-28T09:08:57Z</time>
      </trkpt>
      <trkpt lat="45.77011" lon="5.31222">
        <ele>343.6</ele>
        <time>2023-05-28T09:08:58Z</time>
      </trkpt>
      <trkpt lat="45.77013" lon="5.31221">
        <ele>343.6</ele>
        <time>2023-05-28T09:08:59Z</time>
      </trkpt>
      <trkpt lat="45.77016" lon="5.31221">
        <ele>343.8</ele>
        <time>2023-05-28T09:09:00Z</time>
      </trkpt>
      <trkpt lat="45.77019" lon="5.31221">
        <ele>344</ele>
        <time>2023-05-28T09:09:01Z</time>
      </trkpt>
      <trkpt lat="45.77023" lon="5.31221">
        <ele>344</ele>
        <time>2023-05-28T09:09:02Z</time>
      </trkpt>
      <trkpt lat="45.77026" lon="5.31219">
        <ele>344.2</ele>
        <time>2023-05-28T09:09:03Z</time>
      </trkpt>
      <trkpt lat="45.7703" lon="5.31217">
        <ele>344.2</ele>
        <time>2023-05-28T09:09:04Z</time>
      </trkpt>
      <trkpt lat="45.77033" lon="5.31216">
        <ele>344.6</ele>
        <time>2023-05-28T09:09:05Z</time>
      </trkpt>
      <trkpt lat="45.77038" lon="5.31214">
        <ele>344.8</ele>
        <time>2023-05-28T09:09:06Z</time>
      </trkpt>
      <trkpt lat="45.77042" lon="5.31215">
        <ele>345</ele>
        <time>2023-05-28T09:09:07Z</time>
      </trkpt>
      <trkpt lat="45.77047" lon="5.31214">
        <ele>345.2</ele>
        <time>2023-05-28T09:09:08Z</time>
      </trkpt>
      <trkpt lat="45.7705" lon="5.31213">
        <ele>345.2</ele>
        <time>2023-05-28T09:09:09Z</time>
      </trkpt>
      <trkpt lat="45.77055" lon="5.31211">
        <ele>345.4</ele>
        <time>2023-05-28T09:09:10Z</time>
      </trkpt>
      <trkpt lat="45.77061" lon="5.31209">
        <ele>345.6</ele>
        <time>2023-05-28T09:09:11Z</time>
      </trkpt>
      <trkpt lat="45.77066" lon="5.31207">
        <ele>345.6</ele>
        <time>2023-05-28T09:09:12Z</time>
      </trkpt>
      <trkpt lat="45.77071" lon="5.31204">
        <ele>345.8</ele>
        <time>2023-05-28T09:09:13Z</time>
      </trkpt>
      <trkpt lat="45.77076" lon="5.312">
        <ele>346</ele>
        <time>2023-05-28T09:09:14Z</time>
      </trkpt>
      <trkpt lat="45.77082" lon="5.31196">
        <ele>346.2</ele>
        <time>2023-05-28T09:09:15Z</time>
      </trkpt>
      <trkpt lat="45.77089" lon="5.31191">
        <ele>346.2</ele>
        <time>2023-05-28T09:09:16Z</time>
      </trkpt>
      <trkpt lat="45.77094" lon="5.31186">
        <ele>346.4</ele>
        <time>2023-05-28T09:09:17Z</time>
      </trkpt>
      <trkpt lat="45.77097" lon="5.31182">
        <ele>346.4</ele>
        <time>2023-05-28T09:09:18Z</time>
      </trkpt>
      <trkpt lat="45.77105" lon="5.31171">
        <ele>346.6</ele>
        <time>2023-05-28T09:09:20Z</time>
      </trkpt>
      <trkpt lat="45.7711" lon="5.31166">
        <ele>346.8</ele>
        <time>2023-05-28T09:09:21Z</time>
      </trkpt>
      <trkpt lat="45.77114" lon="5.31161">
        <ele>347.2</ele>
        <time>2023-05-28T09:09:22Z</time>
      </trkpt>
      <trkpt lat="45.77121" lon="5.31153">
        <ele>347.6</ele>
        <time>2023-05-28T09:09:24Z</time>
      </trkpt>
      <trkpt lat="45.77125" lon="5.31148">
        <ele>347.8</ele>
        <time>2023-05-28T09:09:25Z</time>
      </trkpt>
      <trkpt lat="45.7713" lon="5.31142">
        <ele>348</ele>
        <time>2023-05-28T09:09:26Z</time>
      </trkpt>
      <trkpt lat="45.77134" lon="5.31137">
        <ele>348.2</ele>
        <time>2023-05-28T09:09:27Z</time>
      </trkpt>
      <trkpt lat="45.77137" lon="5.31133">
        <ele>348.2</ele>
        <time>2023-05-28T09:09:28Z</time>
      </trkpt>
      <trkpt lat="45.77142" lon="5.31129">
        <ele>348.4</ele>
        <time>2023-05-28T09:09:29Z</time>
      </trkpt>
      <trkpt lat="45.77146" lon="5.31125">
        <ele>348.6</ele>
        <time>2023-05-28T09:09:30Z</time>
      </trkpt>
      <trkpt lat="45.77152" lon="5.31121">
        <ele>349</ele>
        <time>2023-05-28T09:09:31Z</time>
      </trkpt>
      <trkpt lat="45.77156" lon="5.31118">
        <ele>349.2</ele>
        <time>2023-05-28T09:09:32Z</time>
      </trkpt>
      <trkpt lat="45.7716" lon="5.31116">
        <ele>349.6</ele>
        <time>2023-05-28T09:09:33Z</time>
      </trkpt>
      <trkpt lat="45.77164" lon="5.31114">
        <ele>349.6</ele>
        <time>2023-05-28T09:09:34Z</time>
      </trkpt>
      <trkpt lat="45.77168" lon="5.31112">
        <ele>349.8</ele>
        <time>2023-05-28T09:09:35Z</time>
      </trkpt>
      <trkpt lat="45.77173" lon="5.31109">
        <ele>350</ele>
        <time>2023-05-28T09:09:36Z</time>
      </trkpt>
      <trkpt lat="45.77177" lon="5.31107">
        <ele>350.2</ele>
        <time>2023-05-28T09:09:37Z</time>
      </trkpt>
      <trkpt lat="45.7718" lon="5.31106">
        <ele>350.6</ele>
        <time>2023-05-28T09:09:38Z</time>
      </trkpt>
      <trkpt lat="45.77184" lon="5.31105">
        <ele>350.8</ele>
        <time>2023-05-28T09:09:39Z</time>
      </trkpt>
      <trkpt lat="45.77188" lon="5.31104">
        <ele>351</ele>
        <time>2023-05-28T09:09:40Z</time>
      </trkpt>
      <trkpt lat="45.77192" lon="5.31103">
        <ele>351</ele>
        <time>2023-05-28T09:09:41Z</time>
      </trkpt>
      <trkpt lat="45.77196" lon="5.31102">
        <ele>351.2</ele>
        <time>2023-05-28T09:09:42Z</time>
      </trkpt>
      <trkpt lat="45.772" lon="5.31101">
        <ele>351.4</ele>
        <time>2023-05-28T09:09:43Z</time>
      </trkpt>
      <trkpt lat="45.77203" lon="5.31099">
        <ele>351.6</ele>
        <time>2023-05-28T09:09:44Z</time>
      </trkpt>
      <trkpt lat="45.77207" lon="5.31097">
        <ele>352.2</ele>
        <time>2023-05-28T09:09:45Z</time>
      </trkpt>
      <trkpt lat="45.77211" lon="5.31096">
        <ele>352.4</ele>
        <time>2023-05-28T09:09:46Z</time>
      </trkpt>
      <trkpt lat="45.77215" lon="5.31095">
        <ele>353</ele>
        <time>2023-05-28T09:09:47Z</time>
      </trkpt>
      <trkpt lat="45.77218" lon="5.31094">
        <ele>353.2</ele>
        <time>2023-05-28T09:09:48Z</time>
      </trkpt>
      <trkpt lat="45.77222" lon="5.31093">
        <ele>353.6</ele>
        <time>2023-05-28T09:09:49Z</time>
      </trkpt>
      <trkpt lat="45.77226" lon="5.31091">
        <ele>353.8</ele>
        <time>2023-05-28T09:09:50Z</time>
      </trkpt>
      <trkpt lat="45.77229" lon="5.31089">
        <ele>354.2</ele>
        <time>2023-05-28T09:09:51Z</time>
      </trkpt>
      <trkpt lat="45.77233" lon="5.31088">
        <ele>354.6</ele>
        <time>2023-05-28T09:09:52Z</time>
      </trkpt>
      <trkpt lat="45.77236" lon="5.31088">
        <ele>355.4</ele>
        <time>2023-05-28T09:09:53Z</time>
      </trkpt>
      <trkpt lat="45.7724" lon="5.31087">
        <ele>355.8</ele>
        <time>2023-05-28T09:09:54Z</time>
      </trkpt>
      <trkpt lat="45.77245" lon="5.31086">
        <ele>355.8</ele>
        <time>2023-05-28T09:09:55Z</time>
      </trkpt>
      <trkpt lat="45.77249" lon="5.31086">
        <ele>356</ele>
        <time>2023-05-28T09:09:56Z</time>
      </trkpt>
      <trkpt lat="45.77253" lon="5.31087">
        <ele>356.2</ele>
        <time>2023-05-28T09:09:57Z</time>
      </trkpt>
      <trkpt lat="45.77257" lon="5.31086">
        <ele>356.6</ele>
        <time>2023-05-28T09:09:58Z</time>
      </trkpt>
      <trkpt lat="45.77261" lon="5.31087">
        <ele>356.6</ele>
        <time>2023-05-28T09:09:59Z</time>
      </trkpt>
      <trkpt lat="45.77265" lon="5.31087">
        <ele>356.8</ele>
        <time>2023-05-28T09:10:00Z</time>
      </trkpt>
      <trkpt lat="45.7727" lon="5.31087">
        <ele>357</ele>
        <time>2023-05-28T09:10:01Z</time>
      </trkpt>
      <trkpt lat="45.77275" lon="5.31088">
        <ele>357.4</ele>
        <time>2023-05-28T09:10:02Z</time>
      </trkpt>
      <trkpt lat="45.7728" lon="5.31089">
        <ele>357.8</ele>
        <time>2023-05-28T09:10:03Z</time>
      </trkpt>
      <trkpt lat="45.77284" lon="5.31089">
        <ele>358</ele>
        <time>2023-05-28T09:10:04Z</time>
      </trkpt>
      <trkpt lat="45.77289" lon="5.31089">
        <ele>358.4</ele>
        <time>2023-05-28T09:10:05Z</time>
      </trkpt>
      <trkpt lat="45.77295" lon="5.3109">
        <ele>358.4</ele>
        <time>2023-05-28T09:10:06Z</time>
      </trkpt>
      <trkpt lat="45.773" lon="5.31089">
        <ele>358.4</ele>
        <time>2023-05-28T09:10:07Z</time>
      </trkpt>
      <trkpt lat="45.77305" lon="5.3109">
        <ele>358.6</ele>
        <time>2023-05-28T09:10:08Z</time>
      </trkpt>
      <trkpt lat="45.77311" lon="5.31088">
        <ele>358.6</ele>
        <time>2023-05-28T09:10:09Z</time>
      </trkpt>
      <trkpt lat="45.77317" lon="5.31086">
        <ele>358.6</ele>
        <time>2023-05-28T09:10:10Z</time>
      </trkpt>
      <trkpt lat="45.77322" lon="5.31083">
        <ele>358.6</ele>
        <time>2023-05-28T09:10:11Z</time>
      </trkpt>
      <trkpt lat="45.77326" lon="5.31081">
        <ele>358.6</ele>
        <time>2023-05-28T09:10:12Z</time>
      </trkpt>
      <trkpt lat="45.77331" lon="5.31077">
        <ele>358.6</ele>
        <time>2023-05-28T09:10:13Z</time>
      </trkpt>
      <trkpt lat="45.77335" lon="5.31073">
        <ele>358.6</ele>
        <time>2023-05-28T09:10:14Z</time>
      </trkpt>
      <trkpt lat="45.77341" lon="5.31067">
        <ele>358.6</ele>
        <time>2023-05-28T09:10:15Z</time>
      </trkpt>
      <trkpt lat="45.7735" lon="5.31059">
        <ele>358.6</ele>
        <time>2023-05-28T09:10:17Z</time>
      </trkpt>
      <trkpt lat="45.77355" lon="5.31055">
        <ele>358.6</ele>
        <time>2023-05-28T09:10:18Z</time>
      </trkpt>
      <trkpt lat="45.77359" lon="5.31051">
        <ele>358.6</ele>
        <time>2023-05-28T09:10:19Z</time>
      </trkpt>
      <trkpt lat="45.77362" lon="5.31047">
        <ele>358.6</ele>
        <time>2023-05-28T09:10:20Z</time>
      </trkpt>
      <trkpt lat="45.77366" lon="5.31043">
        <ele>359</ele>
        <time>2023-05-28T09:10:21Z</time>
      </trkpt>
      <trkpt lat="45.7737" lon="5.31039">
        <ele>359</ele>
        <time>2023-05-28T09:10:22Z</time>
      </trkpt>
      <trkpt lat="45.77373" lon="5.31034">
        <ele>359.6</ele>
        <time>2023-05-28T09:10:23Z</time>
      </trkpt>
      <trkpt lat="45.77376" lon="5.31031">
        <ele>359.8</ele>
        <time>2023-05-28T09:10:24Z</time>
      </trkpt>
      <trkpt lat="45.77378" lon="5.31027">
        <ele>359.8</ele>
        <time>2023-05-28T09:10:25Z</time>
      </trkpt>
      <trkpt lat="45.77381" lon="5.31023">
        <ele>360</ele>
        <time>2023-05-28T09:10:26Z</time>
      </trkpt>
      <trkpt lat="45.77384" lon="5.31019">
        <ele>360.2</ele>
        <time>2023-05-28T09:10:27Z</time>
      </trkpt>
      <trkpt lat="45.77386" lon="5.31015">
        <ele>360.4</ele>
        <time>2023-05-28T09:10:28Z</time>
      </trkpt>
      <trkpt lat="45.77388" lon="5.31011">
        <ele>360.4</ele>
        <time>2023-05-28T09:10:29Z</time>
      </trkpt>
      <trkpt lat="45.7739" lon="5.31006">
        <ele>360.8</ele>
        <time>2023-05-28T09:10:30Z</time>
      </trkpt>
      <trkpt lat="45.77392" lon="5.31002">
        <ele>360.8</ele>
        <time>2023-05-28T09:10:31Z</time>
      </trkpt>
      <trkpt lat="45.77394" lon="5.30997">
        <ele>361</ele>
        <time>2023-05-28T09:10:32Z</time>
      </trkpt>
      <trkpt lat="45.77395" lon="5.30993">
        <ele>361.2</ele>
        <time>2023-05-28T09:10:33Z</time>
      </trkpt>
      <trkpt lat="45.77396" lon="5.30988">
        <ele>361.2</ele>
        <time>2023-05-28T09:10:34Z</time>
      </trkpt>
      <trkpt lat="45.77397" lon="5.30983">
        <ele>361.4</ele>
        <time>2023-05-28T09:10:35Z</time>
      </trkpt>
      <trkpt lat="45.77398" lon="5.30978">
        <ele>361.4</ele>
        <time>2023-05-28T09:10:36Z</time>
      </trkpt>
      <trkpt lat="45.77399" lon="5.30972">
        <ele>361.6</ele>
        <time>2023-05-28T09:10:37Z</time>
      </trkpt>
      <trkpt lat="45.774" lon="5.30967">
        <ele>361.8</ele>
        <time>2023-05-28T09:10:38Z</time>
      </trkpt>
      <trkpt lat="45.774" lon="5.30962">
        <ele>361.8</ele>
        <time>2023-05-28T09:10:39Z</time>
      </trkpt>
      <trkpt lat="45.774" lon="5.30953">
        <ele>362.2</ele>
        <time>2023-05-28T09:10:41Z</time>
      </trkpt>
      <trkpt lat="45.77399" lon="5.30949">
        <ele>362.4</ele>
        <time>2023-05-28T09:10:42Z</time>
      </trkpt>
      <trkpt lat="45.77399" lon="5.30945">
        <ele>362.6</ele>
        <time>2023-05-28T09:10:43Z</time>
      </trkpt>
      <trkpt lat="45.77399" lon="5.30941">
        <ele>362.8</ele>
        <time>2023-05-28T09:10:44Z</time>
      </trkpt>
      <trkpt lat="45.77399" lon="5.30937">
        <ele>363</ele>
        <time>2023-05-28T09:10:45Z</time>
      </trkpt>
      <trkpt lat="45.77399" lon="5.30933">
        <ele>363.2</ele>
        <time>2023-05-28T09:10:46Z</time>
      </trkpt>
      <trkpt lat="45.774" lon="5.30929">
        <ele>363.4</ele>
        <time>2023-05-28T09:10:47Z</time>
      </trkpt>
      <trkpt lat="45.774" lon="5.30925">
        <ele>363.4</ele>
        <time>2023-05-28T09:10:48Z</time>
      </trkpt>
      <trkpt lat="45.77401" lon="5.30921">
        <ele>363.4</ele>
        <time>2023-05-28T09:10:49Z</time>
      </trkpt>
      <trkpt lat="45.77401" lon="5.30917">
        <ele>363.4</ele>
        <time>2023-05-28T09:10:50Z</time>
      </trkpt>
      <trkpt lat="45.77403" lon="5.30909">
        <ele>363.8</ele>
        <time>2023-05-28T09:10:52Z</time>
      </trkpt>
      <trkpt lat="45.77403" lon="5.30905">
        <ele>363.8</ele>
        <time>2023-05-28T09:10:53Z</time>
      </trkpt>
      <trkpt lat="45.77404" lon="5.30902">
        <ele>364</ele>
        <time>2023-05-28T09:10:54Z</time>
      </trkpt>
      <trkpt lat="45.77405" lon="5.30898">
        <ele>364</ele>
        <time>2023-05-28T09:10:55Z</time>
      </trkpt>
      <trkpt lat="45.77406" lon="5.30894">
        <ele>364.2</ele>
        <time>2023-05-28T09:10:56Z</time>
      </trkpt>
      <trkpt lat="45.77407" lon="5.30891">
        <ele>364.4</ele>
        <time>2023-05-28T09:10:57Z</time>
      </trkpt>
      <trkpt lat="45.77408" lon="5.30887">
        <ele>364.6</ele>
        <time>2023-05-28T09:10:58Z</time>
      </trkpt>
      <trkpt lat="45.77411" lon="5.3088">
        <ele>365</ele>
        <time>2023-05-28T09:11:00Z</time>
      </trkpt>
      <trkpt lat="45.77412" lon="5.30876">
        <ele>365.2</ele>
        <time>2023-05-28T09:11:01Z</time>
      </trkpt>
      <trkpt lat="45.77413" lon="5.30873">
        <ele>365.2</ele>
        <time>2023-05-28T09:11:02Z</time>
      </trkpt>
      <trkpt lat="45.77415" lon="5.3087">
        <ele>365.2</ele>
        <time>2023-05-28T09:11:03Z</time>
      </trkpt>
      <trkpt lat="45.77417" lon="5.30867">
        <ele>365.2</ele>
        <time>2023-05-28T09:11:04Z</time>
      </trkpt>
      <trkpt lat="45.77419" lon="5.30863">
        <ele>365.4</ele>
        <time>2023-05-28T09:11:05Z</time>
      </trkpt>
      <trkpt lat="45.77421" lon="5.30861">
        <ele>365.8</ele>
        <time>2023-05-28T09:11:06Z</time>
      </trkpt>
      <trkpt lat="45.77423" lon="5.30857">
        <ele>366.4</ele>
        <time>2023-05-28T09:11:07Z</time>
      </trkpt>
      <trkpt lat="45.77425" lon="5.30854">
        <ele>366.6</ele>
        <time>2023-05-28T09:11:08Z</time>
      </trkpt>
      <trkpt lat="45.77428" lon="5.30851">
        <ele>366.8</ele>
        <time>2023-05-28T09:11:09Z</time>
      </trkpt>
      <trkpt lat="45.77433" lon="5.30845">
        <ele>367</ele>
        <time>2023-05-28T09:11:11Z</time>
      </trkpt>
      <trkpt lat="45.77436" lon="5.30842">
        <ele>367.4</ele>
        <time>2023-05-28T09:11:12Z</time>
      </trkpt>
      <trkpt lat="45.77441" lon="5.30835">
        <ele>367.8</ele>
        <time>2023-05-28T09:11:14Z</time>
      </trkpt>
      <trkpt lat="45.77443" lon="5.30831">
        <ele>368</ele>
        <time>2023-05-28T09:11:15Z</time>
      </trkpt>
      <trkpt lat="45.77445" lon="5.30825">
        <ele>368.2</ele>
        <time>2023-05-28T09:11:16Z</time>
      </trkpt>
      <trkpt lat="45.77446" lon="5.30819">
        <ele>368.4</ele>
        <time>2023-05-28T09:11:17Z</time>
      </trkpt>
      <trkpt lat="45.77446" lon="5.30812">
        <ele>368.4</ele>
        <time>2023-05-28T09:11:18Z</time>
      </trkpt>
      <trkpt lat="45.77445" lon="5.30805">
        <ele>368.6</ele>
        <time>2023-05-28T09:11:19Z</time>
      </trkpt>
      <trkpt lat="45.77443" lon="5.30798">
        <ele>368.6</ele>
        <time>2023-05-28T09:11:20Z</time>
      </trkpt>
      <trkpt lat="45.7744" lon="5.30792">
        <ele>369</ele>
        <time>2023-05-28T09:11:21Z</time>
      </trkpt>
      <trkpt lat="45.77438" lon="5.30787">
        <ele>369</ele>
        <time>2023-05-28T09:11:22Z</time>
      </trkpt>
      <trkpt lat="45.77432" lon="5.30776">
        <ele>369.8</ele>
        <time>2023-05-28T09:11:24Z</time>
      </trkpt>
      <trkpt lat="45.77429" lon="5.30771">
        <ele>369.8</ele>
        <time>2023-05-28T09:11:25Z</time>
      </trkpt>
      <trkpt lat="45.77423" lon="5.30761">
        <ele>369.8</ele>
        <time>2023-05-28T09:11:27Z</time>
      </trkpt>
      <trkpt lat="45.77418" lon="5.30751">
        <ele>369.8</ele>
        <time>2023-05-28T09:11:29Z</time>
      </trkpt>
      <trkpt lat="45.77416" lon="5.30746">
        <ele>369.8</ele>
        <time>2023-05-28T09:11:30Z</time>
      </trkpt>
      <trkpt lat="45.77414" lon="5.3074">
        <ele>369.8</ele>
        <time>2023-05-28T09:11:31Z</time>
      </trkpt>
      <trkpt lat="45.77412" lon="5.30735">
        <ele>369.8</ele>
        <time>2023-05-28T09:11:32Z</time>
      </trkpt>
      <trkpt lat="45.7741" lon="5.3073">
        <ele>369.6</ele>
        <time>2023-05-28T09:11:33Z</time>
      </trkpt>
      <trkpt lat="45.77408" lon="5.30725">
        <ele>369.6</ele>
        <time>2023-05-28T09:11:34Z</time>
      </trkpt>
      <trkpt lat="45.77408" lon="5.3072">
        <ele>369.4</ele>
        <time>2023-05-28T09:11:35Z</time>
      </trkpt>
      <trkpt lat="45.77409" lon="5.30715">
        <ele>369.4</ele>
        <time>2023-05-28T09:11:36Z</time>
      </trkpt>
      <trkpt lat="45.7741" lon="5.3071">
        <ele>369.2</ele>
        <time>2023-05-28T09:11:37Z</time>
      </trkpt>
      <trkpt lat="45.77411" lon="5.30705">
        <ele>369.2</ele>
        <time>2023-05-28T09:11:38Z</time>
      </trkpt>
      <trkpt lat="45.77413" lon="5.307">
        <ele>369.4</ele>
        <time>2023-05-28T09:11:39Z</time>
      </trkpt>
      <trkpt lat="45.77414" lon="5.30695">
        <ele>369.6</ele>
        <time>2023-05-28T09:11:40Z</time>
      </trkpt>
      <trkpt lat="45.77414" lon="5.30691">
        <ele>369.6</ele>
        <time>2023-05-28T09:11:41Z</time>
      </trkpt>
      <trkpt lat="45.77415" lon="5.30687">
        <ele>369.6</ele>
        <time>2023-05-28T09:11:42Z</time>
      </trkpt>
      <trkpt lat="45.77416" lon="5.30683">
        <ele>369.6</ele>
        <time>2023-05-28T09:11:43Z</time>
      </trkpt>
      <trkpt lat="45.77416" lon="5.30678">
        <ele>369.6</ele>
        <time>2023-05-28T09:11:44Z</time>
      </trkpt>
      <trkpt lat="45.77416" lon="5.30673">
        <ele>369.6</ele>
        <time>2023-05-28T09:11:45Z</time>
      </trkpt>
      <trkpt lat="45.77415" lon="5.3067">
        <ele>370</ele>
        <time>2023-05-28T09:11:46Z</time>
      </trkpt>
      <trkpt lat="45.77414" lon="5.30667">
        <ele>370.2</ele>
        <time>2023-05-28T09:11:47Z</time>
      </trkpt>
      <trkpt lat="45.77412" lon="5.30663">
        <ele>370.4</ele>
        <time>2023-05-28T09:11:48Z</time>
      </trkpt>
      <trkpt lat="45.77409" lon="5.30659">
        <ele>370.6</ele>
        <time>2023-05-28T09:11:49Z</time>
      </trkpt>
      <trkpt lat="45.77406" lon="5.30656">
        <ele>370.6</ele>
        <time>2023-05-28T09:11:50Z</time>
      </trkpt>
      <trkpt lat="45.77404" lon="5.30654">
        <ele>370.8</ele>
        <time>2023-05-28T09:11:51Z</time>
      </trkpt>
      <trkpt lat="45.77401" lon="5.30652">
        <ele>371</ele>
        <time>2023-05-28T09:11:52Z</time>
      </trkpt>
      <trkpt lat="45.77398" lon="5.3065">
        <ele>371</ele>
        <time>2023-05-28T09:11:53Z</time>
      </trkpt>
      <trkpt lat="45.77395" lon="5.30647">
        <ele>371.2</ele>
        <time>2023-05-28T09:11:54Z</time>
      </trkpt>
      <trkpt lat="45.77392" lon="5.30644">
        <ele>371.2</ele>
        <time>2023-05-28T09:11:55Z</time>
      </trkpt>
      <trkpt lat="45.7739" lon="5.30642">
        <ele>371.4</ele>
        <time>2023-05-28T09:11:56Z</time>
      </trkpt>
      <trkpt lat="45.77386" lon="5.30639">
        <ele>371.4</ele>
        <time>2023-05-28T09:11:57Z</time>
      </trkpt>
      <trkpt lat="45.77384" lon="5.30637">
        <ele>371.4</ele>
        <time>2023-05-28T09:11:58Z</time>
      </trkpt>
      <trkpt lat="45.77381" lon="5.30633">
        <ele>371.6</ele>
        <time>2023-05-28T09:11:59Z</time>
      </trkpt>
      <trkpt lat="45.77378" lon="5.3063">
        <ele>371.8</ele>
        <time>2023-05-28T09:12:00Z</time>
      </trkpt>
      <trkpt lat="45.77375" lon="5.30627">
        <ele>372</ele>
        <time>2023-05-28T09:12:01Z</time>
      </trkpt>
      <trkpt lat="45.77373" lon="5.30624">
        <ele>372.2</ele>
        <time>2023-05-28T09:12:02Z</time>
      </trkpt>
      <trkpt lat="45.7737" lon="5.30621">
        <ele>372.4</ele>
        <time>2023-05-28T09:12:03Z</time>
      </trkpt>
      <trkpt lat="45.77367" lon="5.30619">
        <ele>372.4</ele>
        <time>2023-05-28T09:12:04Z</time>
      </trkpt>
      <trkpt lat="45.77364" lon="5.30616">
        <ele>372.6</ele>
        <time>2023-05-28T09:12:05Z</time>
      </trkpt>
      <trkpt lat="45.77361" lon="5.30614">
        <ele>372.6</ele>
        <time>2023-05-28T09:12:06Z</time>
      </trkpt>
      <trkpt lat="45.77356" lon="5.30608">
        <ele>373.2</ele>
        <time>2023-05-28T09:12:08Z</time>
      </trkpt>
      <trkpt lat="45.77353" lon="5.30605">
        <ele>373.4</ele>
        <time>2023-05-28T09:12:09Z</time>
      </trkpt>
      <trkpt lat="45.77351" lon="5.30602">
        <ele>373.4</ele>
        <time>2023-05-28T09:12:10Z</time>
      </trkpt>
      <trkpt lat="45.77348" lon="5.30598">
        <ele>373.4</ele>
        <time>2023-05-28T09:12:11Z</time>
      </trkpt>
      <trkpt lat="45.77345" lon="5.30596">
        <ele>373.6</ele>
        <time>2023-05-28T09:12:12Z</time>
      </trkpt>
      <trkpt lat="45.77342" lon="5.30593">
        <ele>373.6</ele>
        <time>2023-05-28T09:12:13Z</time>
      </trkpt>
      <trkpt lat="45.77339" lon="5.30591">
        <ele>374</ele>
        <time>2023-05-28T09:12:14Z</time>
      </trkpt>
      <trkpt lat="45.77336" lon="5.30588">
        <ele>374.2</ele>
        <time>2023-05-28T09:12:15Z</time>
      </trkpt>
      <trkpt lat="45.77334" lon="5.30585">
        <ele>374.2</ele>
        <time>2023-05-28T09:12:16Z</time>
      </trkpt>
      <trkpt lat="45.77331" lon="5.30582">
        <ele>374.2</ele>
        <time>2023-05-28T09:12:17Z</time>
      </trkpt>
      <trkpt lat="45.77329" lon="5.30579">
        <ele>374.2</ele>
        <time>2023-05-28T09:12:18Z</time>
      </trkpt>
      <trkpt lat="45.77326" lon="5.30576">
        <ele>374.4</ele>
        <time>2023-05-28T09:12:19Z</time>
      </trkpt>
      <trkpt lat="45.77323" lon="5.30573">
        <ele>374.4</ele>
        <time>2023-05-28T09:12:20Z</time>
      </trkpt>
      <trkpt lat="45.77321" lon="5.30571">
        <ele>374.4</ele>
        <time>2023-05-28T09:12:21Z</time>
      </trkpt>
      <trkpt lat="45.77318" lon="5.30568">
        <ele>374.4</ele>
        <time>2023-05-28T09:12:22Z</time>
      </trkpt>
      <trkpt lat="45.77313" lon="5.30563">
        <ele>374.6</ele>
        <time>2023-05-28T09:12:24Z</time>
      </trkpt>
      <trkpt lat="45.7731" lon="5.3056">
        <ele>374.8</ele>
        <time>2023-05-28T09:12:25Z</time>
      </trkpt>
      <trkpt lat="45.77308" lon="5.30558">
        <ele>375.2</ele>
        <time>2023-05-28T09:12:26Z</time>
      </trkpt>
      <trkpt lat="45.77305" lon="5.30556">
        <ele>375.4</ele>
        <time>2023-05-28T09:12:27Z</time>
      </trkpt>
      <trkpt lat="45.77302" lon="5.30553">
        <ele>375.8</ele>
        <time>2023-05-28T09:12:28Z</time>
      </trkpt>
      <trkpt lat="45.773" lon="5.30551">
        <ele>376</ele>
        <time>2023-05-28T09:12:29Z</time>
      </trkpt>
      <trkpt lat="45.77297" lon="5.30548">
        <ele>376.2</ele>
        <time>2023-05-28T09:12:30Z</time>
      </trkpt>
      <trkpt lat="45.77294" lon="5.30544">
        <ele>376.2</ele>
        <time>2023-05-28T09:12:31Z</time>
      </trkpt>
      <trkpt lat="45.77292" lon="5.30541">
        <ele>376.6</ele>
        <time>2023-05-28T09:12:32Z</time>
      </trkpt>
      <trkpt lat="45.7729" lon="5.30538">
        <ele>376.8</ele>
        <time>2023-05-28T09:12:33Z</time>
      </trkpt>
      <trkpt lat="45.77287" lon="5.30535">
        <ele>377</ele>
        <time>2023-05-28T09:12:34Z</time>
      </trkpt>
      <trkpt lat="45.77284" lon="5.30532">
        <ele>377.2</ele>
        <time>2023-05-28T09:12:35Z</time>
      </trkpt>
      <trkpt lat="45.77281" lon="5.30529">
        <ele>377.4</ele>
        <time>2023-05-28T09:12:36Z</time>
      </trkpt>
      <trkpt lat="45.77278" lon="5.30527">
        <ele>378</ele>
        <time>2023-05-28T09:12:37Z</time>
      </trkpt>
      <trkpt lat="45.77274" lon="5.30524">
        <ele>378.2</ele>
        <time>2023-05-28T09:12:38Z</time>
      </trkpt>
      <trkpt lat="45.77271" lon="5.30522">
        <ele>378.6</ele>
        <time>2023-05-28T09:12:39Z</time>
      </trkpt>
      <trkpt lat="45.77268" lon="5.30519">
        <ele>378.8</ele>
        <time>2023-05-28T09:12:40Z</time>
      </trkpt>
      <trkpt lat="45.77264" lon="5.30516">
        <ele>379.2</ele>
        <time>2023-05-28T09:12:41Z</time>
      </trkpt>
      <trkpt lat="45.77261" lon="5.30513">
        <ele>379.8</ele>
        <time>2023-05-28T09:12:42Z</time>
      </trkpt>
      <trkpt lat="45.77257" lon="5.30511">
        <ele>379.8</ele>
        <time>2023-05-28T09:12:43Z</time>
      </trkpt>
      <trkpt lat="45.77254" lon="5.30509">
        <ele>380</ele>
        <time>2023-05-28T09:12:44Z</time>
      </trkpt>
      <trkpt lat="45.77251" lon="5.30507">
        <ele>380.2</ele>
        <time>2023-05-28T09:12:45Z</time>
      </trkpt>
      <trkpt lat="45.77248" lon="5.30504">
        <ele>380.2</ele>
        <time>2023-05-28T09:12:46Z</time>
      </trkpt>
      <trkpt lat="45.77245" lon="5.30502">
        <ele>380.4</ele>
        <time>2023-05-28T09:12:47Z</time>
      </trkpt>
      <trkpt lat="45.77242" lon="5.305">
        <ele>380.6</ele>
        <time>2023-05-28T09:12:48Z</time>
      </trkpt>
      <trkpt lat="45.77239" lon="5.30497">
        <ele>381</ele>
        <time>2023-05-28T09:12:49Z</time>
      </trkpt>
      <trkpt lat="45.77233" lon="5.30488">
        <ele>381.4</ele>
        <time>2023-05-28T09:12:51Z</time>
      </trkpt>
      <trkpt lat="45.77231" lon="5.30483">
        <ele>381.6</ele>
        <time>2023-05-28T09:12:52Z</time>
      </trkpt>
      <trkpt lat="45.7723" lon="5.30478">
        <ele>382.4</ele>
        <time>2023-05-28T09:12:53Z</time>
      </trkpt>
      <trkpt lat="45.77229" lon="5.30473">
        <ele>382.6</ele>
        <time>2023-05-28T09:12:54Z</time>
      </trkpt>
      <trkpt lat="45.77228" lon="5.30468">
        <ele>382.8</ele>
        <time>2023-05-28T09:12:55Z</time>
      </trkpt>
      <trkpt lat="45.77227" lon="5.30463">
        <ele>383</ele>
        <time>2023-05-28T09:12:56Z</time>
      </trkpt>
      <trkpt lat="45.77226" lon="5.30457">
        <ele>383</ele>
        <time>2023-05-28T09:12:57Z</time>
      </trkpt>
      <trkpt lat="45.77225" lon="5.30452">
        <ele>383.2</ele>
        <time>2023-05-28T09:12:58Z</time>
      </trkpt>
      <trkpt lat="45.77224" lon="5.30446">
        <ele>383.2</ele>
        <time>2023-05-28T09:12:59Z</time>
      </trkpt>
      <trkpt lat="45.77224" lon="5.30441">
        <ele>383.4</ele>
        <time>2023-05-28T09:13:00Z</time>
      </trkpt>
      <trkpt lat="45.77223" lon="5.30435">
        <ele>383.4</ele>
        <time>2023-05-28T09:13:01Z</time>
      </trkpt>
      <trkpt lat="45.77223" lon="5.3043">
        <ele>383.4</ele>
        <time>2023-05-28T09:13:02Z</time>
      </trkpt>
      <trkpt lat="45.77222" lon="5.30424">
        <ele>383.6</ele>
        <time>2023-05-28T09:13:03Z</time>
      </trkpt>
      <trkpt lat="45.77222" lon="5.30419">
        <ele>383.8</ele>
        <time>2023-05-28T09:13:04Z</time>
      </trkpt>
      <trkpt lat="45.77221" lon="5.30413">
        <ele>383.8</ele>
        <time>2023-05-28T09:13:05Z</time>
      </trkpt>
      <trkpt lat="45.77221" lon="5.30408">
        <ele>384</ele>
        <time>2023-05-28T09:13:06Z</time>
      </trkpt>
      <trkpt lat="45.7722" lon="5.30402">
        <ele>384.4</ele>
        <time>2023-05-28T09:13:07Z</time>
      </trkpt>
      <trkpt lat="45.7722" lon="5.30397">
        <ele>384.6</ele>
        <time>2023-05-28T09:13:08Z</time>
      </trkpt>
      <trkpt lat="45.7722" lon="5.30391">
        <ele>384.6</ele>
        <time>2023-05-28T09:13:09Z</time>
      </trkpt>
      <trkpt lat="45.7722" lon="5.30386">
        <ele>384.8</ele>
        <time>2023-05-28T09:13:10Z</time>
      </trkpt>
      <trkpt lat="45.77219" lon="5.30381">
        <ele>384.8</ele>
        <time>2023-05-28T09:13:11Z</time>
      </trkpt>
      <trkpt lat="45.77219" lon="5.30374">
        <ele>385.4</ele>
        <time>2023-05-28T09:13:12Z</time>
      </trkpt>
      <trkpt lat="45.77219" lon="5.30369">
        <ele>385.6</ele>
        <time>2023-05-28T09:13:13Z</time>
      </trkpt>
      <trkpt lat="45.77219" lon="5.30363">
        <ele>385.8</ele>
        <time>2023-05-28T09:13:14Z</time>
      </trkpt>
      <trkpt lat="45.77219" lon="5.30358">
        <ele>385.8</ele>
        <time>2023-05-28T09:13:15Z</time>
      </trkpt>
      <trkpt lat="45.77219" lon="5.30352">
        <ele>386.2</ele>
        <time>2023-05-28T09:13:16Z</time>
      </trkpt>
      <trkpt lat="45.77219" lon="5.30347">
        <ele>386.4</ele>
        <time>2023-05-28T09:13:17Z</time>
      </trkpt>
      <trkpt lat="45.77218" lon="5.30341">
        <ele>386.8</ele>
        <time>2023-05-28T09:13:18Z</time>
      </trkpt>
      <trkpt lat="45.77218" lon="5.30335">
        <ele>387</ele>
        <time>2023-05-28T09:13:19Z</time>
      </trkpt>
      <trkpt lat="45.77218" lon="5.30329">
        <ele>387.4</ele>
        <time>2023-05-28T09:13:20Z</time>
      </trkpt>
      <trkpt lat="45.77218" lon="5.30323">
        <ele>387.8</ele>
        <time>2023-05-28T09:13:21Z</time>
      </trkpt>
      <trkpt lat="45.77218" lon="5.30317">
        <ele>388</ele>
        <time>2023-05-28T09:13:22Z</time>
      </trkpt>
      <trkpt lat="45.77217" lon="5.30311">
        <ele>388.2</ele>
        <time>2023-05-28T09:13:23Z</time>
      </trkpt>
      <trkpt lat="45.77217" lon="5.30305">
        <ele>388.4</ele>
        <time>2023-05-28T09:13:24Z</time>
      </trkpt>
      <trkpt lat="45.77217" lon="5.30298">
        <ele>388.8</ele>
        <time>2023-05-28T09:13:25Z</time>
      </trkpt>
      <trkpt lat="45.77217" lon="5.30292">
        <ele>389</ele>
        <time>2023-05-28T09:13:26Z</time>
      </trkpt>
      <trkpt lat="45.77217" lon="5.30286">
        <ele>389.6</ele>
        <time>2023-05-28T09:13:27Z</time>
      </trkpt>
      <trkpt lat="45.77218" lon="5.3028">
        <ele>390</ele>
        <time>2023-05-28T09:13:28Z</time>
      </trkpt>
      <trkpt lat="45.77218" lon="5.30273">
        <ele>390</ele>
        <time>2023-05-28T09:13:29Z</time>
      </trkpt>
      <trkpt lat="45.77218" lon="5.30267">
        <ele>390.8</ele>
        <time>2023-05-28T09:13:30Z</time>
      </trkpt>
      <trkpt lat="45.77218" lon="5.30261">
        <ele>391.2</ele>
        <time>2023-05-28T09:13:31Z</time>
      </trkpt>
      <trkpt lat="45.77219" lon="5.30255">
        <ele>391.4</ele>
        <time>2023-05-28T09:13:32Z</time>
      </trkpt>
      <trkpt lat="45.77219" lon="5.3025">
        <ele>391.8</ele>
        <time>2023-05-28T09:13:33Z</time>
      </trkpt>
      <trkpt lat="45.77219" lon="5.30244">
        <ele>392</ele>
        <time>2023-05-28T09:13:34Z</time>
      </trkpt>
      <trkpt lat="45.77219" lon="5.30239">
        <ele>392.6</ele>
        <time>2023-05-28T09:13:35Z</time>
      </trkpt>
      <trkpt lat="45.77219" lon="5.30233">
        <ele>392.8</ele>
        <time>2023-05-28T09:13:36Z</time>
      </trkpt>
      <trkpt lat="45.77218" lon="5.30228">
        <ele>393.2</ele>
        <time>2023-05-28T09:13:37Z</time>
      </trkpt>
      <trkpt lat="45.77218" lon="5.30222">
        <ele>393.4</ele>
        <time>2023-05-28T09:13:38Z</time>
      </trkpt>
      <trkpt lat="45.77217" lon="5.30217">
        <ele>394</ele>
        <time>2023-05-28T09:13:39Z</time>
      </trkpt>
      <trkpt lat="45.77215" lon="5.30212">
        <ele>394.4</ele>
        <time>2023-05-28T09:13:40Z</time>
      </trkpt>
      <trkpt lat="45.77214" lon="5.30207">
        <ele>394.6</ele>
        <time>2023-05-28T09:13:41Z</time>
      </trkpt>
      <trkpt lat="45.77213" lon="5.30202">
        <ele>394.8</ele>
        <time>2023-05-28T09:13:42Z</time>
      </trkpt>
      <trkpt lat="45.77211" lon="5.30197">
        <ele>395</ele>
        <time>2023-05-28T09:13:43Z</time>
      </trkpt>
      <trkpt lat="45.77209" lon="5.30192">
        <ele>395.4</ele>
        <time>2023-05-28T09:13:44Z</time>
      </trkpt>
      <trkpt lat="45.77207" lon="5.30188">
        <ele>395.6</ele>
        <time>2023-05-28T09:13:45Z</time>
      </trkpt>
      <trkpt lat="45.77203" lon="5.30183">
        <ele>395.8</ele>
        <time>2023-05-28T09:13:46Z</time>
      </trkpt>
      <trkpt lat="45.772" lon="5.3018">
        <ele>395.8</ele>
        <time>2023-05-28T09:13:47Z</time>
      </trkpt>
      <trkpt lat="45.77197" lon="5.30176">
        <ele>396.2</ele>
        <time>2023-05-28T09:13:48Z</time>
      </trkpt>
      <trkpt lat="45.77194" lon="5.30172">
        <ele>396.4</ele>
        <time>2023-05-28T09:13:49Z</time>
      </trkpt>
      <trkpt lat="45.7719" lon="5.30169">
        <ele>396.6</ele>
        <time>2023-05-28T09:13:50Z</time>
      </trkpt>
      <trkpt lat="45.77187" lon="5.30165">
        <ele>396.8</ele>
        <time>2023-05-28T09:13:51Z</time>
      </trkpt>
      <trkpt lat="45.77183" lon="5.30162">
        <ele>397</ele>
        <time>2023-05-28T09:13:52Z</time>
      </trkpt>
      <trkpt lat="45.7718" lon="5.30158">
        <ele>397</ele>
        <time>2023-05-28T09:13:53Z</time>
      </trkpt>
      <trkpt lat="45.77176" lon="5.30154">
        <ele>397</ele>
        <time>2023-05-28T09:13:54Z</time>
      </trkpt>
      <trkpt lat="45.77173" lon="5.3015">
        <ele>397.2</ele>
        <time>2023-05-28T09:13:55Z</time>
      </trkpt>
      <trkpt lat="45.7717" lon="5.30146">
        <ele>397.2</ele>
        <time>2023-05-28T09:13:56Z</time>
      </trkpt>
      <trkpt lat="45.77166" lon="5.30142">
        <ele>397.4</ele>
        <time>2023-05-28T09:13:57Z</time>
      </trkpt>
      <trkpt lat="45.77163" lon="5.30138">
        <ele>397.6</ele>
        <time>2023-05-28T09:13:58Z</time>
      </trkpt>
      <trkpt lat="45.7716" lon="5.30133">
        <ele>397.8</ele>
        <time>2023-05-28T09:13:59Z</time>
      </trkpt>
      <trkpt lat="45.77157" lon="5.30128">
        <ele>397.8</ele>
        <time>2023-05-28T09:14:00Z</time>
      </trkpt>
      <trkpt lat="45.77155" lon="5.30124">
        <ele>398</ele>
        <time>2023-05-28T09:14:01Z</time>
      </trkpt>
      <trkpt lat="45.77152" lon="5.30119">
        <ele>398.2</ele>
        <time>2023-05-28T09:14:02Z</time>
      </trkpt>
      <trkpt lat="45.77149" lon="5.30114">
        <ele>398.2</ele>
        <time>2023-05-28T09:14:03Z</time>
      </trkpt>
      <trkpt lat="45.77147" lon="5.30109">
        <ele>398.6</ele>
        <time>2023-05-28T09:14:04Z</time>
      </trkpt>
      <trkpt lat="45.77145" lon="5.30103">
        <ele>398.8</ele>
        <time>2023-05-28T09:14:05Z</time>
      </trkpt>
      <trkpt lat="45.77141" lon="5.30092">
        <ele>399.6</ele>
        <time>2023-05-28T09:14:07Z</time>
      </trkpt>
      <trkpt lat="45.77139" lon="5.30087">
        <ele>399.6</ele>
        <time>2023-05-28T09:14:08Z</time>
      </trkpt>
      <trkpt lat="45.77138" lon="5.30081">
        <ele>399.8</ele>
        <time>2023-05-28T09:14:09Z</time>
      </trkpt>
      <trkpt lat="45.77137" lon="5.30075">
        <ele>400</ele>
        <time>2023-05-28T09:14:10Z</time>
      </trkpt>
      <trkpt lat="45.77136" lon="5.30069">
        <ele>400</ele>
        <time>2023-05-28T09:14:11Z</time>
      </trkpt>
      <trkpt lat="45.77134" lon="5.30063">
        <ele>400.2</ele>
        <time>2023-05-28T09:14:12Z</time>
      </trkpt>
      <trkpt lat="45.77133" lon="5.30057">
        <ele>400.2</ele>
        <time>2023-05-28T09:14:13Z</time>
      </trkpt>
      <trkpt lat="45.77132" lon="5.30051">
        <ele>400.4</ele>
        <time>2023-05-28T09:14:14Z</time>
      </trkpt>
      <trkpt lat="45.77131" lon="5.30046">
        <ele>400.4</ele>
        <time>2023-05-28T09:14:15Z</time>
      </trkpt>
      <trkpt lat="45.77128" lon="5.30034">
        <ele>400.6</ele>
        <time>2023-05-28T09:14:17Z</time>
      </trkpt>
      <trkpt lat="45.77127" lon="5.30028">
        <ele>400.8</ele>
        <time>2023-05-28T09:14:18Z</time>
      </trkpt>
      <trkpt lat="45.77126" lon="5.30023">
        <ele>400.8</ele>
        <time>2023-05-28T09:14:19Z</time>
      </trkpt>
      <trkpt lat="45.77125" lon="5.30017">
        <ele>401</ele>
        <time>2023-05-28T09:14:20Z</time>
      </trkpt>
      <trkpt lat="45.77124" lon="5.3001">
        <ele>401</ele>
        <time>2023-05-28T09:14:21Z</time>
      </trkpt>
      <trkpt lat="45.77123" lon="5.30004">
        <ele>401</ele>
        <time>2023-05-28T09:14:22Z</time>
      </trkpt>
      <trkpt lat="45.77121" lon="5.29998">
        <ele>401.2</ele>
        <time>2023-05-28T09:14:23Z</time>
      </trkpt>
      <trkpt lat="45.77118" lon="5.29987">
        <ele>401.4</ele>
        <time>2023-05-28T09:14:25Z</time>
      </trkpt>
      <trkpt lat="45.77116" lon="5.29982">
        <ele>401.6</ele>
        <time>2023-05-28T09:14:26Z</time>
      </trkpt>
      <trkpt lat="45.77113" lon="5.29977">
        <ele>401.8</ele>
        <time>2023-05-28T09:14:27Z</time>
      </trkpt>
      <trkpt lat="45.77111" lon="5.29973">
        <ele>401.8</ele>
        <time>2023-05-28T09:14:28Z</time>
      </trkpt>
      <trkpt lat="45.77108" lon="5.29969">
        <ele>402</ele>
        <time>2023-05-28T09:14:29Z</time>
      </trkpt>
      <trkpt lat="45.77104" lon="5.29966">
        <ele>402</ele>
        <time>2023-05-28T09:14:30Z</time>
      </trkpt>
      <trkpt lat="45.77101" lon="5.29963">
        <ele>402</ele>
        <time>2023-05-28T09:14:31Z</time>
      </trkpt>
      <trkpt lat="45.77097" lon="5.29961">
        <ele>402</ele>
        <time>2023-05-28T09:14:32Z</time>
      </trkpt>
      <trkpt lat="45.77093" lon="5.29959">
        <ele>402</ele>
        <time>2023-05-28T09:14:33Z</time>
      </trkpt>
      <trkpt lat="45.7709" lon="5.29958">
        <ele>402.2</ele>
        <time>2023-05-28T09:14:34Z</time>
      </trkpt>
      <trkpt lat="45.77086" lon="5.29957">
        <ele>402.4</ele>
        <time>2023-05-28T09:14:35Z</time>
      </trkpt>
      <trkpt lat="45.77082" lon="5.29957">
        <ele>402.4</ele>
        <time>2023-05-28T09:14:36Z</time>
      </trkpt>
      <trkpt lat="45.77078" lon="5.29957">
        <ele>402.6</ele>
        <time>2023-05-28T09:14:37Z</time>
      </trkpt>
      <trkpt lat="45.77074" lon="5.29957">
        <ele>402.6</ele>
        <time>2023-05-28T09:14:38Z</time>
      </trkpt>
      <trkpt lat="45.7707" lon="5.29957">
        <ele>403</ele>
        <time>2023-05-28T09:14:39Z</time>
      </trkpt>
      <trkpt lat="45.77066" lon="5.29957">
        <ele>403</ele>
        <time>2023-05-28T09:14:40Z</time>
      </trkpt>
      <trkpt lat="45.77063" lon="5.29957">
        <ele>403.2</ele>
        <time>2023-05-28T09:14:41Z</time>
      </trkpt>
      <trkpt lat="45.7706" lon="5.29957">
        <ele>403.4</ele>
        <time>2023-05-28T09:14:42Z</time>
      </trkpt>
      <trkpt lat="45.77056" lon="5.29956">
        <ele>403.8</ele>
        <time>2023-05-28T09:14:43Z</time>
      </trkpt>
      <trkpt lat="45.77052" lon="5.29956">
        <ele>403.8</ele>
        <time>2023-05-28T09:14:44Z</time>
      </trkpt>
      <trkpt lat="45.77048" lon="5.29956">
        <ele>404</ele>
        <time>2023-05-28T09:14:45Z</time>
      </trkpt>
      <trkpt lat="45.77044" lon="5.29956">
        <ele>404.2</ele>
        <time>2023-05-28T09:14:46Z</time>
      </trkpt>
      <trkpt lat="45.77041" lon="5.29956">
        <ele>404.2</ele>
        <time>2023-05-28T09:14:47Z</time>
      </trkpt>
      <trkpt lat="45.77037" lon="5.29956">
        <ele>404.4</ele>
        <time>2023-05-28T09:14:48Z</time>
      </trkpt>
      <trkpt lat="45.77034" lon="5.29956">
        <ele>404.6</ele>
        <time>2023-05-28T09:14:49Z</time>
      </trkpt>
      <trkpt lat="45.7703" lon="5.29956">
        <ele>405</ele>
        <time>2023-05-28T09:14:50Z</time>
      </trkpt>
      <trkpt lat="45.77027" lon="5.29957">
        <ele>405</ele>
        <time>2023-05-28T09:14:51Z</time>
      </trkpt>
      <trkpt lat="45.77024" lon="5.29957">
        <ele>405</ele>
        <time>2023-05-28T09:14:52Z</time>
      </trkpt>
      <trkpt lat="45.7702" lon="5.29958">
        <ele>405</ele>
        <time>2023-05-28T09:14:53Z</time>
      </trkpt>
      <trkpt lat="45.77017" lon="5.29958">
        <ele>405.4</ele>
        <time>2023-05-28T09:14:54Z</time>
      </trkpt>
      <trkpt lat="45.77013" lon="5.29959">
        <ele>405.8</ele>
        <time>2023-05-28T09:14:55Z</time>
      </trkpt>
      <trkpt lat="45.77009" lon="5.29959">
        <ele>406</ele>
        <time>2023-05-28T09:14:56Z</time>
      </trkpt>
      <trkpt lat="45.77006" lon="5.2996">
        <ele>406.4</ele>
        <time>2023-05-28T09:14:57Z</time>
      </trkpt>
      <trkpt lat="45.77002" lon="5.29961">
        <ele>406.4</ele>
        <time>2023-05-28T09:14:58Z</time>
      </trkpt>
      <trkpt lat="45.76998" lon="5.29962">
        <ele>406.8</ele>
        <time>2023-05-28T09:14:59Z</time>
      </trkpt>
      <trkpt lat="45.76994" lon="5.29963">
        <ele>406.8</ele>
        <time>2023-05-28T09:15:00Z</time>
      </trkpt>
      <trkpt lat="45.7699" lon="5.29964">
        <ele>407.4</ele>
        <time>2023-05-28T09:15:01Z</time>
      </trkpt>
      <trkpt lat="45.76986" lon="5.29965">
        <ele>407.6</ele>
        <time>2023-05-28T09:15:02Z</time>
      </trkpt>
      <trkpt lat="45.76982" lon="5.29966">
        <ele>407.8</ele>
        <time>2023-05-28T09:15:03Z</time>
      </trkpt>
      <trkpt lat="45.76978" lon="5.29966">
        <ele>408.4</ele>
        <time>2023-05-28T09:15:04Z</time>
      </trkpt>
      <trkpt lat="45.76974" lon="5.29967">
        <ele>408.6</ele>
        <time>2023-05-28T09:15:05Z</time>
      </trkpt>
      <trkpt lat="45.7697" lon="5.29968">
        <ele>409</ele>
        <time>2023-05-28T09:15:06Z</time>
      </trkpt>
      <trkpt lat="45.76966" lon="5.29968">
        <ele>409</ele>
        <time>2023-05-28T09:15:07Z</time>
      </trkpt>
      <trkpt lat="45.76963" lon="5.29968">
        <ele>409.4</ele>
        <time>2023-05-28T09:15:08Z</time>
      </trkpt>
      <trkpt lat="45.76959" lon="5.29968">
        <ele>409.6</ele>
        <time>2023-05-28T09:15:09Z</time>
      </trkpt>
      <trkpt lat="45.76955" lon="5.29968">
        <ele>409.8</ele>
        <time>2023-05-28T09:15:10Z</time>
      </trkpt>
      <trkpt lat="45.76951" lon="5.29968">
        <ele>410.2</ele>
        <time>2023-05-28T09:15:11Z</time>
      </trkpt>
      <trkpt lat="45.76947" lon="5.29967">
        <ele>410.4</ele>
        <time>2023-05-28T09:15:12Z</time>
      </trkpt>
      <trkpt lat="45.76943" lon="5.29967">
        <ele>411.2</ele>
        <time>2023-05-28T09:15:13Z</time>
      </trkpt>
      <trkpt lat="45.76939" lon="5.29966">
        <ele>411.4</ele>
        <time>2023-05-28T09:15:14Z</time>
      </trkpt>
      <trkpt lat="45.76935" lon="5.29966">
        <ele>411.8</ele>
        <time>2023-05-28T09:15:15Z</time>
      </trkpt>
      <trkpt lat="45.76931" lon="5.29965">
        <ele>412</ele>
        <time>2023-05-28T09:15:16Z</time>
      </trkpt>
      <trkpt lat="45.76927" lon="5.29964">
        <ele>412.4</ele>
        <time>2023-05-28T09:15:17Z</time>
      </trkpt>
      <trkpt lat="45.76923" lon="5.29963">
        <ele>412.8</ele>
        <time>2023-05-28T09:15:18Z</time>
      </trkpt>
      <trkpt lat="45.76919" lon="5.29963">
        <ele>413.2</ele>
        <time>2023-05-28T09:15:19Z</time>
      </trkpt>
      <trkpt lat="45.76915" lon="5.29962">
        <ele>413.4</ele>
        <time>2023-05-28T09:15:20Z</time>
      </trkpt>
      <trkpt lat="45.7691" lon="5.29962">
        <ele>413.6</ele>
        <time>2023-05-28T09:15:21Z</time>
      </trkpt>
      <trkpt lat="45.76906" lon="5.29961">
        <ele>413.6</ele>
        <time>2023-05-28T09:15:22Z</time>
      </trkpt>
      <trkpt lat="45.76901" lon="5.2996">
        <ele>413.8</ele>
        <time>2023-05-28T09:15:23Z</time>
      </trkpt>
      <trkpt lat="45.76896" lon="5.29959">
        <ele>414.2</ele>
        <time>2023-05-28T09:15:24Z</time>
      </trkpt>
      <trkpt lat="45.76892" lon="5.29958">
        <ele>414.4</ele>
        <time>2023-05-28T09:15:25Z</time>
      </trkpt>
      <trkpt lat="45.76887" lon="5.29958">
        <ele>414.6</ele>
        <time>2023-05-28T09:15:26Z</time>
      </trkpt>
      <trkpt lat="45.76882" lon="5.29957">
        <ele>415</ele>
        <time>2023-05-28T09:15:27Z</time>
      </trkpt>
      <trkpt lat="45.76876" lon="5.29956">
        <ele>415</ele>
        <time>2023-05-28T09:15:28Z</time>
      </trkpt>
      <trkpt lat="45.76871" lon="5.29956">
        <ele>415.2</ele>
        <time>2023-05-28T09:15:29Z</time>
      </trkpt>
      <trkpt lat="45.76865" lon="5.29955">
        <ele>415.4</ele>
        <time>2023-05-28T09:15:30Z</time>
      </trkpt>
      <trkpt lat="45.7686" lon="5.29954">
        <ele>415.4</ele>
        <time>2023-05-28T09:15:31Z</time>
      </trkpt>
      <trkpt lat="45.76855" lon="5.29954">
        <ele>415.6</ele>
        <time>2023-05-28T09:15:32Z</time>
      </trkpt>
      <trkpt lat="45.76849" lon="5.29953">
        <ele>415.8</ele>
        <time>2023-05-28T09:15:33Z</time>
      </trkpt>
      <trkpt lat="45.76843" lon="5.29952">
        <ele>416</ele>
        <time>2023-05-28T09:15:34Z</time>
      </trkpt>
      <trkpt lat="45.76838" lon="5.29952">
        <ele>416</ele>
        <time>2023-05-28T09:15:35Z</time>
      </trkpt>
      <trkpt lat="45.76832" lon="5.29951">
        <ele>416</ele>
        <time>2023-05-28T09:15:36Z</time>
      </trkpt>
      <trkpt lat="45.76827" lon="5.2995">
        <ele>416</ele>
        <time>2023-05-28T09:15:37Z</time>
      </trkpt>
      <trkpt lat="45.76821" lon="5.2995">
        <ele>416.2</ele>
        <time>2023-05-28T09:15:38Z</time>
      </trkpt>
      <trkpt lat="45.76815" lon="5.29949">
        <ele>416.2</ele>
        <time>2023-05-28T09:15:39Z</time>
      </trkpt>
      <trkpt lat="45.76809" lon="5.29948">
        <ele>416.4</ele>
        <time>2023-05-28T09:15:40Z</time>
      </trkpt>
      <trkpt lat="45.76804" lon="5.29947">
        <ele>416.4</ele>
        <time>2023-05-28T09:15:41Z</time>
      </trkpt>
      <trkpt lat="45.76798" lon="5.29946">
        <ele>416.6</ele>
        <time>2023-05-28T09:15:42Z</time>
      </trkpt>
      <trkpt lat="45.76792" lon="5.29946">
        <ele>416.6</ele>
        <time>2023-05-28T09:15:43Z</time>
      </trkpt>
      <trkpt lat="45.76785" lon="5.29945">
        <ele>416.6</ele>
        <time>2023-05-28T09:15:44Z</time>
      </trkpt>
      <trkpt lat="45.76779" lon="5.29944">
        <ele>416.8</ele>
        <time>2023-05-28T09:15:45Z</time>
      </trkpt>
      <trkpt lat="45.76773" lon="5.29942">
        <ele>416.8</ele>
        <time>2023-05-28T09:15:46Z</time>
      </trkpt>
      <trkpt lat="45.76768" lon="5.29939">
        <ele>417</ele>
        <time>2023-05-28T09:15:47Z</time>
      </trkpt>
      <trkpt lat="45.76762" lon="5.29935">
        <ele>417</ele>
        <time>2023-05-28T09:15:48Z</time>
      </trkpt>
      <trkpt lat="45.76756" lon="5.29931">
        <ele>417</ele>
        <time>2023-05-28T09:15:49Z</time>
      </trkpt>
      <trkpt lat="45.76751" lon="5.29927">
        <ele>417.2</ele>
        <time>2023-05-28T09:15:50Z</time>
      </trkpt>
      <trkpt lat="45.76745" lon="5.29923">
        <ele>417.2</ele>
        <time>2023-05-28T09:15:51Z</time>
      </trkpt>
      <trkpt lat="45.7674" lon="5.29919">
        <ele>417.2</ele>
        <time>2023-05-28T09:15:52Z</time>
      </trkpt>
      <trkpt lat="45.76735" lon="5.29914">
        <ele>417.2</ele>
        <time>2023-05-28T09:15:53Z</time>
      </trkpt>
      <trkpt lat="45.7673" lon="5.29909">
        <ele>417.6</ele>
        <time>2023-05-28T09:15:54Z</time>
      </trkpt>
      <trkpt lat="45.76724" lon="5.29903">
        <ele>417.6</ele>
        <time>2023-05-28T09:15:55Z</time>
      </trkpt>
      <trkpt lat="45.7672" lon="5.29897">
        <ele>417.8</ele>
        <time>2023-05-28T09:15:56Z</time>
      </trkpt>
      <trkpt lat="45.76715" lon="5.2989">
        <ele>418</ele>
        <time>2023-05-28T09:15:57Z</time>
      </trkpt>
      <trkpt lat="45.7671" lon="5.29883">
        <ele>418</ele>
        <time>2023-05-28T09:15:58Z</time>
      </trkpt>
      <trkpt lat="45.76705" lon="5.29877">
        <ele>418</ele>
        <time>2023-05-28T09:15:59Z</time>
      </trkpt>
      <trkpt lat="45.767" lon="5.2987">
        <ele>418.2</ele>
        <time>2023-05-28T09:16:00Z</time>
      </trkpt>
      <trkpt lat="45.76695" lon="5.29863">
        <ele>418.2</ele>
        <time>2023-05-28T09:16:01Z</time>
      </trkpt>
      <trkpt lat="45.76688" lon="5.29858">
        <ele>418.2</ele>
        <time>2023-05-28T09:16:02Z</time>
      </trkpt>
      <trkpt lat="45.76681" lon="5.29853">
        <ele>418.2</ele>
        <time>2023-05-28T09:16:03Z</time>
      </trkpt>
      <trkpt lat="45.76673" lon="5.29849">
        <ele>418.2</ele>
        <time>2023-05-28T09:16:04Z</time>
      </trkpt>
      <trkpt lat="45.76665" lon="5.29846">
        <ele>418.2</ele>
        <time>2023-05-28T09:16:05Z</time>
      </trkpt>
      <trkpt lat="45.76657" lon="5.29843">
        <ele>418.2</ele>
        <time>2023-05-28T09:16:06Z</time>
      </trkpt>
      <trkpt lat="45.7665" lon="5.2984">
        <ele>418.2</ele>
        <time>2023-05-28T09:16:07Z</time>
      </trkpt>
      <trkpt lat="45.76642" lon="5.29836">
        <ele>418.4</ele>
        <time>2023-05-28T09:16:08Z</time>
      </trkpt>
      <trkpt lat="45.76634" lon="5.29832">
        <ele>418.4</ele>
        <time>2023-05-28T09:16:09Z</time>
      </trkpt>
      <trkpt lat="45.76626" lon="5.29829">
        <ele>418.4</ele>
        <time>2023-05-28T09:16:10Z</time>
      </trkpt>
      <trkpt lat="45.76618" lon="5.29826">
        <ele>418.4</ele>
        <time>2023-05-28T09:16:11Z</time>
      </trkpt>
      <trkpt lat="45.7661" lon="5.29824">
        <ele>418.2</ele>
        <time>2023-05-28T09:16:12Z</time>
      </trkpt>
      <trkpt lat="45.76602" lon="5.29821">
        <ele>418.2</ele>
        <time>2023-05-28T09:16:13Z</time>
      </trkpt>
      <trkpt lat="45.76594" lon="5.29819">
        <ele>418.2</ele>
        <time>2023-05-28T09:16:14Z</time>
      </trkpt>
      <trkpt lat="45.76586" lon="5.29817">
        <ele>418.2</ele>
        <time>2023-05-28T09:16:15Z</time>
      </trkpt>
      <trkpt lat="45.76578" lon="5.29814">
        <ele>418.2</ele>
        <time>2023-05-28T09:16:16Z</time>
      </trkpt>
      <trkpt lat="45.76571" lon="5.2981">
        <ele>418.4</ele>
        <time>2023-05-28T09:16:17Z</time>
      </trkpt>
      <trkpt lat="45.76564" lon="5.29806">
        <ele>418.4</ele>
        <time>2023-05-28T09:16:18Z</time>
      </trkpt>
      <trkpt lat="45.76557" lon="5.29801">
        <ele>418.6</ele>
        <time>2023-05-28T09:16:19Z</time>
      </trkpt>
      <trkpt lat="45.76551" lon="5.29795">
        <ele>418.6</ele>
        <time>2023-05-28T09:16:20Z</time>
      </trkpt>
      <trkpt lat="45.76545" lon="5.29789">
        <ele>418.8</ele>
        <time>2023-05-28T09:16:21Z</time>
      </trkpt>
      <trkpt lat="45.76535" lon="5.29773">
        <ele>419.4</ele>
        <time>2023-05-28T09:16:23Z</time>
      </trkpt>
      <trkpt lat="45.7653" lon="5.29765">
        <ele>419.4</ele>
        <time>2023-05-28T09:16:24Z</time>
      </trkpt>
      <trkpt lat="45.76525" lon="5.29757">
        <ele>419.4</ele>
        <time>2023-05-28T09:16:25Z</time>
      </trkpt>
      <trkpt lat="45.7652" lon="5.2975">
        <ele>419.6</ele>
        <time>2023-05-28T09:16:26Z</time>
      </trkpt>
      <trkpt lat="45.76514" lon="5.29744">
        <ele>419.6</ele>
        <time>2023-05-28T09:16:27Z</time>
      </trkpt>
      <trkpt lat="45.76507" lon="5.29738">
        <ele>419.8</ele>
        <time>2023-05-28T09:16:28Z</time>
      </trkpt>
      <trkpt lat="45.76501" lon="5.29734">
        <ele>419.8</ele>
        <time>2023-05-28T09:16:29Z</time>
      </trkpt>
      <trkpt lat="45.76494" lon="5.2973">
        <ele>419.8</ele>
        <time>2023-05-28T09:16:30Z</time>
      </trkpt>
      <trkpt lat="45.76487" lon="5.29725">
        <ele>419.8</ele>
        <time>2023-05-28T09:16:31Z</time>
      </trkpt>
      <trkpt lat="45.7648" lon="5.29721">
        <ele>420</ele>
        <time>2023-05-28T09:16:32Z</time>
      </trkpt>
      <trkpt lat="45.76473" lon="5.29717">
        <ele>420</ele>
        <time>2023-05-28T09:16:33Z</time>
      </trkpt>
      <trkpt lat="45.76467" lon="5.29713">
        <ele>420</ele>
        <time>2023-05-28T09:16:34Z</time>
      </trkpt>
      <trkpt lat="45.7646" lon="5.2971">
        <ele>420.2</ele>
        <time>2023-05-28T09:16:35Z</time>
      </trkpt>
      <trkpt lat="45.76454" lon="5.29707">
        <ele>420</ele>
        <time>2023-05-28T09:16:36Z</time>
      </trkpt>
      <trkpt lat="45.76441" lon="5.29702">
        <ele>420.2</ele>
        <time>2023-05-28T09:16:38Z</time>
      </trkpt>
      <trkpt lat="45.76435" lon="5.297">
        <ele>420</ele>
        <time>2023-05-28T09:16:39Z</time>
      </trkpt>
      <trkpt lat="45.76429" lon="5.29699">
        <ele>420.2</ele>
        <time>2023-05-28T09:16:40Z</time>
      </trkpt>
      <trkpt lat="45.76423" lon="5.29696">
        <ele>420.2</ele>
        <time>2023-05-28T09:16:41Z</time>
      </trkpt>
      <trkpt lat="45.76418" lon="5.29694">
        <ele>420.2</ele>
        <time>2023-05-28T09:16:42Z</time>
      </trkpt>
      <trkpt lat="45.76412" lon="5.29691">
        <ele>420.2</ele>
        <time>2023-05-28T09:16:43Z</time>
      </trkpt>
      <trkpt lat="45.76402" lon="5.29686">
        <ele>420.2</ele>
        <time>2023-05-28T09:16:45Z</time>
      </trkpt>
      <trkpt lat="45.76397" lon="5.29684">
        <ele>420.2</ele>
        <time>2023-05-28T09:16:46Z</time>
      </trkpt>
      <trkpt lat="45.76392" lon="5.29681">
        <ele>420.2</ele>
        <time>2023-05-28T09:16:47Z</time>
      </trkpt>
      <trkpt lat="45.76387" lon="5.29678">
        <ele>420.2</ele>
        <time>2023-05-28T09:16:48Z</time>
      </trkpt>
      <trkpt lat="45.76382" lon="5.29675">
        <ele>420.4</ele>
        <time>2023-05-28T09:16:49Z</time>
      </trkpt>
      <trkpt lat="45.76377" lon="5.29672">
        <ele>420.6</ele>
        <time>2023-05-28T09:16:50Z</time>
      </trkpt>
      <trkpt lat="45.76372" lon="5.29668">
        <ele>420.6</ele>
        <time>2023-05-28T09:16:51Z</time>
      </trkpt>
      <trkpt lat="45.76367" lon="5.29665">
        <ele>420.8</ele>
        <time>2023-05-28T09:16:52Z</time>
      </trkpt>
      <trkpt lat="45.76362" lon="5.29662">
        <ele>421</ele>
        <time>2023-05-28T09:16:53Z</time>
      </trkpt>
      <trkpt lat="45.76358" lon="5.29658">
        <ele>421.2</ele>
        <time>2023-05-28T09:16:54Z</time>
      </trkpt>
      <trkpt lat="45.76353" lon="5.29654">
        <ele>421.2</ele>
        <time>2023-05-28T09:16:55Z</time>
      </trkpt>
      <trkpt lat="45.76348" lon="5.2965">
        <ele>421.6</ele>
        <time>2023-05-28T09:16:56Z</time>
      </trkpt>
      <trkpt lat="45.76344" lon="5.29645">
        <ele>421.6</ele>
        <time>2023-05-28T09:16:57Z</time>
      </trkpt>
      <trkpt lat="45.76339" lon="5.29641">
        <ele>421.8</ele>
        <time>2023-05-28T09:16:58Z</time>
      </trkpt>
      <trkpt lat="45.76334" lon="5.29637">
        <ele>422</ele>
        <time>2023-05-28T09:16:59Z</time>
      </trkpt>
      <trkpt lat="45.7633" lon="5.29633">
        <ele>422</ele>
        <time>2023-05-28T09:17:00Z</time>
      </trkpt>
      <trkpt lat="45.76325" lon="5.2963">
        <ele>422</ele>
        <time>2023-05-28T09:17:01Z</time>
      </trkpt>
      <trkpt lat="45.7632" lon="5.29626">
        <ele>422</ele>
        <time>2023-05-28T09:17:02Z</time>
      </trkpt>
      <trkpt lat="45.76315" lon="5.29623">
        <ele>422.2</ele>
        <time>2023-05-28T09:17:03Z</time>
      </trkpt>
      <trkpt lat="45.7631" lon="5.29619">
        <ele>422.2</ele>
        <time>2023-05-28T09:17:04Z</time>
      </trkpt>
      <trkpt lat="45.76305" lon="5.29615">
        <ele>422.2</ele>
        <time>2023-05-28T09:17:05Z</time>
      </trkpt>
      <trkpt lat="45.763" lon="5.2961">
        <ele>422.4</ele>
        <time>2023-05-28T09:17:06Z</time>
      </trkpt>
      <trkpt lat="45.76296" lon="5.29606">
        <ele>422.6</ele>
        <time>2023-05-28T09:17:07Z</time>
      </trkpt>
      <trkpt lat="45.76291" lon="5.29601">
        <ele>422.6</ele>
        <time>2023-05-28T09:17:08Z</time>
      </trkpt>
      <trkpt lat="45.76286" lon="5.29596">
        <ele>422.8</ele>
        <time>2023-05-28T09:17:09Z</time>
      </trkpt>
      <trkpt lat="45.76282" lon="5.29591">
        <ele>423</ele>
        <time>2023-05-28T09:17:10Z</time>
      </trkpt>
      <trkpt lat="45.76277" lon="5.29586">
        <ele>423.2</ele>
        <time>2023-05-28T09:17:11Z</time>
      </trkpt>
      <trkpt lat="45.76272" lon="5.2958">
        <ele>423.4</ele>
        <time>2023-05-28T09:17:12Z</time>
      </trkpt>
      <trkpt lat="45.76267" lon="5.29575">
        <ele>423.4</ele>
        <time>2023-05-28T09:17:13Z</time>
      </trkpt>
      <trkpt lat="45.76262" lon="5.2957">
        <ele>423.4</ele>
        <time>2023-05-28T09:17:14Z</time>
      </trkpt>
      <trkpt lat="45.76258" lon="5.29565">
        <ele>423.6</ele>
        <time>2023-05-28T09:17:15Z</time>
      </trkpt>
      <trkpt lat="45.76252" lon="5.2956">
        <ele>423.6</ele>
        <time>2023-05-28T09:17:16Z</time>
      </trkpt>
      <trkpt lat="45.76246" lon="5.29555">
        <ele>423.8</ele>
        <time>2023-05-28T09:17:17Z</time>
      </trkpt>
      <trkpt lat="45.7624" lon="5.2955">
        <ele>423.8</ele>
        <time>2023-05-28T09:17:18Z</time>
      </trkpt>
      <trkpt lat="45.76234" lon="5.29546">
        <ele>423.8</ele>
        <time>2023-05-28T09:17:19Z</time>
      </trkpt>
      <trkpt lat="45.76227" lon="5.29542">
        <ele>423.8</ele>
        <time>2023-05-28T09:17:20Z</time>
      </trkpt>
      <trkpt lat="45.76214" lon="5.29534">
        <ele>423.6</ele>
        <time>2023-05-28T09:17:22Z</time>
      </trkpt>
      <trkpt lat="45.76208" lon="5.29531">
        <ele>423.6</ele>
        <time>2023-05-28T09:17:23Z</time>
      </trkpt>
      <trkpt lat="45.76201" lon="5.29528">
        <ele>423.6</ele>
        <time>2023-05-28T09:17:24Z</time>
      </trkpt>
      <trkpt lat="45.76194" lon="5.29525">
        <ele>423.6</ele>
        <time>2023-05-28T09:17:25Z</time>
      </trkpt>
      <trkpt lat="45.76187" lon="5.29521">
        <ele>423.6</ele>
        <time>2023-05-28T09:17:26Z</time>
      </trkpt>
      <trkpt lat="45.76181" lon="5.29519">
        <ele>423.4</ele>
        <time>2023-05-28T09:17:27Z</time>
      </trkpt>
      <trkpt lat="45.76175" lon="5.29516">
        <ele>423.4</ele>
        <time>2023-05-28T09:17:28Z</time>
      </trkpt>
      <trkpt lat="45.76168" lon="5.29514">
        <ele>423.4</ele>
        <time>2023-05-28T09:17:29Z</time>
      </trkpt>
      <trkpt lat="45.76162" lon="5.29511">
        <ele>423.6</ele>
        <time>2023-05-28T09:17:30Z</time>
      </trkpt>
      <trkpt lat="45.76156" lon="5.29509">
        <ele>423.6</ele>
        <time>2023-05-28T09:17:31Z</time>
      </trkpt>
      <trkpt lat="45.7615" lon="5.29508">
        <ele>423.8</ele>
        <time>2023-05-28T09:17:32Z</time>
      </trkpt>
      <trkpt lat="45.76144" lon="5.29507">
        <ele>424</ele>
        <time>2023-05-28T09:17:33Z</time>
      </trkpt>
      <trkpt lat="45.76138" lon="5.29506">
        <ele>423.8</ele>
        <time>2023-05-28T09:17:34Z</time>
      </trkpt>
      <trkpt lat="45.76132" lon="5.29505">
        <ele>424.4</ele>
        <time>2023-05-28T09:17:35Z</time>
      </trkpt>
      <trkpt lat="45.76127" lon="5.29505">
        <ele>424.4</ele>
        <time>2023-05-28T09:17:36Z</time>
      </trkpt>
      <trkpt lat="45.76121" lon="5.29504">
        <ele>425</ele>
        <time>2023-05-28T09:17:37Z</time>
      </trkpt>
      <trkpt lat="45.76116" lon="5.29504">
        <ele>425.2</ele>
        <time>2023-05-28T09:17:38Z</time>
      </trkpt>
      <trkpt lat="45.7611" lon="5.29503">
        <ele>425</ele>
        <time>2023-05-28T09:17:39Z</time>
      </trkpt>
      <trkpt lat="45.76104" lon="5.29502">
        <ele>425.4</ele>
        <time>2023-05-28T09:17:40Z</time>
      </trkpt>
      <trkpt lat="45.76098" lon="5.29501">
        <ele>425.4</ele>
        <time>2023-05-28T09:17:41Z</time>
      </trkpt>
      <trkpt lat="45.76092" lon="5.29499">
        <ele>425.6</ele>
        <time>2023-05-28T09:17:42Z</time>
      </trkpt>
      <trkpt lat="45.76086" lon="5.29498">
        <ele>425.6</ele>
        <time>2023-05-28T09:17:43Z</time>
      </trkpt>
      <trkpt lat="45.7608" lon="5.29495">
        <ele>425.8</ele>
        <time>2023-05-28T09:17:44Z</time>
      </trkpt>
      <trkpt lat="45.76075" lon="5.29493">
        <ele>425.8</ele>
        <time>2023-05-28T09:17:45Z</time>
      </trkpt>
      <trkpt lat="45.76068" lon="5.29491">
        <ele>426</ele>
        <time>2023-05-28T09:17:46Z</time>
      </trkpt>
      <trkpt lat="45.76062" lon="5.29488">
        <ele>426.2</ele>
        <time>2023-05-28T09:17:47Z</time>
      </trkpt>
      <trkpt lat="45.76055" lon="5.29485">
        <ele>426.2</ele>
        <time>2023-05-28T09:17:48Z</time>
      </trkpt>
      <trkpt lat="45.76048" lon="5.29482">
        <ele>426.2</ele>
        <time>2023-05-28T09:17:49Z</time>
      </trkpt>
      <trkpt lat="45.76041" lon="5.29479">
        <ele>426.2</ele>
        <time>2023-05-28T09:17:50Z</time>
      </trkpt>
      <trkpt lat="45.76034" lon="5.29474">
        <ele>426.2</ele>
        <time>2023-05-28T09:17:51Z</time>
      </trkpt>
      <trkpt lat="45.76027" lon="5.29469">
        <ele>426.2</ele>
        <time>2023-05-28T09:17:52Z</time>
      </trkpt>
      <trkpt lat="45.7602" lon="5.29463">
        <ele>426.2</ele>
        <time>2023-05-28T09:17:53Z</time>
      </trkpt>
      <trkpt lat="45.76014" lon="5.29457">
        <ele>426.4</ele>
        <time>2023-05-28T09:17:54Z</time>
      </trkpt>
      <trkpt lat="45.76007" lon="5.29451">
        <ele>426.4</ele>
        <time>2023-05-28T09:17:55Z</time>
      </trkpt>
      <trkpt lat="45.76001" lon="5.29445">
        <ele>426.4</ele>
        <time>2023-05-28T09:17:56Z</time>
      </trkpt>
      <trkpt lat="45.75994" lon="5.29439">
        <ele>426.4</ele>
        <time>2023-05-28T09:17:57Z</time>
      </trkpt>
      <trkpt lat="45.75986" lon="5.29434">
        <ele>426.4</ele>
        <time>2023-05-28T09:17:58Z</time>
      </trkpt>
      <trkpt lat="45.75979" lon="5.29429">
        <ele>426.4</ele>
        <time>2023-05-28T09:17:59Z</time>
      </trkpt>
      <trkpt lat="45.75972" lon="5.29425">
        <ele>426.4</ele>
        <time>2023-05-28T09:18:00Z</time>
      </trkpt>
      <trkpt lat="45.75965" lon="5.29422">
        <ele>426.4</ele>
        <time>2023-05-28T09:18:01Z</time>
      </trkpt>
      <trkpt lat="45.75957" lon="5.29419">
        <ele>426.4</ele>
        <time>2023-05-28T09:18:02Z</time>
      </trkpt>
      <trkpt lat="45.7595" lon="5.29417">
        <ele>426.4</ele>
        <time>2023-05-28T09:18:03Z</time>
      </trkpt>
      <trkpt lat="45.75942" lon="5.29415">
        <ele>426.4</ele>
        <time>2023-05-28T09:18:04Z</time>
      </trkpt>
      <trkpt lat="45.75935" lon="5.29413">
        <ele>426.4</ele>
        <time>2023-05-28T09:18:05Z</time>
      </trkpt>
      <trkpt lat="45.75929" lon="5.29412">
        <ele>426.4</ele>
        <time>2023-05-28T09:18:06Z</time>
      </trkpt>
      <trkpt lat="45.75922" lon="5.2941">
        <ele>426.4</ele>
        <time>2023-05-28T09:18:07Z</time>
      </trkpt>
      <trkpt lat="45.75916" lon="5.29409">
        <ele>426.4</ele>
        <time>2023-05-28T09:18:08Z</time>
      </trkpt>
      <trkpt lat="45.7591" lon="5.29408">
        <ele>426.4</ele>
        <time>2023-05-28T09:18:09Z</time>
      </trkpt>
      <trkpt lat="45.75904" lon="5.29406">
        <ele>426.6</ele>
        <time>2023-05-28T09:18:10Z</time>
      </trkpt>
      <trkpt lat="45.75897" lon="5.29404">
        <ele>426.6</ele>
        <time>2023-05-28T09:18:11Z</time>
      </trkpt>
      <trkpt lat="45.75891" lon="5.29402">
        <ele>426.6</ele>
        <time>2023-05-28T09:18:12Z</time>
      </trkpt>
      <trkpt lat="45.75885" lon="5.294">
        <ele>426.6</ele>
        <time>2023-05-28T09:18:13Z</time>
      </trkpt>
      <trkpt lat="45.7588" lon="5.29397">
        <ele>426.6</ele>
        <time>2023-05-28T09:18:14Z</time>
      </trkpt>
      <trkpt lat="45.75874" lon="5.29395">
        <ele>426.8</ele>
        <time>2023-05-28T09:18:15Z</time>
      </trkpt>
      <trkpt lat="45.75868" lon="5.29392">
        <ele>426.8</ele>
        <time>2023-05-28T09:18:16Z</time>
      </trkpt>
      <trkpt lat="45.75862" lon="5.29389">
        <ele>426.8</ele>
        <time>2023-05-28T09:18:17Z</time>
      </trkpt>
      <trkpt lat="45.75856" lon="5.29387">
        <ele>427</ele>
        <time>2023-05-28T09:18:18Z</time>
      </trkpt>
      <trkpt lat="45.75851" lon="5.29384">
        <ele>427.2</ele>
        <time>2023-05-28T09:18:19Z</time>
      </trkpt>
      <trkpt lat="45.75845" lon="5.29381">
        <ele>427.4</ele>
        <time>2023-05-28T09:18:20Z</time>
      </trkpt>
      <trkpt lat="45.7584" lon="5.29378">
        <ele>427.6</ele>
        <time>2023-05-28T09:18:21Z</time>
      </trkpt>
      <trkpt lat="45.75834" lon="5.29375">
        <ele>427.8</ele>
        <time>2023-05-28T09:18:22Z</time>
      </trkpt>
      <trkpt lat="45.75829" lon="5.29372">
        <ele>428</ele>
        <time>2023-05-28T09:18:23Z</time>
      </trkpt>
      <trkpt lat="45.75823" lon="5.29369">
        <ele>428.2</ele>
        <time>2023-05-28T09:18:24Z</time>
      </trkpt>
      <trkpt lat="45.75817" lon="5.29366">
        <ele>428.6</ele>
        <time>2023-05-28T09:18:25Z</time>
      </trkpt>
      <trkpt lat="45.75812" lon="5.29364">
        <ele>428.8</ele>
        <time>2023-05-28T09:18:26Z</time>
      </trkpt>
      <trkpt lat="45.75807" lon="5.29362">
        <ele>428.8</ele>
        <time>2023-05-28T09:18:27Z</time>
      </trkpt>
      <trkpt lat="45.75801" lon="5.29359">
        <ele>429</ele>
        <time>2023-05-28T09:18:28Z</time>
      </trkpt>
      <trkpt lat="45.75795" lon="5.29357">
        <ele>429</ele>
        <time>2023-05-28T09:18:29Z</time>
      </trkpt>
      <trkpt lat="45.75789" lon="5.29355">
        <ele>429.2</ele>
        <time>2023-05-28T09:18:30Z</time>
      </trkpt>
      <trkpt lat="45.75782" lon="5.29352">
        <ele>429.2</ele>
        <time>2023-05-28T09:18:31Z</time>
      </trkpt>
      <trkpt lat="45.75775" lon="5.2935">
        <ele>429.4</ele>
        <time>2023-05-28T09:18:32Z</time>
      </trkpt>
      <trkpt lat="45.75769" lon="5.29347">
        <ele>429.4</ele>
        <time>2023-05-28T09:18:33Z</time>
      </trkpt>
      <trkpt lat="45.75762" lon="5.29344">
        <ele>429.4</ele>
        <time>2023-05-28T09:18:34Z</time>
      </trkpt>
      <trkpt lat="45.75755" lon="5.2934">
        <ele>429.4</ele>
        <time>2023-05-28T09:18:35Z</time>
      </trkpt>
      <trkpt lat="45.75748" lon="5.29337">
        <ele>429.4</ele>
        <time>2023-05-28T09:18:36Z</time>
      </trkpt>
      <trkpt lat="45.75741" lon="5.29334">
        <ele>429.4</ele>
        <time>2023-05-28T09:18:37Z</time>
      </trkpt>
      <trkpt lat="45.75733" lon="5.2933">
        <ele>429.4</ele>
        <time>2023-05-28T09:18:38Z</time>
      </trkpt>
      <trkpt lat="45.75725" lon="5.29326">
        <ele>429.4</ele>
        <time>2023-05-28T09:18:39Z</time>
      </trkpt>
      <trkpt lat="45.75717" lon="5.29321">
        <ele>429.4</ele>
        <time>2023-05-28T09:18:40Z</time>
      </trkpt>
      <trkpt lat="45.75709" lon="5.29315">
        <ele>429.2</ele>
        <time>2023-05-28T09:18:41Z</time>
      </trkpt>
      <trkpt lat="45.75701" lon="5.29308">
        <ele>429.2</ele>
        <time>2023-05-28T09:18:42Z</time>
      </trkpt>
      <trkpt lat="45.75692" lon="5.29301">
        <ele>429.2</ele>
        <time>2023-05-28T09:18:43Z</time>
      </trkpt>
      <trkpt lat="45.75683" lon="5.29295">
        <ele>429</ele>
        <time>2023-05-28T09:18:44Z</time>
      </trkpt>
      <trkpt lat="45.75675" lon="5.29289">
        <ele>429</ele>
        <time>2023-05-28T09:18:45Z</time>
      </trkpt>
      <trkpt lat="45.75666" lon="5.29281">
        <ele>429</ele>
        <time>2023-05-28T09:18:46Z</time>
      </trkpt>
      <trkpt lat="45.75658" lon="5.29272">
        <ele>428.8</ele>
        <time>2023-05-28T09:18:47Z</time>
      </trkpt>
      <trkpt lat="45.7565" lon="5.29263">
        <ele>428.8</ele>
        <time>2023-05-28T09:18:48Z</time>
      </trkpt>
      <trkpt lat="45.75641" lon="5.29255">
        <ele>428.6</ele>
        <time>2023-05-28T09:18:49Z</time>
      </trkpt>
      <trkpt lat="45.75632" lon="5.29248">
        <ele>428.4</ele>
        <time>2023-05-28T09:18:50Z</time>
      </trkpt>
      <trkpt lat="45.75624" lon="5.29242">
        <ele>428.2</ele>
        <time>2023-05-28T09:18:51Z</time>
      </trkpt>
      <trkpt lat="45.75616" lon="5.29236">
        <ele>427.8</ele>
        <time>2023-05-28T09:18:52Z</time>
      </trkpt>
      <trkpt lat="45.75607" lon="5.2923">
        <ele>427.4</ele>
        <time>2023-05-28T09:18:53Z</time>
      </trkpt>
      <trkpt lat="45.756" lon="5.29223">
        <ele>427.2</ele>
        <time>2023-05-28T09:18:54Z</time>
      </trkpt>
      <trkpt lat="45.75592" lon="5.29215">
        <ele>426.8</ele>
        <time>2023-05-28T09:18:55Z</time>
      </trkpt>
      <trkpt lat="45.75585" lon="5.29205">
        <ele>426.6</ele>
        <time>2023-05-28T09:18:56Z</time>
      </trkpt>
      <trkpt lat="45.7558" lon="5.29192">
        <ele>426</ele>
        <time>2023-05-28T09:18:57Z</time>
      </trkpt>
      <trkpt lat="45.75574" lon="5.29179">
        <ele>425.2</ele>
        <time>2023-05-28T09:18:58Z</time>
      </trkpt>
      <trkpt lat="45.75568" lon="5.29165">
        <ele>424.4</ele>
        <time>2023-05-28T09:18:59Z</time>
      </trkpt>
      <trkpt lat="45.75561" lon="5.29152">
        <ele>423.4</ele>
        <time>2023-05-28T09:19:00Z</time>
      </trkpt>
      <trkpt lat="45.75552" lon="5.29139">
        <ele>423.2</ele>
        <time>2023-05-28T09:19:01Z</time>
      </trkpt>
      <trkpt lat="45.75543" lon="5.29129">
        <ele>422.8</ele>
        <time>2023-05-28T09:19:02Z</time>
      </trkpt>
      <trkpt lat="45.75533" lon="5.2912">
        <ele>422.6</ele>
        <time>2023-05-28T09:19:03Z</time>
      </trkpt>
      <trkpt lat="45.75522" lon="5.29112">
        <ele>421.4</ele>
        <time>2023-05-28T09:19:04Z</time>
      </trkpt>
      <trkpt lat="45.75512" lon="5.29105">
        <ele>420.2</ele>
        <time>2023-05-28T09:19:05Z</time>
      </trkpt>
      <trkpt lat="45.75502" lon="5.29099">
        <ele>419.6</ele>
        <time>2023-05-28T09:19:06Z</time>
      </trkpt>
      <trkpt lat="45.75492" lon="5.29092">
        <ele>419</ele>
        <time>2023-05-28T09:19:07Z</time>
      </trkpt>
      <trkpt lat="45.75482" lon="5.29086">
        <ele>418.6</ele>
        <time>2023-05-28T09:19:08Z</time>
      </trkpt>
      <trkpt lat="45.75472" lon="5.2908">
        <ele>417.2</ele>
        <time>2023-05-28T09:19:09Z</time>
      </trkpt>
      <trkpt lat="45.75462" lon="5.29075">
        <ele>417</ele>
        <time>2023-05-28T09:19:10Z</time>
      </trkpt>
      <trkpt lat="45.75452" lon="5.29071">
        <ele>416.2</ele>
        <time>2023-05-28T09:19:11Z</time>
      </trkpt>
      <trkpt lat="45.75442" lon="5.29067">
        <ele>416</ele>
        <time>2023-05-28T09:19:12Z</time>
      </trkpt>
      <trkpt lat="45.75435" lon="5.29064">
        <ele>415.2</ele>
        <time>2023-05-28T09:19:13Z</time>
      </trkpt>
      <trkpt lat="45.75424" lon="5.29061">
        <ele>414.6</ele>
        <time>2023-05-28T09:19:14Z</time>
      </trkpt>
      <trkpt lat="45.75415" lon="5.29058">
        <ele>414</ele>
        <time>2023-05-28T09:19:15Z</time>
      </trkpt>
      <trkpt lat="45.75407" lon="5.29056">
        <ele>413.4</ele>
        <time>2023-05-28T09:19:16Z</time>
      </trkpt>
      <trkpt lat="45.75398" lon="5.29054">
        <ele>413.2</ele>
        <time>2023-05-28T09:19:17Z</time>
      </trkpt>
      <trkpt lat="45.7539" lon="5.29052">
        <ele>413</ele>
        <time>2023-05-28T09:19:18Z</time>
      </trkpt>
      <trkpt lat="45.75382" lon="5.2905">
        <ele>412.6</ele>
        <time>2023-05-28T09:19:19Z</time>
      </trkpt>
      <trkpt lat="45.75374" lon="5.2905">
        <ele>412</ele>
        <time>2023-05-28T09:19:20Z</time>
      </trkpt>
      <trkpt lat="45.75367" lon="5.2905">
        <ele>411.6</ele>
        <time>2023-05-28T09:19:21Z</time>
      </trkpt>
      <trkpt lat="45.7536" lon="5.2905">
        <ele>411.2</ele>
        <time>2023-05-28T09:19:22Z</time>
      </trkpt>
      <trkpt lat="45.75354" lon="5.29052">
        <ele>410.6</ele>
        <time>2023-05-28T09:19:23Z</time>
      </trkpt>
      <trkpt lat="45.75347" lon="5.29053">
        <ele>410.4</ele>
        <time>2023-05-28T09:19:24Z</time>
      </trkpt>
      <trkpt lat="45.75341" lon="5.29054">
        <ele>410.2</ele>
        <time>2023-05-28T09:19:25Z</time>
      </trkpt>
      <trkpt lat="45.75335" lon="5.29054">
        <ele>410</ele>
        <time>2023-05-28T09:19:26Z</time>
      </trkpt>
      <trkpt lat="45.75329" lon="5.29054">
        <ele>409.8</ele>
        <time>2023-05-28T09:19:27Z</time>
      </trkpt>
      <trkpt lat="45.75323" lon="5.29054">
        <ele>409.8</ele>
        <time>2023-05-28T09:19:28Z</time>
      </trkpt>
      <trkpt lat="45.75317" lon="5.29053">
        <ele>409.6</ele>
        <time>2023-05-28T09:19:29Z</time>
      </trkpt>
      <trkpt lat="45.75311" lon="5.29051">
        <ele>409.6</ele>
        <time>2023-05-28T09:19:30Z</time>
      </trkpt>
      <trkpt lat="45.75305" lon="5.2905">
        <ele>409.4</ele>
        <time>2023-05-28T09:19:31Z</time>
      </trkpt>
      <trkpt lat="45.753" lon="5.29049">
        <ele>409.4</ele>
        <time>2023-05-28T09:19:32Z</time>
      </trkpt>
      <trkpt lat="45.75294" lon="5.29047">
        <ele>409.4</ele>
        <time>2023-05-28T09:19:33Z</time>
      </trkpt>
      <trkpt lat="45.75286" lon="5.29045">
        <ele>409.4</ele>
        <time>2023-05-28T09:19:34Z</time>
      </trkpt>
      <trkpt lat="45.75281" lon="5.29043">
        <ele>409.4</ele>
        <time>2023-05-28T09:19:35Z</time>
      </trkpt>
      <trkpt lat="45.75275" lon="5.29041">
        <ele>409.4</ele>
        <time>2023-05-28T09:19:36Z</time>
      </trkpt>
      <trkpt lat="45.75269" lon="5.29038">
        <ele>409.4</ele>
        <time>2023-05-28T09:19:37Z</time>
      </trkpt>
      <trkpt lat="45.75264" lon="5.29034">
        <ele>409.4</ele>
        <time>2023-05-28T09:19:38Z</time>
      </trkpt>
      <trkpt lat="45.75258" lon="5.29028">
        <ele>409.2</ele>
        <time>2023-05-28T09:19:39Z</time>
      </trkpt>
      <trkpt lat="45.75253" lon="5.29021">
        <ele>409.2</ele>
        <time>2023-05-28T09:19:40Z</time>
      </trkpt>
      <trkpt lat="45.75249" lon="5.29012">
        <ele>409.2</ele>
        <time>2023-05-28T09:19:41Z</time>
      </trkpt>
      <trkpt lat="45.75246" lon="5.29001">
        <ele>409.2</ele>
        <time>2023-05-28T09:19:42Z</time>
      </trkpt>
      <trkpt lat="45.75244" lon="5.28989">
        <ele>409.2</ele>
        <time>2023-05-28T09:19:43Z</time>
      </trkpt>
      <trkpt lat="45.75244" lon="5.28976">
        <ele>408.8</ele>
        <time>2023-05-28T09:19:44Z</time>
      </trkpt>
      <trkpt lat="45.75245" lon="5.28963">
        <ele>408.6</ele>
        <time>2023-05-28T09:19:45Z</time>
      </trkpt>
      <trkpt lat="45.75247" lon="5.2895">
        <ele>408.2</ele>
        <time>2023-05-28T09:19:46Z</time>
      </trkpt>
      <trkpt lat="45.75249" lon="5.28935">
        <ele>408</ele>
        <time>2023-05-28T09:19:47Z</time>
      </trkpt>
      <trkpt lat="45.75251" lon="5.2892">
        <ele>407.6</ele>
        <time>2023-05-28T09:19:48Z</time>
      </trkpt>
      <trkpt lat="45.75253" lon="5.28905">
        <ele>407.4</ele>
        <time>2023-05-28T09:19:49Z</time>
      </trkpt>
      <trkpt lat="45.75254" lon="5.2889">
        <ele>407</ele>
        <time>2023-05-28T09:19:50Z</time>
      </trkpt>
      <trkpt lat="45.75256" lon="5.28874">
        <ele>407</ele>
        <time>2023-05-28T09:19:51Z</time>
      </trkpt>
      <trkpt lat="45.75259" lon="5.28859">
        <ele>406.6</ele>
        <time>2023-05-28T09:19:52Z</time>
      </trkpt>
      <trkpt lat="45.75264" lon="5.28845">
        <ele>406</ele>
        <time>2023-05-28T09:19:53Z</time>
      </trkpt>
      <trkpt lat="45.75269" lon="5.28831">
        <ele>405.8</ele>
        <time>2023-05-28T09:19:54Z</time>
      </trkpt>
      <trkpt lat="45.75275" lon="5.28817">
        <ele>405.6</ele>
        <time>2023-05-28T09:19:55Z</time>
      </trkpt>
      <trkpt lat="45.75281" lon="5.28803">
        <ele>405.4</ele>
        <time>2023-05-28T09:19:56Z</time>
      </trkpt>
      <trkpt lat="45.75287" lon="5.2879">
        <ele>405.2</ele>
        <time>2023-05-28T09:19:57Z</time>
      </trkpt>
      <trkpt lat="45.75292" lon="5.28777">
        <ele>405</ele>
        <time>2023-05-28T09:19:58Z</time>
      </trkpt>
      <trkpt lat="45.75297" lon="5.28765">
        <ele>404.6</ele>
        <time>2023-05-28T09:19:59Z</time>
      </trkpt>
      <trkpt lat="45.75303" lon="5.28752">
        <ele>404.4</ele>
        <time>2023-05-28T09:20:00Z</time>
      </trkpt>
      <trkpt lat="45.75308" lon="5.2874">
        <ele>404.2</ele>
        <time>2023-05-28T09:20:01Z</time>
      </trkpt>
      <trkpt lat="45.75313" lon="5.28729">
        <ele>403.8</ele>
        <time>2023-05-28T09:20:02Z</time>
      </trkpt>
      <trkpt lat="45.75318" lon="5.28717">
        <ele>403.8</ele>
        <time>2023-05-28T09:20:03Z</time>
      </trkpt>
      <trkpt lat="45.75323" lon="5.28706">
        <ele>403.6</ele>
        <time>2023-05-28T09:20:04Z</time>
      </trkpt>
      <trkpt lat="45.75327" lon="5.28695">
        <ele>403.4</ele>
        <time>2023-05-28T09:20:05Z</time>
      </trkpt>
      <trkpt lat="45.75332" lon="5.28685">
        <ele>403</ele>
        <time>2023-05-28T09:20:06Z</time>
      </trkpt>
      <trkpt lat="45.75336" lon="5.28674">
        <ele>402.8</ele>
        <time>2023-05-28T09:20:07Z</time>
      </trkpt>
      <trkpt lat="45.7534" lon="5.28663">
        <ele>402.6</ele>
        <time>2023-05-28T09:20:08Z</time>
      </trkpt>
      <trkpt lat="45.75344" lon="5.28653">
        <ele>402.4</ele>
        <time>2023-05-28T09:20:09Z</time>
      </trkpt>
      <trkpt lat="45.75349" lon="5.28642">
        <ele>402.2</ele>
        <time>2023-05-28T09:20:10Z</time>
      </trkpt>
      <trkpt lat="45.75353" lon="5.28631">
        <ele>402</ele>
        <time>2023-05-28T09:20:11Z</time>
      </trkpt>
      <trkpt lat="45.75356" lon="5.2862">
        <ele>401.8</ele>
        <time>2023-05-28T09:20:12Z</time>
      </trkpt>
      <trkpt lat="45.7536" lon="5.2861">
        <ele>401.8</ele>
        <time>2023-05-28T09:20:13Z</time>
      </trkpt>
      <trkpt lat="45.75363" lon="5.28599">
        <ele>401.6</ele>
        <time>2023-05-28T09:20:14Z</time>
      </trkpt>
      <trkpt lat="45.75366" lon="5.28588">
        <ele>401.8</ele>
        <time>2023-05-28T09:20:15Z</time>
      </trkpt>
      <trkpt lat="45.75369" lon="5.28577">
        <ele>401.8</ele>
        <time>2023-05-28T09:20:16Z</time>
      </trkpt>
      <trkpt lat="45.75371" lon="5.28566">
        <ele>401.6</ele>
        <time>2023-05-28T09:20:17Z</time>
      </trkpt>
      <trkpt lat="45.75373" lon="5.28554">
        <ele>401.6</ele>
        <time>2023-05-28T09:20:18Z</time>
      </trkpt>
      <trkpt lat="45.75374" lon="5.28541">
        <ele>401.4</ele>
        <time>2023-05-28T09:20:19Z</time>
      </trkpt>
      <trkpt lat="45.75375" lon="5.28529">
        <ele>401.4</ele>
        <time>2023-05-28T09:20:20Z</time>
      </trkpt>
      <trkpt lat="45.75375" lon="5.28516">
        <ele>401.2</ele>
        <time>2023-05-28T09:20:21Z</time>
      </trkpt>
      <trkpt lat="45.75374" lon="5.28504">
        <ele>401.2</ele>
        <time>2023-05-28T09:20:22Z</time>
      </trkpt>
      <trkpt lat="45.75373" lon="5.28492">
        <ele>401.2</ele>
        <time>2023-05-28T09:20:23Z</time>
      </trkpt>
      <trkpt lat="45.7537" lon="5.28481">
        <ele>400.8</ele>
        <time>2023-05-28T09:20:24Z</time>
      </trkpt>
      <trkpt lat="45.75368" lon="5.28469">
        <ele>400.6</ele>
        <time>2023-05-28T09:20:25Z</time>
      </trkpt>
      <trkpt lat="45.75366" lon="5.28458">
        <ele>400.4</ele>
        <time>2023-05-28T09:20:26Z</time>
      </trkpt>
      <trkpt lat="45.75364" lon="5.28447">
        <ele>400.2</ele>
        <time>2023-05-28T09:20:27Z</time>
      </trkpt>
      <trkpt lat="45.75363" lon="5.28436">
        <ele>400</ele>
        <time>2023-05-28T09:20:28Z</time>
      </trkpt>
      <trkpt lat="45.75362" lon="5.28424">
        <ele>399.6</ele>
        <time>2023-05-28T09:20:29Z</time>
      </trkpt>
      <trkpt lat="45.75362" lon="5.28413">
        <ele>399.2</ele>
        <time>2023-05-28T09:20:30Z</time>
      </trkpt>
      <trkpt lat="45.75362" lon="5.28402">
        <ele>398.6</ele>
        <time>2023-05-28T09:20:31Z</time>
      </trkpt>
      <trkpt lat="45.75362" lon="5.28391">
        <ele>398.2</ele>
        <time>2023-05-28T09:20:32Z</time>
      </trkpt>
      <trkpt lat="45.75363" lon="5.28381">
        <ele>398.2</ele>
        <time>2023-05-28T09:20:33Z</time>
      </trkpt>
      <trkpt lat="45.75364" lon="5.2837">
        <ele>398</ele>
        <time>2023-05-28T09:20:34Z</time>
      </trkpt>
      <trkpt lat="45.75364" lon="5.2836">
        <ele>398</ele>
        <time>2023-05-28T09:20:35Z</time>
      </trkpt>
      <trkpt lat="45.75365" lon="5.2835">
        <ele>397.8</ele>
        <time>2023-05-28T09:20:36Z</time>
      </trkpt>
      <trkpt lat="45.75366" lon="5.2834">
        <ele>397.8</ele>
        <time>2023-05-28T09:20:37Z</time>
      </trkpt>
      <trkpt lat="45.75366" lon="5.28332">
        <ele>397.8</ele>
        <time>2023-05-28T09:20:38Z</time>
      </trkpt>
      <trkpt lat="45.75367" lon="5.2832">
        <ele>397.8</ele>
        <time>2023-05-28T09:20:39Z</time>
      </trkpt>
      <trkpt lat="45.75368" lon="5.2831">
        <ele>397.8</ele>
        <time>2023-05-28T09:20:40Z</time>
      </trkpt>
      <trkpt lat="45.75369" lon="5.283">
        <ele>397.8</ele>
        <time>2023-05-28T09:20:41Z</time>
      </trkpt>
      <trkpt lat="45.75369" lon="5.2829">
        <ele>397.8</ele>
        <time>2023-05-28T09:20:42Z</time>
      </trkpt>
      <trkpt lat="45.75369" lon="5.28282">
        <ele>397.8</ele>
        <time>2023-05-28T09:20:43Z</time>
      </trkpt>
      <trkpt lat="45.7537" lon="5.28273">
        <ele>397.8</ele>
        <time>2023-05-28T09:20:44Z</time>
      </trkpt>
      <trkpt lat="45.7537" lon="5.28263">
        <ele>397.8</ele>
        <time>2023-05-28T09:20:45Z</time>
      </trkpt>
      <trkpt lat="45.75371" lon="5.28253">
        <ele>397.8</ele>
        <time>2023-05-28T09:20:46Z</time>
      </trkpt>
      <trkpt lat="45.75371" lon="5.28243">
        <ele>397.8</ele>
        <time>2023-05-28T09:20:47Z</time>
      </trkpt>
      <trkpt lat="45.75372" lon="5.28233">
        <ele>397.8</ele>
        <time>2023-05-28T09:20:48Z</time>
      </trkpt>
      <trkpt lat="45.75372" lon="5.28223">
        <ele>398</ele>
        <time>2023-05-28T09:20:49Z</time>
      </trkpt>
      <trkpt lat="45.75373" lon="5.28213">
        <ele>398</ele>
        <time>2023-05-28T09:20:50Z</time>
      </trkpt>
      <trkpt lat="45.75373" lon="5.28204">
        <ele>398</ele>
        <time>2023-05-28T09:20:51Z</time>
      </trkpt>
      <trkpt lat="45.75374" lon="5.28194">
        <ele>398.2</ele>
        <time>2023-05-28T09:20:52Z</time>
      </trkpt>
      <trkpt lat="45.75375" lon="5.28184">
        <ele>398.2</ele>
        <time>2023-05-28T09:20:53Z</time>
      </trkpt>
      <trkpt lat="45.75375" lon="5.28173">
        <ele>398.4</ele>
        <time>2023-05-28T09:20:54Z</time>
      </trkpt>
      <trkpt lat="45.75375" lon="5.28163">
        <ele>398.4</ele>
        <time>2023-05-28T09:20:55Z</time>
      </trkpt>
      <trkpt lat="45.75375" lon="5.2815">
        <ele>398.4</ele>
        <time>2023-05-28T09:20:56Z</time>
      </trkpt>
      <trkpt lat="45.75375" lon="5.28141">
        <ele>398.4</ele>
        <time>2023-05-28T09:20:57Z</time>
      </trkpt>
      <trkpt lat="45.75375" lon="5.28129">
        <ele>398.4</ele>
        <time>2023-05-28T09:20:58Z</time>
      </trkpt>
      <trkpt lat="45.75375" lon="5.28117">
        <ele>398.4</ele>
        <time>2023-05-28T09:20:59Z</time>
      </trkpt>
      <trkpt lat="45.75376" lon="5.28102">
        <ele>398.2</ele>
        <time>2023-05-28T09:21:00Z</time>
      </trkpt>
      <trkpt lat="45.75375" lon="5.28089">
        <ele>398.2</ele>
        <time>2023-05-28T09:21:01Z</time>
      </trkpt>
      <trkpt lat="45.75375" lon="5.28076">
        <ele>398.2</ele>
        <time>2023-05-28T09:21:02Z</time>
      </trkpt>
      <trkpt lat="45.75375" lon="5.28063">
        <ele>398.2</ele>
        <time>2023-05-28T09:21:03Z</time>
      </trkpt>
      <trkpt lat="45.75374" lon="5.2805">
        <ele>398.2</ele>
        <time>2023-05-28T09:21:04Z</time>
      </trkpt>
      <trkpt lat="45.75372" lon="5.28039">
        <ele>398</ele>
        <time>2023-05-28T09:21:05Z</time>
      </trkpt>
      <trkpt lat="45.75369" lon="5.28026">
        <ele>398</ele>
        <time>2023-05-28T09:21:06Z</time>
      </trkpt>
      <trkpt lat="45.75364" lon="5.2801">
        <ele>397.8</ele>
        <time>2023-05-28T09:21:07Z</time>
      </trkpt>
      <trkpt lat="45.7536" lon="5.27998">
        <ele>397.8</ele>
        <time>2023-05-28T09:21:08Z</time>
      </trkpt>
      <trkpt lat="45.75356" lon="5.27987">
        <ele>397.6</ele>
        <time>2023-05-28T09:21:09Z</time>
      </trkpt>
      <trkpt lat="45.75353" lon="5.27974">
        <ele>397.4</ele>
        <time>2023-05-28T09:21:10Z</time>
      </trkpt>
      <trkpt lat="45.75348" lon="5.27961">
        <ele>397.2</ele>
        <time>2023-05-28T09:21:11Z</time>
      </trkpt>
      <trkpt lat="45.75344" lon="5.27948">
        <ele>397</ele>
        <time>2023-05-28T09:21:12Z</time>
      </trkpt>
      <trkpt lat="45.75338" lon="5.27933">
        <ele>396.2</ele>
        <time>2023-05-28T09:21:13Z</time>
      </trkpt>
      <trkpt lat="45.75333" lon="5.27924">
        <ele>395.6</ele>
        <time>2023-05-28T09:21:14Z</time>
      </trkpt>
      <trkpt lat="45.75324" lon="5.2791">
        <ele>395</ele>
        <time>2023-05-28T09:21:15Z</time>
      </trkpt>
      <trkpt lat="45.75317" lon="5.279">
        <ele>394.6</ele>
        <time>2023-05-28T09:21:16Z</time>
      </trkpt>
      <trkpt lat="45.7531" lon="5.2789">
        <ele>393.8</ele>
        <time>2023-05-28T09:21:17Z</time>
      </trkpt>
      <trkpt lat="45.75302" lon="5.2788">
        <ele>393.4</ele>
        <time>2023-05-28T09:21:18Z</time>
      </trkpt>
      <trkpt lat="45.75295" lon="5.2787">
        <ele>393.2</ele>
        <time>2023-05-28T09:21:19Z</time>
      </trkpt>
      <trkpt lat="45.75288" lon="5.2786">
        <ele>392.8</ele>
        <time>2023-05-28T09:21:20Z</time>
      </trkpt>
      <trkpt lat="45.75281" lon="5.2785">
        <ele>392.6</ele>
        <time>2023-05-28T09:21:21Z</time>
      </trkpt>
      <trkpt lat="45.75275" lon="5.27839">
        <ele>392.4</ele>
        <time>2023-05-28T09:21:22Z</time>
      </trkpt>
      <trkpt lat="45.75268" lon="5.27828">
        <ele>392.2</ele>
        <time>2023-05-28T09:21:23Z</time>
      </trkpt>
      <trkpt lat="45.75262" lon="5.27817">
        <ele>391.8</ele>
        <time>2023-05-28T09:21:24Z</time>
      </trkpt>
      <trkpt lat="45.75256" lon="5.27806">
        <ele>391.4</ele>
        <time>2023-05-28T09:21:25Z</time>
      </trkpt>
      <trkpt lat="45.75251" lon="5.27795">
        <ele>390.4</ele>
        <time>2023-05-28T09:21:26Z</time>
      </trkpt>
      <trkpt lat="45.75245" lon="5.27785">
        <ele>389.8</ele>
        <time>2023-05-28T09:21:27Z</time>
      </trkpt>
      <trkpt lat="45.75238" lon="5.27775">
        <ele>389.6</ele>
        <time>2023-05-28T09:21:28Z</time>
      </trkpt>
      <trkpt lat="45.75232" lon="5.27766">
        <ele>389.2</ele>
        <time>2023-05-28T09:21:29Z</time>
      </trkpt>
      <trkpt lat="45.75225" lon="5.27756">
        <ele>389</ele>
        <time>2023-05-28T09:21:30Z</time>
      </trkpt>
      <trkpt lat="45.75219" lon="5.27746">
        <ele>388.6</ele>
        <time>2023-05-28T09:21:31Z</time>
      </trkpt>
      <trkpt lat="45.75213" lon="5.27736">
        <ele>388.4</ele>
        <time>2023-05-28T09:21:32Z</time>
      </trkpt>
      <trkpt lat="45.75208" lon="5.27725">
        <ele>388.2</ele>
        <time>2023-05-28T09:21:33Z</time>
      </trkpt>
      <trkpt lat="45.75203" lon="5.27714">
        <ele>387.8</ele>
        <time>2023-05-28T09:21:34Z</time>
      </trkpt>
      <trkpt lat="45.75199" lon="5.27704">
        <ele>387.6</ele>
        <time>2023-05-28T09:21:35Z</time>
      </trkpt>
      <trkpt lat="45.75195" lon="5.27693">
        <ele>387.4</ele>
        <time>2023-05-28T09:21:36Z</time>
      </trkpt>
      <trkpt lat="45.75191" lon="5.27682">
        <ele>387.4</ele>
        <time>2023-05-28T09:21:37Z</time>
      </trkpt>
      <trkpt lat="45.75188" lon="5.27671">
        <ele>386.6</ele>
        <time>2023-05-28T09:21:38Z</time>
      </trkpt>
      <trkpt lat="45.75184" lon="5.2766">
        <ele>386.2</ele>
        <time>2023-05-28T09:21:39Z</time>
      </trkpt>
      <trkpt lat="45.7518" lon="5.27649">
        <ele>385.6</ele>
        <time>2023-05-28T09:21:40Z</time>
      </trkpt>
      <trkpt lat="45.75176" lon="5.27638">
        <ele>385.4</ele>
        <time>2023-05-28T09:21:41Z</time>
      </trkpt>
      <trkpt lat="45.75172" lon="5.27627">
        <ele>385.2</ele>
        <time>2023-05-28T09:21:42Z</time>
      </trkpt>
      <trkpt lat="45.75169" lon="5.27615">
        <ele>384.8</ele>
        <time>2023-05-28T09:21:43Z</time>
      </trkpt>
      <trkpt lat="45.75166" lon="5.27606">
        <ele>384.6</ele>
        <time>2023-05-28T09:21:44Z</time>
      </trkpt>
      <trkpt lat="45.75162" lon="5.27592">
        <ele>384.2</ele>
        <time>2023-05-28T09:21:45Z</time>
      </trkpt>
      <trkpt lat="45.75159" lon="5.27581">
        <ele>384</ele>
        <time>2023-05-28T09:21:46Z</time>
      </trkpt>
      <trkpt lat="45.75155" lon="5.2757">
        <ele>383.8</ele>
        <time>2023-05-28T09:21:47Z</time>
      </trkpt>
      <trkpt lat="45.75152" lon="5.27562">
        <ele>383.4</ele>
        <time>2023-05-28T09:21:48Z</time>
      </trkpt>
      <trkpt lat="45.75148" lon="5.27551">
        <ele>383.2</ele>
        <time>2023-05-28T09:21:49Z</time>
      </trkpt>
      <trkpt lat="45.75144" lon="5.2754">
        <ele>382.6</ele>
        <time>2023-05-28T09:21:50Z</time>
      </trkpt>
      <trkpt lat="45.75141" lon="5.2753">
        <ele>382.4</ele>
        <time>2023-05-28T09:21:51Z</time>
      </trkpt>
      <trkpt lat="45.75137" lon="5.27519">
        <ele>382</ele>
        <time>2023-05-28T09:21:52Z</time>
      </trkpt>
      <trkpt lat="45.75133" lon="5.27509">
        <ele>382</ele>
        <time>2023-05-28T09:21:53Z</time>
      </trkpt>
      <trkpt lat="45.75129" lon="5.27498">
        <ele>381.6</ele>
        <time>2023-05-28T09:21:54Z</time>
      </trkpt>
      <trkpt lat="45.75124" lon="5.27485">
        <ele>381.6</ele>
        <time>2023-05-28T09:21:55Z</time>
      </trkpt>
      <trkpt lat="45.7512" lon="5.27473">
        <ele>381.2</ele>
        <time>2023-05-28T09:21:56Z</time>
      </trkpt>
      <trkpt lat="45.75116" lon="5.27462">
        <ele>380.2</ele>
        <time>2023-05-28T09:21:57Z</time>
      </trkpt>
      <trkpt lat="45.75113" lon="5.27452">
        <ele>379.8</ele>
        <time>2023-05-28T09:21:58Z</time>
      </trkpt>
      <trkpt lat="45.75109" lon="5.27441">
        <ele>379.4</ele>
        <time>2023-05-28T09:21:59Z</time>
      </trkpt>
      <trkpt lat="45.75104" lon="5.27426">
        <ele>379.2</ele>
        <time>2023-05-28T09:22:00Z</time>
      </trkpt>
      <trkpt lat="45.75099" lon="5.27414">
        <ele>379</ele>
        <time>2023-05-28T09:22:01Z</time>
      </trkpt>
      <trkpt lat="45.75094" lon="5.27403">
        <ele>379</ele>
        <time>2023-05-28T09:22:02Z</time>
      </trkpt>
      <trkpt lat="45.75089" lon="5.27395">
        <ele>378.6</ele>
        <time>2023-05-28T09:22:03Z</time>
      </trkpt>
      <trkpt lat="45.75081" lon="5.27386">
        <ele>378.4</ele>
        <time>2023-05-28T09:22:04Z</time>
      </trkpt>
      <trkpt lat="45.75072" lon="5.27379">
        <ele>378.2</ele>
        <time>2023-05-28T09:22:05Z</time>
      </trkpt>
      <trkpt lat="45.75062" lon="5.27374">
        <ele>378</ele>
        <time>2023-05-28T09:22:06Z</time>
      </trkpt>
      <trkpt lat="45.7505" lon="5.27368">
        <ele>377.8</ele>
        <time>2023-05-28T09:22:07Z</time>
      </trkpt>
      <trkpt lat="45.75042" lon="5.27365">
        <ele>377.4</ele>
        <time>2023-05-28T09:22:08Z</time>
      </trkpt>
      <trkpt lat="45.75031" lon="5.2736">
        <ele>377</ele>
        <time>2023-05-28T09:22:09Z</time>
      </trkpt>
      <trkpt lat="45.75021" lon="5.27354">
        <ele>376.6</ele>
        <time>2023-05-28T09:22:10Z</time>
      </trkpt>
      <trkpt lat="45.7501" lon="5.27349">
        <ele>376.4</ele>
        <time>2023-05-28T09:22:11Z</time>
      </trkpt>
      <trkpt lat="45.74996" lon="5.27342">
        <ele>376</ele>
        <time>2023-05-28T09:22:12Z</time>
      </trkpt>
      <trkpt lat="45.74987" lon="5.27337">
        <ele>375.4</ele>
        <time>2023-05-28T09:22:13Z</time>
      </trkpt>
      <trkpt lat="45.74976" lon="5.27332">
        <ele>375.2</ele>
        <time>2023-05-28T09:22:14Z</time>
      </trkpt>
      <trkpt lat="45.74964" lon="5.27327">
        <ele>374.8</ele>
        <time>2023-05-28T09:22:15Z</time>
      </trkpt>
      <trkpt lat="45.74953" lon="5.27322">
        <ele>374.4</ele>
        <time>2023-05-28T09:22:16Z</time>
      </trkpt>
      <trkpt lat="45.74939" lon="5.27316">
        <ele>373.4</ele>
        <time>2023-05-28T09:22:17Z</time>
      </trkpt>
      <trkpt lat="45.7493" lon="5.27311">
        <ele>373</ele>
        <time>2023-05-28T09:22:18Z</time>
      </trkpt>
      <trkpt lat="45.74918" lon="5.27306">
        <ele>372.4</ele>
        <time>2023-05-28T09:22:19Z</time>
      </trkpt>
      <trkpt lat="45.74904" lon="5.27299">
        <ele>372</ele>
        <time>2023-05-28T09:22:20Z</time>
      </trkpt>
      <trkpt lat="45.74892" lon="5.27293">
        <ele>372</ele>
        <time>2023-05-28T09:22:21Z</time>
      </trkpt>
      <trkpt lat="45.7488" lon="5.27289">
        <ele>371.4</ele>
        <time>2023-05-28T09:22:22Z</time>
      </trkpt>
      <trkpt lat="45.7487" lon="5.27285">
        <ele>371</ele>
        <time>2023-05-28T09:22:23Z</time>
      </trkpt>
      <trkpt lat="45.74858" lon="5.27282">
        <ele>370.2</ele>
        <time>2023-05-28T09:22:24Z</time>
      </trkpt>
      <trkpt lat="45.74844" lon="5.27279">
        <ele>369.8</ele>
        <time>2023-05-28T09:22:25Z</time>
      </trkpt>
      <trkpt lat="45.74832" lon="5.27278">
        <ele>369</ele>
        <time>2023-05-28T09:22:26Z</time>
      </trkpt>
      <trkpt lat="45.74819" lon="5.27278">
        <ele>367.8</ele>
        <time>2023-05-28T09:22:27Z</time>
      </trkpt>
      <trkpt lat="45.74808" lon="5.27278">
        <ele>367.2</ele>
        <time>2023-05-28T09:22:28Z</time>
      </trkpt>
      <trkpt lat="45.74795" lon="5.27277">
        <ele>366</ele>
        <time>2023-05-28T09:22:29Z</time>
      </trkpt>
      <trkpt lat="45.74782" lon="5.27276">
        <ele>365.4</ele>
        <time>2023-05-28T09:22:30Z</time>
      </trkpt>
      <trkpt lat="45.74767" lon="5.27275">
        <ele>364.4</ele>
        <time>2023-05-28T09:22:31Z</time>
      </trkpt>
      <trkpt lat="45.74753" lon="5.27274">
        <ele>364.2</ele>
        <time>2023-05-28T09:22:32Z</time>
      </trkpt>
      <trkpt lat="45.74742" lon="5.27273">
        <ele>363.4</ele>
        <time>2023-05-28T09:22:33Z</time>
      </trkpt>
      <trkpt lat="45.74729" lon="5.27272">
        <ele>362.2</ele>
        <time>2023-05-28T09:22:34Z</time>
      </trkpt>
      <trkpt lat="45.74715" lon="5.27269">
        <ele>361.8</ele>
        <time>2023-05-28T09:22:35Z</time>
      </trkpt>
      <trkpt lat="45.747" lon="5.27262">
        <ele>361.2</ele>
        <time>2023-05-28T09:22:36Z</time>
      </trkpt>
      <trkpt lat="45.74687" lon="5.27255">
        <ele>360.8</ele>
        <time>2023-05-28T09:22:37Z</time>
      </trkpt>
      <trkpt lat="45.74677" lon="5.27249">
        <ele>359.8</ele>
        <time>2023-05-28T09:22:38Z</time>
      </trkpt>
      <trkpt lat="45.74665" lon="5.27241">
        <ele>359.8</ele>
        <time>2023-05-28T09:22:39Z</time>
      </trkpt>
      <trkpt lat="45.74649" lon="5.27232">
        <ele>359</ele>
        <time>2023-05-28T09:22:40Z</time>
      </trkpt>
      <trkpt lat="45.74637" lon="5.27225">
        <ele>358.4</ele>
        <time>2023-05-28T09:22:41Z</time>
      </trkpt>
      <trkpt lat="45.74624" lon="5.27218">
        <ele>357.4</ele>
        <time>2023-05-28T09:22:42Z</time>
      </trkpt>
      <trkpt lat="45.74614" lon="5.27212">
        <ele>356.8</ele>
        <time>2023-05-28T09:22:43Z</time>
      </trkpt>
      <trkpt lat="45.74601" lon="5.27207">
        <ele>356.2</ele>
        <time>2023-05-28T09:22:44Z</time>
      </trkpt>
      <trkpt lat="45.74585" lon="5.27201">
        <ele>354.6</ele>
        <time>2023-05-28T09:22:45Z</time>
      </trkpt>
      <trkpt lat="45.74572" lon="5.27196">
        <ele>353.8</ele>
        <time>2023-05-28T09:22:46Z</time>
      </trkpt>
      <trkpt lat="45.74561" lon="5.27192">
        <ele>352.8</ele>
        <time>2023-05-28T09:22:47Z</time>
      </trkpt>
      <trkpt lat="45.74548" lon="5.27186">
        <ele>352.4</ele>
        <time>2023-05-28T09:22:48Z</time>
      </trkpt>
      <trkpt lat="45.74534" lon="5.27181">
        <ele>351</ele>
        <time>2023-05-28T09:22:49Z</time>
      </trkpt>
      <trkpt lat="45.74518" lon="5.27174">
        <ele>349.8</ele>
        <time>2023-05-28T09:22:50Z</time>
      </trkpt>
      <trkpt lat="45.74506" lon="5.27168">
        <ele>349.2</ele>
        <time>2023-05-28T09:22:51Z</time>
      </trkpt>
      <trkpt lat="45.74493" lon="5.27162">
        <ele>347.6</ele>
        <time>2023-05-28T09:22:52Z</time>
      </trkpt>
      <trkpt lat="45.74483" lon="5.27157">
        <ele>346.4</ele>
        <time>2023-05-28T09:22:53Z</time>
      </trkpt>
      <trkpt lat="45.74471" lon="5.27151">
        <ele>345.2</ele>
        <time>2023-05-28T09:22:54Z</time>
      </trkpt>
      <trkpt lat="45.74456" lon="5.27144">
        <ele>344.6</ele>
        <time>2023-05-28T09:22:55Z</time>
      </trkpt>
      <trkpt lat="45.74444" lon="5.27137">
        <ele>344</ele>
        <time>2023-05-28T09:22:56Z</time>
      </trkpt>
      <trkpt lat="45.74432" lon="5.2713">
        <ele>343.2</ele>
        <time>2023-05-28T09:22:57Z</time>
      </trkpt>
      <trkpt lat="45.7442" lon="5.27122">
        <ele>342.2</ele>
        <time>2023-05-28T09:22:58Z</time>
      </trkpt>
      <trkpt lat="45.7441" lon="5.27116">
        <ele>341</ele>
        <time>2023-05-28T09:22:59Z</time>
      </trkpt>
      <trkpt lat="45.74398" lon="5.27107">
        <ele>340.4</ele>
        <time>2023-05-28T09:23:00Z</time>
      </trkpt>
      <trkpt lat="45.74385" lon="5.27096">
        <ele>339.2</ele>
        <time>2023-05-28T09:23:01Z</time>
      </trkpt>
      <trkpt lat="45.74364" lon="5.27078">
        <ele>338.2</ele>
        <time>2023-05-28T09:23:03Z</time>
      </trkpt>
      <trkpt lat="45.74353" lon="5.27068">
        <ele>337.4</ele>
        <time>2023-05-28T09:23:04Z</time>
      </trkpt>
      <trkpt lat="45.74339" lon="5.27056">
        <ele>335.8</ele>
        <time>2023-05-28T09:23:05Z</time>
      </trkpt>
      <trkpt lat="45.74328" lon="5.27046">
        <ele>334.8</ele>
        <time>2023-05-28T09:23:06Z</time>
      </trkpt>
      <trkpt lat="45.74317" lon="5.27037">
        <ele>334.4</ele>
        <time>2023-05-28T09:23:07Z</time>
      </trkpt>
      <trkpt lat="45.74307" lon="5.2703">
        <ele>333.2</ele>
        <time>2023-05-28T09:23:08Z</time>
      </trkpt>
      <trkpt lat="45.74296" lon="5.27021">
        <ele>332.6</ele>
        <time>2023-05-28T09:23:09Z</time>
      </trkpt>
      <trkpt lat="45.74282" lon="5.27011">
        <ele>331.6</ele>
        <time>2023-05-28T09:23:10Z</time>
      </trkpt>
      <trkpt lat="45.74271" lon="5.27002">
        <ele>330.8</ele>
        <time>2023-05-28T09:23:11Z</time>
      </trkpt>
      <trkpt lat="45.7426" lon="5.26995">
        <ele>329.6</ele>
        <time>2023-05-28T09:23:12Z</time>
      </trkpt>
      <trkpt lat="45.74249" lon="5.26987">
        <ele>328.4</ele>
        <time>2023-05-28T09:23:13Z</time>
      </trkpt>
      <trkpt lat="45.74239" lon="5.26978">
        <ele>327.8</ele>
        <time>2023-05-28T09:23:14Z</time>
      </trkpt>
      <trkpt lat="45.74229" lon="5.26971">
        <ele>326.8</ele>
        <time>2023-05-28T09:23:15Z</time>
      </trkpt>
      <trkpt lat="45.74219" lon="5.26965">
        <ele>326.2</ele>
        <time>2023-05-28T09:23:16Z</time>
      </trkpt>
      <trkpt lat="45.74208" lon="5.26961">
        <ele>325.4</ele>
        <time>2023-05-28T09:23:17Z</time>
      </trkpt>
      <trkpt lat="45.74198" lon="5.26959">
        <ele>325</ele>
        <time>2023-05-28T09:23:18Z</time>
      </trkpt>
      <trkpt lat="45.74189" lon="5.26959">
        <ele>324.2</ele>
        <time>2023-05-28T09:23:19Z</time>
      </trkpt>
      <trkpt lat="45.74177" lon="5.26962">
        <ele>323.6</ele>
        <time>2023-05-28T09:23:20Z</time>
      </trkpt>
      <trkpt lat="45.74167" lon="5.26965">
        <ele>323</ele>
        <time>2023-05-28T09:23:21Z</time>
      </trkpt>
      <trkpt lat="45.74157" lon="5.26967">
        <ele>322.6</ele>
        <time>2023-05-28T09:23:22Z</time>
      </trkpt>
      <trkpt lat="45.74147" lon="5.26967">
        <ele>322.2</ele>
        <time>2023-05-28T09:23:23Z</time>
      </trkpt>
      <trkpt lat="45.74138" lon="5.26965">
        <ele>321.8</ele>
        <time>2023-05-28T09:23:24Z</time>
      </trkpt>
      <trkpt lat="45.74126" lon="5.26959">
        <ele>321.4</ele>
        <time>2023-05-28T09:23:25Z</time>
      </trkpt>
      <trkpt lat="45.74116" lon="5.26951">
        <ele>320.8</ele>
        <time>2023-05-28T09:23:26Z</time>
      </trkpt>
      <trkpt lat="45.74108" lon="5.26943">
        <ele>320.2</ele>
        <time>2023-05-28T09:23:27Z</time>
      </trkpt>
      <trkpt lat="45.74099" lon="5.26932">
        <ele>320</ele>
        <time>2023-05-28T09:23:28Z</time>
      </trkpt>
      <trkpt lat="45.74089" lon="5.26921">
        <ele>319.2</ele>
        <time>2023-05-28T09:23:29Z</time>
      </trkpt>
      <trkpt lat="45.74077" lon="5.26907">
        <ele>318.8</ele>
        <time>2023-05-28T09:23:30Z</time>
      </trkpt>
      <trkpt lat="45.74068" lon="5.26894">
        <ele>318.2</ele>
        <time>2023-05-28T09:23:31Z</time>
      </trkpt>
      <trkpt lat="45.74058" lon="5.26883">
        <ele>318</ele>
        <time>2023-05-28T09:23:32Z</time>
      </trkpt>
      <trkpt lat="45.74048" lon="5.26872">
        <ele>317.4</ele>
        <time>2023-05-28T09:23:33Z</time>
      </trkpt>
      <trkpt lat="45.74037" lon="5.26862">
        <ele>317.2</ele>
        <time>2023-05-28T09:23:34Z</time>
      </trkpt>
      <trkpt lat="45.74026" lon="5.26853">
        <ele>316.6</ele>
        <time>2023-05-28T09:23:35Z</time>
      </trkpt>
      <trkpt lat="45.74014" lon="5.26845">
        <ele>315.8</ele>
        <time>2023-05-28T09:23:36Z</time>
      </trkpt>
      <trkpt lat="45.74005" lon="5.2684">
        <ele>315.4</ele>
        <time>2023-05-28T09:23:37Z</time>
      </trkpt>
      <trkpt lat="45.73993" lon="5.26834">
        <ele>314.8</ele>
        <time>2023-05-28T09:23:38Z</time>
      </trkpt>
      <trkpt lat="45.7398" lon="5.2683">
        <ele>314.6</ele>
        <time>2023-05-28T09:23:39Z</time>
      </trkpt>
      <trkpt lat="45.73966" lon="5.26826">
        <ele>313.6</ele>
        <time>2023-05-28T09:23:40Z</time>
      </trkpt>
      <trkpt lat="45.73953" lon="5.26826">
        <ele>312.8</ele>
        <time>2023-05-28T09:23:41Z</time>
      </trkpt>
      <trkpt lat="45.73943" lon="5.26826">
        <ele>311</ele>
        <time>2023-05-28T09:23:42Z</time>
      </trkpt>
      <trkpt lat="45.7393" lon="5.26827">
        <ele>310.2</ele>
        <time>2023-05-28T09:23:43Z</time>
      </trkpt>
      <trkpt lat="45.73916" lon="5.26829">
        <ele>310</ele>
        <time>2023-05-28T09:23:44Z</time>
      </trkpt>
      <trkpt lat="45.73904" lon="5.26832">
        <ele>309.6</ele>
        <time>2023-05-28T09:23:45Z</time>
      </trkpt>
      <trkpt lat="45.73892" lon="5.26835">
        <ele>309.4</ele>
        <time>2023-05-28T09:23:46Z</time>
      </trkpt>
      <trkpt lat="45.73883" lon="5.26838">
        <ele>308.6</ele>
        <time>2023-05-28T09:23:47Z</time>
      </trkpt>
      <trkpt lat="45.73872" lon="5.26842">
        <ele>308.4</ele>
        <time>2023-05-28T09:23:48Z</time>
      </trkpt>
      <trkpt lat="45.7386" lon="5.2685">
        <ele>307.6</ele>
        <time>2023-05-28T09:23:49Z</time>
      </trkpt>
      <trkpt lat="45.73849" lon="5.26857">
        <ele>307.2</ele>
        <time>2023-05-28T09:23:50Z</time>
      </trkpt>
      <trkpt lat="45.73839" lon="5.26865">
        <ele>306.6</ele>
        <time>2023-05-28T09:23:51Z</time>
      </trkpt>
      <trkpt lat="45.7383" lon="5.26872">
        <ele>305.8</ele>
        <time>2023-05-28T09:23:52Z</time>
      </trkpt>
      <trkpt lat="45.7382" lon="5.2688">
        <ele>305.4</ele>
        <time>2023-05-28T09:23:53Z</time>
      </trkpt>
      <trkpt lat="45.73809" lon="5.26887">
        <ele>304.8</ele>
        <time>2023-05-28T09:23:54Z</time>
      </trkpt>
      <trkpt lat="45.73796" lon="5.26896">
        <ele>304.2</ele>
        <time>2023-05-28T09:23:55Z</time>
      </trkpt>
      <trkpt lat="45.73788" lon="5.26902">
        <ele>303.6</ele>
        <time>2023-05-28T09:23:56Z</time>
      </trkpt>
      <trkpt lat="45.73778" lon="5.26909">
        <ele>303</ele>
        <time>2023-05-28T09:23:57Z</time>
      </trkpt>
      <trkpt lat="45.73768" lon="5.26916">
        <ele>302.4</ele>
        <time>2023-05-28T09:23:58Z</time>
      </trkpt>
      <trkpt lat="45.73758" lon="5.26924">
        <ele>301.2</ele>
        <time>2023-05-28T09:23:59Z</time>
      </trkpt>
      <trkpt lat="45.73748" lon="5.26931">
        <ele>301</ele>
        <time>2023-05-28T09:24:00Z</time>
      </trkpt>
      <trkpt lat="45.73737" lon="5.2694">
        <ele>300.4</ele>
        <time>2023-05-28T09:24:01Z</time>
      </trkpt>
      <trkpt lat="45.73729" lon="5.26946">
        <ele>300.2</ele>
        <time>2023-05-28T09:24:02Z</time>
      </trkpt>
      <trkpt lat="45.73719" lon="5.26954">
        <ele>300.2</ele>
        <time>2023-05-28T09:24:03Z</time>
      </trkpt>
      <trkpt lat="45.7371" lon="5.26962">
        <ele>300</ele>
        <time>2023-05-28T09:24:04Z</time>
      </trkpt>
      <trkpt lat="45.73699" lon="5.26971">
        <ele>299.4</ele>
        <time>2023-05-28T09:24:05Z</time>
      </trkpt>
      <trkpt lat="45.73689" lon="5.26979">
        <ele>298</ele>
        <time>2023-05-28T09:24:06Z</time>
      </trkpt>
      <trkpt lat="45.73681" lon="5.26983">
        <ele>297.6</ele>
        <time>2023-05-28T09:24:07Z</time>
      </trkpt>
      <trkpt lat="45.73669" lon="5.26986">
        <ele>297</ele>
        <time>2023-05-28T09:24:08Z</time>
      </trkpt>
      <trkpt lat="45.7366" lon="5.26982">
        <ele>296.6</ele>
        <time>2023-05-28T09:24:09Z</time>
      </trkpt>
      <trkpt lat="45.73651" lon="5.26975">
        <ele>296.2</ele>
        <time>2023-05-28T09:24:10Z</time>
      </trkpt>
      <trkpt lat="45.73644" lon="5.26965">
        <ele>295.8</ele>
        <time>2023-05-28T09:24:11Z</time>
      </trkpt>
      <trkpt lat="45.73639" lon="5.26954">
        <ele>295.2</ele>
        <time>2023-05-28T09:24:12Z</time>
      </trkpt>
      <trkpt lat="45.73636" lon="5.26944">
        <ele>295</ele>
        <time>2023-05-28T09:24:13Z</time>
      </trkpt>
      <trkpt lat="45.73632" lon="5.26933">
        <ele>294.8</ele>
        <time>2023-05-28T09:24:14Z</time>
      </trkpt>
      <trkpt lat="45.73628" lon="5.2692">
        <ele>294.2</ele>
        <time>2023-05-28T09:24:15Z</time>
      </trkpt>
      <trkpt lat="45.73626" lon="5.26909">
        <ele>293.8</ele>
        <time>2023-05-28T09:24:16Z</time>
      </trkpt>
      <trkpt lat="45.73624" lon="5.26899">
        <ele>293.6</ele>
        <time>2023-05-28T09:24:17Z</time>
      </trkpt>
      <trkpt lat="45.73622" lon="5.2689">
        <ele>293.4</ele>
        <time>2023-05-28T09:24:18Z</time>
      </trkpt>
      <trkpt lat="45.7362" lon="5.26878">
        <ele>293.2</ele>
        <time>2023-05-28T09:24:19Z</time>
      </trkpt>
      <trkpt lat="45.73618" lon="5.26867">
        <ele>292.6</ele>
        <time>2023-05-28T09:24:20Z</time>
      </trkpt>
      <trkpt lat="45.73614" lon="5.26857">
        <ele>292.2</ele>
        <time>2023-05-28T09:24:21Z</time>
      </trkpt>
      <trkpt lat="45.7361" lon="5.26849">
        <ele>291.6</ele>
        <time>2023-05-28T09:24:22Z</time>
      </trkpt>
      <trkpt lat="45.73605" lon="5.26839">
        <ele>291.6</ele>
        <time>2023-05-28T09:24:23Z</time>
      </trkpt>
      <trkpt lat="45.73599" lon="5.26829">
        <ele>291.2</ele>
        <time>2023-05-28T09:24:24Z</time>
      </trkpt>
      <trkpt lat="45.73592" lon="5.26816">
        <ele>291</ele>
        <time>2023-05-28T09:24:25Z</time>
      </trkpt>
      <trkpt lat="45.73588" lon="5.26804">
        <ele>290.8</ele>
        <time>2023-05-28T09:24:26Z</time>
      </trkpt>
      <trkpt lat="45.73583" lon="5.26792">
        <ele>290.6</ele>
        <time>2023-05-28T09:24:27Z</time>
      </trkpt>
      <trkpt lat="45.73581" lon="5.26781">
        <ele>290.2</ele>
        <time>2023-05-28T09:24:28Z</time>
      </trkpt>
      <trkpt lat="45.73579" lon="5.26767">
        <ele>289.8</ele>
        <time>2023-05-28T09:24:29Z</time>
      </trkpt>
      <trkpt lat="45.73576" lon="5.2675">
        <ele>289.6</ele>
        <time>2023-05-28T09:24:30Z</time>
      </trkpt>
      <trkpt lat="45.73574" lon="5.26735">
        <ele>289</ele>
        <time>2023-05-28T09:24:31Z</time>
      </trkpt>
      <trkpt lat="45.73572" lon="5.26721">
        <ele>288.8</ele>
        <time>2023-05-28T09:24:32Z</time>
      </trkpt>
      <trkpt lat="45.7357" lon="5.26706">
        <ele>288.6</ele>
        <time>2023-05-28T09:24:33Z</time>
      </trkpt>
      <trkpt lat="45.73568" lon="5.26694">
        <ele>288.4</ele>
        <time>2023-05-28T09:24:34Z</time>
      </trkpt>
      <trkpt lat="45.73565" lon="5.26676">
        <ele>288.2</ele>
        <time>2023-05-28T09:24:35Z</time>
      </trkpt>
      <trkpt lat="45.73561" lon="5.26661">
        <ele>287.8</ele>
        <time>2023-05-28T09:24:36Z</time>
      </trkpt>
      <trkpt lat="45.73558" lon="5.26649">
        <ele>287.6</ele>
        <time>2023-05-28T09:24:37Z</time>
      </trkpt>
      <trkpt lat="45.7355" lon="5.26633">
        <ele>287.2</ele>
        <time>2023-05-28T09:24:38Z</time>
      </trkpt>
      <trkpt lat="45.73543" lon="5.26621">
        <ele>287.2</ele>
        <time>2023-05-28T09:24:39Z</time>
      </trkpt>
      <trkpt lat="45.73535" lon="5.26609">
        <ele>286.8</ele>
        <time>2023-05-28T09:24:40Z</time>
      </trkpt>
      <trkpt lat="45.73525" lon="5.26598">
        <ele>286.8</ele>
        <time>2023-05-28T09:24:41Z</time>
      </trkpt>
      <trkpt lat="45.73516" lon="5.26587">
        <ele>286.2</ele>
        <time>2023-05-28T09:24:42Z</time>
      </trkpt>
      <trkpt lat="45.73506" lon="5.26575">
        <ele>285.6</ele>
        <time>2023-05-28T09:24:43Z</time>
      </trkpt>
      <trkpt lat="45.73497" lon="5.26564">
        <ele>285</ele>
        <time>2023-05-28T09:24:44Z</time>
      </trkpt>
      <trkpt lat="45.73487" lon="5.26551">
        <ele>284.2</ele>
        <time>2023-05-28T09:24:45Z</time>
      </trkpt>
      <trkpt lat="45.73477" lon="5.26538">
        <ele>283.8</ele>
        <time>2023-05-28T09:24:46Z</time>
      </trkpt>
      <trkpt lat="45.73469" lon="5.26528">
        <ele>283.4</ele>
        <time>2023-05-28T09:24:47Z</time>
      </trkpt>
      <trkpt lat="45.73459" lon="5.26514">
        <ele>283.2</ele>
        <time>2023-05-28T09:24:48Z</time>
      </trkpt>
      <trkpt lat="45.73447" lon="5.26498">
        <ele>282.8</ele>
        <time>2023-05-28T09:24:49Z</time>
      </trkpt>
      <trkpt lat="45.73437" lon="5.26484">
        <ele>281.6</ele>
        <time>2023-05-28T09:24:50Z</time>
      </trkpt>
      <trkpt lat="45.73427" lon="5.26469">
        <ele>281.2</ele>
        <time>2023-05-28T09:24:51Z</time>
      </trkpt>
      <trkpt lat="45.73419" lon="5.26457">
        <ele>280.4</ele>
        <time>2023-05-28T09:24:52Z</time>
      </trkpt>
      <trkpt lat="45.73408" lon="5.26442">
        <ele>280</ele>
        <time>2023-05-28T09:24:53Z</time>
      </trkpt>
      <trkpt lat="45.73396" lon="5.26425">
        <ele>279</ele>
        <time>2023-05-28T09:24:54Z</time>
      </trkpt>
      <trkpt lat="45.73385" lon="5.2641">
        <ele>278</ele>
        <time>2023-05-28T09:24:55Z</time>
      </trkpt>
      <trkpt lat="45.73375" lon="5.26396">
        <ele>276.8</ele>
        <time>2023-05-28T09:24:56Z</time>
      </trkpt>
      <trkpt lat="45.73365" lon="5.26382">
        <ele>276.2</ele>
        <time>2023-05-28T09:24:57Z</time>
      </trkpt>
      <trkpt lat="45.73356" lon="5.2637">
        <ele>275.4</ele>
        <time>2023-05-28T09:24:58Z</time>
      </trkpt>
      <trkpt lat="45.73344" lon="5.26353">
        <ele>274.8</ele>
        <time>2023-05-28T09:24:59Z</time>
      </trkpt>
      <trkpt lat="45.73335" lon="5.26338">
        <ele>274.4</ele>
        <time>2023-05-28T09:25:00Z</time>
      </trkpt>
      <trkpt lat="45.73326" lon="5.26323">
        <ele>273.8</ele>
        <time>2023-05-28T09:25:01Z</time>
      </trkpt>
      <trkpt lat="45.7332" lon="5.26309">
        <ele>273.6</ele>
        <time>2023-05-28T09:25:02Z</time>
      </trkpt>
      <trkpt lat="45.73313" lon="5.26292">
        <ele>272.8</ele>
        <time>2023-05-28T09:25:03Z</time>
      </trkpt>
      <trkpt lat="45.73309" lon="5.26271">
        <ele>272.4</ele>
        <time>2023-05-28T09:25:04Z</time>
      </trkpt>
      <trkpt lat="45.73307" lon="5.26256">
        <ele>270.8</ele>
        <time>2023-05-28T09:25:05Z</time>
      </trkpt>
      <trkpt lat="45.73305" lon="5.26238">
        <ele>270.2</ele>
        <time>2023-05-28T09:25:06Z</time>
      </trkpt>
      <trkpt lat="45.73303" lon="5.26219">
        <ele>269.6</ele>
        <time>2023-05-28T09:25:07Z</time>
      </trkpt>
      <trkpt lat="45.733" lon="5.26201">
        <ele>268.6</ele>
        <time>2023-05-28T09:25:08Z</time>
      </trkpt>
      <trkpt lat="45.73297" lon="5.26184">
        <ele>268.2</ele>
        <time>2023-05-28T09:25:09Z</time>
      </trkpt>
      <trkpt lat="45.73294" lon="5.26163">
        <ele>266.8</ele>
        <time>2023-05-28T09:25:10Z</time>
      </trkpt>
      <trkpt lat="45.73291" lon="5.26146">
        <ele>266</ele>
        <time>2023-05-28T09:25:11Z</time>
      </trkpt>
      <trkpt lat="45.73289" lon="5.26132">
        <ele>264.6</ele>
        <time>2023-05-28T09:25:12Z</time>
      </trkpt>
      <trkpt lat="45.73286" lon="5.26116">
        <ele>263.2</ele>
        <time>2023-05-28T09:25:13Z</time>
      </trkpt>
      <trkpt lat="45.73282" lon="5.26097">
        <ele>262.2</ele>
        <time>2023-05-28T09:25:14Z</time>
      </trkpt>
      <trkpt lat="45.73279" lon="5.26081">
        <ele>261.2</ele>
        <time>2023-05-28T09:25:15Z</time>
      </trkpt>
      <trkpt lat="45.73276" lon="5.26065">
        <ele>260.4</ele>
        <time>2023-05-28T09:25:16Z</time>
      </trkpt>
      <trkpt lat="45.73274" lon="5.26053">
        <ele>259.2</ele>
        <time>2023-05-28T09:25:17Z</time>
      </trkpt>
      <trkpt lat="45.73272" lon="5.26039">
        <ele>258.4</ele>
        <time>2023-05-28T09:25:18Z</time>
      </trkpt>
      <trkpt lat="45.73269" lon="5.26021">
        <ele>257</ele>
        <time>2023-05-28T09:25:19Z</time>
      </trkpt>
      <trkpt lat="45.73266" lon="5.26007">
        <ele>256.8</ele>
        <time>2023-05-28T09:25:20Z</time>
      </trkpt>
      <trkpt lat="45.73264" lon="5.25993">
        <ele>256</ele>
        <time>2023-05-28T09:25:21Z</time>
      </trkpt>
      <trkpt lat="45.73261" lon="5.25982">
        <ele>255.2</ele>
        <time>2023-05-28T09:25:22Z</time>
      </trkpt>
      <trkpt lat="45.73259" lon="5.25969">
        <ele>254.8</ele>
        <time>2023-05-28T09:25:23Z</time>
      </trkpt>
      <trkpt lat="45.73256" lon="5.25953">
        <ele>253.6</ele>
        <time>2023-05-28T09:25:24Z</time>
      </trkpt>
      <trkpt lat="45.73254" lon="5.2594">
        <ele>252.4</ele>
        <time>2023-05-28T09:25:25Z</time>
      </trkpt>
      <trkpt lat="45.73252" lon="5.25926">
        <ele>251</ele>
        <time>2023-05-28T09:25:26Z</time>
      </trkpt>
      <trkpt lat="45.7325" lon="5.25916">
        <ele>250.2</ele>
        <time>2023-05-28T09:25:27Z</time>
      </trkpt>
      <trkpt lat="45.73248" lon="5.25903">
        <ele>249.2</ele>
        <time>2023-05-28T09:25:28Z</time>
      </trkpt>
      <trkpt lat="45.73245" lon="5.25887">
        <ele>248.6</ele>
        <time>2023-05-28T09:25:29Z</time>
      </trkpt>
      <trkpt lat="45.73242" lon="5.25875">
        <ele>248.2</ele>
        <time>2023-05-28T09:25:30Z</time>
      </trkpt>
      <trkpt lat="45.7324" lon="5.25862">
        <ele>247.8</ele>
        <time>2023-05-28T09:25:31Z</time>
      </trkpt>
      <trkpt lat="45.73236" lon="5.25837">
        <ele>246.8</ele>
        <time>2023-05-28T09:25:33Z</time>
      </trkpt>
      <trkpt lat="45.73235" lon="5.25827">
        <ele>246.2</ele>
        <time>2023-05-28T09:25:34Z</time>
      </trkpt>
      <trkpt lat="45.73233" lon="5.25816">
        <ele>245.4</ele>
        <time>2023-05-28T09:25:35Z</time>
      </trkpt>
      <trkpt lat="45.73229" lon="5.25804">
        <ele>244.4</ele>
        <time>2023-05-28T09:25:36Z</time>
      </trkpt>
      <trkpt lat="45.73225" lon="5.25794">
        <ele>244.4</ele>
        <time>2023-05-28T09:25:37Z</time>
      </trkpt>
      <trkpt lat="45.73212" lon="5.25777">
        <ele>243.8</ele>
        <time>2023-05-28T09:25:39Z</time>
      </trkpt>
      <trkpt lat="45.73204" lon="5.25768">
        <ele>243.4</ele>
        <time>2023-05-28T09:25:40Z</time>
      </trkpt>
      <trkpt lat="45.73197" lon="5.2576">
        <ele>243.2</ele>
        <time>2023-05-28T09:25:41Z</time>
      </trkpt>
      <trkpt lat="45.73191" lon="5.25754">
        <ele>242.6</ele>
        <time>2023-05-28T09:25:42Z</time>
      </trkpt>
      <trkpt lat="45.73184" lon="5.25747">
        <ele>242</ele>
        <time>2023-05-28T09:25:43Z</time>
      </trkpt>
      <trkpt lat="45.73176" lon="5.25738">
        <ele>241.6</ele>
        <time>2023-05-28T09:25:44Z</time>
      </trkpt>
      <trkpt lat="45.73171" lon="5.25732">
        <ele>241</ele>
        <time>2023-05-28T09:25:45Z</time>
      </trkpt>
      <trkpt lat="45.73163" lon="5.25723">
        <ele>241</ele>
        <time>2023-05-28T09:25:46Z</time>
      </trkpt>
      <trkpt lat="45.73158" lon="5.25717">
        <ele>240.6</ele>
        <time>2023-05-28T09:25:47Z</time>
      </trkpt>
      <trkpt lat="45.73152" lon="5.25709">
        <ele>240.4</ele>
        <time>2023-05-28T09:25:48Z</time>
      </trkpt>
      <trkpt lat="45.73144" lon="5.25701">
        <ele>240</ele>
        <time>2023-05-28T09:25:49Z</time>
      </trkpt>
      <trkpt lat="45.73137" lon="5.25694">
        <ele>239.6</ele>
        <time>2023-05-28T09:25:50Z</time>
      </trkpt>
      <trkpt lat="45.7313" lon="5.25688">
        <ele>239.4</ele>
        <time>2023-05-28T09:25:51Z</time>
      </trkpt>
      <trkpt lat="45.73125" lon="5.25683">
        <ele>239.4</ele>
        <time>2023-05-28T09:25:52Z</time>
      </trkpt>
      <trkpt lat="45.73118" lon="5.25677">
        <ele>239.4</ele>
        <time>2023-05-28T09:25:53Z</time>
      </trkpt>
      <trkpt lat="45.73109" lon="5.25669">
        <ele>239</ele>
        <time>2023-05-28T09:25:54Z</time>
      </trkpt>
      <trkpt lat="45.73103" lon="5.25665">
        <ele>239</ele>
        <time>2023-05-28T09:25:55Z</time>
      </trkpt>
      <trkpt lat="45.73096" lon="5.25659">
        <ele>238.8</ele>
        <time>2023-05-28T09:25:56Z</time>
      </trkpt>
      <trkpt lat="45.73089" lon="5.25653">
        <ele>238.8</ele>
        <time>2023-05-28T09:25:57Z</time>
      </trkpt>
      <trkpt lat="45.73082" lon="5.25648">
        <ele>238.8</ele>
        <time>2023-05-28T09:25:58Z</time>
      </trkpt>
      <trkpt lat="45.73074" lon="5.25643">
        <ele>238.4</ele>
        <time>2023-05-28T09:25:59Z</time>
      </trkpt>
    </trkseg>
  </trk>
</gpx>